<?xml version='1.0' encoding='UTF-8'?><gpx version="1.1" creator="JPX - https://github.com/jenetics/jpx" xmlns="http://www.topografix.com/GPX/1/1"><trk><trkseg><trkpt lat="43.079704405687444" lon="12.501188759040405"><ele>197.85714285714286</ele><time>2026-04-26T06:58:25.999Z</time></trkpt><trkpt lat="43.07971934989669" lon="12.501278342055835"><ele>197.7142857142857</ele><time>2026-04-26T06:59:04.998Z</time></trkpt><trkpt lat="43.07967714934421" lon="12.50134246832583"><ele>197.57142857142856</ele><time>2026-04-26T06:59:07.998Z</time></trkpt><trkpt lat="43.079607911943405" lon="12.501331796556528"><ele>197.42857142857144</ele><time>2026-04-26T06:59:10.998Z</time></trkpt><trkpt lat="43.0795253037488" lon="12.501395007764376"><ele>197.28571428571428</ele><time>2026-04-26T06:59:14.998Z</time></trkpt><trkpt lat="43.07952404376773" lon="12.501503914020972"><ele>197.14285714285714</ele><time>2026-04-26T06:59:16.998Z</time></trkpt><trkpt lat="43.079581825393554" lon="12.501547583216041"><ele>197.0</ele><time>2026-04-26T06:59:18.998Z</time></trkpt><trkpt lat="43.079655024593556" lon="12.501573684792003"><ele>197.0</ele><time>2026-04-26T06:59:27.998Z</time></trkpt><trkpt lat="43.07978217600655" lon="12.501454647641015"><ele>197.0</ele><time>2026-04-26T06:59:29.998Z</time></trkpt><trkpt lat="43.079829737057224" lon="12.501308750026242"><ele>197.0</ele><time>2026-04-26T06:59:30.998Z</time></trkpt><trkpt lat="43.079864107835725" lon="12.501126969456697"><ele>197.0</ele><time>2026-04-26T06:59:31.998Z</time></trkpt><trkpt lat="43.07989589782649" lon="12.500962785487136"><ele>197.2</ele><time>2026-04-26T06:59:32.998Z</time></trkpt><trkpt lat="43.07992784282396" lon="12.500839995922117"><ele>197.39999999999998</ele><time>2026-04-26T06:59:33.998Z</time></trkpt><trkpt lat="43.08000815417415" lon="12.500732868117165"><ele>197.60000000000002</ele><time>2026-04-26T06:59:35.998Z</time></trkpt><trkpt lat="43.08014793652302" lon="12.500675827308356"><ele>197.8</ele><time>2026-04-26T06:59:37.998Z</time></trkpt><trkpt lat="43.08023695094558" lon="12.500665438970492"><ele>198.0</ele><time>2026-04-26T06:59:38.998Z</time></trkpt><trkpt lat="43.08032525967492" lon="12.500709572176236"><ele>198.25</ele><time>2026-04-26T06:59:39.998Z</time></trkpt><trkpt lat="43.080424474292236" lon="12.500728748783397"><ele>198.5</ele><time>2026-04-26T06:59:40.998Z</time></trkpt><trkpt lat="43.08053563875969" lon="12.500773936263089"><ele>198.75</ele><time>2026-04-26T06:59:41.998Z</time></trkpt><trkpt lat="43.08065664882568" lon="12.500819643505267"><ele>199.0</ele><time>2026-04-26T06:59:42.998Z</time></trkpt><trkpt lat="43.08075561058716" lon="12.500881182333094"><ele>198.99999999999997</ele><time>2026-04-26T06:59:43.998Z</time></trkpt><trkpt lat="43.08083005177306" lon="12.500958955401916"><ele>199.0</ele><time>2026-04-26T06:59:44.998Z</time></trkpt><trkpt lat="43.08088628440675" lon="12.501055680562617"><ele>199.0</ele><time>2026-04-26T06:59:45.998Z</time></trkpt><trkpt lat="43.080932633477666" lon="12.50114644356809"><ele>199.0</ele><time>2026-04-26T06:59:46.998Z</time></trkpt><trkpt lat="43.08096834204773" lon="12.501234775917979"><ele>198.99999999999997</ele><time>2026-04-26T06:59:47.998Z</time></trkpt><trkpt lat="43.081002168255736" lon="12.501322107336243"><ele>199.0</ele><time>2026-04-26T06:59:48.998Z</time></trkpt><trkpt lat="43.081031841572575" lon="12.501416868626618"><ele>198.99999999999997</ele><time>2026-04-26T06:59:49.997Z</time></trkpt><trkpt lat="43.081047310590016" lon="12.501528902286704"><ele>199.0</ele><time>2026-04-26T06:59:50.997Z</time></trkpt><trkpt lat="43.08104648299139" lon="12.501644733778722"><ele>199.0</ele><time>2026-04-26T06:59:52Z</time></trkpt><trkpt lat="43.081028151093875" lon="12.501763894554776"><ele>199.0</ele><time>2026-04-26T06:59:53Z</time></trkpt><trkpt lat="43.08099937935846" lon="12.501885384960659"><ele>198.99999999999997</ele><time>2026-04-26T06:59:54Z</time></trkpt><trkpt lat="43.080977215653014" lon="12.501992170495647"><ele>199.0</ele><time>2026-04-26T06:59:55Z</time></trkpt><trkpt lat="43.08095891244343" lon="12.502079773640874"><ele>199.0</ele><time>2026-04-26T06:59:56Z</time></trkpt><trkpt lat="43.08093700721294" lon="12.502175481916405"><ele>199.0</ele><time>2026-04-26T06:59:57Z</time></trkpt><trkpt lat="43.0809111279593" lon="12.502287473012892"><ele>199.0</ele><time>2026-04-26T06:59:58Z</time></trkpt><trkpt lat="43.0808865801162" lon="12.502424619630899"><ele>199.0</ele><time>2026-04-26T06:59:59Z</time></trkpt><trkpt lat="43.08085900087942" lon="12.502572387869039"><ele>199.0</ele><time>2026-04-26T07:00:00Z</time></trkpt><trkpt lat="43.0808283337641" lon="12.502721584868313"><ele>198.99999999999997</ele><time>2026-04-26T07:00:01Z</time></trkpt><trkpt lat="43.080798470776266" lon="12.502857887733649"><ele>199.0</ele><time>2026-04-26T07:00:02Z</time></trkpt><trkpt lat="43.080781173164816" lon="12.502973869014717"><ele>199.0</ele><time>2026-04-26T07:00:03Z</time></trkpt><trkpt lat="43.08077798397333" lon="12.503060672101938"><ele>199.0</ele><time>2026-04-26T07:00:04Z</time></trkpt><trkpt lat="43.08083510160906" lon="12.503171331334132"><ele>198.99999999999997</ele><time>2026-04-26T07:00:06Z</time></trkpt><trkpt lat="43.08089676424335" lon="12.503224794543923"><ele>199.0</ele><time>2026-04-26T07:00:07Z</time></trkpt><trkpt lat="43.080976753594726" lon="12.503273709916627"><ele>199.0</ele><time>2026-04-26T07:00:08Z</time></trkpt><trkpt lat="43.08107150504265" lon="12.50332329745932"><ele>199.0</ele><time>2026-04-26T07:00:09Z</time></trkpt><trkpt lat="43.08117468375711" lon="12.503376230248087"><ele>199.0</ele><time>2026-04-26T07:00:10Z</time></trkpt><trkpt lat="43.081280819811305" lon="12.503429756758191"><ele>199.0</ele><time>2026-04-26T07:00:11Z</time></trkpt><trkpt lat="43.081359516996365" lon="12.503471246902121"><ele>199.0</ele><time>2026-04-26T07:00:12Z</time></trkpt><trkpt lat="43.081428625615544" lon="12.503510221634706"><ele>198.99999999999997</ele><time>2026-04-26T07:00:13Z</time></trkpt><trkpt lat="43.081483765745766" lon="12.503552411833358"><ele>199.0</ele><time>2026-04-26T07:00:14Z</time></trkpt><trkpt lat="43.08155324575696" lon="12.503646474843965"><ele>199.0</ele><time>2026-04-26T07:00:16Z</time></trkpt><trkpt lat="43.08153679347577" lon="12.503789019261745"><ele>199.0</ele><time>2026-04-26T07:00:18Z</time></trkpt><trkpt lat="43.08151852695633" lon="12.503898876869535"><ele>198.99999999999997</ele><time>2026-04-26T07:00:19Z</time></trkpt><trkpt lat="43.081491707982266" lon="12.504028995163495"><ele>199.0</ele><time>2026-04-26T07:00:20Z</time></trkpt><trkpt lat="43.081463725054114" lon="12.504160244025229"><ele>198.79999999999998</ele><time>2026-04-26T07:00:21Z</time></trkpt><trkpt lat="43.081439191523245" lon="12.504299322935175"><ele>198.6</ele><time>2026-04-26T07:00:21.999Z</time></trkpt><trkpt lat="43.081414612895145" lon="12.504446424153572"><ele>198.4</ele><time>2026-04-26T07:00:22.999Z</time></trkpt><trkpt lat="43.08138575473294" lon="12.504593847791178"><ele>198.2</ele><time>2026-04-26T07:00:23.999Z</time></trkpt><trkpt lat="43.081356790411014" lon="12.504738720051167"><ele>198.0</ele><time>2026-04-26T07:00:24.999Z</time></trkpt><trkpt lat="43.081327547603046" lon="12.50487862305356"><ele>198.0</ele><time>2026-04-26T07:00:25.999Z</time></trkpt><trkpt lat="43.08130234065713" lon="12.505004091710783"><ele>198.0</ele><time>2026-04-26T07:00:26.999Z</time></trkpt><trkpt lat="43.08128289113083" lon="12.50510898624572"><ele>198.0</ele><time>2026-04-26T07:00:27.999Z</time></trkpt><trkpt lat="43.08124752892275" lon="12.505242568869075"><ele>198.0</ele><time>2026-04-26T07:00:29.999Z</time></trkpt><trkpt lat="43.08122699160143" lon="12.505331510414068"><ele>198.0</ele><time>2026-04-26T07:00:32.999Z</time></trkpt><trkpt lat="43.08136814310257" lon="12.505469401672723"><ele>198.75</ele><time>2026-04-26T07:00:35.999Z</time></trkpt><trkpt lat="43.08147274804857" lon="12.50551204634259"><ele>199.5</ele><time>2026-04-26T07:00:36.999Z</time></trkpt><trkpt lat="43.08158045242356" lon="12.505561149875517"><ele>200.25</ele><time>2026-04-26T07:00:37.999Z</time></trkpt><trkpt lat="43.08170582228046" lon="12.505622154751133"><ele>201.0</ele><time>2026-04-26T07:00:38.999Z</time></trkpt><trkpt lat="43.081845576180676" lon="12.505694196087223"><ele>201.0</ele><time>2026-04-26T07:00:39.999Z</time></trkpt><trkpt lat="43.081989820706724" lon="12.505763197873298"><ele>201.0</ele><time>2026-04-26T07:00:40.999Z</time></trkpt><trkpt lat="43.082134710032236" lon="12.505839479739915"><ele>201.0</ele><time>2026-04-26T07:00:41.999Z</time></trkpt><trkpt lat="43.082286298539415" lon="12.505919941981709"><ele>201.0</ele><time>2026-04-26T07:00:42.999Z</time></trkpt><trkpt lat="43.08242956759172" lon="12.505996490798585"><ele>201.0</ele><time>2026-04-26T07:00:43.999Z</time></trkpt><trkpt lat="43.08255997407944" lon="12.50606199596187"><ele>201.0</ele><time>2026-04-26T07:00:44.999Z</time></trkpt><trkpt lat="43.082690179358636" lon="12.506128404124299"><ele>201.0</ele><time>2026-04-26T07:00:45.999Z</time></trkpt><trkpt lat="43.08281796551945" lon="12.50619741983294"><ele>201.0</ele><time>2026-04-26T07:00:46.999Z</time></trkpt><trkpt lat="43.082966275754515" lon="12.506273643951559"><ele>201.0</ele><time>2026-04-26T07:00:47.999Z</time></trkpt><trkpt lat="43.08313522097938" lon="12.506361134549152"><ele>201.0</ele><time>2026-04-26T07:00:48.999Z</time></trkpt><trkpt lat="43.08329843983107" lon="12.506448682229864"><ele>201.0</ele><time>2026-04-26T07:00:49.999Z</time></trkpt><trkpt lat="43.08346224450225" lon="12.506535801583391"><ele>201.0</ele><time>2026-04-26T07:00:50.999Z</time></trkpt><trkpt lat="43.08362945930926" lon="12.506624126622887"><ele>201.0</ele><time>2026-04-26T07:00:51.999Z</time></trkpt><trkpt lat="43.08379918033905" lon="12.506711240429441"><ele>201.0</ele><time>2026-04-26T07:00:52.999Z</time></trkpt><trkpt lat="43.083965673545265" lon="12.506802085896233"><ele>201.0</ele><time>2026-04-26T07:00:53.999Z</time></trkpt><trkpt lat="43.08412677774998" lon="12.506885695860724"><ele>201.0</ele><time>2026-04-26T07:00:54.999Z</time></trkpt><trkpt lat="43.08429112695727" lon="12.506966866106588"><ele>201.0</ele><time>2026-04-26T07:00:55.999Z</time></trkpt><trkpt lat="43.08445559266669" lon="12.50704558125969"><ele>201.0</ele><time>2026-04-26T07:00:56.999Z</time></trkpt><trkpt lat="43.084624050695744" lon="12.507127624933831"><ele>201.0</ele><time>2026-04-26T07:00:57.999Z</time></trkpt><trkpt lat="43.08479382171448" lon="12.507203991037041"><ele>201.0</ele><time>2026-04-26T07:00:58.999Z</time></trkpt><trkpt lat="43.08496412995065" lon="12.507279796630993"><ele>201.0</ele><time>2026-04-26T07:00:59.999Z</time></trkpt><trkpt lat="43.08513215526581" lon="12.507354258349217"><ele>201.0</ele><time>2026-04-26T07:01:00.999Z</time></trkpt><trkpt lat="43.08529449389792" lon="12.507424823947433"><ele>201.0</ele><time>2026-04-26T07:01:01.999Z</time></trkpt><trkpt lat="43.08545112164696" lon="12.507496213087732"><ele>201.0</ele><time>2026-04-26T07:01:02.999Z</time></trkpt><trkpt lat="43.085601843556766" lon="12.507566875136307"><ele>201.0</ele><time>2026-04-26T07:01:03.999Z</time></trkpt><trkpt lat="43.085744470476456" lon="12.50763733463605"><ele>201.0</ele><time>2026-04-26T07:01:04.999Z</time></trkpt><trkpt lat="43.08587732949551" lon="12.50770688682443"><ele>201.0</ele><time>2026-04-26T07:01:05.999Z</time></trkpt><trkpt lat="43.085994480047944" lon="12.507768971713263"><ele>201.0</ele><time>2026-04-26T07:01:06.998Z</time></trkpt><trkpt lat="43.086099263889494" lon="12.507826386169096"><ele>201.0</ele><time>2026-04-26T07:01:07.998Z</time></trkpt><trkpt lat="43.08619122059635" lon="12.507874906783913"><ele>200.83333333333334</ele><time>2026-04-26T07:01:08.998Z</time></trkpt><trkpt lat="43.0862631644172" lon="12.507910842325986"><ele>200.66666666666669</ele><time>2026-04-26T07:01:09.998Z</time></trkpt><trkpt lat="43.086321631991744" lon="12.507944303275812"><ele>200.5</ele><time>2026-04-26T07:01:10.998Z</time></trkpt><trkpt lat="43.08639626764516" lon="12.507998355533665"><ele>200.33333333333334</ele><time>2026-04-26T07:01:12.998Z</time></trkpt><trkpt lat="43.08644650062006" lon="12.50805103287192"><ele>200.16666666666669</ele><time>2026-04-26T07:01:17.998Z</time></trkpt><trkpt lat="43.0865353316847" lon="12.508072888022559"><ele>200.0</ele><time>2026-04-26T07:01:32.998Z</time></trkpt><trkpt lat="43.0866058807323" lon="12.507969576449765"><ele>199.83333333333334</ele><time>2026-04-26T07:01:34.998Z</time></trkpt><trkpt lat="43.086645654229834" lon="12.507894269164284"><ele>199.66666666666669</ele><time>2026-04-26T07:01:35.998Z</time></trkpt><trkpt lat="43.08668696601358" lon="12.5078012327761"><ele>199.5</ele><time>2026-04-26T07:01:36.998Z</time></trkpt><trkpt lat="43.08674268265967" lon="12.507713561951086"><ele>199.33333333333331</ele><time>2026-04-26T07:01:37.998Z</time></trkpt><trkpt lat="43.08681332574296" lon="12.507615828548143"><ele>199.16666666666666</ele><time>2026-04-26T07:01:38.998Z</time></trkpt><trkpt lat="43.08689066331632" lon="12.507513554941562"><ele>199.0</ele><time>2026-04-26T07:01:39.998Z</time></trkpt><trkpt lat="43.08697201048576" lon="12.507398072952912"><ele>199.0</ele><time>2026-04-26T07:01:40.998Z</time></trkpt><trkpt lat="43.087059934965886" lon="12.507269598365655"><ele>199.0</ele><time>2026-04-26T07:01:41.998Z</time></trkpt><trkpt lat="43.08715033346073" lon="12.507136729839829"><ele>199.0</ele><time>2026-04-26T07:01:42.998Z</time></trkpt><trkpt lat="43.087244561348726" lon="12.506995536500401"><ele>199.0</ele><time>2026-04-26T07:01:43.998Z</time></trkpt><trkpt lat="43.08734410252586" lon="12.50684984327073"><ele>199.66666666666666</ele><time>2026-04-26T07:01:44.998Z</time></trkpt><trkpt lat="43.08744967660691" lon="12.506700600349404"><ele>200.33333333333331</ele><time>2026-04-26T07:01:45.998Z</time></trkpt><trkpt lat="43.08755888028687" lon="12.506546571182227"><ele>201.0</ele><time>2026-04-26T07:01:46.998Z</time></trkpt><trkpt lat="43.087670823429754" lon="12.506387233421812"><ele>201.33333333333331</ele><time>2026-04-26T07:01:47.998Z</time></trkpt><trkpt lat="43.087786667771084" lon="12.506219567235405"><ele>201.66666666666666</ele><time>2026-04-26T07:01:48.998Z</time></trkpt><trkpt lat="43.08790100999682" lon="12.506055952310811"><ele>202.0</ele><time>2026-04-26T07:01:49.998Z</time></trkpt><trkpt lat="43.08801309109909" lon="12.505891467033043"><ele>202.0</ele><time>2026-04-26T07:01:50.998Z</time></trkpt><trkpt lat="43.08812574813525" lon="12.505724888813814"><ele>202.0</ele><time>2026-04-26T07:01:51.998Z</time></trkpt><trkpt lat="43.08824121223301" lon="12.505559354550648"><ele>202.0</ele><time>2026-04-26T07:01:52.997Z</time></trkpt><trkpt lat="43.08835876005607" lon="12.505391524207159"><ele>201.66666666666666</ele><time>2026-04-26T07:01:53.997Z</time></trkpt><trkpt lat="43.088475801281014" lon="12.505220787581742"><ele>201.33333333333331</ele><time>2026-04-26T07:01:54.997Z</time></trkpt><trkpt lat="43.08859272049067" lon="12.505048788903519"><ele>201.0</ele><time>2026-04-26T07:01:55.997Z</time></trkpt><trkpt lat="43.08871262531214" lon="12.504875148507777"><ele>201.0</ele><time>2026-04-26T07:01:56.997Z</time></trkpt><trkpt lat="43.0888335551267" lon="12.504701570587377"><ele>201.0</ele><time>2026-04-26T07:01:58Z</time></trkpt><trkpt lat="43.088956184825484" lon="12.50452560470501"><ele>201.0</ele><time>2026-04-26T07:01:59Z</time></trkpt><trkpt lat="43.08907951625469" lon="12.504347628058111"><ele>200.66666666666669</ele><time>2026-04-26T07:02:00Z</time></trkpt><trkpt lat="43.08920555047112" lon="12.504167185011461"><ele>200.33333333333334</ele><time>2026-04-26T07:02:01Z</time></trkpt><trkpt lat="43.08933337920584" lon="12.503988274947897"><ele>200.0</ele><time>2026-04-26T07:02:02Z</time></trkpt><trkpt lat="43.089458932180136" lon="12.503812482748115"><ele>199.66666666666669</ele><time>2026-04-26T07:02:03Z</time></trkpt><trkpt lat="43.089573503316075" lon="12.503646462281989"><ele>199.33333333333331</ele><time>2026-04-26T07:02:04Z</time></trkpt><trkpt lat="43.08967899848825" lon="12.503487981149455"><ele>199.0</ele><time>2026-04-26T07:02:05Z</time></trkpt><trkpt lat="43.08978070256397" lon="12.503334724183789"><ele>199.0</ele><time>2026-04-26T07:02:06Z</time></trkpt><trkpt lat="43.08987948256659" lon="12.503188826471176"><ele>199.0</ele><time>2026-04-26T07:02:07Z</time></trkpt><trkpt lat="43.08997621006949" lon="12.503056348631855"><ele>199.0</ele><time>2026-04-26T07:02:08Z</time></trkpt><trkpt lat="43.0900673549942" lon="12.502935942422617"><ele>199.0</ele><time>2026-04-26T07:02:09Z</time></trkpt><trkpt lat="43.09015528762262" lon="12.50282985036881"><ele>199.0</ele><time>2026-04-26T07:02:10Z</time></trkpt><trkpt lat="43.09024346449081" lon="12.502746935138019"><ele>199.0</ele><time>2026-04-26T07:02:11Z</time></trkpt><trkpt lat="43.09033563876022" lon="12.502682827048607"><ele>199.0</ele><time>2026-04-26T07:02:12Z</time></trkpt><trkpt lat="43.09043704033687" lon="12.502637352104566"><ele>199.0</ele><time>2026-04-26T07:02:13Z</time></trkpt><trkpt lat="43.09054580227585" lon="12.502618926698155"><ele>199.0</ele><time>2026-04-26T07:02:14Z</time></trkpt><trkpt lat="43.09065449296427" lon="12.502626569622816"><ele>199.25</ele><time>2026-04-26T07:02:15Z</time></trkpt><trkpt lat="43.09076254030781" lon="12.502660095859843"><ele>199.5</ele><time>2026-04-26T07:02:16Z</time></trkpt><trkpt lat="43.09087295873445" lon="12.502709047747365"><ele>199.75</ele><time>2026-04-26T07:02:17Z</time></trkpt><trkpt lat="43.09098736933049" lon="12.502761352516945"><ele>200.0</ele><time>2026-04-26T07:02:18Z</time></trkpt><trkpt lat="43.09110794115961" lon="12.502815863906633"><ele>200.0</ele><time>2026-04-26T07:02:19Z</time></trkpt><trkpt lat="43.09123601532673" lon="12.50287408129841"><ele>200.0</ele><time>2026-04-26T07:02:20Z</time></trkpt><trkpt lat="43.091370391552275" lon="12.502936607802967"><ele>200.0</ele><time>2026-04-26T07:02:21Z</time></trkpt><trkpt lat="43.09150981319193" lon="12.503004240894235"><ele>200.0</ele><time>2026-04-26T07:02:22Z</time></trkpt><trkpt lat="43.09165295448393" lon="12.503070359027637"><ele>201.0</ele><time>2026-04-26T07:02:23Z</time></trkpt><trkpt lat="43.09179882544466" lon="12.503136329776147"><ele>202.0</ele><time>2026-04-26T07:02:24Z</time></trkpt><trkpt lat="43.09194442563792" lon="12.50320574632596"><ele>203.0</ele><time>2026-04-26T07:02:24.999Z</time></trkpt><trkpt lat="43.092081842887204" lon="12.50327154527854"><ele>203.0</ele><time>2026-04-26T07:02:25.999Z</time></trkpt><trkpt lat="43.092210470200484" lon="12.503335139584603"><ele>203.0</ele><time>2026-04-26T07:02:26.999Z</time></trkpt><trkpt lat="43.09233015921593" lon="12.503388631752797"><ele>203.0</ele><time>2026-04-26T07:02:27.999Z</time></trkpt><trkpt lat="43.092442869747515" lon="12.503424359821526"><ele>203.0</ele><time>2026-04-26T07:02:28.999Z</time></trkpt><trkpt lat="43.09254571281153" lon="12.503399786180756"><ele>203.2</ele><time>2026-04-26T07:02:29.999Z</time></trkpt><trkpt lat="43.092625472245764" lon="12.503323892608499"><ele>203.4</ele><time>2026-04-26T07:02:30.999Z</time></trkpt><trkpt lat="43.092685846549685" lon="12.503215285906064"><ele>203.6</ele><time>2026-04-26T07:02:31.999Z</time></trkpt><trkpt lat="43.09273339234389" lon="12.503080850937142"><ele>203.79999999999998</ele><time>2026-04-26T07:02:32.999Z</time></trkpt><trkpt lat="43.092778489569085" lon="12.502927916271986"><ele>204.0</ele><time>2026-04-26T07:02:33.999Z</time></trkpt><trkpt lat="43.092825263097076" lon="12.502761051411566"><ele>203.5</ele><time>2026-04-26T07:02:34.999Z</time></trkpt><trkpt lat="43.09287428148033" lon="12.502585534428386"><ele>203.0</ele><time>2026-04-26T07:02:35.999Z</time></trkpt><trkpt lat="43.092924199847786" lon="12.502398076906411"><ele>202.5</ele><time>2026-04-26T07:02:36.999Z</time></trkpt><trkpt lat="43.09297643373105" lon="12.502201167047327"><ele>202.0</ele><time>2026-04-26T07:02:37.999Z</time></trkpt><trkpt lat="43.09303114944015" lon="12.501997674799242"><ele>202.0</ele><time>2026-04-26T07:02:38.999Z</time></trkpt><trkpt lat="43.093085892938284" lon="12.501780338949152"><ele>202.0</ele><time>2026-04-26T07:02:39.999Z</time></trkpt><trkpt lat="43.09313558889448" lon="12.501567611602031"><ele>202.0</ele><time>2026-04-26T07:02:40.999Z</time></trkpt><trkpt lat="43.0931844269757" lon="12.501349475542169"><ele>202.0</ele><time>2026-04-26T07:02:41.999Z</time></trkpt><trkpt lat="43.09323172720402" lon="12.501126503342096"><ele>202.0</ele><time>2026-04-26T07:02:42.999Z</time></trkpt><trkpt lat="43.09327870906791" lon="12.500900364539758"><ele>202.0</ele><time>2026-04-26T07:02:43.999Z</time></trkpt><trkpt lat="43.09332763127519" lon="12.50067196013908"><ele>202.0</ele><time>2026-04-26T07:02:44.999Z</time></trkpt><trkpt lat="43.09337608756234" lon="12.500447482582617"><ele>202.0</ele><time>2026-04-26T07:02:45.999Z</time></trkpt><trkpt lat="43.093415467285624" lon="12.500247889933059"><ele>202.0</ele><time>2026-04-26T07:02:46.999Z</time></trkpt><trkpt lat="43.09345197911421" lon="12.500064089367516"><ele>202.0</ele><time>2026-04-26T07:02:47.999Z</time></trkpt><trkpt lat="43.09348422902857" lon="12.499890785055788"><ele>202.0</ele><time>2026-04-26T07:02:48.999Z</time></trkpt><trkpt lat="43.093512102496526" lon="12.499730084786723"><ele>202.0</ele><time>2026-04-26T07:02:49.999Z</time></trkpt><trkpt lat="43.09353677615236" lon="12.499582864467508"><ele>202.0</ele><time>2026-04-26T07:02:50.999Z</time></trkpt><trkpt lat="43.09356428981971" lon="12.499449925884951"><ele>201.99999999999997</ele><time>2026-04-26T07:02:51.999Z</time></trkpt><trkpt lat="43.093595244357424" lon="12.49933245101834"><ele>202.0</ele><time>2026-04-26T07:02:52.999Z</time></trkpt><trkpt lat="43.09363465883989" lon="12.499229498475053"><ele>202.0</ele><time>2026-04-26T07:02:53.999Z</time></trkpt><trkpt lat="43.093683025738734" lon="12.499147199442033"><ele>202.0</ele><time>2026-04-26T07:02:54.999Z</time></trkpt><trkpt lat="43.09375059775617" lon="12.499086454644676"><ele>201.99999999999997</ele><time>2026-04-26T07:02:55.999Z</time></trkpt><trkpt lat="43.09382752002723" lon="12.49901995856253"><ele>202.0</ele><time>2026-04-26T07:02:56.999Z</time></trkpt><trkpt lat="43.09391385740917" lon="12.498959479316559"><ele>202.0</ele><time>2026-04-26T07:02:57.999Z</time></trkpt><trkpt lat="43.09394384143936" lon="12.49881453542084"><ele>202.0</ele><time>2026-04-26T07:02:58.999Z</time></trkpt><trkpt lat="43.09398184922418" lon="12.498679545047779"><ele>202.0</ele><time>2026-04-26T07:02:59.999Z</time></trkpt><trkpt lat="43.09402846364516" lon="12.498527833946286"><ele>202.0</ele><time>2026-04-26T07:03:00.999Z</time></trkpt><trkpt lat="43.09408575320187" lon="12.498377352917807"><ele>202.0</ele><time>2026-04-26T07:03:01.999Z</time></trkpt><trkpt lat="43.09414901051366" lon="12.498208792794834"><ele>202.0</ele><time>2026-04-26T07:03:02.999Z</time></trkpt><trkpt lat="43.094215666501825" lon="12.498028687234074"><ele>202.0</ele><time>2026-04-26T07:03:03.999Z</time></trkpt><trkpt lat="43.094285559332604" lon="12.497840715979624"><ele>202.0</ele><time>2026-04-26T07:03:04.999Z</time></trkpt><trkpt lat="43.09436260649628" lon="12.49764608524073"><ele>202.0</ele><time>2026-04-26T07:03:05.999Z</time></trkpt><trkpt lat="43.09444377157225" lon="12.497445024413706"><ele>202.0</ele><time>2026-04-26T07:03:06.999Z</time></trkpt><trkpt lat="43.09452055728689" lon="12.497246155909446"><ele>202.0</ele><time>2026-04-26T07:03:07.999Z</time></trkpt><trkpt lat="43.09460022667583" lon="12.497039361680345"><ele>202.0</ele><time>2026-04-26T07:03:08.999Z</time></trkpt><trkpt lat="43.09468305730054" lon="12.496829740230742"><ele>202.0</ele><time>2026-04-26T07:03:09.999Z</time></trkpt><trkpt lat="43.09476790497639" lon="12.496621431487643"><ele>202.0</ele><time>2026-04-26T07:03:10.998Z</time></trkpt><trkpt lat="43.094851317495596" lon="12.49641024004134"><ele>201.33333333333331</ele><time>2026-04-26T07:03:11.998Z</time></trkpt><trkpt lat="43.094934623530946" lon="12.496198357474876"><ele>200.66666666666669</ele><time>2026-04-26T07:03:12.998Z</time></trkpt><trkpt lat="43.095018459827806" lon="12.495984245949934"><ele>200.0</ele><time>2026-04-26T07:03:13.998Z</time></trkpt><trkpt lat="43.095103044052486" lon="12.495767514092375"><ele>200.0</ele><time>2026-04-26T07:03:14.998Z</time></trkpt><trkpt lat="43.09520305925844" lon="12.495563513401608"><ele>200.0</ele><time>2026-04-26T07:03:15.998Z</time></trkpt><trkpt lat="43.095288473863704" lon="12.495350751684514"><ele>200.0</ele><time>2026-04-26T07:03:16.998Z</time></trkpt><trkpt lat="43.09536674010239" lon="12.495151805757176"><ele>200.33333333333334</ele><time>2026-04-26T07:03:17.998Z</time></trkpt><trkpt lat="43.09542972528044" lon="12.494947092928626"><ele>200.66666666666669</ele><time>2026-04-26T07:03:18.998Z</time></trkpt><trkpt lat="43.095521305969044" lon="12.494768109939216"><ele>201.0</ele><time>2026-04-26T07:03:19.998Z</time></trkpt><trkpt lat="43.09559770581102" lon="12.494580332980865"><ele>201.0</ele><time>2026-04-26T07:03:20.998Z</time></trkpt><trkpt lat="43.09566033795508" lon="12.49438832355511"><ele>201.0</ele><time>2026-04-26T07:03:21.998Z</time></trkpt><trkpt lat="43.09573695993349" lon="12.49420379555773"><ele>201.0</ele><time>2026-04-26T07:03:22.998Z</time></trkpt><trkpt lat="43.095804950917845" lon="12.4940148788078"><ele>201.66666666666669</ele><time>2026-04-26T07:03:23.998Z</time></trkpt><trkpt lat="43.095853986577346" lon="12.493815939833613"><ele>202.33333333333334</ele><time>2026-04-26T07:03:24.998Z</time></trkpt><trkpt lat="43.09588807802684" lon="12.49360803553575"><ele>203.0</ele><time>2026-04-26T07:03:25.998Z</time></trkpt><trkpt lat="43.09591062707565" lon="12.493394849385613"><ele>203.0</ele><time>2026-04-26T07:03:26.998Z</time></trkpt><trkpt lat="43.09595079381623" lon="12.493187580296084"><ele>203.0</ele><time>2026-04-26T07:03:27.998Z</time></trkpt><trkpt lat="43.095975755109265" lon="12.492976971677162"><ele>203.0</ele><time>2026-04-26T07:03:28.998Z</time></trkpt><trkpt lat="43.095999284174425" lon="12.492777148624036"><ele>203.60000000000002</ele><time>2026-04-26T07:03:29.998Z</time></trkpt><trkpt lat="43.09601890015611" lon="12.492601585553091"><ele>204.20000000000002</ele><time>2026-04-26T07:03:30.998Z</time></trkpt><trkpt lat="43.09603502010476" lon="12.492457311985936"><ele>204.8</ele><time>2026-04-26T07:03:31.998Z</time></trkpt><trkpt lat="43.096034584878495" lon="12.492332386764973"><ele>205.4</ele><time>2026-04-26T07:03:32.998Z</time></trkpt><trkpt lat="43.09605817419906" lon="12.492237111896248"><ele>206.0</ele><time>2026-04-26T07:03:33.998Z</time></trkpt><trkpt lat="43.09611474953351" lon="12.4921137683247"><ele>206.4</ele><time>2026-04-26T07:03:35.998Z</time></trkpt><trkpt lat="43.09623476154649" lon="12.4920811909651"><ele>206.8</ele><time>2026-04-26T07:03:36.998Z</time></trkpt><trkpt lat="43.09632378434068" lon="12.492030967080035"><ele>207.20000000000002</ele><time>2026-04-26T07:03:37.998Z</time></trkpt><trkpt lat="43.096423593018" lon="12.491977528076509"><ele>207.60000000000002</ele><time>2026-04-26T07:03:38.998Z</time></trkpt><trkpt lat="43.09653767875587" lon="12.491917022950506"><ele>208.0</ele><time>2026-04-26T07:03:39.998Z</time></trkpt><trkpt lat="43.096652513520226" lon="12.491856578618636"><ele>208.25</ele><time>2026-04-26T07:03:40.998Z</time></trkpt><trkpt lat="43.09677589068538" lon="12.491788887191136"><ele>208.5</ele><time>2026-04-26T07:03:41.998Z</time></trkpt><trkpt lat="43.096905728208064" lon="12.491710922353354"><ele>208.75</ele><time>2026-04-26T07:03:42.998Z</time></trkpt><trkpt lat="43.097043323502724" lon="12.491632427581107"><ele>209.0</ele><time>2026-04-26T07:03:43.998Z</time></trkpt><trkpt lat="43.09719092401854" lon="12.491553579819673"><ele>209.0</ele><time>2026-04-26T07:03:44.998Z</time></trkpt><trkpt lat="43.097341927158915" lon="12.491470858917488"><ele>209.0</ele><time>2026-04-26T07:03:45.998Z</time></trkpt><trkpt lat="43.09749250691933" lon="12.49138749815739"><ele>209.0</ele><time>2026-04-26T07:03:46.998Z</time></trkpt><trkpt lat="43.09764801496898" lon="12.491304411481133"><ele>211.66666666666669</ele><time>2026-04-26T07:03:47.998Z</time></trkpt><trkpt lat="43.09780947872308" lon="12.49122312940411"><ele>214.33333333333331</ele><time>2026-04-26T07:03:48.998Z</time></trkpt><trkpt lat="43.09797526038134" lon="12.491142954277436"><ele>217.0</ele><time>2026-04-26T07:03:49.998Z</time></trkpt><trkpt lat="43.0981439610097" lon="12.491060706810986"><ele>217.66666666666666</ele><time>2026-04-26T07:03:50.998Z</time></trkpt><trkpt lat="43.098318964142535" lon="12.490978474773833"><ele>218.33333333333331</ele><time>2026-04-26T07:03:51.998Z</time></trkpt><trkpt lat="43.09849572158578" lon="12.490898708656136"><ele>219.0</ele><time>2026-04-26T07:03:52.998Z</time></trkpt><trkpt lat="43.09867490025914" lon="12.490819616968134"><ele>219.0</ele><time>2026-04-26T07:03:53.998Z</time></trkpt><trkpt lat="43.09885524858085" lon="12.490736521971705"><ele>219.0</ele><time>2026-04-26T07:03:54.998Z</time></trkpt><trkpt lat="43.09903481032701" lon="12.490654276977615"><ele>219.0</ele><time>2026-04-26T07:03:55.998Z</time></trkpt><trkpt lat="43.099212085817506" lon="12.490569941239425"><ele>219.0</ele><time>2026-04-26T07:03:56.997Z</time></trkpt><trkpt lat="43.099387336919605" lon="12.49048498848687"><ele>219.0</ele><time>2026-04-26T07:03:57.997Z</time></trkpt><trkpt lat="43.09955438943362" lon="12.490403534081256"><ele>219.0</ele><time>2026-04-26T07:03:58.997Z</time></trkpt><trkpt lat="43.099707429460295" lon="12.490325068758924"><ele>220.5</ele><time>2026-04-26T07:03:59.997Z</time></trkpt><trkpt lat="43.099852090102985" lon="12.490248590480988"><ele>222.0</ele><time>2026-04-26T07:04:00.997Z</time></trkpt><trkpt lat="43.099994239620955" lon="12.490172575600395"><ele>223.5</ele><time>2026-04-26T07:04:01.997Z</time></trkpt><trkpt lat="43.10012610579465" lon="12.490102290033313"><ele>225.0</ele><time>2026-04-26T07:04:03Z</time></trkpt><trkpt lat="43.10025811337959" lon="12.490034496140325"><ele>225.0</ele><time>2026-04-26T07:04:04Z</time></trkpt><trkpt lat="43.10038539981276" lon="12.489966750047957"><ele>225.0</ele><time>2026-04-26T07:04:05Z</time></trkpt><trkpt lat="43.10051401075995" lon="12.489896411704812"><ele>225.0</ele><time>2026-04-26T07:04:06Z</time></trkpt><trkpt lat="43.10064636623002" lon="12.489828237376114"><ele>225.0</ele><time>2026-04-26T07:04:07Z</time></trkpt><trkpt lat="43.10077943650818" lon="12.489760057528658"><ele>225.25</ele><time>2026-04-26T07:04:08Z</time></trkpt><trkpt lat="43.10091309984064" lon="12.48969062474832"><ele>225.5</ele><time>2026-04-26T07:04:09Z</time></trkpt><trkpt lat="43.10104549085613" lon="12.489618270525204"><ele>225.75</ele><time>2026-04-26T07:04:10Z</time></trkpt><trkpt lat="43.10117386549808" lon="12.489545128522144"><ele>226.0</ele><time>2026-04-26T07:04:11Z</time></trkpt><trkpt lat="43.10129650900012" lon="12.48946557276993"><ele>227.75</ele><time>2026-04-26T07:04:12Z</time></trkpt><trkpt lat="43.101413923644415" lon="12.489376207458754"><ele>229.5</ele><time>2026-04-26T07:04:13Z</time></trkpt><trkpt lat="43.10152746468254" lon="12.489279770835772"><ele>231.25</ele><time>2026-04-26T07:04:14Z</time></trkpt><trkpt lat="43.10163642524515" lon="12.489177091530223"><ele>233.0</ele><time>2026-04-26T07:04:15Z</time></trkpt><trkpt lat="43.10174062955835" lon="12.489070390976154"><ele>233.75</ele><time>2026-04-26T07:04:16Z</time></trkpt><trkpt lat="43.101836980188715" lon="12.488970255356579"><ele>234.5</ele><time>2026-04-26T07:04:17Z</time></trkpt><trkpt lat="43.10193345902412" lon="12.48886323693873"><ele>235.25</ele><time>2026-04-26T07:04:18Z</time></trkpt><trkpt lat="43.10203203617135" lon="12.488752727464465"><ele>236.0</ele><time>2026-04-26T07:04:19Z</time></trkpt><trkpt lat="43.10213219265275" lon="12.488642104295494"><ele>236.5</ele><time>2026-04-26T07:04:20Z</time></trkpt><trkpt lat="43.102230297003175" lon="12.488534982707227"><ele>237.0</ele><time>2026-04-26T07:04:21Z</time></trkpt><trkpt lat="43.102332006483024" lon="12.48844023800706"><ele>237.5</ele><time>2026-04-26T07:04:22Z</time></trkpt><trkpt lat="43.102437804275574" lon="12.488360993434766"><ele>238.0</ele><time>2026-04-26T07:04:23Z</time></trkpt><trkpt lat="43.10254080699037" lon="12.48830413625061"><ele>238.83333333333331</ele><time>2026-04-26T07:04:24Z</time></trkpt><trkpt lat="43.1026309621961" lon="12.488261027507379"><ele>239.66666666666666</ele><time>2026-04-26T07:04:25Z</time></trkpt><trkpt lat="43.10269983001009" lon="12.488245148949215"><ele>240.5</ele><time>2026-04-26T07:04:26Z</time></trkpt><trkpt lat="43.102769391371666" lon="12.488226155943128"><ele>241.33333333333331</ele><time>2026-04-26T07:04:28Z</time></trkpt><trkpt lat="43.10283653065686" lon="12.48814671753289"><ele>242.16666666666666</ele><time>2026-04-26T07:04:35.999Z</time></trkpt><trkpt lat="43.1028853504133" lon="12.48807906347506"><ele>243.0</ele><time>2026-04-26T07:04:36.999Z</time></trkpt><trkpt lat="43.1029621359659" lon="12.488038438061794"><ele>243.0</ele><time>2026-04-26T07:04:37.999Z</time></trkpt><trkpt lat="43.10305731912382" lon="12.488008293784334"><ele>243.0</ele><time>2026-04-26T07:04:38.999Z</time></trkpt><trkpt lat="43.1031704092361" lon="12.487988272062173"><ele>243.0</ele><time>2026-04-26T07:04:39.999Z</time></trkpt><trkpt lat="43.10329366864972" lon="12.487971654931764"><ele>243.0</ele><time>2026-04-26T07:04:40.999Z</time></trkpt><trkpt lat="43.103425925891855" lon="12.48795799645927"><ele>242.5</ele><time>2026-04-26T07:04:41.999Z</time></trkpt><trkpt lat="43.10356332554251" lon="12.487943837861105"><ele>242.0</ele><time>2026-04-26T07:04:42.999Z</time></trkpt><trkpt lat="43.10369462670027" lon="12.487922814019855"><ele>241.5</ele><time>2026-04-26T07:04:43.999Z</time></trkpt><trkpt lat="43.103825493576906" lon="12.487900282414675"><ele>241.0</ele><time>2026-04-26T07:04:44.999Z</time></trkpt><trkpt lat="43.10395566580797" lon="12.487884374718085"><ele>237.4</ele><time>2026-04-26T07:04:45.999Z</time></trkpt><trkpt lat="43.104081468456094" lon="12.487871729314792"><ele>233.8</ele><time>2026-04-26T07:04:46.999Z</time></trkpt><trkpt lat="43.10418960004596" lon="12.487859697521081"><ele>230.20000000000002</ele><time>2026-04-26T07:04:47.999Z</time></trkpt><trkpt lat="43.104289988526865" lon="12.48784617714433"><ele>226.60000000000002</ele><time>2026-04-26T07:04:48.999Z</time></trkpt><trkpt lat="43.1043758413363" lon="12.487823690288918"><ele>223.0</ele><time>2026-04-26T07:04:49.999Z</time></trkpt><trkpt lat="43.10444069043248" lon="12.487757881347148"><ele>223.0</ele><time>2026-04-26T07:04:50.999Z</time></trkpt><trkpt lat="43.10447780219765" lon="12.487656293041766"><ele>223.0</ele><time>2026-04-26T07:04:51.999Z</time></trkpt><trkpt lat="43.104476798815845" lon="12.487528152262596"><ele>223.0</ele><time>2026-04-26T07:04:52.999Z</time></trkpt><trkpt lat="43.10444814853414" lon="12.487379942688708"><ele>223.0</ele><time>2026-04-26T07:04:53.999Z</time></trkpt><trkpt lat="43.10440886641685" lon="12.487229033658545"><ele>223.0</ele><time>2026-04-26T07:04:54.999Z</time></trkpt><trkpt lat="43.10436084412747" lon="12.487056232131042"><ele>221.75</ele><time>2026-04-26T07:04:55.999Z</time></trkpt><trkpt lat="43.10431424925196" lon="12.486873588480513"><ele>220.5</ele><time>2026-04-26T07:04:56.999Z</time></trkpt><trkpt lat="43.10426898132039" lon="12.48669113278845"><ele>219.25</ele><time>2026-04-26T07:04:57.999Z</time></trkpt><trkpt lat="43.104223038259185" lon="12.486509293680957"><ele>218.0</ele><time>2026-04-26T07:04:58.999Z</time></trkpt><trkpt lat="43.104179575923524" lon="12.486326786784176"><ele>219.25</ele><time>2026-04-26T07:04:59.999Z</time></trkpt><trkpt lat="43.10414169885588" lon="12.486145266573628"><ele>220.5</ele><time>2026-04-26T07:05:00.999Z</time></trkpt><trkpt lat="43.104109080026504" lon="12.485961798681897"><ele>221.75</ele><time>2026-04-26T07:05:01.999Z</time></trkpt><trkpt lat="43.10408122981411" lon="12.485778697507415"><ele>223.0</ele><time>2026-04-26T07:05:02.999Z</time></trkpt><trkpt lat="43.10405505125474" lon="12.485593134156133"><ele>220.25</ele><time>2026-04-26T07:05:03.999Z</time></trkpt><trkpt lat="43.10402929572671" lon="12.485401072416144"><ele>217.5</ele><time>2026-04-26T07:05:04.999Z</time></trkpt><trkpt lat="43.104006268491005" lon="12.485204218287725"><ele>214.75</ele><time>2026-04-26T07:05:05.999Z</time></trkpt><trkpt lat="43.10398610858089" lon="12.485002000970505"><ele>212.0</ele><time>2026-04-26T07:05:06.999Z</time></trkpt><trkpt lat="43.10397329379186" lon="12.484796340650389"><ele>210.0</ele><time>2026-04-26T07:05:07.999Z</time></trkpt><trkpt lat="43.10397099374269" lon="12.484586187244028"><ele>208.0</ele><time>2026-04-26T07:05:08.999Z</time></trkpt><trkpt lat="43.10398234383681" lon="12.484370124787052"><ele>206.0</ele><time>2026-04-26T07:05:09.999Z</time></trkpt><trkpt lat="43.1040025066121" lon="12.484147360749713"><ele>206.0</ele><time>2026-04-26T07:05:10.999Z</time></trkpt><trkpt lat="43.104035223289955" lon="12.483912123418023"><ele>206.0</ele><time>2026-04-26T07:05:11.999Z</time></trkpt><trkpt lat="43.10407718106795" lon="12.483665436299184"><ele>206.0</ele><time>2026-04-26T07:05:12.999Z</time></trkpt><trkpt lat="43.1041322459125" lon="12.483415545277897"><ele>203.33333333333334</ele><time>2026-04-26T07:05:13.998Z</time></trkpt><trkpt lat="43.104189580031175" lon="12.483166976141748"><ele>200.66666666666669</ele><time>2026-04-26T07:05:14.998Z</time></trkpt><trkpt lat="43.1042447907001" lon="12.482920225868968"><ele>198.0</ele><time>2026-04-26T07:05:15.998Z</time></trkpt><trkpt lat="43.10429460308927" lon="12.482670173345056"><ele>197.66666666666669</ele><time>2026-04-26T07:05:16.998Z</time></trkpt><trkpt lat="43.10433534348085" lon="12.482411325247991"><ele>197.33333333333334</ele><time>2026-04-26T07:05:17.998Z</time></trkpt><trkpt lat="43.104359139873566" lon="12.482140405479415"><ele>197.0</ele><time>2026-04-26T07:05:18.998Z</time></trkpt><trkpt lat="43.1043667112598" lon="12.48187322104173"><ele>196.66666666666669</ele><time>2026-04-26T07:05:19.998Z</time></trkpt><trkpt lat="43.10436307496378" lon="12.481606241930255"><ele>196.33333333333331</ele><time>2026-04-26T07:05:20.998Z</time></trkpt><trkpt lat="43.10435988825174" lon="12.481334486476767"><ele>196.0</ele><time>2026-04-26T07:05:21.998Z</time></trkpt><trkpt lat="43.10436027774914" lon="12.481063096568288"><ele>196.66666666666666</ele><time>2026-04-26T07:05:22.998Z</time></trkpt><trkpt lat="43.1043610454237" lon="12.480787669182329"><ele>197.33333333333331</ele><time>2026-04-26T07:05:23.998Z</time></trkpt><trkpt lat="43.104363082367605" lon="12.480516984726634"><ele>198.0</ele><time>2026-04-26T07:05:24.998Z</time></trkpt><trkpt lat="43.10436534715337" lon="12.480248240432434"><ele>198.33333333333331</ele><time>2026-04-26T07:05:25.998Z</time></trkpt><trkpt lat="43.10437047180751" lon="12.479999220834229"><ele>198.66666666666666</ele><time>2026-04-26T07:05:26.998Z</time></trkpt><trkpt lat="43.104383740800046" lon="12.479758557761366"><ele>199.0</ele><time>2026-04-26T07:05:27.998Z</time></trkpt><trkpt lat="43.104407967340336" lon="12.47951569667628"><ele>199.0</ele><time>2026-04-26T07:05:28.998Z</time></trkpt><trkpt lat="43.10445143270418" lon="12.47927509798099"><ele>199.0</ele><time>2026-04-26T07:05:29.998Z</time></trkpt><trkpt lat="43.104503890992795" lon="12.479037287031753"><ele>199.0</ele><time>2026-04-26T07:05:30.998Z</time></trkpt><trkpt lat="43.104566015575884" lon="12.478801312497891"><ele>198.33333333333331</ele><time>2026-04-26T07:05:31.998Z</time></trkpt><trkpt lat="43.10462183475042" lon="12.47856011810979"><ele>197.66666666666669</ele><time>2026-04-26T07:05:32.998Z</time></trkpt><trkpt lat="43.10467954757201" lon="12.478317302293826"><ele>197.0</ele><time>2026-04-26T07:05:33.998Z</time></trkpt><trkpt lat="43.10473597964803" lon="12.478081651254312"><ele>196.66666666666669</ele><time>2026-04-26T07:05:34.998Z</time></trkpt><trkpt lat="43.104792338259124" lon="12.477852562191586"><ele>196.33333333333331</ele><time>2026-04-26T07:05:35.998Z</time></trkpt><trkpt lat="43.10484663784028" lon="12.477633673984702"><ele>196.0</ele><time>2026-04-26T07:05:36.998Z</time></trkpt><trkpt lat="43.10490359383295" lon="12.477426731659412"><ele>195.66666666666666</ele><time>2026-04-26T07:05:37.998Z</time></trkpt><trkpt lat="43.10497045513827" lon="12.477226944013847"><ele>195.33333333333331</ele><time>2026-04-26T07:05:38.998Z</time></trkpt><trkpt lat="43.105050308916724" lon="12.477030157747937"><ele>195.0</ele><time>2026-04-26T07:05:39.998Z</time></trkpt><trkpt lat="43.10515849539484" lon="12.476856379985534"><ele>194.33333333333331</ele><time>2026-04-26T07:05:40.998Z</time></trkpt><trkpt lat="43.10528498296538" lon="12.4766953693834"><ele>193.66666666666666</ele><time>2026-04-26T07:05:41.998Z</time></trkpt><trkpt lat="43.10542003199009" lon="12.476541994243554"><ele>193.0</ele><time>2026-04-26T07:05:42.998Z</time></trkpt><trkpt lat="43.105560461746755" lon="12.476390697232404"><ele>192.33333333333331</ele><time>2026-04-26T07:05:43.998Z</time></trkpt><trkpt lat="43.105707554059414" lon="12.476246550507275"><ele>191.66666666666666</ele><time>2026-04-26T07:05:44.998Z</time></trkpt><trkpt lat="43.10585796845548" lon="12.476103652478848"><ele>191.0</ele><time>2026-04-26T07:05:45.998Z</time></trkpt><trkpt lat="43.106005753331374" lon="12.475948560188188"><ele>191.0</ele><time>2026-04-26T07:05:46.998Z</time></trkpt><trkpt lat="43.10615468727149" lon="12.475790097263783"><ele>191.0</ele><time>2026-04-26T07:05:47.998Z</time></trkpt><trkpt lat="43.10630610176603" lon="12.475634276314324"><ele>191.0</ele><time>2026-04-26T07:05:48.998Z</time></trkpt><trkpt lat="43.10645701122845" lon="12.475477215644826"><ele>192.0</ele><time>2026-04-26T07:05:49.998Z</time></trkpt><trkpt lat="43.10660861315371" lon="12.475322785969084"><ele>193.0</ele><time>2026-04-26T07:05:50.998Z</time></trkpt><trkpt lat="43.106749807814175" lon="12.475187430560798"><ele>194.0</ele><time>2026-04-26T07:05:51.998Z</time></trkpt><trkpt lat="43.10688813784704" lon="12.475081138056856"><ele>194.0</ele><time>2026-04-26T07:05:52.998Z</time></trkpt><trkpt lat="43.10702800718364" lon="12.475019986455298"><ele>194.0</ele><time>2026-04-26T07:05:53.998Z</time></trkpt><trkpt lat="43.10717402513362" lon="12.474984395021416"><ele>194.0</ele><time>2026-04-26T07:05:54.998Z</time></trkpt><trkpt lat="43.107323067963065" lon="12.474941904991882"><ele>194.0</ele><time>2026-04-26T07:05:55.998Z</time></trkpt><trkpt lat="43.10747091978057" lon="12.474893649235783"><ele>194.5</ele><time>2026-04-26T07:05:56.998Z</time></trkpt><trkpt lat="43.107605629182835" lon="12.474849931938664"><ele>195.0</ele><time>2026-04-26T07:05:57.998Z</time></trkpt><trkpt lat="43.10773336952797" lon="12.474811629901087"><ele>195.5</ele><time>2026-04-26T07:05:58.997Z</time></trkpt><trkpt lat="43.107857529740585" lon="12.474773333361574"><ele>196.0</ele><time>2026-04-26T07:05:59.997Z</time></trkpt><trkpt lat="43.10797896367229" lon="12.474727147592576"><ele>196.0</ele><time>2026-04-26T07:06:00.997Z</time></trkpt><trkpt lat="43.10809365979413" lon="12.474682146533741"><ele>196.0</ele><time>2026-04-26T07:06:01.997Z</time></trkpt><trkpt lat="43.10820301267257" lon="12.474636342206354"><ele>196.0</ele><time>2026-04-26T07:06:02.997Z</time></trkpt><trkpt lat="43.10831468119988" lon="12.474593343354234"><ele>196.0</ele><time>2026-04-26T07:06:03.997Z</time></trkpt><trkpt lat="43.108433457180894" lon="12.474544403813644"><ele>196.25</ele><time>2026-04-26T07:06:04.997Z</time></trkpt><trkpt lat="43.10855342493132" lon="12.474497562098302"><ele>196.5</ele><time>2026-04-26T07:06:05.997Z</time></trkpt><trkpt lat="43.10866477047576" lon="12.474467812563269"><ele>196.75</ele><time>2026-04-26T07:06:06.997Z</time></trkpt><trkpt lat="43.10875893386023" lon="12.474445040543355"><ele>197.0</ele><time>2026-04-26T07:06:07.997Z</time></trkpt><trkpt lat="43.10886099319251" lon="12.474526071228066"><ele>197.0</ele><time>2026-04-26T07:06:09Z</time></trkpt><trkpt lat="43.10894149745559" lon="12.474607907958315"><ele>197.0</ele><time>2026-04-26T07:06:10Z</time></trkpt><trkpt lat="43.109023900048946" lon="12.474700938311203"><ele>197.0</ele><time>2026-04-26T07:06:11Z</time></trkpt><trkpt lat="43.10911924815917" lon="12.474798447157786"><ele>197.0</ele><time>2026-04-26T07:06:12Z</time></trkpt><trkpt lat="43.10922668067899" lon="12.474894180136827"><ele>197.0</ele><time>2026-04-26T07:06:13Z</time></trkpt><trkpt lat="43.109346888885895" lon="12.474988814641286"><ele>197.0</ele><time>2026-04-26T07:06:14Z</time></trkpt><trkpt lat="43.10948159471852" lon="12.475061994197253"><ele>197.0</ele><time>2026-04-26T07:06:15Z</time></trkpt><trkpt lat="43.109630285307084" lon="12.475097092741123"><ele>197.0</ele><time>2026-04-26T07:06:16Z</time></trkpt><trkpt lat="43.109783570072295" lon="12.475115515113307"><ele>197.5</ele><time>2026-04-26T07:06:17Z</time></trkpt><trkpt lat="43.109923295905965" lon="12.475120379048828"><ele>198.0</ele><time>2026-04-26T07:06:18Z</time></trkpt><trkpt lat="43.11004510310821" lon="12.475127832775053"><ele>198.5</ele><time>2026-04-26T07:06:19Z</time></trkpt><trkpt lat="43.11016372123531" lon="12.47513299594112"><ele>199.0</ele><time>2026-04-26T07:06:20Z</time></trkpt><trkpt lat="43.11027490725473" lon="12.475147542519023"><ele>199.0</ele><time>2026-04-26T07:06:21Z</time></trkpt><trkpt lat="43.110380221848054" lon="12.475165872668734"><ele>199.0</ele><time>2026-04-26T07:06:22Z</time></trkpt><trkpt lat="43.11048456162412" lon="12.475179850604038"><ele>199.0</ele><time>2026-04-26T07:06:23Z</time></trkpt><trkpt lat="43.110587584538884" lon="12.475191838891918"><ele>199.0</ele><time>2026-04-26T07:06:24Z</time></trkpt><trkpt lat="43.110691023476086" lon="12.475203046365587"><ele>199.0</ele><time>2026-04-26T07:06:25Z</time></trkpt><trkpt lat="43.1107913851886" lon="12.475217370434072"><ele>199.6</ele><time>2026-04-26T07:06:26Z</time></trkpt><trkpt lat="43.1108930572372" lon="12.475236178564511"><ele>200.2</ele><time>2026-04-26T07:06:27Z</time></trkpt><trkpt lat="43.1109908443641" lon="12.475250769000258"><ele>200.79999999999998</ele><time>2026-04-26T07:06:28Z</time></trkpt><trkpt lat="43.11108584857605" lon="12.47526972040906"><ele>201.39999999999998</ele><time>2026-04-26T07:06:29Z</time></trkpt><trkpt lat="43.111177428794186" lon="12.475295739822817"><ele>202.0</ele><time>2026-04-26T07:06:30Z</time></trkpt><trkpt lat="43.11126891005558" lon="12.475321548128303"><ele>201.99999999999997</ele><time>2026-04-26T07:06:31Z</time></trkpt><trkpt lat="43.11136404974708" lon="12.475333946184572"><ele>202.0</ele><time>2026-04-26T07:06:31.999Z</time></trkpt><trkpt lat="43.11145522527462" lon="12.47535296869747"><ele>202.0</ele><time>2026-04-26T07:06:32.999Z</time></trkpt><trkpt lat="43.11153793164249" lon="12.475366807369625"><ele>202.0</ele><time>2026-04-26T07:06:33.999Z</time></trkpt><trkpt lat="43.11160504168433" lon="12.475387994652772"><ele>201.99999999999997</ele><time>2026-04-26T07:06:34.999Z</time></trkpt><trkpt lat="43.111709097387596" lon="12.475433436446792"><ele>202.0</ele><time>2026-04-26T07:06:36.999Z</time></trkpt><trkpt lat="43.11177170178838" lon="12.475465819543569"><ele>202.0</ele><time>2026-04-26T07:06:38.999Z</time></trkpt><trkpt lat="43.11184347862731" lon="12.475465576555468"><ele>202.0</ele><time>2026-04-26T07:06:41.999Z</time></trkpt><trkpt lat="43.11190414266479" lon="12.47517203286026"><ele>202.0</ele><time>2026-04-26T07:06:43.999Z</time></trkpt><trkpt lat="43.111966540302696" lon="12.475069118851211"><ele>202.0</ele><time>2026-04-26T07:06:44.999Z</time></trkpt><trkpt lat="43.11200880224497" lon="12.474938452176016"><ele>202.0</ele><time>2026-04-26T07:06:45.999Z</time></trkpt><trkpt lat="43.112067628994325" lon="12.474814027384683"><ele>202.0</ele><time>2026-04-26T07:06:46.999Z</time></trkpt><trkpt lat="43.112123582203694" lon="12.474696488733372"><ele>202.0</ele><time>2026-04-26T07:06:47.999Z</time></trkpt><trkpt lat="43.112179583925716" lon="12.47457088943973"><ele>202.0</ele><time>2026-04-26T07:06:48.999Z</time></trkpt><trkpt lat="43.11223789126535" lon="12.47443560427641"><ele>202.0</ele><time>2026-04-26T07:06:49.999Z</time></trkpt><trkpt lat="43.11229856310659" lon="12.474297603204201"><ele>201.6</ele><time>2026-04-26T07:06:50.999Z</time></trkpt><trkpt lat="43.11235837942103" lon="12.474165474740596"><ele>201.2</ele><time>2026-04-26T07:06:51.999Z</time></trkpt><trkpt lat="43.11241692887502" lon="12.474032112000595"><ele>200.8</ele><time>2026-04-26T07:06:52.999Z</time></trkpt><trkpt lat="43.11247280429122" lon="12.47390433654583"><ele>200.4</ele><time>2026-04-26T07:06:53.999Z</time></trkpt><trkpt lat="43.112541460184325" lon="12.473790897669323"><ele>200.0</ele><time>2026-04-26T07:06:54.999Z</time></trkpt><trkpt lat="43.11257573586972" lon="12.47367165897851"><ele>199.33333333333334</ele><time>2026-04-26T07:06:55.999Z</time></trkpt><trkpt lat="43.11261431389989" lon="12.47358875223386"><ele>198.66666666666669</ele><time>2026-04-26T07:06:56.999Z</time></trkpt><trkpt lat="43.112654474970334" lon="12.47351987052722"><ele>198.0</ele><time>2026-04-26T07:06:57.999Z</time></trkpt><trkpt lat="43.11270420247556" lon="12.473455349241688"><ele>197.33333333333331</ele><time>2026-04-26T07:06:58.999Z</time></trkpt><trkpt lat="43.11277644262914" lon="12.473416327650344"><ele>196.66666666666666</ele><time>2026-04-26T07:06:59.999Z</time></trkpt><trkpt lat="43.112841659032576" lon="12.473331408804123"><ele>196.0</ele><time>2026-04-26T07:07:00.999Z</time></trkpt><trkpt lat="43.11291793102289" lon="12.473256089277697"><ele>196.0</ele><time>2026-04-26T07:07:01.999Z</time></trkpt><trkpt lat="43.11297864060434" lon="12.47315188079412"><ele>196.0</ele><time>2026-04-26T07:07:02.999Z</time></trkpt><trkpt lat="43.11302013825211" lon="12.473015091104365"><ele>196.0</ele><time>2026-04-26T07:07:03.999Z</time></trkpt><trkpt lat="43.113042257089845" lon="12.47284322312261"><ele>196.0</ele><time>2026-04-26T07:07:04.999Z</time></trkpt><trkpt lat="43.113074932033044" lon="12.472677279153189"><ele>196.0</ele><time>2026-04-26T07:07:05.999Z</time></trkpt><trkpt lat="43.11308537675332" lon="12.472495657774411"><ele>196.0</ele><time>2026-04-26T07:07:06.999Z</time></trkpt><trkpt lat="43.113095745285804" lon="12.472303269825117"><ele>196.0</ele><time>2026-04-26T07:07:07.999Z</time></trkpt><trkpt lat="43.1131081714118" lon="12.47210172562965"><ele>196.0</ele><time>2026-04-26T07:07:08.999Z</time></trkpt><trkpt lat="43.11311830280529" lon="12.471901991570396"><ele>196.5</ele><time>2026-04-26T07:07:09.999Z</time></trkpt><trkpt lat="43.113127077712626" lon="12.471705095130645"><ele>197.0</ele><time>2026-04-26T07:07:10.999Z</time></trkpt><trkpt lat="43.11313100510227" lon="12.471519497657114"><ele>197.5</ele><time>2026-04-26T07:07:11.999Z</time></trkpt><trkpt lat="43.11311998344331" lon="12.471344230927413"><ele>198.0</ele><time>2026-04-26T07:07:12.999Z</time></trkpt><trkpt lat="43.11312473661992" lon="12.471195812168533"><ele>198.33333333333334</ele><time>2026-04-26T07:07:13.999Z</time></trkpt><trkpt lat="43.113129533532444" lon="12.471071680592551"><ele>198.66666666666669</ele><time>2026-04-26T07:07:14.999Z</time></trkpt><trkpt lat="43.11313356314595" lon="12.470961007059966"><ele>199.0</ele><time>2026-04-26T07:07:15.999Z</time></trkpt><trkpt lat="43.1131403487394" lon="12.470855739903053"><ele>199.33333333333334</ele><time>2026-04-26T07:07:16.999Z</time></trkpt><trkpt lat="43.11314712399995" lon="12.470705806651038"><ele>199.66666666666669</ele><time>2026-04-26T07:07:18.998Z</time></trkpt><trkpt lat="43.11318439117443" lon="12.470607151844067"><ele>200.0</ele><time>2026-04-26T07:07:21.998Z</time></trkpt><trkpt lat="43.11314894163621" lon="12.470523505180589"><ele>200.0</ele><time>2026-04-26T07:07:25.998Z</time></trkpt><trkpt lat="43.11310529681141" lon="12.47070078311944"><ele>200.0</ele><time>2026-04-26T07:07:28.998Z</time></trkpt><trkpt lat="43.11311964855044" lon="12.470792332246702"><ele>200.0</ele><time>2026-04-26T07:07:29.998Z</time></trkpt><trkpt lat="43.11310879830489" lon="12.470930253386854"><ele>200.0</ele><time>2026-04-26T07:07:31.998Z</time></trkpt><trkpt lat="43.113162695669516" lon="12.471023551808077"><ele>200.0</ele><time>2026-04-26T07:07:35.998Z</time></trkpt><trkpt lat="43.11323676693129" lon="12.471014893901238"><ele>199.66666666666669</ele><time>2026-04-26T07:07:37.998Z</time></trkpt><trkpt lat="43.113303211721046" lon="12.471019413275119"><ele>199.33333333333334</ele><time>2026-04-26T07:07:39.998Z</time></trkpt><trkpt lat="43.11339160363102" lon="12.471034049064407"><ele>199.0</ele><time>2026-04-26T07:07:41.998Z</time></trkpt><trkpt lat="43.11350847578904" lon="12.47103511454537"><ele>198.66666666666669</ele><time>2026-04-26T07:07:43.998Z</time></trkpt><trkpt lat="43.1135735329242" lon="12.471048629473042"><ele>198.33333333333334</ele><time>2026-04-26T07:07:44.998Z</time></trkpt><trkpt lat="43.11364317092149" lon="12.471063140716566"><ele>198.0</ele><time>2026-04-26T07:07:45.998Z</time></trkpt><trkpt lat="43.11371842483249" lon="12.471074904825185"><ele>198.0</ele><time>2026-04-26T07:07:46.998Z</time></trkpt><trkpt lat="43.113789133791435" lon="12.471086332672524"><ele>198.0</ele><time>2026-04-26T07:07:47.998Z</time></trkpt><trkpt lat="43.113856090796" lon="12.471097442232052"><ele>198.0</ele><time>2026-04-26T07:07:48.998Z</time></trkpt><trkpt lat="43.11392274226231" lon="12.471109589294162"><ele>198.0</ele><time>2026-04-26T07:07:49.998Z</time></trkpt><trkpt lat="43.11399213605199" lon="12.47112415951379"><ele>198.0</ele><time>2026-04-26T07:07:50.998Z</time></trkpt><trkpt lat="43.11406178467622" lon="12.471138602495516"><ele>198.0</ele><time>2026-04-26T07:07:51.998Z</time></trkpt><trkpt lat="43.11413180314295" lon="12.471150745694349"><ele>198.0</ele><time>2026-04-26T07:07:52.998Z</time></trkpt><trkpt lat="43.11420255679835" lon="12.471162441341573"><ele>197.66666666666666</ele><time>2026-04-26T07:07:53.998Z</time></trkpt><trkpt lat="43.11427253559755" lon="12.471173050683381"><ele>197.33333333333331</ele><time>2026-04-26T07:07:54.998Z</time></trkpt><trkpt lat="43.11433643449867" lon="12.471178358588343"><ele>197.0</ele><time>2026-04-26T07:07:55.998Z</time></trkpt><trkpt lat="43.11445514061123" lon="12.471154401191646"><ele>196.66666666666666</ele><time>2026-04-26T07:07:57.998Z</time></trkpt><trkpt lat="43.11456603956057" lon="12.471082769658478"><ele>196.33333333333331</ele><time>2026-04-26T07:07:59.998Z</time></trkpt><trkpt lat="43.11462954171202" lon="12.471050466647247"><ele>196.0</ele><time>2026-04-26T07:08:00.998Z</time></trkpt><trkpt lat="43.11470053235448" lon="12.471027645645298"><ele>196.0</ele><time>2026-04-26T07:08:01.998Z</time></trkpt><trkpt lat="43.114771342364094" lon="12.471020906953953"><ele>196.0</ele><time>2026-04-26T07:08:02.997Z</time></trkpt><trkpt lat="43.11483992764031" lon="12.471026741723179"><ele>196.0</ele><time>2026-04-26T07:08:03.997Z</time></trkpt><trkpt lat="43.11490488394823" lon="12.471037889756834"><ele>196.0</ele><time>2026-04-26T07:08:04.997Z</time></trkpt><trkpt lat="43.11497034764802" lon="12.471040026379761"><ele>196.0</ele><time>2026-04-26T07:08:05.997Z</time></trkpt><trkpt lat="43.11504087244453" lon="12.471039639485257"><ele>196.0</ele><time>2026-04-26T07:08:06.997Z</time></trkpt><trkpt lat="43.115107612989306" lon="12.47103224867841"><ele>196.0</ele><time>2026-04-26T07:08:07.997Z</time></trkpt><trkpt lat="43.11517466447543" lon="12.471018468504447"><ele>196.57142857142858</ele><time>2026-04-26T07:08:08.997Z</time></trkpt><trkpt lat="43.11523709680868" lon="12.470998594630966"><ele>197.14285714285714</ele><time>2026-04-26T07:08:09.997Z</time></trkpt><trkpt lat="43.11530344182903" lon="12.47097646635342"><ele>197.71428571428572</ele><time>2026-04-26T07:08:10.997Z</time></trkpt><trkpt lat="43.11538095079201" lon="12.470960953072694"><ele>198.28571428571428</ele><time>2026-04-26T07:08:11.997Z</time></trkpt><trkpt lat="43.115453313288704" lon="12.470943999057038"><ele>198.85714285714286</ele><time>2026-04-26T07:08:12.997Z</time></trkpt><trkpt lat="43.11552827105969" lon="12.47092798038019"><ele>199.42857142857144</ele><time>2026-04-26T07:08:13.997Z</time></trkpt><trkpt lat="43.11560151413763" lon="12.470915598478545"><ele>200.0</ele><time>2026-04-26T07:08:15Z</time></trkpt><trkpt lat="43.1156720897809" lon="12.470905056483547"><ele>200.42857142857144</ele><time>2026-04-26T07:08:16Z</time></trkpt><trkpt lat="43.11573823811495" lon="12.47090424702539"><ele>200.85714285714286</ele><time>2026-04-26T07:08:17Z</time></trkpt><trkpt lat="43.11580739351916" lon="12.470906903012196"><ele>201.28571428571428</ele><time>2026-04-26T07:08:18Z</time></trkpt><trkpt lat="43.1158758413675" lon="12.47090697605366"><ele>201.71428571428572</ele><time>2026-04-26T07:08:19Z</time></trkpt><trkpt lat="43.11594877881842" lon="12.4709086273127"><ele>202.14285714285714</ele><time>2026-04-26T07:08:20Z</time></trkpt><trkpt lat="43.116023270023994" lon="12.470915050077043"><ele>202.57142857142858</ele><time>2026-04-26T07:08:21Z</time></trkpt><trkpt lat="43.11609653248864" lon="12.470929327947298"><ele>203.0</ele><time>2026-04-26T07:08:22Z</time></trkpt><trkpt lat="43.11617169026863" lon="12.47094330531974"><ele>203.00000000000003</ele><time>2026-04-26T07:08:23Z</time></trkpt><trkpt lat="43.11625277006231" lon="12.470958982324031"><ele>203.0</ele><time>2026-04-26T07:08:24Z</time></trkpt><trkpt lat="43.11633524205176" lon="12.470972516550056"><ele>203.0</ele><time>2026-04-26T07:08:25Z</time></trkpt><trkpt lat="43.11641758215813" lon="12.470982032073652"><ele>203.0</ele><time>2026-04-26T07:08:26Z</time></trkpt><trkpt lat="43.116493184413734" lon="12.47097005944598"><ele>203.00000000000003</ele><time>2026-04-26T07:08:27Z</time></trkpt><trkpt lat="43.11656804261145" lon="12.470949780415546"><ele>203.0</ele><time>2026-04-26T07:08:28Z</time></trkpt><trkpt lat="43.11664631088162" lon="12.47092706666797"><ele>203.00000000000003</ele><time>2026-04-26T07:08:29Z</time></trkpt><trkpt lat="43.116721749936865" lon="12.470902436094038"><ele>203.0</ele><time>2026-04-26T07:08:30Z</time></trkpt><trkpt lat="43.11680638420378" lon="12.470866383509646"><ele>203.0</ele><time>2026-04-26T07:08:31Z</time></trkpt><trkpt lat="43.11688748117068" lon="12.470825456425105"><ele>203.0</ele><time>2026-04-26T07:08:32Z</time></trkpt><trkpt lat="43.11696851629656" lon="12.470785319389726"><ele>203.00000000000003</ele><time>2026-04-26T07:08:33Z</time></trkpt><trkpt lat="43.11704418101723" lon="12.470740766060379"><ele>203.0</ele><time>2026-04-26T07:08:34Z</time></trkpt><trkpt lat="43.1171218942204" lon="12.470687208271402"><ele>203.00000000000003</ele><time>2026-04-26T07:08:35Z</time></trkpt><trkpt lat="43.117193077134296" lon="12.470633569024054"><ele>203.0</ele><time>2026-04-26T07:08:36Z</time></trkpt><trkpt lat="43.11726439938688" lon="12.470577279565054"><ele>203.0</ele><time>2026-04-26T07:08:37Z</time></trkpt><trkpt lat="43.117335568815896" lon="12.47052243795592"><ele>203.0</ele><time>2026-04-26T07:08:38Z</time></trkpt><trkpt lat="43.117405937323944" lon="12.470460165554544"><ele>203.00000000000003</ele><time>2026-04-26T07:08:38.999Z</time></trkpt><trkpt lat="43.11746906121419" lon="12.470395276730116"><ele>203.0</ele><time>2026-04-26T07:08:39.999Z</time></trkpt><trkpt lat="43.117538014613515" lon="12.47033355735095"><ele>203.16666666666669</ele><time>2026-04-26T07:08:40.999Z</time></trkpt><trkpt lat="43.117609411915296" lon="12.470274035981587"><ele>203.33333333333334</ele><time>2026-04-26T07:08:41.999Z</time></trkpt><trkpt lat="43.11768118530699" lon="12.47021165575017"><ele>203.5</ele><time>2026-04-26T07:08:42.999Z</time></trkpt><trkpt lat="43.11775252824298" lon="12.470150499246932"><ele>203.66666666666669</ele><time>2026-04-26T07:08:43.999Z</time></trkpt><trkpt lat="43.11782645259796" lon="12.470081872497174"><ele>203.83333333333334</ele><time>2026-04-26T07:08:44.999Z</time></trkpt><trkpt lat="43.11789613352308" lon="12.470004075706433"><ele>204.0</ele><time>2026-04-26T07:08:45.999Z</time></trkpt><trkpt lat="43.11796042152051" lon="12.469933295096778"><ele>204.0</ele><time>2026-04-26T07:08:46.999Z</time></trkpt><trkpt lat="43.118034318942705" lon="12.469886079818993"><ele>204.0</ele><time>2026-04-26T07:08:47.999Z</time></trkpt><trkpt lat="43.118092827369516" lon="12.4698226886384"><ele>204.0</ele><time>2026-04-26T07:08:48.999Z</time></trkpt><trkpt lat="43.118183968827175" lon="12.469734589037152"><ele>204.0</ele><time>2026-04-26T07:08:50.999Z</time></trkpt><trkpt lat="43.11823474112026" lon="12.469668747061625"><ele>204.0</ele><time>2026-04-26T07:08:52.999Z</time></trkpt><trkpt lat="43.11831013056763" lon="12.469658866770262"><ele>204.0</ele><time>2026-04-26T07:08:56.999Z</time></trkpt><trkpt lat="43.118363123264906" lon="12.469727363958738"><ele>204.5</ele><time>2026-04-26T07:08:58.999Z</time></trkpt><trkpt lat="43.11838815135152" lon="12.469811270515532"><ele>205.0</ele><time>2026-04-26T07:08:59.999Z</time></trkpt><trkpt lat="43.11842253004388" lon="12.46990082066363"><ele>205.5</ele><time>2026-04-26T07:09:00.999Z</time></trkpt><trkpt lat="43.118465660454156" lon="12.469994294366641"><ele>206.0</ele><time>2026-04-26T07:09:01.999Z</time></trkpt><trkpt lat="43.118501438838486" lon="12.470075588930674"><ele>206.5</ele><time>2026-04-26T07:09:02.999Z</time></trkpt><trkpt lat="43.118540992385036" lon="12.470153329686717"><ele>207.0</ele><time>2026-04-26T07:09:04.999Z</time></trkpt><trkpt lat="43.11865791275397" lon="12.470095646674261"><ele>207.0</ele><time>2026-04-26T07:09:06.999Z</time></trkpt><trkpt lat="43.11875474298556" lon="12.469993796462626"><ele>207.0</ele><time>2026-04-26T07:09:08.999Z</time></trkpt><trkpt lat="43.11882320059153" lon="12.46993944817571"><ele>207.0</ele><time>2026-04-26T07:09:09.999Z</time></trkpt><trkpt lat="43.11889831444307" lon="12.469889995347119"><ele>207.0</ele><time>2026-04-26T07:09:10.999Z</time></trkpt><trkpt lat="43.118977588885066" lon="12.469828641550325"><ele>207.0</ele><time>2026-04-26T07:09:11.999Z</time></trkpt><trkpt lat="43.11906808665927" lon="12.469762912461947"><ele>207.6</ele><time>2026-04-26T07:09:12.999Z</time></trkpt><trkpt lat="43.119162401600974" lon="12.469694342026473"><ele>208.2</ele><time>2026-04-26T07:09:13.999Z</time></trkpt><trkpt lat="43.1192577669205" lon="12.469621545597048"><ele>208.8</ele><time>2026-04-26T07:09:14.999Z</time></trkpt><trkpt lat="43.119358864402024" lon="12.469548020088839"><ele>209.4</ele><time>2026-04-26T07:09:15.999Z</time></trkpt><trkpt lat="43.11945679430673" lon="12.469472613405514"><ele>210.0</ele><time>2026-04-26T07:09:16.999Z</time></trkpt><trkpt lat="43.11955198701974" lon="12.469385650217792"><ele>210.8</ele><time>2026-04-26T07:09:17.999Z</time></trkpt><trkpt lat="43.11964993629366" lon="12.4693120753615"><ele>211.6</ele><time>2026-04-26T07:09:18.999Z</time></trkpt><trkpt lat="43.119748972632706" lon="12.469251108726176"><ele>212.39999999999998</ele><time>2026-04-26T07:09:19.999Z</time></trkpt><trkpt lat="43.119835627990575" lon="12.469174188015163"><ele>213.2</ele><time>2026-04-26T07:09:20.999Z</time></trkpt><trkpt lat="43.11993830578046" lon="12.469120124663942"><ele>214.0</ele><time>2026-04-26T07:09:21.999Z</time></trkpt><trkpt lat="43.12003258032979" lon="12.469046455265614"><ele>215.39999999999998</ele><time>2026-04-26T07:09:22.998Z</time></trkpt><trkpt lat="43.12011503390172" lon="12.468958571293639"><ele>216.79999999999998</ele><time>2026-04-26T07:09:23.998Z</time></trkpt><trkpt lat="43.120204231059375" lon="12.468885198092895"><ele>218.20000000000002</ele><time>2026-04-26T07:09:24.998Z</time></trkpt><trkpt lat="43.120289654215036" lon="12.4688152515167"><ele>219.60000000000002</ele><time>2026-04-26T07:09:25.998Z</time></trkpt><trkpt lat="43.12038013427441" lon="12.468765715162903"><ele>221.0</ele><time>2026-04-26T07:09:26.998Z</time></trkpt><trkpt lat="43.12046182835959" lon="12.46871686923074"><ele>221.50000000000003</ele><time>2026-04-26T07:09:27.998Z</time></trkpt><trkpt lat="43.12054643426117" lon="12.468675437319222"><ele>222.0</ele><time>2026-04-26T07:09:28.998Z</time></trkpt><trkpt lat="43.120634710755965" lon="12.468635961498926"><ele>222.5</ele><time>2026-04-26T07:09:29.998Z</time></trkpt><trkpt lat="43.12072228623492" lon="12.468634604216781"><ele>223.0</ele><time>2026-04-26T07:09:30.998Z</time></trkpt><trkpt lat="43.12080896970264" lon="12.468626424239572"><ele>223.50000000000003</ele><time>2026-04-26T07:09:31.998Z</time></trkpt><trkpt lat="43.12089945053391" lon="12.46862220104488"><ele>224.0</ele><time>2026-04-26T07:09:32.998Z</time></trkpt><trkpt lat="43.12099310835022" lon="12.468597100525715"><ele>224.6</ele><time>2026-04-26T07:09:33.998Z</time></trkpt><trkpt lat="43.1210916286412" lon="12.468594496677225"><ele>225.2</ele><time>2026-04-26T07:09:34.998Z</time></trkpt><trkpt lat="43.121192833492756" lon="12.46858918541585"><ele>225.79999999999998</ele><time>2026-04-26T07:09:35.998Z</time></trkpt><trkpt lat="43.121296127212254" lon="12.468584825918297"><ele>226.39999999999998</ele><time>2026-04-26T07:09:36.998Z</time></trkpt><trkpt lat="43.121400800443055" lon="12.468577898182623"><ele>227.0</ele><time>2026-04-26T07:09:37.998Z</time></trkpt><trkpt lat="43.12151009158768" lon="12.468567935249629"><ele>227.66666666666669</ele><time>2026-04-26T07:09:38.998Z</time></trkpt><trkpt lat="43.12161253138099" lon="12.468563540622421"><ele>228.33333333333334</ele><time>2026-04-26T07:09:39.998Z</time></trkpt><trkpt lat="43.1217003121912" lon="12.468557590940822"><ele>229.0</ele><time>2026-04-26T07:09:40.998Z</time></trkpt><trkpt lat="43.12180514449157" lon="12.468577031330547"><ele>229.66666666666669</ele><time>2026-04-26T07:09:42.998Z</time></trkpt><trkpt lat="43.121878404583654" lon="12.468582548488085"><ele>230.33333333333334</ele><time>2026-04-26T07:09:44.998Z</time></trkpt><trkpt lat="43.12194978197774" lon="12.468612677644789"><ele>231.0</ele><time>2026-04-26T07:09:46.998Z</time></trkpt><trkpt lat="43.122022112355864" lon="12.468667090484985"><ele>231.0</ele><time>2026-04-26T07:09:48.998Z</time></trkpt><trkpt lat="43.12215135553223" lon="12.468536525258605"><ele>231.0</ele><time>2026-04-26T07:09:50.998Z</time></trkpt><trkpt lat="43.12225141667896" lon="12.4685238239164"><ele>231.0</ele><time>2026-04-26T07:09:52.998Z</time></trkpt><trkpt lat="43.12235331204797" lon="12.468492323587336"><ele>231.0</ele><time>2026-04-26T07:09:54.998Z</time></trkpt><trkpt lat="43.122454287978115" lon="12.468441036355497"><ele>232.4</ele><time>2026-04-26T07:09:56.998Z</time></trkpt><trkpt lat="43.122546218365386" lon="12.4683802117716"><ele>233.8</ele><time>2026-04-26T07:09:58.998Z</time></trkpt><trkpt lat="43.12262703042256" lon="12.468340417098812"><ele>235.20000000000002</ele><time>2026-04-26T07:10:00.998Z</time></trkpt><trkpt lat="43.122715374390765" lon="12.468308811142588"><ele>236.60000000000002</ele><time>2026-04-26T07:10:02.998Z</time></trkpt><trkpt lat="43.12280879807933" lon="12.468267036260835"><ele>238.0</ele><time>2026-04-26T07:10:04.998Z</time></trkpt><trkpt lat="43.122894074287196" lon="12.468231523195707"><ele>237.99999999999997</ele><time>2026-04-26T07:10:06.997Z</time></trkpt><trkpt lat="43.12297230850182" lon="12.468198344343818"><ele>238.0</ele><time>2026-04-26T07:10:08.997Z</time></trkpt><trkpt lat="43.123050806644756" lon="12.468170737222561"><ele>238.0</ele><time>2026-04-26T07:10:10.997Z</time></trkpt><trkpt lat="43.12312829763617" lon="12.468136125277747"><ele>238.0</ele><time>2026-04-26T07:10:12.997Z</time></trkpt><trkpt lat="43.12320053044775" lon="12.46810187657494"><ele>237.99999999999997</ele><time>2026-04-26T07:10:14.997Z</time></trkpt><trkpt lat="43.123268024561746" lon="12.46806564224164"><ele>238.0</ele><time>2026-04-26T07:10:16.997Z</time></trkpt><trkpt lat="43.123336621936765" lon="12.468013190113018"><ele>238.4</ele><time>2026-04-26T07:10:18.997Z</time></trkpt><trkpt lat="43.12341082903057" lon="12.467961034405292"><ele>238.8</ele><time>2026-04-26T07:10:21Z</time></trkpt><trkpt lat="43.12349868288021" lon="12.467910197847171"><ele>239.2</ele><time>2026-04-26T07:10:23Z</time></trkpt><trkpt lat="43.1235635155386" lon="12.467860817074952"><ele>239.6</ele><time>2026-04-26T07:10:25Z</time></trkpt><trkpt lat="43.123443064891354" lon="12.467945633482383"><ele>240.0</ele><time>2026-04-26T07:13:31.998Z</time></trkpt><trkpt lat="43.123368377549774" lon="12.467992146669237"><ele>240.33333333333334</ele><time>2026-04-26T07:13:34.998Z</time></trkpt><trkpt lat="43.123293399339026" lon="12.468049861119946"><ele>240.66666666666669</ele><time>2026-04-26T07:13:37.998Z</time></trkpt><trkpt lat="43.123232602466665" lon="12.468084734717372"><ele>241.0</ele><time>2026-04-26T07:13:40.998Z</time></trkpt><trkpt lat="43.123160146269" lon="12.468120785073433"><ele>241.33333333333334</ele><time>2026-04-26T07:13:43.998Z</time></trkpt><trkpt lat="43.12308370324449" lon="12.468161082218513"><ele>241.66666666666669</ele><time>2026-04-26T07:13:46.998Z</time></trkpt><trkpt lat="43.123020245695564" lon="12.468188182419345"><ele>242.0</ele><time>2026-04-26T07:13:48.998Z</time></trkpt><trkpt lat="43.12293663864216" lon="12.468221467335066"><ele>241.33333333333334</ele><time>2026-04-26T07:13:51.998Z</time></trkpt><trkpt lat="43.12286943767603" lon="12.468251295972522"><ele>240.66666666666669</ele><time>2026-04-26T07:13:53.998Z</time></trkpt><trkpt lat="43.122800104167354" lon="12.468279611130756"><ele>240.0</ele><time>2026-04-26T07:13:55.998Z</time></trkpt><trkpt lat="43.122730083286996" lon="12.468310820326966"><ele>239.33333333333331</ele><time>2026-04-26T07:13:57.998Z</time></trkpt><trkpt lat="43.122656760441096" lon="12.468345318031929"><ele>238.66666666666666</ele><time>2026-04-26T07:13:59.998Z</time></trkpt><trkpt lat="43.122580139531046" lon="12.468392046168333"><ele>238.0</ele><time>2026-04-26T07:14:01.998Z</time></trkpt><trkpt lat="43.122494225561645" lon="12.46842803764543"><ele>237.99999999999997</ele><time>2026-04-26T07:14:03.998Z</time></trkpt><trkpt lat="43.12241546880054" lon="12.468463941087101"><ele>238.0</ele><time>2026-04-26T07:14:05.998Z</time></trkpt><trkpt lat="43.12233972607081" lon="12.468496095550664"><ele>238.0</ele><time>2026-04-26T07:14:07.998Z</time></trkpt><trkpt lat="43.12225857471688" lon="12.468522578579462"><ele>238.0</ele><time>2026-04-26T07:14:09.998Z</time></trkpt><trkpt lat="43.122175015985455" lon="12.468535021556809"><ele>237.99999999999997</ele><time>2026-04-26T07:14:11.998Z</time></trkpt><trkpt lat="43.12209621996654" lon="12.468541295841923"><ele>238.0</ele><time>2026-04-26T07:14:13.998Z</time></trkpt><trkpt lat="43.12201467271912" lon="12.46854626151411"><ele>236.60000000000002</ele><time>2026-04-26T07:14:15.997Z</time></trkpt><trkpt lat="43.12192331214944" lon="12.468553156491565"><ele>235.20000000000002</ele><time>2026-04-26T07:14:17.997Z</time></trkpt><trkpt lat="43.12183120885976" lon="12.468531567028402"><ele>233.8</ele><time>2026-04-26T07:14:19.997Z</time></trkpt><trkpt lat="43.121708636196175" lon="12.468531567025911"><ele>232.4</ele><time>2026-04-26T07:14:21.997Z</time></trkpt><trkpt lat="43.12162971493694" lon="12.468533135591413"><ele>231.0</ele><time>2026-04-26T07:14:22.997Z</time></trkpt><trkpt lat="43.12154013145919" lon="12.468556335181507"><ele>230.20000000000002</ele><time>2026-04-26T07:14:23.997Z</time></trkpt><trkpt lat="43.121441739442645" lon="12.468545057437336"><ele>229.40000000000003</ele><time>2026-04-26T07:14:24.997Z</time></trkpt><trkpt lat="43.121341290784564" lon="12.468552016929477"><ele>228.6</ele><time>2026-04-26T07:14:25.997Z</time></trkpt><trkpt lat="43.12124288434119" lon="12.468558804371133"><ele>227.8</ele><time>2026-04-26T07:14:26.997Z</time></trkpt><trkpt lat="43.1211473653874" lon="12.468564893851314"><ele>227.0</ele><time>2026-04-26T07:14:27.997Z</time></trkpt><trkpt lat="43.12105492927841" lon="12.468569299182338"><ele>227.0</ele><time>2026-04-26T07:14:28.997Z</time></trkpt><trkpt lat="43.12097100405091" lon="12.468573298907613"><ele>227.00000000000003</ele><time>2026-04-26T07:14:29.997Z</time></trkpt><trkpt lat="43.12089402012749" lon="12.468599510312819"><ele>227.0</ele><time>2026-04-26T07:14:30.997Z</time></trkpt><trkpt lat="43.12082159291221" lon="12.468599854672831"><ele>227.0</ele><time>2026-04-26T07:14:32Z</time></trkpt><trkpt lat="43.120754496336865" lon="12.46860747587001"><ele>227.00000000000003</ele><time>2026-04-26T07:14:33Z</time></trkpt><trkpt lat="43.12069049900421" lon="12.46860932343332"><ele>227.0</ele><time>2026-04-26T07:14:34Z</time></trkpt><trkpt lat="43.12062411128639" lon="12.468617361645178"><ele>227.0</ele><time>2026-04-26T07:14:35Z</time></trkpt><trkpt lat="43.120551443229736" lon="12.468649624651926"><ele>226.39999999999998</ele><time>2026-04-26T07:14:36Z</time></trkpt><trkpt lat="43.12046540478224" lon="12.468665733784006"><ele>225.79999999999998</ele><time>2026-04-26T07:14:37Z</time></trkpt><trkpt lat="43.1203756082701" lon="12.468718110704284"><ele>225.2</ele><time>2026-04-26T07:14:38Z</time></trkpt><trkpt lat="43.12028274425743" lon="12.46879015425525"><ele>224.6</ele><time>2026-04-26T07:14:39Z</time></trkpt><trkpt lat="43.120194172743865" lon="12.468881185937727"><ele>224.0</ele><time>2026-04-26T07:14:40Z</time></trkpt><trkpt lat="43.12009682133345" lon="12.468938241167773"><ele>223.39999999999998</ele><time>2026-04-26T07:14:41Z</time></trkpt><trkpt lat="43.12001583067535" lon="12.469030683560359"><ele>222.79999999999998</ele><time>2026-04-26T07:14:42Z</time></trkpt><trkpt lat="43.119915041388545" lon="12.46908572736005"><ele>222.20000000000002</ele><time>2026-04-26T07:14:43Z</time></trkpt><trkpt lat="43.11981965553595" lon="12.469155039490571"><ele>221.60000000000002</ele><time>2026-04-26T07:14:44Z</time></trkpt><trkpt lat="43.119727801286984" lon="12.469221767494398"><ele>221.0</ele><time>2026-04-26T07:14:45Z</time></trkpt><trkpt lat="43.11965933539975" lon="12.469296016201389"><ele>219.60000000000002</ele><time>2026-04-26T07:14:46Z</time></trkpt><trkpt lat="43.11959967559442" lon="12.469338088245365"><ele>218.20000000000002</ele><time>2026-04-26T07:14:47Z</time></trkpt><trkpt lat="43.11952991552534" lon="12.469394204532039"><ele>216.79999999999998</ele><time>2026-04-26T07:14:48Z</time></trkpt><trkpt lat="43.119444353194915" lon="12.469438978474225"><ele>215.39999999999998</ele><time>2026-04-26T07:14:49Z</time></trkpt><trkpt lat="43.11936656250766" lon="12.469526912903879"><ele>214.0</ele><time>2026-04-26T07:14:50Z</time></trkpt><trkpt lat="43.11925997061881" lon="12.469584120626966"><ele>213.2</ele><time>2026-04-26T07:14:50.999Z</time></trkpt><trkpt lat="43.11916404009911" lon="12.469655368278543"><ele>212.39999999999998</ele><time>2026-04-26T07:14:51.999Z</time></trkpt><trkpt lat="43.119074551127916" lon="12.469721711203446"><ele>211.6</ele><time>2026-04-26T07:14:52.999Z</time></trkpt><trkpt lat="43.118997419640095" lon="12.469804505721836"><ele>210.8</ele><time>2026-04-26T07:14:53.999Z</time></trkpt><trkpt lat="43.11891352008666" lon="12.469865109720434"><ele>210.0</ele><time>2026-04-26T07:14:54.999Z</time></trkpt><trkpt lat="43.11882751131243" lon="12.469904768531592"><ele>209.5</ele><time>2026-04-26T07:14:55.999Z</time></trkpt><trkpt lat="43.1187613374819" lon="12.469953803598548"><ele>209.0</ele><time>2026-04-26T07:14:56.999Z</time></trkpt><trkpt lat="43.11866960484463" lon="12.47002570127289"><ele>208.5</ele><time>2026-04-26T07:14:58.999Z</time></trkpt><trkpt lat="43.118618979576446" lon="12.470079229594157"><ele>208.0</ele><time>2026-04-26T07:15:00.999Z</time></trkpt><trkpt lat="43.11855551893764" lon="12.470124366005086"><ele>207.5</ele><time>2026-04-26T07:15:05.999Z</time></trkpt><trkpt lat="43.11850868231753" lon="12.46998147050618"><ele>207.0</ele><time>2026-04-26T07:15:06.999Z</time></trkpt><trkpt lat="43.11847645253189" lon="12.469902876926012"><ele>207.0</ele><time>2026-04-26T07:15:07.999Z</time></trkpt><trkpt lat="43.118425965536204" lon="12.469811016890587"><ele>207.0</ele><time>2026-04-26T07:15:08.999Z</time></trkpt><trkpt lat="43.11837889775078" lon="12.469692030540713"><ele>207.0</ele><time>2026-04-26T07:15:09.999Z</time></trkpt><trkpt lat="43.1183156549692" lon="12.469541717859661"><ele>207.0</ele><time>2026-04-26T07:15:10.999Z</time></trkpt><trkpt lat="43.11825412605755" lon="12.469381719689634"><ele>207.0</ele><time>2026-04-26T07:15:11.999Z</time></trkpt><trkpt lat="43.11819100076633" lon="12.46922107712278"><ele>206.33333333333331</ele><time>2026-04-26T07:15:12.999Z</time></trkpt><trkpt lat="43.11811979112852" lon="12.469043524389244"><ele>205.66666666666666</ele><time>2026-04-26T07:15:13.999Z</time></trkpt><trkpt lat="43.11804471542338" lon="12.468859932143477"><ele>205.0</ele><time>2026-04-26T07:15:14.999Z</time></trkpt><trkpt lat="43.11796562734886" lon="12.468659608406142"><ele>204.66666666666666</ele><time>2026-04-26T07:15:15.999Z</time></trkpt><trkpt lat="43.11788319482762" lon="12.468453634243973"><ele>204.33333333333331</ele><time>2026-04-26T07:15:16.999Z</time></trkpt><trkpt lat="43.11780235815822" lon="12.468251022520743"><ele>204.0</ele><time>2026-04-26T07:15:17.999Z</time></trkpt><trkpt lat="43.11771967243951" lon="12.468047319473678"><ele>203.33333333333331</ele><time>2026-04-26T07:15:18.999Z</time></trkpt><trkpt lat="43.117631193043934" lon="12.46783821626004"><ele>202.66666666666666</ele><time>2026-04-26T07:15:19.999Z</time></trkpt><trkpt lat="43.11754171570484" lon="12.467623409788212"><ele>202.0</ele><time>2026-04-26T07:15:20.999Z</time></trkpt><trkpt lat="43.11745164541567" lon="12.467402741184701"><ele>200.66666666666666</ele><time>2026-04-26T07:15:21.999Z</time></trkpt><trkpt lat="43.11735994109674" lon="12.46717900224454"><ele>199.33333333333331</ele><time>2026-04-26T07:15:22.999Z</time></trkpt><trkpt lat="43.117267643529516" lon="12.466948697981042"><ele>198.0</ele><time>2026-04-26T07:15:23.999Z</time></trkpt><trkpt lat="43.11717410549997" lon="12.466717332782295"><ele>197.66666666666669</ele><time>2026-04-26T07:15:24.999Z</time></trkpt><trkpt lat="43.11707886313798" lon="12.466478391872997"><ele>197.33333333333334</ele><time>2026-04-26T07:15:26Z</time></trkpt><trkpt lat="43.11697947002206" lon="12.466233661603814"><ele>197.0</ele><time>2026-04-26T07:15:27Z</time></trkpt><trkpt lat="43.11688212228516" lon="12.465993426298963"><ele>197.0</ele><time>2026-04-26T07:15:28Z</time></trkpt><trkpt lat="43.11678182536721" lon="12.465748682518056"><ele>197.0</ele><time>2026-04-26T07:15:29Z</time></trkpt><trkpt lat="43.1166820684378" lon="12.465504770731947"><ele>197.0</ele><time>2026-04-26T07:15:30Z</time></trkpt><trkpt lat="43.11658093002977" lon="12.465257573453144"><ele>197.0</ele><time>2026-04-26T07:15:31Z</time></trkpt><trkpt lat="43.116477865202754" lon="12.46501137281424"><ele>197.0</ele><time>2026-04-26T07:15:32Z</time></trkpt><trkpt lat="43.11637365905774" lon="12.46476324017641"><ele>197.0</ele><time>2026-04-26T07:15:33Z</time></trkpt><trkpt lat="43.11627039507204" lon="12.4645119406595"><ele>197.0</ele><time>2026-04-26T07:15:33.999Z</time></trkpt><trkpt lat="43.116169091379646" lon="12.464257717923543"><ele>197.0</ele><time>2026-04-26T07:15:34.999Z</time></trkpt><trkpt lat="43.116068152955414" lon="12.463998693158837"><ele>197.0</ele><time>2026-04-26T07:15:35.999Z</time></trkpt><trkpt lat="43.11596770507816" lon="12.463740712173225"><ele>197.33333333333334</ele><time>2026-04-26T07:15:36.999Z</time></trkpt><trkpt lat="43.11586141004262" lon="12.463484279573292"><ele>197.66666666666669</ele><time>2026-04-26T07:15:37.999Z</time></trkpt><trkpt lat="43.115751922522115" lon="12.463222253107395"><ele>198.0</ele><time>2026-04-26T07:15:38.999Z</time></trkpt><trkpt lat="43.11564223017975" lon="12.46295665271186"><ele>197.0</ele><time>2026-04-26T07:15:39.999Z</time></trkpt><trkpt lat="43.115530668824306" lon="12.462686468641122"><ele>196.0</ele><time>2026-04-26T07:15:40.999Z</time></trkpt><trkpt lat="43.115426903290974" lon="12.462431267345435"><ele>195.0</ele><time>2026-04-26T07:15:41.999Z</time></trkpt><trkpt lat="43.1153266708082" lon="12.46219557606374"><ele>195.0</ele><time>2026-04-26T07:15:42.999Z</time></trkpt><trkpt lat="43.115239079035746" lon="12.461982343534235"><ele>195.0</ele><time>2026-04-26T07:15:43.999Z</time></trkpt><trkpt lat="43.11516466844283" lon="12.461796273595466"><ele>195.0</ele><time>2026-04-26T07:15:44.999Z</time></trkpt><trkpt lat="43.11510312907115" lon="12.461636113283337"><ele>195.0</ele><time>2026-04-26T07:15:45.999Z</time></trkpt><trkpt lat="43.115057943621856" lon="12.461496208992514"><ele>195.0</ele><time>2026-04-26T07:15:46.999Z</time></trkpt><trkpt lat="43.11503157727947" lon="12.46137449246107"><ele>195.0</ele><time>2026-04-26T07:15:47.999Z</time></trkpt><trkpt lat="43.115024672440384" lon="12.46125953613594"><ele>195.0</ele><time>2026-04-26T07:15:48.999Z</time></trkpt><trkpt lat="43.11503642229198" lon="12.461160153050432"><ele>195.0</ele><time>2026-04-26T07:15:49.999Z</time></trkpt><trkpt lat="43.11506138415825" lon="12.461073095583489"><ele>195.0</ele><time>2026-04-26T07:15:50.999Z</time></trkpt><trkpt lat="43.115100174696686" lon="12.461005063512811"><ele>195.2</ele><time>2026-04-26T07:15:51.999Z</time></trkpt><trkpt lat="43.11517904677703" lon="12.46093814722103"><ele>195.4</ele><time>2026-04-26T07:15:53.999Z</time></trkpt><trkpt lat="43.115270510770934" lon="12.460869084616094"><ele>195.60000000000002</ele><time>2026-04-26T07:15:55.999Z</time></trkpt><trkpt lat="43.11536112182679" lon="12.46083631510288"><ele>195.8</ele><time>2026-04-26T07:15:57.999Z</time></trkpt><trkpt lat="43.115453383872236" lon="12.460802943241559"><ele>196.0</ele><time>2026-04-26T07:15:59.999Z</time></trkpt><trkpt lat="43.11557846558031" lon="12.460787869070156"><ele>195.99999999999997</ele><time>2026-04-26T07:16:01.999Z</time></trkpt><trkpt lat="43.11565304225627" lon="12.46080580005728"><ele>196.0</ele><time>2026-04-26T07:16:02.999Z</time></trkpt><trkpt lat="43.115729253345144" lon="12.460827628712213"><ele>196.0</ele><time>2026-04-26T07:16:03.999Z</time></trkpt><trkpt lat="43.11581233613655" lon="12.460841181531855"><ele>196.0</ele><time>2026-04-26T07:16:04.999Z</time></trkpt><trkpt lat="43.11589474039771" lon="12.460849557574415"><ele>195.99999999999997</ele><time>2026-04-26T07:16:05.999Z</time></trkpt><trkpt lat="43.11597832889782" lon="12.46086729366826"><ele>196.0</ele><time>2026-04-26T07:16:06.999Z</time></trkpt><trkpt lat="43.116062365811885" lon="12.460889960784314"><ele>196.20000000000002</ele><time>2026-04-26T07:16:07.999Z</time></trkpt><trkpt lat="43.11615106152973" lon="12.460917063251287"><ele>196.4</ele><time>2026-04-26T07:16:08.999Z</time></trkpt><trkpt lat="43.11625343153265" lon="12.460946754668395"><ele>196.6</ele><time>2026-04-26T07:16:09.999Z</time></trkpt><trkpt lat="43.116357546159115" lon="12.460972945450239"><ele>196.8</ele><time>2026-04-26T07:16:10.999Z</time></trkpt><trkpt lat="43.1164702475915" lon="12.460999094497831"><ele>197.0</ele><time>2026-04-26T07:16:11.999Z</time></trkpt><trkpt lat="43.11658704340749" lon="12.46102408553108"><ele>197.66666666666669</ele><time>2026-04-26T07:16:12.999Z</time></trkpt><trkpt lat="43.11669051739304" lon="12.461049052362208"><ele>198.33333333333334</ele><time>2026-04-26T07:16:13.999Z</time></trkpt><trkpt lat="43.11677829264957" lon="12.46106976164919"><ele>199.0</ele><time>2026-04-26T07:16:14.999Z</time></trkpt><trkpt lat="43.11685146280793" lon="12.4610883519022"><ele>199.66666666666669</ele><time>2026-04-26T07:16:15.999Z</time></trkpt><trkpt lat="43.116938972417756" lon="12.461124865424956"><ele>200.33333333333334</ele><time>2026-04-26T07:16:17.998Z</time></trkpt><trkpt lat="43.11700894932533" lon="12.461131921547663"><ele>201.0</ele><time>2026-04-26T07:16:20.998Z</time></trkpt><trkpt lat="43.11709441778713" lon="12.46089139617719"><ele>201.0</ele><time>2026-04-26T07:16:22.998Z</time></trkpt><trkpt lat="43.11714954267123" lon="12.460815281467594"><ele>201.0</ele><time>2026-04-26T07:16:23.998Z</time></trkpt><trkpt lat="43.117199803626846" lon="12.460721353374424"><ele>201.0</ele><time>2026-04-26T07:16:24.998Z</time></trkpt><trkpt lat="43.117243279870216" lon="12.460629625488608"><ele>201.0</ele><time>2026-04-26T07:16:25.998Z</time></trkpt><trkpt lat="43.11728333612004" lon="12.460543120726722"><ele>201.0</ele><time>2026-04-26T07:16:26.998Z</time></trkpt><trkpt lat="43.11730912818489" lon="12.46044618850436"><ele>201.0</ele><time>2026-04-26T07:16:27.998Z</time></trkpt><trkpt lat="43.1173483624992" lon="12.46036589062656"><ele>201.0</ele><time>2026-04-26T07:16:28.998Z</time></trkpt><trkpt lat="43.11738582996535" lon="12.460285420831113"><ele>201.0</ele><time>2026-04-26T07:16:29.998Z</time></trkpt><trkpt lat="43.11742382108479" lon="12.460207707433959"><ele>201.0</ele><time>2026-04-26T07:16:30.998Z</time></trkpt><trkpt lat="43.1174629648049" lon="12.46012592744205"><ele>201.0</ele><time>2026-04-26T07:16:31.998Z</time></trkpt><trkpt lat="43.11750430168655" lon="12.460051278995136"><ele>201.0</ele><time>2026-04-26T07:16:32.998Z</time></trkpt><trkpt lat="43.117573799677594" lon="12.45991389234738"><ele>201.0</ele><time>2026-04-26T07:16:34.998Z</time></trkpt><trkpt lat="43.117626404699585" lon="12.459752380561145"><ele>201.0</ele><time>2026-04-26T07:16:37.001Z</time></trkpt><trkpt lat="43.11766180990429" lon="12.459663435401515"><ele>201.0</ele><time>2026-04-26T07:16:38.001Z</time></trkpt><trkpt lat="43.117683748577974" lon="12.459569634495965"><ele>201.0</ele><time>2026-04-26T07:16:39.001Z</time></trkpt><trkpt lat="43.117650232341205" lon="12.45943348848763"><ele>201.0</ele><time>2026-04-26T07:16:40.001Z</time></trkpt><trkpt lat="43.11763690188579" lon="12.459313855364835"><ele>201.0</ele><time>2026-04-26T07:16:41.001Z</time></trkpt><trkpt lat="43.11762045777367" lon="12.45919202654793"><ele>201.0</ele><time>2026-04-26T07:16:42.001Z</time></trkpt><trkpt lat="43.117604836307734" lon="12.459075798210488"><ele>201.66666666666666</ele><time>2026-04-26T07:16:43.001Z</time></trkpt><trkpt lat="43.11759269895765" lon="12.458978789369915"><ele>202.33333333333331</ele><time>2026-04-26T07:16:44.001Z</time></trkpt><trkpt lat="43.117575012707896" lon="12.45880353505418"><ele>203.0</ele><time>2026-04-26T07:16:46.001Z</time></trkpt><trkpt lat="43.117566163217575" lon="12.458700857573508"><ele>203.66666666666666</ele><time>2026-04-26T07:16:47.001Z</time></trkpt><trkpt lat="43.117557992145095" lon="12.458590725908712"><ele>204.33333333333331</ele><time>2026-04-26T07:16:48.001Z</time></trkpt><trkpt lat="43.117550698466246" lon="12.458492869786529"><ele>205.0</ele><time>2026-04-26T07:16:49.001Z</time></trkpt><trkpt lat="43.1175387606943" lon="12.458386065470574"><ele>205.0</ele><time>2026-04-26T07:16:50.001Z</time></trkpt><trkpt lat="43.11753897938073" lon="12.458289707604024"><ele>205.0</ele><time>2026-04-26T07:16:51Z</time></trkpt><trkpt lat="43.1175441796122" lon="12.458128931959498"><ele>205.0</ele><time>2026-04-26T07:16:53Z</time></trkpt><trkpt lat="43.11757018858341" lon="12.457978832138323"><ele>205.0</ele><time>2026-04-26T07:16:55Z</time></trkpt><trkpt lat="43.11758572776025" lon="12.457878769590154"><ele>205.0</ele><time>2026-04-26T07:16:56Z</time></trkpt><trkpt lat="43.117604268565835" lon="12.45776516210282"><ele>204.33333333333331</ele><time>2026-04-26T07:16:57Z</time></trkpt><trkpt lat="43.1176281122504" lon="12.457663655351702"><ele>203.66666666666666</ele><time>2026-04-26T07:16:58Z</time></trkpt><trkpt lat="43.11765872530815" lon="12.457556685227388"><ele>203.0</ele><time>2026-04-26T07:16:59Z</time></trkpt><trkpt lat="43.11768852355626" lon="12.457448238225625"><ele>202.33333333333331</ele><time>2026-04-26T07:17:00Z</time></trkpt><trkpt lat="43.117711732073154" lon="12.457337055124826"><ele>201.66666666666666</ele><time>2026-04-26T07:17:01Z</time></trkpt><trkpt lat="43.11773021350145" lon="12.457217991314483"><ele>201.0</ele><time>2026-04-26T07:17:02Z</time></trkpt><trkpt lat="43.11774568483262" lon="12.457101058037116"><ele>200.66666666666666</ele><time>2026-04-26T07:17:03Z</time></trkpt><trkpt lat="43.11776136555863" lon="12.456988178999516"><ele>200.33333333333331</ele><time>2026-04-26T07:17:04Z</time></trkpt><trkpt lat="43.117763769188024" lon="12.456869483336018"><ele>200.0</ele><time>2026-04-26T07:17:05Z</time></trkpt><trkpt lat="43.11776981316903" lon="12.456743725550586"><ele>199.66666666666666</ele><time>2026-04-26T07:17:06Z</time></trkpt><trkpt lat="43.11778039422105" lon="12.456620235285879"><ele>199.33333333333331</ele><time>2026-04-26T07:17:07Z</time></trkpt><trkpt lat="43.11778967877561" lon="12.45649170475901"><ele>199.0</ele><time>2026-04-26T07:17:08Z</time></trkpt><trkpt lat="43.11779506561931" lon="12.456374750377854"><ele>198.66666666666666</ele><time>2026-04-26T07:17:09Z</time></trkpt><trkpt lat="43.117801614130386" lon="12.456272846130295"><ele>198.33333333333331</ele><time>2026-04-26T07:17:10Z</time></trkpt><trkpt lat="43.11781087193424" lon="12.45618263781395"><ele>198.0</ele><time>2026-04-26T07:17:11Z</time></trkpt><trkpt lat="43.11783345152774" lon="12.456025539106172"><ele>197.66666666666669</ele><time>2026-04-26T07:17:13Z</time></trkpt><trkpt lat="43.117847794990176" lon="12.455930432737006"><ele>197.33333333333334</ele><time>2026-04-26T07:17:14Z</time></trkpt><trkpt lat="43.117867069991995" lon="12.455844085544122"><ele>197.0</ele><time>2026-04-26T07:17:15Z</time></trkpt><trkpt lat="43.11788194005131" lon="12.45574199811381"><ele>197.0</ele><time>2026-04-26T07:17:16Z</time></trkpt><trkpt lat="43.11789907860996" lon="12.455630321087831"><ele>197.0</ele><time>2026-04-26T07:17:17Z</time></trkpt><trkpt lat="43.11792038822634" lon="12.455524513211852"><ele>197.0</ele><time>2026-04-26T07:17:18Z</time></trkpt><trkpt lat="43.117940986606186" lon="12.455423548816954"><ele>197.0</ele><time>2026-04-26T07:17:19Z</time></trkpt><trkpt lat="43.11795874919225" lon="12.455322704088488"><ele>197.0</ele><time>2026-04-26T07:17:20Z</time></trkpt><trkpt lat="43.11797381652489" lon="12.455229440654987"><ele>197.0</ele><time>2026-04-26T07:17:21Z</time></trkpt><trkpt lat="43.11798958888519" lon="12.455144494063468"><ele>197.0</ele><time>2026-04-26T07:17:22Z</time></trkpt><trkpt lat="43.11800343795163" lon="12.45504789475073"><ele>197.00000000000003</ele><time>2026-04-26T07:17:23Z</time></trkpt><trkpt lat="43.11801693756395" lon="12.4549483529521"><ele>197.0</ele><time>2026-04-26T07:17:24Z</time></trkpt><trkpt lat="43.11802804757989" lon="12.454846721087032"><ele>197.0</ele><time>2026-04-26T07:17:25Z</time></trkpt><trkpt lat="43.118042811528916" lon="12.454752181050587"><ele>197.0</ele><time>2026-04-26T07:17:26Z</time></trkpt><trkpt lat="43.11809085331521" lon="12.4546018792029"><ele>197.00000000000003</ele><time>2026-04-26T07:17:28Z</time></trkpt><trkpt lat="43.11810136033357" lon="12.454514920037095"><ele>197.0</ele><time>2026-04-26T07:17:29Z</time></trkpt><trkpt lat="43.11816012448199" lon="12.454370769592584"><ele>197.0</ele><time>2026-04-26T07:17:31Z</time></trkpt><trkpt lat="43.11821142795722" lon="12.454230519500728"><ele>197.0</ele><time>2026-04-26T07:17:32.999Z</time></trkpt><trkpt lat="43.11821635849118" lon="12.454087759752925"><ele>197.0</ele><time>2026-04-26T07:17:34.999Z</time></trkpt><trkpt lat="43.1182132959646" lon="12.453982313682145"><ele>197.0</ele><time>2026-04-26T07:17:36.999Z</time></trkpt><trkpt lat="43.118233199324074" lon="12.453878709214147"><ele>197.0</ele><time>2026-04-26T07:17:39.999Z</time></trkpt><trkpt lat="43.11837036298889" lon="12.453769732283954"><ele>197.39999999999998</ele><time>2026-04-26T07:17:44.999Z</time></trkpt><trkpt lat="43.11845826387604" lon="12.45374801291289"><ele>197.79999999999998</ele><time>2026-04-26T07:17:45.999Z</time></trkpt><trkpt lat="43.11855137186449" lon="12.453721614912569"><ele>198.2</ele><time>2026-04-26T07:17:46.999Z</time></trkpt><trkpt lat="43.1186579214275" lon="12.45367653657517"><ele>198.6</ele><time>2026-04-26T07:17:47.999Z</time></trkpt><trkpt lat="43.1187742229501" lon="12.453609725225494"><ele>199.0</ele><time>2026-04-26T07:17:48.999Z</time></trkpt><trkpt lat="43.11888946000883" lon="12.453529342882602"><ele>199.0</ele><time>2026-04-26T07:17:49.999Z</time></trkpt><trkpt lat="43.11900898928441" lon="12.453441837421993"><ele>199.0</ele><time>2026-04-26T07:17:50.999Z</time></trkpt><trkpt lat="43.11913376457055" lon="12.453340982772767"><ele>199.0</ele><time>2026-04-26T07:17:51.999Z</time></trkpt><trkpt lat="43.119263162149004" lon="12.453234099590459"><ele>199.0</ele><time>2026-04-26T07:17:52.999Z</time></trkpt><trkpt lat="43.11939816713126" lon="12.453125266618654"><ele>199.75</ele><time>2026-04-26T07:17:53.999Z</time></trkpt><trkpt lat="43.119531846930975" lon="12.453016473678169"><ele>200.5</ele><time>2026-04-26T07:17:54.999Z</time></trkpt><trkpt lat="43.11966050748648" lon="12.452915198218465"><ele>201.25</ele><time>2026-04-26T07:17:55.999Z</time></trkpt><trkpt lat="43.119784371302394" lon="12.452816651931077"><ele>202.0</ele><time>2026-04-26T07:17:56.999Z</time></trkpt><trkpt lat="43.11989910935573" lon="12.452725401113588"><ele>202.75</ele><time>2026-04-26T07:17:57.999Z</time></trkpt><trkpt lat="43.12001254364502" lon="12.45263730803002"><ele>203.5</ele><time>2026-04-26T07:17:58.999Z</time></trkpt><trkpt lat="43.12012293027165" lon="12.452549788578134"><ele>204.25</ele><time>2026-04-26T07:17:59.999Z</time></trkpt><trkpt lat="43.12023164908955" lon="12.452465630098722"><ele>205.0</ele><time>2026-04-26T07:18:00.999Z</time></trkpt><trkpt lat="43.1203469155143" lon="12.452390299201882"><ele>205.0</ele><time>2026-04-26T07:18:01.999Z</time></trkpt><trkpt lat="43.120464118443465" lon="12.452321594228366"><ele>205.0</ele><time>2026-04-26T07:18:02.999Z</time></trkpt><trkpt lat="43.12058514151674" lon="12.452268896009377"><ele>205.0</ele><time>2026-04-26T07:18:03.999Z</time></trkpt><trkpt lat="43.12070471313666" lon="12.452226413212575"><ele>205.0</ele><time>2026-04-26T07:18:04.999Z</time></trkpt><trkpt lat="43.12082975621743" lon="12.452199346826477"><ele>206.75</ele><time>2026-04-26T07:18:05.999Z</time></trkpt><trkpt lat="43.12095130137073" lon="12.452190361239904"><ele>208.5</ele><time>2026-04-26T07:18:06.999Z</time></trkpt><trkpt lat="43.12107775799369" lon="12.452196031548256"><ele>210.25</ele><time>2026-04-26T07:18:07.999Z</time></trkpt><trkpt lat="43.12120417283482" lon="12.452215464490976"><ele>212.0</ele><time>2026-04-26T07:18:08.999Z</time></trkpt><trkpt lat="43.121330824837095" lon="12.452243057979848"><ele>212.0</ele><time>2026-04-26T07:18:09.999Z</time></trkpt><trkpt lat="43.121454548179095" lon="12.452293048169587"><ele>212.0</ele><time>2026-04-26T07:18:10.999Z</time></trkpt><trkpt lat="43.121582027669504" lon="12.45233521846777"><ele>212.0</ele><time>2026-04-26T07:18:11.999Z</time></trkpt><trkpt lat="43.121708428026956" lon="12.452390429088044"><ele>212.0</ele><time>2026-04-26T07:18:12.999Z</time></trkpt><trkpt lat="43.12184430898596" lon="12.452446053771155"><ele>211.75</ele><time>2026-04-26T07:18:13.999Z</time></trkpt><trkpt lat="43.12197985385755" lon="12.452487471253534"><ele>211.5</ele><time>2026-04-26T07:18:14.999Z</time></trkpt><trkpt lat="43.122109817601945" lon="12.452501391897606"><ele>211.25</ele><time>2026-04-26T07:18:15.999Z</time></trkpt><trkpt lat="43.12223420092161" lon="12.452496375618962"><ele>211.0</ele><time>2026-04-26T07:18:16.999Z</time></trkpt><trkpt lat="43.12235820879007" lon="12.452471335132858"><ele>210.5</ele><time>2026-04-26T07:18:17.999Z</time></trkpt><trkpt lat="43.12248897074906" lon="12.452445474925266"><ele>210.0</ele><time>2026-04-26T07:18:18.998Z</time></trkpt><trkpt lat="43.12262084209649" lon="12.452407459222048"><ele>209.5</ele><time>2026-04-26T07:18:19.998Z</time></trkpt><trkpt lat="43.12275721745406" lon="12.452371830489565"><ele>209.0</ele><time>2026-04-26T07:18:20.998Z</time></trkpt><trkpt lat="43.122894641385656" lon="12.452330120408666"><ele>209.0</ele><time>2026-04-26T07:18:21.998Z</time></trkpt><trkpt lat="43.12303412397441" lon="12.45228157567861"><ele>209.0</ele><time>2026-04-26T07:18:22.998Z</time></trkpt><trkpt lat="43.1231729350648" lon="12.452232649344303"><ele>209.0</ele><time>2026-04-26T07:18:23.998Z</time></trkpt><trkpt lat="43.123311016874595" lon="12.452189546804634"><ele>209.0</ele><time>2026-04-26T07:18:24.998Z</time></trkpt><trkpt lat="43.12345174943165" lon="12.452150934085303"><ele>208.25</ele><time>2026-04-26T07:18:25.998Z</time></trkpt><trkpt lat="43.1235802371669" lon="12.452121478625239"><ele>207.5</ele><time>2026-04-26T07:18:26.998Z</time></trkpt><trkpt lat="43.12369127249089" lon="12.452102498952032"><ele>206.75</ele><time>2026-04-26T07:18:27.998Z</time></trkpt><trkpt lat="43.123793897636666" lon="12.452091505011508"><ele>206.0</ele><time>2026-04-26T07:18:28.998Z</time></trkpt><trkpt lat="43.12389910024399" lon="12.452079269563425"><ele>206.0</ele><time>2026-04-26T07:18:29.998Z</time></trkpt><trkpt lat="43.124012411712584" lon="12.452066972362326"><ele>206.0</ele><time>2026-04-26T07:18:30.998Z</time></trkpt><trkpt lat="43.124130385070124" lon="12.452063380593312"><ele>206.0</ele><time>2026-04-26T07:18:31.998Z</time></trkpt><trkpt lat="43.12425186395855" lon="12.452066150570593"><ele>206.0</ele><time>2026-04-26T07:18:32.998Z</time></trkpt><trkpt lat="43.12436991604634" lon="12.452075875819121"><ele>205.75</ele><time>2026-04-26T07:18:33.998Z</time></trkpt><trkpt lat="43.124496130885134" lon="12.45209059700418"><ele>205.5</ele><time>2026-04-26T07:18:34.998Z</time></trkpt><trkpt lat="43.12462499582198" lon="12.452110258426773"><ele>205.25</ele><time>2026-04-26T07:18:35.998Z</time></trkpt><trkpt lat="43.12475510444166" lon="12.452137124231404"><ele>205.0</ele><time>2026-04-26T07:18:36.998Z</time></trkpt><trkpt lat="43.124877582249944" lon="12.452169988720586"><ele>208.25</ele><time>2026-04-26T07:18:37.998Z</time></trkpt><trkpt lat="43.124996709458244" lon="12.45221515799227"><ele>211.5</ele><time>2026-04-26T07:18:38.998Z</time></trkpt><trkpt lat="43.125118112505305" lon="12.452264165011243"><ele>214.75</ele><time>2026-04-26T07:18:39.998Z</time></trkpt><trkpt lat="43.12524497548647" lon="12.452321187942557"><ele>218.0</ele><time>2026-04-26T07:18:40.998Z</time></trkpt><trkpt lat="43.12537954287494" lon="12.452383934621983"><ele>218.0</ele><time>2026-04-26T07:18:42Z</time></trkpt><trkpt lat="43.125508956840896" lon="12.452455169673161"><ele>218.0</ele><time>2026-04-26T07:18:43Z</time></trkpt><trkpt lat="43.125633802486966" lon="12.452527199851842"><ele>218.0</ele><time>2026-04-26T07:18:44Z</time></trkpt><trkpt lat="43.12575534064309" lon="12.452598360043734"><ele>218.0</ele><time>2026-04-26T07:18:45Z</time></trkpt><trkpt lat="43.12586888784076" lon="12.452664575519627"><ele>215.25</ele><time>2026-04-26T07:18:46Z</time></trkpt><trkpt lat="43.12597397773894" lon="12.452726572425126"><ele>212.5</ele><time>2026-04-26T07:18:47Z</time></trkpt><trkpt lat="43.12607671925332" lon="12.452789035780077"><ele>209.75</ele><time>2026-04-26T07:18:48Z</time></trkpt><trkpt lat="43.126187753882384" lon="12.452848946838953"><ele>207.0</ele><time>2026-04-26T07:18:49Z</time></trkpt><trkpt lat="43.12630963934914" lon="12.452915534546197"><ele>208.0</ele><time>2026-04-26T07:18:50Z</time></trkpt><trkpt lat="43.126441220057536" lon="12.452986118660666"><ele>209.0</ele><time>2026-04-26T07:18:51Z</time></trkpt><trkpt lat="43.12658001518229" lon="12.45307121999545"><ele>210.0</ele><time>2026-04-26T07:18:52Z</time></trkpt><trkpt lat="43.126731200942885" lon="12.453157364262772"><ele>210.0</ele><time>2026-04-26T07:18:53Z</time></trkpt><trkpt lat="43.12689069380839" lon="12.45324594031495"><ele>210.0</ele><time>2026-04-26T07:18:54Z</time></trkpt><trkpt lat="43.127058363721815" lon="12.453339352097169"><ele>210.0</ele><time>2026-04-26T07:18:55Z</time></trkpt><trkpt lat="43.127229894846636" lon="12.453435006531214"><ele>209.33333333333331</ele><time>2026-04-26T07:18:56Z</time></trkpt><trkpt lat="43.127401470517455" lon="12.45352847303306"><ele>208.66666666666666</ele><time>2026-04-26T07:18:57Z</time></trkpt><trkpt lat="43.127578479113694" lon="12.453608935722887"><ele>208.0</ele><time>2026-04-26T07:18:58Z</time></trkpt><trkpt lat="43.127759465950945" lon="12.453666995806293"><ele>208.0</ele><time>2026-04-26T07:18:59Z</time></trkpt><trkpt lat="43.12794404049" lon="12.453706657288937"><ele>208.0</ele><time>2026-04-26T07:19:00Z</time></trkpt><trkpt lat="43.12813130823508" lon="12.453730758824332"><ele>208.0</ele><time>2026-04-26T07:19:01Z</time></trkpt><trkpt lat="43.12832265815733" lon="12.453730723366842"><ele>207.0</ele><time>2026-04-26T07:19:02Z</time></trkpt><trkpt lat="43.128518437430344" lon="12.45372910096165"><ele>206.0</ele><time>2026-04-26T07:19:03Z</time></trkpt><trkpt lat="43.12871500039793" lon="12.453712517028974"><ele>205.0</ele><time>2026-04-26T07:19:04Z</time></trkpt><trkpt lat="43.12891517106756" lon="12.45369214847803"><ele>204.66666666666666</ele><time>2026-04-26T07:19:05Z</time></trkpt><trkpt lat="43.12911482574193" lon="12.453671674103084"><ele>204.33333333333331</ele><time>2026-04-26T07:19:06Z</time></trkpt><trkpt lat="43.12930960163944" lon="12.453662211417354"><ele>204.0</ele><time>2026-04-26T07:19:07Z</time></trkpt><trkpt lat="43.129523773750854" lon="12.453648241107855"><ele>204.0</ele><time>2026-04-26T07:19:08Z</time></trkpt><trkpt lat="43.12972923936971" lon="12.453633905157115"><ele>204.0</ele><time>2026-04-26T07:19:09Z</time></trkpt><trkpt lat="43.129936313315355" lon="12.453617923020598"><ele>204.0</ele><time>2026-04-26T07:19:10Z</time></trkpt><trkpt lat="43.13014674084393" lon="12.453602774899409"><ele>204.33333333333331</ele><time>2026-04-26T07:19:11Z</time></trkpt><trkpt lat="43.130360506101724" lon="12.45358727505458"><ele>204.66666666666666</ele><time>2026-04-26T07:19:12Z</time></trkpt><trkpt lat="43.13055806338547" lon="12.453573029318939"><ele>205.0</ele><time>2026-04-26T07:19:13Z</time></trkpt><trkpt lat="43.130739290554686" lon="12.453555481687047"><ele>205.66666666666666</ele><time>2026-04-26T07:19:14Z</time></trkpt><trkpt lat="43.130909523100264" lon="12.453542909142236"><ele>206.33333333333331</ele><time>2026-04-26T07:19:15Z</time></trkpt><trkpt lat="43.131063842140364" lon="12.453529258722078"><ele>207.0</ele><time>2026-04-26T07:19:16Z</time></trkpt><trkpt lat="43.13119999308828" lon="12.453517850008138"><ele>207.0</ele><time>2026-04-26T07:19:17Z</time></trkpt><trkpt lat="43.131318462867746" lon="12.453506149946369"><ele>207.0</ele><time>2026-04-26T07:19:18Z</time></trkpt><trkpt lat="43.13140978800689" lon="12.453496972225286"><ele>207.0</ele><time>2026-04-26T07:19:19Z</time></trkpt><trkpt lat="43.13147874388206" lon="12.453505534773825"><ele>207.0</ele><time>2026-04-26T07:19:20Z</time></trkpt><trkpt lat="43.13154296757844" lon="12.453500481536523"><ele>207.0</ele><time>2026-04-26T07:19:22Z</time></trkpt><trkpt lat="43.131542654766776" lon="12.453327887175966"><ele>207.0</ele><time>2026-04-26T07:19:24Z</time></trkpt><trkpt lat="43.13152247179239" lon="12.453185553670796"><ele>207.0</ele><time>2026-04-26T07:19:27Z</time></trkpt><trkpt lat="43.1315224113134" lon="12.453021371414987"><ele>207.0</ele><time>2026-04-26T07:19:29Z</time></trkpt><trkpt lat="43.13150422875851" lon="12.452858086599658"><ele>207.0</ele><time>2026-04-26T07:19:31Z</time></trkpt><trkpt lat="43.13148860560463" lon="12.452717792799659"><ele>206.5</ele><time>2026-04-26T07:19:33Z</time></trkpt><trkpt lat="43.131476379951415" lon="12.452591649725198"><ele>206.0</ele><time>2026-04-26T07:19:35Z</time></trkpt><trkpt lat="43.131463857037645" lon="12.452478502998579"><ele>205.5</ele><time>2026-04-26T07:19:36.999Z</time></trkpt><trkpt lat="43.131447674420635" lon="12.452346869650096"><ele>205.0</ele><time>2026-04-26T07:19:38.999Z</time></trkpt><trkpt lat="43.13140901764517" lon="12.452219380351652"><ele>204.5</ele><time>2026-04-26T07:19:40.999Z</time></trkpt><trkpt lat="43.1314089170915" lon="12.452131195079428"><ele>204.0</ele><time>2026-04-26T07:19:42.999Z</time></trkpt><trkpt lat="43.13139265756038" lon="12.45204409817409"><ele>204.0</ele><time>2026-04-26T07:19:45.999Z</time></trkpt><trkpt lat="43.13136003410024" lon="12.451957995438496"><ele>204.0</ele><time>2026-04-26T07:19:49.999Z</time></trkpt><trkpt lat="43.13136499091242" lon="12.451871778972915"><ele>204.0</ele><time>2026-04-26T07:19:50.999Z</time></trkpt><trkpt lat="43.13158173158189" lon="12.451757823800675"><ele>204.0</ele><time>2026-04-26T07:19:51.999Z</time></trkpt><trkpt lat="43.1316337107448" lon="12.451669460787215"><ele>204.0</ele><time>2026-04-26T07:19:53.999Z</time></trkpt><trkpt lat="43.1316572110637" lon="12.451561510142321"><ele>204.0</ele><time>2026-04-26T07:19:55.999Z</time></trkpt><trkpt lat="43.13167089243536" lon="12.451386298127515"><ele>204.0</ele><time>2026-04-26T07:19:58.999Z</time></trkpt><trkpt lat="43.131668335343164" lon="12.451300105068864"><ele>204.0</ele><time>2026-04-26T07:19:59.999Z</time></trkpt><trkpt lat="43.131636481746625" lon="12.45117643027241"><ele>204.0</ele><time>2026-04-26T07:20:01.999Z</time></trkpt><trkpt lat="43.131559133243" lon="12.451097648423861"><ele>204.0</ele><time>2026-04-26T07:20:03.999Z</time></trkpt><trkpt lat="43.131464440528795" lon="12.451008759777004"><ele>204.0</ele><time>2026-04-26T07:20:05.999Z</time></trkpt><trkpt lat="43.13140693142072" lon="12.450955457966428"><ele>204.0</ele><time>2026-04-26T07:20:06.999Z</time></trkpt><trkpt lat="43.13135216820998" lon="12.45089797893299"><ele>204.0</ele><time>2026-04-26T07:20:07.999Z</time></trkpt><trkpt lat="43.13126657170096" lon="12.450800036654194"><ele>204.0</ele><time>2026-04-26T07:20:09.999Z</time></trkpt><trkpt lat="43.13121442472549" lon="12.450728341376163"><ele>204.0</ele><time>2026-04-26T07:20:11.999Z</time></trkpt><trkpt lat="43.131136376055494" lon="12.450686085083621"><ele>204.0</ele><time>2026-04-26T07:20:13.999Z</time></trkpt><trkpt lat="43.13106903020648" lon="12.450660555601303"><ele>204.0</ele><time>2026-04-26T07:20:15.999Z</time></trkpt><trkpt lat="43.13104335047357" lon="12.450542364347045"><ele>204.0</ele><time>2026-04-26T07:20:18.999Z</time></trkpt><trkpt lat="43.13105569753961" lon="12.450377185903276"><ele>204.0</ele><time>2026-04-26T07:20:20.998Z</time></trkpt><trkpt lat="43.13106071647674" lon="12.450285226508278"><ele>204.0</ele><time>2026-04-26T07:20:21.998Z</time></trkpt><trkpt lat="43.13105906432048" lon="12.450195578188094"><ele>204.0</ele><time>2026-04-26T07:20:23.998Z</time></trkpt><trkpt lat="43.13098354332584" lon="12.45011539334105"><ele>204.0</ele><time>2026-04-26T07:20:26.998Z</time></trkpt><trkpt lat="43.13091169528923" lon="12.450118906728129"><ele>203.79999999999998</ele><time>2026-04-26T07:20:27.998Z</time></trkpt><trkpt lat="43.13088752610871" lon="12.450012988719207"><ele>203.6</ele><time>2026-04-26T07:20:29.998Z</time></trkpt><trkpt lat="43.13087575802701" lon="12.449818845069615"><ele>203.4</ele><time>2026-04-26T07:20:31.998Z</time></trkpt><trkpt lat="43.130892034294334" lon="12.4497076732389"><ele>203.2</ele><time>2026-04-26T07:20:32.998Z</time></trkpt><trkpt lat="43.13089267886156" lon="12.449576689639326"><ele>203.0</ele><time>2026-04-26T07:20:33.998Z</time></trkpt><trkpt lat="43.13089405491073" lon="12.44943215790542"><ele>203.0</ele><time>2026-04-26T07:20:34.998Z</time></trkpt><trkpt lat="43.130895427748214" lon="12.449287963529384"><ele>203.0</ele><time>2026-04-26T07:20:35.998Z</time></trkpt><trkpt lat="43.1308810087748" lon="12.449150899853544"><ele>203.0</ele><time>2026-04-26T07:20:36.998Z</time></trkpt><trkpt lat="43.13088487077172" lon="12.449016831307608"><ele>203.0</ele><time>2026-04-26T07:20:37.998Z</time></trkpt><trkpt lat="43.130884781541" lon="12.448891491688494"><ele>203.0</ele><time>2026-04-26T07:20:38.998Z</time></trkpt><trkpt lat="43.13088661593508" lon="12.448762888513306"><ele>202.66666666666669</ele><time>2026-04-26T07:20:39.998Z</time></trkpt><trkpt lat="43.1308857829635" lon="12.44863509878448"><ele>202.33333333333334</ele><time>2026-04-26T07:20:40.998Z</time></trkpt><trkpt lat="43.130886912991556" lon="12.448510472201567"><ele>202.0</ele><time>2026-04-26T07:20:41.998Z</time></trkpt><trkpt lat="43.13088974377033" lon="12.448394040233582"><ele>201.66666666666669</ele><time>2026-04-26T07:20:42.998Z</time></trkpt><trkpt lat="43.13088902606087" lon="12.448294866077543"><ele>201.33333333333334</ele><time>2026-04-26T07:20:43.998Z</time></trkpt><trkpt lat="43.130891935714835" lon="12.44817241312815"><ele>201.0</ele><time>2026-04-26T07:20:45.998Z</time></trkpt><trkpt lat="43.13098585951883" lon="12.448123302287376"><ele>201.0</ele><time>2026-04-26T07:20:50Z</time></trkpt><trkpt lat="43.13107230011057" lon="12.448128249799248"><ele>201.0</ele><time>2026-04-26T07:20:51Z</time></trkpt><trkpt lat="43.13115371968295" lon="12.448133052692475"><ele>201.0</ele><time>2026-04-26T07:20:52Z</time></trkpt><trkpt lat="43.13123662287872" lon="12.448116520453928"><ele>201.0</ele><time>2026-04-26T07:20:53Z</time></trkpt><trkpt lat="43.13134283231689" lon="12.448105304431094"><ele>201.0</ele><time>2026-04-26T07:20:54Z</time></trkpt><trkpt lat="43.13144907803627" lon="12.448096165940683"><ele>201.0</ele><time>2026-04-26T07:20:55Z</time></trkpt><trkpt lat="43.13154888717602" lon="12.448087308447736"><ele>201.0</ele><time>2026-04-26T07:20:56Z</time></trkpt><trkpt lat="43.13162956921199" lon="12.448084154025585"><ele>201.0</ele><time>2026-04-26T07:20:57Z</time></trkpt><trkpt lat="43.13170254341947" lon="12.448077397288552"><ele>201.0</ele><time>2026-04-26T07:20:58Z</time></trkpt><trkpt lat="43.131772845504905" lon="12.44806778896348"><ele>201.0</ele><time>2026-04-26T07:20:59Z</time></trkpt><trkpt lat="43.13185074949981" lon="12.44806095738399"><ele>201.0</ele><time>2026-04-26T07:21:00Z</time></trkpt><trkpt lat="43.131918455978" lon="12.448059187572373"><ele>200.8</ele><time>2026-04-26T07:21:01Z</time></trkpt><trkpt lat="43.13201071838835" lon="12.448077055359207"><ele>200.60000000000002</ele><time>2026-04-26T07:21:03Z</time></trkpt><trkpt lat="43.13208635934541" lon="12.44802899515418"><ele>200.4</ele><time>2026-04-26T07:21:06Z</time></trkpt><trkpt lat="43.13208443965275" lon="12.447846503019402"><ele>200.2</ele><time>2026-04-26T07:21:08Z</time></trkpt><trkpt lat="43.132064996743956" lon="12.447746688702239"><ele>200.0</ele><time>2026-04-26T07:21:09Z</time></trkpt><trkpt lat="43.13203755548046" lon="12.447630956664417"><ele>199.8</ele><time>2026-04-26T07:21:10Z</time></trkpt><trkpt lat="43.132009828105" lon="12.447502365920313"><ele>199.6</ele><time>2026-04-26T07:21:11Z</time></trkpt><trkpt lat="43.131984665643856" lon="12.447360543963716"><ele>199.39999999999998</ele><time>2026-04-26T07:21:12Z</time></trkpt><trkpt lat="43.1319586290466" lon="12.447227470019742"><ele>199.2</ele><time>2026-04-26T07:21:13Z</time></trkpt><trkpt lat="43.13193492100554" lon="12.447108250012956"><ele>199.0</ele><time>2026-04-26T07:21:14Z</time></trkpt><trkpt lat="43.131917326448196" lon="12.446994954244278"><ele>199.39999999999998</ele><time>2026-04-26T07:21:15Z</time></trkpt><trkpt lat="43.131906892798604" lon="12.446867497678983"><ele>199.8</ele><time>2026-04-26T07:21:16Z</time></trkpt><trkpt lat="43.13191195263648" lon="12.446729363659847"><ele>200.2</ele><time>2026-04-26T07:21:17Z</time></trkpt><trkpt lat="43.13193294255246" lon="12.446576920532486"><ele>200.60000000000002</ele><time>2026-04-26T07:21:18Z</time></trkpt><trkpt lat="43.131967098783186" lon="12.446416079977343"><ele>201.0</ele><time>2026-04-26T07:21:19Z</time></trkpt><trkpt lat="43.13200902214289" lon="12.446252050855382"><ele>201.25</ele><time>2026-04-26T07:21:20Z</time></trkpt><trkpt lat="43.1320560318566" lon="12.446077820551832"><ele>201.5</ele><time>2026-04-26T07:21:21Z</time></trkpt><trkpt lat="43.13210561054535" lon="12.445892072279324"><ele>201.75</ele><time>2026-04-26T07:21:22Z</time></trkpt><trkpt lat="43.13215591482518" lon="12.445695546381492"><ele>202.0</ele><time>2026-04-26T07:21:23Z</time></trkpt><trkpt lat="43.13220642313051" lon="12.445495771493144"><ele>201.33333333333331</ele><time>2026-04-26T07:21:24Z</time></trkpt><trkpt lat="43.132256331941" lon="12.445294964279748"><ele>200.66666666666669</ele><time>2026-04-26T07:21:25Z</time></trkpt><trkpt lat="43.13230750498883" lon="12.445094577895823"><ele>200.0</ele><time>2026-04-26T07:21:26Z</time></trkpt><trkpt lat="43.132359816340134" lon="12.444893086489301"><ele>200.0</ele><time>2026-04-26T07:21:27Z</time></trkpt><trkpt lat="43.132413195217296" lon="12.44469219735996"><ele>200.0</ele><time>2026-04-26T07:21:28Z</time></trkpt><trkpt lat="43.132464031385304" lon="12.444494179479062"><ele>200.0</ele><time>2026-04-26T07:21:29Z</time></trkpt><trkpt lat="43.132515486747245" lon="12.444297481665604"><ele>200.0</ele><time>2026-04-26T07:21:30Z</time></trkpt><trkpt lat="43.13256615098507" lon="12.444102988661472"><ele>200.0</ele><time>2026-04-26T07:21:31Z</time></trkpt><trkpt lat="43.13261528666552" lon="12.443916342037253"><ele>200.0</ele><time>2026-04-26T07:21:32Z</time></trkpt><trkpt lat="43.13266105899795" lon="12.443750645843553"><ele>200.0</ele><time>2026-04-26T07:21:33Z</time></trkpt><trkpt lat="43.13270150022128" lon="12.44359579284922"><ele>200.0</ele><time>2026-04-26T07:21:34Z</time></trkpt><trkpt lat="43.13273745023205" lon="12.443451727120832"><ele>200.0</ele><time>2026-04-26T07:21:35Z</time></trkpt><trkpt lat="43.13276527731041" lon="12.443318125894816"><ele>200.0</ele><time>2026-04-26T07:21:36Z</time></trkpt><trkpt lat="43.13278804477938" lon="12.443190198421693"><ele>200.0</ele><time>2026-04-26T07:21:37Z</time></trkpt><trkpt lat="43.13281556911514" lon="12.443065710746135"><ele>200.0</ele><time>2026-04-26T07:21:38Z</time></trkpt><trkpt lat="43.13285030458763" lon="12.442947273177419"><ele>200.00000000000003</ele><time>2026-04-26T07:21:38.999Z</time></trkpt><trkpt lat="43.13289604182368" lon="12.442846736178543"><ele>200.0</ele><time>2026-04-26T07:21:39.999Z</time></trkpt><trkpt lat="43.13295375002268" lon="12.442768058038649"><ele>200.0</ele><time>2026-04-26T07:21:40.999Z</time></trkpt><trkpt lat="43.13301821969458" lon="12.442697554768086"><ele>200.0</ele><time>2026-04-26T07:21:41.999Z</time></trkpt><trkpt lat="43.13308589754246" lon="12.442628350154449"><ele>200.00000000000003</ele><time>2026-04-26T07:21:42.999Z</time></trkpt><trkpt lat="43.133153978070595" lon="12.442556551445094"><ele>200.0</ele><time>2026-04-26T07:21:43.999Z</time></trkpt><trkpt lat="43.133216302327924" lon="12.442489915937715"><ele>199.83333333333334</ele><time>2026-04-26T07:21:44.999Z</time></trkpt><trkpt lat="43.1332777587052" lon="12.442422130125088"><ele>199.66666666666669</ele><time>2026-04-26T07:21:45.999Z</time></trkpt><trkpt lat="43.13333605878741" lon="12.442352563037478"><ele>199.5</ele><time>2026-04-26T07:21:46.999Z</time></trkpt><trkpt lat="43.13339166308427" lon="12.44228640193191"><ele>199.33333333333331</ele><time>2026-04-26T07:21:47.999Z</time></trkpt><trkpt lat="43.1334459301486" lon="12.442219425600593"><ele>199.16666666666666</ele><time>2026-04-26T07:21:48.999Z</time></trkpt><trkpt lat="43.13350270350473" lon="12.44215249846597"><ele>199.0</ele><time>2026-04-26T07:21:49.999Z</time></trkpt><trkpt lat="43.1335627253038" lon="12.442092937354722"><ele>198.99999999999997</ele><time>2026-04-26T07:21:50.999Z</time></trkpt><trkpt lat="43.133627960239785" lon="12.442043880321263"><ele>199.0</ele><time>2026-04-26T07:21:51.999Z</time></trkpt><trkpt lat="43.13370212682581" lon="12.442032153184485"><ele>199.0</ele><time>2026-04-26T07:21:52.999Z</time></trkpt><trkpt lat="43.13377303405332" lon="12.44206036594852"><ele>199.0</ele><time>2026-04-26T07:21:53.999Z</time></trkpt><trkpt lat="43.13382439800313" lon="12.442115166266365"><ele>199.0</ele><time>2026-04-26T07:21:54.999Z</time></trkpt><trkpt lat="43.13386623935395" lon="12.44218300258845"><ele>198.99999999999997</ele><time>2026-04-26T07:21:55.999Z</time></trkpt><trkpt lat="43.133914486030335" lon="12.442244678050915"><ele>199.0</ele><time>2026-04-26T07:21:56.999Z</time></trkpt><trkpt lat="43.13397887233971" lon="12.442322588338005"><ele>199.16666666666666</ele><time>2026-04-26T07:21:57.999Z</time></trkpt><trkpt lat="43.13404598475961" lon="12.442411165771595"><ele>199.33333333333331</ele><time>2026-04-26T07:21:58.999Z</time></trkpt><trkpt lat="43.134122342553525" lon="12.442500421074028"><ele>199.5</ele><time>2026-04-26T07:21:59.999Z</time></trkpt><trkpt lat="43.13418095851423" lon="12.442588660477698"><ele>199.66666666666669</ele><time>2026-04-26T07:22:00.999Z</time></trkpt><trkpt lat="43.13424316623288" lon="12.442659709269982"><ele>199.83333333333334</ele><time>2026-04-26T07:22:01.999Z</time></trkpt><trkpt lat="43.13430289638158" lon="12.44272918456255"><ele>200.0</ele><time>2026-04-26T07:22:02.999Z</time></trkpt><trkpt lat="43.134351495942724" lon="12.44280176133202"><ele>200.00000000000003</ele><time>2026-04-26T07:22:03.999Z</time></trkpt><trkpt lat="43.13440772453663" lon="12.442871816195733"><ele>200.0</ele><time>2026-04-26T07:22:04.999Z</time></trkpt><trkpt lat="43.13446228125784" lon="12.442942927691453"><ele>200.0</ele><time>2026-04-26T07:22:05.999Z</time></trkpt><trkpt lat="43.134513643913266" lon="12.443009417011384"><ele>200.0</ele><time>2026-04-26T07:22:06.999Z</time></trkpt><trkpt lat="43.13459159940536" lon="12.443118179904854"><ele>200.00000000000003</ele><time>2026-04-26T07:22:08.999Z</time></trkpt><trkpt lat="43.13463953624247" lon="12.443196832776593"><ele>200.0</ele><time>2026-04-26T07:22:10.999Z</time></trkpt><trkpt lat="43.13475177084407" lon="12.443148331940716"><ele>199.6</ele><time>2026-04-26T07:22:12.999Z</time></trkpt><trkpt lat="43.1348577498402" lon="12.443090620845481"><ele>199.2</ele><time>2026-04-26T07:22:14.999Z</time></trkpt><trkpt lat="43.1349619499361" lon="12.443088402646545"><ele>198.8</ele><time>2026-04-26T07:22:16.999Z</time></trkpt><trkpt lat="43.13504841845126" lon="12.443076952137586"><ele>198.4</ele><time>2026-04-26T07:22:18.999Z</time></trkpt><trkpt lat="43.13510299616355" lon="12.4430264854195"><ele>198.0</ele><time>2026-04-26T07:22:20.999Z</time></trkpt><trkpt lat="43.13515664491236" lon="12.44290213249632"><ele>200.60000000000002</ele><time>2026-04-26T07:22:22.998Z</time></trkpt><trkpt lat="43.13519841363385" lon="12.442731400233196"><ele>203.20000000000002</ele><time>2026-04-26T07:22:24.998Z</time></trkpt><trkpt lat="43.13522786587422" lon="12.442622138469426"><ele>205.8</ele><time>2026-04-26T07:22:25.998Z</time></trkpt><trkpt lat="43.135270704407404" lon="12.442522758285628"><ele>208.4</ele><time>2026-04-26T07:22:26.998Z</time></trkpt><trkpt lat="43.13533943590537" lon="12.442439426440767"><ele>211.0</ele><time>2026-04-26T07:22:27.998Z</time></trkpt><trkpt lat="43.13541210475081" lon="12.442372436740206"><ele>210.99999999999997</ele><time>2026-04-26T07:22:28.998Z</time></trkpt><trkpt lat="43.13547811591572" lon="12.44230480344036"><ele>211.0</ele><time>2026-04-26T07:22:29.998Z</time></trkpt><trkpt lat="43.13553665144653" lon="12.442248116303759"><ele>211.0</ele><time>2026-04-26T07:22:30.998Z</time></trkpt><trkpt lat="43.135594286653664" lon="12.442195297204776"><ele>211.0</ele><time>2026-04-26T07:22:31.998Z</time></trkpt><trkpt lat="43.135650291370446" lon="12.442147808371189"><ele>210.99999999999997</ele><time>2026-04-26T07:22:32.998Z</time></trkpt><trkpt lat="43.13574092912276" lon="12.442059042764937"><ele>211.0</ele><time>2026-04-26T07:22:34.998Z</time></trkpt><trkpt lat="43.13577364335911" lon="12.441979363612697"><ele>213.16666666666666</ele><time>2026-04-26T07:22:36.998Z</time></trkpt><trkpt lat="43.135787040584134" lon="12.441848937286037"><ele>215.33333333333331</ele><time>2026-04-26T07:22:38.998Z</time></trkpt><trkpt lat="43.135821320783855" lon="12.441775158361416"><ele>217.5</ele><time>2026-04-26T07:22:40.998Z</time></trkpt><trkpt lat="43.135765121473796" lon="12.441728569825498"><ele>219.66666666666669</ele><time>2026-04-26T07:22:42.998Z</time></trkpt><trkpt lat="43.13577393421225" lon="12.441824171443983"><ele>221.83333333333334</ele><time>2026-04-26T07:22:46.998Z</time></trkpt><trkpt lat="43.135807638122806" lon="12.441908802729477"><ele>224.0</ele><time>2026-04-26T07:22:47.998Z</time></trkpt><trkpt lat="43.135672165583664" lon="12.44209248553044"><ele>221.83333333333334</ele><time>2026-04-26T07:22:49.998Z</time></trkpt><trkpt lat="43.135621132353265" lon="12.442147414032684"><ele>219.66666666666669</ele><time>2026-04-26T07:22:50.998Z</time></trkpt><trkpt lat="43.13555709505312" lon="12.442197242044994"><ele>217.5</ele><time>2026-04-26T07:22:52Z</time></trkpt><trkpt lat="43.135496102666295" lon="12.442256944894025"><ele>215.33333333333331</ele><time>2026-04-26T07:22:53Z</time></trkpt><trkpt lat="43.13543642683276" lon="12.442325186482199"><ele>213.16666666666666</ele><time>2026-04-26T07:22:54Z</time></trkpt><trkpt lat="43.135372170216115" lon="12.44238980417446"><ele>211.0</ele><time>2026-04-26T07:22:55Z</time></trkpt><trkpt lat="43.1353026128713" lon="12.442455268363693"><ele>210.99999999999997</ele><time>2026-04-26T07:22:56Z</time></trkpt><trkpt lat="43.135243113613576" lon="12.442524833954103"><ele>211.0</ele><time>2026-04-26T07:22:57Z</time></trkpt><trkpt lat="43.13519645555309" lon="12.442604394174742"><ele>211.0</ele><time>2026-04-26T07:22:58Z</time></trkpt><trkpt lat="43.135164722186104" lon="12.44269215500321"><ele>211.0</ele><time>2026-04-26T07:22:59Z</time></trkpt><trkpt lat="43.1351486865197" lon="12.442776023309223"><ele>210.99999999999997</ele><time>2026-04-26T07:23:00Z</time></trkpt><trkpt lat="43.13513154923989" lon="12.442914035222007"><ele>211.0</ele><time>2026-04-26T07:23:02Z</time></trkpt><trkpt lat="43.13516050081837" lon="12.443026437725873"><ele>209.8</ele><time>2026-04-26T07:23:04Z</time></trkpt><trkpt lat="43.13523053631392" lon="12.443111275564679"><ele>208.60000000000002</ele><time>2026-04-26T07:23:06Z</time></trkpt><trkpt lat="43.13533130082369" lon="12.443174103932515"><ele>207.4</ele><time>2026-04-26T07:23:08Z</time></trkpt><trkpt lat="43.13542069677604" lon="12.443247639976265"><ele>206.2</ele><time>2026-04-26T07:23:10Z</time></trkpt><trkpt lat="43.13550704116593" lon="12.443345518239086"><ele>205.0</ele><time>2026-04-26T07:23:12Z</time></trkpt><trkpt lat="43.135552400183926" lon="12.4434120590592"><ele>204.99999999999997</ele><time>2026-04-26T07:23:13Z</time></trkpt><trkpt lat="43.13559808473307" lon="12.443490329431215"><ele>205.0</ele><time>2026-04-26T07:23:14Z</time></trkpt><trkpt lat="43.13565301650809" lon="12.443580090812643"><ele>205.0</ele><time>2026-04-26T07:23:15Z</time></trkpt><trkpt lat="43.135705852757155" lon="12.443666865913048"><ele>205.0</ele><time>2026-04-26T07:23:16Z</time></trkpt><trkpt lat="43.135763719004096" lon="12.443761876468434"><ele>204.99999999999997</ele><time>2026-04-26T07:23:17Z</time></trkpt><trkpt lat="43.135825396483824" lon="12.443858147118561"><ele>205.0</ele><time>2026-04-26T07:23:18Z</time></trkpt><trkpt lat="43.13587964525327" lon="12.443948335576975"><ele>206.66666666666666</ele><time>2026-04-26T07:23:19Z</time></trkpt><trkpt lat="43.135928073203296" lon="12.444018566699816"><ele>208.33333333333331</ele><time>2026-04-26T07:23:20Z</time></trkpt><trkpt lat="43.13596944987503" lon="12.444101301342295"><ele>210.0</ele><time>2026-04-26T07:23:22Z</time></trkpt><trkpt lat="43.136020856091946" lon="12.444210827319804"><ele>211.66666666666669</ele><time>2026-04-26T07:23:26Z</time></trkpt><trkpt lat="43.1360375203108" lon="12.444310069920371"><ele>213.33333333333334</ele><time>2026-04-26T07:23:27Z</time></trkpt><trkpt lat="43.13606918154624" lon="12.444391803821343"><ele>215.0</ele><time>2026-04-26T07:23:28Z</time></trkpt><trkpt lat="43.13614765500944" lon="12.444470351480325"><ele>215.00000000000003</ele><time>2026-04-26T07:23:30Z</time></trkpt><trkpt lat="43.13620845942399" lon="12.44456045073574"><ele>215.0</ele><time>2026-04-26T07:23:31.999Z</time></trkpt><trkpt lat="43.136300756479564" lon="12.444683565975502"><ele>215.0</ele><time>2026-04-26T07:23:33.999Z</time></trkpt><trkpt lat="43.13635193502714" lon="12.444756960034375"><ele>215.0</ele><time>2026-04-26T07:23:34.999Z</time></trkpt><trkpt lat="43.13640227194319" lon="12.444823623631068"><ele>215.00000000000003</ele><time>2026-04-26T07:23:35.999Z</time></trkpt><trkpt lat="43.136449100606434" lon="12.444889116280702"><ele>215.0</ele><time>2026-04-26T07:23:36.999Z</time></trkpt><trkpt lat="43.13649612427818" lon="12.444948998610027"><ele>213.4</ele><time>2026-04-26T07:23:37.999Z</time></trkpt><trkpt lat="43.13659733094341" lon="12.445045419719117"><ele>211.8</ele><time>2026-04-26T07:23:39.999Z</time></trkpt><trkpt lat="43.136670747313396" lon="12.445138211971054"><ele>210.2</ele><time>2026-04-26T07:23:41.999Z</time></trkpt><trkpt lat="43.13666611582033" lon="12.44524837952793"><ele>208.6</ele><time>2026-04-26T07:23:43.999Z</time></trkpt><trkpt lat="43.13674462971039" lon="12.445375024722626"><ele>207.0</ele><time>2026-04-26T07:23:45.999Z</time></trkpt><trkpt lat="43.13681263169271" lon="12.445425201092819"><ele>206.39999999999998</ele><time>2026-04-26T07:23:46.999Z</time></trkpt><trkpt lat="43.136895574692296" lon="12.44548069116807"><ele>205.79999999999998</ele><time>2026-04-26T07:23:47.999Z</time></trkpt><trkpt lat="43.13698834488381" lon="12.445542946496227"><ele>205.2</ele><time>2026-04-26T07:23:48.999Z</time></trkpt><trkpt lat="43.137085529053905" lon="12.445602459001684"><ele>204.6</ele><time>2026-04-26T07:23:49.999Z</time></trkpt><trkpt lat="43.13717015597148" lon="12.445655625639866"><ele>204.0</ele><time>2026-04-26T07:23:50.999Z</time></trkpt><trkpt lat="43.13724119893542" lon="12.44570881029894"><ele>204.0</ele><time>2026-04-26T07:23:51.999Z</time></trkpt><trkpt lat="43.13729913626992" lon="12.445764657192177"><ele>204.0</ele><time>2026-04-26T07:23:52.999Z</time></trkpt><trkpt lat="43.137380846057745" lon="12.445852160648636"><ele>204.0</ele><time>2026-04-26T07:23:54.999Z</time></trkpt><trkpt lat="43.137431985603044" lon="12.445913955153745"><ele>204.0</ele><time>2026-04-26T07:23:57.999Z</time></trkpt><trkpt lat="43.13755425665264" lon="12.445742338108198"><ele>204.0</ele><time>2026-04-26T07:23:58.999Z</time></trkpt><trkpt lat="43.137604331441835" lon="12.445666413417294"><ele>204.79999999999998</ele><time>2026-04-26T07:23:59.999Z</time></trkpt><trkpt lat="43.137661476765565" lon="12.445571428216962"><ele>205.6</ele><time>2026-04-26T07:24:00.999Z</time></trkpt><trkpt lat="43.13773050329656" lon="12.445467643857054"><ele>206.4</ele><time>2026-04-26T07:24:01.999Z</time></trkpt><trkpt lat="43.13780021632369" lon="12.445364435732648"><ele>207.2</ele><time>2026-04-26T07:24:02.999Z</time></trkpt><trkpt lat="43.13788039664366" lon="12.445244888025917"><ele>208.0</ele><time>2026-04-26T07:24:03.999Z</time></trkpt><trkpt lat="43.13796359074921" lon="12.445121275731196"><ele>209.5</ele><time>2026-04-26T07:24:04.999Z</time></trkpt><trkpt lat="43.13806118179048" lon="12.445008152996966"><ele>211.0</ele><time>2026-04-26T07:24:05.999Z</time></trkpt><trkpt lat="43.138153341627806" lon="12.444880836747027"><ele>212.5</ele><time>2026-04-26T07:24:06.999Z</time></trkpt><trkpt lat="43.13823519305989" lon="12.444738122708022"><ele>214.0</ele><time>2026-04-26T07:24:07.999Z</time></trkpt><trkpt lat="43.13833113497576" lon="12.444617050767027"><ele>218.0</ele><time>2026-04-26T07:24:08.999Z</time></trkpt><trkpt lat="43.13842954939978" lon="12.444485149585372"><ele>222.0</ele><time>2026-04-26T07:24:09.999Z</time></trkpt><trkpt lat="43.1385193519878" lon="12.444358872131481"><ele>226.0</ele><time>2026-04-26T07:24:10.999Z</time></trkpt><trkpt lat="43.13859578125102" lon="12.44424573932765"><ele>230.0</ele><time>2026-04-26T07:24:11.999Z</time></trkpt><trkpt lat="43.13866754323811" lon="12.444144012248254"><ele>230.0</ele><time>2026-04-26T07:24:12.998Z</time></trkpt><trkpt lat="43.13874271196323" lon="12.444046836763187"><ele>230.0</ele><time>2026-04-26T07:24:13.998Z</time></trkpt><trkpt lat="43.13882432035705" lon="12.443960249481561"><ele>230.0</ele><time>2026-04-26T07:24:14.998Z</time></trkpt><trkpt lat="43.138913048755114" lon="12.443878086938945"><ele>230.0</ele><time>2026-04-26T07:24:15.998Z</time></trkpt><trkpt lat="43.139004571893366" lon="12.443789298779421"><ele>230.0</ele><time>2026-04-26T07:24:16.998Z</time></trkpt><trkpt lat="43.13910496313733" lon="12.44371417697996"><ele>232.5</ele><time>2026-04-26T07:24:17.998Z</time></trkpt><trkpt lat="43.13919948570566" lon="12.443621723076394"><ele>235.0</ele><time>2026-04-26T07:24:18.998Z</time></trkpt><trkpt lat="43.139295336056485" lon="12.443520389435216"><ele>237.5</ele><time>2026-04-26T07:24:19.998Z</time></trkpt><trkpt lat="43.13940150956412" lon="12.443409816932212"><ele>240.0</ele><time>2026-04-26T07:24:20.998Z</time></trkpt><trkpt lat="43.139508751074004" lon="12.443287146359008"><ele>240.0</ele><time>2026-04-26T07:24:21.998Z</time></trkpt><trkpt lat="43.13960457045594" lon="12.443145592267895"><ele>240.0</ele><time>2026-04-26T07:24:22.998Z</time></trkpt><trkpt lat="43.13971995635046" lon="12.443019467415496"><ele>240.0</ele><time>2026-04-26T07:24:23.998Z</time></trkpt><trkpt lat="43.13983708917289" lon="12.442895085688992"><ele>240.0</ele><time>2026-04-26T07:24:24.998Z</time></trkpt><trkpt lat="43.13995984098048" lon="12.442776748411822"><ele>243.0</ele><time>2026-04-26T07:24:25.998Z</time></trkpt><trkpt lat="43.14009279396269" lon="12.442677110564722"><ele>246.0</ele><time>2026-04-26T07:24:26.998Z</time></trkpt><trkpt lat="43.14022500229477" lon="12.44258810329787"><ele>249.0</ele><time>2026-04-26T07:24:27.998Z</time></trkpt><trkpt lat="43.140355115291186" lon="12.442533099816654"><ele>252.0</ele><time>2026-04-26T07:24:28.998Z</time></trkpt><trkpt lat="43.14045858183063" lon="12.442460214313568"><ele>252.0</ele><time>2026-04-26T07:24:29.998Z</time></trkpt><trkpt lat="43.14053667616293" lon="12.44237005032959"><ele>252.0</ele><time>2026-04-26T07:24:30.998Z</time></trkpt><trkpt lat="43.140626318161765" lon="12.442300535407295"><ele>252.0</ele><time>2026-04-26T07:24:31.998Z</time></trkpt><trkpt lat="43.140722171355115" lon="12.442234197006815"><ele>252.0</ele><time>2026-04-26T07:24:32.998Z</time></trkpt><trkpt lat="43.14081966568436" lon="12.44221726938334"><ele>252.0</ele><time>2026-04-26T07:24:33.998Z</time></trkpt><trkpt lat="43.14088916788762" lon="12.442166978631166"><ele>253.66666666666666</ele><time>2026-04-26T07:24:34.998Z</time></trkpt><trkpt lat="43.14097190924313" lon="12.442142929988943"><ele>255.33333333333331</ele><time>2026-04-26T07:24:35.998Z</time></trkpt><trkpt lat="43.141058653804826" lon="12.442101685253137"><ele>257.0</ele><time>2026-04-26T07:24:36.998Z</time></trkpt><trkpt lat="43.14114162599968" lon="12.442045349832512"><ele>258.66666666666663</ele><time>2026-04-26T07:24:37.998Z</time></trkpt><trkpt lat="43.14121334126271" lon="12.441977685770832"><ele>260.3333333333333</ele><time>2026-04-26T07:24:38.998Z</time></trkpt><trkpt lat="43.14127629044594" lon="12.44189669276055"><ele>262.0</ele><time>2026-04-26T07:24:39.998Z</time></trkpt><trkpt lat="43.14135539744096" lon="12.4418376603671"><ele>262.0</ele><time>2026-04-26T07:24:40.998Z</time></trkpt><trkpt lat="43.14142258385918" lon="12.441750759628173"><ele>262.0</ele><time>2026-04-26T07:24:41.998Z</time></trkpt><trkpt lat="43.1414832947915" lon="12.441670508781689"><ele>262.0</ele><time>2026-04-26T07:24:42.998Z</time></trkpt><trkpt lat="43.141532590026145" lon="12.441608350406156"><ele>262.0</ele><time>2026-04-26T07:24:43.998Z</time></trkpt><trkpt lat="43.141601194106094" lon="12.441525798055473"><ele>262.0</ele><time>2026-04-26T07:24:45.998Z</time></trkpt><trkpt lat="43.14168714088831" lon="12.441424950261453"><ele>262.0</ele><time>2026-04-26T07:24:47.998Z</time></trkpt><trkpt lat="43.14173989066206" lon="12.441367554226481"><ele>264.8333333333333</ele><time>2026-04-26T07:24:48.998Z</time></trkpt><trkpt lat="43.141798701398166" lon="12.44130450310494"><ele>267.66666666666663</ele><time>2026-04-26T07:24:49.998Z</time></trkpt><trkpt lat="43.14184567866991" lon="12.441224946553108"><ele>270.5</ele><time>2026-04-26T07:24:50.998Z</time></trkpt><trkpt lat="43.14191687480009" lon="12.441173707975045"><ele>273.3333333333333</ele><time>2026-04-26T07:24:51.998Z</time></trkpt><trkpt lat="43.14196660002993" lon="12.441082416260434"><ele>276.1666666666667</ele><time>2026-04-26T07:24:52.998Z</time></trkpt><trkpt lat="43.14202732922167" lon="12.441005114500648"><ele>279.0</ele><time>2026-04-26T07:24:53.998Z</time></trkpt><trkpt lat="43.14208906072163" lon="12.44092760842516"><ele>279.1666666666667</ele><time>2026-04-26T07:24:54.998Z</time></trkpt><trkpt lat="43.14214759205929" lon="12.440862304603984"><ele>279.3333333333333</ele><time>2026-04-26T07:24:55.997Z</time></trkpt><trkpt lat="43.142204620246744" lon="12.440791396109491"><ele>279.5</ele><time>2026-04-26T07:24:57Z</time></trkpt><trkpt lat="43.142271404866285" lon="12.440741191380786"><ele>279.66666666666663</ele><time>2026-04-26T07:24:58Z</time></trkpt><trkpt lat="43.142329534544864" lon="12.440676990046887"><ele>279.8333333333333</ele><time>2026-04-26T07:24:59Z</time></trkpt><trkpt lat="43.14237814714363" lon="12.440598258798"><ele>280.0</ele><time>2026-04-26T07:25:00Z</time></trkpt><trkpt lat="43.14244602449644" lon="12.440539776163648"><ele>281.4</ele><time>2026-04-26T07:25:01Z</time></trkpt><trkpt lat="43.142512193709024" lon="12.440479940326632"><ele>282.8</ele><time>2026-04-26T07:25:02Z</time></trkpt><trkpt lat="43.142584268377014" lon="12.440408163820848"><ele>284.2</ele><time>2026-04-26T07:25:03Z</time></trkpt><trkpt lat="43.142664459566156" lon="12.440326069464971"><ele>285.6</ele><time>2026-04-26T07:25:04Z</time></trkpt><trkpt lat="43.142751339999" lon="12.440238832560434"><ele>287.0</ele><time>2026-04-26T07:25:05Z</time></trkpt><trkpt lat="43.14284541987134" lon="12.440142969289312"><ele>287.0</ele><time>2026-04-26T07:25:06Z</time></trkpt><trkpt lat="43.14294530523416" lon="12.440045087555413"><ele>287.0</ele><time>2026-04-26T07:25:07Z</time></trkpt><trkpt lat="43.14304672659888" lon="12.439943722985127"><ele>287.0</ele><time>2026-04-26T07:25:08Z</time></trkpt><trkpt lat="43.14315066489755" lon="12.439840266968774"><ele>287.0</ele><time>2026-04-26T07:25:09Z</time></trkpt><trkpt lat="43.143256181176405" lon="12.439737024548338"><ele>287.75</ele><time>2026-04-26T07:25:10Z</time></trkpt><trkpt lat="43.14336023193508" lon="12.439634379324286"><ele>288.5</ele><time>2026-04-26T07:25:11Z</time></trkpt><trkpt lat="43.14345747594494" lon="12.43953854484177"><ele>289.25</ele><time>2026-04-26T07:25:12Z</time></trkpt><trkpt lat="43.143549516972165" lon="12.43944898583549"><ele>290.0</ele><time>2026-04-26T07:25:13Z</time></trkpt><trkpt lat="43.14362974310931" lon="12.439368841673177"><ele>290.0</ele><time>2026-04-26T07:25:14Z</time></trkpt><trkpt lat="43.14370379613375" lon="12.439294405255415"><ele>290.0</ele><time>2026-04-26T07:25:15Z</time></trkpt><trkpt lat="43.14376866971609" lon="12.439223927193847"><ele>290.0</ele><time>2026-04-26T07:25:16Z</time></trkpt><trkpt lat="43.14382152561793" lon="12.43915301405331"><ele>290.0</ele><time>2026-04-26T07:25:17Z</time></trkpt><trkpt lat="43.14387904954536" lon="12.439081401586554"><ele>290.0</ele><time>2026-04-26T07:25:18Z</time></trkpt><trkpt lat="43.14394203540933" lon="12.438985510558691"><ele>290.0</ele><time>2026-04-26T07:25:19Z</time></trkpt><trkpt lat="43.144005569795716" lon="12.438882419949309"><ele>293.0</ele><time>2026-04-26T07:25:20Z</time></trkpt><trkpt lat="43.144074892618775" lon="12.438779856244574"><ele>296.0</ele><time>2026-04-26T07:25:21Z</time></trkpt><trkpt lat="43.14414391681607" lon="12.438670689962043"><ele>299.0</ele><time>2026-04-26T07:25:22Z</time></trkpt><trkpt lat="43.144212910888236" lon="12.438568526892533"><ele>302.0</ele><time>2026-04-26T07:25:23Z</time></trkpt><trkpt lat="43.14427480076803" lon="12.438471243691692"><ele>305.0</ele><time>2026-04-26T07:25:24Z</time></trkpt><trkpt lat="43.14433923505818" lon="12.438378254564558"><ele>305.0</ele><time>2026-04-26T07:25:25Z</time></trkpt><trkpt lat="43.144412353434404" lon="12.438297699057456"><ele>305.0</ele><time>2026-04-26T07:25:26Z</time></trkpt><trkpt lat="43.144475236131534" lon="12.438228637541368"><ele>305.0</ele><time>2026-04-26T07:25:27Z</time></trkpt><trkpt lat="43.14453578825567" lon="12.438159840565815"><ele>305.0</ele><time>2026-04-26T07:25:28Z</time></trkpt><trkpt lat="43.14458505803397" lon="12.438084997225529"><ele>305.0</ele><time>2026-04-26T07:25:29Z</time></trkpt><trkpt lat="43.14464075397486" lon="12.437953377183176"><ele>305.0</ele><time>2026-04-26T07:25:31Z</time></trkpt><trkpt lat="43.14467853789406" lon="12.437872911172848"><ele>306.0</ele><time>2026-04-26T07:25:32Z</time></trkpt><trkpt lat="43.14471823632973" lon="12.437786207932414"><ele>307.0</ele><time>2026-04-26T07:25:33Z</time></trkpt><trkpt lat="43.14476040394865" lon="12.437709538612273"><ele>308.0</ele><time>2026-04-26T07:25:34Z</time></trkpt><trkpt lat="43.14480761477989" lon="12.437635082968288"><ele>309.0</ele><time>2026-04-26T07:25:35Z</time></trkpt><trkpt lat="43.14485877193109" lon="12.437562804533341"><ele>310.0</ele><time>2026-04-26T07:25:36Z</time></trkpt><trkpt lat="43.144912187769904" lon="12.437487902702854"><ele>311.0</ele><time>2026-04-26T07:25:37Z</time></trkpt><trkpt lat="43.14495572986119" lon="12.437411430765804"><ele>312.0</ele><time>2026-04-26T07:25:38Z</time></trkpt><trkpt lat="43.14501157873442" lon="12.43727521595927"><ele>314.3333333333333</ele><time>2026-04-26T07:25:40Z</time></trkpt><trkpt lat="43.14506796273196" lon="12.437131012289914"><ele>316.6666666666667</ele><time>2026-04-26T07:25:42Z</time></trkpt><trkpt lat="43.145101996051196" lon="12.437054209610817"><ele>319.0</ele><time>2026-04-26T07:25:43Z</time></trkpt><trkpt lat="43.14514013104118" lon="12.436958591868088"><ele>321.33333333333337</ele><time>2026-04-26T07:25:44Z</time></trkpt><trkpt lat="43.1451794138814" lon="12.436860080681189"><ele>323.6666666666667</ele><time>2026-04-26T07:25:45Z</time></trkpt><trkpt lat="43.145216399836315" lon="12.436769357908057"><ele>326.0</ele><time>2026-04-26T07:25:45.999Z</time></trkpt><trkpt lat="43.14525089302144" lon="12.436689382239864"><ele>326.0</ele><time>2026-04-26T07:25:46.999Z</time></trkpt><trkpt lat="43.14528432834831" lon="12.436573070903293"><ele>326.0</ele><time>2026-04-26T07:25:48.999Z</time></trkpt><trkpt lat="43.14527260343056" lon="12.436452277429135"><ele>326.0</ele><time>2026-04-26T07:25:50.999Z</time></trkpt><trkpt lat="43.145207680209424" lon="12.4364197024025"><ele>326.0</ele><time>2026-04-26T07:25:51.999Z</time></trkpt><trkpt lat="43.14510592239431" lon="12.436381605036257"><ele>326.0</ele><time>2026-04-26T07:25:53.999Z</time></trkpt><trkpt lat="43.14504536234252" lon="12.436348267229594"><ele>326.0</ele><time>2026-04-26T07:25:54.999Z</time></trkpt><trkpt lat="43.14497362937508" lon="12.436309482222075"><ele>326.33333333333337</ele><time>2026-04-26T07:25:55.999Z</time></trkpt><trkpt lat="43.14490324494977" lon="12.43626787552735"><ele>326.6666666666667</ele><time>2026-04-26T07:25:56.999Z</time></trkpt><trkpt lat="43.14484081216516" lon="12.43622863425936"><ele>327.0</ele><time>2026-04-26T07:25:57.999Z</time></trkpt><trkpt lat="43.14474931972443" lon="12.436169032243955"><ele>327.3333333333333</ele><time>2026-04-26T07:25:59.999Z</time></trkpt><trkpt lat="43.14465696770729" lon="12.436107832502323"><ele>327.66666666666663</ele><time>2026-04-26T07:26:01.999Z</time></trkpt><trkpt lat="43.144576341895814" lon="12.436053123677494"><ele>328.0</ele><time>2026-04-26T07:26:03.999Z</time></trkpt><trkpt lat="43.1445106003114" lon="12.436008514604936"><ele>327.0</ele><time>2026-04-26T07:26:05.999Z</time></trkpt><trkpt lat="43.14443370408128" lon="12.435952947627484"><ele>326.0</ele><time>2026-04-26T07:26:08.999Z</time></trkpt><trkpt lat="43.144388248063734" lon="12.435884396320724"><ele>325.0</ele><time>2026-04-26T07:26:12.999Z</time></trkpt><trkpt lat="43.144434237753835" lon="12.435951282352194"><ele>324.0</ele><time>2026-04-26T07:26:40.998Z</time></trkpt><trkpt lat="43.144500807633754" lon="12.436022003133356"><ele>323.0</ele><time>2026-04-26T07:26:42.998Z</time></trkpt><trkpt lat="43.14458783952886" lon="12.43609936068528"><ele>322.0</ele><time>2026-04-26T07:26:43.998Z</time></trkpt><trkpt lat="43.1446631094019" lon="12.43615769022673"><ele>322.0</ele><time>2026-04-26T07:26:44.998Z</time></trkpt><trkpt lat="43.144735830027095" lon="12.436203279821074"><ele>322.0</ele><time>2026-04-26T07:26:45.998Z</time></trkpt><trkpt lat="43.144801531812654" lon="12.43625035705674"><ele>322.0</ele><time>2026-04-26T07:26:46.998Z</time></trkpt><trkpt lat="43.14486360472371" lon="12.436290616225378"><ele>322.0</ele><time>2026-04-26T07:26:47.998Z</time></trkpt><trkpt lat="43.1449201292929" lon="12.436328787758958"><ele>322.0</ele><time>2026-04-26T07:26:48.998Z</time></trkpt><trkpt lat="43.14502776516732" lon="12.436391746640963"><ele>322.0</ele><time>2026-04-26T07:26:50.998Z</time></trkpt><trkpt lat="43.145127215130856" lon="12.436441954456422"><ele>322.66666666666663</ele><time>2026-04-26T07:26:52.998Z</time></trkpt><trkpt lat="43.14519538754841" lon="12.43646770130554"><ele>323.3333333333333</ele><time>2026-04-26T07:26:55.998Z</time></trkpt><trkpt lat="43.14525522796067" lon="12.43651243548131"><ele>324.0</ele><time>2026-04-26T07:27:00.998Z</time></trkpt><trkpt lat="43.145264090180326" lon="12.436616573398549"><ele>324.6666666666667</ele><time>2026-04-26T07:27:27Z</time></trkpt><trkpt lat="43.145210639878904" lon="12.43670106657362"><ele>325.33333333333337</ele><time>2026-04-26T07:27:29Z</time></trkpt><trkpt lat="43.14518338497346" lon="12.436798659378288"><ele>326.0</ele><time>2026-04-26T07:27:31Z</time></trkpt><trkpt lat="43.145149291105234" lon="12.436896595097787"><ele>326.0</ele><time>2026-04-26T07:27:33Z</time></trkpt><trkpt lat="43.14510861802779" lon="12.436985783851311"><ele>326.0</ele><time>2026-04-26T07:27:35Z</time></trkpt><trkpt lat="43.14506605709096" lon="12.437098877522283"><ele>326.0</ele><time>2026-04-26T07:27:37Z</time></trkpt><trkpt lat="43.14502043015555" lon="12.437204932532252"><ele>326.0</ele><time>2026-04-26T07:27:39Z</time></trkpt><trkpt lat="43.14497425522523" lon="12.43731357134291"><ele>326.0</ele><time>2026-04-26T07:27:41Z</time></trkpt><trkpt lat="43.144922917932774" lon="12.43742846707965"><ele>326.0</ele><time>2026-04-26T07:27:43Z</time></trkpt><trkpt lat="43.14486392970787" lon="12.437523718816541"><ele>323.2</ele><time>2026-04-26T07:27:45Z</time></trkpt><trkpt lat="43.14477055907364" lon="12.437623073892487"><ele>320.40000000000003</ele><time>2026-04-26T07:27:46.999Z</time></trkpt><trkpt lat="43.14470409303146" lon="12.437732259762381"><ele>317.6</ele><time>2026-04-26T07:27:48.999Z</time></trkpt><trkpt lat="43.14466909378886" lon="12.437846915723688"><ele>314.8</ele><time>2026-04-26T07:27:50.999Z</time></trkpt><trkpt lat="43.144621877411694" lon="12.437948637272934"><ele>312.0</ele><time>2026-04-26T07:27:52.999Z</time></trkpt><trkpt lat="43.144557868255" lon="12.438073249689532"><ele>310.6</ele><time>2026-04-26T07:27:54.999Z</time></trkpt><trkpt lat="43.14448796509439" lon="12.438178721249423"><ele>309.2</ele><time>2026-04-26T07:27:56.999Z</time></trkpt><trkpt lat="43.144391356780226" lon="12.438286288022484"><ele>307.8</ele><time>2026-04-26T07:27:58.999Z</time></trkpt><trkpt lat="43.14434199127013" lon="12.4383453484309"><ele>306.4</ele><time>2026-04-26T07:27:59.999Z</time></trkpt><trkpt lat="43.144295161007435" lon="12.438405235435821"><ele>305.0</ele><time>2026-04-26T07:28:00.999Z</time></trkpt><trkpt lat="43.14421102255523" lon="12.438523768441181"><ele>305.0</ele><time>2026-04-26T07:28:02.999Z</time></trkpt><trkpt lat="43.14413885601206" lon="12.438639189894841"><ele>305.0</ele><time>2026-04-26T07:28:04.999Z</time></trkpt><trkpt lat="43.14406582844261" lon="12.438748787070066"><ele>305.0</ele><time>2026-04-26T07:28:06.999Z</time></trkpt><trkpt lat="43.143984115692575" lon="12.438870038042683"><ele>305.0</ele><time>2026-04-26T07:28:08.999Z</time></trkpt><trkpt lat="43.14390201118311" lon="12.438994907118772"><ele>302.0</ele><time>2026-04-26T07:28:10.999Z</time></trkpt><trkpt lat="43.14382860343668" lon="12.43910268360247"><ele>299.0</ele><time>2026-04-26T07:28:12.999Z</time></trkpt><trkpt lat="43.143761917939415" lon="12.439203098891136"><ele>296.0</ele><time>2026-04-26T07:28:14.999Z</time></trkpt><trkpt lat="43.14369762742272" lon="12.43925920272425"><ele>293.0</ele><time>2026-04-26T07:28:16.999Z</time></trkpt><trkpt lat="43.14364215458574" lon="12.439311752942363"><ele>290.0</ele><time>2026-04-26T07:28:20.999Z</time></trkpt><trkpt lat="43.14354967660466" lon="12.439400970909285"><ele>290.0</ele><time>2026-04-26T07:29:27Z</time></trkpt><trkpt lat="43.143494116483886" lon="12.439455998709594"><ele>290.0</ele><time>2026-04-26T07:29:28Z</time></trkpt><trkpt lat="43.143441088586336" lon="12.439534373818537"><ele>290.0</ele><time>2026-04-26T07:29:29Z</time></trkpt><trkpt lat="43.14337637462103" lon="12.439594692815685"><ele>290.0</ele><time>2026-04-26T07:29:30Z</time></trkpt><trkpt lat="43.143309175243466" lon="12.439656783137742"><ele>290.0</ele><time>2026-04-26T07:29:31Z</time></trkpt><trkpt lat="43.14324627090983" lon="12.439721722145155"><ele>290.0</ele><time>2026-04-26T07:29:32Z</time></trkpt><trkpt lat="43.143185158993155" lon="12.439785437930626"><ele>289.5</ele><time>2026-04-26T07:29:33Z</time></trkpt><trkpt lat="43.14312152789651" lon="12.439846672637227"><ele>289.0</ele><time>2026-04-26T07:29:34Z</time></trkpt><trkpt lat="43.143057291766766" lon="12.43990937743256"><ele>288.5</ele><time>2026-04-26T07:29:35Z</time></trkpt><trkpt lat="43.14299486648164" lon="12.439970656528393"><ele>288.0</ele><time>2026-04-26T07:29:36Z</time></trkpt><trkpt lat="43.14293354758074" lon="12.440031591610428"><ele>287.5</ele><time>2026-04-26T07:29:37Z</time></trkpt><trkpt lat="43.142869067542655" lon="12.440095128271096"><ele>287.0</ele><time>2026-04-26T07:29:38Z</time></trkpt><trkpt lat="43.142803958992815" lon="12.440160082793847"><ele>287.0</ele><time>2026-04-26T07:29:39Z</time></trkpt><trkpt lat="43.14273781200185" lon="12.44022676925758"><ele>287.0</ele><time>2026-04-26T07:29:40Z</time></trkpt><trkpt lat="43.14266890088982" lon="12.440294595518182"><ele>287.0</ele><time>2026-04-26T07:29:41Z</time></trkpt><trkpt lat="43.142600251537566" lon="12.44036321991265"><ele>287.0</ele><time>2026-04-26T07:29:42Z</time></trkpt><trkpt lat="43.1425324162153" lon="12.440430962520242"><ele>287.0</ele><time>2026-04-26T07:29:43Z</time></trkpt><trkpt lat="43.14246066962357" lon="12.440498711952618"><ele>287.0</ele><time>2026-04-26T07:29:44Z</time></trkpt><trkpt lat="43.14239500952826" lon="12.440570966788776"><ele>285.83333333333337</ele><time>2026-04-26T07:29:45Z</time></trkpt><trkpt lat="43.14232613961148" lon="12.44064145103788"><ele>284.6666666666667</ele><time>2026-04-26T07:29:46Z</time></trkpt><trkpt lat="43.1422618727447" lon="12.440713309436648"><ele>283.5</ele><time>2026-04-26T07:29:47Z</time></trkpt><trkpt lat="43.14220251450537" lon="12.440783566710394"><ele>282.3333333333333</ele><time>2026-04-26T07:29:48Z</time></trkpt><trkpt lat="43.142147111018566" lon="12.440850099172383"><ele>281.16666666666663</ele><time>2026-04-26T07:29:49Z</time></trkpt><trkpt lat="43.142096209331164" lon="12.440913767579156"><ele>280.0</ele><time>2026-04-26T07:29:50Z</time></trkpt><trkpt lat="43.1420023145752" lon="12.441022093403213"><ele>280.0</ele><time>2026-04-26T07:29:51.999Z</time></trkpt><trkpt lat="43.14192538992175" lon="12.441123135938819"><ele>280.0</ele><time>2026-04-26T07:29:53.999Z</time></trkpt><trkpt lat="43.141858232907495" lon="12.441200021295288"><ele>280.0</ele><time>2026-04-26T07:29:55.999Z</time></trkpt><trkpt lat="43.141773617719124" lon="12.441282944853702"><ele>280.0</ele><time>2026-04-26T07:29:57.999Z</time></trkpt><trkpt lat="43.141685319366346" lon="12.44136100007206"><ele>280.0</ele><time>2026-04-26T07:29:59.999Z</time></trkpt><trkpt lat="43.14160677991991" lon="12.441455672298066"><ele>276.4</ele><time>2026-04-26T07:30:01.999Z</time></trkpt><trkpt lat="43.14152499373979" lon="12.44156100832598"><ele>272.8</ele><time>2026-04-26T07:30:03.999Z</time></trkpt><trkpt lat="43.1414491808572" lon="12.44166247483134"><ele>269.2</ele><time>2026-04-26T07:30:05.999Z</time></trkpt><trkpt lat="43.141359322223295" lon="12.441773342964689"><ele>265.6</ele><time>2026-04-26T07:30:07.999Z</time></trkpt><trkpt lat="43.14131111335461" lon="12.441834383678843"><ele>262.0</ele><time>2026-04-26T07:30:08.999Z</time></trkpt><trkpt lat="43.141259058066964" lon="12.441894109822302"><ele>262.0</ele><time>2026-04-26T07:30:09.999Z</time></trkpt><trkpt lat="43.1412089940885" lon="12.441953116057448"><ele>262.0</ele><time>2026-04-26T07:30:10.999Z</time></trkpt><trkpt lat="43.14115095203149" lon="12.442010090663375"><ele>262.0</ele><time>2026-04-26T07:30:11.999Z</time></trkpt><trkpt lat="43.141091520275324" lon="12.4420595170493"><ele>262.0</ele><time>2026-04-26T07:30:12.999Z</time></trkpt><trkpt lat="43.141027432263634" lon="12.442097689641992"><ele>262.0</ele><time>2026-04-26T07:30:13.999Z</time></trkpt><trkpt lat="43.14091374796354" lon="12.442144408265607"><ele>262.0</ele><time>2026-04-26T07:30:15.999Z</time></trkpt><trkpt lat="43.14079367449378" lon="12.442183761868948"><ele>262.0</ele><time>2026-04-26T07:30:17.999Z</time></trkpt><trkpt lat="43.14072667101707" lon="12.44221985988009"><ele>262.0</ele><time>2026-04-26T07:30:18.999Z</time></trkpt><trkpt lat="43.140657611033106" lon="12.44226717844393"><ele>262.0</ele><time>2026-04-26T07:30:19.999Z</time></trkpt><trkpt lat="43.140591185110736" lon="12.442317697639147"><ele>262.0</ele><time>2026-04-26T07:30:20.999Z</time></trkpt><trkpt lat="43.1405300938815" lon="12.44236753632817"><ele>262.0</ele><time>2026-04-26T07:30:21.999Z</time></trkpt><trkpt lat="43.14047155324946" lon="12.442410210715902"><ele>262.0</ele><time>2026-04-26T07:30:22.999Z</time></trkpt><trkpt lat="43.14041468544479" lon="12.442453774664425"><ele>262.0</ele><time>2026-04-26T07:30:23.999Z</time></trkpt><trkpt lat="43.1403541234894" lon="12.442492577485126"><ele>260.3333333333333</ele><time>2026-04-26T07:30:24.999Z</time></trkpt><trkpt lat="43.14029403383468" lon="12.442538360053353"><ele>258.66666666666663</ele><time>2026-04-26T07:30:25.999Z</time></trkpt><trkpt lat="43.140225321562504" lon="12.442559798416706"><ele>257.0</ele><time>2026-04-26T07:30:26.999Z</time></trkpt><trkpt lat="43.140163845294616" lon="12.442615280077336"><ele>255.33333333333331</ele><time>2026-04-26T07:30:27.999Z</time></trkpt><trkpt lat="43.140098621284174" lon="12.442664770180794"><ele>253.66666666666666</ele><time>2026-04-26T07:30:28.999Z</time></trkpt><trkpt lat="43.14002346401811" lon="12.442709336351575"><ele>252.0</ele><time>2026-04-26T07:30:29.999Z</time></trkpt><trkpt lat="43.13994565120498" lon="12.442775303466727"><ele>250.0</ele><time>2026-04-26T07:30:30.999Z</time></trkpt><trkpt lat="43.13987042729186" lon="12.442833298868104"><ele>248.0</ele><time>2026-04-26T07:30:31.999Z</time></trkpt><trkpt lat="43.139802410018284" lon="12.442894817899056"><ele>246.0</ele><time>2026-04-26T07:30:32.999Z</time></trkpt><trkpt lat="43.13973645763126" lon="12.442960629434257"><ele>244.0</ele><time>2026-04-26T07:30:33.999Z</time></trkpt><trkpt lat="43.13967068084032" lon="12.443026284166578"><ele>242.0</ele><time>2026-04-26T07:30:34.999Z</time></trkpt><trkpt lat="43.139613671446504" lon="12.443101782206336"><ele>240.0</ele><time>2026-04-26T07:30:35.998Z</time></trkpt><trkpt lat="43.13955629737683" lon="12.443168824546296"><ele>240.0</ele><time>2026-04-26T07:30:36.998Z</time></trkpt><trkpt lat="43.13950007370536" lon="12.443236250565649"><ele>240.0</ele><time>2026-04-26T07:30:37.998Z</time></trkpt><trkpt lat="43.1394424997021" lon="12.443303811503768"><ele>240.0</ele><time>2026-04-26T07:30:38.998Z</time></trkpt><trkpt lat="43.13938934845651" lon="12.443365125691068"><ele>240.0</ele><time>2026-04-26T07:30:39.998Z</time></trkpt><trkpt lat="43.13933224679782" lon="12.443427038367075"><ele>240.0</ele><time>2026-04-26T07:30:40.998Z</time></trkpt><trkpt lat="43.13927343181998" lon="12.443487229171273"><ele>240.0</ele><time>2026-04-26T07:30:41.998Z</time></trkpt><trkpt lat="43.13921442927912" lon="12.443545898232856"><ele>240.0</ele><time>2026-04-26T07:30:42.998Z</time></trkpt><trkpt lat="43.139157399514325" lon="12.443605172871642"><ele>240.0</ele><time>2026-04-26T07:30:43.998Z</time></trkpt><trkpt lat="43.139106530624694" lon="12.443658259191178"><ele>240.0</ele><time>2026-04-26T07:30:44.998Z</time></trkpt><trkpt lat="43.13901881741826" lon="12.443750114665043"><ele>240.0</ele><time>2026-04-26T07:30:46.998Z</time></trkpt><trkpt lat="43.13894828308133" lon="12.443796490372806"><ele>240.0</ele><time>2026-04-26T07:30:48.998Z</time></trkpt><trkpt lat="43.138876264922345" lon="12.44386537475023"><ele>240.0</ele><time>2026-04-26T07:30:51.998Z</time></trkpt><trkpt lat="43.13882522954497" lon="12.443918495934891"><ele>240.0</ele><time>2026-04-26T07:33:33Z</time></trkpt><trkpt lat="43.13877064114276" lon="12.443976464203212"><ele>238.33333333333334</ele><time>2026-04-26T07:33:35Z</time></trkpt><trkpt lat="43.138730213616235" lon="12.44404290051864"><ele>236.66666666666669</ele><time>2026-04-26T07:33:36Z</time></trkpt><trkpt lat="43.13867894030422" lon="12.44410105150216"><ele>235.0</ele><time>2026-04-26T07:33:37Z</time></trkpt><trkpt lat="43.13862562129388" lon="12.444170759221628"><ele>233.33333333333334</ele><time>2026-04-26T07:33:38Z</time></trkpt><trkpt lat="43.13856351775341" lon="12.444255778745426"><ele>231.66666666666669</ele><time>2026-04-26T07:33:39Z</time></trkpt><trkpt lat="43.13849156194197" lon="12.44436085602334"><ele>230.0</ele><time>2026-04-26T07:33:40Z</time></trkpt><trkpt lat="43.13841465824856" lon="12.444474722183763"><ele>230.0</ele><time>2026-04-26T07:33:41Z</time></trkpt><trkpt lat="43.13833363763143" lon="12.444587653679038"><ele>230.0</ele><time>2026-04-26T07:33:42Z</time></trkpt><trkpt lat="43.13824710708207" lon="12.444697784278258"><ele>230.0</ele><time>2026-04-26T07:33:43Z</time></trkpt><trkpt lat="43.13816211506483" lon="12.444808374234855"><ele>230.0</ele><time>2026-04-26T07:33:43.999Z</time></trkpt><trkpt lat="43.1380782007342" lon="12.444922661004277"><ele>226.0</ele><time>2026-04-26T07:33:44.999Z</time></trkpt><trkpt lat="43.13799302403262" lon="12.445040467073623"><ele>222.0</ele><time>2026-04-26T07:33:45.999Z</time></trkpt><trkpt lat="43.137906726556984" lon="12.44516297536868"><ele>218.0</ele><time>2026-04-26T07:33:46.999Z</time></trkpt><trkpt lat="43.13782236445202" lon="12.445290757385928"><ele>214.0</ele><time>2026-04-26T07:33:47.999Z</time></trkpt><trkpt lat="43.137738864158386" lon="12.445413717814983"><ele>212.79999999999998</ele><time>2026-04-26T07:33:48.999Z</time></trkpt><trkpt lat="43.13766076163916" lon="12.445530962592322"><ele>211.59999999999997</ele><time>2026-04-26T07:33:49.999Z</time></trkpt><trkpt lat="43.137587738072305" lon="12.445636475870618"><ele>210.4</ele><time>2026-04-26T07:33:50.999Z</time></trkpt><trkpt lat="43.137529030205606" lon="12.445720444220417"><ele>209.2</ele><time>2026-04-26T07:33:51.999Z</time></trkpt><trkpt lat="43.13746531048156" lon="12.445811741812456"><ele>208.0</ele><time>2026-04-26T07:33:53.999Z</time></trkpt><trkpt lat="43.137411610854734" lon="12.445884725932594"><ele>208.0</ele><time>2026-04-26T07:33:56.999Z</time></trkpt><trkpt lat="43.13751940966983" lon="12.44607259063235"><ele>208.0</ele><time>2026-04-26T07:33:58.999Z</time></trkpt><trkpt lat="43.13759655340555" lon="12.446188296985294"><ele>208.0</ele><time>2026-04-26T07:34:00.999Z</time></trkpt><trkpt lat="43.137671720422084" lon="12.446288477087228"><ele>208.0</ele><time>2026-04-26T07:34:02.999Z</time></trkpt><trkpt lat="43.13771648115338" lon="12.44636035298748"><ele>207.60000000000002</ele><time>2026-04-26T07:34:03.999Z</time></trkpt><trkpt lat="43.13776263435986" lon="12.446447960207886"><ele>207.20000000000002</ele><time>2026-04-26T07:34:04.999Z</time></trkpt><trkpt lat="43.1378139128349" lon="12.446546742020642"><ele>206.8</ele><time>2026-04-26T07:34:05.999Z</time></trkpt><trkpt lat="43.13787264895234" lon="12.446657391105996"><ele>206.4</ele><time>2026-04-26T07:34:06.999Z</time></trkpt><trkpt lat="43.13794396767748" lon="12.4467767877505"><ele>206.0</ele><time>2026-04-26T07:34:07.999Z</time></trkpt><trkpt lat="43.13802803963973" lon="12.446900858302552"><ele>206.0</ele><time>2026-04-26T07:34:08.999Z</time></trkpt><trkpt lat="43.138125095466904" lon="12.447030563020796"><ele>206.0</ele><time>2026-04-26T07:34:09.999Z</time></trkpt><trkpt lat="43.13822583435422" lon="12.447163102388053"><ele>206.0</ele><time>2026-04-26T07:34:10.999Z</time></trkpt><trkpt lat="43.13833403885426" lon="12.447305254625045"><ele>206.0</ele><time>2026-04-26T07:34:11.999Z</time></trkpt><trkpt lat="43.13844780367898" lon="12.447455712452832"><ele>206.0</ele><time>2026-04-26T07:34:12.999Z</time></trkpt><trkpt lat="43.138565608421054" lon="12.447610778180291"><ele>206.0</ele><time>2026-04-26T07:34:13.999Z</time></trkpt><trkpt lat="43.138680477679344" lon="12.44776213385747"><ele>206.0</ele><time>2026-04-26T07:34:14.999Z</time></trkpt><trkpt lat="43.138798649098895" lon="12.447920125728052"><ele>206.33333333333334</ele><time>2026-04-26T07:34:15.999Z</time></trkpt><trkpt lat="43.138915397340995" lon="12.4480839281168"><ele>206.66666666666669</ele><time>2026-04-26T07:34:16.999Z</time></trkpt><trkpt lat="43.13902932109247" lon="12.448251905636052"><ele>207.0</ele><time>2026-04-26T07:34:17.999Z</time></trkpt><trkpt lat="43.13913643668743" lon="12.448414341766648"><ele>207.25</ele><time>2026-04-26T07:34:18.999Z</time></trkpt><trkpt lat="43.13923949946048" lon="12.448569417205428"><ele>207.5</ele><time>2026-04-26T07:34:19.999Z</time></trkpt><trkpt lat="43.139337663061156" lon="12.448707853248447"><ele>207.75</ele><time>2026-04-26T07:34:20.999Z</time></trkpt><trkpt lat="43.13942935378824" lon="12.448827059631387"><ele>208.0</ele><time>2026-04-26T07:34:21.999Z</time></trkpt><trkpt lat="43.139504298232914" lon="12.448943873170627"><ele>208.0</ele><time>2026-04-26T07:34:22.999Z</time></trkpt><trkpt lat="43.13960867792873" lon="12.449007867257048"><ele>208.0</ele><time>2026-04-26T07:34:23.999Z</time></trkpt><trkpt lat="43.13970460487583" lon="12.44908105348719"><ele>208.0</ele><time>2026-04-26T07:34:24.999Z</time></trkpt><trkpt lat="43.139801294871596" lon="12.449148695552553"><ele>208.0</ele><time>2026-04-26T07:34:25.999Z</time></trkpt><trkpt lat="43.139889853444586" lon="12.449220498999916"><ele>208.0</ele><time>2026-04-26T07:34:26.999Z</time></trkpt><trkpt lat="43.13996100743964" lon="12.449307417025617"><ele>208.16666666666666</ele><time>2026-04-26T07:34:27.999Z</time></trkpt><trkpt lat="43.14000783575227" lon="12.449411129126512"><ele>208.33333333333331</ele><time>2026-04-26T07:34:28.999Z</time></trkpt><trkpt lat="43.140027701988934" lon="12.449520435397009"><ele>208.5</ele><time>2026-04-26T07:34:29.999Z</time></trkpt><trkpt lat="43.140022103217596" lon="12.449628465018696"><ele>208.66666666666669</ele><time>2026-04-26T07:34:30.999Z</time></trkpt><trkpt lat="43.13998651794192" lon="12.449726344671646"><ele>208.83333333333334</ele><time>2026-04-26T07:34:31.999Z</time></trkpt><trkpt lat="43.13993538747007" lon="12.449820802065366"><ele>209.0</ele><time>2026-04-26T07:34:32.999Z</time></trkpt><trkpt lat="43.13988019806451" lon="12.449921785624987"><ele>208.33333333333334</ele><time>2026-04-26T07:34:33.999Z</time></trkpt><trkpt lat="43.13983346414395" lon="12.450022679906793"><ele>207.66666666666669</ele><time>2026-04-26T07:34:34.999Z</time></trkpt><trkpt lat="43.13979081189301" lon="12.450104180640446"><ele>207.0</ele><time>2026-04-26T07:34:35.998Z</time></trkpt><trkpt lat="43.13974433552756" lon="12.450172444330695"><ele>206.33333333333331</ele><time>2026-04-26T07:34:36.998Z</time></trkpt><trkpt lat="43.139673316602725" lon="12.450268934167706"><ele>205.66666666666666</ele><time>2026-04-26T07:34:38.998Z</time></trkpt><trkpt lat="43.13965649559281" lon="12.450390150794659"><ele>205.0</ele><time>2026-04-26T07:34:42.998Z</time></trkpt><trkpt lat="43.13973431007761" lon="12.450564945630237"><ele>205.25</ele><time>2026-04-26T07:34:44.998Z</time></trkpt><trkpt lat="43.13981615099466" lon="12.45063334453919"><ele>205.5</ele><time>2026-04-26T07:34:45.998Z</time></trkpt><trkpt lat="43.139916432382456" lon="12.450702560077811"><ele>205.75</ele><time>2026-04-26T07:34:46.998Z</time></trkpt><trkpt lat="43.14001369300662" lon="12.450793709710053"><ele>206.0</ele><time>2026-04-26T07:34:47.998Z</time></trkpt><trkpt lat="43.14012609040525" lon="12.450884738113277"><ele>206.0</ele><time>2026-04-26T07:34:48.998Z</time></trkpt><trkpt lat="43.140249367383255" lon="12.450973187101964"><ele>206.0</ele><time>2026-04-26T07:34:49.998Z</time></trkpt><trkpt lat="43.140381157857824" lon="12.451063787457308"><ele>206.0</ele><time>2026-04-26T07:34:50.998Z</time></trkpt><trkpt lat="43.14051257223144" lon="12.45115772737705"><ele>206.0</ele><time>2026-04-26T07:34:51.998Z</time></trkpt><trkpt lat="43.140644630701296" lon="12.45125136863181"><ele>205.66666666666669</ele><time>2026-04-26T07:34:52.998Z</time></trkpt><trkpt lat="43.14077843453247" lon="12.451345708066883"><ele>205.33333333333331</ele><time>2026-04-26T07:34:53.998Z</time></trkpt><trkpt lat="43.14091506779731" lon="12.451436884499197"><ele>205.0</ele><time>2026-04-26T07:34:54.998Z</time></trkpt><trkpt lat="43.14105314770394" lon="12.451531535541257"><ele>205.0</ele><time>2026-04-26T07:34:55.998Z</time></trkpt><trkpt lat="43.14118974718812" lon="12.451625346254774"><ele>205.0</ele><time>2026-04-26T07:34:56.998Z</time></trkpt><trkpt lat="43.14132132217085" lon="12.451716929767485"><ele>205.0</ele><time>2026-04-26T07:34:57.998Z</time></trkpt><trkpt lat="43.141450783746485" lon="12.451805070714443"><ele>205.0</ele><time>2026-04-26T07:34:58.998Z</time></trkpt><trkpt lat="43.14157875047794" lon="12.451892749858368"><ele>205.0</ele><time>2026-04-26T07:34:59.998Z</time></trkpt><trkpt lat="43.14170093110874" lon="12.451978988449538"><ele>205.0</ele><time>2026-04-26T07:35:00.998Z</time></trkpt><trkpt lat="43.141820577124776" lon="12.452063834533453"><ele>205.0</ele><time>2026-04-26T07:35:01.998Z</time></trkpt><trkpt lat="43.14193514317578" lon="12.452144457996454"><ele>205.0</ele><time>2026-04-26T07:35:02.998Z</time></trkpt><trkpt lat="43.1420458465214" lon="12.452222944996842"><ele>205.0</ele><time>2026-04-26T07:35:03.998Z</time></trkpt><trkpt lat="43.14215346932923" lon="12.452297809390254"><ele>205.0</ele><time>2026-04-26T07:35:04.998Z</time></trkpt><trkpt lat="43.14225875442238" lon="12.452366789432785"><ele>205.0</ele><time>2026-04-26T07:35:05.998Z</time></trkpt><trkpt lat="43.142359147788845" lon="12.45243154526976"><ele>205.0</ele><time>2026-04-26T07:35:06.998Z</time></trkpt><trkpt lat="43.1424205663571" lon="12.45247526223186"><ele>205.0</ele><time>2026-04-26T07:35:07.998Z</time></trkpt><trkpt lat="43.142491962345844" lon="12.452597976285501"><ele>205.4</ele><time>2026-04-26T07:35:09.998Z</time></trkpt><trkpt lat="43.14255577286323" lon="12.452647217820187"><ele>205.8</ele><time>2026-04-26T07:35:13.998Z</time></trkpt><trkpt lat="43.142618197887856" lon="12.45267061285543"><ele>206.2</ele><time>2026-04-26T07:35:15.998Z</time></trkpt><trkpt lat="43.14272699813781" lon="12.452656461236598"><ele>206.6</ele><time>2026-04-26T07:35:17.998Z</time></trkpt><trkpt lat="43.14287723621734" lon="12.452721911539689"><ele>207.0</ele><time>2026-04-26T07:35:19.998Z</time></trkpt><trkpt lat="43.14299296974671" lon="12.452787488175785"><ele>207.0</ele><time>2026-04-26T07:35:20.998Z</time></trkpt><trkpt lat="43.14311482958754" lon="12.452847224337361"><ele>207.0</ele><time>2026-04-26T07:35:21.997Z</time></trkpt><trkpt lat="43.14322841645132" lon="12.452898420314993"><ele>207.0</ele><time>2026-04-26T07:35:22.997Z</time></trkpt><trkpt lat="43.14335071014128" lon="12.452952414057293"><ele>207.0</ele><time>2026-04-26T07:35:23.997Z</time></trkpt><trkpt lat="43.14347720108092" lon="12.453010157172852"><ele>206.5</ele><time>2026-04-26T07:35:24.997Z</time></trkpt><trkpt lat="43.143599227753995" lon="12.45306892809502"><ele>206.0</ele><time>2026-04-26T07:35:25.997Z</time></trkpt><trkpt lat="43.143712700565565" lon="12.45311329083271"><ele>205.5</ele><time>2026-04-26T07:35:27Z</time></trkpt><trkpt lat="43.143814942225745" lon="12.453142696037299"><ele>205.0</ele><time>2026-04-26T07:35:28Z</time></trkpt><trkpt lat="43.14391490895318" lon="12.453160720733923"><ele>205.0</ele><time>2026-04-26T07:35:29Z</time></trkpt><trkpt lat="43.144010597612954" lon="12.453164098986965"><ele>205.0</ele><time>2026-04-26T07:35:30Z</time></trkpt><trkpt lat="43.14410534000319" lon="12.453161031531417"><ele>205.0</ele><time>2026-04-26T07:35:31Z</time></trkpt><trkpt lat="43.14419848958677" lon="12.453151749288917"><ele>205.0</ele><time>2026-04-26T07:35:32Z</time></trkpt><trkpt lat="43.14429741521436" lon="12.453145193517154"><ele>205.0</ele><time>2026-04-26T07:35:33Z</time></trkpt><trkpt lat="43.14440079993372" lon="12.453138381747499"><ele>205.4</ele><time>2026-04-26T07:35:34Z</time></trkpt><trkpt lat="43.14450531867646" lon="12.45313178528991"><ele>205.8</ele><time>2026-04-26T07:35:35Z</time></trkpt><trkpt lat="43.1446025360744" lon="12.453122598140231"><ele>206.2</ele><time>2026-04-26T07:35:36Z</time></trkpt><trkpt lat="43.14469974715987" lon="12.453114904820625"><ele>206.6</ele><time>2026-04-26T07:35:37Z</time></trkpt><trkpt lat="43.14479431631059" lon="12.453102869321809"><ele>207.0</ele><time>2026-04-26T07:35:38Z</time></trkpt><trkpt lat="43.14488069033939" lon="12.453091267115415"><ele>207.0</ele><time>2026-04-26T07:35:39Z</time></trkpt><trkpt lat="43.144964559326006" lon="12.453081805315108"><ele>207.0</ele><time>2026-04-26T07:35:40Z</time></trkpt><trkpt lat="43.14504134338428" lon="12.453075555401425"><ele>207.0</ele><time>2026-04-26T07:35:41Z</time></trkpt><trkpt lat="43.145115371510975" lon="12.453067604527561"><ele>207.0</ele><time>2026-04-26T07:35:42Z</time></trkpt><trkpt lat="43.14519103843889" lon="12.453063501757768"><ele>207.0</ele><time>2026-04-26T07:35:43Z</time></trkpt><trkpt lat="43.14527988659672" lon="12.453056918455552"><ele>207.0</ele><time>2026-04-26T07:35:44Z</time></trkpt><trkpt lat="43.14538008167131" lon="12.45304791195039"><ele>207.0</ele><time>2026-04-26T07:35:45Z</time></trkpt><trkpt lat="43.14548728692096" lon="12.45303812338378"><ele>207.0</ele><time>2026-04-26T07:35:46Z</time></trkpt><trkpt lat="43.14559314113903" lon="12.453029259776889"><ele>207.0</ele><time>2026-04-26T07:35:47Z</time></trkpt><trkpt lat="43.14568343865229" lon="12.453020588796416"><ele>207.0</ele><time>2026-04-26T07:35:48Z</time></trkpt><trkpt lat="43.145754920331164" lon="12.453038473415475"><ele>207.0</ele><time>2026-04-26T07:35:49Z</time></trkpt><trkpt lat="43.14584050471391" lon="12.453133970148668"><ele>207.0</ele><time>2026-04-26T07:35:51Z</time></trkpt><trkpt lat="43.14588545332213" lon="12.453251398975922"><ele>207.0</ele><time>2026-04-26T07:35:53Z</time></trkpt><trkpt lat="43.14590981553797" lon="12.453332076882479"><ele>207.0</ele><time>2026-04-26T07:35:54Z</time></trkpt><trkpt lat="43.14592547521984" lon="12.453432593718126"><ele>207.0</ele><time>2026-04-26T07:35:55Z</time></trkpt><trkpt lat="43.14594435758491" lon="12.453543278340046"><ele>207.0</ele><time>2026-04-26T07:35:56Z</time></trkpt><trkpt lat="43.14597123714664" lon="12.453670736217676"><ele>207.0</ele><time>2026-04-26T07:35:57Z</time></trkpt><trkpt lat="43.145996012055654" lon="12.453807909409033"><ele>206.66666666666666</ele><time>2026-04-26T07:35:58Z</time></trkpt><trkpt lat="43.146021275889495" lon="12.453929312251399"><ele>206.33333333333331</ele><time>2026-04-26T07:35:58.999Z</time></trkpt><trkpt lat="43.14606635701453" lon="12.454024365521953"><ele>206.0</ele><time>2026-04-26T07:35:59.999Z</time></trkpt><trkpt lat="43.14612637324693" lon="12.454085435666999"><ele>205.66666666666666</ele><time>2026-04-26T07:36:00.999Z</time></trkpt><trkpt lat="43.14618964380032" lon="12.45412131798623"><ele>205.33333333333331</ele><time>2026-04-26T07:36:01.999Z</time></trkpt><trkpt lat="43.14626327256363" lon="12.45416247204188"><ele>205.0</ele><time>2026-04-26T07:36:02.999Z</time></trkpt><trkpt lat="43.146354082262896" lon="12.454209589026465"><ele>205.0</ele><time>2026-04-26T07:36:03.999Z</time></trkpt><trkpt lat="43.14646280541249" lon="12.454270889697034"><ele>205.0</ele><time>2026-04-26T07:36:04.999Z</time></trkpt><trkpt lat="43.14658131433852" lon="12.454339133757484"><ele>205.0</ele><time>2026-04-26T07:36:05.999Z</time></trkpt><trkpt lat="43.14670043854093" lon="12.454417299565979"><ele>205.0</ele><time>2026-04-26T07:36:06.999Z</time></trkpt><trkpt lat="43.146824466072054" lon="12.454500661741807"><ele>205.0</ele><time>2026-04-26T07:36:07.999Z</time></trkpt><trkpt lat="43.14695577773784" lon="12.454589886472577"><ele>205.0</ele><time>2026-04-26T07:36:08.999Z</time></trkpt><trkpt lat="43.1470862238918" lon="12.454673370830387"><ele>205.0</ele><time>2026-04-26T07:36:09.999Z</time></trkpt><trkpt lat="43.14719738417586" lon="12.454748131211684"><ele>205.0</ele><time>2026-04-26T07:36:10.999Z</time></trkpt><trkpt lat="43.147280178758635" lon="12.454798569863284"><ele>204.99999999999997</ele><time>2026-04-26T07:36:11.999Z</time></trkpt><trkpt lat="43.147342065951285" lon="12.454842148230291"><ele>205.0</ele><time>2026-04-26T07:36:12.999Z</time></trkpt><trkpt lat="43.147406842380946" lon="12.454895411740022"><ele>205.0</ele><time>2026-04-26T07:36:14.999Z</time></trkpt><trkpt lat="43.14747446505304" lon="12.454938334925826"><ele>205.0</ele><time>2026-04-26T07:38:25.999Z</time></trkpt><trkpt lat="43.147581791162544" lon="12.455005518106253"><ele>204.99999999999997</ele><time>2026-04-26T07:38:27.999Z</time></trkpt><trkpt lat="43.14766220029484" lon="12.455031377973773"><ele>205.0</ele><time>2026-04-26T07:38:28.999Z</time></trkpt><trkpt lat="43.147733271124366" lon="12.455080885666352"><ele>204.83333333333331</ele><time>2026-04-26T07:38:29.999Z</time></trkpt><trkpt lat="43.14781503458023" lon="12.455130865183564"><ele>204.66666666666666</ele><time>2026-04-26T07:38:30.999Z</time></trkpt><trkpt lat="43.14789733990524" lon="12.455182768891124"><ele>204.5</ele><time>2026-04-26T07:38:31.999Z</time></trkpt><trkpt lat="43.14797677890864" lon="12.455238357320162"><ele>204.33333333333331</ele><time>2026-04-26T07:38:32.999Z</time></trkpt><trkpt lat="43.14805694640107" lon="12.455293132205124"><ele>204.16666666666666</ele><time>2026-04-26T07:38:33.999Z</time></trkpt><trkpt lat="43.14812676499957" lon="12.455345246609797"><ele>204.0</ele><time>2026-04-26T07:38:34.999Z</time></trkpt><trkpt lat="43.14818227425945" lon="12.455393631321252"><ele>203.79999999999998</ele><time>2026-04-26T07:38:35.999Z</time></trkpt><trkpt lat="43.14824216389373" lon="12.455457322125286"><ele>203.6</ele><time>2026-04-26T07:38:37.999Z</time></trkpt><trkpt lat="43.148391097117674" lon="12.455380183856683"><ele>203.4</ele><time>2026-04-26T07:38:42.999Z</time></trkpt><trkpt lat="43.14837428762811" lon="12.455233207406431"><ele>203.2</ele><time>2026-04-26T07:38:44.999Z</time></trkpt><trkpt lat="43.148373684895304" lon="12.455118447462699"><ele>203.0</ele><time>2026-04-26T07:38:46.999Z</time></trkpt><trkpt lat="43.14837781963699" lon="12.45497529174111"><ele>203.50000000000003</ele><time>2026-04-26T07:38:48.999Z</time></trkpt><trkpt lat="43.14838608574608" lon="12.454799522061135"><ele>204.0</ele><time>2026-04-26T07:38:50.999Z</time></trkpt><trkpt lat="43.14839212302218" lon="12.454655258885673"><ele>204.5</ele><time>2026-04-26T07:38:52.999Z</time></trkpt><trkpt lat="43.14841499750437" lon="12.454556378720444"><ele>205.0</ele><time>2026-04-26T07:38:55.999Z</time></trkpt><trkpt lat="43.148482676673375" lon="12.45455372878638"><ele>205.50000000000003</ele><time>2026-04-26T07:38:59.998Z</time></trkpt><trkpt lat="43.14854410458466" lon="12.454594289338337"><ele>206.0</ele><time>2026-04-26T07:39:01.998Z</time></trkpt><trkpt lat="43.14865278114113" lon="12.454657066327028"><ele>206.0</ele><time>2026-04-26T07:39:03.998Z</time></trkpt><trkpt lat="43.14871842427158" lon="12.454677878047743"><ele>206.0</ele><time>2026-04-26T07:39:04.998Z</time></trkpt><trkpt lat="43.14877569585504" lon="12.454716357541834"><ele>206.0</ele><time>2026-04-26T07:39:05.998Z</time></trkpt><trkpt lat="43.14888737757156" lon="12.454786719562982"><ele>206.0</ele><time>2026-04-26T07:39:07.998Z</time></trkpt><trkpt lat="43.14896633192686" lon="12.45490053263073"><ele>206.0</ele><time>2026-04-26T07:39:09.998Z</time></trkpt><trkpt lat="43.14909172770154" lon="12.454960689962178"><ele>206.00000000000003</ele><time>2026-04-26T07:39:11.998Z</time></trkpt><trkpt lat="43.149109955519876" lon="12.455054643000224"><ele>206.0</ele><time>2026-04-26T07:39:12.998Z</time></trkpt><trkpt lat="43.149230233259544" lon="12.454992062754775"><ele>206.0</ele><time>2026-04-26T07:39:13.998Z</time></trkpt><trkpt lat="43.14929266842671" lon="12.45503408413533"><ele>206.0</ele><time>2026-04-26T07:39:14.998Z</time></trkpt><trkpt lat="43.14935307859894" lon="12.45507357022334"><ele>206.00000000000003</ele><time>2026-04-26T07:39:15.998Z</time></trkpt><trkpt lat="43.14941340776074" lon="12.455112670603638"><ele>206.0</ele><time>2026-04-26T07:39:16.998Z</time></trkpt><trkpt lat="43.14947341948626" lon="12.455152449468303"><ele>205.99999999999997</ele><time>2026-04-26T07:39:17.998Z</time></trkpt><trkpt lat="43.149533662250256" lon="12.45518925746502"><ele>206.0</ele><time>2026-04-26T07:39:18.998Z</time></trkpt><trkpt lat="43.149596638192186" lon="12.455228002202626"><ele>206.0</ele><time>2026-04-26T07:39:19.998Z</time></trkpt><trkpt lat="43.149660029756944" lon="12.455270784647157"><ele>206.0</ele><time>2026-04-26T07:39:20.998Z</time></trkpt><trkpt lat="43.14972358033137" lon="12.455311268788776"><ele>206.0</ele><time>2026-04-26T07:39:21.998Z</time></trkpt><trkpt lat="43.14978728806334" lon="12.455354930768754"><ele>205.99999999999997</ele><time>2026-04-26T07:39:22.998Z</time></trkpt><trkpt lat="43.149851133380224" lon="12.455397024025029"><ele>206.0</ele><time>2026-04-26T07:39:23.998Z</time></trkpt><trkpt lat="43.149915040617316" lon="12.455438645114292"><ele>205.66666666666669</ele><time>2026-04-26T07:39:24.998Z</time></trkpt><trkpt lat="43.14997607858124" lon="12.455478905141995"><ele>205.33333333333334</ele><time>2026-04-26T07:39:25.998Z</time></trkpt><trkpt lat="43.150035603021855" lon="12.455518804383567"><ele>205.0</ele><time>2026-04-26T07:39:26.998Z</time></trkpt><trkpt lat="43.15009727479169" lon="12.455562436707476"><ele>204.66666666666669</ele><time>2026-04-26T07:39:27.998Z</time></trkpt><trkpt lat="43.150159452862354" lon="12.455603338505878"><ele>204.33333333333334</ele><time>2026-04-26T07:39:28.998Z</time></trkpt><trkpt lat="43.15023890564821" lon="12.455655351125948"><ele>204.0</ele><time>2026-04-26T07:39:30.998Z</time></trkpt><trkpt lat="43.150335332588746" lon="12.45571762129184"><ele>204.0</ele><time>2026-04-26T07:39:33.998Z</time></trkpt><trkpt lat="43.15045062513502" lon="12.455794364414126"><ele>204.0</ele><time>2026-04-26T07:39:35.998Z</time></trkpt><trkpt lat="43.15051329507983" lon="12.455835139185671"><ele>204.0</ele><time>2026-04-26T07:39:36.998Z</time></trkpt><trkpt lat="43.150570739659265" lon="12.455878127963695"><ele>204.0</ele><time>2026-04-26T07:39:37.998Z</time></trkpt><trkpt lat="43.150683407185696" lon="12.455955021608949"><ele>204.0</ele><time>2026-04-26T07:39:40Z</time></trkpt><trkpt lat="43.150747616297444" lon="12.455998680367525"><ele>204.14285714285714</ele><time>2026-04-26T07:39:41Z</time></trkpt><trkpt lat="43.15081250578666" lon="12.456042246481521"><ele>204.28571428571428</ele><time>2026-04-26T07:39:42Z</time></trkpt><trkpt lat="43.150878140469004" lon="12.45608697778814"><ele>204.42857142857144</ele><time>2026-04-26T07:39:43Z</time></trkpt><trkpt lat="43.15094438940617" lon="12.456133128298832"><ele>204.57142857142856</ele><time>2026-04-26T07:39:44Z</time></trkpt><trkpt lat="43.15101333948601" lon="12.456178084449665"><ele>204.7142857142857</ele><time>2026-04-26T07:39:45Z</time></trkpt><trkpt lat="43.15108170737115" lon="12.45622230852217"><ele>204.85714285714286</ele><time>2026-04-26T07:39:46Z</time></trkpt><trkpt lat="43.15114994354541" lon="12.456265675790506"><ele>205.0</ele><time>2026-04-26T07:39:47Z</time></trkpt><trkpt lat="43.15121770801402" lon="12.456309957848392"><ele>204.4</ele><time>2026-04-26T07:39:48Z</time></trkpt><trkpt lat="43.15128666154052" lon="12.456354925220714"><ele>203.8</ele><time>2026-04-26T07:39:49Z</time></trkpt><trkpt lat="43.151349933042376" lon="12.456395453601765"><ele>203.2</ele><time>2026-04-26T07:39:50Z</time></trkpt><trkpt lat="43.15145684445558" lon="12.45646454519662"><ele>202.6</ele><time>2026-04-26T07:39:52Z</time></trkpt><trkpt lat="43.15155633456227" lon="12.456534933979345"><ele>202.0</ele><time>2026-04-26T07:39:54Z</time></trkpt><trkpt lat="43.151652919954216" lon="12.456593018146972"><ele>201.83333333333331</ele><time>2026-04-26T07:39:56Z</time></trkpt><trkpt lat="43.151720500055724" lon="12.456635725025455"><ele>201.66666666666666</ele><time>2026-04-26T07:39:58Z</time></trkpt><trkpt lat="43.15179272868953" lon="12.456681502356341"><ele>201.5</ele><time>2026-04-26T07:40:01Z</time></trkpt><trkpt lat="43.15184699987666" lon="12.456732171771089"><ele>201.33333333333331</ele><time>2026-04-26T07:40:04Z</time></trkpt><trkpt lat="43.15192635410459" lon="12.456779491895837"><ele>201.16666666666666</ele><time>2026-04-26T07:43:13.998Z</time></trkpt><trkpt lat="43.15199606949173" lon="12.456822816693466"><ele>201.0</ele><time>2026-04-26T07:43:15.998Z</time></trkpt><trkpt lat="43.15205862436251" lon="12.456859821264146"><ele>201.0</ele><time>2026-04-26T07:43:17.998Z</time></trkpt><trkpt lat="43.15212458071413" lon="12.45690802082296"><ele>201.0</ele><time>2026-04-26T07:43:19.998Z</time></trkpt><trkpt lat="43.15219215668395" lon="12.45696216161924"><ele>201.0</ele><time>2026-04-26T07:43:21.998Z</time></trkpt><trkpt lat="43.15224911372869" lon="12.457010781589851"><ele>201.0</ele><time>2026-04-26T07:43:23.998Z</time></trkpt><trkpt lat="43.152324519314504" lon="12.457060350494231"><ele>201.0</ele><time>2026-04-26T07:43:25.998Z</time></trkpt><trkpt lat="43.15239577093403" lon="12.45710617694383"><ele>201.0</ele><time>2026-04-26T07:43:27.998Z</time></trkpt><trkpt lat="43.152449833550236" lon="12.457160570684206"><ele>201.0</ele><time>2026-04-26T07:43:29.998Z</time></trkpt><trkpt lat="43.15250109046384" lon="12.457233737661012"><ele>201.0</ele><time>2026-04-26T07:43:31.998Z</time></trkpt><trkpt lat="43.15256759957726" lon="12.457231407816503"><ele>201.0</ele><time>2026-04-26T07:43:34.998Z</time></trkpt><trkpt lat="43.15263181362992" lon="12.457151589846383"><ele>201.0</ele><time>2026-04-26T07:43:36.998Z</time></trkpt><trkpt lat="43.15270293855703" lon="12.457060597403219"><ele>201.0</ele><time>2026-04-26T07:43:38.998Z</time></trkpt><trkpt lat="43.152767172779086" lon="12.457008249801587"><ele>201.0</ele><time>2026-04-26T07:43:39.998Z</time></trkpt><trkpt lat="43.15281737708184" lon="12.456946138821296"><ele>201.0</ele><time>2026-04-26T07:43:40.998Z</time></trkpt><trkpt lat="43.15287191684293" lon="12.456879112909517"><ele>200.83333333333334</ele><time>2026-04-26T07:43:41.998Z</time></trkpt><trkpt lat="43.15293035739612" lon="12.456808542743985"><ele>200.66666666666669</ele><time>2026-04-26T07:43:42.998Z</time></trkpt><trkpt lat="43.152994908119176" lon="12.456734620541956"><ele>200.5</ele><time>2026-04-26T07:43:43.998Z</time></trkpt><trkpt lat="43.153059929978525" lon="12.45665151210838"><ele>200.33333333333334</ele><time>2026-04-26T07:43:44.998Z</time></trkpt><trkpt lat="43.15312802549714" lon="12.456565348444663"><ele>200.16666666666669</ele><time>2026-04-26T07:43:45.998Z</time></trkpt><trkpt lat="43.153197778113544" lon="12.456475362775477"><ele>200.0</ele><time>2026-04-26T07:43:46.998Z</time></trkpt><trkpt lat="43.153263405529856" lon="12.456380881910446"><ele>199.8</ele><time>2026-04-26T07:43:47.998Z</time></trkpt><trkpt lat="43.1533306433871" lon="12.456288937910362"><ele>199.6</ele><time>2026-04-26T07:43:48.998Z</time></trkpt><trkpt lat="43.15339528257107" lon="12.456198659199087"><ele>199.39999999999998</ele><time>2026-04-26T07:43:49.998Z</time></trkpt><trkpt lat="43.15345856497141" lon="12.456108300837938"><ele>199.2</ele><time>2026-04-26T07:43:51Z</time></trkpt><trkpt lat="43.15352418926705" lon="12.456018759668291"><ele>199.0</ele><time>2026-04-26T07:43:52Z</time></trkpt><trkpt lat="43.15358760502584" lon="12.455926563272952"><ele>199.39999999999998</ele><time>2026-04-26T07:43:53Z</time></trkpt><trkpt lat="43.153654171901735" lon="12.455831083600545"><ele>199.8</ele><time>2026-04-26T07:43:54Z</time></trkpt><trkpt lat="43.15372342219144" lon="12.4557357159094"><ele>200.2</ele><time>2026-04-26T07:43:55Z</time></trkpt><trkpt lat="43.15379059166095" lon="12.4556451462237"><ele>200.60000000000002</ele><time>2026-04-26T07:43:56Z</time></trkpt><trkpt lat="43.15385430980296" lon="12.455555175659507"><ele>201.0</ele><time>2026-04-26T07:43:57Z</time></trkpt><trkpt lat="43.153913937425074" lon="12.455469646776912"><ele>201.16666666666666</ele><time>2026-04-26T07:43:58Z</time></trkpt><trkpt lat="43.15397349876462" lon="12.455384947801244"><ele>201.33333333333331</ele><time>2026-04-26T07:43:59Z</time></trkpt><trkpt lat="43.15403183597352" lon="12.4553028070263"><ele>201.5</ele><time>2026-04-26T07:44:00Z</time></trkpt><trkpt lat="43.15408931981685" lon="12.455221733753408"><ele>201.66666666666666</ele><time>2026-04-26T07:44:01Z</time></trkpt><trkpt lat="43.154149586208774" lon="12.455140909292988"><ele>201.83333333333331</ele><time>2026-04-26T07:44:02Z</time></trkpt><trkpt lat="43.154210822095656" lon="12.455059608459342"><ele>202.0</ele><time>2026-04-26T07:44:03Z</time></trkpt><trkpt lat="43.15427348073223" lon="12.454980269946532"><ele>201.99999999999997</ele><time>2026-04-26T07:44:04Z</time></trkpt><trkpt lat="43.15433481263883" lon="12.454896515757142"><ele>202.0</ele><time>2026-04-26T07:44:05Z</time></trkpt><trkpt lat="43.15439585766641" lon="12.454813487006401"><ele>202.0</ele><time>2026-04-26T07:44:06Z</time></trkpt><trkpt lat="43.154457424748266" lon="12.454732391060539"><ele>202.0</ele><time>2026-04-26T07:44:07Z</time></trkpt><trkpt lat="43.15452333364038" lon="12.454649652726255"><ele>201.99999999999997</ele><time>2026-04-26T07:44:08Z</time></trkpt><trkpt lat="43.15459329745041" lon="12.454570128891707"><ele>202.0</ele><time>2026-04-26T07:44:09Z</time></trkpt><trkpt lat="43.154664118664954" lon="12.454485107922826"><ele>201.8</ele><time>2026-04-26T07:44:10Z</time></trkpt><trkpt lat="43.154733958793656" lon="12.454404192484624"><ele>201.6</ele><time>2026-04-26T07:44:11Z</time></trkpt><trkpt lat="43.15480286359348" lon="12.454320736126972"><ele>201.4</ele><time>2026-04-26T07:44:12Z</time></trkpt><trkpt lat="43.15487493033238" lon="12.45423778373841"><ele>201.20000000000002</ele><time>2026-04-26T07:44:13Z</time></trkpt><trkpt lat="43.154951025166355" lon="12.454151810207389"><ele>201.0</ele><time>2026-04-26T07:44:14Z</time></trkpt><trkpt lat="43.15502565157683" lon="12.454069562313816"><ele>201.0</ele><time>2026-04-26T07:44:15Z</time></trkpt><trkpt lat="43.15509764538715" lon="12.453985685051956"><ele>201.0</ele><time>2026-04-26T07:44:16Z</time></trkpt><trkpt lat="43.155167730572366" lon="12.453906709505382"><ele>201.0</ele><time>2026-04-26T07:44:17Z</time></trkpt><trkpt lat="43.155235569689616" lon="12.4538218924505"><ele>201.0</ele><time>2026-04-26T07:44:18Z</time></trkpt><trkpt lat="43.15529621649168" lon="12.453749572851057"><ele>201.0</ele><time>2026-04-26T07:44:19Z</time></trkpt><trkpt lat="43.15534265526007" lon="12.453691017151604"><ele>201.0</ele><time>2026-04-26T07:44:20Z</time></trkpt><trkpt lat="43.155400874459325" lon="12.453625320262823"><ele>201.5</ele><time>2026-04-26T07:44:22Z</time></trkpt><trkpt lat="43.15545091353077" lon="12.453543657729144"><ele>202.0</ele><time>2026-04-26T07:44:24.999Z</time></trkpt><trkpt lat="43.155497648235766" lon="12.453466685969216"><ele>202.5</ele><time>2026-04-26T07:44:28.999Z</time></trkpt><trkpt lat="43.155507779324715" lon="12.453349581883169"><ele>203.0</ele><time>2026-04-26T07:44:32.999Z</time></trkpt><trkpt lat="43.15543347599459" lon="12.453265261520098"><ele>203.5</ele><time>2026-04-26T07:44:34.999Z</time></trkpt><trkpt lat="43.155372202711035" lon="12.453155592061949"><ele>204.0</ele><time>2026-04-26T07:44:36.999Z</time></trkpt><trkpt lat="43.15531055749746" lon="12.45304970195462"><ele>205.83333333333334</ele><time>2026-04-26T07:44:38.999Z</time></trkpt><trkpt lat="43.155250090027266" lon="12.452949390282626"><ele>207.66666666666669</ele><time>2026-04-26T07:44:40.999Z</time></trkpt><trkpt lat="43.155187180964724" lon="12.452854685202563"><ele>209.5</ele><time>2026-04-26T07:44:42.999Z</time></trkpt><trkpt lat="43.15514829037975" lon="12.452776330120535"><ele>211.33333333333334</ele><time>2026-04-26T07:44:45.999Z</time></trkpt><trkpt lat="43.15518087462269" lon="12.452643295424988"><ele>213.16666666666669</ele><time>2026-04-26T07:44:48.999Z</time></trkpt><trkpt lat="43.155256449393896" lon="12.452599631907018"><ele>215.0</ele><time>2026-04-26T07:44:49.999Z</time></trkpt><trkpt lat="43.15532702634184" lon="12.452552665922749"><ele>215.0</ele><time>2026-04-26T07:44:50.999Z</time></trkpt><trkpt lat="43.1554170152088" lon="12.452478202037963"><ele>215.0</ele><time>2026-04-26T07:44:51.999Z</time></trkpt><trkpt lat="43.155522041716715" lon="12.452394422971844"><ele>215.0</ele><time>2026-04-26T07:44:52.999Z</time></trkpt><trkpt lat="43.155630290788125" lon="12.452309071018023"><ele>215.0</ele><time>2026-04-26T07:44:53.999Z</time></trkpt><trkpt lat="43.15574771281574" lon="12.452212216252153"><ele>217.0</ele><time>2026-04-26T07:44:54.999Z</time></trkpt><trkpt lat="43.15587489075699" lon="12.45211067018945"><ele>219.0</ele><time>2026-04-26T07:44:55.999Z</time></trkpt><trkpt lat="43.156009642445746" lon="12.452002693462607"><ele>221.0</ele><time>2026-04-26T07:44:56.999Z</time></trkpt><trkpt lat="43.156139364056294" lon="12.45188884967832"><ele>221.0</ele><time>2026-04-26T07:44:57.999Z</time></trkpt><trkpt lat="43.1562701251117" lon="12.45175847234277"><ele>221.0</ele><time>2026-04-26T07:44:58.999Z</time></trkpt><trkpt lat="43.15639794034364" lon="12.451609403031803"><ele>221.0</ele><time>2026-04-26T07:44:59.999Z</time></trkpt><trkpt lat="43.156519540251736" lon="12.451443057915725"><ele>220.0</ele><time>2026-04-26T07:45:00.999Z</time></trkpt><trkpt lat="43.156641009022906" lon="12.451262828065273"><ele>219.0</ele><time>2026-04-26T07:45:01.999Z</time></trkpt><trkpt lat="43.15675664167837" lon="12.45109000852094"><ele>218.0</ele><time>2026-04-26T07:45:02.999Z</time></trkpt><trkpt lat="43.15687502533995" lon="12.45091256672501"><ele>218.0</ele><time>2026-04-26T07:45:03.999Z</time></trkpt><trkpt lat="43.15699247882879" lon="12.45073350298382"><ele>218.0</ele><time>2026-04-26T07:45:04.999Z</time></trkpt><trkpt lat="43.15710878225529" lon="12.450556737700179"><ele>218.0</ele><time>2026-04-26T07:45:05.999Z</time></trkpt><trkpt lat="43.157223565294686" lon="12.450381039097532"><ele>215.66666666666669</ele><time>2026-04-26T07:45:06.999Z</time></trkpt><trkpt lat="43.157339597904716" lon="12.45020731210095"><ele>213.33333333333331</ele><time>2026-04-26T07:45:07.999Z</time></trkpt><trkpt lat="43.157443969248035" lon="12.450029034492918"><ele>211.0</ele><time>2026-04-26T07:45:08.998Z</time></trkpt><trkpt lat="43.15753467376646" lon="12.449844637525246"><ele>211.0</ele><time>2026-04-26T07:45:09.998Z</time></trkpt><trkpt lat="43.15762005227765" lon="12.449651668291818"><ele>211.0</ele><time>2026-04-26T07:45:10.998Z</time></trkpt><trkpt lat="43.15770305923811" lon="12.449452471170495"><ele>211.0</ele><time>2026-04-26T07:45:11.998Z</time></trkpt><trkpt lat="43.15778683727058" lon="12.449251546092148"><ele>215.0</ele><time>2026-04-26T07:45:12.998Z</time></trkpt><trkpt lat="43.15786771823127" lon="12.449044623326092"><ele>219.0</ele><time>2026-04-26T07:45:13.998Z</time></trkpt><trkpt lat="43.1579518374808" lon="12.448835993186975"><ele>223.0</ele><time>2026-04-26T07:45:14.998Z</time></trkpt><trkpt lat="43.158035690616686" lon="12.448627627632742"><ele>224.0</ele><time>2026-04-26T07:45:15.998Z</time></trkpt><trkpt lat="43.15812210508419" lon="12.448419228163905"><ele>225.0</ele><time>2026-04-26T07:45:16.998Z</time></trkpt><trkpt lat="43.1582051662327" lon="12.448206093113159"><ele>226.0</ele><time>2026-04-26T07:45:17.998Z</time></trkpt><trkpt lat="43.158292168065614" lon="12.44799371098268"><ele>222.0</ele><time>2026-04-26T07:45:18.998Z</time></trkpt><trkpt lat="43.158378977018664" lon="12.44778014648749"><ele>218.0</ele><time>2026-04-26T07:45:19.998Z</time></trkpt><trkpt lat="43.158465517059106" lon="12.447561861223804"><ele>214.0</ele><time>2026-04-26T07:45:20.998Z</time></trkpt><trkpt lat="43.158555648370054" lon="12.447338897676929"><ele>216.33333333333331</ele><time>2026-04-26T07:45:21.998Z</time></trkpt><trkpt lat="43.15864782467653" lon="12.44711189075228"><ele>218.66666666666669</ele><time>2026-04-26T07:45:22.998Z</time></trkpt><trkpt lat="43.1587431550932" lon="12.446877331920975"><ele>221.0</ele><time>2026-04-26T07:45:23.998Z</time></trkpt><trkpt lat="43.15884002660941" lon="12.446637281203309"><ele>221.0</ele><time>2026-04-26T07:45:24.998Z</time></trkpt><trkpt lat="43.15894053427879" lon="12.446392451818651"><ele>221.0</ele><time>2026-04-26T07:45:25.998Z</time></trkpt><trkpt lat="43.15904415787877" lon="12.446144995772661"><ele>221.0</ele><time>2026-04-26T07:45:26.998Z</time></trkpt><trkpt lat="43.1591471595383" lon="12.445896121422622"><ele>217.66666666666669</ele><time>2026-04-26T07:45:27.998Z</time></trkpt><trkpt lat="43.15924908098994" lon="12.44564047205398"><ele>214.33333333333331</ele><time>2026-04-26T07:45:28.998Z</time></trkpt><trkpt lat="43.159354545855045" lon="12.445382295133134"><ele>211.0</ele><time>2026-04-26T07:45:29.998Z</time></trkpt><trkpt lat="43.159459346226534" lon="12.445124878762524"><ele>211.0</ele><time>2026-04-26T07:45:30.998Z</time></trkpt><trkpt lat="43.1595670717442" lon="12.444865820338908"><ele>211.0</ele><time>2026-04-26T07:45:31.998Z</time></trkpt><trkpt lat="43.159673966040714" lon="12.444604803889673"><ele>211.0</ele><time>2026-04-26T07:45:32.998Z</time></trkpt><trkpt lat="43.15978307574664" lon="12.444341296888023"><ele>211.33333333333331</ele><time>2026-04-26T07:45:33.998Z</time></trkpt><trkpt lat="43.159891806978514" lon="12.444076294390227"><ele>211.66666666666669</ele><time>2026-04-26T07:45:34.998Z</time></trkpt><trkpt lat="43.16000091343582" lon="12.443810145724298"><ele>212.0</ele><time>2026-04-26T07:45:35.998Z</time></trkpt><trkpt lat="43.16011062574935" lon="12.443540102349857"><ele>212.0</ele><time>2026-04-26T07:45:36.998Z</time></trkpt><trkpt lat="43.16021945110671" lon="12.443270665511259"><ele>212.0</ele><time>2026-04-26T07:45:37.998Z</time></trkpt><trkpt lat="43.1603289170872" lon="12.4430036569787"><ele>212.0</ele><time>2026-04-26T07:45:38.998Z</time></trkpt><trkpt lat="43.16044185965986" lon="12.442734569759644"><ele>214.33333333333334</ele><time>2026-04-26T07:45:39.998Z</time></trkpt><trkpt lat="43.16055396864248" lon="12.442468087208118"><ele>216.66666666666669</ele><time>2026-04-26T07:45:40.998Z</time></trkpt><trkpt lat="43.1606632745004" lon="12.442198285154053"><ele>219.0</ele><time>2026-04-26T07:45:41.998Z</time></trkpt><trkpt lat="43.16077096424993" lon="12.441930257875857"><ele>219.0</ele><time>2026-04-26T07:45:42.998Z</time></trkpt><trkpt lat="43.16087910814597" lon="12.441661267464688"><ele>219.0</ele><time>2026-04-26T07:45:43.998Z</time></trkpt><trkpt lat="43.160988243078975" lon="12.441395489261765"><ele>219.0</ele><time>2026-04-26T07:45:44.998Z</time></trkpt><trkpt lat="43.16109150799939" lon="12.441148341403299"><ele>222.33333333333331</ele><time>2026-04-26T07:45:45.998Z</time></trkpt><trkpt lat="43.161186653143645" lon="12.44090671482396"><ele>225.66666666666666</ele><time>2026-04-26T07:45:46.998Z</time></trkpt><trkpt lat="43.16126122164818" lon="12.440671625706123"><ele>229.0</ele><time>2026-04-26T07:45:47.998Z</time></trkpt><trkpt lat="43.16132694258073" lon="12.440442731616507"><ele>232.0</ele><time>2026-04-26T07:45:48.998Z</time></trkpt><trkpt lat="43.16135595145128" lon="12.440206453667516"><ele>235.0</ele><time>2026-04-26T07:45:49.998Z</time></trkpt><trkpt lat="43.161360636947634" lon="12.439963186496476"><ele>238.0</ele><time>2026-04-26T07:45:50.998Z</time></trkpt><trkpt lat="43.16134407969416" lon="12.43972196865531"><ele>240.33333333333331</ele><time>2026-04-26T07:45:51.998Z</time></trkpt><trkpt lat="43.161356829599605" lon="12.439482277974987"><ele>242.66666666666669</ele><time>2026-04-26T07:45:52.998Z</time></trkpt><trkpt lat="43.161375542787844" lon="12.439243659673016"><ele>245.0</ele><time>2026-04-26T07:45:53.997Z</time></trkpt><trkpt lat="43.16141406568303" lon="12.439003339722268"><ele>242.33333333333334</ele><time>2026-04-26T07:45:54.997Z</time></trkpt><trkpt lat="43.161461851847804" lon="12.438759814955025"><ele>239.66666666666669</ele><time>2026-04-26T07:45:55.997Z</time></trkpt><trkpt lat="43.161519184205574" lon="12.438510332837177"><ele>237.0</ele><time>2026-04-26T07:45:57Z</time></trkpt><trkpt lat="43.16156851274979" lon="12.438263228842478"><ele>228.0</ele><time>2026-04-26T07:45:58Z</time></trkpt><trkpt lat="43.16162566354406" lon="12.438000968068545"><ele>219.0</ele><time>2026-04-26T07:45:59Z</time></trkpt><trkpt lat="43.161683346403606" lon="12.437740479844932"><ele>210.0</ele><time>2026-04-26T07:46:00Z</time></trkpt><trkpt lat="43.161739308888066" lon="12.43748458413051"><ele>210.0</ele><time>2026-04-26T07:46:01Z</time></trkpt><trkpt lat="43.16179057973809" lon="12.437251957557939"><ele>210.0</ele><time>2026-04-26T07:46:02Z</time></trkpt><trkpt lat="43.16184087862462" lon="12.437032955732533"><ele>210.0</ele><time>2026-04-26T07:46:03Z</time></trkpt><trkpt lat="43.16189873064151" lon="12.436830454249428"><ele>211.66666666666669</ele><time>2026-04-26T07:46:04Z</time></trkpt><trkpt lat="43.161965108451916" lon="12.436646336737201"><ele>213.33333333333334</ele><time>2026-04-26T07:46:05Z</time></trkpt><trkpt lat="43.16204645421759" lon="12.436470836384679"><ele>215.0</ele><time>2026-04-26T07:46:06Z</time></trkpt><trkpt lat="43.162141619020915" lon="12.436302687876331"><ele>216.0</ele><time>2026-04-26T07:46:07Z</time></trkpt><trkpt lat="43.162250122762444" lon="12.43615275172903"><ele>217.0</ele><time>2026-04-26T07:46:08Z</time></trkpt><trkpt lat="43.16236708040547" lon="12.43601752316361"><ele>218.0</ele><time>2026-04-26T07:46:09Z</time></trkpt><trkpt lat="43.16248946453892" lon="12.43588586978294"><ele>215.66666666666669</ele><time>2026-04-26T07:46:10Z</time></trkpt><trkpt lat="43.16261404888538" lon="12.435750733515167"><ele>213.33333333333331</ele><time>2026-04-26T07:46:11Z</time></trkpt><trkpt lat="43.162743306919346" lon="12.435605131369423"><ele>211.0</ele><time>2026-04-26T07:46:12Z</time></trkpt><trkpt lat="43.16287009495291" lon="12.435467095199463"><ele>211.0</ele><time>2026-04-26T07:46:13Z</time></trkpt><trkpt lat="43.163000958242996" lon="12.435320173495036"><ele>211.0</ele><time>2026-04-26T07:46:14Z</time></trkpt><trkpt lat="43.1631356146172" lon="12.435172648761188"><ele>211.0</ele><time>2026-04-26T07:46:15Z</time></trkpt><trkpt lat="43.16327882496822" lon="12.435014933242783"><ele>210.0</ele><time>2026-04-26T07:46:16Z</time></trkpt><trkpt lat="43.16342025707438" lon="12.434856169142108"><ele>209.0</ele><time>2026-04-26T07:46:17Z</time></trkpt><trkpt lat="43.16356276574512" lon="12.434692819482029"><ele>208.0</ele><time>2026-04-26T07:46:18Z</time></trkpt><trkpt lat="43.163706066561986" lon="12.434521112111636"><ele>208.0</ele><time>2026-04-26T07:46:19Z</time></trkpt><trkpt lat="43.163848663373834" lon="12.434345502878365"><ele>208.0</ele><time>2026-04-26T07:46:20Z</time></trkpt><trkpt lat="43.16398625148467" lon="12.434162058457177"><ele>208.0</ele><time>2026-04-26T07:46:21Z</time></trkpt><trkpt lat="43.164120207229914" lon="12.433968885966376"><ele>209.0</ele><time>2026-04-26T07:46:22Z</time></trkpt><trkpt lat="43.16424791166209" lon="12.433764322195199"><ele>210.0</ele><time>2026-04-26T07:46:22.999Z</time></trkpt><trkpt lat="43.164370906685306" lon="12.433554633732568"><ele>211.0</ele><time>2026-04-26T07:46:23.999Z</time></trkpt><trkpt lat="43.1644881619139" lon="12.433349675803882"><ele>211.0</ele><time>2026-04-26T07:46:24.999Z</time></trkpt><trkpt lat="43.16459299987051" lon="12.433161097840276"><ele>211.0</ele><time>2026-04-26T07:46:25.999Z</time></trkpt><trkpt lat="43.16468782058771" lon="12.432983070118354"><ele>211.0</ele><time>2026-04-26T07:46:26.999Z</time></trkpt><trkpt lat="43.164772402865985" lon="12.432797837954373"><ele>212.0</ele><time>2026-04-26T07:46:27.999Z</time></trkpt><trkpt lat="43.16484843137226" lon="12.432596664058922"><ele>213.0</ele><time>2026-04-26T07:46:28.999Z</time></trkpt><trkpt lat="43.16491310599095" lon="12.432384167989703"><ele>214.0</ele><time>2026-04-26T07:46:29.999Z</time></trkpt><trkpt lat="43.16497419395536" lon="12.432170503533754"><ele>218.0</ele><time>2026-04-26T07:46:30.999Z</time></trkpt><trkpt lat="43.165033742840585" lon="12.43195730438449"><ele>222.0</ele><time>2026-04-26T07:46:31.999Z</time></trkpt><trkpt lat="43.16509146841327" lon="12.431750488116466"><ele>226.0</ele><time>2026-04-26T07:46:32.999Z</time></trkpt><trkpt lat="43.16515551409173" lon="12.43153962705812"><ele>226.0</ele><time>2026-04-26T07:46:33.999Z</time></trkpt><trkpt lat="43.16522475597591" lon="12.431342072115429"><ele>226.0</ele><time>2026-04-26T07:46:34.999Z</time></trkpt><trkpt lat="43.165302326284866" lon="12.431164628498864"><ele>226.0</ele><time>2026-04-26T07:46:35.999Z</time></trkpt><trkpt lat="43.165392389710235" lon="12.430994745525725"><ele>222.0</ele><time>2026-04-26T07:46:36.999Z</time></trkpt><trkpt lat="43.165497736204124" lon="12.430829155469173"><ele>218.0</ele><time>2026-04-26T07:46:37.999Z</time></trkpt><trkpt lat="43.16560536330818" lon="12.430668158541447"><ele>214.0</ele><time>2026-04-26T07:46:38.999Z</time></trkpt><trkpt lat="43.16570927973358" lon="12.430507530637852"><ele>218.0</ele><time>2026-04-26T07:46:39.999Z</time></trkpt><trkpt lat="43.16581906745705" lon="12.430342359840784"><ele>222.0</ele><time>2026-04-26T07:46:40.999Z</time></trkpt><trkpt lat="43.16593050233584" lon="12.430166543539187"><ele>226.0</ele><time>2026-04-26T07:46:41.999Z</time></trkpt><trkpt lat="43.16602835803706" lon="12.429970756882854"><ele>226.0</ele><time>2026-04-26T07:46:42.999Z</time></trkpt><trkpt lat="43.1661067789217" lon="12.429769884597045"><ele>226.0</ele><time>2026-04-26T07:46:43.999Z</time></trkpt><trkpt lat="43.166195024499" lon="12.429580213014248"><ele>226.0</ele><time>2026-04-26T07:46:44.999Z</time></trkpt><trkpt lat="43.166283391832756" lon="12.429402540688683"><ele>223.0</ele><time>2026-04-26T07:46:45.999Z</time></trkpt><trkpt lat="43.16636528837473" lon="12.429218688956462"><ele>220.0</ele><time>2026-04-26T07:46:46.999Z</time></trkpt><trkpt lat="43.16644738340463" lon="12.429045535076503"><ele>217.0</ele><time>2026-04-26T07:46:47.999Z</time></trkpt><trkpt lat="43.16653154508323" lon="12.428881624042463"><ele>219.75</ele><time>2026-04-26T07:46:48.999Z</time></trkpt><trkpt lat="43.16662704049709" lon="12.42872953037459"><ele>222.5</ele><time>2026-04-26T07:46:49.999Z</time></trkpt><trkpt lat="43.16673189980387" lon="12.428588995993112"><ele>225.25</ele><time>2026-04-26T07:46:50.999Z</time></trkpt><trkpt lat="43.16684470115679" lon="12.428458088658346"><ele>228.0</ele><time>2026-04-26T07:46:51.999Z</time></trkpt><trkpt lat="43.16696628786477" lon="12.428332191712192"><ele>228.0</ele><time>2026-04-26T07:46:52.999Z</time></trkpt><trkpt lat="43.16708826833291" lon="12.428209869232447"><ele>228.0</ele><time>2026-04-26T07:46:53.999Z</time></trkpt><trkpt lat="43.16720484589659" lon="12.428092826754167"><ele>228.0</ele><time>2026-04-26T07:46:54.999Z</time></trkpt><trkpt lat="43.16731211984808" lon="12.427979444443405"><ele>228.0</ele><time>2026-04-26T07:46:55.999Z</time></trkpt><trkpt lat="43.16741048307579" lon="12.427871962286364"><ele>225.0</ele><time>2026-04-26T07:46:56.999Z</time></trkpt><trkpt lat="43.16750709289818" lon="12.427767460156684"><ele>222.0</ele><time>2026-04-26T07:46:57.999Z</time></trkpt><trkpt lat="43.16760123805598" lon="12.427668970733821"><ele>219.0</ele><time>2026-04-26T07:46:58.999Z</time></trkpt><trkpt lat="43.1676955101464" lon="12.427582146226873"><ele>216.0</ele><time>2026-04-26T07:46:59.999Z</time></trkpt><trkpt lat="43.16778118082566" lon="12.42749862645462"><ele>216.0</ele><time>2026-04-26T07:47:00.999Z</time></trkpt><trkpt lat="43.167849672707035" lon="12.427429256117524"><ele>216.0</ele><time>2026-04-26T07:47:01.999Z</time></trkpt><trkpt lat="43.167906951078606" lon="12.427372741817525"><ele>216.0</ele><time>2026-04-26T07:47:02.999Z</time></trkpt><trkpt lat="43.16797664316947" lon="12.427316200513246"><ele>216.0</ele><time>2026-04-26T07:47:04.999Z</time></trkpt><trkpt lat="43.16804249263592" lon="12.42728679251113"><ele>216.0</ele><time>2026-04-26T07:47:07.998Z</time></trkpt><trkpt lat="43.16809498627713" lon="12.427228613849593"><ele>216.0</ele><time>2026-04-26T07:47:54.997Z</time></trkpt><trkpt lat="43.16815494588242" lon="12.427121581191084"><ele>216.8</ele><time>2026-04-26T07:47:56.997Z</time></trkpt><trkpt lat="43.1682078565441" lon="12.427053602078313"><ele>217.60000000000002</ele><time>2026-04-26T07:47:57.997Z</time></trkpt><trkpt lat="43.168270890736224" lon="12.42698229639045"><ele>218.4</ele><time>2026-04-26T07:47:58.997Z</time></trkpt><trkpt lat="43.168345807381506" lon="12.42689981988968"><ele>219.2</ele><time>2026-04-26T07:47:59.997Z</time></trkpt><trkpt lat="43.168436838609644" lon="12.426809789573953"><ele>220.0</ele><time>2026-04-26T07:48:00.997Z</time></trkpt><trkpt lat="43.168530617007235" lon="12.426715831252805"><ele>220.0</ele><time>2026-04-26T07:48:01.997Z</time></trkpt><trkpt lat="43.168634751714464" lon="12.426625183270597"><ele>220.0</ele><time>2026-04-26T07:48:03Z</time></trkpt><trkpt lat="43.168752181056384" lon="12.426542065765185"><ele>220.0</ele><time>2026-04-26T07:48:04Z</time></trkpt><trkpt lat="43.16888070133091" lon="12.426463934671958"><ele>220.0</ele><time>2026-04-26T07:48:05Z</time></trkpt><trkpt lat="43.169017356819204" lon="12.426387178902509"><ele>219.0</ele><time>2026-04-26T07:48:06Z</time></trkpt><trkpt lat="43.16916026824025" lon="12.426313073272286"><ele>218.0</ele><time>2026-04-26T07:48:07Z</time></trkpt><trkpt lat="43.16930583334904" lon="12.426240409575012"><ele>217.0</ele><time>2026-04-26T07:48:08Z</time></trkpt><trkpt lat="43.169443900199425" lon="12.426170449058827"><ele>217.0</ele><time>2026-04-26T07:48:09Z</time></trkpt><trkpt lat="43.1695728459391" lon="12.426098563183258"><ele>217.0</ele><time>2026-04-26T07:48:10Z</time></trkpt><trkpt lat="43.169692985349386" lon="12.426031637762192"><ele>217.0</ele><time>2026-04-26T07:48:11Z</time></trkpt><trkpt lat="43.16980658409701" lon="12.425972507457423"><ele>217.0</ele><time>2026-04-26T07:48:12Z</time></trkpt><trkpt lat="43.16991852443739" lon="12.425929484433754"><ele>216.2</ele><time>2026-04-26T07:48:13Z</time></trkpt><trkpt lat="43.17002408410913" lon="12.425922264080087"><ele>215.39999999999998</ele><time>2026-04-26T07:48:14Z</time></trkpt><trkpt lat="43.17011854710702" lon="12.425950810950125"><ele>214.60000000000002</ele><time>2026-04-26T07:48:15Z</time></trkpt><trkpt lat="43.170200791488504" lon="12.426004418961774"><ele>213.8</ele><time>2026-04-26T07:48:16Z</time></trkpt><trkpt lat="43.170294566556976" lon="12.4260568947976"><ele>213.0</ele><time>2026-04-26T07:48:17Z</time></trkpt><trkpt lat="43.17038242126451" lon="12.426128090639908"><ele>213.0</ele><time>2026-04-26T07:48:18Z</time></trkpt><trkpt lat="43.1704626362577" lon="12.42619621582546"><ele>213.0</ele><time>2026-04-26T07:48:19Z</time></trkpt><trkpt lat="43.170523861762966" lon="12.426249472370507"><ele>213.0</ele><time>2026-04-26T07:48:20Z</time></trkpt><trkpt lat="43.17061598277715" lon="12.426327726683235"><ele>213.0</ele><time>2026-04-26T07:48:22Z</time></trkpt><trkpt lat="43.17068510765331" lon="12.426387378392736"><ele>213.0</ele><time>2026-04-26T07:48:23.999Z</time></trkpt><trkpt lat="43.170775584933615" lon="12.426470280091104"><ele>212.2</ele><time>2026-04-26T07:48:25.999Z</time></trkpt><trkpt lat="43.17087742019886" lon="12.42656905922592"><ele>211.4</ele><time>2026-04-26T07:48:27.999Z</time></trkpt><trkpt lat="43.17093680884583" lon="12.426635232178294"><ele>210.6</ele><time>2026-04-26T07:48:28.999Z</time></trkpt><trkpt lat="43.17100676044366" lon="12.426715176318385"><ele>209.79999999999998</ele><time>2026-04-26T07:48:29.999Z</time></trkpt><trkpt lat="43.17106413523817" lon="12.426796335422173"><ele>209.0</ele><time>2026-04-26T07:48:30.999Z</time></trkpt><trkpt lat="43.17111236468503" lon="12.426883961235283"><ele>209.0</ele><time>2026-04-26T07:48:31.999Z</time></trkpt><trkpt lat="43.1711520658239" lon="12.42697542203258"><ele>209.0</ele><time>2026-04-26T07:48:32.999Z</time></trkpt><trkpt lat="43.17119297835451" lon="12.427086323153022"><ele>209.0</ele><time>2026-04-26T07:48:33.999Z</time></trkpt><trkpt lat="43.17122542864501" lon="12.427208115618438"><ele>209.0</ele><time>2026-04-26T07:48:34.999Z</time></trkpt><trkpt lat="43.17125370039745" lon="12.427338331977866"><ele>209.0</ele><time>2026-04-26T07:48:35.999Z</time></trkpt><trkpt lat="43.171282097927076" lon="12.427475880100681"><ele>208.2</ele><time>2026-04-26T07:48:36.999Z</time></trkpt><trkpt lat="43.1713105670956" lon="12.427621827673775"><ele>207.39999999999998</ele><time>2026-04-26T07:48:37.999Z</time></trkpt><trkpt lat="43.17134232338628" lon="12.427776296163788"><ele>206.6</ele><time>2026-04-26T07:48:38.999Z</time></trkpt><trkpt lat="43.17136986262145" lon="12.427917676059826"><ele>205.8</ele><time>2026-04-26T07:48:39.999Z</time></trkpt><trkpt lat="43.17139244517599" lon="12.428043544681552"><ele>205.0</ele><time>2026-04-26T07:48:40.999Z</time></trkpt><trkpt lat="43.17141896385596" lon="12.42817013404964"><ele>204.8</ele><time>2026-04-26T07:48:41.999Z</time></trkpt><trkpt lat="43.17144489895837" lon="12.428305331036372"><ele>204.6</ele><time>2026-04-26T07:48:42.999Z</time></trkpt><trkpt lat="43.17146987375683" lon="12.42844654192775"><ele>204.39999999999998</ele><time>2026-04-26T07:48:43.999Z</time></trkpt><trkpt lat="43.17149340816599" lon="12.42859397242166"><ele>204.2</ele><time>2026-04-26T07:48:44.999Z</time></trkpt><trkpt lat="43.17151752456101" lon="12.428756735133383"><ele>204.0</ele><time>2026-04-26T07:48:45.999Z</time></trkpt><trkpt lat="43.17154491085138" lon="12.42892030935517"><ele>203.75</ele><time>2026-04-26T07:48:46.999Z</time></trkpt><trkpt lat="43.1715777033524" lon="12.429092781586638"><ele>203.5</ele><time>2026-04-26T07:48:47.999Z</time></trkpt><trkpt lat="43.17161151298474" lon="12.429274809038933"><ele>203.25</ele><time>2026-04-26T07:48:48.999Z</time></trkpt><trkpt lat="43.17164461351645" lon="12.42946231212862"><ele>203.0</ele><time>2026-04-26T07:48:49.999Z</time></trkpt><trkpt lat="43.17167798261476" lon="12.429648895017358"><ele>203.75</ele><time>2026-04-26T07:48:50.999Z</time></trkpt><trkpt lat="43.17171077752146" lon="12.42983305990938"><ele>204.5</ele><time>2026-04-26T07:48:51.999Z</time></trkpt><trkpt lat="43.171742920769866" lon="12.43000585159599"><ele>205.25</ele><time>2026-04-26T07:48:52.999Z</time></trkpt><trkpt lat="43.17178190072575" lon="12.430168393383362"><ele>206.0</ele><time>2026-04-26T07:48:53.999Z</time></trkpt><trkpt lat="43.17183263550045" lon="12.430316199141071"><ele>206.0</ele><time>2026-04-26T07:48:54.999Z</time></trkpt><trkpt lat="43.17191548160508" lon="12.43043350561139"><ele>206.0</ele><time>2026-04-26T07:48:55.999Z</time></trkpt><trkpt lat="43.17202108947106" lon="12.430523040282067"><ele>206.0</ele><time>2026-04-26T07:48:56.999Z</time></trkpt><trkpt lat="43.17214260666239" lon="12.430584472377324"><ele>206.0</ele><time>2026-04-26T07:48:57.999Z</time></trkpt><trkpt lat="43.172270273065905" lon="12.430601384638058"><ele>206.0</ele><time>2026-04-26T07:48:58.999Z</time></trkpt><trkpt lat="43.17239689280891" lon="12.430574765693356"><ele>206.0</ele><time>2026-04-26T07:48:59.999Z</time></trkpt><trkpt lat="43.17252895521478" lon="12.43052102368133"><ele>206.0</ele><time>2026-04-26T07:49:00.999Z</time></trkpt><trkpt lat="43.17266797917265" lon="12.430482576318562"><ele>206.0</ele><time>2026-04-26T07:49:01.999Z</time></trkpt><trkpt lat="43.17280953845259" lon="12.430432484583697"><ele>206.66666666666669</ele><time>2026-04-26T07:49:02.999Z</time></trkpt><trkpt lat="43.172955177808" lon="12.430382765096265"><ele>207.33333333333331</ele><time>2026-04-26T07:49:03.999Z</time></trkpt><trkpt lat="43.17310472442863" lon="12.430333564889208"><ele>208.0</ele><time>2026-04-26T07:49:04.999Z</time></trkpt><trkpt lat="43.17325286323095" lon="12.430285536935184"><ele>208.25</ele><time>2026-04-26T07:49:05.999Z</time></trkpt><trkpt lat="43.17339314791746" lon="12.430239035654965"><ele>208.5</ele><time>2026-04-26T07:49:06.999Z</time></trkpt><trkpt lat="43.1735284038532" lon="12.4301954603154"><ele>208.75</ele><time>2026-04-26T07:49:07.999Z</time></trkpt><trkpt lat="43.17365842537977" lon="12.430140238995161"><ele>209.0</ele><time>2026-04-26T07:49:08.999Z</time></trkpt><trkpt lat="43.17377777972881" lon="12.43005997969874"><ele>209.0</ele><time>2026-04-26T07:49:09.999Z</time></trkpt><trkpt lat="43.17388609496236" lon="12.429959019543968"><ele>209.0</ele><time>2026-04-26T07:49:10.998Z</time></trkpt><trkpt lat="43.17399520149248" lon="12.429863469337198"><ele>209.0</ele><time>2026-04-26T07:49:11.998Z</time></trkpt><trkpt lat="43.17408880683958" lon="12.429748757667259"><ele>209.0</ele><time>2026-04-26T07:49:12.998Z</time></trkpt><trkpt lat="43.17416338087843" lon="12.429627614711418"><ele>209.00000000000003</ele><time>2026-04-26T07:49:13.998Z</time></trkpt><trkpt lat="43.174251346836556" lon="12.429552487192783"><ele>209.0</ele><time>2026-04-26T07:49:14.998Z</time></trkpt><trkpt lat="43.17432962712165" lon="12.429516178357458"><ele>209.0</ele><time>2026-04-26T07:49:15.998Z</time></trkpt><trkpt lat="43.17440006919355" lon="12.429521769479305"><ele>209.0</ele><time>2026-04-26T07:49:16.998Z</time></trkpt><trkpt lat="43.17446189822616" lon="12.429564159529301"><ele>209.00000000000003</ele><time>2026-04-26T07:49:17.998Z</time></trkpt><trkpt lat="43.174511289539" lon="12.429628194552294"><ele>209.0</ele><time>2026-04-26T07:49:18.998Z</time></trkpt><trkpt lat="43.174552837590845" lon="12.429712797914082"><ele>209.0</ele><time>2026-04-26T07:49:19.998Z</time></trkpt><trkpt lat="43.174612538595724" lon="12.429791846754428"><ele>209.0</ele><time>2026-04-26T07:49:20.998Z</time></trkpt><trkpt lat="43.174674430762174" lon="12.429884984439418"><ele>209.0</ele><time>2026-04-26T07:49:21.998Z</time></trkpt><trkpt lat="43.17474302824444" lon="12.429987633532997"><ele>209.0</ele><time>2026-04-26T07:49:22.998Z</time></trkpt><trkpt lat="43.17481676710574" lon="12.430103559305897"><ele>209.0</ele><time>2026-04-26T07:49:23.998Z</time></trkpt><trkpt lat="43.174894579195744" lon="12.43023524981323"><ele>208.75</ele><time>2026-04-26T07:49:24.998Z</time></trkpt><trkpt lat="43.1749615964068" lon="12.430353711041843"><ele>208.5</ele><time>2026-04-26T07:49:25.998Z</time></trkpt><trkpt lat="43.17502998013994" lon="12.430479118727908"><ele>208.25</ele><time>2026-04-26T07:49:26.998Z</time></trkpt><trkpt lat="43.175100820211235" lon="12.43059984458954"><ele>208.0</ele><time>2026-04-26T07:49:27.998Z</time></trkpt><trkpt lat="43.175176735048936" lon="12.430715038158938"><ele>208.5</ele><time>2026-04-26T07:49:28.998Z</time></trkpt><trkpt lat="43.175251524503366" lon="12.430832604602369"><ele>209.0</ele><time>2026-04-26T07:49:29.998Z</time></trkpt><trkpt lat="43.1753269520092" lon="12.430963499741534"><ele>209.5</ele><time>2026-04-26T07:49:30.998Z</time></trkpt><trkpt lat="43.17540394908987" lon="12.431099841152216"><ele>210.0</ele><time>2026-04-26T07:49:31.998Z</time></trkpt><trkpt lat="43.17548770796512" lon="12.431235732063914"><ele>210.25</ele><time>2026-04-26T07:49:32.998Z</time></trkpt><trkpt lat="43.175574334680974" lon="12.431378038151035"><ele>210.5</ele><time>2026-04-26T07:49:33.998Z</time></trkpt><trkpt lat="43.1756636666192" lon="12.431523055231212"><ele>210.75</ele><time>2026-04-26T07:49:34.998Z</time></trkpt><trkpt lat="43.17575647656757" lon="12.431669241943835"><ele>211.0</ele><time>2026-04-26T07:49:35.998Z</time></trkpt><trkpt lat="43.175850643447" lon="12.431817145591191"><ele>211.0</ele><time>2026-04-26T07:49:36.998Z</time></trkpt><trkpt lat="43.17594416996933" lon="12.431970798168125"><ele>211.0</ele><time>2026-04-26T07:49:37.998Z</time></trkpt><trkpt lat="43.17603957390886" lon="12.43212923199686"><ele>211.0</ele><time>2026-04-26T07:49:38.998Z</time></trkpt><trkpt lat="43.17613690325892" lon="12.43228983344931"><ele>211.0</ele><time>2026-04-26T07:49:39.998Z</time></trkpt><trkpt lat="43.17623863745905" lon="12.432450586134532"><ele>211.0</ele><time>2026-04-26T07:49:40.998Z</time></trkpt><trkpt lat="43.17633054675709" lon="12.432598293689155"><ele>211.0</ele><time>2026-04-26T07:49:41.998Z</time></trkpt><trkpt lat="43.17642809712503" lon="12.432755630698365"><ele>211.0</ele><time>2026-04-26T07:49:42.998Z</time></trkpt><trkpt lat="43.17652321601484" lon="12.432910003145324"><ele>211.0</ele><time>2026-04-26T07:49:43.998Z</time></trkpt><trkpt lat="43.17660742888616" lon="12.433043219874566"><ele>211.5</ele><time>2026-04-26T07:49:44.998Z</time></trkpt><trkpt lat="43.176687322522945" lon="12.433168660644622"><ele>212.0</ele><time>2026-04-26T07:49:45.998Z</time></trkpt><trkpt lat="43.17676889206648" lon="12.433307219125012"><ele>212.5</ele><time>2026-04-26T07:49:46.998Z</time></trkpt><trkpt lat="43.17685338247521" lon="12.433449200499991"><ele>213.0</ele><time>2026-04-26T07:49:47.998Z</time></trkpt><trkpt lat="43.17694029997973" lon="12.433593917687189"><ele>213.0</ele><time>2026-04-26T07:49:48.998Z</time></trkpt><trkpt lat="43.177030089645015" lon="12.433742035468741"><ele>213.0</ele><time>2026-04-26T07:49:49.998Z</time></trkpt><trkpt lat="43.17712406835276" lon="12.433895112209695"><ele>213.0</ele><time>2026-04-26T07:49:50.998Z</time></trkpt><trkpt lat="43.177216995054756" lon="12.434046165200568"><ele>213.0</ele><time>2026-04-26T07:49:51.998Z</time></trkpt><trkpt lat="43.177306290115986" lon="12.434187881888668"><ele>213.0</ele><time>2026-04-26T07:49:52.998Z</time></trkpt><trkpt lat="43.17738561753584" lon="12.434315752617625"><ele>213.0</ele><time>2026-04-26T07:49:53.998Z</time></trkpt><trkpt lat="43.177463724333236" lon="12.434438374350483"><ele>213.0</ele><time>2026-04-26T07:49:54.998Z</time></trkpt><trkpt lat="43.1775362538598" lon="12.434555180027825"><ele>213.0</ele><time>2026-04-26T07:49:55.997Z</time></trkpt><trkpt lat="43.1776194821329" lon="12.434702596009165"><ele>213.0</ele><time>2026-04-26T07:49:56.997Z</time></trkpt><trkpt lat="43.177696747177194" lon="12.434836810317016"><ele>213.0</ele><time>2026-04-26T07:49:57.997Z</time></trkpt><trkpt lat="43.17778402920794" lon="12.434986875265404"><ele>213.0</ele><time>2026-04-26T07:49:58.997Z</time></trkpt><trkpt lat="43.17787727050323" lon="12.435147261230291"><ele>213.0</ele><time>2026-04-26T07:49:59.997Z</time></trkpt><trkpt lat="43.17798088327319" lon="12.435323552500302"><ele>213.0</ele><time>2026-04-26T07:50:00.997Z</time></trkpt><trkpt lat="43.17809164960555" lon="12.435508368076123"><ele>213.0</ele><time>2026-04-26T07:50:01.997Z</time></trkpt><trkpt lat="43.17821004765024" lon="12.435699694188054"><ele>213.0</ele><time>2026-04-26T07:50:02.997Z</time></trkpt><trkpt lat="43.178336470198246" lon="12.43589916516464"><ele>213.33333333333331</ele><time>2026-04-26T07:50:03.997Z</time></trkpt><trkpt lat="43.17846984684911" lon="12.43611764570742"><ele>213.66666666666666</ele><time>2026-04-26T07:50:04.997Z</time></trkpt><trkpt lat="43.17859978218071" lon="12.436332172393895"><ele>214.0</ele><time>2026-04-26T07:50:05.997Z</time></trkpt><trkpt lat="43.17873464364321" lon="12.436548491988864"><ele>214.33333333333331</ele><time>2026-04-26T07:50:06.997Z</time></trkpt><trkpt lat="43.178872495430554" lon="12.436765603387437"><ele>214.66666666666669</ele><time>2026-04-26T07:50:07.997Z</time></trkpt><trkpt lat="43.179010370059004" lon="12.436989442903117"><ele>215.0</ele><time>2026-04-26T07:50:09Z</time></trkpt><trkpt lat="43.17914685965111" lon="12.43721260060988"><ele>216.0</ele><time>2026-04-26T07:50:10Z</time></trkpt><trkpt lat="43.17928806065535" lon="12.437440645311597"><ele>217.0</ele><time>2026-04-26T07:50:11Z</time></trkpt><trkpt lat="43.17943412507098" lon="12.437665963977759"><ele>218.0</ele><time>2026-04-26T07:50:12Z</time></trkpt><trkpt lat="43.17958124271895" lon="12.437897263917383"><ele>218.5</ele><time>2026-04-26T07:50:13Z</time></trkpt><trkpt lat="43.17972943923603" lon="12.438132139633844"><ele>219.0</ele><time>2026-04-26T07:50:14Z</time></trkpt><trkpt lat="43.17987858013127" lon="12.438371317866752"><ele>218.0</ele><time>2026-04-26T07:50:15Z</time></trkpt><trkpt lat="43.18002513215277" lon="12.438608061517478"><ele>217.0</ele><time>2026-04-26T07:50:16Z</time></trkpt><trkpt lat="43.180168694242695" lon="12.438839480111739"><ele>216.0</ele><time>2026-04-26T07:50:17Z</time></trkpt><trkpt lat="43.18031095311195" lon="12.439068592642265"><ele>216.0</ele><time>2026-04-26T07:50:18Z</time></trkpt><trkpt lat="43.18045293709111" lon="12.4392934193079"><ele>216.0</ele><time>2026-04-26T07:50:19Z</time></trkpt><trkpt lat="43.18059231052117" lon="12.439516038088659"><ele>216.0</ele><time>2026-04-26T07:50:20Z</time></trkpt><trkpt lat="43.18072842653724" lon="12.439736899657573"><ele>217.33333333333331</ele><time>2026-04-26T07:50:21Z</time></trkpt><trkpt lat="43.180863903969694" lon="12.43995565521044"><ele>218.66666666666666</ele><time>2026-04-26T07:50:22Z</time></trkpt><trkpt lat="43.18099200276097" lon="12.440162698484029"><ele>220.0</ele><time>2026-04-26T07:50:23Z</time></trkpt><trkpt lat="43.1811173547078" lon="12.440367763564206"><ele>218.66666666666666</ele><time>2026-04-26T07:50:24Z</time></trkpt><trkpt lat="43.181241439992405" lon="12.440567221082489"><ele>217.33333333333331</ele><time>2026-04-26T07:50:25Z</time></trkpt><trkpt lat="43.18136694354201" lon="12.440762833271254"><ele>216.0</ele><time>2026-04-26T07:50:26Z</time></trkpt><trkpt lat="43.18150303655885" lon="12.440980908294422"><ele>216.66666666666669</ele><time>2026-04-26T07:50:27Z</time></trkpt><trkpt lat="43.18162480618121" lon="12.441182921934558"><ele>217.33333333333334</ele><time>2026-04-26T07:50:28Z</time></trkpt><trkpt lat="43.18174268426642" lon="12.441380950826856"><ele>218.0</ele><time>2026-04-26T07:50:29Z</time></trkpt><trkpt lat="43.181860411379866" lon="12.441575725653571"><ele>218.0</ele><time>2026-04-26T07:50:29.999Z</time></trkpt><trkpt lat="43.181977267775416" lon="12.441766633502347"><ele>218.0</ele><time>2026-04-26T07:50:30.999Z</time></trkpt><trkpt lat="43.18209222851736" lon="12.441954268210328"><ele>218.0</ele><time>2026-04-26T07:50:31.999Z</time></trkpt><trkpt lat="43.182204227443876" lon="12.44213782164359"><ele>218.0</ele><time>2026-04-26T07:50:32.999Z</time></trkpt><trkpt lat="43.182307685749144" lon="12.44230762387364"><ele>218.0</ele><time>2026-04-26T07:50:33.999Z</time></trkpt><trkpt lat="43.18240625236644" lon="12.442468124767753"><ele>218.0</ele><time>2026-04-26T07:50:34.999Z</time></trkpt><trkpt lat="43.182502285332426" lon="12.442624102001638"><ele>218.25</ele><time>2026-04-26T07:50:35.999Z</time></trkpt><trkpt lat="43.18259394775655" lon="12.442771681134378"><ele>218.5</ele><time>2026-04-26T07:50:36.999Z</time></trkpt><trkpt lat="43.18268186522661" lon="12.442915550982056"><ele>218.75</ele><time>2026-04-26T07:50:37.999Z</time></trkpt><trkpt lat="43.18276810859981" lon="12.443056815988262"><ele>219.0</ele><time>2026-04-26T07:50:38.999Z</time></trkpt><trkpt lat="43.182856451633285" lon="12.443192956686298"><ele>219.75</ele><time>2026-04-26T07:50:39.999Z</time></trkpt><trkpt lat="43.182948859561165" lon="12.443338033178623"><ele>220.5</ele><time>2026-04-26T07:50:40.999Z</time></trkpt><trkpt lat="43.18304458391326" lon="12.443493157543932"><ele>221.25</ele><time>2026-04-26T07:50:41.999Z</time></trkpt><trkpt lat="43.18314240522888" lon="12.44365555312654"><ele>222.0</ele><time>2026-04-26T07:50:42.999Z</time></trkpt><trkpt lat="43.18324429320824" lon="12.443822827951742"><ele>222.5</ele><time>2026-04-26T07:50:43.999Z</time></trkpt><trkpt lat="43.18334193537994" lon="12.443982002950358"><ele>223.0</ele><time>2026-04-26T07:50:44.999Z</time></trkpt><trkpt lat="43.183437531591686" lon="12.444136658765874"><ele>223.5</ele><time>2026-04-26T07:50:45.999Z</time></trkpt><trkpt lat="43.18352590936974" lon="12.444280777651175"><ele>224.0</ele><time>2026-04-26T07:50:46.999Z</time></trkpt><trkpt lat="43.18360801849248" lon="12.444415196613281"><ele>224.0</ele><time>2026-04-26T07:50:47.999Z</time></trkpt><trkpt lat="43.183684171967634" lon="12.44454143022714"><ele>224.0</ele><time>2026-04-26T07:50:48.999Z</time></trkpt><trkpt lat="43.18375817830371" lon="12.444664605002693"><ele>224.0</ele><time>2026-04-26T07:50:49.999Z</time></trkpt><trkpt lat="43.1838308075224" lon="12.444785173776658"><ele>224.0</ele><time>2026-04-26T07:50:50.999Z</time></trkpt><trkpt lat="43.183904192015945" lon="12.444902618083088"><ele>224.0</ele><time>2026-04-26T07:50:51.999Z</time></trkpt><trkpt lat="43.18397950251618" lon="12.445020104335457"><ele>224.0</ele><time>2026-04-26T07:50:52.999Z</time></trkpt><trkpt lat="43.18405662510045" lon="12.445143158740892"><ele>224.0</ele><time>2026-04-26T07:50:53.999Z</time></trkpt><trkpt lat="43.184136022946625" lon="12.445271866915244"><ele>224.0</ele><time>2026-04-26T07:50:54.999Z</time></trkpt><trkpt lat="43.184217283237004" lon="12.445401607097704"><ele>224.5</ele><time>2026-04-26T07:50:55.999Z</time></trkpt><trkpt lat="43.18430076978527" lon="12.445538198428414"><ele>225.0</ele><time>2026-04-26T07:50:56.999Z</time></trkpt><trkpt lat="43.184382304316436" lon="12.445673157511212"><ele>225.5</ele><time>2026-04-26T07:50:57.999Z</time></trkpt><trkpt lat="43.18445831334477" lon="12.445800752989788"><ele>226.0</ele><time>2026-04-26T07:50:58.999Z</time></trkpt><trkpt lat="43.18453404568787" lon="12.445926120599767"><ele>226.0</ele><time>2026-04-26T07:50:59.999Z</time></trkpt><trkpt lat="43.18460641212409" lon="12.44604526940732"><ele>226.0</ele><time>2026-04-26T07:51:00.999Z</time></trkpt><trkpt lat="43.18468114076095" lon="12.446164646270464"><ele>226.0</ele><time>2026-04-26T07:51:01.999Z</time></trkpt><trkpt lat="43.18475669223838" lon="12.446287321411651"><ele>226.0</ele><time>2026-04-26T07:51:02.999Z</time></trkpt><trkpt lat="43.184826869608756" lon="12.446404496552969"><ele>226.20000000000002</ele><time>2026-04-26T07:51:03.999Z</time></trkpt><trkpt lat="43.18489472236369" lon="12.446514898509024"><ele>226.40000000000003</ele><time>2026-04-26T07:51:04.999Z</time></trkpt><trkpt lat="43.18496095580549" lon="12.446626783361003"><ele>226.6</ele><time>2026-04-26T07:51:05.999Z</time></trkpt><trkpt lat="43.18502544451998" lon="12.446736308727205"><ele>226.8</ele><time>2026-04-26T07:51:06.999Z</time></trkpt><trkpt lat="43.1850906095251" lon="12.446845344118683"><ele>227.0</ele><time>2026-04-26T07:51:07.999Z</time></trkpt><trkpt lat="43.18515623542829" lon="12.446956320254824"><ele>227.0</ele><time>2026-04-26T07:51:08.999Z</time></trkpt><trkpt lat="43.18521987426083" lon="12.447070310571453"><ele>227.0</ele><time>2026-04-26T07:51:09.999Z</time></trkpt><trkpt lat="43.18527674655088" lon="12.447189360952619"><ele>227.0</ele><time>2026-04-26T07:51:10.999Z</time></trkpt><trkpt lat="43.1853202756317" lon="12.44731381358544"><ele>227.0</ele><time>2026-04-26T07:51:11.999Z</time></trkpt><trkpt lat="43.1853467467735" lon="12.447439402704351"><ele>227.0</ele><time>2026-04-26T07:51:12.999Z</time></trkpt><trkpt lat="43.185359942094735" lon="12.447565701015042"><ele>227.2</ele><time>2026-04-26T07:51:13.999Z</time></trkpt><trkpt lat="43.18535807092081" lon="12.447695034398954"><ele>227.39999999999998</ele><time>2026-04-26T07:51:14.999Z</time></trkpt><trkpt lat="43.18534512858591" lon="12.447827142332953"><ele>227.60000000000002</ele><time>2026-04-26T07:51:15.998Z</time></trkpt><trkpt lat="43.1853253421683" lon="12.447967538920329"><ele>227.8</ele><time>2026-04-26T07:51:16.998Z</time></trkpt><trkpt lat="43.18530908319921" lon="12.44810515677825"><ele>228.0</ele><time>2026-04-26T07:51:17.998Z</time></trkpt><trkpt lat="43.18529451651474" lon="12.448231533574726"><ele>228.33333333333334</ele><time>2026-04-26T07:51:18.998Z</time></trkpt><trkpt lat="43.18528317458848" lon="12.448354608735878"><ele>228.66666666666669</ele><time>2026-04-26T07:51:19.998Z</time></trkpt><trkpt lat="43.1852865229859" lon="12.448469612079043"><ele>229.0</ele><time>2026-04-26T07:51:20.998Z</time></trkpt><trkpt lat="43.18530790767536" lon="12.448587263833799"><ele>229.33333333333334</ele><time>2026-04-26T07:51:21.998Z</time></trkpt><trkpt lat="43.18535178087825" lon="12.448693458098811"><ele>229.66666666666669</ele><time>2026-04-26T07:51:22.998Z</time></trkpt><trkpt lat="43.18541721096679" lon="12.448782874396436"><ele>230.0</ele><time>2026-04-26T07:51:23.998Z</time></trkpt><trkpt lat="43.1854849842353" lon="12.44886637879515"><ele>230.4</ele><time>2026-04-26T07:51:24.998Z</time></trkpt><trkpt lat="43.18555593879556" lon="12.448942852227246"><ele>230.8</ele><time>2026-04-26T07:51:25.998Z</time></trkpt><trkpt lat="43.18562640969063" lon="12.449015028997987"><ele>231.2</ele><time>2026-04-26T07:51:26.998Z</time></trkpt><trkpt lat="43.185698152745324" lon="12.449090987481696"><ele>231.6</ele><time>2026-04-26T07:51:27.998Z</time></trkpt><trkpt lat="43.18577170807577" lon="12.449171414814957"><ele>232.0</ele><time>2026-04-26T07:51:28.998Z</time></trkpt><trkpt lat="43.185852981350365" lon="12.449261437045733"><ele>232.2</ele><time>2026-04-26T07:51:29.998Z</time></trkpt><trkpt lat="43.18593522319613" lon="12.449349817886016"><ele>232.39999999999998</ele><time>2026-04-26T07:51:30.998Z</time></trkpt><trkpt lat="43.18601648932164" lon="12.449433879274071"><ele>232.60000000000002</ele><time>2026-04-26T07:51:31.998Z</time></trkpt><trkpt lat="43.18609182116748" lon="12.44951305865469"><ele>232.8</ele><time>2026-04-26T07:51:32.998Z</time></trkpt><trkpt lat="43.18616259767233" lon="12.449588032493208"><ele>233.0</ele><time>2026-04-26T07:51:33.998Z</time></trkpt><trkpt lat="43.18623114716957" lon="12.44966053837978"><ele>233.50000000000003</ele><time>2026-04-26T07:51:34.998Z</time></trkpt><trkpt lat="43.18629535663563" lon="12.449730006691418"><ele>234.0</ele><time>2026-04-26T07:51:35.998Z</time></trkpt><trkpt lat="43.186358897069994" lon="12.449796914883928"><ele>234.5</ele><time>2026-04-26T07:51:36.998Z</time></trkpt><trkpt lat="43.18641959200549" lon="12.44986002837003"><ele>235.0</ele><time>2026-04-26T07:51:37.998Z</time></trkpt><trkpt lat="43.18647900806093" lon="12.44992261004488"><ele>235.50000000000003</ele><time>2026-04-26T07:51:38.998Z</time></trkpt><trkpt lat="43.186535544943844" lon="12.449984778183882"><ele>236.0</ele><time>2026-04-26T07:51:39.998Z</time></trkpt><trkpt lat="43.18659456030913" lon="12.450049584478377"><ele>236.16666666666669</ele><time>2026-04-26T07:51:40.998Z</time></trkpt><trkpt lat="43.18665552920481" lon="12.450115874994744"><ele>236.33333333333334</ele><time>2026-04-26T07:51:41.998Z</time></trkpt><trkpt lat="43.18671955575393" lon="12.450184259311294"><ele>236.5</ele><time>2026-04-26T07:51:42.998Z</time></trkpt><trkpt lat="43.1867873485276" lon="12.45025169190197"><ele>236.66666666666669</ele><time>2026-04-26T07:51:43.998Z</time></trkpt><trkpt lat="43.18685768914776" lon="12.450319552558959"><ele>236.83333333333334</ele><time>2026-04-26T07:51:44.998Z</time></trkpt><trkpt lat="43.186928216987425" lon="12.450392579274194"><ele>237.0</ele><time>2026-04-26T07:51:45.998Z</time></trkpt><trkpt lat="43.1869971287883" lon="12.450470207929547"><ele>237.0</ele><time>2026-04-26T07:51:46.998Z</time></trkpt><trkpt lat="43.18706697908642" lon="12.450549676118415"><ele>237.0</ele><time>2026-04-26T07:51:47.998Z</time></trkpt><trkpt lat="43.187132495492804" lon="12.450618585939322"><ele>237.0</ele><time>2026-04-26T07:51:48.998Z</time></trkpt><trkpt lat="43.18720026965839" lon="12.450690108012097"><ele>237.0</ele><time>2026-04-26T07:51:49.998Z</time></trkpt><trkpt lat="43.187263609394314" lon="12.450760781928823"><ele>237.0</ele><time>2026-04-26T07:51:50.998Z</time></trkpt><trkpt lat="43.187333277560725" lon="12.45083544462586"><ele>237.0</ele><time>2026-04-26T07:51:51.998Z</time></trkpt><trkpt lat="43.18739170960772" lon="12.450897649265771"><ele>237.83333333333334</ele><time>2026-04-26T07:51:52.998Z</time></trkpt><trkpt lat="43.187471522308805" lon="12.451015917217523"><ele>238.66666666666669</ele><time>2026-04-26T07:51:54.998Z</time></trkpt><trkpt lat="43.18751512950362" lon="12.451126886471277"><ele>239.5</ele><time>2026-04-26T07:51:56.998Z</time></trkpt><trkpt lat="43.1875421897017" lon="12.451212580831829"><ele>240.33333333333334</ele><time>2026-04-26T07:51:58.998Z</time></trkpt><trkpt lat="43.18752009435232" lon="12.451332169309232"><ele>241.16666666666669</ele><time>2026-04-26T07:52:00.997Z</time></trkpt><trkpt lat="43.18746886726722" lon="12.451395005894113"><ele>242.0</ele><time>2026-04-26T07:52:01.997Z</time></trkpt><trkpt lat="43.187408557977506" lon="12.45144982096739"><ele>241.2</ele><time>2026-04-26T07:52:02.997Z</time></trkpt><trkpt lat="43.18733899161978" lon="12.45150599583545"><ele>240.39999999999998</ele><time>2026-04-26T07:52:03.997Z</time></trkpt><trkpt lat="43.187257476266" lon="12.451567916703162"><ele>239.60000000000002</ele><time>2026-04-26T07:52:04.997Z</time></trkpt><trkpt lat="43.18717413879214" lon="12.451626734186064"><ele>238.8</ele><time>2026-04-26T07:52:05.997Z</time></trkpt><trkpt lat="43.187090985524286" lon="12.451681454409925"><ele>238.0</ele><time>2026-04-26T07:52:06.997Z</time></trkpt><trkpt lat="43.186996492381056" lon="12.451741091679247"><ele>238.0</ele><time>2026-04-26T07:52:07.997Z</time></trkpt><trkpt lat="43.18688500048717" lon="12.451790610211749"><ele>238.0</ele><time>2026-04-26T07:52:08.997Z</time></trkpt><trkpt lat="43.18676213924173" lon="12.451859342846296"><ele>238.0</ele><time>2026-04-26T07:52:09.997Z</time></trkpt><trkpt lat="43.18663015364026" lon="12.451932604053631"><ele>238.0</ele><time>2026-04-26T07:52:10.997Z</time></trkpt><trkpt lat="43.18648921934471" lon="12.452027542766864"><ele>237.0</ele><time>2026-04-26T07:52:11.997Z</time></trkpt><trkpt lat="43.18633536206876" lon="12.45210417251498"><ele>236.0</ele><time>2026-04-26T07:52:12.997Z</time></trkpt><trkpt lat="43.18618143470422" lon="12.452185197669552"><ele>235.0</ele><time>2026-04-26T07:52:13.997Z</time></trkpt><trkpt lat="43.186030057811884" lon="12.452266864692543"><ele>235.0</ele><time>2026-04-26T07:52:15Z</time></trkpt><trkpt lat="43.18587483400977" lon="12.452352731304723"><ele>235.0</ele><time>2026-04-26T07:52:16Z</time></trkpt><trkpt lat="43.1857204061959" lon="12.452440189730268"><ele>235.0</ele><time>2026-04-26T07:52:17Z</time></trkpt><trkpt lat="43.18556811030398" lon="12.452527219913016"><ele>233.66666666666666</ele><time>2026-04-26T07:52:18Z</time></trkpt><trkpt lat="43.18542144284728" lon="12.45261451559642"><ele>232.33333333333331</ele><time>2026-04-26T07:52:19Z</time></trkpt><trkpt lat="43.18528152264182" lon="12.45270977661285"><ele>231.0</ele><time>2026-04-26T07:52:20Z</time></trkpt><trkpt lat="43.18514949293143" lon="12.452817574072869"><ele>231.0</ele><time>2026-04-26T07:52:21Z</time></trkpt><trkpt lat="43.18502646592127" lon="12.452954768950438"><ele>231.0</ele><time>2026-04-26T07:52:22Z</time></trkpt><trkpt lat="43.18491337327279" lon="12.4531134846974"><ele>231.0</ele><time>2026-04-26T07:52:23Z</time></trkpt><trkpt lat="43.18480749672815" lon="12.453286746170663"><ele>230.33333333333331</ele><time>2026-04-26T07:52:24Z</time></trkpt><trkpt lat="43.184699621804334" lon="12.453470795415393"><ele>229.66666666666666</ele><time>2026-04-26T07:52:25Z</time></trkpt><trkpt lat="43.184588048776156" lon="12.453660213622564"><ele>229.0</ele><time>2026-04-26T07:52:26Z</time></trkpt><trkpt lat="43.184469823629776" lon="12.453859553056608"><ele>229.0</ele><time>2026-04-26T07:52:27Z</time></trkpt><trkpt lat="43.18434523537252" lon="12.454065972623212"><ele>229.0</ele><time>2026-04-26T07:52:28Z</time></trkpt><trkpt lat="43.18422146881221" lon="12.454271779641525"><ele>229.0</ele><time>2026-04-26T07:52:29Z</time></trkpt><trkpt lat="43.18409282081882" lon="12.454486827780075"><ele>227.33333333333331</ele><time>2026-04-26T07:52:30Z</time></trkpt><trkpt lat="43.183956930501516" lon="12.454706286985285"><ele>225.66666666666669</ele><time>2026-04-26T07:52:31Z</time></trkpt><trkpt lat="43.18381620738363" lon="12.454930486186383"><ele>224.0</ele><time>2026-04-26T07:52:32Z</time></trkpt><trkpt lat="43.1836709694668" lon="12.455155802888324"><ele>224.0</ele><time>2026-04-26T07:52:33Z</time></trkpt><trkpt lat="43.183516957733154" lon="12.455376576822971"><ele>224.0</ele><time>2026-04-26T07:52:34Z</time></trkpt><trkpt lat="43.183349635548474" lon="12.455577823054563"><ele>224.0</ele><time>2026-04-26T07:52:35Z</time></trkpt><trkpt lat="43.183171746387615" lon="12.455762401243152"><ele>225.0</ele><time>2026-04-26T07:52:36Z</time></trkpt><trkpt lat="43.18298880560336" lon="12.455942735022834"><ele>226.0</ele><time>2026-04-26T07:52:37Z</time></trkpt><trkpt lat="43.18280375627075" lon="12.456124625893775"><ele>227.0</ele><time>2026-04-26T07:52:38Z</time></trkpt><trkpt lat="43.18262941487632" lon="12.456301399257244"><ele>228.0</ele><time>2026-04-26T07:52:38.999Z</time></trkpt><trkpt lat="43.18246876800352" lon="12.456454494337201"><ele>229.0</ele><time>2026-04-26T07:52:39.999Z</time></trkpt><trkpt lat="43.182321723794445" lon="12.456591675598286"><ele>229.5</ele><time>2026-04-26T07:52:40.999Z</time></trkpt><trkpt lat="43.18218851636098" lon="12.456711470814051"><ele>230.0</ele><time>2026-04-26T07:52:41.999Z</time></trkpt><trkpt lat="43.18206608569155" lon="12.456812681892368"><ele>230.5</ele><time>2026-04-26T07:52:42.999Z</time></trkpt><trkpt lat="43.18194404692397" lon="12.456897764129883"><ele>231.0</ele><time>2026-04-26T07:52:43.999Z</time></trkpt><trkpt lat="43.18182334604979" lon="12.456965340247278"><ele>231.0</ele><time>2026-04-26T07:52:44.999Z</time></trkpt><trkpt lat="43.18170544913587" lon="12.457027111745603"><ele>231.0</ele><time>2026-04-26T07:52:45.999Z</time></trkpt><trkpt lat="43.181593388037065" lon="12.45708475799086"><ele>231.0</ele><time>2026-04-26T07:52:46.999Z</time></trkpt><trkpt lat="43.18148607699602" lon="12.457141367422041"><ele>231.0</ele><time>2026-04-26T07:52:47.999Z</time></trkpt><trkpt lat="43.18137539624331" lon="12.457200674062435"><ele>232.75</ele><time>2026-04-26T07:52:48.999Z</time></trkpt><trkpt lat="43.1812582464315" lon="12.457261374941432"><ele>234.5</ele><time>2026-04-26T07:52:49.999Z</time></trkpt><trkpt lat="43.18113518512671" lon="12.457322732174562"><ele>236.25</ele><time>2026-04-26T07:52:50.999Z</time></trkpt><trkpt lat="43.18100482090777" lon="12.457392461748372"><ele>238.0</ele><time>2026-04-26T07:52:51.999Z</time></trkpt><trkpt lat="43.18086783305971" lon="12.457472902605721"><ele>238.0</ele><time>2026-04-26T07:52:52.999Z</time></trkpt><trkpt lat="43.18072061418549" lon="12.457554498809598"><ele>238.0</ele><time>2026-04-26T07:52:53.999Z</time></trkpt><trkpt lat="43.180562944542565" lon="12.457645124434727"><ele>238.0</ele><time>2026-04-26T07:52:54.999Z</time></trkpt><trkpt lat="43.18040075150215" lon="12.457741924609213"><ele>237.33333333333331</ele><time>2026-04-26T07:52:55.999Z</time></trkpt><trkpt lat="43.180235712811225" lon="12.457841724266672"><ele>236.66666666666669</ele><time>2026-04-26T07:52:56.999Z</time></trkpt><trkpt lat="43.18008293707798" lon="12.457933558750419"><ele>236.0</ele><time>2026-04-26T07:52:57.999Z</time></trkpt><trkpt lat="43.1799423102198" lon="12.458018104126413"><ele>234.75</ele><time>2026-04-26T07:52:58.999Z</time></trkpt><trkpt lat="43.17981149362903" lon="12.458092307075715"><ele>233.5</ele><time>2026-04-26T07:52:59.999Z</time></trkpt><trkpt lat="43.17969306469249" lon="12.4581591884001"><ele>232.25</ele><time>2026-04-26T07:53:00.999Z</time></trkpt><trkpt lat="43.179583987223566" lon="12.45822192375507"><ele>231.0</ele><time>2026-04-26T07:53:01.999Z</time></trkpt><trkpt lat="43.179489646080604" lon="12.458273088367282"><ele>231.0</ele><time>2026-04-26T07:53:02.999Z</time></trkpt><trkpt lat="43.17940727769298" lon="12.458306819809836"><ele>231.0</ele><time>2026-04-26T07:53:03.999Z</time></trkpt><trkpt lat="43.17934498869417" lon="12.458321542771243"><ele>231.0</ele><time>2026-04-26T07:53:04.999Z</time></trkpt><trkpt lat="43.179285478427694" lon="12.458360148619697"><ele>231.0</ele><time>2026-04-26T07:53:06.999Z</time></trkpt><trkpt lat="43.17932992380715" lon="12.458551695172885"><ele>231.0</ele><time>2026-04-26T07:53:07.999Z</time></trkpt><trkpt lat="43.179370325380006" lon="12.458622356517173"><ele>231.0</ele><time>2026-04-26T07:53:08.999Z</time></trkpt><trkpt lat="43.17942068123162" lon="12.45871968083157"><ele>230.75</ele><time>2026-04-26T07:53:09.999Z</time></trkpt><trkpt lat="43.17947749280755" lon="12.458852090507074"><ele>230.5</ele><time>2026-04-26T07:53:10.999Z</time></trkpt><trkpt lat="43.179546542336794" lon="12.4590053880669"><ele>230.25</ele><time>2026-04-26T07:53:11.999Z</time></trkpt><trkpt lat="43.17961556072089" lon="12.45915827254953"><ele>230.0</ele><time>2026-04-26T07:53:12.999Z</time></trkpt><trkpt lat="43.17969331797442" lon="12.459329515992746"><ele>230.0</ele><time>2026-04-26T07:53:13.999Z</time></trkpt><trkpt lat="43.1797769753643" lon="12.45951217103557"><ele>230.0</ele><time>2026-04-26T07:53:14.999Z</time></trkpt><trkpt lat="43.179863650453804" lon="12.459707686038373"><ele>230.0</ele><time>2026-04-26T07:53:15.999Z</time></trkpt><trkpt lat="43.179947402433655" lon="12.459898707412025"><ele>230.33333333333334</ele><time>2026-04-26T07:53:16.999Z</time></trkpt><trkpt lat="43.180036050457154" lon="12.46009572248698"><ele>230.66666666666669</ele><time>2026-04-26T07:53:17.999Z</time></trkpt><trkpt lat="43.18012652529714" lon="12.460294642615255"><ele>231.0</ele><time>2026-04-26T07:53:18.999Z</time></trkpt><trkpt lat="43.180222461871764" lon="12.460498980560615"><ele>231.0</ele><time>2026-04-26T07:53:19.999Z</time></trkpt><trkpt lat="43.180318102967405" lon="12.460706079172871"><ele>231.0</ele><time>2026-04-26T07:53:20.999Z</time></trkpt><trkpt lat="43.18041624733654" lon="12.460918980948234"><ele>231.0</ele><time>2026-04-26T07:53:21.999Z</time></trkpt><trkpt lat="43.18051563270073" lon="12.461133037552369"><ele>231.0</ele><time>2026-04-26T07:53:22.999Z</time></trkpt><trkpt lat="43.18061694236261" lon="12.461351773923216"><ele>231.0</ele><time>2026-04-26T07:53:23.999Z</time></trkpt><trkpt lat="43.18071899867125" lon="12.46157654406927"><ele>231.0</ele><time>2026-04-26T07:53:24.999Z</time></trkpt><trkpt lat="43.18082196421438" lon="12.461805093432922"><ele>231.33333333333331</ele><time>2026-04-26T07:53:25.998Z</time></trkpt><trkpt lat="43.18092633219712" lon="12.462038010738995"><ele>231.66666666666666</ele><time>2026-04-26T07:53:26.998Z</time></trkpt><trkpt lat="43.181025907909515" lon="12.46226728735587"><ele>232.0</ele><time>2026-04-26T07:53:27.998Z</time></trkpt><trkpt lat="43.18112811790944" lon="12.46249976361288"><ele>232.0</ele><time>2026-04-26T07:53:28.998Z</time></trkpt><trkpt lat="43.181230893546186" lon="12.462733558437819"><ele>232.0</ele><time>2026-04-26T07:53:29.998Z</time></trkpt><trkpt lat="43.1813359697885" lon="12.46297025739624"><ele>232.0</ele><time>2026-04-26T07:53:30.998Z</time></trkpt><trkpt lat="43.181441730396266" lon="12.463205441520769"><ele>233.33333333333331</ele><time>2026-04-26T07:53:31.998Z</time></trkpt><trkpt lat="43.18155350024402" lon="12.463435597843466"><ele>234.66666666666669</ele><time>2026-04-26T07:53:32.998Z</time></trkpt><trkpt lat="43.181677831502284" lon="12.463659543794327"><ele>236.0</ele><time>2026-04-26T07:53:33.998Z</time></trkpt><trkpt lat="43.18181199758286" lon="12.463876735657655"><ele>236.0</ele><time>2026-04-26T07:53:34.998Z</time></trkpt><trkpt lat="43.18194457462934" lon="12.464092601521505"><ele>236.0</ele><time>2026-04-26T07:53:35.998Z</time></trkpt><trkpt lat="43.182077101538525" lon="12.46430912268746"><ele>236.0</ele><time>2026-04-26T07:53:36.998Z</time></trkpt><trkpt lat="43.18221476505934" lon="12.46452321724317"><ele>238.0</ele><time>2026-04-26T07:53:37.998Z</time></trkpt><trkpt lat="43.18235657318999" lon="12.464731094474516"><ele>240.0</ele><time>2026-04-26T07:53:38.998Z</time></trkpt><trkpt lat="43.182500563653264" lon="12.464935294100947"><ele>242.0</ele><time>2026-04-26T07:53:39.998Z</time></trkpt><trkpt lat="43.18264866705902" lon="12.465142669670017"><ele>242.0</ele><time>2026-04-26T07:53:40.998Z</time></trkpt><trkpt lat="43.182795697495024" lon="12.465348689947273"><ele>242.0</ele><time>2026-04-26T07:53:41.998Z</time></trkpt><trkpt lat="43.18294603060367" lon="12.465551889529458"><ele>242.0</ele><time>2026-04-26T07:53:42.998Z</time></trkpt><trkpt lat="43.18310164882707" lon="12.465761995534207"><ele>241.33333333333334</ele><time>2026-04-26T07:53:43.998Z</time></trkpt><trkpt lat="43.18324495584881" lon="12.465954981618102"><ele>240.66666666666669</ele><time>2026-04-26T07:53:44.998Z</time></trkpt><trkpt lat="43.18339451323459" lon="12.466156658968982"><ele>240.0</ele><time>2026-04-26T07:53:45.998Z</time></trkpt><trkpt lat="43.18354345428465" lon="12.46635986825555"><ele>240.0</ele><time>2026-04-26T07:53:46.998Z</time></trkpt><trkpt lat="43.183691623407725" lon="12.466559936242207"><ele>240.0</ele><time>2026-04-26T07:53:47.998Z</time></trkpt><trkpt lat="43.18383862720281" lon="12.466766389224757"><ele>240.0</ele><time>2026-04-26T07:53:48.998Z</time></trkpt><trkpt lat="43.18398002065787" lon="12.466984824674888"><ele>241.0</ele><time>2026-04-26T07:53:49.998Z</time></trkpt><trkpt lat="43.184113342581725" lon="12.467206991261218"><ele>242.0</ele><time>2026-04-26T07:53:50.998Z</time></trkpt><trkpt lat="43.18424322073066" lon="12.467429715624123"><ele>243.0</ele><time>2026-04-26T07:53:51.998Z</time></trkpt><trkpt lat="43.1843764044235" lon="12.467653942817378"><ele>243.0</ele><time>2026-04-26T07:53:52.998Z</time></trkpt><trkpt lat="43.184509231585764" lon="12.467878128167357"><ele>243.0</ele><time>2026-04-26T07:53:53.998Z</time></trkpt><trkpt lat="43.18464154104742" lon="12.468099935366366"><ele>243.0</ele><time>2026-04-26T07:53:54.998Z</time></trkpt><trkpt lat="43.18477504044027" lon="12.468322316053255"><ele>245.0</ele><time>2026-04-26T07:53:55.998Z</time></trkpt><trkpt lat="43.184904820667825" lon="12.468542499431836"><ele>247.0</ele><time>2026-04-26T07:53:56.998Z</time></trkpt><trkpt lat="43.18503448499316" lon="12.468758601626929"><ele>249.0</ele><time>2026-04-26T07:53:57.998Z</time></trkpt><trkpt lat="43.185162156715414" lon="12.468978284204121"><ele>249.0</ele><time>2026-04-26T07:53:58.998Z</time></trkpt><trkpt lat="43.18529338949751" lon="12.4691969111849"><ele>249.0</ele><time>2026-04-26T07:53:59.998Z</time></trkpt><trkpt lat="43.185412677446685" lon="12.469423597656494"><ele>249.0</ele><time>2026-04-26T07:54:00.998Z</time></trkpt><trkpt lat="43.18551797396981" lon="12.469660332080583"><ele>247.66666666666669</ele><time>2026-04-26T07:54:01.998Z</time></trkpt><trkpt lat="43.185607921932444" lon="12.469913030829924"><ele>246.33333333333334</ele><time>2026-04-26T07:54:02.998Z</time></trkpt><trkpt lat="43.18568906936399" lon="12.470168606995417"><ele>245.0</ele><time>2026-04-26T07:54:03.998Z</time></trkpt><trkpt lat="43.18577186718599" lon="12.470430022935924"><ele>247.0</ele><time>2026-04-26T07:54:04.998Z</time></trkpt><trkpt lat="43.18585509782442" lon="12.47068788300875"><ele>249.0</ele><time>2026-04-26T07:54:05.998Z</time></trkpt><trkpt lat="43.185936376922356" lon="12.470944922091666"><ele>251.0</ele><time>2026-04-26T07:54:06.998Z</time></trkpt><trkpt lat="43.18601654543766" lon="12.471202955303903"><ele>250.0</ele><time>2026-04-26T07:54:07.998Z</time></trkpt><trkpt lat="43.1860948753578" lon="12.471461194914239"><ele>249.0</ele><time>2026-04-26T07:54:08.998Z</time></trkpt><trkpt lat="43.18617135015927" lon="12.471721196119873"><ele>248.0</ele><time>2026-04-26T07:54:09.998Z</time></trkpt><trkpt lat="43.18624793588224" lon="12.471980429622251"><ele>248.66666666666669</ele><time>2026-04-26T07:54:10.998Z</time></trkpt><trkpt lat="43.18632568673589" lon="12.472236194980232"><ele>249.33333333333331</ele><time>2026-04-26T07:54:11.997Z</time></trkpt><trkpt lat="43.186405941657064" lon="12.472490940271143"><ele>250.0</ele><time>2026-04-26T07:54:12.997Z</time></trkpt><trkpt lat="43.18649239363387" lon="12.472747061103803"><ele>251.33333333333331</ele><time>2026-04-26T07:54:13.997Z</time></trkpt><trkpt lat="43.18658462431405" lon="12.473000488670717"><ele>252.66666666666669</ele><time>2026-04-26T07:54:14.997Z</time></trkpt><trkpt lat="43.186661409081225" lon="12.473265841873499"><ele>254.0</ele><time>2026-04-26T07:54:15.997Z</time></trkpt><trkpt lat="43.18674936410831" lon="12.47352439905554"><ele>254.0</ele><time>2026-04-26T07:54:16.997Z</time></trkpt><trkpt lat="43.186891845274126" lon="12.473755493954659"><ele>254.0</ele><time>2026-04-26T07:54:17.997Z</time></trkpt><trkpt lat="43.186998616617906" lon="12.474016644442814"><ele>254.0</ele><time>2026-04-26T07:54:18.997Z</time></trkpt><trkpt lat="43.18710254045908" lon="12.474278902028708"><ele>254.33333333333334</ele><time>2026-04-26T07:54:19.997Z</time></trkpt><trkpt lat="43.187204181866505" lon="12.474544570175903"><ele>254.66666666666669</ele><time>2026-04-26T07:54:21Z</time></trkpt><trkpt lat="43.18730597876965" lon="12.474804750231433"><ele>255.0</ele><time>2026-04-26T07:54:22Z</time></trkpt><trkpt lat="43.18740089005896" lon="12.475043194107238"><ele>255.33333333333331</ele><time>2026-04-26T07:54:23Z</time></trkpt><trkpt lat="43.18749026166221" lon="12.475262499756472"><ele>255.66666666666666</ele><time>2026-04-26T07:54:24Z</time></trkpt><trkpt lat="43.187575586478786" lon="12.475463618263753"><ele>256.0</ele><time>2026-04-26T07:54:25Z</time></trkpt><trkpt lat="43.18766661451329" lon="12.475637528450681"><ele>256.0</ele><time>2026-04-26T07:54:26Z</time></trkpt><trkpt lat="43.18777494954755" lon="12.475780398997246"><ele>256.0</ele><time>2026-04-26T07:54:27Z</time></trkpt><trkpt lat="43.187887524711655" lon="12.475890154276131"><ele>256.0</ele><time>2026-04-26T07:54:28Z</time></trkpt><trkpt lat="43.18799435132192" lon="12.475986085816178"><ele>256.0</ele><time>2026-04-26T07:54:29Z</time></trkpt><trkpt lat="43.18811211798825" lon="12.476073552476466"><ele>256.75</ele><time>2026-04-26T07:54:30Z</time></trkpt><trkpt lat="43.18822401993894" lon="12.47615077925855"><ele>257.5</ele><time>2026-04-26T07:54:31Z</time></trkpt><trkpt lat="43.18834685032111" lon="12.476236404511152"><ele>258.25</ele><time>2026-04-26T07:54:32Z</time></trkpt><trkpt lat="43.188474262682774" lon="12.476328488521116"><ele>259.0</ele><time>2026-04-26T07:54:33Z</time></trkpt><trkpt lat="43.18860634675879" lon="12.476428023226656"><ele>259.0</ele><time>2026-04-26T07:54:34Z</time></trkpt><trkpt lat="43.18874323283313" lon="12.476531060558388"><ele>259.0</ele><time>2026-04-26T07:54:35Z</time></trkpt><trkpt lat="43.188881446339764" lon="12.476636443733836"><ele>259.0</ele><time>2026-04-26T07:54:36Z</time></trkpt><trkpt lat="43.189014533421975" lon="12.476741044173044"><ele>262.0</ele><time>2026-04-26T07:54:37Z</time></trkpt><trkpt lat="43.189136711730065" lon="12.476834594972281"><ele>265.0</ele><time>2026-04-26T07:54:38Z</time></trkpt><trkpt lat="43.18924662340538" lon="12.476919885853032"><ele>268.0</ele><time>2026-04-26T07:54:39Z</time></trkpt><trkpt lat="43.18934287831209" lon="12.477005404880892"><ele>271.0</ele><time>2026-04-26T07:54:40Z</time></trkpt><trkpt lat="43.189423856689956" lon="12.477094187955792"><ele>270.2</ele><time>2026-04-26T07:54:41Z</time></trkpt><trkpt lat="43.189494155125665" lon="12.477188402586286"><ele>269.40000000000003</ele><time>2026-04-26T07:54:42Z</time></trkpt><trkpt lat="43.18956520785063" lon="12.477290611855922"><ele>268.6</ele><time>2026-04-26T07:54:43Z</time></trkpt><trkpt lat="43.18964066791149" lon="12.47739458752827"><ele>267.8</ele><time>2026-04-26T07:54:44Z</time></trkpt><trkpt lat="43.189729395818134" lon="12.477494990228701"><ele>267.0</ele><time>2026-04-26T07:54:44.999Z</time></trkpt><trkpt lat="43.18982897556833" lon="12.477592908813495"><ele>268.75</ele><time>2026-04-26T07:54:45.999Z</time></trkpt><trkpt lat="43.18993590196998" lon="12.477687777428539"><ele>270.5</ele><time>2026-04-26T07:54:46.999Z</time></trkpt><trkpt lat="43.19004966401931" lon="12.477783079594698"><ele>272.25</ele><time>2026-04-26T07:54:47.999Z</time></trkpt><trkpt lat="43.19016719487695" lon="12.47787424945627"><ele>274.0</ele><time>2026-04-26T07:54:48.999Z</time></trkpt><trkpt lat="43.19027970433662" lon="12.477952304033717"><ele>274.0</ele><time>2026-04-26T07:54:49.999Z</time></trkpt><trkpt lat="43.190386026788495" lon="12.478017882445721"><ele>274.0</ele><time>2026-04-26T07:54:50.999Z</time></trkpt><trkpt lat="43.190486272847984" lon="12.478081308640249"><ele>274.0</ele><time>2026-04-26T07:54:51.999Z</time></trkpt><trkpt lat="43.19058553318504" lon="12.47814716311062"><ele>274.0</ele><time>2026-04-26T07:54:52.999Z</time></trkpt><trkpt lat="43.190682359014055" lon="12.478222436304367"><ele>274.0</ele><time>2026-04-26T07:54:53.999Z</time></trkpt><trkpt lat="43.190772954441734" lon="12.47831507427841"><ele>274.8</ele><time>2026-04-26T07:54:54.999Z</time></trkpt><trkpt lat="43.19085802444754" lon="12.478422052823934"><ele>275.59999999999997</ele><time>2026-04-26T07:54:55.999Z</time></trkpt><trkpt lat="43.190937663043194" lon="12.478533218529279"><ele>276.4</ele><time>2026-04-26T07:54:56.999Z</time></trkpt><trkpt lat="43.19101170022696" lon="12.478642761988269"><ele>277.2</ele><time>2026-04-26T07:54:57.999Z</time></trkpt><trkpt lat="43.19108643657563" lon="12.478754563443937"><ele>278.0</ele><time>2026-04-26T07:54:58.999Z</time></trkpt><trkpt lat="43.19116426569554" lon="12.478873791510944"><ele>278.5</ele><time>2026-04-26T07:54:59.999Z</time></trkpt><trkpt lat="43.19124775519523" lon="12.478996287686599"><ele>279.0</ele><time>2026-04-26T07:55:00.999Z</time></trkpt><trkpt lat="43.19132958427251" lon="12.479125472235376"><ele>279.5</ele><time>2026-04-26T07:55:01.999Z</time></trkpt><trkpt lat="43.19140724308364" lon="12.479258762082198"><ele>280.0</ele><time>2026-04-26T07:55:02.999Z</time></trkpt><trkpt lat="43.191484161327445" lon="12.479397819743324"><ele>279.0</ele><time>2026-04-26T07:55:03.999Z</time></trkpt><trkpt lat="43.1915568318734" lon="12.47954019995382"><ele>278.0</ele><time>2026-04-26T07:55:04.999Z</time></trkpt><trkpt lat="43.191621230185405" lon="12.479695765006495"><ele>277.0</ele><time>2026-04-26T07:55:05.999Z</time></trkpt><trkpt lat="43.191684394575354" lon="12.479853338616465"><ele>276.0</ele><time>2026-04-26T07:55:06.999Z</time></trkpt><trkpt lat="43.191741646515595" lon="12.48001134042354"><ele>276.0</ele><time>2026-04-26T07:55:07.999Z</time></trkpt><trkpt lat="43.1917976645561" lon="12.480165027731418"><ele>276.0</ele><time>2026-04-26T07:55:08.999Z</time></trkpt><trkpt lat="43.19185390237877" lon="12.480317142764468"><ele>276.0</ele><time>2026-04-26T07:55:09.999Z</time></trkpt><trkpt lat="43.191904088491356" lon="12.480472362625035"><ele>276.0</ele><time>2026-04-26T07:55:10.999Z</time></trkpt><trkpt lat="43.19193758174039" lon="12.480638174501548"><ele>276.75</ele><time>2026-04-26T07:55:11.999Z</time></trkpt><trkpt lat="43.19194851693767" lon="12.48081211564201"><ele>277.5</ele><time>2026-04-26T07:55:12.999Z</time></trkpt><trkpt lat="43.191950504134326" lon="12.480999681185017"><ele>278.25</ele><time>2026-04-26T07:55:13.999Z</time></trkpt><trkpt lat="43.191950208783446" lon="12.481194325738477"><ele>279.0</ele><time>2026-04-26T07:55:14.999Z</time></trkpt><trkpt lat="43.19195454095706" lon="12.481395754591414"><ele>279.75</ele><time>2026-04-26T07:55:15.999Z</time></trkpt><trkpt lat="43.19196008005197" lon="12.481599817914741"><ele>280.5</ele><time>2026-04-26T07:55:16.999Z</time></trkpt><trkpt lat="43.19196251574764" lon="12.481807829554796"><ele>281.25</ele><time>2026-04-26T07:55:17.999Z</time></trkpt><trkpt lat="43.19196545751189" lon="12.482011317638236"><ele>282.0</ele><time>2026-04-26T07:55:18.999Z</time></trkpt><trkpt lat="43.19197219243748" lon="12.482214613333506"><ele>282.75</ele><time>2026-04-26T07:55:19.999Z</time></trkpt><trkpt lat="43.191978874815334" lon="12.482417265916984"><ele>283.5</ele><time>2026-04-26T07:55:20.999Z</time></trkpt><trkpt lat="43.19199003998247" lon="12.48261732161548"><ele>284.25</ele><time>2026-04-26T07:55:21.999Z</time></trkpt><trkpt lat="43.192005489620804" lon="12.482816892655558"><ele>285.0</ele><time>2026-04-26T07:55:22.999Z</time></trkpt><trkpt lat="43.1920123751452" lon="12.48301998906726"><ele>285.75</ele><time>2026-04-26T07:55:23.999Z</time></trkpt><trkpt lat="43.19203582182775" lon="12.483213018768318"><ele>286.5</ele><time>2026-04-26T07:55:24.999Z</time></trkpt><trkpt lat="43.19206915231224" lon="12.483404596584158"><ele>287.25</ele><time>2026-04-26T07:55:25.999Z</time></trkpt><trkpt lat="43.19212561027121" lon="12.483580893207883"><ele>288.0</ele><time>2026-04-26T07:55:26.999Z</time></trkpt><trkpt lat="43.19217539580794" lon="12.483765165434939"><ele>288.75</ele><time>2026-04-26T07:55:27.998Z</time></trkpt><trkpt lat="43.192242223065705" lon="12.48394195943527"><ele>289.5</ele><time>2026-04-26T07:55:28.998Z</time></trkpt><trkpt lat="43.19229969390801" lon="12.484127853691373"><ele>290.25</ele><time>2026-04-26T07:55:29.998Z</time></trkpt><trkpt lat="43.192370641498" lon="12.48430525634289"><ele>291.0</ele><time>2026-04-26T07:55:30.998Z</time></trkpt><trkpt lat="43.192445338112094" lon="12.484488428845799"><ele>293.0</ele><time>2026-04-26T07:55:31.998Z</time></trkpt><trkpt lat="43.192525549391625" lon="12.48467561924698"><ele>295.0</ele><time>2026-04-26T07:55:32.998Z</time></trkpt><trkpt lat="43.19260601143852" lon="12.484867009132083"><ele>297.0</ele><time>2026-04-26T07:55:33.998Z</time></trkpt><trkpt lat="43.19268722695866" lon="12.485065379371065"><ele>297.0</ele><time>2026-04-26T07:55:34.998Z</time></trkpt><trkpt lat="43.19276677336543" lon="12.48525964723958"><ele>297.0</ele><time>2026-04-26T07:55:35.998Z</time></trkpt><trkpt lat="43.192844780107166" lon="12.485447365062077"><ele>297.0</ele><time>2026-04-26T07:55:36.998Z</time></trkpt><trkpt lat="43.19291971560401" lon="12.485629103714306"><ele>299.0</ele><time>2026-04-26T07:55:37.998Z</time></trkpt><trkpt lat="43.193002514614264" lon="12.485788984418171"><ele>301.0</ele><time>2026-04-26T07:55:38.998Z</time></trkpt><trkpt lat="43.19306586972031" lon="12.485949922173196"><ele>303.0</ele><time>2026-04-26T07:55:39.998Z</time></trkpt><trkpt lat="43.193134221055224" lon="12.486098591160061"><ele>305.0</ele><time>2026-04-26T07:55:40.998Z</time></trkpt><trkpt lat="43.19319551447857" lon="12.486257288396093"><ele>307.25</ele><time>2026-04-26T07:55:41.998Z</time></trkpt><trkpt lat="43.19329855752284" lon="12.486364323308731"><ele>309.5</ele><time>2026-04-26T07:55:42.998Z</time></trkpt><trkpt lat="43.19339570420105" lon="12.486472604780749"><ele>311.75</ele><time>2026-04-26T07:55:43.998Z</time></trkpt><trkpt lat="43.19350816365444" lon="12.486556501384051"><ele>314.0</ele><time>2026-04-26T07:55:44.998Z</time></trkpt><trkpt lat="43.19362417209313" lon="12.4866262255707"><ele>314.0</ele><time>2026-04-26T07:55:45.998Z</time></trkpt><trkpt lat="43.193734083881196" lon="12.486689030134475"><ele>314.0</ele><time>2026-04-26T07:55:46.998Z</time></trkpt><trkpt lat="43.19384353637472" lon="12.486761857771151"><ele>314.0</ele><time>2026-04-26T07:55:47.998Z</time></trkpt><trkpt lat="43.193949562690136" lon="12.48685546297946"><ele>314.0</ele><time>2026-04-26T07:55:48.998Z</time></trkpt><trkpt lat="43.19405016979959" lon="12.486945718217571"><ele>314.8</ele><time>2026-04-26T07:55:49.998Z</time></trkpt><trkpt lat="43.19414787140314" lon="12.487022842680366"><ele>315.59999999999997</ele><time>2026-04-26T07:55:50.998Z</time></trkpt><trkpt lat="43.19425557453522" lon="12.487036280588198"><ele>316.4</ele><time>2026-04-26T07:55:51.998Z</time></trkpt><trkpt lat="43.19436102596282" lon="12.487017470142542"><ele>317.2</ele><time>2026-04-26T07:55:52.998Z</time></trkpt><trkpt lat="43.1944640423336" lon="12.486966790160992"><ele>318.0</ele><time>2026-04-26T07:55:53.998Z</time></trkpt><trkpt lat="43.1945641050232" lon="12.486910705159714"><ele>318.0</ele><time>2026-04-26T07:55:54.998Z</time></trkpt><trkpt lat="43.19465571927708" lon="12.486880338907238"><ele>318.0</ele><time>2026-04-26T07:55:55.998Z</time></trkpt><trkpt lat="43.19474151091329" lon="12.486903717312895"><ele>318.0</ele><time>2026-04-26T07:55:56.998Z</time></trkpt><trkpt lat="43.19480607686397" lon="12.486977644137808"><ele>318.0</ele><time>2026-04-26T07:55:57.998Z</time></trkpt><trkpt lat="43.19482589049409" lon="12.487104297526265"><ele>318.0</ele><time>2026-04-26T07:55:58.998Z</time></trkpt><trkpt lat="43.194811569003285" lon="12.487218419002765"><ele>318.0</ele><time>2026-04-26T07:55:59.998Z</time></trkpt><trkpt lat="43.19476984418049" lon="12.487323389444779"><ele>319.5</ele><time>2026-04-26T07:56:00.998Z</time></trkpt><trkpt lat="43.19472023868513" lon="12.487447337346833"><ele>321.0</ele><time>2026-04-26T07:56:01.998Z</time></trkpt><trkpt lat="43.19466111643786" lon="12.487580676890797"><ele>322.5</ele><time>2026-04-26T07:56:02.998Z</time></trkpt><trkpt lat="43.194589202913875" lon="12.487718261440053"><ele>324.0</ele><time>2026-04-26T07:56:03.998Z</time></trkpt><trkpt lat="43.19453282838767" lon="12.487881490562717"><ele>325.75</ele><time>2026-04-26T07:56:04.998Z</time></trkpt><trkpt lat="43.19453330160279" lon="12.48806997335673"><ele>327.5</ele><time>2026-04-26T07:56:05.998Z</time></trkpt><trkpt lat="43.194542162988576" lon="12.488255178212384"><ele>329.25</ele><time>2026-04-26T07:56:06.998Z</time></trkpt><trkpt lat="43.1945761826752" lon="12.488450141176033"><ele>331.0</ele><time>2026-04-26T07:56:07.998Z</time></trkpt><trkpt lat="43.19460424932186" lon="12.488655223841464"><ele>331.0</ele><time>2026-04-26T07:56:08.998Z</time></trkpt><trkpt lat="43.19464518358507" lon="12.488865611642488"><ele>331.0</ele><time>2026-04-26T07:56:09.998Z</time></trkpt><trkpt lat="43.1946843113052" lon="12.489082747993422"><ele>331.0</ele><time>2026-04-26T07:56:10.998Z</time></trkpt><trkpt lat="43.19472368186069" lon="12.489299811788747"><ele>331.0</ele><time>2026-04-26T07:56:11.998Z</time></trkpt><trkpt lat="43.194774453621406" lon="12.489486992477486"><ele>331.0</ele><time>2026-04-26T07:56:12.998Z</time></trkpt><trkpt lat="43.19480534123758" lon="12.48965916676665"><ele>331.0</ele><time>2026-04-26T07:56:13.997Z</time></trkpt><trkpt lat="43.194833112383925" lon="12.489814462294339"><ele>331.0</ele><time>2026-04-26T07:56:14.997Z</time></trkpt><trkpt lat="43.194860201105044" lon="12.489955668742404"><ele>331.0</ele><time>2026-04-26T07:56:15.997Z</time></trkpt><trkpt lat="43.19486769428561" lon="12.490095867376958"><ele>331.0</ele><time>2026-04-26T07:56:16.997Z</time></trkpt><trkpt lat="43.19489529258767" lon="12.490224988669492"><ele>331.0</ele><time>2026-04-26T07:56:17.997Z</time></trkpt><trkpt lat="43.194928140499634" lon="12.490343323647084"><ele>331.0</ele><time>2026-04-26T07:56:18.997Z</time></trkpt><trkpt lat="43.194972194121505" lon="12.490440067441208"><ele>331.0</ele><time>2026-04-26T07:56:19.997Z</time></trkpt><trkpt lat="43.19503242992381" lon="12.490502747282914"><ele>331.0</ele><time>2026-04-26T07:56:20.997Z</time></trkpt><trkpt lat="43.195098014017574" lon="12.490567086448868"><ele>331.0</ele><time>2026-04-26T07:56:21.997Z</time></trkpt><trkpt lat="43.19517495729993" lon="12.490610897747663"><ele>331.0</ele><time>2026-04-26T07:56:22.997Z</time></trkpt><trkpt lat="43.19524891121534" lon="12.490632377615073"><ele>331.0</ele><time>2026-04-26T07:56:23.997Z</time></trkpt><trkpt lat="43.19531377064484" lon="12.49064792216642"><ele>331.0</ele><time>2026-04-26T07:56:24.997Z</time></trkpt><trkpt lat="43.195376574494816" lon="12.490668782786383"><ele>331.0</ele><time>2026-04-26T07:56:25.997Z</time></trkpt><trkpt lat="43.195460785530656" lon="12.490703334452755"><ele>331.0</ele><time>2026-04-26T07:56:28Z</time></trkpt><trkpt lat="43.19554771943557" lon="12.490745450423567"><ele>331.0</ele><time>2026-04-26T07:56:30Z</time></trkpt><trkpt lat="43.195644787296295" lon="12.490783881238976"><ele>331.0</ele><time>2026-04-26T07:56:32Z</time></trkpt><trkpt lat="43.19575964902682" lon="12.490828323658135"><ele>331.0</ele><time>2026-04-26T07:56:34Z</time></trkpt><trkpt lat="43.195823191288106" lon="12.490849681924454"><ele>331.0</ele><time>2026-04-26T07:56:35Z</time></trkpt><trkpt lat="43.19588803500042" lon="12.490873787593445"><ele>331.0</ele><time>2026-04-26T07:56:36Z</time></trkpt><trkpt lat="43.19595838900919" lon="12.490905874545096"><ele>332.0</ele><time>2026-04-26T07:56:37Z</time></trkpt><trkpt lat="43.19603164840617" lon="12.490939985041388"><ele>333.0</ele><time>2026-04-26T07:56:38Z</time></trkpt><trkpt lat="43.19609682424653" lon="12.490970652369244"><ele>334.0</ele><time>2026-04-26T07:56:39Z</time></trkpt><trkpt lat="43.196177371651444" lon="12.490976436182004"><ele>335.0</ele><time>2026-04-26T07:56:41Z</time></trkpt><trkpt lat="43.19625139660887" lon="12.490936906414019"><ele>336.0</ele><time>2026-04-26T07:56:43Z</time></trkpt><trkpt lat="43.1963436530241" lon="12.490837682983459"><ele>337.0</ele><time>2026-04-26T07:56:45Z</time></trkpt><trkpt lat="43.196455427602174" lon="12.490762713391495"><ele>336.3333333333333</ele><time>2026-04-26T07:56:47Z</time></trkpt><trkpt lat="43.19652229259503" lon="12.49070984823619"><ele>335.66666666666663</ele><time>2026-04-26T07:56:47.999Z</time></trkpt><trkpt lat="43.19658467401073" lon="12.490653459116837"><ele>335.0</ele><time>2026-04-26T07:56:48.999Z</time></trkpt><trkpt lat="43.19664421924966" lon="12.490589846221509"><ele>334.3333333333333</ele><time>2026-04-26T07:56:49.999Z</time></trkpt><trkpt lat="43.196703430431526" lon="12.490520534902249"><ele>333.6666666666667</ele><time>2026-04-26T07:56:50.999Z</time></trkpt><trkpt lat="43.19676251134588" lon="12.490454796886148"><ele>333.0</ele><time>2026-04-26T07:56:51.999Z</time></trkpt><trkpt lat="43.19681501296472" lon="12.49037450983009"><ele>333.0</ele><time>2026-04-26T07:56:52.999Z</time></trkpt><trkpt lat="43.19686819614081" lon="12.490301201036518"><ele>333.0</ele><time>2026-04-26T07:56:53.999Z</time></trkpt><trkpt lat="43.19692018083537" lon="12.490231942228112"><ele>333.0</ele><time>2026-04-26T07:56:54.999Z</time></trkpt><trkpt lat="43.19697382463976" lon="12.490162868714359"><ele>333.0</ele><time>2026-04-26T07:56:55.999Z</time></trkpt><trkpt lat="43.197026390946085" lon="12.490091926559932"><ele>333.0</ele><time>2026-04-26T07:56:56.999Z</time></trkpt><trkpt lat="43.19707465599404" lon="12.490018586758985"><ele>333.0</ele><time>2026-04-26T07:56:57.999Z</time></trkpt><trkpt lat="43.19712351609065" lon="12.489934877375783"><ele>333.0</ele><time>2026-04-26T07:56:58.999Z</time></trkpt><trkpt lat="43.197187092195946" lon="12.48986755023223"><ele>333.0</ele><time>2026-04-26T07:56:59.999Z</time></trkpt><trkpt lat="43.19724207820482" lon="12.489788309031951"><ele>333.0</ele><time>2026-04-26T07:57:00.999Z</time></trkpt><trkpt lat="43.1972861107738" lon="12.489704790144598"><ele>333.0</ele><time>2026-04-26T07:57:01.999Z</time></trkpt><trkpt lat="43.19734305252112" lon="12.489648861341903"><ele>333.0</ele><time>2026-04-26T07:57:02.999Z</time></trkpt><trkpt lat="43.19738862179804" lon="12.48958892828651"><ele>333.0</ele><time>2026-04-26T07:57:03.999Z</time></trkpt><trkpt lat="43.19742556825357" lon="12.489517600429284"><ele>333.0</ele><time>2026-04-26T07:57:04.999Z</time></trkpt><trkpt lat="43.19745877811887" lon="12.489423163861632"><ele>333.0</ele><time>2026-04-26T07:57:05.999Z</time></trkpt><trkpt lat="43.197478999552615" lon="12.489311691292903"><ele>332.5</ele><time>2026-04-26T07:57:06.999Z</time></trkpt><trkpt lat="43.197483176547195" lon="12.489191508378546"><ele>332.0</ele><time>2026-04-26T07:57:07.999Z</time></trkpt><trkpt lat="43.19748452141959" lon="12.489074287222145"><ele>331.5</ele><time>2026-04-26T07:57:08.999Z</time></trkpt><trkpt lat="43.197489781850656" lon="12.488955799031574"><ele>331.0</ele><time>2026-04-26T07:57:09.999Z</time></trkpt><trkpt lat="43.19748939554275" lon="12.488830137039306"><ele>330.5</ele><time>2026-04-26T07:57:10.999Z</time></trkpt><trkpt lat="43.19748985658137" lon="12.488708877495702"><ele>330.0</ele><time>2026-04-26T07:57:11.999Z</time></trkpt><trkpt lat="43.19749709309109" lon="12.488601249817176"><ele>329.4</ele><time>2026-04-26T07:57:12.999Z</time></trkpt><trkpt lat="43.19750795538657" lon="12.488503078693242"><ele>328.8</ele><time>2026-04-26T07:57:13.999Z</time></trkpt><trkpt lat="43.19751405328085" lon="12.488414883112505"><ele>328.20000000000005</ele><time>2026-04-26T07:57:14.999Z</time></trkpt><trkpt lat="43.19753798236554" lon="12.488260346596913"><ele>327.6</ele><time>2026-04-26T07:57:16.999Z</time></trkpt><trkpt lat="43.19756434960269" lon="12.488096469250475"><ele>327.0</ele><time>2026-04-26T07:57:18.999Z</time></trkpt><trkpt lat="43.19760606404943" lon="12.487948381085014"><ele>327.0</ele><time>2026-04-26T07:57:20.999Z</time></trkpt><trkpt lat="43.197661689862734" lon="12.487811490496432"><ele>327.0</ele><time>2026-04-26T07:57:22.999Z</time></trkpt><trkpt lat="43.197727665148626" lon="12.487682936904664"><ele>327.0</ele><time>2026-04-26T07:57:24.999Z</time></trkpt><trkpt lat="43.197821811583616" lon="12.487587021916736"><ele>327.0</ele><time>2026-04-26T07:57:26.999Z</time></trkpt><trkpt lat="43.19792703496658" lon="12.487551738210943"><ele>327.0</ele><time>2026-04-26T07:57:28.999Z</time></trkpt><trkpt lat="43.19805922678591" lon="12.487559725021036"><ele>327.0</ele><time>2026-04-26T07:57:30.998Z</time></trkpt><trkpt lat="43.19814259648238" lon="12.487566200268397"><ele>327.0</ele><time>2026-04-26T07:57:31.998Z</time></trkpt><trkpt lat="43.19823233591769" lon="12.487571773973453"><ele>327.0</ele><time>2026-04-26T07:57:32.998Z</time></trkpt><trkpt lat="43.1983302157356" lon="12.487574602226342"><ele>327.0</ele><time>2026-04-26T07:57:33.998Z</time></trkpt><trkpt lat="43.198431946666624" lon="12.487605917664464"><ele>328.0</ele><time>2026-04-26T07:57:34.998Z</time></trkpt><trkpt lat="43.198537349881846" lon="12.487582031075913"><ele>329.0</ele><time>2026-04-26T07:57:35.998Z</time></trkpt><trkpt lat="43.1986400740144" lon="12.487576366432501"><ele>330.0</ele><time>2026-04-26T07:57:36.998Z</time></trkpt><trkpt lat="43.198739768171755" lon="12.487567959610951"><ele>331.0</ele><time>2026-04-26T07:57:37.998Z</time></trkpt><trkpt lat="43.19883443872913" lon="12.487560402534509"><ele>332.0</ele><time>2026-04-26T07:57:38.998Z</time></trkpt><trkpt lat="43.198923854402025" lon="12.487554034531925"><ele>333.0</ele><time>2026-04-26T07:57:39.998Z</time></trkpt><trkpt lat="43.19901244994882" lon="12.48755319981916"><ele>334.0</ele><time>2026-04-26T07:57:40.998Z</time></trkpt><trkpt lat="43.19908655790559" lon="12.487554376229248"><ele>335.0</ele><time>2026-04-26T07:57:41.998Z</time></trkpt><trkpt lat="43.199197858007246" lon="12.487534609117152"><ele>336.0</ele><time>2026-04-26T07:57:43.998Z</time></trkpt><trkpt lat="43.19927808017326" lon="12.487468842949436"><ele>337.0</ele><time>2026-04-26T07:57:45.998Z</time></trkpt><trkpt lat="43.19932450644462" lon="12.487370918876367"><ele>337.0</ele><time>2026-04-26T07:57:47.998Z</time></trkpt><trkpt lat="43.19934085130914" lon="12.48727240344797"><ele>337.0</ele><time>2026-04-26T07:57:49.998Z</time></trkpt><trkpt lat="43.19931456560028" lon="12.487166670521272"><ele>337.0</ele><time>2026-04-26T07:57:51.998Z</time></trkpt><trkpt lat="43.199211313713846" lon="12.487113717161643"><ele>337.0</ele><time>2026-04-26T07:57:53.998Z</time></trkpt><trkpt lat="43.19911752418619" lon="12.48708526699196"><ele>337.0</ele><time>2026-04-26T07:57:55.998Z</time></trkpt><trkpt lat="43.1990332952744" lon="12.487059805546327"><ele>337.0</ele><time>2026-04-26T07:57:57.998Z</time></trkpt><trkpt lat="43.19895379647022" lon="12.48703031131573"><ele>335.8333333333333</ele><time>2026-04-26T07:57:59.998Z</time></trkpt><trkpt lat="43.19888295819561" lon="12.487002622325122"><ele>334.66666666666663</ele><time>2026-04-26T07:58:01.998Z</time></trkpt><trkpt lat="43.198802833462864" lon="12.486970972061318"><ele>333.5</ele><time>2026-04-26T07:58:03.998Z</time></trkpt><trkpt lat="43.19873333448674" lon="12.486943993356263"><ele>332.3333333333333</ele><time>2026-04-26T07:58:05.999Z</time></trkpt><trkpt lat="43.19866704734173" lon="12.486925939006587"><ele>331.1666666666667</ele><time>2026-04-26T07:58:07.999Z</time></trkpt><trkpt lat="43.19858498135287" lon="12.486893651217434"><ele>330.0</ele><time>2026-04-26T07:58:09.999Z</time></trkpt><trkpt lat="43.19849143884173" lon="12.486836232882803"><ele>330.0</ele><time>2026-04-26T07:58:11.999Z</time></trkpt><trkpt lat="43.198419695405896" lon="12.486751655804063"><ele>330.0</ele><time>2026-04-26T07:58:13.999Z</time></trkpt><trkpt lat="43.19834045317448" lon="12.486660402275643"><ele>330.0</ele><time>2026-04-26T07:58:15.998Z</time></trkpt><trkpt lat="43.19825812246171" lon="12.48654714080696"><ele>330.0</ele><time>2026-04-26T07:58:17.998Z</time></trkpt><trkpt lat="43.19818830359503" lon="12.486421119750993"><ele>330.0</ele><time>2026-04-26T07:58:19.998Z</time></trkpt><trkpt lat="43.1981290216835" lon="12.486282768163997"><ele>327.6</ele><time>2026-04-26T07:58:21.998Z</time></trkpt><trkpt lat="43.19809651549472" lon="12.486144677199919"><ele>325.2</ele><time>2026-04-26T07:58:23.998Z</time></trkpt><trkpt lat="43.19808047031122" lon="12.485998845960271"><ele>322.8</ele><time>2026-04-26T07:58:25.998Z</time></trkpt><trkpt lat="43.19807395184894" lon="12.485833885997907"><ele>320.4</ele><time>2026-04-26T07:58:27.998Z</time></trkpt><trkpt lat="43.1980965770377" lon="12.485738391111203"><ele>318.0</ele><time>2026-04-26T07:58:28.998Z</time></trkpt><trkpt lat="43.198125546777156" lon="12.485598982277777"><ele>320.25</ele><time>2026-04-26T07:58:30.998Z</time></trkpt><trkpt lat="43.19817097293395" lon="12.485449110481545"><ele>322.5</ele><time>2026-04-26T07:58:33.001Z</time></trkpt><trkpt lat="43.19821532323205" lon="12.485309525031854"><ele>324.75</ele><time>2026-04-26T07:58:35.001Z</time></trkpt><trkpt lat="43.198258388188485" lon="12.485157627430112"><ele>327.0</ele><time>2026-04-26T07:58:37.001Z</time></trkpt><trkpt lat="43.198310820920995" lon="12.485028791794786"><ele>327.0</ele><time>2026-04-26T07:58:39.001Z</time></trkpt><trkpt lat="43.19835813209822" lon="12.484891028953578"><ele>327.0</ele><time>2026-04-26T07:58:41.001Z</time></trkpt><trkpt lat="43.198400372154836" lon="12.484776984445775"><ele>327.0</ele><time>2026-04-26T07:58:43.001Z</time></trkpt><trkpt lat="43.198461831012345" lon="12.484610370317364"><ele>327.0</ele><time>2026-04-26T07:58:45.001Z</time></trkpt><trkpt lat="43.19849831257452" lon="12.484524660162117"><ele>327.0</ele><time>2026-04-26T07:58:46.001Z</time></trkpt><trkpt lat="43.198534530451575" lon="12.484442993858602"><ele>326.0</ele><time>2026-04-26T07:58:47.001Z</time></trkpt><trkpt lat="43.19856722265967" lon="12.484368387561917"><ele>325.0</ele><time>2026-04-26T07:58:48.001Z</time></trkpt><trkpt lat="43.19862050951203" lon="12.484227902798187"><ele>324.0</ele><time>2026-04-26T07:58:50Z</time></trkpt><trkpt lat="43.19865110004838" lon="12.484151120082169"><ele>323.0</ele><time>2026-04-26T07:58:51Z</time></trkpt><trkpt lat="43.19868478289362" lon="12.484076411916483"><ele>322.0</ele><time>2026-04-26T07:58:52Z</time></trkpt><trkpt lat="43.198742971984764" lon="12.483938694766573"><ele>321.0</ele><time>2026-04-26T07:58:54Z</time></trkpt><trkpt lat="43.198798661710505" lon="12.483794630160517"><ele>319.8</ele><time>2026-04-26T07:58:56Z</time></trkpt><trkpt lat="43.19883433796214" lon="12.483637720499319"><ele>318.6</ele><time>2026-04-26T07:58:58Z</time></trkpt><trkpt lat="43.19886047362745" lon="12.48346091571131"><ele>317.4</ele><time>2026-04-26T07:59:00Z</time></trkpt><trkpt lat="43.198853852200244" lon="12.483365633441384"><ele>316.2</ele><time>2026-04-26T07:59:01Z</time></trkpt><trkpt lat="43.19884159270123" lon="12.483272089324712"><ele>315.0</ele><time>2026-04-26T07:59:02Z</time></trkpt><trkpt lat="43.198814745812534" lon="12.483175340837363"><ele>315.0</ele><time>2026-04-26T07:59:03Z</time></trkpt><trkpt lat="43.198779588152014" lon="12.483079519090087"><ele>315.0</ele><time>2026-04-26T07:59:04Z</time></trkpt><trkpt lat="43.19872316449761" lon="12.48300413024194"><ele>315.0</ele><time>2026-04-26T07:59:05Z</time></trkpt><trkpt lat="43.198679214759316" lon="12.482920451551232"><ele>315.0</ele><time>2026-04-26T07:59:06Z</time></trkpt><trkpt lat="43.198645340200855" lon="12.482817777052054"><ele>315.0</ele><time>2026-04-26T07:59:07Z</time></trkpt><trkpt lat="43.19859976126379" lon="12.482729044682817"><ele>315.0</ele><time>2026-04-26T07:59:08Z</time></trkpt><trkpt lat="43.19855671650486" lon="12.482642266198798"><ele>316.1666666666667</ele><time>2026-04-26T07:59:09Z</time></trkpt><trkpt lat="43.19851216326006" lon="12.48255244661985"><ele>317.3333333333333</ele><time>2026-04-26T07:59:10Z</time></trkpt><trkpt lat="43.198468595928254" lon="12.4824646146517"><ele>318.5</ele><time>2026-04-26T07:59:11Z</time></trkpt><trkpt lat="43.19842533238502" lon="12.482373233905392"><ele>319.66666666666663</ele><time>2026-04-26T07:59:12Z</time></trkpt><trkpt lat="43.198385190634745" lon="12.482286213428248"><ele>320.8333333333333</ele><time>2026-04-26T07:59:13Z</time></trkpt><trkpt lat="43.19834450781135" lon="12.482196564965356"><ele>322.0</ele><time>2026-04-26T07:59:14Z</time></trkpt><trkpt lat="43.19829520160122" lon="12.482115932264643"><ele>321.5</ele><time>2026-04-26T07:59:15Z</time></trkpt><trkpt lat="43.19826942408456" lon="12.482013374650824"><ele>321.0</ele><time>2026-04-26T07:59:16Z</time></trkpt><trkpt lat="43.198235510656374" lon="12.48192224532455"><ele>320.5</ele><time>2026-04-26T07:59:17Z</time></trkpt><trkpt lat="43.198203236247444" lon="12.481833295470599"><ele>320.0</ele><time>2026-04-26T07:59:18Z</time></trkpt><trkpt lat="43.1981743746128" lon="12.481748165598233"><ele>319.5</ele><time>2026-04-26T07:59:19Z</time></trkpt><trkpt lat="43.19814657074992" lon="12.481661113040667"><ele>319.0</ele><time>2026-04-26T07:59:20Z</time></trkpt><trkpt lat="43.198103120691144" lon="12.481504416687814"><ele>319.0</ele><time>2026-04-26T07:59:22Z</time></trkpt><trkpt lat="43.19808525342475" lon="12.481418215959536"><ele>319.0</ele><time>2026-04-26T07:59:23Z</time></trkpt><trkpt lat="43.19807542572881" lon="12.481328492506764"><ele>319.0</ele><time>2026-04-26T07:59:24Z</time></trkpt><trkpt lat="43.19807294608687" lon="12.481237046067998"><ele>319.0</ele><time>2026-04-26T07:59:25Z</time></trkpt><trkpt lat="43.19808217564407" lon="12.481147605124708"><ele>319.0</ele><time>2026-04-26T07:59:26Z</time></trkpt><trkpt lat="43.19807903224331" lon="12.481048921913981"><ele>319.0</ele><time>2026-04-26T07:59:27Z</time></trkpt><trkpt lat="43.1980961509727" lon="12.480949031290061"><ele>319.0</ele><time>2026-04-26T07:59:28Z</time></trkpt><trkpt lat="43.198119383582466" lon="12.480851877321697"><ele>319.2</ele><time>2026-04-26T07:59:29Z</time></trkpt><trkpt lat="43.19814029092673" lon="12.480759690811054"><ele>319.4</ele><time>2026-04-26T07:59:30Z</time></trkpt><trkpt lat="43.19818353120137" lon="12.480620842439311"><ele>319.6</ele><time>2026-04-26T07:59:32Z</time></trkpt><trkpt lat="43.19825072795591" lon="12.480526314290294"><ele>319.8</ele><time>2026-04-26T07:59:33.999Z</time></trkpt><trkpt lat="43.19833940082206" lon="12.480443960029968"><ele>320.0</ele><time>2026-04-26T07:59:35.999Z</time></trkpt><trkpt lat="43.19843383337618" lon="12.48037192385042"><ele>320.57142857142856</ele><time>2026-04-26T07:59:37.999Z</time></trkpt><trkpt lat="43.19849579417534" lon="12.480319536101026"><ele>321.14285714285717</ele><time>2026-04-26T07:59:38.999Z</time></trkpt><trkpt lat="43.198553568421225" lon="12.480261746660089"><ele>321.7142857142857</ele><time>2026-04-26T07:59:39.999Z</time></trkpt><trkpt lat="43.19860737922739" lon="12.480198200293177"><ele>322.2857142857143</ele><time>2026-04-26T07:59:40.999Z</time></trkpt><trkpt lat="43.19866522588915" lon="12.480126737505508"><ele>322.85714285714283</ele><time>2026-04-26T07:59:41.999Z</time></trkpt><trkpt lat="43.198727249230835" lon="12.480061551623432"><ele>323.42857142857144</ele><time>2026-04-26T07:59:42.999Z</time></trkpt><trkpt lat="43.198783794821836" lon="12.479995227509805"><ele>324.0</ele><time>2026-04-26T07:59:43.999Z</time></trkpt><trkpt lat="43.19883836269153" lon="12.479933331214156"><ele>324.0</ele><time>2026-04-26T07:59:44.999Z</time></trkpt><trkpt lat="43.198890536756224" lon="12.479873909332772"><ele>324.0</ele><time>2026-04-26T07:59:45.999Z</time></trkpt><trkpt lat="43.19894919674301" lon="12.479806802536032"><ele>324.0</ele><time>2026-04-26T07:59:46.999Z</time></trkpt><trkpt lat="43.199011732073586" lon="12.479735772288224"><ele>324.0</ele><time>2026-04-26T07:59:47.999Z</time></trkpt><trkpt lat="43.19907385373721" lon="12.47966329826811"><ele>324.0</ele><time>2026-04-26T07:59:48.999Z</time></trkpt><trkpt lat="43.19913502148919" lon="12.47959424680061"><ele>324.0</ele><time>2026-04-26T07:59:49.999Z</time></trkpt><trkpt lat="43.19919203337909" lon="12.47952598418386"><ele>322.8333333333333</ele><time>2026-04-26T07:59:50.999Z</time></trkpt><trkpt lat="43.19925107070893" lon="12.479459402615548"><ele>321.6666666666667</ele><time>2026-04-26T07:59:51.999Z</time></trkpt><trkpt lat="43.19931208377124" lon="12.4793917677101"><ele>320.5</ele><time>2026-04-26T07:59:52.999Z</time></trkpt><trkpt lat="43.19936954217207" lon="12.47932476203383"><ele>319.33333333333337</ele><time>2026-04-26T07:59:53.999Z</time></trkpt><trkpt lat="43.199426151445124" lon="12.479252621721022"><ele>318.1666666666667</ele><time>2026-04-26T07:59:54.999Z</time></trkpt><trkpt lat="43.19948211666249" lon="12.479170498415506"><ele>317.0</ele><time>2026-04-26T07:59:55.999Z</time></trkpt><trkpt lat="43.199539509591276" lon="12.479079809898336"><ele>317.0</ele><time>2026-04-26T07:59:56.999Z</time></trkpt><trkpt lat="43.19960209153975" lon="12.478985844401887"><ele>317.0</ele><time>2026-04-26T07:59:57.999Z</time></trkpt><trkpt lat="43.199667716429914" lon="12.478896853000855"><ele>317.0</ele><time>2026-04-26T07:59:58.999Z</time></trkpt><trkpt lat="43.19972694098213" lon="12.478805679617897"><ele>317.0</ele><time>2026-04-26T07:59:59.999Z</time></trkpt><trkpt lat="43.19978569121515" lon="12.478715337460262"><ele>317.0</ele><time>2026-04-26T08:00:00.999Z</time></trkpt><trkpt lat="43.199843427545844" lon="12.47862611152944"><ele>317.0</ele><time>2026-04-26T08:00:01.999Z</time></trkpt><trkpt lat="43.19990474510358" lon="12.47854418271752"><ele>316.1666666666667</ele><time>2026-04-26T08:00:02.999Z</time></trkpt><trkpt lat="43.19996295392794" lon="12.47846473795971"><ele>315.33333333333337</ele><time>2026-04-26T08:00:03.999Z</time></trkpt><trkpt lat="43.200020133689115" lon="12.478391004858139"><ele>314.5</ele><time>2026-04-26T08:00:04.999Z</time></trkpt><trkpt lat="43.20007696511898" lon="12.4783259485551"><ele>313.6666666666667</ele><time>2026-04-26T08:00:05.999Z</time></trkpt><trkpt lat="43.20013936641971" lon="12.478264987846073"><ele>312.8333333333333</ele><time>2026-04-26T08:00:06.999Z</time></trkpt><trkpt lat="43.2002074748491" lon="12.47820888264738"><ele>312.0</ele><time>2026-04-26T08:00:07.999Z</time></trkpt><trkpt lat="43.20028037891294" lon="12.478155219576637"><ele>312.0</ele><time>2026-04-26T08:00:08.999Z</time></trkpt><trkpt lat="43.20035563599951" lon="12.47810637351966"><ele>312.0</ele><time>2026-04-26T08:00:09.999Z</time></trkpt><trkpt lat="43.20043228892974" lon="12.478068207197238"><ele>312.0</ele><time>2026-04-26T08:00:10.999Z</time></trkpt><trkpt lat="43.20051357924801" lon="12.478042339975397"><ele>312.0</ele><time>2026-04-26T08:00:11.999Z</time></trkpt><trkpt lat="43.20059221339305" lon="12.478018858641311"><ele>312.0</ele><time>2026-04-26T08:00:12.999Z</time></trkpt><trkpt lat="43.200666953853705" lon="12.47799352548287"><ele>312.0</ele><time>2026-04-26T08:00:13.999Z</time></trkpt><trkpt lat="43.20074322816779" lon="12.477960233385572"><ele>311.1666666666667</ele><time>2026-04-26T08:00:14.999Z</time></trkpt><trkpt lat="43.2008149278983" lon="12.477907670112787"><ele>310.3333333333333</ele><time>2026-04-26T08:00:15.999Z</time></trkpt><trkpt lat="43.20087448043217" lon="12.477840747425223"><ele>309.5</ele><time>2026-04-26T08:00:16.999Z</time></trkpt><trkpt lat="43.20092927600612" lon="12.477765553307682"><ele>308.66666666666663</ele><time>2026-04-26T08:00:17.998Z</time></trkpt><trkpt lat="43.200979765753715" lon="12.477685689790693"><ele>307.8333333333333</ele><time>2026-04-26T08:00:18.998Z</time></trkpt><trkpt lat="43.20103702822259" lon="12.477603292803394"><ele>307.0</ele><time>2026-04-26T08:00:19.998Z</time></trkpt><trkpt lat="43.20109150939199" lon="12.47752085733664"><ele>307.0</ele><time>2026-04-26T08:00:20.998Z</time></trkpt><trkpt lat="43.20115130272633" lon="12.477444775428626"><ele>307.0</ele><time>2026-04-26T08:00:21.998Z</time></trkpt><trkpt lat="43.20121553162274" lon="12.477378388534559"><ele>307.0</ele><time>2026-04-26T08:00:22.998Z</time></trkpt><trkpt lat="43.20127767667555" lon="12.477310189575373"><ele>307.0</ele><time>2026-04-26T08:00:23.998Z</time></trkpt><trkpt lat="43.20133857809971" lon="12.477236086225794"><ele>307.0</ele><time>2026-04-26T08:00:24.998Z</time></trkpt><trkpt lat="43.20139913744985" lon="12.477171734271852"><ele>307.0</ele><time>2026-04-26T08:00:25.998Z</time></trkpt><trkpt lat="43.2014621832038" lon="12.477122078623054"><ele>305.99999999999994</ele><time>2026-04-26T08:00:26.998Z</time></trkpt><trkpt lat="43.20152597639051" lon="12.477075428182411"><ele>305.0</ele><time>2026-04-26T08:00:27.998Z</time></trkpt><trkpt lat="43.201587244294785" lon="12.477026504382817"><ele>304.0</ele><time>2026-04-26T08:00:28.998Z</time></trkpt><trkpt lat="43.2016510121731" lon="12.476971581630233"><ele>303.0</ele><time>2026-04-26T08:00:29.998Z</time></trkpt><trkpt lat="43.201718658644005" lon="12.476923576458857"><ele>302.0</ele><time>2026-04-26T08:00:30.998Z</time></trkpt><trkpt lat="43.201780591161295" lon="12.47687559323467"><ele>300.99999999999994</ele><time>2026-04-26T08:00:31.998Z</time></trkpt><trkpt lat="43.20184491567007" lon="12.476820227365842"><ele>300.0</ele><time>2026-04-26T08:00:32.998Z</time></trkpt><trkpt lat="43.20190859389083" lon="12.476766398059755"><ele>300.0</ele><time>2026-04-26T08:00:33.998Z</time></trkpt><trkpt lat="43.20197434336778" lon="12.476706817883413"><ele>300.0</ele><time>2026-04-26T08:00:34.998Z</time></trkpt><trkpt lat="43.20203907546041" lon="12.476641273811786"><ele>300.0</ele><time>2026-04-26T08:00:35.998Z</time></trkpt><trkpt lat="43.20210138394255" lon="12.476575852928494"><ele>300.0</ele><time>2026-04-26T08:00:36.998Z</time></trkpt><trkpt lat="43.202162491539546" lon="12.476510310758327"><ele>300.0</ele><time>2026-04-26T08:00:38.001Z</time></trkpt><trkpt lat="43.20222553033034" lon="12.476446290463864"><ele>300.0</ele><time>2026-04-26T08:00:39.001Z</time></trkpt><trkpt lat="43.20228609331675" lon="12.476382271742775"><ele>300.3333333333333</ele><time>2026-04-26T08:00:40.001Z</time></trkpt><trkpt lat="43.202343855040034" lon="12.47632843846361"><ele>300.6666666666667</ele><time>2026-04-26T08:00:41.001Z</time></trkpt><trkpt lat="43.20239896307124" lon="12.476274389862303"><ele>301.0</ele><time>2026-04-26T08:00:42.001Z</time></trkpt><trkpt lat="43.2024561662191" lon="12.476226843745732"><ele>301.33333333333337</ele><time>2026-04-26T08:00:43.001Z</time></trkpt><trkpt lat="43.20252101186682" lon="12.476196857762408"><ele>301.6666666666667</ele><time>2026-04-26T08:00:44.001Z</time></trkpt><trkpt lat="43.20264485237677" lon="12.476190070730098"><ele>302.0</ele><time>2026-04-26T08:00:46.001Z</time></trkpt><trkpt lat="43.20276052797306" lon="12.47622060473137"><ele>302.0</ele><time>2026-04-26T08:00:48.001Z</time></trkpt><trkpt lat="43.20287439761479" lon="12.476244357856817"><ele>302.0</ele><time>2026-04-26T08:00:50.001Z</time></trkpt><trkpt lat="43.20293697911148" lon="12.476273937783656"><ele>302.0</ele><time>2026-04-26T08:00:51.001Z</time></trkpt><trkpt lat="43.203001896017504" lon="12.476298930487898"><ele>302.0</ele><time>2026-04-26T08:00:52Z</time></trkpt><trkpt lat="43.20306969909583" lon="12.47631571736468"><ele>302.0</ele><time>2026-04-26T08:00:53Z</time></trkpt><trkpt lat="43.203133370133536" lon="12.476316212052252"><ele>302.0</ele><time>2026-04-26T08:00:54Z</time></trkpt><trkpt lat="43.203236594223974" lon="12.47630327370205"><ele>300.5</ele><time>2026-04-26T08:00:56Z</time></trkpt><trkpt lat="43.20333676925989" lon="12.476236103879106"><ele>299.0</ele><time>2026-04-26T08:00:58Z</time></trkpt><trkpt lat="43.203393215221666" lon="12.47617927348427"><ele>297.5</ele><time>2026-04-26T08:00:59Z</time></trkpt><trkpt lat="43.20345517946638" lon="12.47610439890773"><ele>296.0</ele><time>2026-04-26T08:01:00Z</time></trkpt><trkpt lat="43.203520308622586" lon="12.476028047540849"><ele>294.5</ele><time>2026-04-26T08:01:01Z</time></trkpt><trkpt lat="43.203580221928505" lon="12.475966295969851"><ele>293.0</ele><time>2026-04-26T08:01:02Z</time></trkpt><trkpt lat="43.2036316519382" lon="12.475915367504376"><ele>293.0</ele><time>2026-04-26T08:01:03Z</time></trkpt><trkpt lat="43.203691157812116" lon="12.475878538945885"><ele>293.0</ele><time>2026-04-26T08:01:04Z</time></trkpt><trkpt lat="43.20376117261191" lon="12.47584769083262"><ele>293.0</ele><time>2026-04-26T08:01:05Z</time></trkpt><trkpt lat="43.20383174058079" lon="12.47581604040407"><ele>293.0</ele><time>2026-04-26T08:01:06Z</time></trkpt><trkpt lat="43.203905064134524" lon="12.475776068637131"><ele>293.0</ele><time>2026-04-26T08:01:07Z</time></trkpt><trkpt lat="43.203976856341086" lon="12.475725527520776"><ele>293.0</ele><time>2026-04-26T08:01:08Z</time></trkpt><trkpt lat="43.20405060540357" lon="12.475673462436724"><ele>293.83333333333337</ele><time>2026-04-26T08:01:09Z</time></trkpt><trkpt lat="43.2041136154827" lon="12.475629565644526"><ele>294.6666666666667</ele><time>2026-04-26T08:01:10Z</time></trkpt><trkpt lat="43.204177281087745" lon="12.47560619069925"><ele>295.5</ele><time>2026-04-26T08:01:11Z</time></trkpt><trkpt lat="43.20424099577714" lon="12.475603079696418"><ele>296.3333333333333</ele><time>2026-04-26T08:01:12Z</time></trkpt><trkpt lat="43.204303220333784" lon="12.47561815783525"><ele>297.16666666666663</ele><time>2026-04-26T08:01:13Z</time></trkpt><trkpt lat="43.20442193415359" lon="12.475642825635965"><ele>298.0</ele><time>2026-04-26T08:01:15Z</time></trkpt><trkpt lat="43.20449450058595" lon="12.475657011811776"><ele>298.0</ele><time>2026-04-26T08:01:16Z</time></trkpt><trkpt lat="43.204576039980005" lon="12.475676633881129"><ele>298.0</ele><time>2026-04-26T08:01:17Z</time></trkpt><trkpt lat="43.20465276034264" lon="12.475695194387457"><ele>298.0</ele><time>2026-04-26T08:01:18Z</time></trkpt><trkpt lat="43.20471855978794" lon="12.475720788476856"><ele>298.0</ele><time>2026-04-26T08:01:19Z</time></trkpt><trkpt lat="43.20479437435332" lon="12.475735490602778"><ele>298.0</ele><time>2026-04-26T08:01:20Z</time></trkpt><trkpt lat="43.2048737444846" lon="12.475744253927925"><ele>298.0</ele><time>2026-04-26T08:01:21Z</time></trkpt><trkpt lat="43.204959662294065" lon="12.475751471637354"><ele>297.16666666666663</ele><time>2026-04-26T08:01:22Z</time></trkpt><trkpt lat="43.2050413277095" lon="12.475757319291898"><ele>296.3333333333333</ele><time>2026-04-26T08:01:23Z</time></trkpt><trkpt lat="43.20512294258234" lon="12.475758409240168"><ele>295.5</ele><time>2026-04-26T08:01:24Z</time></trkpt><trkpt lat="43.205205862356586" lon="12.475757279018774"><ele>294.6666666666667</ele><time>2026-04-26T08:01:25Z</time></trkpt><trkpt lat="43.20529219881138" lon="12.475754999866586"><ele>293.83333333333337</ele><time>2026-04-26T08:01:26Z</time></trkpt><trkpt lat="43.205377907692444" lon="12.47574478116085"><ele>293.0</ele><time>2026-04-26T08:01:27Z</time></trkpt><trkpt lat="43.205467358473" lon="12.475724803781764"><ele>293.0</ele><time>2026-04-26T08:01:28Z</time></trkpt><trkpt lat="43.205555993460635" lon="12.475691074078727"><ele>293.0</ele><time>2026-04-26T08:01:29Z</time></trkpt><trkpt lat="43.20564176695587" lon="12.475647717080914"><ele>293.0</ele><time>2026-04-26T08:01:29.999Z</time></trkpt><trkpt lat="43.20572336663015" lon="12.475597681469413"><ele>293.0</ele><time>2026-04-26T08:01:30.999Z</time></trkpt><trkpt lat="43.20581109331211" lon="12.475572935124815"><ele>293.0</ele><time>2026-04-26T08:01:31.999Z</time></trkpt><trkpt lat="43.20589081154288" lon="12.475537317038285"><ele>293.0</ele><time>2026-04-26T08:01:32.999Z</time></trkpt><trkpt lat="43.205968197764086" lon="12.475504902119463"><ele>293.33333333333337</ele><time>2026-04-26T08:01:33.999Z</time></trkpt><trkpt lat="43.206041369111844" lon="12.475460139519281"><ele>293.6666666666667</ele><time>2026-04-26T08:01:34.999Z</time></trkpt><trkpt lat="43.20611609024173" lon="12.475430470698015"><ele>294.0</ele><time>2026-04-26T08:01:35.999Z</time></trkpt><trkpt lat="43.20618996785568" lon="12.475412333399214"><ele>294.3333333333333</ele><time>2026-04-26T08:01:36.999Z</time></trkpt><trkpt lat="43.20626435576499" lon="12.475395689072274"><ele>294.66666666666663</ele><time>2026-04-26T08:01:37.999Z</time></trkpt><trkpt lat="43.2063429747191" lon="12.475374976049839"><ele>295.0</ele><time>2026-04-26T08:01:38.999Z</time></trkpt><trkpt lat="43.2064246624602" lon="12.475345649888444"><ele>293.0</ele><time>2026-04-26T08:01:39.999Z</time></trkpt><trkpt lat="43.20651123598768" lon="12.475320987018273"><ele>291.0</ele><time>2026-04-26T08:01:40.999Z</time></trkpt><trkpt lat="43.206601670170585" lon="12.47531946472599"><ele>289.0</ele><time>2026-04-26T08:01:41.999Z</time></trkpt><trkpt lat="43.20668764641501" lon="12.475296610227234"><ele>287.0</ele><time>2026-04-26T08:01:42.999Z</time></trkpt><trkpt lat="43.20677045913827" lon="12.475256054508167"><ele>285.0</ele><time>2026-04-26T08:01:43.999Z</time></trkpt><trkpt lat="43.20685317147995" lon="12.475239805271949"><ele>283.0</ele><time>2026-04-26T08:01:44.999Z</time></trkpt><trkpt lat="43.20693195843115" lon="12.475211410265446"><ele>283.0</ele><time>2026-04-26T08:01:45.999Z</time></trkpt><trkpt lat="43.2070110015477" lon="12.475172063903154"><ele>283.0</ele><time>2026-04-26T08:01:46.999Z</time></trkpt><trkpt lat="43.20709502846867" lon="12.475138155771091"><ele>283.0</ele><time>2026-04-26T08:01:47.999Z</time></trkpt><trkpt lat="43.207184321570246" lon="12.475111743755914"><ele>283.0</ele><time>2026-04-26T08:01:48.999Z</time></trkpt><trkpt lat="43.20727476605083" lon="12.475084115267508"><ele>283.0</ele><time>2026-04-26T08:01:49.999Z</time></trkpt><trkpt lat="43.20736517901676" lon="12.475055939136523"><ele>283.0</ele><time>2026-04-26T08:01:50.999Z</time></trkpt><trkpt lat="43.207453307702636" lon="12.47502134567754"><ele>283.3333333333333</ele><time>2026-04-26T08:01:51.999Z</time></trkpt><trkpt lat="43.20753739581211" lon="12.474982833066422"><ele>283.66666666666663</ele><time>2026-04-26T08:01:52.999Z</time></trkpt><trkpt lat="43.20762347282688" lon="12.474936567595368"><ele>284.0</ele><time>2026-04-26T08:01:53.999Z</time></trkpt><trkpt lat="43.20770355171638" lon="12.474884452177017"><ele>284.3333333333333</ele><time>2026-04-26T08:01:54.999Z</time></trkpt><trkpt lat="43.20777525076575" lon="12.474829657719114"><ele>284.6666666666667</ele><time>2026-04-26T08:01:55.999Z</time></trkpt><trkpt lat="43.20784455751681" lon="12.474787512990998"><ele>285.0</ele><time>2026-04-26T08:01:56.999Z</time></trkpt><trkpt lat="43.20791081371635" lon="12.474773340960054"><ele>285.0</ele><time>2026-04-26T08:01:57.999Z</time></trkpt><trkpt lat="43.20801693869193" lon="12.474830068697855"><ele>285.0</ele><time>2026-04-26T08:01:59.999Z</time></trkpt><trkpt lat="43.20810522497372" lon="12.474889209013305"><ele>285.0</ele><time>2026-04-26T08:02:01.999Z</time></trkpt><trkpt lat="43.208170912137014" lon="12.47492967239052"><ele>285.0</ele><time>2026-04-26T08:02:02.999Z</time></trkpt><trkpt lat="43.20824350589486" lon="12.474966226969114"><ele>285.0</ele><time>2026-04-26T08:02:03.999Z</time></trkpt><trkpt lat="43.20832210656804" lon="12.474999110217208"><ele>285.0</ele><time>2026-04-26T08:02:04.999Z</time></trkpt><trkpt lat="43.20839896823222" lon="12.475034981626509"><ele>284.6666666666667</ele><time>2026-04-26T08:02:05.999Z</time></trkpt><trkpt lat="43.20847698306733" lon="12.475066200343528"><ele>284.3333333333333</ele><time>2026-04-26T08:02:06.999Z</time></trkpt><trkpt lat="43.208557724761214" lon="12.475097797166677"><ele>284.0</ele><time>2026-04-26T08:02:07.999Z</time></trkpt><trkpt lat="43.20864018297739" lon="12.475130122882133"><ele>283.66666666666663</ele><time>2026-04-26T08:02:08.999Z</time></trkpt><trkpt lat="43.20872336609263" lon="12.475163178804047"><ele>283.3333333333333</ele><time>2026-04-26T08:02:09.999Z</time></trkpt><trkpt lat="43.20880844079204" lon="12.475194097907869"><ele>283.0</ele><time>2026-04-26T08:02:10.999Z</time></trkpt><trkpt lat="43.208894158468134" lon="12.475227690209804"><ele>283.0</ele><time>2026-04-26T08:02:11.999Z</time></trkpt><trkpt lat="43.20897920882965" lon="12.475266157406942"><ele>283.0</ele><time>2026-04-26T08:02:12.999Z</time></trkpt><trkpt lat="43.20906470950072" lon="12.475303563160633"><ele>283.0</ele><time>2026-04-26T08:02:13.998Z</time></trkpt><trkpt lat="43.20914806424223" lon="12.475341358227213"><ele>283.0</ele><time>2026-04-26T08:02:14.998Z</time></trkpt><trkpt lat="43.20922714312895" lon="12.475376069232503"><ele>283.0</ele><time>2026-04-26T08:02:15.998Z</time></trkpt><trkpt lat="43.20930209558743" lon="12.47542226668277"><ele>283.0</ele><time>2026-04-26T08:02:16.998Z</time></trkpt><trkpt lat="43.20936724064586" lon="12.475474393920088"><ele>284.16666666666663</ele><time>2026-04-26T08:02:17.998Z</time></trkpt><trkpt lat="43.20943031533629" lon="12.475524099371706"><ele>285.3333333333333</ele><time>2026-04-26T08:02:18.998Z</time></trkpt><trkpt lat="43.209486447786354" lon="12.475587046884048"><ele>286.5</ele><time>2026-04-26T08:02:19.998Z</time></trkpt><trkpt lat="43.20953769897456" lon="12.475665806318121"><ele>287.6666666666667</ele><time>2026-04-26T08:02:20.998Z</time></trkpt><trkpt lat="43.20959287560713" lon="12.475757892986037"><ele>288.83333333333337</ele><time>2026-04-26T08:02:21.998Z</time></trkpt><trkpt lat="43.20964374285777" lon="12.475846348575677"><ele>290.0</ele><time>2026-04-26T08:02:22.998Z</time></trkpt><trkpt lat="43.209699971158145" lon="12.475934608398779"><ele>290.0</ele><time>2026-04-26T08:02:23.998Z</time></trkpt><trkpt lat="43.20975926267767" lon="12.476018483970934"><ele>290.0</ele><time>2026-04-26T08:02:24.998Z</time></trkpt><trkpt lat="43.20981978620454" lon="12.476103325814645"><ele>290.0</ele><time>2026-04-26T08:02:25.998Z</time></trkpt><trkpt lat="43.20988139434415" lon="12.476183813281628"><ele>290.0</ele><time>2026-04-26T08:02:26.998Z</time></trkpt><trkpt lat="43.2099426953714" lon="12.476263822311193"><ele>290.0</ele><time>2026-04-26T08:02:27.998Z</time></trkpt><trkpt lat="43.21000860889033" lon="12.476336654949252"><ele>290.0</ele><time>2026-04-26T08:02:28.998Z</time></trkpt><trkpt lat="43.21007619303646" lon="12.476405281029397"><ele>290.1666666666667</ele><time>2026-04-26T08:02:29.998Z</time></trkpt><trkpt lat="43.21014737569406" lon="12.476463203351647"><ele>290.33333333333337</ele><time>2026-04-26T08:02:30.998Z</time></trkpt><trkpt lat="43.21022358692074" lon="12.476512198307553"><ele>290.5</ele><time>2026-04-26T08:02:31.998Z</time></trkpt><trkpt lat="43.21030374623161" lon="12.476555053643116"><ele>290.6666666666667</ele><time>2026-04-26T08:02:32.998Z</time></trkpt><trkpt lat="43.21037915168116" lon="12.476596226135914"><ele>290.8333333333333</ele><time>2026-04-26T08:02:33.998Z</time></trkpt><trkpt lat="43.21045207387719" lon="12.476630902850038"><ele>291.0</ele><time>2026-04-26T08:02:34.998Z</time></trkpt><trkpt lat="43.21053208332689" lon="12.476661556341705"><ele>291.0</ele><time>2026-04-26T08:02:35.998Z</time></trkpt><trkpt lat="43.21061234240707" lon="12.476681698059402"><ele>291.0</ele><time>2026-04-26T08:02:36.998Z</time></trkpt><trkpt lat="43.21069546720752" lon="12.476687743921461"><ele>291.0</ele><time>2026-04-26T08:02:37.998Z</time></trkpt><trkpt lat="43.21077602713994" lon="12.47670369931121"><ele>291.0</ele><time>2026-04-26T08:02:38.998Z</time></trkpt><trkpt lat="43.21085700431182" lon="12.47673780257359"><ele>291.0</ele><time>2026-04-26T08:02:39.998Z</time></trkpt><trkpt lat="43.21093947360695" lon="12.476781628642517"><ele>291.0</ele><time>2026-04-26T08:02:40.998Z</time></trkpt><trkpt lat="43.21102473657576" lon="12.476825679485284"><ele>290.0</ele><time>2026-04-26T08:02:41.998Z</time></trkpt><trkpt lat="43.21111014177574" lon="12.476870881628955"><ele>289.0</ele><time>2026-04-26T08:02:43Z</time></trkpt><trkpt lat="43.2111975391548" lon="12.476918719080297"><ele>288.0</ele><time>2026-04-26T08:02:44Z</time></trkpt><trkpt lat="43.21127926838774" lon="12.476963900878388"><ele>287.0</ele><time>2026-04-26T08:02:45Z</time></trkpt><trkpt lat="43.211363512182274" lon="12.477015273153235"><ele>286.0</ele><time>2026-04-26T08:02:46Z</time></trkpt><trkpt lat="43.21144168351567" lon="12.477069573017593"><ele>286.4285714285714</ele><time>2026-04-26T08:02:47Z</time></trkpt><trkpt lat="43.21151869108938" lon="12.477117314461738"><ele>286.85714285714283</ele><time>2026-04-26T08:02:48Z</time></trkpt><trkpt lat="43.21159040897859" lon="12.477147124322391"><ele>287.2857142857143</ele><time>2026-04-26T08:02:49Z</time></trkpt><trkpt lat="43.21165675056406" lon="12.477177075555577"><ele>287.71428571428567</ele><time>2026-04-26T08:02:50Z</time></trkpt><trkpt lat="43.21172372052719" lon="12.47720457465199"><ele>288.1428571428571</ele><time>2026-04-26T08:02:51Z</time></trkpt><trkpt lat="43.211798754887184" lon="12.477232002886248"><ele>288.57142857142856</ele><time>2026-04-26T08:02:52Z</time></trkpt><trkpt lat="43.21186757912966" lon="12.477243766386135"><ele>289.0</ele><time>2026-04-26T08:02:53Z</time></trkpt><trkpt lat="43.21193216745831" lon="12.477253148285214"><ele>289.0</ele><time>2026-04-26T08:02:54Z</time></trkpt><trkpt lat="43.21199834513992" lon="12.477253942604545"><ele>289.0</ele><time>2026-04-26T08:02:55Z</time></trkpt><trkpt lat="43.21206846538927" lon="12.477255805360388"><ele>289.0</ele><time>2026-04-26T08:02:56Z</time></trkpt><trkpt lat="43.212139875411715" lon="12.477250926885631"><ele>289.0</ele><time>2026-04-26T08:02:57Z</time></trkpt><trkpt lat="43.21221274193788" lon="12.477238989725532"><ele>289.0</ele><time>2026-04-26T08:02:58Z</time></trkpt><trkpt lat="43.212289654852476" lon="12.477223428117044"><ele>289.0</ele><time>2026-04-26T08:02:59Z</time></trkpt><trkpt lat="43.212363176473986" lon="12.477205357943605"><ele>289.0</ele><time>2026-04-26T08:03:00Z</time></trkpt><trkpt lat="43.21243588851899" lon="12.477191255678564"><ele>289.2857142857143</ele><time>2026-04-26T08:03:01Z</time></trkpt><trkpt lat="43.212517253134855" lon="12.477183271985135"><ele>289.57142857142856</ele><time>2026-04-26T08:03:02Z</time></trkpt><trkpt lat="43.212594733578904" lon="12.477176120116447"><ele>289.85714285714283</ele><time>2026-04-26T08:03:03Z</time></trkpt><trkpt lat="43.21267213796355" lon="12.477170804331497"><ele>290.1428571428571</ele><time>2026-04-26T08:03:04Z</time></trkpt><trkpt lat="43.21274262123682" lon="12.477184103033016"><ele>290.4285714285714</ele><time>2026-04-26T08:03:05Z</time></trkpt><trkpt lat="43.21280905311169" lon="12.477182068963753"><ele>290.7142857142857</ele><time>2026-04-26T08:03:06Z</time></trkpt><trkpt lat="43.21287352096605" lon="12.477180095027474"><ele>291.0</ele><time>2026-04-26T08:03:07Z</time></trkpt><trkpt lat="43.21300304007906" lon="12.477180965489747"><ele>291.0</ele><time>2026-04-26T08:03:09Z</time></trkpt><trkpt lat="43.21307004639052" lon="12.477174281948257"><ele>291.0</ele><time>2026-04-26T08:03:10Z</time></trkpt><trkpt lat="43.213138375811575" lon="12.477204895043439"><ele>291.0</ele><time>2026-04-26T08:03:11Z</time></trkpt><trkpt lat="43.21320286829344" lon="12.477239880727259"><ele>291.0</ele><time>2026-04-26T08:03:12Z</time></trkpt><trkpt lat="43.21326616615061" lon="12.47729322634433"><ele>291.0</ele><time>2026-04-26T08:03:13Z</time></trkpt><trkpt lat="43.21332969186542" lon="12.477357381166275"><ele>291.0</ele><time>2026-04-26T08:03:14Z</time></trkpt><trkpt lat="43.21338812267142" lon="12.477425731728577"><ele>291.0</ele><time>2026-04-26T08:03:15Z</time></trkpt><trkpt lat="43.21344693037235" lon="12.47749632191686"><ele>291.3333333333333</ele><time>2026-04-26T08:03:16Z</time></trkpt><trkpt lat="43.21349706647018" lon="12.47756285275842"><ele>291.6666666666667</ele><time>2026-04-26T08:03:17Z</time></trkpt><trkpt lat="43.21355011867169" lon="12.477620156523695"><ele>292.0</ele><time>2026-04-26T08:03:18Z</time></trkpt><trkpt lat="43.21360709890381" lon="12.477670265455847"><ele>292.33333333333337</ele><time>2026-04-26T08:03:19Z</time></trkpt><trkpt lat="43.21366681041118" lon="12.477724366741445"><ele>292.6666666666667</ele><time>2026-04-26T08:03:20Z</time></trkpt><trkpt lat="43.21375617615469" lon="12.477826354519337"><ele>293.0</ele><time>2026-04-26T08:03:22Z</time></trkpt><trkpt lat="43.21382672040242" lon="12.477941749890814"><ele>293.0</ele><time>2026-04-26T08:03:24Z</time></trkpt><trkpt lat="43.21390233668418" lon="12.4780556182338"><ele>293.0</ele><time>2026-04-26T08:03:26Z</time></trkpt><trkpt lat="43.21398910094088" lon="12.478167996364066"><ele>293.0</ele><time>2026-04-26T08:03:28Z</time></trkpt><trkpt lat="43.214073726225934" lon="12.478278281116518"><ele>293.0</ele><time>2026-04-26T08:03:30Z</time></trkpt><trkpt lat="43.21416179899058" lon="12.478377047321942"><ele>293.4</ele><time>2026-04-26T08:03:32Z</time></trkpt><trkpt lat="43.214245327830284" lon="12.478477056314905"><ele>293.8</ele><time>2026-04-26T08:03:34Z</time></trkpt><trkpt lat="43.21433889355607" lon="12.478587527166097"><ele>294.2</ele><time>2026-04-26T08:03:35.999Z</time></trkpt><trkpt lat="43.21438705802016" lon="12.478650855051526"><ele>294.6</ele><time>2026-04-26T08:03:36.999Z</time></trkpt><trkpt lat="43.21443577137535" lon="12.478710668497135"><ele>295.0</ele><time>2026-04-26T08:03:37.999Z</time></trkpt><trkpt lat="43.21451936140021" lon="12.478830296473838"><ele>295.0</ele><time>2026-04-26T08:03:39.999Z</time></trkpt><trkpt lat="43.2145707503866" lon="12.478902253663367"><ele>295.0</ele><time>2026-04-26T08:03:40.999Z</time></trkpt><trkpt lat="43.21462410161457" lon="12.478982365979114"><ele>295.0</ele><time>2026-04-26T08:03:41.999Z</time></trkpt><trkpt lat="43.21467870368525" lon="12.479061358320141"><ele>295.0</ele><time>2026-04-26T08:03:42.999Z</time></trkpt><trkpt lat="43.21472936485099" lon="12.479139362388734"><ele>295.0</ele><time>2026-04-26T08:03:43.999Z</time></trkpt><trkpt lat="43.214780739222164" lon="12.479217038228583"><ele>295.0</ele><time>2026-04-26T08:03:44.999Z</time></trkpt><trkpt lat="43.214832908528265" lon="12.479292276348577"><ele>297.0</ele><time>2026-04-26T08:03:45.999Z</time></trkpt><trkpt lat="43.21488668664537" lon="12.479373376062359"><ele>299.0</ele><time>2026-04-26T08:03:46.999Z</time></trkpt><trkpt lat="43.21494051106592" lon="12.479457454069918"><ele>301.0</ele><time>2026-04-26T08:03:47.999Z</time></trkpt><trkpt lat="43.21500100121568" lon="12.479543773362037"><ele>303.0</ele><time>2026-04-26T08:03:48.999Z</time></trkpt><trkpt lat="43.215067341129256" lon="12.479636700470808"><ele>305.0</ele><time>2026-04-26T08:03:49.999Z</time></trkpt><trkpt lat="43.21513212986274" lon="12.479730681702426"><ele>307.0</ele><time>2026-04-26T08:03:50.999Z</time></trkpt><trkpt lat="43.21519295895029" lon="12.479824536736398"><ele>307.0</ele><time>2026-04-26T08:03:51.999Z</time></trkpt><trkpt lat="43.215252051706905" lon="12.479916483793547"><ele>307.0</ele><time>2026-04-26T08:03:52.999Z</time></trkpt><trkpt lat="43.21531140449103" lon="12.480009352272788"><ele>307.0</ele><time>2026-04-26T08:03:53.999Z</time></trkpt><trkpt lat="43.21536954803332" lon="12.48010167997661"><ele>307.0</ele><time>2026-04-26T08:03:54.999Z</time></trkpt><trkpt lat="43.21542576927304" lon="12.480198609454682"><ele>307.0</ele><time>2026-04-26T08:03:55.999Z</time></trkpt><trkpt lat="43.215476859845374" lon="12.480291922293697"><ele>307.0</ele><time>2026-04-26T08:03:56.999Z</time></trkpt><trkpt lat="43.215527046514495" lon="12.480384793598606"><ele>305.66666666666663</ele><time>2026-04-26T08:03:57.999Z</time></trkpt><trkpt lat="43.215567792669596" lon="12.480478738371714"><ele>304.3333333333333</ele><time>2026-04-26T08:03:58.999Z</time></trkpt><trkpt lat="43.21560299280945" lon="12.480567326153075"><ele>303.0</ele><time>2026-04-26T08:03:59.999Z</time></trkpt><trkpt lat="43.2156339577859" lon="12.480647440796766"><ele>301.6666666666667</ele><time>2026-04-26T08:04:00.999Z</time></trkpt><trkpt lat="43.215725144845734" lon="12.480755171435074"><ele>300.33333333333337</ele><time>2026-04-26T08:04:02.999Z</time></trkpt><trkpt lat="43.21576883044202" lon="12.480823875308646"><ele>299.0</ele><time>2026-04-26T08:04:03.999Z</time></trkpt><trkpt lat="43.21581289540763" lon="12.480904440363439"><ele>300.5</ele><time>2026-04-26T08:04:04.999Z</time></trkpt><trkpt lat="43.21585541464854" lon="12.480990281499098"><ele>302.0</ele><time>2026-04-26T08:04:05.999Z</time></trkpt><trkpt lat="43.21590488338006" lon="12.481074172034612"><ele>303.5</ele><time>2026-04-26T08:04:06.999Z</time></trkpt><trkpt lat="43.215962969170775" lon="12.48115887282019"><ele>305.0</ele><time>2026-04-26T08:04:07.999Z</time></trkpt><trkpt lat="43.21602512894973" lon="12.481239486533664"><ele>306.5</ele><time>2026-04-26T08:04:08.999Z</time></trkpt><trkpt lat="43.216089533813665" lon="12.481314020708366"><ele>308.0</ele><time>2026-04-26T08:04:09.999Z</time></trkpt><trkpt lat="43.21615431170761" lon="12.481382284890975"><ele>308.0</ele><time>2026-04-26T08:04:10.999Z</time></trkpt><trkpt lat="43.216218321191974" lon="12.481464095917666"><ele>308.0</ele><time>2026-04-26T08:04:11.999Z</time></trkpt><trkpt lat="43.21628625866736" lon="12.481536530683005"><ele>308.0</ele><time>2026-04-26T08:04:12.999Z</time></trkpt><trkpt lat="43.21635082852944" lon="12.481616322050066"><ele>308.0</ele><time>2026-04-26T08:04:13.999Z</time></trkpt><trkpt lat="43.2164177807631" lon="12.481695648477666"><ele>308.0</ele><time>2026-04-26T08:04:14.999Z</time></trkpt><trkpt lat="43.216484195544346" lon="12.481769642938218"><ele>308.0</ele><time>2026-04-26T08:04:15.999Z</time></trkpt><trkpt lat="43.216544083309984" lon="12.48184231908912"><ele>309.14285714285717</ele><time>2026-04-26T08:04:16.999Z</time></trkpt><trkpt lat="43.21659724974986" lon="12.481915382576867"><ele>310.2857142857143</ele><time>2026-04-26T08:04:17.999Z</time></trkpt><trkpt lat="43.216644391233466" lon="12.481990346993788"><ele>311.42857142857144</ele><time>2026-04-26T08:04:18.999Z</time></trkpt><trkpt lat="43.216687281449296" lon="12.482071620605215"><ele>312.57142857142856</ele><time>2026-04-26T08:04:19.998Z</time></trkpt><trkpt lat="43.216724009741995" lon="12.482155936029836"><ele>313.7142857142857</ele><time>2026-04-26T08:04:20.998Z</time></trkpt><trkpt lat="43.216759476814644" lon="12.482245431406625"><ele>314.8571428571429</ele><time>2026-04-26T08:04:21.998Z</time></trkpt><trkpt lat="43.21679858241766" lon="12.482332512877518"><ele>316.0</ele><time>2026-04-26T08:04:22.998Z</time></trkpt><trkpt lat="43.21683899207555" lon="12.482422293223326"><ele>316.0</ele><time>2026-04-26T08:04:23.998Z</time></trkpt><trkpt lat="43.216879349492025" lon="12.482505349792469"><ele>316.0</ele><time>2026-04-26T08:04:24.998Z</time></trkpt><trkpt lat="43.21690519245244" lon="12.482605404088812"><ele>316.0</ele><time>2026-04-26T08:04:25.998Z</time></trkpt><trkpt lat="43.21694001400301" lon="12.48269036725055"><ele>316.0</ele><time>2026-04-26T08:04:26.998Z</time></trkpt><trkpt lat="43.21700428065134" lon="12.48281531658269"><ele>316.0</ele><time>2026-04-26T08:04:28.998Z</time></trkpt><trkpt lat="43.2170368906265" lon="12.482932019481387"><ele>316.0</ele><time>2026-04-26T08:04:30.998Z</time></trkpt><trkpt lat="43.21709463859841" lon="12.483051072873245"><ele>314.40000000000003</ele><time>2026-04-26T08:04:32.998Z</time></trkpt><trkpt lat="43.21714172427143" lon="12.483187827289987"><ele>312.8</ele><time>2026-04-26T08:04:34.998Z</time></trkpt><trkpt lat="43.217181028123576" lon="12.483316443482385"><ele>311.20000000000005</ele><time>2026-04-26T08:04:36.998Z</time></trkpt><trkpt lat="43.217209420170235" lon="12.483468147214703"><ele>309.6</ele><time>2026-04-26T08:04:38.998Z</time></trkpt><trkpt lat="43.21722199711" lon="12.483569653882062"><ele>308.0</ele><time>2026-04-26T08:04:39.998Z</time></trkpt><trkpt lat="43.21723751053451" lon="12.483676630611354"><ele>306.8</ele><time>2026-04-26T08:04:40.998Z</time></trkpt><trkpt lat="43.21727305693919" lon="12.483784923107931"><ele>305.6</ele><time>2026-04-26T08:04:41.998Z</time></trkpt><trkpt lat="43.21733469850202" lon="12.48387272941154"><ele>304.4</ele><time>2026-04-26T08:04:42.998Z</time></trkpt><trkpt lat="43.21737274527265" lon="12.483994360750113"><ele>303.2</ele><time>2026-04-26T08:04:43.998Z</time></trkpt><trkpt lat="43.217426491087814" lon="12.484113216915471"><ele>302.0</ele><time>2026-04-26T08:04:44.998Z</time></trkpt><trkpt lat="43.21748138710267" lon="12.484234616767026"><ele>302.6</ele><time>2026-04-26T08:04:45.998Z</time></trkpt><trkpt lat="43.2175527239402" lon="12.484345034754256"><ele>303.2</ele><time>2026-04-26T08:04:46.998Z</time></trkpt><trkpt lat="43.21760949082784" lon="12.484470013767016"><ele>303.8</ele><time>2026-04-26T08:04:48Z</time></trkpt><trkpt lat="43.217672740950746" lon="12.484587435869631"><ele>304.4</ele><time>2026-04-26T08:04:49Z</time></trkpt><trkpt lat="43.217740069563" lon="12.48469530755276"><ele>305.0</ele><time>2026-04-26T08:04:50Z</time></trkpt><trkpt lat="43.21780341577719" lon="12.484778585762324"><ele>305.0</ele><time>2026-04-26T08:04:51Z</time></trkpt><trkpt lat="43.21786311779362" lon="12.484844476159314"><ele>305.0</ele><time>2026-04-26T08:04:52Z</time></trkpt><trkpt lat="43.21792227980992" lon="12.484886231544412"><ele>305.0</ele><time>2026-04-26T08:04:53Z</time></trkpt><trkpt lat="43.2180505608735" lon="12.484915072990267"><ele>305.0</ele><time>2026-04-26T08:04:55Z</time></trkpt><trkpt lat="43.218118994015285" lon="12.484892366100954"><ele>305.0</ele><time>2026-04-26T08:04:56Z</time></trkpt><trkpt lat="43.218186719658895" lon="12.484857440468668"><ele>305.0</ele><time>2026-04-26T08:04:57Z</time></trkpt><trkpt lat="43.21826076777071" lon="12.484818043600859"><ele>307.4</ele><time>2026-04-26T08:04:58Z</time></trkpt><trkpt lat="43.218339342061846" lon="12.484780447994966"><ele>309.8</ele><time>2026-04-26T08:04:59Z</time></trkpt><trkpt lat="43.218422516542475" lon="12.484735044139079"><ele>312.2</ele><time>2026-04-26T08:05:00Z</time></trkpt><trkpt lat="43.21850742756849" lon="12.48468423639677"><ele>314.6</ele><time>2026-04-26T08:05:01Z</time></trkpt><trkpt lat="43.218593207664554" lon="12.484623567435142"><ele>317.0</ele><time>2026-04-26T08:05:02Z</time></trkpt><trkpt lat="43.21867433370361" lon="12.484552464738352"><ele>319.1666666666667</ele><time>2026-04-26T08:05:03Z</time></trkpt><trkpt lat="43.218744164984415" lon="12.48448344539448"><ele>321.33333333333337</ele><time>2026-04-26T08:05:04Z</time></trkpt><trkpt lat="43.218808443190994" lon="12.48441902989542"><ele>323.5</ele><time>2026-04-26T08:05:05Z</time></trkpt><trkpt lat="43.218869752000266" lon="12.484372771053293"><ele>325.6666666666667</ele><time>2026-04-26T08:05:06Z</time></trkpt><trkpt lat="43.218967827304205" lon="12.484382930525193"><ele>327.8333333333333</ele><time>2026-04-26T08:05:08Z</time></trkpt><trkpt lat="43.21899898418219" lon="12.484505743246396"><ele>330.0</ele><time>2026-04-26T08:05:10Z</time></trkpt><trkpt lat="43.21896250090847" lon="12.4845847061366"><ele>327.8333333333333</ele><time>2026-04-26T08:05:11Z</time></trkpt><trkpt lat="43.218885445329455" lon="12.484715959087056"><ele>325.6666666666667</ele><time>2026-04-26T08:05:13Z</time></trkpt><trkpt lat="43.218835044326816" lon="12.484800272070554"><ele>323.5</ele><time>2026-04-26T08:05:14Z</time></trkpt><trkpt lat="43.21878259650921" lon="12.484883311468561"><ele>321.33333333333337</ele><time>2026-04-26T08:05:15Z</time></trkpt><trkpt lat="43.21872736553232" lon="12.484964936411346"><ele>319.1666666666667</ele><time>2026-04-26T08:05:16Z</time></trkpt><trkpt lat="43.21866901623846" lon="12.485050662520749"><ele>317.0</ele><time>2026-04-26T08:05:17Z</time></trkpt><trkpt lat="43.218623331946105" lon="12.485145107633342"><ele>317.0</ele><time>2026-04-26T08:05:18Z</time></trkpt><trkpt lat="43.21857160839005" lon="12.485213565072774"><ele>317.0</ele><time>2026-04-26T08:05:19Z</time></trkpt><trkpt lat="43.21853322093896" lon="12.485288988064875"><ele>317.0</ele><time>2026-04-26T08:05:20Z</time></trkpt><trkpt lat="43.21850234343764" lon="12.485365499861459"><ele>317.0</ele><time>2026-04-26T08:05:21Z</time></trkpt><trkpt lat="43.21845861753353" lon="12.485435257085946"><ele>317.0</ele><time>2026-04-26T08:05:22Z</time></trkpt><trkpt lat="43.21842598471906" lon="12.485513908802952"><ele>317.0</ele><time>2026-04-26T08:05:23Z</time></trkpt><trkpt lat="43.21848505659712" lon="12.485656449424843"><ele>316.1666666666667</ele><time>2026-04-26T08:05:24Z</time></trkpt><trkpt lat="43.218515645636" lon="12.48575722287579"><ele>315.33333333333337</ele><time>2026-04-26T08:05:25Z</time></trkpt><trkpt lat="43.21856020249748" lon="12.48585189199378"><ele>314.5</ele><time>2026-04-26T08:05:26Z</time></trkpt><trkpt lat="43.21858750296941" lon="12.485966615635586"><ele>313.6666666666667</ele><time>2026-04-26T08:05:27Z</time></trkpt><trkpt lat="43.21863992269184" lon="12.486070407525562"><ele>312.8333333333333</ele><time>2026-04-26T08:05:28Z</time></trkpt><trkpt lat="43.218681467485055" lon="12.486185787383013"><ele>312.0</ele><time>2026-04-26T08:05:29Z</time></trkpt><trkpt lat="43.21871406342355" lon="12.4863115568747"><ele>311.3333333333333</ele><time>2026-04-26T08:05:30Z</time></trkpt><trkpt lat="43.218759912317" lon="12.486426842994822"><ele>310.6666666666667</ele><time>2026-04-26T08:05:31Z</time></trkpt><trkpt lat="43.21881190315359" lon="12.486523522224072"><ele>310.0</ele><time>2026-04-26T08:05:32Z</time></trkpt><trkpt lat="43.218850363597944" lon="12.486625292791572"><ele>309.33333333333337</ele><time>2026-04-26T08:05:33Z</time></trkpt><trkpt lat="43.218899795065774" lon="12.486720342832507"><ele>308.6666666666667</ele><time>2026-04-26T08:05:34Z</time></trkpt><trkpt lat="43.21895514949222" lon="12.486810698892056"><ele>308.0</ele><time>2026-04-26T08:05:35Z</time></trkpt><trkpt lat="43.2190110405724" lon="12.486900263938464"><ele>309.6666666666667</ele><time>2026-04-26T08:05:36Z</time></trkpt><trkpt lat="43.21906826184881" lon="12.486988314029876"><ele>311.33333333333337</ele><time>2026-04-26T08:05:37Z</time></trkpt><trkpt lat="43.21912235347761" lon="12.487074180026523"><ele>313.0</ele><time>2026-04-26T08:05:38Z</time></trkpt><trkpt lat="43.21917783967269" lon="12.487152316181902"><ele>314.6666666666667</ele><time>2026-04-26T08:05:38.999Z</time></trkpt><trkpt lat="43.21923886734946" lon="12.487227817339239"><ele>316.3333333333333</ele><time>2026-04-26T08:05:39.999Z</time></trkpt><trkpt lat="43.21930555815848" lon="12.487312837617958"><ele>318.0</ele><time>2026-04-26T08:05:40.999Z</time></trkpt><trkpt lat="43.21937366614454" lon="12.487410552122732"><ele>318.0</ele><time>2026-04-26T08:05:41.999Z</time></trkpt><trkpt lat="43.21944415635893" lon="12.48752367126651"><ele>318.0</ele><time>2026-04-26T08:05:42.999Z</time></trkpt><trkpt lat="43.21951367558974" lon="12.487653381216859"><ele>318.0</ele><time>2026-04-26T08:05:43.999Z</time></trkpt><trkpt lat="43.219565831915965" lon="12.487799839597715"><ele>318.0</ele><time>2026-04-26T08:05:44.999Z</time></trkpt><trkpt lat="43.21964104965608" lon="12.487921365387024"><ele>316.0</ele><time>2026-04-26T08:05:45.999Z</time></trkpt><trkpt lat="43.21969693213663" lon="12.488048326839051"><ele>314.0</ele><time>2026-04-26T08:05:46.999Z</time></trkpt><trkpt lat="43.219746132730855" lon="12.48816104252466"><ele>312.0</ele><time>2026-04-26T08:05:47.999Z</time></trkpt><trkpt lat="43.21979631766301" lon="12.488268579476498"><ele>310.0</ele><time>2026-04-26T08:05:48.999Z</time></trkpt><trkpt lat="43.21984322786591" lon="12.488378106301179"><ele>308.0</ele><time>2026-04-26T08:05:49.999Z</time></trkpt><trkpt lat="43.219893298862566" lon="12.488479796238222"><ele>310.2</ele><time>2026-04-26T08:05:50.999Z</time></trkpt><trkpt lat="43.219944959017496" lon="12.488578512313966"><ele>312.4</ele><time>2026-04-26T08:05:51.999Z</time></trkpt><trkpt lat="43.22000322211531" lon="12.488679078479672"><ele>314.59999999999997</ele><time>2026-04-26T08:05:52.999Z</time></trkpt><trkpt lat="43.22006219719366" lon="12.488780706332284"><ele>316.8</ele><time>2026-04-26T08:05:53.999Z</time></trkpt><trkpt lat="43.220130109614495" lon="12.488878862095248"><ele>319.0</ele><time>2026-04-26T08:05:54.999Z</time></trkpt><trkpt lat="43.220197978758996" lon="12.488983384500752"><ele>319.0</ele><time>2026-04-26T08:05:55.999Z</time></trkpt><trkpt lat="43.22026521348949" lon="12.489089722625298"><ele>319.0</ele><time>2026-04-26T08:05:56.999Z</time></trkpt><trkpt lat="43.220330075153925" lon="12.489197345679472"><ele>319.0</ele><time>2026-04-26T08:05:57.999Z</time></trkpt><trkpt lat="43.22039482816915" lon="12.489307006345083"><ele>319.0</ele><time>2026-04-26T08:05:58.999Z</time></trkpt><trkpt lat="43.22046302060421" lon="12.489412716152406"><ele>319.0</ele><time>2026-04-26T08:05:59.999Z</time></trkpt><trkpt lat="43.22052959639679" lon="12.489510969141767"><ele>318.16666666666663</ele><time>2026-04-26T08:06:00.999Z</time></trkpt><trkpt lat="43.220594169456426" lon="12.489598901433538"><ele>317.3333333333333</ele><time>2026-04-26T08:06:01.999Z</time></trkpt><trkpt lat="43.2206528717567" lon="12.489677550851457"><ele>316.5</ele><time>2026-04-26T08:06:02.999Z</time></trkpt><trkpt lat="43.22070848971084" lon="12.489758466017204"><ele>315.6666666666667</ele><time>2026-04-26T08:06:03.999Z</time></trkpt><trkpt lat="43.220758130954835" lon="12.48985329210612"><ele>314.83333333333337</ele><time>2026-04-26T08:06:04.999Z</time></trkpt><trkpt lat="43.22080301636447" lon="12.489956059670387"><ele>314.0</ele><time>2026-04-26T08:06:05.999Z</time></trkpt><trkpt lat="43.220843087525296" lon="12.490054121887566"><ele>316.1666666666667</ele><time>2026-04-26T08:06:06.999Z</time></trkpt><trkpt lat="43.22087726804678" lon="12.490143864349617"><ele>318.33333333333337</ele><time>2026-04-26T08:06:07.999Z</time></trkpt><trkpt lat="43.22092230657643" lon="12.49022660736759"><ele>320.5</ele><time>2026-04-26T08:06:08.999Z</time></trkpt><trkpt lat="43.220977064520234" lon="12.490288730690947"><ele>322.6666666666667</ele><time>2026-04-26T08:06:09.999Z</time></trkpt><trkpt lat="43.22103797033884" lon="12.490333987046336"><ele>324.8333333333333</ele><time>2026-04-26T08:06:10.999Z</time></trkpt><trkpt lat="43.221135874276285" lon="12.490438871349571"><ele>327.0</ele><time>2026-04-26T08:06:12.999Z</time></trkpt><trkpt lat="43.22115193467562" lon="12.49053228232941"><ele>327.0</ele><time>2026-04-26T08:06:13.999Z</time></trkpt><trkpt lat="43.22115661568069" lon="12.490711636191447"><ele>327.0</ele><time>2026-04-26T08:06:15.999Z</time></trkpt><trkpt lat="43.22116114820213" lon="12.490879791256392"><ele>327.0</ele><time>2026-04-26T08:06:17.999Z</time></trkpt><trkpt lat="43.221160572374345" lon="12.490972443485914"><ele>327.0</ele><time>2026-04-26T08:06:18.999Z</time></trkpt><trkpt lat="43.2211550351022" lon="12.491081949482792"><ele>327.0</ele><time>2026-04-26T08:06:19.999Z</time></trkpt><trkpt lat="43.22114992267183" lon="12.49122727367017"><ele>326.20000000000005</ele><time>2026-04-26T08:06:20.999Z</time></trkpt><trkpt lat="43.22114502496325" lon="12.49138077660268"><ele>325.4</ele><time>2026-04-26T08:06:21.999Z</time></trkpt><trkpt lat="43.22113789006139" lon="12.491527282673138"><ele>324.6</ele><time>2026-04-26T08:06:22.998Z</time></trkpt><trkpt lat="43.22113308569271" lon="12.491665567627823"><ele>323.79999999999995</ele><time>2026-04-26T08:06:23.998Z</time></trkpt><trkpt lat="43.22112986529271" lon="12.491800016593096"><ele>323.0</ele><time>2026-04-26T08:06:24.998Z</time></trkpt><trkpt lat="43.22113376925527" lon="12.49192897385296"><ele>323.0</ele><time>2026-04-26T08:06:25.998Z</time></trkpt><trkpt lat="43.22113105938311" lon="12.492063881825384"><ele>323.0</ele><time>2026-04-26T08:06:26.998Z</time></trkpt><trkpt lat="43.221130216506744" lon="12.492194726093851"><ele>323.0</ele><time>2026-04-26T08:06:27.998Z</time></trkpt><trkpt lat="43.2211403831111" lon="12.492331380162073"><ele>323.0</ele><time>2026-04-26T08:06:28.998Z</time></trkpt><trkpt lat="43.22115898202618" lon="12.49246722296646"><ele>323.0</ele><time>2026-04-26T08:06:29.998Z</time></trkpt><trkpt lat="43.22118935500447" lon="12.492594244214661"><ele>322.83333333333337</ele><time>2026-04-26T08:06:30.998Z</time></trkpt><trkpt lat="43.22122742979818" lon="12.492712963677153"><ele>322.6666666666667</ele><time>2026-04-26T08:06:31.998Z</time></trkpt><trkpt lat="43.22127228606164" lon="12.492814088107417"><ele>322.5</ele><time>2026-04-26T08:06:32.998Z</time></trkpt><trkpt lat="43.22132560814952" lon="12.492900531485587"><ele>322.3333333333333</ele><time>2026-04-26T08:06:33.998Z</time></trkpt><trkpt lat="43.22138768034365" lon="12.492975830091826"><ele>322.16666666666663</ele><time>2026-04-26T08:06:34.998Z</time></trkpt><trkpt lat="43.22145205865591" lon="12.49303818801835"><ele>322.0</ele><time>2026-04-26T08:06:35.998Z</time></trkpt><trkpt lat="43.22151641454841" lon="12.493096621224865"><ele>323.8333333333333</ele><time>2026-04-26T08:06:36.998Z</time></trkpt><trkpt lat="43.221582297342756" lon="12.493143587611602"><ele>325.66666666666663</ele><time>2026-04-26T08:06:37.998Z</time></trkpt><trkpt lat="43.22165097382448" lon="12.493169267346486"><ele>327.5</ele><time>2026-04-26T08:06:38.998Z</time></trkpt><trkpt lat="43.22172842649227" lon="12.493179392208278"><ele>329.3333333333333</ele><time>2026-04-26T08:06:39.998Z</time></trkpt><trkpt lat="43.221806474691746" lon="12.493177732015285"><ele>331.1666666666667</ele><time>2026-04-26T08:06:40.998Z</time></trkpt><trkpt lat="43.221887727854885" lon="12.493167540495328"><ele>333.0</ele><time>2026-04-26T08:06:41.998Z</time></trkpt><trkpt lat="43.221966568958386" lon="12.493151036520048"><ele>333.0</ele><time>2026-04-26T08:06:42.998Z</time></trkpt><trkpt lat="43.22204194009853" lon="12.493118688177086"><ele>333.0</ele><time>2026-04-26T08:06:43.998Z</time></trkpt><trkpt lat="43.222105116739485" lon="12.493078935404897"><ele>333.0</ele><time>2026-04-26T08:06:44.998Z</time></trkpt><trkpt lat="43.222205178886064" lon="12.493003672662997"><ele>333.0</ele><time>2026-04-26T08:06:46.998Z</time></trkpt><trkpt lat="43.22226969921901" lon="12.492984974299283"><ele>333.0</ele><time>2026-04-26T08:06:47.998Z</time></trkpt><trkpt lat="43.22234783397888" lon="12.49300087769933"><ele>333.0</ele><time>2026-04-26T08:06:48.998Z</time></trkpt><trkpt lat="43.222430296817976" lon="12.492996237324801"><ele>334.6666666666667</ele><time>2026-04-26T08:06:49.998Z</time></trkpt><trkpt lat="43.22251059649499" lon="12.492990027793592"><ele>336.3333333333333</ele><time>2026-04-26T08:06:50.998Z</time></trkpt><trkpt lat="43.222587272390065" lon="12.492984098485472"><ele>338.0</ele><time>2026-04-26T08:06:51.998Z</time></trkpt><trkpt lat="43.2226565830244" lon="12.49298083993754"><ele>339.66666666666663</ele><time>2026-04-26T08:06:52.998Z</time></trkpt><trkpt lat="43.22277243382205" lon="12.49299051082266"><ele>341.3333333333333</ele><time>2026-04-26T08:06:55Z</time></trkpt><trkpt lat="43.222840116918476" lon="12.493090593479002"><ele>343.0</ele><time>2026-04-26T08:06:57Z</time></trkpt><trkpt lat="43.222794731414936" lon="12.493221993469916"><ele>343.0</ele><time>2026-04-26T08:06:59Z</time></trkpt><trkpt lat="43.2227532366748" lon="12.493287451884928"><ele>343.0</ele><time>2026-04-26T08:07:00Z</time></trkpt><trkpt lat="43.222634616602434" lon="12.493376544696149"><ele>343.0</ele><time>2026-04-26T08:07:02Z</time></trkpt><trkpt lat="43.22256053817669" lon="12.493424549390282"><ele>343.0</ele><time>2026-04-26T08:07:03Z</time></trkpt><trkpt lat="43.222477427339655" lon="12.49348494546511"><ele>343.0</ele><time>2026-04-26T08:07:04Z</time></trkpt><trkpt lat="43.22238159776228" lon="12.493542984527018"><ele>342.16666666666663</ele><time>2026-04-26T08:07:05Z</time></trkpt><trkpt lat="43.22228188672813" lon="12.493600288299138"><ele>341.3333333333333</ele><time>2026-04-26T08:07:06Z</time></trkpt><trkpt lat="43.22219893474173" lon="12.4936548071694"><ele>340.5</ele><time>2026-04-26T08:07:07Z</time></trkpt><trkpt lat="43.2221318260545" lon="12.4937086881247"><ele>339.6666666666667</ele><time>2026-04-26T08:07:08Z</time></trkpt><trkpt lat="43.22207529934923" lon="12.493772533755566"><ele>338.83333333333337</ele><time>2026-04-26T08:07:09Z</time></trkpt><trkpt lat="43.2220323943082" lon="12.493841741645788"><ele>338.0</ele><time>2026-04-26T08:07:10Z</time></trkpt><trkpt lat="43.221972515371064" lon="12.493941369218271"><ele>338.0</ele><time>2026-04-26T08:07:12Z</time></trkpt><trkpt lat="43.22191278820136" lon="12.494018251986283"><ele>338.0</ele><time>2026-04-26T08:07:16Z</time></trkpt><trkpt lat="43.22183039675668" lon="12.494064741668074"><ele>338.0</ele><time>2026-04-26T08:07:24Z</time></trkpt><trkpt lat="43.22174940935627" lon="12.494178115060999"><ele>338.0</ele><time>2026-04-26T08:07:26Z</time></trkpt><trkpt lat="43.22168420439342" lon="12.494278938837226"><ele>338.0</ele><time>2026-04-26T08:07:28Z</time></trkpt><trkpt lat="43.221616945965195" lon="12.494379501049076"><ele>338.0</ele><time>2026-04-26T08:07:30Z</time></trkpt><trkpt lat="43.2215793427355" lon="12.494514729030305"><ele>338.0</ele><time>2026-04-26T08:07:32Z</time></trkpt><trkpt lat="43.221577532031375" lon="12.49464572097958"><ele>338.0</ele><time>2026-04-26T08:07:34Z</time></trkpt><trkpt lat="43.221576607349064" lon="12.494820492799487"><ele>338.0</ele><time>2026-04-26T08:07:36Z</time></trkpt><trkpt lat="43.22159869085264" lon="12.49498878792594"><ele>338.33333333333337</ele><time>2026-04-26T08:07:38Z</time></trkpt><trkpt lat="43.22160697092556" lon="12.495083339794343"><ele>338.6666666666667</ele><time>2026-04-26T08:07:39Z</time></trkpt><trkpt lat="43.221624210635945" lon="12.495180687272843"><ele>339.0</ele><time>2026-04-26T08:07:40Z</time></trkpt><trkpt lat="43.221641856156914" lon="12.49527977881826"><ele>339.3333333333333</ele><time>2026-04-26T08:07:41Z</time></trkpt><trkpt lat="43.22165813336388" lon="12.4953841519388"><ele>339.66666666666663</ele><time>2026-04-26T08:07:41.999Z</time></trkpt><trkpt lat="43.221658579594234" lon="12.49549219688246"><ele>340.0</ele><time>2026-04-26T08:07:42.999Z</time></trkpt><trkpt lat="43.22167525731261" lon="12.495596762096959"><ele>340.0</ele><time>2026-04-26T08:07:43.999Z</time></trkpt><trkpt lat="43.221693103455976" lon="12.495708653140756"><ele>340.0</ele><time>2026-04-26T08:07:44.999Z</time></trkpt><trkpt lat="43.2217139542439" lon="12.495833251164239"><ele>340.0</ele><time>2026-04-26T08:07:45.999Z</time></trkpt><trkpt lat="43.22173973279615" lon="12.495973248674144"><ele>340.0</ele><time>2026-04-26T08:07:46.999Z</time></trkpt><trkpt lat="43.22178523470972" lon="12.496113395813962"><ele>340.0</ele><time>2026-04-26T08:07:47.999Z</time></trkpt><trkpt lat="43.221816860648666" lon="12.49626061180262"><ele>339.2</ele><time>2026-04-26T08:07:48.999Z</time></trkpt><trkpt lat="43.22182805832328" lon="12.496404975398496"><ele>338.4</ele><time>2026-04-26T08:07:49.999Z</time></trkpt><trkpt lat="43.22185251411487" lon="12.496545573401054"><ele>337.6</ele><time>2026-04-26T08:07:50.999Z</time></trkpt><trkpt lat="43.221875907957525" lon="12.496688845208732"><ele>336.8</ele><time>2026-04-26T08:07:51.999Z</time></trkpt><trkpt lat="43.221897785229636" lon="12.496829400131434"><ele>336.0</ele><time>2026-04-26T08:07:52.999Z</time></trkpt><trkpt lat="43.22191778875225" lon="12.49696914822372"><ele>336.1666666666667</ele><time>2026-04-26T08:07:53.999Z</time></trkpt><trkpt lat="43.22193614052649" lon="12.497099961101624"><ele>336.3333333333333</ele><time>2026-04-26T08:07:54.999Z</time></trkpt><trkpt lat="43.22194961188245" lon="12.49720880352733"><ele>336.5</ele><time>2026-04-26T08:07:55.999Z</time></trkpt><trkpt lat="43.22195816294393" lon="12.497304147493528"><ele>336.66666666666663</ele><time>2026-04-26T08:07:56.999Z</time></trkpt><trkpt lat="43.221956494511126" lon="12.497396066196467"><ele>336.8333333333333</ele><time>2026-04-26T08:07:57.999Z</time></trkpt><trkpt lat="43.221945097146616" lon="12.497498513904674"><ele>337.0</ele><time>2026-04-26T08:07:58.999Z</time></trkpt><trkpt lat="43.22192434999142" lon="12.497609426611312"><ele>337.0</ele><time>2026-04-26T08:07:59.999Z</time></trkpt><trkpt lat="43.2219122219299" lon="12.49773631490498"><ele>337.0</ele><time>2026-04-26T08:08:00.999Z</time></trkpt><trkpt lat="43.221883455991076" lon="12.497864533114543"><ele>337.0</ele><time>2026-04-26T08:08:01.999Z</time></trkpt><trkpt lat="43.22186531466884" lon="12.497994722609747"><ele>337.0</ele><time>2026-04-26T08:08:02.999Z</time></trkpt><trkpt lat="43.22183860613017" lon="12.498127208090082"><ele>337.0</ele><time>2026-04-26T08:08:03.999Z</time></trkpt><trkpt lat="43.2218209425747" lon="12.498263582928404"><ele>337.20000000000005</ele><time>2026-04-26T08:08:04.999Z</time></trkpt><trkpt lat="43.22181362387578" lon="12.498398470547192"><ele>337.4</ele><time>2026-04-26T08:08:05.999Z</time></trkpt><trkpt lat="43.22180392723764" lon="12.49853350417671"><ele>337.6</ele><time>2026-04-26T08:08:06.999Z</time></trkpt><trkpt lat="43.221795817576094" lon="12.498665094711297"><ele>337.79999999999995</ele><time>2026-04-26T08:08:07.999Z</time></trkpt><trkpt lat="43.221788254981696" lon="12.498794916463723"><ele>338.0</ele><time>2026-04-26T08:08:08.999Z</time></trkpt><trkpt lat="43.221779252595454" lon="12.498914761274742"><ele>338.0</ele><time>2026-04-26T08:08:09.999Z</time></trkpt><trkpt lat="43.221771272270374" lon="12.499020702520978"><ele>338.0</ele><time>2026-04-26T08:08:10.999Z</time></trkpt><trkpt lat="43.22176794353186" lon="12.499119499736056"><ele>338.0</ele><time>2026-04-26T08:08:11.999Z</time></trkpt><trkpt lat="43.22177805494135" lon="12.499213460434543"><ele>338.0</ele><time>2026-04-26T08:08:12.999Z</time></trkpt><trkpt lat="43.221782386208325" lon="12.499308857285687"><ele>338.0</ele><time>2026-04-26T08:08:13.999Z</time></trkpt><trkpt lat="43.221799512308706" lon="12.49940162330193"><ele>338.0</ele><time>2026-04-26T08:08:14.999Z</time></trkpt><trkpt lat="43.22183348830817" lon="12.499488157261194"><ele>338.0</ele><time>2026-04-26T08:08:15.999Z</time></trkpt><trkpt lat="43.22185424956606" lon="12.499581893174534"><ele>337.5</ele><time>2026-04-26T08:08:16.999Z</time></trkpt><trkpt lat="43.22188851791162" lon="12.499683848116469"><ele>337.0</ele><time>2026-04-26T08:08:17.999Z</time></trkpt><trkpt lat="43.221931905531" lon="12.499782812708386"><ele>336.5</ele><time>2026-04-26T08:08:18.999Z</time></trkpt><trkpt lat="43.22197475401708" lon="12.499864306600827"><ele>336.0</ele><time>2026-04-26T08:08:19.999Z</time></trkpt><trkpt lat="43.22201172689198" lon="12.499938571869427"><ele>335.5</ele><time>2026-04-26T08:08:20.999Z</time></trkpt><trkpt lat="43.22206982576851" lon="12.500058585552038"><ele>335.0</ele><time>2026-04-26T08:08:22.999Z</time></trkpt><trkpt lat="43.222105580736205" lon="12.500192240273806"><ele>335.0</ele><time>2026-04-26T08:08:24.999Z</time></trkpt><trkpt lat="43.222064121957445" lon="12.500333369536321"><ele>335.0</ele><time>2026-04-26T08:08:26.998Z</time></trkpt><trkpt lat="43.22201365661803" lon="12.500497637785438"><ele>335.0</ele><time>2026-04-26T08:08:28.998Z</time></trkpt><trkpt lat="43.221986239814264" lon="12.500581375000658"><ele>335.0</ele><time>2026-04-26T08:08:29.998Z</time></trkpt><trkpt lat="43.22196226250594" lon="12.500666085272314"><ele>335.0</ele><time>2026-04-26T08:08:30.998Z</time></trkpt><trkpt lat="43.22193098371454" lon="12.500746091409296"><ele>335.0</ele><time>2026-04-26T08:08:31.998Z</time></trkpt><trkpt lat="43.221897080957845" lon="12.500894445217469"><ele>335.4</ele><time>2026-04-26T08:08:33.998Z</time></trkpt><trkpt lat="43.22188762326262" lon="12.501025831532093"><ele>335.8</ele><time>2026-04-26T08:08:35.998Z</time></trkpt><trkpt lat="43.22188175629675" lon="12.501160536026733"><ele>336.20000000000005</ele><time>2026-04-26T08:08:37.998Z</time></trkpt><trkpt lat="43.22189714402047" lon="12.50124525525504"><ele>336.6</ele><time>2026-04-26T08:08:38.998Z</time></trkpt><trkpt lat="43.22195314011078" lon="12.501396871093736"><ele>337.0</ele><time>2026-04-26T08:08:40.998Z</time></trkpt><trkpt lat="43.22202964634556" lon="12.501534485647438"><ele>337.0</ele><time>2026-04-26T08:08:42.998Z</time></trkpt><trkpt lat="43.222080065090054" lon="12.501596894850007"><ele>337.0</ele><time>2026-04-26T08:08:43.998Z</time></trkpt><trkpt lat="43.22218400145224" lon="12.50170063530078"><ele>337.0</ele><time>2026-04-26T08:08:45.998Z</time></trkpt><trkpt lat="43.22229221681976" lon="12.501780997381717"><ele>337.0</ele><time>2026-04-26T08:08:47.998Z</time></trkpt><trkpt lat="43.22238388551218" lon="12.501888500204744"><ele>337.0</ele><time>2026-04-26T08:08:49.998Z</time></trkpt><trkpt lat="43.22245032945754" lon="12.501999028519752"><ele>342.0</ele><time>2026-04-26T08:08:51.998Z</time></trkpt><trkpt lat="43.22251253740383" lon="12.502114114172363"><ele>347.0</ele><time>2026-04-26T08:08:53.998Z</time></trkpt><trkpt lat="43.222575398287006" lon="12.50224213607641"><ele>352.0</ele><time>2026-04-26T08:08:55.998Z</time></trkpt><trkpt lat="43.22262802490809" lon="12.50237814459011"><ele>357.0</ele><time>2026-04-26T08:08:57.998Z</time></trkpt><trkpt lat="43.222676885719146" lon="12.50253928057681"><ele>357.0</ele><time>2026-04-26T08:09:00Z</time></trkpt><trkpt lat="43.222704004422994" lon="12.502626671321778"><ele>357.0</ele><time>2026-04-26T08:09:01Z</time></trkpt><trkpt lat="43.2227468855161" lon="12.502712982653977"><ele>357.0</ele><time>2026-04-26T08:09:02Z</time></trkpt><trkpt lat="43.222770930899635" lon="12.50281125456705"><ele>357.0</ele><time>2026-04-26T08:09:03Z</time></trkpt><trkpt lat="43.22279762796797" lon="12.502899945309135"><ele>357.0</ele><time>2026-04-26T08:09:04Z</time></trkpt><trkpt lat="43.22282847167289" lon="12.503068863891592"><ele>357.0</ele><time>2026-04-26T08:09:06Z</time></trkpt><trkpt lat="43.222849558028926" lon="12.503240299514669"><ele>356.42857142857144</ele><time>2026-04-26T08:09:08Z</time></trkpt><trkpt lat="43.22286079375082" lon="12.503333852120925"><ele>355.8571428571429</ele><time>2026-04-26T08:09:09Z</time></trkpt><trkpt lat="43.22287326892557" lon="12.503437131487024"><ele>355.2857142857143</ele><time>2026-04-26T08:09:10Z</time></trkpt><trkpt lat="43.22288809239257" lon="12.503543561120711"><ele>354.7142857142857</ele><time>2026-04-26T08:09:11Z</time></trkpt><trkpt lat="43.22290527033049" lon="12.503647193382593"><ele>354.14285714285717</ele><time>2026-04-26T08:09:12Z</time></trkpt><trkpt lat="43.22292604906616" lon="12.503742621844527"><ele>353.57142857142856</ele><time>2026-04-26T08:09:13Z</time></trkpt><trkpt lat="43.22295458468057" lon="12.503824634677077"><ele>353.0</ele><time>2026-04-26T08:09:14Z</time></trkpt><trkpt lat="43.22301938868589" lon="12.503945758531971"><ele>351.59999999999997</ele><time>2026-04-26T08:09:16Z</time></trkpt><trkpt lat="43.22309555377436" lon="12.504016512983764"><ele>350.2</ele><time>2026-04-26T08:09:18Z</time></trkpt><trkpt lat="43.223195137114715" lon="12.504025193465322"><ele>348.8</ele><time>2026-04-26T08:09:20Z</time></trkpt><trkpt lat="43.22329216206796" lon="12.503980615177706"><ele>347.4</ele><time>2026-04-26T08:09:22Z</time></trkpt><trkpt lat="43.22337345199288" lon="12.503904418939763"><ele>346.0</ele><time>2026-04-26T08:09:24Z</time></trkpt><trkpt lat="43.223465835272066" lon="12.503824707867667"><ele>350.20000000000005</ele><time>2026-04-26T08:09:26Z</time></trkpt><trkpt lat="43.223563227566" lon="12.503748575947865"><ele>354.40000000000003</ele><time>2026-04-26T08:09:28Z</time></trkpt><trkpt lat="43.223655112500424" lon="12.503671602670279"><ele>358.6</ele><time>2026-04-26T08:09:30Z</time></trkpt><trkpt lat="43.22373629840438" lon="12.503575634215311"><ele>362.8</ele><time>2026-04-26T08:09:32Z</time></trkpt><trkpt lat="43.223812790823786" lon="12.503461469126512"><ele>367.0</ele><time>2026-04-26T08:09:34Z</time></trkpt><trkpt lat="43.22387948119538" lon="12.503332335061351"><ele>370.25</ele><time>2026-04-26T08:09:36Z</time></trkpt><trkpt lat="43.223946416621466" lon="12.503196156145314"><ele>373.5</ele><time>2026-04-26T08:09:38Z</time></trkpt><trkpt lat="43.224026970629794" lon="12.503078869122172"><ele>376.75</ele><time>2026-04-26T08:09:40Z</time></trkpt><trkpt lat="43.2241060549797" lon="12.502968653746466"><ele>380.0</ele><time>2026-04-26T08:09:42Z</time></trkpt><trkpt lat="43.224184601141566" lon="12.502836957743408"><ele>382.2857142857143</ele><time>2026-04-26T08:09:44Z</time></trkpt><trkpt lat="43.22422394714067" lon="12.502766568032818"><ele>384.57142857142856</ele><time>2026-04-26T08:09:45Z</time></trkpt><trkpt lat="43.22426405361853" lon="12.502691570079998"><ele>386.8571428571429</ele><time>2026-04-26T08:09:46Z</time></trkpt><trkpt lat="43.22430620246855" lon="12.502618188914505"><ele>389.1428571428571</ele><time>2026-04-26T08:09:47Z</time></trkpt><trkpt lat="43.2243548701901" lon="12.50254567894471"><ele>391.4285714285714</ele><time>2026-04-26T08:09:48Z</time></trkpt><trkpt lat="43.22440363714065" lon="12.50247271820015"><ele>393.7142857142857</ele><time>2026-04-26T08:09:49Z</time></trkpt><trkpt lat="43.2244529861714" lon="12.502411767212488"><ele>396.0</ele><time>2026-04-26T08:09:50Z</time></trkpt><trkpt lat="43.22455970724864" lon="12.502329757840322"><ele>396.0</ele><time>2026-04-26T08:09:51.999Z</time></trkpt><trkpt lat="43.224624476341766" lon="12.502300841314566"><ele>396.0</ele><time>2026-04-26T08:09:52.999Z</time></trkpt><trkpt lat="43.22469391207585" lon="12.50227252780855"><ele>396.0</ele><time>2026-04-26T08:09:53.999Z</time></trkpt><trkpt lat="43.224764112950155" lon="12.502251769102124"><ele>396.0</ele><time>2026-04-26T08:09:54.999Z</time></trkpt><trkpt lat="43.22483769571048" lon="12.50222903102931"><ele>396.0</ele><time>2026-04-26T08:09:55.999Z</time></trkpt><trkpt lat="43.22491240250926" lon="12.50219641578958"><ele>396.0</ele><time>2026-04-26T08:09:56.999Z</time></trkpt><trkpt lat="43.22498126776175" lon="12.50216564412224"><ele>396.0</ele><time>2026-04-26T08:09:57.999Z</time></trkpt><trkpt lat="43.22505070361487" lon="12.502130984231853"><ele>395.5</ele><time>2026-04-26T08:09:58.999Z</time></trkpt><trkpt lat="43.22511829946958" lon="12.50209493952256"><ele>395.0</ele><time>2026-04-26T08:09:59.999Z</time></trkpt><trkpt lat="43.22518256058844" lon="12.502059395004474"><ele>394.5</ele><time>2026-04-26T08:10:00.999Z</time></trkpt><trkpt lat="43.22524364917459" lon="12.502028617321615"><ele>394.0</ele><time>2026-04-26T08:10:01.999Z</time></trkpt><trkpt lat="43.22530278411674" lon="12.501998347335354"><ele>393.5</ele><time>2026-04-26T08:10:02.999Z</time></trkpt><trkpt lat="43.22536439404783" lon="12.501966566980924"><ele>393.0</ele><time>2026-04-26T08:10:03.999Z</time></trkpt><trkpt lat="43.22547409483028" lon="12.50191480232414"><ele>396.75</ele><time>2026-04-26T08:10:05.999Z</time></trkpt><trkpt lat="43.22558806116995" lon="12.501861537402437"><ele>400.5</ele><time>2026-04-26T08:10:07.999Z</time></trkpt><trkpt lat="43.22569391554188" lon="12.501801244612388"><ele>404.25</ele><time>2026-04-26T08:10:09.999Z</time></trkpt><trkpt lat="43.225794562321305" lon="12.501732940123457"><ele>408.0</ele><time>2026-04-26T08:10:11.999Z</time></trkpt><trkpt lat="43.22588437776776" lon="12.50163316629119"><ele>409.5</ele><time>2026-04-26T08:10:13.999Z</time></trkpt><trkpt lat="43.225981136030825" lon="12.501519344074534"><ele>411.0</ele><time>2026-04-26T08:10:15.999Z</time></trkpt><trkpt lat="43.226032888949845" lon="12.50146157037767"><ele>412.5</ele><time>2026-04-26T08:10:16.999Z</time></trkpt><trkpt lat="43.22608643507562" lon="12.501407730204008"><ele>414.0</ele><time>2026-04-26T08:10:17.999Z</time></trkpt><trkpt lat="43.22614229007478" lon="12.501349435127995"><ele>415.5</ele><time>2026-04-26T08:10:18.999Z</time></trkpt><trkpt lat="43.226195085224944" lon="12.501290285373969"><ele>417.0</ele><time>2026-04-26T08:10:19.999Z</time></trkpt><trkpt lat="43.22625356598881" lon="12.5012366492722"><ele>421.3333333333333</ele><time>2026-04-26T08:10:20.999Z</time></trkpt><trkpt lat="43.22631494978843" lon="12.501179273044531"><ele>425.66666666666663</ele><time>2026-04-26T08:10:21.999Z</time></trkpt><trkpt lat="43.22637962294078" lon="12.501127786897134"><ele>430.0</ele><time>2026-04-26T08:10:22.999Z</time></trkpt><trkpt lat="43.226442185957964" lon="12.501086695606332"><ele>434.3333333333333</ele><time>2026-04-26T08:10:23.999Z</time></trkpt><trkpt lat="43.226512141610385" lon="12.501054424519923"><ele>438.66666666666663</ele><time>2026-04-26T08:10:24.999Z</time></trkpt><trkpt lat="43.226579270391035" lon="12.501040123362438"><ele>443.0</ele><time>2026-04-26T08:10:25.999Z</time></trkpt><trkpt lat="43.226697631913744" lon="12.50104053285548"><ele>443.0</ele><time>2026-04-26T08:10:27.999Z</time></trkpt><trkpt lat="43.22680493588348" lon="12.501143011824048"><ele>442.99999999999994</ele><time>2026-04-26T08:10:29.999Z</time></trkpt><trkpt lat="43.22684142789555" lon="12.501284596405611"><ele>442.99999999999994</ele><time>2026-04-26T08:10:31.999Z</time></trkpt><trkpt lat="43.226901815726734" lon="12.50143365074064"><ele>443.0</ele><time>2026-04-26T08:10:33.999Z</time></trkpt><trkpt lat="43.226952700663574" lon="12.501500533419035"><ele>443.0</ele><time>2026-04-26T08:10:34.999Z</time></trkpt><trkpt lat="43.22701238872998" lon="12.5015606855195"><ele>441.3333333333333</ele><time>2026-04-26T08:10:35.999Z</time></trkpt><trkpt lat="43.227071812849495" lon="12.501623138303323"><ele>439.66666666666663</ele><time>2026-04-26T08:10:36.998Z</time></trkpt><trkpt lat="43.22712921801491" lon="12.501689704316053"><ele>438.0</ele><time>2026-04-26T08:10:37.998Z</time></trkpt><trkpt lat="43.227184221312704" lon="12.501762569201546"><ele>436.33333333333337</ele><time>2026-04-26T08:10:38.998Z</time></trkpt><trkpt lat="43.22723399584055" lon="12.501816753302702"><ele>434.6666666666667</ele><time>2026-04-26T08:10:39.998Z</time></trkpt><trkpt lat="43.2273496291981" lon="12.50185846007864"><ele>433.0</ele><time>2026-04-26T08:10:41.998Z</time></trkpt><trkpt lat="43.22741313218185" lon="12.501858299640814"><ele>433.00000000000006</ele><time>2026-04-26T08:10:42.998Z</time></trkpt><trkpt lat="43.22747657040238" lon="12.501848882473423"><ele>433.0</ele><time>2026-04-26T08:10:43.998Z</time></trkpt><trkpt lat="43.227586691459784" lon="12.50183006347693"><ele>433.0</ele><time>2026-04-26T08:10:45.998Z</time></trkpt><trkpt lat="43.22771275717593" lon="12.501836502277463"><ele>433.0</ele><time>2026-04-26T08:10:47.998Z</time></trkpt><trkpt lat="43.227777388925624" lon="12.501848242291052"><ele>433.00000000000006</ele><time>2026-04-26T08:10:48.998Z</time></trkpt><trkpt lat="43.2278391331324" lon="12.501879614557213"><ele>433.0</ele><time>2026-04-26T08:10:49.998Z</time></trkpt><trkpt lat="43.22789626407413" lon="12.501920349656878"><ele>433.00000000000006</ele><time>2026-04-26T08:10:50.998Z</time></trkpt><trkpt lat="43.227992548900936" lon="12.50202863489089"><ele>433.0</ele><time>2026-04-26T08:10:52.998Z</time></trkpt><trkpt lat="43.22803583530889" lon="12.502106369723077"><ele>433.0</ele><time>2026-04-26T08:10:53.998Z</time></trkpt><trkpt lat="43.228068750167765" lon="12.502195188216785"><ele>433.0</ele><time>2026-04-26T08:10:54.998Z</time></trkpt><trkpt lat="43.228092323267674" lon="12.50228867345114"><ele>433.00000000000006</ele><time>2026-04-26T08:10:55.998Z</time></trkpt><trkpt lat="43.22811367366285" lon="12.502370537801479"><ele>433.0</ele><time>2026-04-26T08:10:56.998Z</time></trkpt><trkpt lat="43.228169475988985" lon="12.502500727026183"><ele>430.6666666666667</ele><time>2026-04-26T08:10:58.998Z</time></trkpt><trkpt lat="43.22827298978066" lon="12.50254256589392"><ele>428.33333333333337</ele><time>2026-04-26T08:11:00.998Z</time></trkpt><trkpt lat="43.2283931352205" lon="12.50253248351969"><ele>426.0</ele><time>2026-04-26T08:11:02.998Z</time></trkpt><trkpt lat="43.22846465361986" lon="12.502547248348352"><ele>423.66666666666663</ele><time>2026-04-26T08:11:03.998Z</time></trkpt><trkpt lat="43.22853421575963" lon="12.502583965524128"><ele>421.3333333333333</ele><time>2026-04-26T08:11:05Z</time></trkpt><trkpt lat="43.228593955852276" lon="12.502638555653721"><ele>419.0</ele><time>2026-04-26T08:11:06Z</time></trkpt><trkpt lat="43.228671126485345" lon="12.502782030964328"><ele>418.99999999999994</ele><time>2026-04-26T08:11:08Z</time></trkpt><trkpt lat="43.228695121283714" lon="12.502871152356786"><ele>419.0</ele><time>2026-04-26T08:11:09Z</time></trkpt><trkpt lat="43.22871157252591" lon="12.502966987637652"><ele>419.0</ele><time>2026-04-26T08:11:10Z</time></trkpt><trkpt lat="43.2287254041525" lon="12.50306349686605"><ele>419.0</ele><time>2026-04-26T08:11:11Z</time></trkpt><trkpt lat="43.22874576628811" lon="12.503162509055239"><ele>419.0</ele><time>2026-04-26T08:11:12Z</time></trkpt><trkpt lat="43.22877409154136" lon="12.503257063149267"><ele>418.99999999999994</ele><time>2026-04-26T08:11:13Z</time></trkpt><trkpt lat="43.2288105950595" lon="12.503344387615561"><ele>419.0</ele><time>2026-04-26T08:11:14Z</time></trkpt><trkpt lat="43.22885676239727" lon="12.503435327559554"><ele>419.3333333333333</ele><time>2026-04-26T08:11:15Z</time></trkpt><trkpt lat="43.22891123285839" lon="12.503532040753832"><ele>419.66666666666663</ele><time>2026-04-26T08:11:16Z</time></trkpt><trkpt lat="43.22896030211264" lon="12.503625311571728"><ele>420.0</ele><time>2026-04-26T08:11:17Z</time></trkpt><trkpt lat="43.22900128193663" lon="12.50371664121465"><ele>420.33333333333337</ele><time>2026-04-26T08:11:18Z</time></trkpt><trkpt lat="43.229030467626025" lon="12.503802630901818"><ele>420.6666666666667</ele><time>2026-04-26T08:11:19Z</time></trkpt><trkpt lat="43.22905876441335" lon="12.50388291012521"><ele>421.0</ele><time>2026-04-26T08:11:20Z</time></trkpt><trkpt lat="43.229089163399294" lon="12.503968133562319"><ele>418.33333333333337</ele><time>2026-04-26T08:11:21Z</time></trkpt><trkpt lat="43.22911260049801" lon="12.504058088340956"><ele>415.6666666666667</ele><time>2026-04-26T08:11:22Z</time></trkpt><trkpt lat="43.22913362821337" lon="12.504144652877372"><ele>413.0</ele><time>2026-04-26T08:11:23Z</time></trkpt><trkpt lat="43.229150886477875" lon="12.50424137850849"><ele>410.33333333333337</ele><time>2026-04-26T08:11:24Z</time></trkpt><trkpt lat="43.22917023798077" lon="12.504329069704491"><ele>407.6666666666667</ele><time>2026-04-26T08:11:25Z</time></trkpt><trkpt lat="43.22918761315047" lon="12.504415308856414"><ele>405.0</ele><time>2026-04-26T08:11:26Z</time></trkpt><trkpt lat="43.22922219342208" lon="12.50457509322496"><ele>401.0</ele><time>2026-04-26T08:11:28Z</time></trkpt><trkpt lat="43.22926718388485" lon="12.504721075802053"><ele>397.0</ele><time>2026-04-26T08:11:30Z</time></trkpt><trkpt lat="43.229311405617054" lon="12.504876609244231"><ele>393.0</ele><time>2026-04-26T08:11:32Z</time></trkpt><trkpt lat="43.2293699674048" lon="12.505022900206152"><ele>389.0</ele><time>2026-04-26T08:11:34Z</time></trkpt><trkpt lat="43.229421960020765" lon="12.505173745662086"><ele>389.0</ele><time>2026-04-26T08:11:36Z</time></trkpt><trkpt lat="43.22946597611543" lon="12.505320212727291"><ele>389.0</ele><time>2026-04-26T08:11:38Z</time></trkpt><trkpt lat="43.22949074331352" lon="12.505400811424257"><ele>389.0</ele><time>2026-04-26T08:11:39Z</time></trkpt><trkpt lat="43.22951582054633" lon="12.505486124760399"><ele>389.0</ele><time>2026-04-26T08:11:40Z</time></trkpt><trkpt lat="43.22954640419976" lon="12.505642894770334"><ele>389.0</ele><time>2026-04-26T08:11:42Z</time></trkpt><trkpt lat="43.229540908251884" lon="12.505790176261534"><ele>389.4</ele><time>2026-04-26T08:11:44Z</time></trkpt><trkpt lat="43.2294760499424" lon="12.505913064338811"><ele>389.79999999999995</ele><time>2026-04-26T08:11:46Z</time></trkpt><trkpt lat="43.22937786257492" lon="12.505968353095467"><ele>390.20000000000005</ele><time>2026-04-26T08:11:48Z</time></trkpt><trkpt lat="43.22927748310784" lon="12.505983637109763"><ele>390.6</ele><time>2026-04-26T08:11:50Z</time></trkpt><trkpt lat="43.22918931319695" lon="12.505968315728465"><ele>391.0</ele><time>2026-04-26T08:11:52Z</time></trkpt><trkpt lat="43.22910216176998" lon="12.505949634144905"><ele>391.0</ele><time>2026-04-26T08:11:53.999Z</time></trkpt><trkpt lat="43.229003209288756" lon="12.505928732385376"><ele>391.0</ele><time>2026-04-26T08:11:55.999Z</time></trkpt><trkpt lat="43.22889105862872" lon="12.50590515164256"><ele>391.0</ele><time>2026-04-26T08:11:57.999Z</time></trkpt><trkpt lat="43.228780593227725" lon="12.505886313781529"><ele>391.0</ele><time>2026-04-26T08:11:59.999Z</time></trkpt><trkpt lat="43.22866556487187" lon="12.505874457120361"><ele>391.0</ele><time>2026-04-26T08:12:01.999Z</time></trkpt><trkpt lat="43.22855056774289" lon="12.5058607554769"><ele>394.75</ele><time>2026-04-26T08:12:03.999Z</time></trkpt><trkpt lat="43.228433532958405" lon="12.505859766516792"><ele>398.5</ele><time>2026-04-26T08:12:05.999Z</time></trkpt><trkpt lat="43.22832863694583" lon="12.505873665183737"><ele>402.25</ele><time>2026-04-26T08:12:07.999Z</time></trkpt><trkpt lat="43.22821033090588" lon="12.505895251151712"><ele>406.0</ele><time>2026-04-26T08:12:09.999Z</time></trkpt><trkpt lat="43.22808113178894" lon="12.505904456188121"><ele>407.25</ele><time>2026-04-26T08:12:11.999Z</time></trkpt><trkpt lat="43.22796016616485" lon="12.505914708022624"><ele>408.5</ele><time>2026-04-26T08:12:13.999Z</time></trkpt><trkpt lat="43.22785127238387" lon="12.505936072238633"><ele>409.75</ele><time>2026-04-26T08:12:15.999Z</time></trkpt><trkpt lat="43.22773607224757" lon="12.505954004781524"><ele>411.0</ele><time>2026-04-26T08:12:17.999Z</time></trkpt><trkpt lat="43.22761312795026" lon="12.505972612493812"><ele>411.0</ele><time>2026-04-26T08:12:19.999Z</time></trkpt><trkpt lat="43.22749177084297" lon="12.505981444754134"><ele>411.0</ele><time>2026-04-26T08:12:21.999Z</time></trkpt><trkpt lat="43.227370611031816" lon="12.50599333666612"><ele>411.0</ele><time>2026-04-26T08:12:23.999Z</time></trkpt><trkpt lat="43.227306001771005" lon="12.505995843316592"><ele>411.0</ele><time>2026-04-26T08:12:24.999Z</time></trkpt><trkpt lat="43.22718621873524" lon="12.50598718000207"><ele>411.0</ele><time>2026-04-26T08:12:26.999Z</time></trkpt><trkpt lat="43.22707551002117" lon="12.50598742747502"><ele>412.8333333333333</ele><time>2026-04-26T08:12:28.999Z</time></trkpt><trkpt lat="43.22695983911366" lon="12.506004430645685"><ele>414.66666666666663</ele><time>2026-04-26T08:12:30.999Z</time></trkpt><trkpt lat="43.22689299934988" lon="12.506016994497996"><ele>416.5</ele><time>2026-04-26T08:12:31.999Z</time></trkpt><trkpt lat="43.22682176930383" lon="12.506033280613206"><ele>418.3333333333333</ele><time>2026-04-26T08:12:32.999Z</time></trkpt><trkpt lat="43.22675118164636" lon="12.506050484139303"><ele>420.16666666666663</ele><time>2026-04-26T08:12:33.999Z</time></trkpt><trkpt lat="43.22668012903501" lon="12.50606969271335"><ele>422.0</ele><time>2026-04-26T08:12:34.999Z</time></trkpt><trkpt lat="43.226610393864846" lon="12.506088482642305"><ele>422.0</ele><time>2026-04-26T08:12:35.999Z</time></trkpt><trkpt lat="43.22654432200689" lon="12.506106787206905"><ele>422.0</ele><time>2026-04-26T08:12:36.999Z</time></trkpt><trkpt lat="43.226482169772574" lon="12.50612897602721"><ele>422.0</ele><time>2026-04-26T08:12:37.998Z</time></trkpt><trkpt lat="43.22641929973062" lon="12.506143127376399"><ele>422.0</ele><time>2026-04-26T08:12:38.998Z</time></trkpt><trkpt lat="43.22635539281748" lon="12.506152802660125"><ele>422.0</ele><time>2026-04-26T08:12:39.998Z</time></trkpt><trkpt lat="43.22629192584858" lon="12.506165340514558"><ele>422.0</ele><time>2026-04-26T08:12:40.998Z</time></trkpt><trkpt lat="43.2261762907831" lon="12.506193563442476"><ele>422.0</ele><time>2026-04-26T08:12:42.998Z</time></trkpt><trkpt lat="43.22606722596979" lon="12.50624341149735"><ele>422.0</ele><time>2026-04-26T08:12:44.998Z</time></trkpt><trkpt lat="43.225967523655406" lon="12.506302618756765"><ele>422.0</ele><time>2026-04-26T08:12:46.998Z</time></trkpt><trkpt lat="43.22585823441331" lon="12.506357821474422"><ele>422.0</ele><time>2026-04-26T08:12:48.998Z</time></trkpt><trkpt lat="43.22575180971434" lon="12.5064436663077"><ele>422.0</ele><time>2026-04-26T08:12:50.998Z</time></trkpt><trkpt lat="43.225697698012866" lon="12.506489027326843"><ele>422.0</ele><time>2026-04-26T08:12:51.998Z</time></trkpt><trkpt lat="43.22564029369136" lon="12.50654007958173"><ele>422.0</ele><time>2026-04-26T08:12:52.998Z</time></trkpt><trkpt lat="43.22559663250298" lon="12.506608664907995"><ele>422.0</ele><time>2026-04-26T08:12:53.998Z</time></trkpt><trkpt lat="43.22553680016263" lon="12.506642380688703"><ele>422.0</ele><time>2026-04-26T08:12:54.998Z</time></trkpt><trkpt lat="43.22546671728962" lon="12.506777168799443"><ele>422.0</ele><time>2026-04-26T08:12:56.998Z</time></trkpt><trkpt lat="43.22539439983586" lon="12.50689893966976"><ele>422.0</ele><time>2026-04-26T08:12:58.998Z</time></trkpt><trkpt lat="43.22538391381195" lon="12.507047767773411"><ele>423.0</ele><time>2026-04-26T08:13:00.998Z</time></trkpt><trkpt lat="43.225397345792615" lon="12.507194596500126"><ele>424.0</ele><time>2026-04-26T08:13:02.998Z</time></trkpt><trkpt lat="43.22541292142507" lon="12.50732982526159"><ele>425.00000000000006</ele><time>2026-04-26T08:13:04.998Z</time></trkpt><trkpt lat="43.22541684908954" lon="12.507432093435016"><ele>426.0</ele><time>2026-04-26T08:13:05.998Z</time></trkpt><trkpt lat="43.22542824563087" lon="12.50755076165632"><ele>427.0</ele><time>2026-04-26T08:13:06.998Z</time></trkpt><trkpt lat="43.22544257424302" lon="12.507662419681983"><ele>427.0</ele><time>2026-04-26T08:13:07.998Z</time></trkpt><trkpt lat="43.225446951545095" lon="12.5077614617362"><ele>427.0</ele><time>2026-04-26T08:13:08.998Z</time></trkpt><trkpt lat="43.22546814622866" lon="12.507857889008402"><ele>427.0</ele><time>2026-04-26T08:13:10Z</time></trkpt><trkpt lat="43.2254897782829" lon="12.507953712615127"><ele>427.0</ele><time>2026-04-26T08:13:11Z</time></trkpt><trkpt lat="43.22551174830939" lon="12.508045254923838"><ele>427.0</ele><time>2026-04-26T08:13:12Z</time></trkpt><trkpt lat="43.2255390567412" lon="12.508143882825436"><ele>427.0</ele><time>2026-04-26T08:13:13Z</time></trkpt><trkpt lat="43.22557196097763" lon="12.5082450728031"><ele>427.0</ele><time>2026-04-26T08:13:14Z</time></trkpt><trkpt lat="43.2256096619096" lon="12.508346542166356"><ele>430.50000000000006</ele><time>2026-04-26T08:13:15Z</time></trkpt><trkpt lat="43.22564913402143" lon="12.508445515149328"><ele>434.0</ele><time>2026-04-26T08:13:16Z</time></trkpt><trkpt lat="43.2256897332631" lon="12.508549250525604"><ele>437.5</ele><time>2026-04-26T08:13:16.999Z</time></trkpt><trkpt lat="43.225725696054454" lon="12.508649605018146"><ele>441.0</ele><time>2026-04-26T08:13:17.999Z</time></trkpt><trkpt lat="43.22575953675073" lon="12.50874839948806"><ele>444.50000000000006</ele><time>2026-04-26T08:13:18.999Z</time></trkpt><trkpt lat="43.22579204682362" lon="12.50884452194102"><ele>448.0</ele><time>2026-04-26T08:13:19.999Z</time></trkpt><trkpt lat="43.225837716046776" lon="12.508920789569633"><ele>448.0</ele><time>2026-04-26T08:13:20.999Z</time></trkpt><trkpt lat="43.225861306563004" lon="12.509003378808133"><ele>448.0</ele><time>2026-04-26T08:13:22Z</time></trkpt><trkpt lat="43.22590398878307" lon="12.50908317132274"><ele>448.0</ele><time>2026-04-26T08:13:23Z</time></trkpt><trkpt lat="43.22595303346592" lon="12.509165174131034"><ele>448.0</ele><time>2026-04-26T08:13:24Z</time></trkpt><trkpt lat="43.22601014315293" lon="12.50924663087803"><ele>448.0</ele><time>2026-04-26T08:13:25Z</time></trkpt><trkpt lat="43.22606771923968" lon="12.509310693575328"><ele>448.0</ele><time>2026-04-26T08:13:26Z</time></trkpt><trkpt lat="43.226121001438194" lon="12.509371590946525"><ele>448.0</ele><time>2026-04-26T08:13:27Z</time></trkpt><trkpt lat="43.22616485617647" lon="12.509453310225748"><ele>448.00000000000006</ele><time>2026-04-26T08:13:28Z</time></trkpt><trkpt lat="43.22622273810765" lon="12.50950222572775"><ele>448.0</ele><time>2026-04-26T08:13:29Z</time></trkpt><trkpt lat="43.226266370486854" lon="12.50956997272695"><ele>448.0</ele><time>2026-04-26T08:13:30Z</time></trkpt><trkpt lat="43.22630499843002" lon="12.509640403817855"><ele>448.0</ele><time>2026-04-26T08:13:31Z</time></trkpt><trkpt lat="43.22638084991271" lon="12.509759500092475"><ele>448.00000000000006</ele><time>2026-04-26T08:13:33Z</time></trkpt><trkpt lat="43.22645885085013" lon="12.509880698045386"><ele>448.0</ele><time>2026-04-26T08:13:35Z</time></trkpt><trkpt lat="43.226559874246824" lon="12.509966020251115"><ele>448.1666666666667</ele><time>2026-04-26T08:13:37Z</time></trkpt><trkpt lat="43.22661899240903" lon="12.51000010715626"><ele>448.33333333333337</ele><time>2026-04-26T08:13:38Z</time></trkpt><trkpt lat="43.226685584907116" lon="12.510036593407449"><ele>448.5</ele><time>2026-04-26T08:13:39Z</time></trkpt><trkpt lat="43.22675465869168" lon="12.51007585785233"><ele>448.66666666666663</ele><time>2026-04-26T08:13:40Z</time></trkpt><trkpt lat="43.226857984742075" lon="12.510151028594503"><ele>448.8333333333333</ele><time>2026-04-26T08:13:42Z</time></trkpt><trkpt lat="43.22693601966169" lon="12.51026231799842"><ele>449.0</ele><time>2026-04-26T08:13:44Z</time></trkpt><trkpt lat="43.226978217322284" lon="12.51041631867543"><ele>447.99999999999994</ele><time>2026-04-26T08:13:46Z</time></trkpt><trkpt lat="43.22694920280548" lon="12.51058335604312"><ele>447.0</ele><time>2026-04-26T08:13:48Z</time></trkpt><trkpt lat="43.226906104088734" lon="12.510655490958332"><ele>446.0</ele><time>2026-04-26T08:13:49Z</time></trkpt><trkpt lat="43.22685157624664" lon="12.510719420317411"><ele>445.0</ele><time>2026-04-26T08:13:50Z</time></trkpt><trkpt lat="43.22680074550679" lon="12.510785475385205"><ele>443.99999999999994</ele><time>2026-04-26T08:13:51Z</time></trkpt><trkpt lat="43.22675055135475" lon="12.510856960874097"><ele>443.0</ele><time>2026-04-26T08:13:51.999Z</time></trkpt><trkpt lat="43.22669801609695" lon="12.51093481499197"><ele>442.99999999999994</ele><time>2026-04-26T08:13:52.999Z</time></trkpt><trkpt lat="43.22664247239154" lon="12.511007779820321"><ele>443.0</ele><time>2026-04-26T08:13:53.999Z</time></trkpt><trkpt lat="43.22658948627545" lon="12.511072393512963"><ele>443.0</ele><time>2026-04-26T08:13:54.999Z</time></trkpt><trkpt lat="43.226534228789774" lon="12.511144335755386"><ele>443.0</ele><time>2026-04-26T08:13:55.999Z</time></trkpt><trkpt lat="43.22647192946084" lon="12.511222124772528"><ele>442.99999999999994</ele><time>2026-04-26T08:13:56.999Z</time></trkpt><trkpt lat="43.226405756809235" lon="12.511298587812565"><ele>443.0</ele><time>2026-04-26T08:13:57.999Z</time></trkpt><trkpt lat="43.22634395117093" lon="12.511373162790331"><ele>440.42857142857144</ele><time>2026-04-26T08:13:58.999Z</time></trkpt><trkpt lat="43.22628135777732" lon="12.511445380095864"><ele>437.8571428571429</ele><time>2026-04-26T08:13:59.999Z</time></trkpt><trkpt lat="43.22622646137994" lon="12.51151749031961"><ele>435.2857142857143</ele><time>2026-04-26T08:14:00.999Z</time></trkpt><trkpt lat="43.22617363139898" lon="12.511590046659643"><ele>432.7142857142857</ele><time>2026-04-26T08:14:01.999Z</time></trkpt><trkpt lat="43.22612902013309" lon="12.511667419447239"><ele>430.1428571428571</ele><time>2026-04-26T08:14:02.999Z</time></trkpt><trkpt lat="43.226095195058384" lon="12.51175056017632"><ele>427.57142857142856</ele><time>2026-04-26T08:14:03.999Z</time></trkpt><trkpt lat="43.22605598768895" lon="12.511821326651045"><ele>425.0</ele><time>2026-04-26T08:14:04.999Z</time></trkpt><trkpt lat="43.226075727978916" lon="12.51192733163352"><ele>424.99999999999994</ele><time>2026-04-26T08:14:05.999Z</time></trkpt><trkpt lat="43.226097210461546" lon="12.512022734418661"><ele>425.0</ele><time>2026-04-26T08:14:06.999Z</time></trkpt><trkpt lat="43.22613328818111" lon="12.512120633183299"><ele>425.0</ele><time>2026-04-26T08:14:07.999Z</time></trkpt><trkpt lat="43.22617808335686" lon="12.512213815898994"><ele>425.0</ele><time>2026-04-26T08:14:08.999Z</time></trkpt><trkpt lat="43.22623308441966" lon="12.512283191437536"><ele>424.99999999999994</ele><time>2026-04-26T08:14:09.999Z</time></trkpt><trkpt lat="43.22630085595297" lon="12.512321222735038"><ele>425.0</ele><time>2026-04-26T08:14:10.999Z</time></trkpt><trkpt lat="43.226376689919086" lon="12.512335211628034"><ele>423.3333333333333</ele><time>2026-04-26T08:14:11.999Z</time></trkpt><trkpt lat="43.226453201280385" lon="12.512324820942204"><ele>421.66666666666663</ele><time>2026-04-26T08:14:12.999Z</time></trkpt><trkpt lat="43.22652686243212" lon="12.512344041418865"><ele>420.0</ele><time>2026-04-26T08:14:13.999Z</time></trkpt><trkpt lat="43.22660172398065" lon="12.51231860052256"><ele>418.33333333333337</ele><time>2026-04-26T08:14:14.999Z</time></trkpt><trkpt lat="43.226676878752336" lon="12.512344254637876"><ele>416.6666666666667</ele><time>2026-04-26T08:14:15.999Z</time></trkpt><trkpt lat="43.22673628739775" lon="12.51239952470116"><ele>415.0</ele><time>2026-04-26T08:14:16.999Z</time></trkpt><trkpt lat="43.22675820126735" lon="12.512506891458036"><ele>417.57142857142856</ele><time>2026-04-26T08:14:17.999Z</time></trkpt><trkpt lat="43.22679524275855" lon="12.512590577934871"><ele>420.14285714285717</ele><time>2026-04-26T08:14:18.999Z</time></trkpt><trkpt lat="43.22683942024314" lon="12.512658091747486"><ele>422.71428571428567</ele><time>2026-04-26T08:14:19.999Z</time></trkpt><trkpt lat="43.22686725056084" lon="12.512744538233049"><ele>425.2857142857143</ele><time>2026-04-26T08:14:20.999Z</time></trkpt><trkpt lat="43.22690248494044" lon="12.51281883520286"><ele>427.85714285714283</ele><time>2026-04-26T08:14:21.999Z</time></trkpt><trkpt lat="43.226946392979855" lon="12.512885096323107"><ele>430.4285714285714</ele><time>2026-04-26T08:14:22.999Z</time></trkpt><trkpt lat="43.22698814214375" lon="12.512952796713169"><ele>433.0</ele><time>2026-04-26T08:14:23.999Z</time></trkpt><trkpt lat="43.227020181423796" lon="12.513031907649172"><ele>433.00000000000006</ele><time>2026-04-26T08:14:24.999Z</time></trkpt><trkpt lat="43.22707187686451" lon="12.513093033844136"><ele>433.0</ele><time>2026-04-26T08:14:25.999Z</time></trkpt><trkpt lat="43.227132549463974" lon="12.513152744544549"><ele>433.0</ele><time>2026-04-26T08:14:26.999Z</time></trkpt><trkpt lat="43.22719915412286" lon="12.513208387807346"><ele>433.0</ele><time>2026-04-26T08:14:27.999Z</time></trkpt><trkpt lat="43.22727566020143" lon="12.513264711455575"><ele>433.00000000000006</ele><time>2026-04-26T08:14:28.999Z</time></trkpt><trkpt lat="43.227367217012976" lon="12.51329928970094"><ele>433.0</ele><time>2026-04-26T08:14:29.999Z</time></trkpt><trkpt lat="43.227444831503455" lon="12.513355485933772"><ele>436.83333333333337</ele><time>2026-04-26T08:14:30.999Z</time></trkpt><trkpt lat="43.227529350965604" lon="12.513401255669859"><ele>440.6666666666667</ele><time>2026-04-26T08:14:31.999Z</time></trkpt><trkpt lat="43.22761250580475" lon="12.513440137029754"><ele>444.5</ele><time>2026-04-26T08:14:32.999Z</time></trkpt><trkpt lat="43.22769444520756" lon="12.513486939864942"><ele>448.33333333333337</ele><time>2026-04-26T08:14:33.999Z</time></trkpt><trkpt lat="43.22776804508698" lon="12.513515281060243"><ele>452.1666666666667</ele><time>2026-04-26T08:14:34.999Z</time></trkpt><trkpt lat="43.22783626027503" lon="12.51353886910794"><ele>456.0</ele><time>2026-04-26T08:14:35.999Z</time></trkpt><trkpt lat="43.227959833745935" lon="12.513577945067475"><ele>456.0</ele><time>2026-04-26T08:14:37.999Z</time></trkpt><trkpt lat="43.22801623423246" lon="12.513626822764394"><ele>455.99999999999994</ele><time>2026-04-26T08:14:38.999Z</time></trkpt><trkpt lat="43.22807157906685" lon="12.513673680268857"><ele>456.0</ele><time>2026-04-26T08:14:39.999Z</time></trkpt><trkpt lat="43.228137956667304" lon="12.513704933342185"><ele>456.0</ele><time>2026-04-26T08:14:40.998Z</time></trkpt><trkpt lat="43.22818973939968" lon="12.51376485687875"><ele>455.99999999999994</ele><time>2026-04-26T08:14:41.998Z</time></trkpt><trkpt lat="43.228227211359375" lon="12.513844684906115"><ele>456.0</ele><time>2026-04-26T08:14:42.998Z</time></trkpt><trkpt lat="43.22828608619919" lon="12.513907066076397"><ele>456.0</ele><time>2026-04-26T08:14:43.998Z</time></trkpt><trkpt lat="43.2283499080588" lon="12.513965568627095"><ele>454.5</ele><time>2026-04-26T08:14:44.998Z</time></trkpt><trkpt lat="43.22842976187199" lon="12.513993013530403"><ele>453.0</ele><time>2026-04-26T08:14:45.998Z</time></trkpt><trkpt lat="43.22849776896409" lon="12.514054607245399"><ele>451.5</ele><time>2026-04-26T08:14:46.998Z</time></trkpt><trkpt lat="43.228567409422276" lon="12.514123228521942"><ele>450.0</ele><time>2026-04-26T08:14:47.998Z</time></trkpt><trkpt lat="43.22863017031949" lon="12.514192108560632"><ele>448.5</ele><time>2026-04-26T08:14:48.998Z</time></trkpt><trkpt lat="43.22868077956841" lon="12.514279620166997"><ele>447.0</ele><time>2026-04-26T08:14:49.998Z</time></trkpt><trkpt lat="43.22874045738163" lon="12.51433753035817"><ele>447.0</ele><time>2026-04-26T08:14:50.998Z</time></trkpt><trkpt lat="43.22879504327367" lon="12.514391683081161"><ele>447.00000000000006</ele><time>2026-04-26T08:14:51.998Z</time></trkpt><trkpt lat="43.228885608974764" lon="12.51449142692397"><ele>447.00000000000006</ele><time>2026-04-26T08:14:53.998Z</time></trkpt><trkpt lat="43.22896141736965" lon="12.514592383356522"><ele>447.0</ele><time>2026-04-26T08:14:55.998Z</time></trkpt><trkpt lat="43.22901867679235" lon="12.514697620240959"><ele>447.0</ele><time>2026-04-26T08:14:57.998Z</time></trkpt><trkpt lat="43.22899584101434" lon="12.514832508138536"><ele>446.20000000000005</ele><time>2026-04-26T08:14:59.998Z</time></trkpt><trkpt lat="43.22894922406042" lon="12.514948163423583"><ele>445.40000000000003</ele><time>2026-04-26T08:15:01.998Z</time></trkpt><trkpt lat="43.22887183770006" lon="12.515025951523365"><ele>444.59999999999997</ele><time>2026-04-26T08:15:03.998Z</time></trkpt><trkpt lat="43.22876610016509" lon="12.515063517438929"><ele>443.79999999999995</ele><time>2026-04-26T08:15:05.998Z</time></trkpt><trkpt lat="43.22864617836307" lon="12.515119006160537"><ele>443.0</ele><time>2026-04-26T08:15:07.998Z</time></trkpt><trkpt lat="43.2285255977104" lon="12.515140536529742"><ele>442.99999999999994</ele><time>2026-04-26T08:15:09.998Z</time></trkpt><trkpt lat="43.2284621040009" lon="12.51513460165844"><ele>443.0</ele><time>2026-04-26T08:15:10.998Z</time></trkpt><trkpt lat="43.22839997991819" lon="12.51515590217404"><ele>443.0</ele><time>2026-04-26T08:15:11.998Z</time></trkpt><trkpt lat="43.22833777763571" lon="12.515186663756548"><ele>443.0</ele><time>2026-04-26T08:15:12.998Z</time></trkpt><trkpt lat="43.22827963279483" lon="12.515220789251728"><ele>442.99999999999994</ele><time>2026-04-26T08:15:13.998Z</time></trkpt><trkpt lat="43.2282191484527" lon="12.515260349804572"><ele>443.0</ele><time>2026-04-26T08:15:15Z</time></trkpt><trkpt lat="43.22811283092436" lon="12.51536781059554"><ele>442.57142857142856</ele><time>2026-04-26T08:15:17Z</time></trkpt><trkpt lat="43.22804559492893" lon="12.515396950720513"><ele>442.14285714285717</ele><time>2026-04-26T08:15:18Z</time></trkpt><trkpt lat="43.22798590523575" lon="12.515446261682873"><ele>441.71428571428567</ele><time>2026-04-26T08:15:19Z</time></trkpt><trkpt lat="43.2279325194367" lon="12.515512327767471"><ele>441.2857142857143</ele><time>2026-04-26T08:15:20Z</time></trkpt><trkpt lat="43.227859624553595" lon="12.515527285120134"><ele>440.85714285714283</ele><time>2026-04-26T08:15:21Z</time></trkpt><trkpt lat="43.22779293243329" lon="12.515546749394801"><ele>440.4285714285714</ele><time>2026-04-26T08:15:22Z</time></trkpt><trkpt lat="43.22772284728877" lon="12.515561629780478"><ele>440.0</ele><time>2026-04-26T08:15:23Z</time></trkpt><trkpt lat="43.227655830590635" lon="12.51557702447267"><ele>439.99999999999994</ele><time>2026-04-26T08:15:24Z</time></trkpt><trkpt lat="43.22758959584746" lon="12.51560776159838"><ele>440.0</ele><time>2026-04-26T08:15:25Z</time></trkpt><trkpt lat="43.22751950557682" lon="12.515618614594855"><ele>440.0</ele><time>2026-04-26T08:15:26Z</time></trkpt><trkpt lat="43.22745173171839" lon="12.515631162333436"><ele>440.0</ele><time>2026-04-26T08:15:27Z</time></trkpt><trkpt lat="43.22738692289475" lon="12.515650299349353"><ele>439.99999999999994</ele><time>2026-04-26T08:15:28Z</time></trkpt><trkpt lat="43.22729022596169" lon="12.515719407667296"><ele>440.0</ele><time>2026-04-26T08:15:30Z</time></trkpt><trkpt lat="43.227212042791784" lon="12.515784133122954"><ele>436.8333333333333</ele><time>2026-04-26T08:15:32Z</time></trkpt><trkpt lat="43.22713502594179" lon="12.515852556087882"><ele>433.66666666666663</ele><time>2026-04-26T08:15:34Z</time></trkpt><trkpt lat="43.22705813946607" lon="12.515914680981808"><ele>430.5</ele><time>2026-04-26T08:15:36Z</time></trkpt><trkpt lat="43.22697743277812" lon="12.515982784897338"><ele>427.33333333333337</ele><time>2026-04-26T08:15:38Z</time></trkpt><trkpt lat="43.22691195587544" lon="12.515991505918594"><ele>424.1666666666667</ele><time>2026-04-26T08:15:40Z</time></trkpt><trkpt lat="43.226858245706325" lon="12.51590373346653"><ele>421.0</ele><time>2026-04-26T08:15:43Z</time></trkpt><trkpt lat="43.22681786908889" lon="12.51578887809015"><ele>421.00000000000006</ele><time>2026-04-26T08:15:46Z</time></trkpt><trkpt lat="43.22677426596716" lon="12.515708185981499"><ele>421.0</ele><time>2026-04-26T08:15:48Z</time></trkpt><trkpt lat="43.22670163646709" lon="12.515641521312457"><ele>421.0</ele><time>2026-04-26T08:15:50Z</time></trkpt><trkpt lat="43.22660458913578" lon="12.515636331260037"><ele>421.0</ele><time>2026-04-26T08:15:52Z</time></trkpt><trkpt lat="43.22652465059832" lon="12.515720581037518"><ele>421.00000000000006</ele><time>2026-04-26T08:15:54Z</time></trkpt><trkpt lat="43.22648024447414" lon="12.515818434994097"><ele>421.0</ele><time>2026-04-26T08:15:55.999Z</time></trkpt><trkpt lat="43.22644123498489" lon="12.515947257954496"><ele>413.4</ele><time>2026-04-26T08:15:57.999Z</time></trkpt><trkpt lat="43.2263750816355" lon="12.51605123557391"><ele>405.8</ele><time>2026-04-26T08:15:59.999Z</time></trkpt><trkpt lat="43.22633248108377" lon="12.516177063093547"><ele>398.2</ele><time>2026-04-26T08:16:01.999Z</time></trkpt><trkpt lat="43.22629068540387" lon="12.516312406154228"><ele>390.59999999999997</ele><time>2026-04-26T08:16:03.999Z</time></trkpt><trkpt lat="43.22626112637613" lon="12.516467339201675"><ele>383.0</ele><time>2026-04-26T08:16:05.999Z</time></trkpt><trkpt lat="43.22621515943953" lon="12.516610600995483"><ele>382.5</ele><time>2026-04-26T08:16:07.999Z</time></trkpt><trkpt lat="43.22617009831741" lon="12.516764699115015"><ele>382.0</ele><time>2026-04-26T08:16:09.999Z</time></trkpt><trkpt lat="43.22614794767491" lon="12.516847926489742"><ele>381.5</ele><time>2026-04-26T08:16:10.999Z</time></trkpt><trkpt lat="43.226121216553274" lon="12.516933506468112"><ele>381.0</ele><time>2026-04-26T08:16:11.999Z</time></trkpt><trkpt lat="43.226098672787636" lon="12.517024715363457"><ele>380.5</ele><time>2026-04-26T08:16:12.999Z</time></trkpt><trkpt lat="43.226068882703395" lon="12.517113488746046"><ele>380.0</ele><time>2026-04-26T08:16:13.999Z</time></trkpt><trkpt lat="43.22605214358358" lon="12.51720324665653"><ele>380.0</ele><time>2026-04-26T08:16:14.999Z</time></trkpt><trkpt lat="43.226038339650295" lon="12.517297591449104"><ele>380.0</ele><time>2026-04-26T08:16:15.999Z</time></trkpt><trkpt lat="43.22604044040236" lon="12.517399373755653"><ele>380.0</ele><time>2026-04-26T08:16:16.999Z</time></trkpt><trkpt lat="43.22602856451797" lon="12.517491748087496"><ele>380.0</ele><time>2026-04-26T08:16:17.999Z</time></trkpt><trkpt lat="43.22602087626994" lon="12.517580780534404"><ele>380.0</ele><time>2026-04-26T08:16:18.999Z</time></trkpt><trkpt lat="43.22601325396066" lon="12.517666836567335"><ele>380.0</ele><time>2026-04-26T08:16:19.999Z</time></trkpt><trkpt lat="43.226005711302605" lon="12.517833266440286"><ele>379.4</ele><time>2026-04-26T08:16:21.999Z</time></trkpt><trkpt lat="43.22600091418358" lon="12.517993816656764"><ele>378.8</ele><time>2026-04-26T08:16:23.999Z</time></trkpt><trkpt lat="43.22598822684644" lon="12.518142962206946"><ele>378.20000000000005</ele><time>2026-04-26T08:16:25.999Z</time></trkpt><trkpt lat="43.225985159171614" lon="12.518287861534928"><ele>377.6</ele><time>2026-04-26T08:16:27.999Z</time></trkpt><trkpt lat="43.22597256454976" lon="12.51843464729782"><ele>377.0</ele><time>2026-04-26T08:16:29.999Z</time></trkpt><trkpt lat="43.22597526828355" lon="12.518589897278783"><ele>377.0</ele><time>2026-04-26T08:16:31.999Z</time></trkpt><trkpt lat="43.225959025930344" lon="12.518725364254308"><ele>377.0</ele><time>2026-04-26T08:16:33.999Z</time></trkpt><trkpt lat="43.22597172722844" lon="12.518859025528439"><ele>377.0</ele><time>2026-04-26T08:16:35.999Z</time></trkpt><trkpt lat="43.22599457511969" lon="12.519019972693103"><ele>377.0</ele><time>2026-04-26T08:16:37.999Z</time></trkpt><trkpt lat="43.226013452021654" lon="12.519167885857762"><ele>377.0</ele><time>2026-04-26T08:16:39.998Z</time></trkpt><trkpt lat="43.22602917523635" lon="12.519343433581616"><ele>376.6666666666667</ele><time>2026-04-26T08:16:41.998Z</time></trkpt><trkpt lat="43.22604279285793" lon="12.519502829999047"><ele>376.33333333333337</ele><time>2026-04-26T08:16:43.998Z</time></trkpt><trkpt lat="43.22607734309031" lon="12.519653753084693"><ele>376.0</ele><time>2026-04-26T08:16:45.998Z</time></trkpt><trkpt lat="43.22610311015867" lon="12.519739671516309"><ele>375.6666666666667</ele><time>2026-04-26T08:16:46.998Z</time></trkpt><trkpt lat="43.226132858268066" lon="12.519824422264621"><ele>375.3333333333333</ele><time>2026-04-26T08:16:47.998Z</time></trkpt><trkpt lat="43.22616789764811" lon="12.519912902349892"><ele>375.0</ele><time>2026-04-26T08:16:48.998Z</time></trkpt><trkpt lat="43.226207475361576" lon="12.519997838130578"><ele>374.0</ele><time>2026-04-26T08:16:49.998Z</time></trkpt><trkpt lat="43.22624628299856" lon="12.520082150573264"><ele>373.0</ele><time>2026-04-26T08:16:50.998Z</time></trkpt><trkpt lat="43.226283935225446" lon="12.520171069117078"><ele>372.0</ele><time>2026-04-26T08:16:51.998Z</time></trkpt><trkpt lat="43.2263218991831" lon="12.520255293936518"><ele>371.0</ele><time>2026-04-26T08:16:52.998Z</time></trkpt><trkpt lat="43.226362951614846" lon="12.520337285798618"><ele>370.0</ele><time>2026-04-26T08:16:53.998Z</time></trkpt><trkpt lat="43.22640567811602" lon="12.520413560658348"><ele>369.0</ele><time>2026-04-26T08:16:54.998Z</time></trkpt><trkpt lat="43.226454818399056" lon="12.520480135489688"><ele>368.0</ele><time>2026-04-26T08:16:55.998Z</time></trkpt><trkpt lat="43.22654906027115" lon="12.520578233076446"><ele>371.4</ele><time>2026-04-26T08:16:57.998Z</time></trkpt><trkpt lat="43.22662077610343" lon="12.520710560456074"><ele>374.79999999999995</ele><time>2026-04-26T08:16:59.998Z</time></trkpt><trkpt lat="43.22662146511579" lon="12.520881182835877"><ele>378.2</ele><time>2026-04-26T08:17:01.998Z</time></trkpt><trkpt lat="43.226610913811406" lon="12.52097766218846"><ele>381.6</ele><time>2026-04-26T08:17:02.998Z</time></trkpt><trkpt lat="43.22660814585368" lon="12.521079383922848"><ele>385.0</ele><time>2026-04-26T08:17:03.998Z</time></trkpt><trkpt lat="43.22661201166302" lon="12.521185534797215"><ele>384.00000000000006</ele><time>2026-04-26T08:17:04.998Z</time></trkpt><trkpt lat="43.226624576915235" lon="12.521283188956078"><ele>383.0</ele><time>2026-04-26T08:17:05.998Z</time></trkpt><trkpt lat="43.22664384723161" lon="12.521384067643059"><ele>382.0</ele><time>2026-04-26T08:17:06.998Z</time></trkpt><trkpt lat="43.226664776024585" lon="12.521491034554662"><ele>381.0</ele><time>2026-04-26T08:17:07.998Z</time></trkpt><trkpt lat="43.22668558613797" lon="12.521606077786416"><ele>380.0</ele><time>2026-04-26T08:17:08.998Z</time></trkpt><trkpt lat="43.226710672720486" lon="12.521706951330831"><ele>379.0</ele><time>2026-04-26T08:17:09.998Z</time></trkpt><trkpt lat="43.22673023786855" lon="12.521812615764716"><ele>379.0</ele><time>2026-04-26T08:17:10.998Z</time></trkpt><trkpt lat="43.226753554177115" lon="12.521910393300892"><ele>379.0</ele><time>2026-04-26T08:17:11.998Z</time></trkpt><trkpt lat="43.226775858954625" lon="12.522006582271413"><ele>379.0</ele><time>2026-04-26T08:17:12.998Z</time></trkpt><trkpt lat="43.22680242586891" lon="12.52211165601641"><ele>379.0</ele><time>2026-04-26T08:17:13.998Z</time></trkpt><trkpt lat="43.22683208775207" lon="12.522220588460105"><ele>379.0</ele><time>2026-04-26T08:17:14.998Z</time></trkpt><trkpt lat="43.22686647039387" lon="12.522335839572392"><ele>379.0</ele><time>2026-04-26T08:17:15.998Z</time></trkpt><trkpt lat="43.226903552026705" lon="12.522448866426059"><ele>378.3333333333333</ele><time>2026-04-26T08:17:16.998Z</time></trkpt><trkpt lat="43.226938726026894" lon="12.522549137977379"><ele>377.66666666666663</ele><time>2026-04-26T08:17:17.998Z</time></trkpt><trkpt lat="43.2269677395878" lon="12.522639150779748"><ele>377.0</ele><time>2026-04-26T08:17:18.998Z</time></trkpt><trkpt lat="43.2269851148832" lon="12.522731292964142"><ele>376.3333333333333</ele><time>2026-04-26T08:17:20Z</time></trkpt><trkpt lat="43.22700108544237" lon="12.522828402236547"><ele>375.6666666666667</ele><time>2026-04-26T08:17:21Z</time></trkpt><trkpt lat="43.22702284353446" lon="12.522933011876175"><ele>375.0</ele><time>2026-04-26T08:17:22Z</time></trkpt><trkpt lat="43.2270582006102" lon="12.523044784448897"><ele>375.0</ele><time>2026-04-26T08:17:23Z</time></trkpt><trkpt lat="43.22710510356674" lon="12.523153328573315"><ele>375.0</ele><time>2026-04-26T08:17:24Z</time></trkpt><trkpt lat="43.22715617285847" lon="12.523265537388802"><ele>375.0</ele><time>2026-04-26T08:17:25Z</time></trkpt><trkpt lat="43.22720795711759" lon="12.523375654140292"><ele>375.0</ele><time>2026-04-26T08:17:26Z</time></trkpt><trkpt lat="43.22725894335443" lon="12.523487405049735"><ele>375.0</ele><time>2026-04-26T08:17:27Z</time></trkpt><trkpt lat="43.22730960209171" lon="12.523595922896725"><ele>375.0</ele><time>2026-04-26T08:17:28Z</time></trkpt><trkpt lat="43.227367480615875" lon="12.523694377730804"><ele>375.0</ele><time>2026-04-26T08:17:29Z</time></trkpt><trkpt lat="43.2274304295175" lon="12.523765495831567"><ele>375.0</ele><time>2026-04-26T08:17:30Z</time></trkpt><trkpt lat="43.22748369150009" lon="12.523819254731757"><ele>375.0</ele><time>2026-04-26T08:17:31Z</time></trkpt><trkpt lat="43.2275760405069" lon="12.52393278661861"><ele>375.0</ele><time>2026-04-26T08:17:33Z</time></trkpt><trkpt lat="43.2276283711434" lon="12.523988179158897"><ele>375.0</ele><time>2026-04-26T08:17:34Z</time></trkpt><trkpt lat="43.22767549347405" lon="12.524048182080532"><ele>375.0</ele><time>2026-04-26T08:17:35Z</time></trkpt><trkpt lat="43.227726818356125" lon="12.524114308099671"><ele>375.0</ele><time>2026-04-26T08:17:36Z</time></trkpt><trkpt lat="43.22778018361556" lon="12.524178517799799"><ele>375.0</ele><time>2026-04-26T08:17:37Z</time></trkpt><trkpt lat="43.22783745831055" lon="12.524242430714969"><ele>375.0</ele><time>2026-04-26T08:17:38Z</time></trkpt><trkpt lat="43.22793867380634" lon="12.52435134031668"><ele>375.0</ele><time>2026-04-26T08:17:40Z</time></trkpt><trkpt lat="43.2279965425207" lon="12.524399039977121"><ele>375.0</ele><time>2026-04-26T08:17:41Z</time></trkpt><trkpt lat="43.22805766935012" lon="12.524441630468536"><ele>375.0</ele><time>2026-04-26T08:17:42Z</time></trkpt><trkpt lat="43.22811428045681" lon="12.524496040358626"><ele>375.0</ele><time>2026-04-26T08:17:43Z</time></trkpt><trkpt lat="43.22817696589406" lon="12.524542685505326"><ele>375.0</ele><time>2026-04-26T08:17:44Z</time></trkpt><trkpt lat="43.22823643171878" lon="12.524586934889447"><ele>375.0</ele><time>2026-04-26T08:17:45Z</time></trkpt><trkpt lat="43.22830703063042" lon="12.524598322369643"><ele>375.0</ele><time>2026-04-26T08:17:46Z</time></trkpt><trkpt lat="43.22836521905914" lon="12.52463374275676"><ele>375.0</ele><time>2026-04-26T08:17:47Z</time></trkpt><trkpt lat="43.22846401472861" lon="12.524724210081846"><ele>376.25</ele><time>2026-04-26T08:17:49Z</time></trkpt><trkpt lat="43.228532936561116" lon="12.524854899143474"><ele>377.5</ele><time>2026-04-26T08:17:51Z</time></trkpt><trkpt lat="43.22860142247726" lon="12.524984196917105"><ele>378.75</ele><time>2026-04-26T08:17:53Z</time></trkpt><trkpt lat="43.228674800518824" lon="12.525105199790412"><ele>380.0</ele><time>2026-04-26T08:17:55Z</time></trkpt><trkpt lat="43.22875739919383" lon="12.525229545109763"><ele>380.0</ele><time>2026-04-26T08:17:56.999Z</time></trkpt><trkpt lat="43.22879054131729" lon="12.525305659075224"><ele>380.0</ele><time>2026-04-26T08:17:57.999Z</time></trkpt><trkpt lat="43.22881582396037" lon="12.525390339985705"><ele>380.0</ele><time>2026-04-26T08:17:58.999Z</time></trkpt><trkpt lat="43.22883524044489" lon="12.52547566482532"><ele>380.0</ele><time>2026-04-26T08:17:59.999Z</time></trkpt><trkpt lat="43.2288544684812" lon="12.525569125964424"><ele>380.0</ele><time>2026-04-26T08:18:00.999Z</time></trkpt><trkpt lat="43.228871841528225" lon="12.5256628149844"><ele>380.0</ele><time>2026-04-26T08:18:01.999Z</time></trkpt><trkpt lat="43.22889081259534" lon="12.52575785193575"><ele>380.0</ele><time>2026-04-26T08:18:02.999Z</time></trkpt><trkpt lat="43.228908929334985" lon="12.525855977331275"><ele>379.6</ele><time>2026-04-26T08:18:03.999Z</time></trkpt><trkpt lat="43.22892602809375" lon="12.525951355374033"><ele>379.2</ele><time>2026-04-26T08:18:04.999Z</time></trkpt><trkpt lat="43.228937230723005" lon="12.526045236858014"><ele>378.79999999999995</ele><time>2026-04-26T08:18:05.999Z</time></trkpt><trkpt lat="43.22899298885016" lon="12.526182384086555"><ele>378.4</ele><time>2026-04-26T08:18:07.999Z</time></trkpt><trkpt lat="43.22910506795058" lon="12.526220016550415"><ele>378.0</ele><time>2026-04-26T08:18:09.999Z</time></trkpt><trkpt lat="43.22922999090958" lon="12.52618423531549"><ele>378.0</ele><time>2026-04-26T08:18:11.999Z</time></trkpt><trkpt lat="43.2293014177987" lon="12.526167855994936"><ele>378.0</ele><time>2026-04-26T08:18:12.999Z</time></trkpt><trkpt lat="43.229373448350316" lon="12.526163083664558"><ele>378.0</ele><time>2026-04-26T08:18:13.999Z</time></trkpt><trkpt lat="43.22944384921869" lon="12.526182502164227"><ele>378.0</ele><time>2026-04-26T08:18:14.999Z</time></trkpt><trkpt lat="43.22951345503319" lon="12.526214780939808"><ele>378.0</ele><time>2026-04-26T08:18:15.999Z</time></trkpt><trkpt lat="43.22958641534105" lon="12.526250474143021"><ele>378.0</ele><time>2026-04-26T08:18:16.999Z</time></trkpt><trkpt lat="43.22965782083134" lon="12.526289194008912"><ele>378.0</ele><time>2026-04-26T08:18:17.999Z</time></trkpt><trkpt lat="43.22972831044032" lon="12.526335950594282"><ele>378.0</ele><time>2026-04-26T08:18:18.999Z</time></trkpt><trkpt lat="43.22979519208239" lon="12.526385258941874"><ele>378.0</ele><time>2026-04-26T08:18:19.999Z</time></trkpt><trkpt lat="43.22986111532116" lon="12.526438662660839"><ele>378.0</ele><time>2026-04-26T08:18:20.999Z</time></trkpt><trkpt lat="43.22992946692039" lon="12.526494069648772"><ele>378.0</ele><time>2026-04-26T08:18:21.999Z</time></trkpt><trkpt lat="43.23000226963757" lon="12.526560694704981"><ele>378.0</ele><time>2026-04-26T08:18:22.999Z</time></trkpt><trkpt lat="43.23007125660032" lon="12.526631145233566"><ele>378.0</ele><time>2026-04-26T08:18:23.999Z</time></trkpt><trkpt lat="43.23012942253276" lon="12.526703015544857"><ele>378.3333333333333</ele><time>2026-04-26T08:18:24.999Z</time></trkpt><trkpt lat="43.2301814937343" lon="12.526764167263261"><ele>378.6666666666667</ele><time>2026-04-26T08:18:25.999Z</time></trkpt><trkpt lat="43.23026053875252" lon="12.52689914202881"><ele>379.0</ele><time>2026-04-26T08:18:27.999Z</time></trkpt><trkpt lat="43.23029176866031" lon="12.526977398707285"><ele>379.33333333333337</ele><time>2026-04-26T08:18:28.999Z</time></trkpt><trkpt lat="43.230310882658074" lon="12.52706432956482"><ele>379.6666666666667</ele><time>2026-04-26T08:18:29.999Z</time></trkpt><trkpt lat="43.23032645947367" lon="12.52715568415554"><ele>380.0</ele><time>2026-04-26T08:18:30.999Z</time></trkpt><trkpt lat="43.230331950963446" lon="12.527243137025543"><ele>380.0</ele><time>2026-04-26T08:18:31.999Z</time></trkpt><trkpt lat="43.230303100842306" lon="12.527386275866771"><ele>380.0</ele><time>2026-04-26T08:18:33.999Z</time></trkpt><trkpt lat="43.23024730674803" lon="12.527464643288969"><ele>380.0</ele><time>2026-04-26T08:18:35.999Z</time></trkpt><trkpt lat="43.23022889582065" lon="12.527631554434478"><ele>380.0</ele><time>2026-04-26T08:18:37.999Z</time></trkpt><trkpt lat="43.230228457909895" lon="12.527732238647515"><ele>380.0</ele><time>2026-04-26T08:18:38.999Z</time></trkpt><trkpt lat="43.23023043209934" lon="12.527826096717035"><ele>381.0</ele><time>2026-04-26T08:18:39.999Z</time></trkpt><trkpt lat="43.23022788142865" lon="12.527920657161236"><ele>382.0</ele><time>2026-04-26T08:18:40.998Z</time></trkpt><trkpt lat="43.23021797915185" lon="12.528014928584685"><ele>383.0</ele><time>2026-04-26T08:18:41.998Z</time></trkpt><trkpt lat="43.230212586767145" lon="12.528108489659072"><ele>384.0</ele><time>2026-04-26T08:18:42.998Z</time></trkpt><trkpt lat="43.23020405853721" lon="12.528194855934812"><ele>385.0</ele><time>2026-04-26T08:18:43.998Z</time></trkpt><trkpt lat="43.230187318617475" lon="12.528283703980053"><ele>386.0</ele><time>2026-04-26T08:18:44.998Z</time></trkpt><trkpt lat="43.23016725486499" lon="12.528371969554607"><ele>387.0</ele><time>2026-04-26T08:18:45.998Z</time></trkpt><trkpt lat="43.23014586075199" lon="12.52845865971123"><ele>387.0</ele><time>2026-04-26T08:18:46.998Z</time></trkpt><trkpt lat="43.23012897261046" lon="12.528549510961907"><ele>387.0</ele><time>2026-04-26T08:18:47.998Z</time></trkpt><trkpt lat="43.23010736567597" lon="12.528638687897088"><ele>387.0</ele><time>2026-04-26T08:18:48.998Z</time></trkpt><trkpt lat="43.230087978953186" lon="12.528721804726276"><ele>387.0</ele><time>2026-04-26T08:18:49.998Z</time></trkpt><trkpt lat="43.23006654412792" lon="12.528811917641425"><ele>387.0</ele><time>2026-04-26T08:18:50.998Z</time></trkpt><trkpt lat="43.23004428662891" lon="12.528906371979549"><ele>387.0</ele><time>2026-04-26T08:18:51.998Z</time></trkpt><trkpt lat="43.23002391199042" lon="12.529003007469804"><ele>387.0</ele><time>2026-04-26T08:18:52.998Z</time></trkpt><trkpt lat="43.23000402088871" lon="12.529104609427486"><ele>388.3333333333333</ele><time>2026-04-26T08:18:53.998Z</time></trkpt><trkpt lat="43.22998387951135" lon="12.529203346194226"><ele>389.66666666666663</ele><time>2026-04-26T08:18:54.998Z</time></trkpt><trkpt lat="43.22996683303921" lon="12.529307562714099"><ele>391.0</ele><time>2026-04-26T08:18:55.998Z</time></trkpt><trkpt lat="43.22995341512976" lon="12.529414705744433"><ele>392.3333333333333</ele><time>2026-04-26T08:18:56.998Z</time></trkpt><trkpt lat="43.22994695741916" lon="12.529521549209598"><ele>393.66666666666663</ele><time>2026-04-26T08:18:57.998Z</time></trkpt><trkpt lat="43.22994558600965" lon="12.529626406812715"><ele>395.0</ele><time>2026-04-26T08:18:58.998Z</time></trkpt><trkpt lat="43.22994515980377" lon="12.529732548132527"><ele>396.49999999999994</ele><time>2026-04-26T08:18:59.998Z</time></trkpt><trkpt lat="43.229947366651245" lon="12.529842706242079"><ele>398.0</ele><time>2026-04-26T08:19:00.998Z</time></trkpt><trkpt lat="43.229948216806214" lon="12.529952085141018"><ele>399.5</ele><time>2026-04-26T08:19:01.998Z</time></trkpt><trkpt lat="43.22995268303181" lon="12.530067438135676"><ele>401.0</ele><time>2026-04-26T08:19:02.998Z</time></trkpt><trkpt lat="43.2299602494262" lon="12.530186637075033"><ele>402.49999999999994</ele><time>2026-04-26T08:19:03.998Z</time></trkpt><trkpt lat="43.22996999400325" lon="12.530308986885982"><ele>404.0</ele><time>2026-04-26T08:19:04.998Z</time></trkpt><trkpt lat="43.22997692606152" lon="12.530423822738058"><ele>404.8333333333333</ele><time>2026-04-26T08:19:05.998Z</time></trkpt><trkpt lat="43.22998199868216" lon="12.53053245235666"><ele>405.66666666666663</ele><time>2026-04-26T08:19:06.998Z</time></trkpt><trkpt lat="43.229974444988066" lon="12.530643429069928"><ele>406.5</ele><time>2026-04-26T08:19:07.998Z</time></trkpt><trkpt lat="43.22994973392728" lon="12.53073970301771"><ele>407.33333333333337</ele><time>2026-04-26T08:19:08.998Z</time></trkpt><trkpt lat="43.22988698031845" lon="12.530889894913146"><ele>408.1666666666667</ele><time>2026-04-26T08:19:10.998Z</time></trkpt><trkpt lat="43.229844944752806" lon="12.53096574479236"><ele>409.0</ele><time>2026-04-26T08:19:11.998Z</time></trkpt><trkpt lat="43.22980990498902" lon="12.531045441733193"><ele>409.4285714285714</ele><time>2026-04-26T08:19:12.998Z</time></trkpt><trkpt lat="43.229776459900634" lon="12.531131189361847"><ele>409.8571428571429</ele><time>2026-04-26T08:19:13.998Z</time></trkpt><trkpt lat="43.2297505588796" lon="12.53121734121342"><ele>410.2857142857143</ele><time>2026-04-26T08:19:14.998Z</time></trkpt><trkpt lat="43.2297252382153" lon="12.531306975722616"><ele>410.71428571428567</ele><time>2026-04-26T08:19:15.998Z</time></trkpt><trkpt lat="43.22970021310465" lon="12.531395169711818"><ele>411.1428571428571</ele><time>2026-04-26T08:19:16.998Z</time></trkpt><trkpt lat="43.22966094564668" lon="12.531477773599022"><ele>411.57142857142856</ele><time>2026-04-26T08:19:17.998Z</time></trkpt><trkpt lat="43.22961895485578" lon="12.53155416038674"><ele>412.0</ele><time>2026-04-26T08:19:18.998Z</time></trkpt><trkpt lat="43.22957526215592" lon="12.531624334063414"><ele>412.0</ele><time>2026-04-26T08:19:19.998Z</time></trkpt><trkpt lat="43.22948780733996" lon="12.531745175975999"><ele>412.0</ele><time>2026-04-26T08:19:21.998Z</time></trkpt><trkpt lat="43.22943784968739" lon="12.531807377427668"><ele>412.0</ele><time>2026-04-26T08:19:22.998Z</time></trkpt><trkpt lat="43.22935347533547" lon="12.531940809997431"><ele>412.0</ele><time>2026-04-26T08:19:24.998Z</time></trkpt><trkpt lat="43.22931529388718" lon="12.532018299810854"><ele>412.0</ele><time>2026-04-26T08:19:26Z</time></trkpt><trkpt lat="43.22927726166717" lon="12.532095791002417"><ele>412.99999999999994</ele><time>2026-04-26T08:19:27Z</time></trkpt><trkpt lat="43.22924203003339" lon="12.53218566890163"><ele>414.0</ele><time>2026-04-26T08:19:28Z</time></trkpt><trkpt lat="43.229205441406485" lon="12.532269051673529"><ele>415.0</ele><time>2026-04-26T08:19:29Z</time></trkpt><trkpt lat="43.22916955127453" lon="12.532348116918046"><ele>416.0</ele><time>2026-04-26T08:19:30Z</time></trkpt><trkpt lat="43.22912997325802" lon="12.532427105564466"><ele>417.0</ele><time>2026-04-26T08:19:31Z</time></trkpt><trkpt lat="43.22909120786846" lon="12.532508753283635"><ele>417.99999999999994</ele><time>2026-04-26T08:19:32Z</time></trkpt><trkpt lat="43.22904917813086" lon="12.53259061203829"><ele>419.0</ele><time>2026-04-26T08:19:33Z</time></trkpt><trkpt lat="43.229007544098174" lon="12.532676018109557"><ele>420.16666666666663</ele><time>2026-04-26T08:19:34Z</time></trkpt><trkpt lat="43.22896702437417" lon="12.532767069230603"><ele>421.3333333333333</ele><time>2026-04-26T08:19:35Z</time></trkpt><trkpt lat="43.22893113388818" lon="12.532861771740286"><ele>422.5</ele><time>2026-04-26T08:19:36Z</time></trkpt><trkpt lat="43.22889494772638" lon="12.53296360612474"><ele>423.66666666666663</ele><time>2026-04-26T08:19:37Z</time></trkpt><trkpt lat="43.22885679684397" lon="12.53307066271737"><ele>424.8333333333333</ele><time>2026-04-26T08:19:38Z</time></trkpt><trkpt lat="43.228822094185894" lon="12.533176218003828"><ele>426.0</ele><time>2026-04-26T08:19:39Z</time></trkpt><trkpt lat="43.22878795538431" lon="12.533286038703057"><ele>426.0</ele><time>2026-04-26T08:19:40Z</time></trkpt><trkpt lat="43.228754521727986" lon="12.533399322499807"><ele>426.0</ele><time>2026-04-26T08:19:41Z</time></trkpt><trkpt lat="43.22872163964626" lon="12.533512637756052"><ele>426.0</ele><time>2026-04-26T08:19:42Z</time></trkpt><trkpt lat="43.22868764055537" lon="12.533628189929486"><ele>426.0</ele><time>2026-04-26T08:19:43Z</time></trkpt><trkpt lat="43.228645768807375" lon="12.533733547870469"><ele>426.0</ele><time>2026-04-26T08:19:44Z</time></trkpt><trkpt lat="43.22860042225778" lon="12.533833779699412"><ele>426.0</ele><time>2026-04-26T08:19:45Z</time></trkpt><trkpt lat="43.228557826916166" lon="12.53393362476186"><ele>427.3333333333333</ele><time>2026-04-26T08:19:46Z</time></trkpt><trkpt lat="43.22851603133244" lon="12.534026387218649"><ele>428.66666666666663</ele><time>2026-04-26T08:19:47Z</time></trkpt><trkpt lat="43.228473257381154" lon="12.534122508095075"><ele>430.0</ele><time>2026-04-26T08:19:48Z</time></trkpt><trkpt lat="43.22844201002286" lon="12.534222543115305"><ele>431.3333333333333</ele><time>2026-04-26T08:19:49Z</time></trkpt><trkpt lat="43.22842394482158" lon="12.534331178920967"><ele>432.66666666666663</ele><time>2026-04-26T08:19:50Z</time></trkpt><trkpt lat="43.228423500805704" lon="12.534443048842997"><ele>434.0</ele><time>2026-04-26T08:19:51Z</time></trkpt><trkpt lat="43.22843360657671" lon="12.53454692549458"><ele>434.99999999999994</ele><time>2026-04-26T08:19:52Z</time></trkpt><trkpt lat="43.22844618319258" lon="12.534648931538154"><ele>436.0</ele><time>2026-04-26T08:19:53Z</time></trkpt><trkpt lat="43.22844147974234" lon="12.534748231304716"><ele>437.0</ele><time>2026-04-26T08:19:54Z</time></trkpt><trkpt lat="43.22842057846306" lon="12.53483113556367"><ele>438.0</ele><time>2026-04-26T08:19:55Z</time></trkpt><trkpt lat="43.22836778415903" lon="12.53496420727214"><ele>438.99999999999994</ele><time>2026-04-26T08:19:57Z</time></trkpt><trkpt lat="43.228373010444315" lon="12.535074852544366"><ele>440.0</ele><time>2026-04-26T08:19:59Z</time></trkpt><trkpt lat="43.22844630141996" lon="12.535117949645464"><ele>440.0</ele><time>2026-04-26T08:20:00.999Z</time></trkpt><trkpt lat="43.228502748012055" lon="12.535034044217976"><ele>440.0</ele><time>2026-04-26T08:20:02.999Z</time></trkpt><trkpt lat="43.228518461700446" lon="12.53490910647679"><ele>440.0</ele><time>2026-04-26T08:20:04.999Z</time></trkpt><trkpt lat="43.22856841484624" lon="12.534766844801856"><ele>440.0</ele><time>2026-04-26T08:20:06.999Z</time></trkpt><trkpt lat="43.228637395205375" lon="12.534668124113917"><ele>440.0</ele><time>2026-04-26T08:20:08.999Z</time></trkpt><trkpt lat="43.22867654961549" lon="12.534588335031916"><ele>438.99999999999994</ele><time>2026-04-26T08:20:09.999Z</time></trkpt><trkpt lat="43.22871535850369" lon="12.534513000674318"><ele>438.0</ele><time>2026-04-26T08:20:10.999Z</time></trkpt><trkpt lat="43.22875228039541" lon="12.534434225816895"><ele>437.0</ele><time>2026-04-26T08:20:11.999Z</time></trkpt><trkpt lat="43.22881467569126" lon="12.534283297318042"><ele>436.0</ele><time>2026-04-26T08:20:13.999Z</time></trkpt><trkpt lat="43.22884222316118" lon="12.53420552412874"><ele>434.99999999999994</ele><time>2026-04-26T08:20:14.999Z</time></trkpt><trkpt lat="43.22888619900434" lon="12.534054079897006"><ele>434.0</ele><time>2026-04-26T08:20:16.999Z</time></trkpt><trkpt lat="43.228932046814585" lon="12.533937554474651"><ele>436.66666666666663</ele><time>2026-04-26T08:20:18.999Z</time></trkpt><trkpt lat="43.22899841314398" lon="12.53385038223697"><ele>439.3333333333333</ele><time>2026-04-26T08:20:20.999Z</time></trkpt><trkpt lat="43.22906466257025" lon="12.53377850628342"><ele>442.0</ele><time>2026-04-26T08:20:22.999Z</time></trkpt><trkpt lat="43.22913769609417" lon="12.533771178319865"><ele>444.66666666666663</ele><time>2026-04-26T08:20:24.999Z</time></trkpt><trkpt lat="43.22917533722498" lon="12.533843711124682"><ele>447.3333333333333</ele><time>2026-04-26T08:20:26.999Z</time></trkpt><trkpt lat="43.22915026896581" lon="12.533940433616891"><ele>450.0</ele><time>2026-04-26T08:20:28.999Z</time></trkpt><trkpt lat="43.22910249919205" lon="12.534059546083508"><ele>450.0</ele><time>2026-04-26T08:20:30.999Z</time></trkpt><trkpt lat="43.229132565234224" lon="12.534185850601217"><ele>450.0</ele><time>2026-04-26T08:20:32.999Z</time></trkpt><trkpt lat="43.229195016956545" lon="12.534296298540559"><ele>450.0</ele><time>2026-04-26T08:20:34.999Z</time></trkpt><trkpt lat="43.22926384738487" lon="12.534418796898553"><ele>450.0</ele><time>2026-04-26T08:20:36.999Z</time></trkpt><trkpt lat="43.22932783746939" lon="12.534542147319062"><ele>450.0</ele><time>2026-04-26T08:20:38.999Z</time></trkpt><trkpt lat="43.22938809103279" lon="12.5346641405276"><ele>451.0</ele><time>2026-04-26T08:20:40.999Z</time></trkpt><trkpt lat="43.229444018730064" lon="12.534771947658038"><ele>452.0</ele><time>2026-04-26T08:20:42.999Z</time></trkpt><trkpt lat="43.22948367267592" lon="12.53488216188772"><ele>453.0</ele><time>2026-04-26T08:20:44.998Z</time></trkpt><trkpt lat="43.229490583163255" lon="12.535004664551108"><ele>454.0</ele><time>2026-04-26T08:20:46.998Z</time></trkpt><trkpt lat="43.22944267214537" lon="12.535113067072679"><ele>455.0</ele><time>2026-04-26T08:20:48.998Z</time></trkpt><trkpt lat="43.22935592511981" lon="12.53517984797294"><ele>455.0</ele><time>2026-04-26T08:20:50.998Z</time></trkpt><trkpt lat="43.229265197745704" lon="12.535241129799616"><ele>455.0</ele><time>2026-04-26T08:20:52.998Z</time></trkpt><trkpt lat="43.22918841542885" lon="12.535314891204347"><ele>455.0</ele><time>2026-04-26T08:20:54.998Z</time></trkpt><trkpt lat="43.22917604218262" lon="12.535434061246836"><ele>455.0</ele><time>2026-04-26T08:20:56.998Z</time></trkpt><trkpt lat="43.22923027185133" lon="12.535545768443026"><ele>455.0</ele><time>2026-04-26T08:20:58.998Z</time></trkpt><trkpt lat="43.229316521785385" lon="12.53563508185848"><ele>457.0</ele><time>2026-04-26T08:21:00.998Z</time></trkpt><trkpt lat="43.229399340177245" lon="12.535742017421246"><ele>459.0</ele><time>2026-04-26T08:21:02.998Z</time></trkpt><trkpt lat="43.22948490464464" lon="12.535842041419793"><ele>461.0</ele><time>2026-04-26T08:21:04.998Z</time></trkpt><trkpt lat="43.229582267614674" lon="12.535895533049697"><ele>463.0</ele><time>2026-04-26T08:21:06.998Z</time></trkpt><trkpt lat="43.229679982354774" lon="12.535936322599392"><ele>465.0</ele><time>2026-04-26T08:21:08.998Z</time></trkpt><trkpt lat="43.22977690481142" lon="12.535964167255587"><ele>468.25</ele><time>2026-04-26T08:21:10.998Z</time></trkpt><trkpt lat="43.22988659344064" lon="12.535996050136182"><ele>471.5</ele><time>2026-04-26T08:21:12.998Z</time></trkpt><trkpt lat="43.230004199929226" lon="12.536042711801006"><ele>474.75</ele><time>2026-04-26T08:21:14.998Z</time></trkpt><trkpt lat="43.23010930035135" lon="12.536095259746634"><ele>478.0</ele><time>2026-04-26T08:21:16.998Z</time></trkpt><trkpt lat="43.2302236730735" lon="12.53612575892722"><ele>478.00000000000006</ele><time>2026-04-26T08:21:18.998Z</time></trkpt><trkpt lat="43.230287385736936" lon="12.536140876627503"><ele>478.0</ele><time>2026-04-26T08:21:19.998Z</time></trkpt><trkpt lat="43.23040857405423" lon="12.536164772514592"><ele>478.0</ele><time>2026-04-26T08:21:21.998Z</time></trkpt><trkpt lat="43.23047590741358" lon="12.53617640704343"><ele>478.0</ele><time>2026-04-26T08:21:22.998Z</time></trkpt><trkpt lat="43.230545652619725" lon="12.536186337575444"><ele>478.00000000000006</ele><time>2026-04-26T08:21:23.998Z</time></trkpt><trkpt lat="43.23061817133058" lon="12.536193807317918"><ele>478.0</ele><time>2026-04-26T08:21:24.998Z</time></trkpt><trkpt lat="43.23069300143927" lon="12.536195440439588"><ele>479.33333333333337</ele><time>2026-04-26T08:21:25.998Z</time></trkpt><trkpt lat="43.23077011891762" lon="12.536193350517342"><ele>480.6666666666667</ele><time>2026-04-26T08:21:26.998Z</time></trkpt><trkpt lat="43.23084785014341" lon="12.53619403187638"><ele>482.0</ele><time>2026-04-26T08:21:27.998Z</time></trkpt><trkpt lat="43.230924267034425" lon="12.536188690299875"><ele>483.33333333333337</ele><time>2026-04-26T08:21:28.998Z</time></trkpt><trkpt lat="43.231001504355184" lon="12.536171042762469"><ele>484.6666666666667</ele><time>2026-04-26T08:21:29.997Z</time></trkpt><trkpt lat="43.23107441821514" lon="12.536140115233035"><ele>486.0</ele><time>2026-04-26T08:21:30.997Z</time></trkpt><trkpt lat="43.23114308871776" lon="12.536103668790782"><ele>486.0</ele><time>2026-04-26T08:21:32Z</time></trkpt><trkpt lat="43.23120918566236" lon="12.536059352663685"><ele>486.0</ele><time>2026-04-26T08:21:33Z</time></trkpt><trkpt lat="43.23127380120443" lon="12.536006611514713"><ele>486.0</ele><time>2026-04-26T08:21:34Z</time></trkpt><trkpt lat="43.23132790504663" lon="12.535934250198228"><ele>486.0</ele><time>2026-04-26T08:21:35Z</time></trkpt><trkpt lat="43.231368568116864" lon="12.535844045615907"><ele>486.0</ele><time>2026-04-26T08:21:36Z</time></trkpt><trkpt lat="43.231393160964764" lon="12.535741045131882"><ele>486.0</ele><time>2026-04-26T08:21:37Z</time></trkpt><trkpt lat="43.231400278291574" lon="12.53563471236787"><ele>486.0</ele><time>2026-04-26T08:21:38Z</time></trkpt><trkpt lat="43.23140363930861" lon="12.535527015259033"><ele>486.0</ele><time>2026-04-26T08:21:39Z</time></trkpt><trkpt lat="43.23140503243691" lon="12.535422670640713"><ele>486.0</ele><time>2026-04-26T08:21:40Z</time></trkpt><trkpt lat="43.231406047065725" lon="12.535314542871275"><ele>486.0</ele><time>2026-04-26T08:21:41Z</time></trkpt><trkpt lat="43.23140686202529" lon="12.535204669260594"><ele>486.0</ele><time>2026-04-26T08:21:42Z</time></trkpt><trkpt lat="43.23141425791399" lon="12.535097617953404"><ele>486.0</ele><time>2026-04-26T08:21:43Z</time></trkpt><trkpt lat="43.23143113742139" lon="12.534989154524665"><ele>487.8333333333333</ele><time>2026-04-26T08:21:44Z</time></trkpt><trkpt lat="43.231455984276884" lon="12.534887440380587"><ele>489.66666666666663</ele><time>2026-04-26T08:21:45Z</time></trkpt><trkpt lat="43.231477053615464" lon="12.534796174245827"><ele>491.5</ele><time>2026-04-26T08:21:46Z</time></trkpt><trkpt lat="43.23148872330759" lon="12.534655835108396"><ele>493.3333333333333</ele><time>2026-04-26T08:21:48Z</time></trkpt><trkpt lat="43.231527719856686" lon="12.534583521494529"><ele>495.16666666666663</ele><time>2026-04-26T08:21:50Z</time></trkpt><trkpt lat="43.231595245985936" lon="12.53463676541814"><ele>497.0</ele><time>2026-04-26T08:21:53Z</time></trkpt><trkpt lat="43.23160209721436" lon="12.534736562996942"><ele>496.99999999999994</ele><time>2026-04-26T08:21:55Z</time></trkpt><trkpt lat="43.231564125993756" lon="12.534829120768844"><ele>497.0</ele><time>2026-04-26T08:21:57Z</time></trkpt><trkpt lat="43.23154966802875" lon="12.534938628938109"><ele>497.0</ele><time>2026-04-26T08:21:59Z</time></trkpt><trkpt lat="43.23154834342005" lon="12.535047505022575"><ele>497.0</ele><time>2026-04-26T08:22:01Z</time></trkpt><trkpt lat="43.23154325983798" lon="12.53515961880024"><ele>496.99999999999994</ele><time>2026-04-26T08:22:03Z</time></trkpt><trkpt lat="43.2315594722293" lon="12.535305872060864"><ele>497.0</ele><time>2026-04-26T08:22:04.999Z</time></trkpt><trkpt lat="43.2315754138609" lon="12.535458237338263"><ele>500.6</ele><time>2026-04-26T08:22:06.999Z</time></trkpt><trkpt lat="43.23158651657275" lon="12.53561560073383"><ele>504.20000000000005</ele><time>2026-04-26T08:22:08.999Z</time></trkpt><trkpt lat="43.23159818050365" lon="12.535761022169904"><ele>507.8</ele><time>2026-04-26T08:22:10.999Z</time></trkpt><trkpt lat="43.231612945169694" lon="12.535911706207035"><ele>511.4</ele><time>2026-04-26T08:22:12.999Z</time></trkpt><trkpt lat="43.23160389522699" lon="12.536060072470011"><ele>515.0</ele><time>2026-04-26T08:22:14.999Z</time></trkpt><trkpt lat="43.23156335484174" lon="12.536202596793103"><ele>514.4</ele><time>2026-04-26T08:22:16.999Z</time></trkpt><trkpt lat="43.23150584633859" lon="12.53634164298395"><ele>513.8</ele><time>2026-04-26T08:22:18.999Z</time></trkpt><trkpt lat="43.23141774798134" lon="12.536435937393398"><ele>513.2</ele><time>2026-04-26T08:22:20.999Z</time></trkpt><trkpt lat="43.23132180987542" lon="12.536493246324437"><ele>512.6</ele><time>2026-04-26T08:22:22.999Z</time></trkpt><trkpt lat="43.23121699459865" lon="12.536527107391233"><ele>512.0</ele><time>2026-04-26T08:22:24.999Z</time></trkpt><trkpt lat="43.23110094844802" lon="12.536564066729445"><ele>512.0</ele><time>2026-04-26T08:22:26.999Z</time></trkpt><trkpt lat="43.23099526752293" lon="12.53662752472987"><ele>512.0</ele><time>2026-04-26T08:22:28.999Z</time></trkpt><trkpt lat="43.23089213886174" lon="12.536673593079824"><ele>512.0</ele><time>2026-04-26T08:22:30.999Z</time></trkpt><trkpt lat="43.23081000980031" lon="12.536730678976197"><ele>512.0</ele><time>2026-04-26T08:22:32.999Z</time></trkpt><trkpt lat="43.23078598475164" lon="12.536849786944115"><ele>512.0</ele><time>2026-04-26T08:22:34.999Z</time></trkpt><trkpt lat="43.230850165076475" lon="12.536948150868055"><ele>512.0</ele><time>2026-04-26T08:22:36.999Z</time></trkpt><trkpt lat="43.230924562790726" lon="12.537037137006788"><ele>512.0</ele><time>2026-04-26T08:22:38.999Z</time></trkpt><trkpt lat="43.23099762103009" lon="12.537159541163554"><ele>512.0</ele><time>2026-04-26T08:22:40.999Z</time></trkpt><trkpt lat="43.231046768829245" lon="12.537299248151749"><ele>512.0</ele><time>2026-04-26T08:22:42.999Z</time></trkpt><trkpt lat="43.23108444878842" lon="12.537437319169346"><ele>512.0</ele><time>2026-04-26T08:22:44.999Z</time></trkpt><trkpt lat="43.23111743911436" lon="12.537579474557479"><ele>514.25</ele><time>2026-04-26T08:22:46.999Z</time></trkpt><trkpt lat="43.2311486587498" lon="12.537728593827296"><ele>516.5</ele><time>2026-04-26T08:22:48.999Z</time></trkpt><trkpt lat="43.231187696291244" lon="12.537874581144006"><ele>518.75</ele><time>2026-04-26T08:22:50.998Z</time></trkpt><trkpt lat="43.231244675781326" lon="12.538011482841151"><ele>521.0</ele><time>2026-04-26T08:22:52.998Z</time></trkpt><trkpt lat="43.231292369773286" lon="12.538161335681187"><ele>521.75</ele><time>2026-04-26T08:22:54.998Z</time></trkpt><trkpt lat="43.23132441620969" lon="12.538314903392155"><ele>522.5</ele><time>2026-04-26T08:22:56.998Z</time></trkpt><trkpt lat="43.23133029901343" lon="12.538479645023367"><ele>523.25</ele><time>2026-04-26T08:22:58.998Z</time></trkpt><trkpt lat="43.23131098469922" lon="12.538639071455034"><ele>524.0</ele><time>2026-04-26T08:23:00.998Z</time></trkpt><trkpt lat="43.23127262578096" lon="12.538795202240111"><ele>528.0</ele><time>2026-04-26T08:23:02.998Z</time></trkpt><trkpt lat="43.23123585484242" lon="12.538959112094984"><ele>532.0</ele><time>2026-04-26T08:23:04.998Z</time></trkpt><trkpt lat="43.231223162476375" lon="12.539044134837749"><ele>536.0</ele><time>2026-04-26T08:23:05.998Z</time></trkpt><trkpt lat="43.2312144713924" lon="12.539131285525821"><ele>540.0</ele><time>2026-04-26T08:23:06.998Z</time></trkpt><trkpt lat="43.23119669092443" lon="12.539280004069061"><ele>544.0</ele><time>2026-04-26T08:23:08.998Z</time></trkpt><trkpt lat="43.231160956891536" lon="12.53943563794143"><ele>544.0</ele><time>2026-04-26T08:23:10.998Z</time></trkpt><trkpt lat="43.23112706134149" lon="12.539515715332096"><ele>544.0</ele><time>2026-04-26T08:23:11.998Z</time></trkpt><trkpt lat="43.23107910400769" lon="12.539591098633792"><ele>544.0</ele><time>2026-04-26T08:23:12.998Z</time></trkpt><trkpt lat="43.23102297623723" lon="12.539658587206384"><ele>544.0</ele><time>2026-04-26T08:23:13.998Z</time></trkpt><trkpt lat="43.230958373978574" lon="12.539723406131342"><ele>544.0</ele><time>2026-04-26T08:23:14.998Z</time></trkpt><trkpt lat="43.230890948501646" lon="12.539784702547678"><ele>544.0</ele><time>2026-04-26T08:23:15.998Z</time></trkpt><trkpt lat="43.23082790014914" lon="12.539860835238397"><ele>546.0</ele><time>2026-04-26T08:23:16.998Z</time></trkpt><trkpt lat="43.23078037839724" lon="12.53995311403366"><ele>548.0</ele><time>2026-04-26T08:23:17.998Z</time></trkpt><trkpt lat="43.23075281746944" lon="12.540050281746357"><ele>550.0</ele><time>2026-04-26T08:23:18.998Z</time></trkpt><trkpt lat="43.230736807700936" lon="12.54014343324278"><ele>552.0</ele><time>2026-04-26T08:23:19.998Z</time></trkpt><trkpt lat="43.230689842278174" lon="12.540278127446209"><ele>554.0</ele><time>2026-04-26T08:23:21.998Z</time></trkpt><trkpt lat="43.23064418155467" lon="12.540339598670514"><ele>556.0</ele><time>2026-04-26T08:23:22.998Z</time></trkpt><trkpt lat="43.23058116140421" lon="12.540396224040224"><ele>558.6</ele><time>2026-04-26T08:23:23.998Z</time></trkpt><trkpt lat="43.230510225379795" lon="12.540466013356522"><ele>561.2</ele><time>2026-04-26T08:23:24.998Z</time></trkpt><trkpt lat="43.230446125527685" lon="12.540545551930482"><ele>563.8</ele><time>2026-04-26T08:23:25.998Z</time></trkpt><trkpt lat="43.230373439202125" lon="12.540632668898072"><ele>566.4</ele><time>2026-04-26T08:23:26.998Z</time></trkpt><trkpt lat="43.23030413335484" lon="12.540722545877012"><ele>569.0</ele><time>2026-04-26T08:23:27.998Z</time></trkpt><trkpt lat="43.230235154527676" lon="12.540806527143546"><ele>569.0</ele><time>2026-04-26T08:23:28.998Z</time></trkpt><trkpt lat="43.230167077866255" lon="12.540884114031913"><ele>569.0</ele><time>2026-04-26T08:23:29.998Z</time></trkpt><trkpt lat="43.230106236441344" lon="12.540950324025932"><ele>569.0</ele><time>2026-04-26T08:23:30.998Z</time></trkpt><trkpt lat="43.23004909701328" lon="12.541015908256414"><ele>569.0</ele><time>2026-04-26T08:23:31.998Z</time></trkpt><trkpt lat="43.229989657689174" lon="12.541090833204493"><ele>569.0</ele><time>2026-04-26T08:23:32.998Z</time></trkpt><trkpt lat="43.22992109303553" lon="12.541171658419756"><ele>569.0</ele><time>2026-04-26T08:23:33.998Z</time></trkpt><trkpt lat="43.22984881923391" lon="12.541254514959155"><ele>569.5</ele><time>2026-04-26T08:23:34.997Z</time></trkpt><trkpt lat="43.22978264402354" lon="12.541342216988205"><ele>570.0</ele><time>2026-04-26T08:23:35.997Z</time></trkpt><trkpt lat="43.22971562028582" lon="12.541434264949753"><ele>570.5</ele><time>2026-04-26T08:23:37Z</time></trkpt><trkpt lat="43.22965422917867" lon="12.54152215299121"><ele>571.0</ele><time>2026-04-26T08:23:38Z</time></trkpt><trkpt lat="43.22959820958526" lon="12.541602993532068"><ele>571.5</ele><time>2026-04-26T08:23:39Z</time></trkpt><trkpt lat="43.22953931569441" lon="12.541681063273073"><ele>572.0</ele><time>2026-04-26T08:23:40Z</time></trkpt><trkpt lat="43.229468783604396" lon="12.541747393118508"><ele>572.0</ele><time>2026-04-26T08:23:41Z</time></trkpt><trkpt lat="43.22939149618115" lon="12.541799585789583"><ele>572.0</ele><time>2026-04-26T08:23:42Z</time></trkpt><trkpt lat="43.229308616502834" lon="12.541844773150022"><ele>572.0</ele><time>2026-04-26T08:23:43Z</time></trkpt><trkpt lat="43.2292277841999" lon="12.541886919364948"><ele>572.0</ele><time>2026-04-26T08:23:44Z</time></trkpt><trkpt lat="43.229151054855926" lon="12.541942448614764"><ele>572.0</ele><time>2026-04-26T08:23:45Z</time></trkpt><trkpt lat="43.22907990343624" lon="12.541992837519102"><ele>572.0</ele><time>2026-04-26T08:23:46Z</time></trkpt><trkpt lat="43.22900434377889" lon="12.542030872927016"><ele>572.0</ele><time>2026-04-26T08:23:47Z</time></trkpt><trkpt lat="43.228923152661324" lon="12.54206057132866"><ele>572.0</ele><time>2026-04-26T08:23:48Z</time></trkpt><trkpt lat="43.228838060484826" lon="12.542081255472173"><ele>572.0</ele><time>2026-04-26T08:23:49Z</time></trkpt><trkpt lat="43.228759823181875" lon="12.542093187945547"><ele>572.0</ele><time>2026-04-26T08:23:50Z</time></trkpt><trkpt lat="43.22864168822143" lon="12.542117700302496"><ele>572.0</ele><time>2026-04-26T08:23:52Z</time></trkpt><trkpt lat="43.228531655151436" lon="12.54213555131317"><ele>572.0</ele><time>2026-04-26T08:23:54Z</time></trkpt><trkpt lat="43.228462980182044" lon="12.542087804465044"><ele>572.0</ele><time>2026-04-26T08:23:56Z</time></trkpt><trkpt lat="43.228398722757035" lon="12.542059977866586"><ele>572.0</ele><time>2026-04-26T08:23:58Z</time></trkpt><trkpt lat="43.22832503050013" lon="12.542133458523255"><ele>572.0</ele><time>2026-04-26T08:24:00Z</time></trkpt><trkpt lat="43.228263449347615" lon="12.54223271191781"><ele>572.0</ele><time>2026-04-26T08:24:02Z</time></trkpt><trkpt lat="43.228167370921945" lon="12.542299195271337"><ele>572.0</ele><time>2026-04-26T08:24:04Z</time></trkpt><trkpt lat="43.22812148098593" lon="12.542371030745013"><ele>572.2857142857142</ele><time>2026-04-26T08:24:05Z</time></trkpt><trkpt lat="43.22805830740837" lon="12.54242173189849"><ele>572.5714285714286</ele><time>2026-04-26T08:24:06Z</time></trkpt><trkpt lat="43.22799254933255" lon="12.542461322878111"><ele>572.8571428571429</ele><time>2026-04-26T08:24:07Z</time></trkpt><trkpt lat="43.227926574824" lon="12.542489105476987"><ele>573.1428571428571</ele><time>2026-04-26T08:24:07.999Z</time></trkpt><trkpt lat="43.22786236253283" lon="12.542509126832277"><ele>573.4285714285714</ele><time>2026-04-26T08:24:08.999Z</time></trkpt><trkpt lat="43.22779911119064" lon="12.542540397083075"><ele>573.7142857142857</ele><time>2026-04-26T08:24:09.999Z</time></trkpt><trkpt lat="43.22773696942286" lon="12.542592751271089"><ele>574.0</ele><time>2026-04-26T08:24:10.999Z</time></trkpt><trkpt lat="43.227679875404206" lon="12.542663662699404"><ele>574.0</ele><time>2026-04-26T08:24:11.999Z</time></trkpt><trkpt lat="43.22763010987927" lon="12.542737051631466"><ele>574.0</ele><time>2026-04-26T08:24:12.999Z</time></trkpt><trkpt lat="43.22758889803398" lon="12.542817522094932"><ele>574.0</ele><time>2026-04-26T08:24:13.999Z</time></trkpt><trkpt lat="43.227537033551066" lon="12.542897398660367"><ele>574.0</ele><time>2026-04-26T08:24:14.999Z</time></trkpt><trkpt lat="43.227475926548905" lon="12.542966517687645"><ele>574.0</ele><time>2026-04-26T08:24:15.999Z</time></trkpt><trkpt lat="43.22740670371945" lon="12.543026958290062"><ele>574.0</ele><time>2026-04-26T08:24:16.999Z</time></trkpt><trkpt lat="43.227334065271805" lon="12.543082015430768"><ele>575.4</ele><time>2026-04-26T08:24:17.999Z</time></trkpt><trkpt lat="43.227264278580414" lon="12.543142577029398"><ele>576.8</ele><time>2026-04-26T08:24:18.999Z</time></trkpt><trkpt lat="43.2271928979106" lon="12.543220807969298"><ele>578.2</ele><time>2026-04-26T08:24:19.999Z</time></trkpt><trkpt lat="43.22712719795933" lon="12.543310275673942"><ele>579.6</ele><time>2026-04-26T08:24:20.999Z</time></trkpt><trkpt lat="43.22706174713324" lon="12.543412596036218"><ele>581.0</ele><time>2026-04-26T08:24:21.999Z</time></trkpt><trkpt lat="43.22700923468699" lon="12.543512757252245"><ele>581.0</ele><time>2026-04-26T08:24:22.999Z</time></trkpt><trkpt lat="43.2269749142917" lon="12.543613685916403"><ele>581.0</ele><time>2026-04-26T08:24:23.999Z</time></trkpt><trkpt lat="43.226953607340846" lon="12.54370977781091"><ele>581.0</ele><time>2026-04-26T08:24:24.999Z</time></trkpt><trkpt lat="43.22694742776304" lon="12.543801640891335"><ele>581.0</ele><time>2026-04-26T08:24:25.999Z</time></trkpt><trkpt lat="43.22689995174113" lon="12.54391354142362"><ele>581.0</ele><time>2026-04-26T08:24:27.999Z</time></trkpt><trkpt lat="43.226837460275874" lon="12.543976396351988"><ele>581.0</ele><time>2026-04-26T08:24:29.999Z</time></trkpt><trkpt lat="43.226748048512306" lon="12.543995149168168"><ele>583.5</ele><time>2026-04-26T08:24:31.999Z</time></trkpt><trkpt lat="43.22662356156578" lon="12.544036689658936"><ele>586.0</ele><time>2026-04-26T08:24:33.999Z</time></trkpt><trkpt lat="43.226557191910324" lon="12.544063133825885"><ele>588.5</ele><time>2026-04-26T08:24:34.999Z</time></trkpt><trkpt lat="43.22649067791704" lon="12.544091366725285"><ele>591.0</ele><time>2026-04-26T08:24:35.999Z</time></trkpt><trkpt lat="43.22642593427497" lon="12.544123198414905"><ele>593.5</ele><time>2026-04-26T08:24:36.999Z</time></trkpt><trkpt lat="43.22632813755827" lon="12.54414971041734"><ele>596.0</ele><time>2026-04-26T08:24:38.999Z</time></trkpt><trkpt lat="43.22623637490464" lon="12.5441361650092"><ele>597.4</ele><time>2026-04-26T08:24:40.999Z</time></trkpt><trkpt lat="43.22614065807426" lon="12.544131495555998"><ele>598.8</ele><time>2026-04-26T08:24:42.999Z</time></trkpt><trkpt lat="43.22602808000287" lon="12.544138664889335"><ele>600.1999999999999</ele><time>2026-04-26T08:24:44.999Z</time></trkpt><trkpt lat="43.22593284490274" lon="12.544211352331955"><ele>601.6</ele><time>2026-04-26T08:24:46.999Z</time></trkpt><trkpt lat="43.22584643714611" lon="12.544301480305904"><ele>603.0</ele><time>2026-04-26T08:24:48.999Z</time></trkpt><trkpt lat="43.22576252374064" lon="12.544406317841087"><ele>603.0</ele><time>2026-04-26T08:24:50.999Z</time></trkpt><trkpt lat="43.225722610901094" lon="12.544481545152838"><ele>603.0</ele><time>2026-04-26T08:24:51.998Z</time></trkpt><trkpt lat="43.22564457900378" lon="12.544600476084335"><ele>603.0</ele><time>2026-04-26T08:24:53.998Z</time></trkpt><trkpt lat="43.22553205271089" lon="12.544648764831244"><ele>603.0</ele><time>2026-04-26T08:24:55.998Z</time></trkpt><trkpt lat="43.22542521919661" lon="12.544603508276138"><ele>603.0</ele><time>2026-04-26T08:24:57.998Z</time></trkpt><trkpt lat="43.225368353060205" lon="12.54455944782938"><ele>604.1428571428572</ele><time>2026-04-26T08:24:58.998Z</time></trkpt><trkpt lat="43.22530991877361" lon="12.544490593152299"><ele>605.2857142857142</ele><time>2026-04-26T08:24:59.998Z</time></trkpt><trkpt lat="43.2252403316006" lon="12.54446754117742"><ele>606.4285714285714</ele><time>2026-04-26T08:25:00.998Z</time></trkpt><trkpt lat="43.225176852260866" lon="12.544419641784774"><ele>607.5714285714287</ele><time>2026-04-26T08:25:01.998Z</time></trkpt><trkpt lat="43.22510898031331" lon="12.544380780800639"><ele>608.7142857142858</ele><time>2026-04-26T08:25:02.998Z</time></trkpt><trkpt lat="43.225042269125865" lon="12.544358022029549"><ele>609.8571428571429</ele><time>2026-04-26T08:25:03.998Z</time></trkpt><trkpt lat="43.224976891467676" lon="12.544308345247444"><ele>611.0</ele><time>2026-04-26T08:25:04.998Z</time></trkpt><trkpt lat="43.22490938258573" lon="12.544276831163545"><ele>611.0</ele><time>2026-04-26T08:25:05.998Z</time></trkpt><trkpt lat="43.22484683534161" lon="12.544247633933226"><ele>611.0</ele><time>2026-04-26T08:25:06.998Z</time></trkpt><trkpt lat="43.22477800794498" lon="12.544220224626311"><ele>611.0</ele><time>2026-04-26T08:25:07.998Z</time></trkpt><trkpt lat="43.22465279276245" lon="12.544165832509568"><ele>611.0</ele><time>2026-04-26T08:25:09.998Z</time></trkpt><trkpt lat="43.22458838580646" lon="12.544138779451625"><ele>611.0</ele><time>2026-04-26T08:25:10.998Z</time></trkpt><trkpt lat="43.224472702447954" lon="12.544091319580975"><ele>612.5</ele><time>2026-04-26T08:25:12.998Z</time></trkpt><trkpt lat="43.22440240521018" lon="12.544063700731947"><ele>614.0</ele><time>2026-04-26T08:25:13.998Z</time></trkpt><trkpt lat="43.22432970747992" lon="12.544037468899617"><ele>615.5</ele><time>2026-04-26T08:25:14.998Z</time></trkpt><trkpt lat="43.22424751073188" lon="12.544012903987909"><ele>617.0</ele><time>2026-04-26T08:25:15.998Z</time></trkpt><trkpt lat="43.22416833775313" lon="12.543992559107558"><ele>618.5</ele><time>2026-04-26T08:25:16.998Z</time></trkpt><trkpt lat="43.22409311354012" lon="12.543979903154192"><ele>620.0</ele><time>2026-04-26T08:25:17.998Z</time></trkpt><trkpt lat="43.22401366373152" lon="12.543971572773108"><ele>620.5</ele><time>2026-04-26T08:25:18.998Z</time></trkpt><trkpt lat="43.22392951564031" lon="12.543964936968816"><ele>621.0</ele><time>2026-04-26T08:25:19.998Z</time></trkpt><trkpt lat="43.22384299958459" lon="12.543965572952958"><ele>621.5</ele><time>2026-04-26T08:25:20.998Z</time></trkpt><trkpt lat="43.22376451804737" lon="12.543970614149988"><ele>622.0</ele><time>2026-04-26T08:25:21.998Z</time></trkpt><trkpt lat="43.2236856789372" lon="12.543978360089572"><ele>622.5</ele><time>2026-04-26T08:25:22.998Z</time></trkpt><trkpt lat="43.223604871818885" lon="12.54398778710914"><ele>623.0</ele><time>2026-04-26T08:25:23.998Z</time></trkpt><trkpt lat="43.22352527562154" lon="12.544000385212842"><ele>623.0</ele><time>2026-04-26T08:25:24.998Z</time></trkpt><trkpt lat="43.223444986827346" lon="12.544019649596494"><ele>623.0</ele><time>2026-04-26T08:25:25.998Z</time></trkpt><trkpt lat="43.22337135876792" lon="12.54405774751204"><ele>623.0</ele><time>2026-04-26T08:25:26.998Z</time></trkpt><trkpt lat="43.22329603815898" lon="12.544040830573639"><ele>623.0</ele><time>2026-04-26T08:25:27.998Z</time></trkpt><trkpt lat="43.22322453984839" lon="12.544030447974388"><ele>623.0</ele><time>2026-04-26T08:25:28.998Z</time></trkpt><trkpt lat="43.22315675292334" lon="12.544008565811753"><ele>623.0</ele><time>2026-04-26T08:25:29.998Z</time></trkpt><trkpt lat="43.223075046154214" lon="12.543974824873075"><ele>622.1666666666666</ele><time>2026-04-26T08:25:30.998Z</time></trkpt><trkpt lat="43.22299404564043" lon="12.543958653412664"><ele>621.3333333333333</ele><time>2026-04-26T08:25:31.998Z</time></trkpt><trkpt lat="43.22292709576727" lon="12.543910882088998"><ele>620.5</ele><time>2026-04-26T08:25:32.998Z</time></trkpt><trkpt lat="43.22286302310201" lon="12.543857826975175"><ele>619.6666666666666</ele><time>2026-04-26T08:25:33.998Z</time></trkpt><trkpt lat="43.22280762534701" lon="12.543797548390335"><ele>618.8333333333334</ele><time>2026-04-26T08:25:34.998Z</time></trkpt><trkpt lat="43.222752911598185" lon="12.54372839419601"><ele>618.0</ele><time>2026-04-26T08:25:35.998Z</time></trkpt><trkpt lat="43.22270012745353" lon="12.543654164401989"><ele>618.0000000000001</ele><time>2026-04-26T08:25:36.997Z</time></trkpt><trkpt lat="43.22265065983322" lon="12.543582898506775"><ele>618.0</ele><time>2026-04-26T08:25:37.997Z</time></trkpt><trkpt lat="43.22259524345664" lon="12.543506583201026"><ele>618.0</ele><time>2026-04-26T08:25:38.997Z</time></trkpt><trkpt lat="43.22255787275391" lon="12.54341574255933"><ele>618.0</ele><time>2026-04-26T08:25:39.997Z</time></trkpt><trkpt lat="43.222509323384465" lon="12.543340866187709"><ele>618.0</ele><time>2026-04-26T08:25:40.997Z</time></trkpt><trkpt lat="43.22248630567958" lon="12.543251277860346"><ele>618.0000000000001</ele><time>2026-04-26T08:25:41.997Z</time></trkpt><trkpt lat="43.222465637103326" lon="12.543163664788727"><ele>618.0</ele><time>2026-04-26T08:25:43Z</time></trkpt><trkpt lat="43.22243704179477" lon="12.543060532888838"><ele>618.0000000000001</ele><time>2026-04-26T08:25:44Z</time></trkpt><trkpt lat="43.22240666616936" lon="12.54296988757436"><ele>618.0</ele><time>2026-04-26T08:25:45Z</time></trkpt><trkpt lat="43.222369109462356" lon="12.542881020180275"><ele>618.0</ele><time>2026-04-26T08:25:46Z</time></trkpt><trkpt lat="43.22232379449701" lon="12.542794585449048"><ele>618.0</ele><time>2026-04-26T08:25:46.999Z</time></trkpt><trkpt lat="43.22227555889609" lon="12.542714637269224"><ele>618.0</ele><time>2026-04-26T08:25:47.999Z</time></trkpt><trkpt lat="43.22223023395036" lon="12.542639346373369"><ele>618.0000000000001</ele><time>2026-04-26T08:25:48.999Z</time></trkpt><trkpt lat="43.22217926887684" lon="12.54256632339203"><ele>618.0</ele><time>2026-04-26T08:25:49.999Z</time></trkpt><trkpt lat="43.2221237171208" lon="12.54249499654476"><ele>617.4</ele><time>2026-04-26T08:25:50.999Z</time></trkpt><trkpt lat="43.222065993447494" lon="12.54242732433545"><ele>616.8</ele><time>2026-04-26T08:25:51.999Z</time></trkpt><trkpt lat="43.22200657035108" lon="12.54236474876762"><ele>616.2</ele><time>2026-04-26T08:25:52.999Z</time></trkpt><trkpt lat="43.22195060554595" lon="12.54231763550259"><ele>615.6</ele><time>2026-04-26T08:25:53.999Z</time></trkpt><trkpt lat="43.221864054119024" lon="12.542272254089667"><ele>615.0</ele><time>2026-04-26T08:25:55.999Z</time></trkpt><trkpt lat="43.22184824631901" lon="12.54248368486238"><ele>615.0</ele><time>2026-04-26T08:26:00.999Z</time></trkpt><trkpt lat="43.22191122277272" lon="12.542571312115895"><ele>615.0</ele><time>2026-04-26T08:26:01.999Z</time></trkpt><trkpt lat="43.221965419173124" lon="12.54266913922303"><ele>615.0</ele><time>2026-04-26T08:26:02.999Z</time></trkpt><trkpt lat="43.22201700433691" lon="12.542766208608693"><ele>615.0</ele><time>2026-04-26T08:26:03.999Z</time></trkpt><trkpt lat="43.22207440405313" lon="12.542875103377236"><ele>615.0</ele><time>2026-04-26T08:26:04.999Z</time></trkpt><trkpt lat="43.222136501290805" lon="12.54299211116535"><ele>614.25</ele><time>2026-04-26T08:26:05.999Z</time></trkpt><trkpt lat="43.222199746938315" lon="12.543119574715915"><ele>613.5</ele><time>2026-04-26T08:26:06.999Z</time></trkpt><trkpt lat="43.222262384247735" lon="12.543255754378773"><ele>612.75</ele><time>2026-04-26T08:26:07.999Z</time></trkpt><trkpt lat="43.22232952664796" lon="12.543394159969127"><ele>612.0</ele><time>2026-04-26T08:26:08.999Z</time></trkpt><trkpt lat="43.22239708728718" lon="12.543536369918836"><ele>613.5</ele><time>2026-04-26T08:26:09.999Z</time></trkpt><trkpt lat="43.22246593042864" lon="12.543684336627136"><ele>615.0</ele><time>2026-04-26T08:26:10.999Z</time></trkpt><trkpt lat="43.22253159751315" lon="12.543838744780853"><ele>616.5</ele><time>2026-04-26T08:26:11.999Z</time></trkpt><trkpt lat="43.22258335164094" lon="12.543993978847135"><ele>618.0</ele><time>2026-04-26T08:26:12.999Z</time></trkpt><trkpt lat="43.22259873556066" lon="12.54415630100468"><ele>621.0</ele><time>2026-04-26T08:26:13.999Z</time></trkpt><trkpt lat="43.22257253089271" lon="12.544305489081788"><ele>624.0</ele><time>2026-04-26T08:26:14.999Z</time></trkpt><trkpt lat="43.22250863521387" lon="12.54443508504854"><ele>627.0</ele><time>2026-04-26T08:26:15.999Z</time></trkpt><trkpt lat="43.2224358884129" lon="12.544554141452377"><ele>630.0</ele><time>2026-04-26T08:26:16.999Z</time></trkpt><trkpt lat="43.22237866246196" lon="12.544686801958983"><ele>627.75</ele><time>2026-04-26T08:26:17.999Z</time></trkpt><trkpt lat="43.22233347535916" lon="12.544842061773643"><ele>625.5</ele><time>2026-04-26T08:26:18.999Z</time></trkpt><trkpt lat="43.222305998632244" lon="12.5450073623003"><ele>623.25</ele><time>2026-04-26T08:26:19.999Z</time></trkpt><trkpt lat="43.22230550267795" lon="12.545179871665187"><ele>621.0</ele><time>2026-04-26T08:26:20.999Z</time></trkpt><trkpt lat="43.222328902725764" lon="12.54535728701841"><ele>626.25</ele><time>2026-04-26T08:26:21.999Z</time></trkpt><trkpt lat="43.222375383799914" lon="12.545533274978995"><ele>631.5</ele><time>2026-04-26T08:26:22.999Z</time></trkpt><trkpt lat="43.222449473287256" lon="12.545701898745305"><ele>636.75</ele><time>2026-04-26T08:26:23.999Z</time></trkpt><trkpt lat="43.22253391413766" lon="12.545871232071027"><ele>642.0</ele><time>2026-04-26T08:26:24.999Z</time></trkpt><trkpt lat="43.222620937466914" lon="12.546048899967287"><ele>640.6666666666666</ele><time>2026-04-26T08:26:25.999Z</time></trkpt><trkpt lat="43.2227072517334" lon="12.546226640405688"><ele>639.3333333333333</ele><time>2026-04-26T08:26:26.999Z</time></trkpt><trkpt lat="43.222791265719096" lon="12.546407106654508"><ele>638.0</ele><time>2026-04-26T08:26:27.999Z</time></trkpt><trkpt lat="43.22286205516432" lon="12.546590848004653"><ele>638.0</ele><time>2026-04-26T08:26:28.999Z</time></trkpt><trkpt lat="43.2229029090132" lon="12.546791480571745"><ele>638.0</ele><time>2026-04-26T08:26:29.999Z</time></trkpt><trkpt lat="43.22291119789172" lon="12.546997230663186"><ele>638.0</ele><time>2026-04-26T08:26:30.999Z</time></trkpt><trkpt lat="43.222897416774494" lon="12.547200449476852"><ele>639.75</ele><time>2026-04-26T08:26:31.999Z</time></trkpt><trkpt lat="43.22288159777398" lon="12.547398524414508"><ele>641.5</ele><time>2026-04-26T08:26:32.999Z</time></trkpt><trkpt lat="43.2228697842841" lon="12.547595536095306"><ele>643.25</ele><time>2026-04-26T08:26:33.999Z</time></trkpt><trkpt lat="43.22285922169605" lon="12.547790888437595"><ele>645.0</ele><time>2026-04-26T08:26:34.999Z</time></trkpt><trkpt lat="43.22285796356798" lon="12.547984280363133"><ele>644.5</ele><time>2026-04-26T08:26:35.999Z</time></trkpt><trkpt lat="43.22286886422284" lon="12.548179216419165"><ele>644.0</ele><time>2026-04-26T08:26:36.999Z</time></trkpt><trkpt lat="43.22288991371318" lon="12.548374508485393"><ele>643.5</ele><time>2026-04-26T08:26:37.999Z</time></trkpt><trkpt lat="43.222926394704885" lon="12.548570449668077"><ele>643.0</ele><time>2026-04-26T08:26:38.999Z</time></trkpt><trkpt lat="43.22297524737212" lon="12.548767718769463"><ele>643.0</ele><time>2026-04-26T08:26:39.999Z</time></trkpt><trkpt lat="43.2230385419203" lon="12.548964599631983"><ele>643.0</ele><time>2026-04-26T08:26:40.999Z</time></trkpt><trkpt lat="43.22310659753072" lon="12.549155515861116"><ele>643.0</ele><time>2026-04-26T08:26:41.999Z</time></trkpt><trkpt lat="43.22317847282968" lon="12.549343007806904"><ele>648.6666666666667</ele><time>2026-04-26T08:26:42.999Z</time></trkpt><trkpt lat="43.22325363776873" lon="12.549534049046608"><ele>654.3333333333334</ele><time>2026-04-26T08:26:43.999Z</time></trkpt><trkpt lat="43.223328869424485" lon="12.549733892364015"><ele>660.0</ele><time>2026-04-26T08:26:44.999Z</time></trkpt><trkpt lat="43.22339793617618" lon="12.549941638614301"><ele>660.0</ele><time>2026-04-26T08:26:45.999Z</time></trkpt><trkpt lat="43.223453096635176" lon="12.550166678582208"><ele>660.0</ele><time>2026-04-26T08:26:46.999Z</time></trkpt><trkpt lat="43.223485329996656" lon="12.55040358673435"><ele>660.0</ele><time>2026-04-26T08:26:47.999Z</time></trkpt><trkpt lat="43.22350176477407" lon="12.55063814405877"><ele>659.75</ele><time>2026-04-26T08:26:48.999Z</time></trkpt><trkpt lat="43.223515373804304" lon="12.550857098883762"><ele>659.5</ele><time>2026-04-26T08:26:49.999Z</time></trkpt><trkpt lat="43.22353500377776" lon="12.551057469554431"><ele>659.25</ele><time>2026-04-26T08:26:50.999Z</time></trkpt><trkpt lat="43.22357220491108" lon="12.55123783818802"><ele>659.0</ele><time>2026-04-26T08:26:51.999Z</time></trkpt><trkpt lat="43.22362904381057" lon="12.551399464429831"><ele>658.0</ele><time>2026-04-26T08:26:52.999Z</time></trkpt><trkpt lat="43.22371078925019" lon="12.551536907153826"><ele>657.0</ele><time>2026-04-26T08:26:53.999Z</time></trkpt><trkpt lat="43.22381472545657" lon="12.551656811697017"><ele>656.0</ele><time>2026-04-26T08:26:54.999Z</time></trkpt><trkpt lat="43.223932806537626" lon="12.551761967961095"><ele>655.0</ele><time>2026-04-26T08:26:55.999Z</time></trkpt><trkpt lat="43.22405421049681" lon="12.551858545178083"><ele>653.0</ele><time>2026-04-26T08:26:56.999Z</time></trkpt><trkpt lat="43.224179472867675" lon="12.551960932497181"><ele>651.0</ele><time>2026-04-26T08:26:57.998Z</time></trkpt><trkpt lat="43.22430659420989" lon="12.552062947281385"><ele>649.0</ele><time>2026-04-26T08:26:58.998Z</time></trkpt><trkpt lat="43.224435511481545" lon="12.552170387010293"><ele>647.0</ele><time>2026-04-26T08:26:59.998Z</time></trkpt><trkpt lat="43.22456774034672" lon="12.552280297688908"><ele>647.0</ele><time>2026-04-26T08:27:00.998Z</time></trkpt><trkpt lat="43.22470045144459" lon="12.552391377104684"><ele>647.0</ele><time>2026-04-26T08:27:01.998Z</time></trkpt><trkpt lat="43.22483593834389" lon="12.552503492445556"><ele>647.0</ele><time>2026-04-26T08:27:02.998Z</time></trkpt><trkpt lat="43.224972710957836" lon="12.552617340849487"><ele>648.0</ele><time>2026-04-26T08:27:03.998Z</time></trkpt><trkpt lat="43.22511105665806" lon="12.552733916547693"><ele>649.0</ele><time>2026-04-26T08:27:04.998Z</time></trkpt><trkpt lat="43.22525503581038" lon="12.552841235900008"><ele>650.0</ele><time>2026-04-26T08:27:05.998Z</time></trkpt><trkpt lat="43.22540157309388" lon="12.552924907791288"><ele>650.0</ele><time>2026-04-26T08:27:06.998Z</time></trkpt><trkpt lat="43.22555100475761" lon="12.552977515678528"><ele>650.0</ele><time>2026-04-26T08:27:07.998Z</time></trkpt><trkpt lat="43.22570014928498" lon="12.552998738642065"><ele>650.0</ele><time>2026-04-26T08:27:08.998Z</time></trkpt><trkpt lat="43.225850289486786" lon="12.55298585922335"><ele>650.3333333333333</ele><time>2026-04-26T08:27:09.998Z</time></trkpt><trkpt lat="43.22600667950609" lon="12.552985711726043"><ele>650.6666666666666</ele><time>2026-04-26T08:27:10.998Z</time></trkpt><trkpt lat="43.22616256520189" lon="12.552938806759942"><ele>651.0</ele><time>2026-04-26T08:27:11.998Z</time></trkpt><trkpt lat="43.22632577763104" lon="12.552918398754738"><ele>650.0</ele><time>2026-04-26T08:27:12.998Z</time></trkpt><trkpt lat="43.22648960292357" lon="12.552894259000636"><ele>649.0</ele><time>2026-04-26T08:27:13.998Z</time></trkpt><trkpt lat="43.22665418851793" lon="12.5528759797052"><ele>648.0</ele><time>2026-04-26T08:27:14.998Z</time></trkpt><trkpt lat="43.22681909494835" lon="12.552858407446585"><ele>653.0</ele><time>2026-04-26T08:27:15.998Z</time></trkpt><trkpt lat="43.22698171376434" lon="12.552845401011272"><ele>658.0</ele><time>2026-04-26T08:27:16.998Z</time></trkpt><trkpt lat="43.22714718179358" lon="12.552859491540017"><ele>663.0</ele><time>2026-04-26T08:27:17.998Z</time></trkpt><trkpt lat="43.22731089032" lon="12.55285858002224"><ele>663.0</ele><time>2026-04-26T08:27:18.998Z</time></trkpt><trkpt lat="43.227475004114055" lon="12.55285924234261"><ele>663.0</ele><time>2026-04-26T08:27:19.998Z</time></trkpt><trkpt lat="43.227637012554055" lon="12.552860183151756"><ele>663.0</ele><time>2026-04-26T08:27:20.998Z</time></trkpt><trkpt lat="43.22779939408077" lon="12.552861663383432"><ele>663.0</ele><time>2026-04-26T08:27:21.998Z</time></trkpt><trkpt lat="43.22795999575217" lon="12.552863127390374"><ele>663.0</ele><time>2026-04-26T08:27:22.998Z</time></trkpt><trkpt lat="43.22812239612917" lon="12.552852060928824"><ele>663.0</ele><time>2026-04-26T08:27:23.998Z</time></trkpt><trkpt lat="43.22828066622185" lon="12.552890466501184"><ele>659.6666666666666</ele><time>2026-04-26T08:27:24.998Z</time></trkpt><trkpt lat="43.228435282202575" lon="12.55296117849046"><ele>656.3333333333333</ele><time>2026-04-26T08:27:25.998Z</time></trkpt><trkpt lat="43.22857516512503" lon="12.553070200806053"><ele>653.0</ele><time>2026-04-26T08:27:26.998Z</time></trkpt><trkpt lat="43.228703280726506" lon="12.553197938852076"><ele>653.0</ele><time>2026-04-26T08:27:27.998Z</time></trkpt><trkpt lat="43.22882978628593" lon="12.553331134550962"><ele>653.0</ele><time>2026-04-26T08:27:28.998Z</time></trkpt><trkpt lat="43.22895725586466" lon="12.553464918827485"><ele>653.0</ele><time>2026-04-26T08:27:29.998Z</time></trkpt><trkpt lat="43.229088180198154" lon="12.553598145567651"><ele>654.3333333333333</ele><time>2026-04-26T08:27:30.998Z</time></trkpt><trkpt lat="43.229221986725804" lon="12.553731083330634"><ele>655.6666666666666</ele><time>2026-04-26T08:27:31.998Z</time></trkpt><trkpt lat="43.229353732761986" lon="12.553865164119953"><ele>657.0</ele><time>2026-04-26T08:27:32.998Z</time></trkpt><trkpt lat="43.22947515200591" lon="12.55400982569719"><ele>657.0</ele><time>2026-04-26T08:27:33.998Z</time></trkpt><trkpt lat="43.22957484885738" lon="12.554160495834052"><ele>657.0</ele><time>2026-04-26T08:27:34.998Z</time></trkpt><trkpt lat="43.22964451989087" lon="12.554329871944816"><ele>657.0</ele><time>2026-04-26T08:27:35.998Z</time></trkpt><trkpt lat="43.22968064961001" lon="12.55450761909899"><ele>657.0</ele><time>2026-04-26T08:27:36.998Z</time></trkpt><trkpt lat="43.22968898913919" lon="12.554681760056106"><ele>656.75</ele><time>2026-04-26T08:27:37.998Z</time></trkpt><trkpt lat="43.229683345171864" lon="12.554855687082027"><ele>656.5</ele><time>2026-04-26T08:27:38.998Z</time></trkpt><trkpt lat="43.229659662070276" lon="12.555027528840952"><ele>656.25</ele><time>2026-04-26T08:27:39.998Z</time></trkpt><trkpt lat="43.22962903488961" lon="12.555203346505012"><ele>656.0</ele><time>2026-04-26T08:27:40.998Z</time></trkpt><trkpt lat="43.2296048903797" lon="12.5553885943653"><ele>656.0</ele><time>2026-04-26T08:27:41.998Z</time></trkpt><trkpt lat="43.22958164663728" lon="12.55557563082086"><ele>656.0</ele><time>2026-04-26T08:27:42.997Z</time></trkpt><trkpt lat="43.22955725237048" lon="12.555770487073932"><ele>656.0</ele><time>2026-04-26T08:27:43.997Z</time></trkpt><trkpt lat="43.229503642934944" lon="12.555952759825294"><ele>656.0</ele><time>2026-04-26T08:27:44.997Z</time></trkpt><trkpt lat="43.2294272177379" lon="12.556127001800286"><ele>658.5</ele><time>2026-04-26T08:27:45.997Z</time></trkpt><trkpt lat="43.22933648972874" lon="12.556286206046325"><ele>661.0</ele><time>2026-04-26T08:27:46.997Z</time></trkpt><trkpt lat="43.2292478376038" lon="12.556442489922384"><ele>663.5</ele><time>2026-04-26T08:27:48Z</time></trkpt><trkpt lat="43.22917534181063" lon="12.55659399370778"><ele>666.0</ele><time>2026-04-26T08:27:49Z</time></trkpt><trkpt lat="43.22912465688908" lon="12.55675493109845"><ele>666.0</ele><time>2026-04-26T08:27:50Z</time></trkpt><trkpt lat="43.22909738595225" lon="12.556922729077725"><ele>666.0</ele><time>2026-04-26T08:27:51Z</time></trkpt><trkpt lat="43.22908248502601" lon="12.557098385708906"><ele>666.0</ele><time>2026-04-26T08:27:52Z</time></trkpt><trkpt lat="43.229093194836636" lon="12.55727902823317"><ele>666.0</ele><time>2026-04-26T08:27:53Z</time></trkpt><trkpt lat="43.229131044938626" lon="12.557465286940799"><ele>665.0</ele><time>2026-04-26T08:27:54Z</time></trkpt><trkpt lat="43.229184334160735" lon="12.557653539493353"><ele>664.0</ele><time>2026-04-26T08:27:55Z</time></trkpt><trkpt lat="43.22923433975914" lon="12.5578418429157"><ele>663.0</ele><time>2026-04-26T08:27:56Z</time></trkpt><trkpt lat="43.229299560442875" lon="12.55802708427724"><ele>662.0</ele><time>2026-04-26T08:27:57Z</time></trkpt><trkpt lat="43.22938248218635" lon="12.558201423062489"><ele>661.25</ele><time>2026-04-26T08:27:58Z</time></trkpt><trkpt lat="43.2294913720259" lon="12.558357167468198"><ele>660.5</ele><time>2026-04-26T08:27:59Z</time></trkpt><trkpt lat="43.22961182085517" lon="12.558482880738206"><ele>659.75</ele><time>2026-04-26T08:28:00Z</time></trkpt><trkpt lat="43.229733580697925" lon="12.558566808639391"><ele>659.0</ele><time>2026-04-26T08:28:01Z</time></trkpt><trkpt lat="43.22984338526761" lon="12.558622175315884"><ele>658.8333333333333</ele><time>2026-04-26T08:28:02Z</time></trkpt><trkpt lat="43.229920991055" lon="12.558654324986641"><ele>658.6666666666666</ele><time>2026-04-26T08:28:03Z</time></trkpt><trkpt lat="43.229960833828905" lon="12.55874869352182"><ele>658.5</ele><time>2026-04-26T08:28:05Z</time></trkpt><trkpt lat="43.22988100096119" lon="12.558818132261683"><ele>658.3333333333334</ele><time>2026-04-26T08:28:07Z</time></trkpt><trkpt lat="43.22981705325546" lon="12.558865290828276"><ele>658.1666666666667</ele><time>2026-04-26T08:28:08Z</time></trkpt><trkpt lat="43.22973727239087" lon="12.558883884203851"><ele>658.0</ele><time>2026-04-26T08:28:09Z</time></trkpt><trkpt lat="43.22964607311464" lon="12.558921267485088"><ele>657.5</ele><time>2026-04-26T08:28:10Z</time></trkpt><trkpt lat="43.22954257949615" lon="12.55897582415438"><ele>657.0</ele><time>2026-04-26T08:28:11Z</time></trkpt><trkpt lat="43.22942882301542" lon="12.559031455382861"><ele>656.5</ele><time>2026-04-26T08:28:12Z</time></trkpt><trkpt lat="43.229315850757764" lon="12.55908768776433"><ele>656.0</ele><time>2026-04-26T08:28:13Z</time></trkpt><trkpt lat="43.22919351329033" lon="12.559143573391147"><ele>656.0</ele><time>2026-04-26T08:28:13.999Z</time></trkpt><trkpt lat="43.2290614620193" lon="12.559183063639468"><ele>656.0</ele><time>2026-04-26T08:28:14.999Z</time></trkpt><trkpt lat="43.22893892601222" lon="12.559207240265044"><ele>656.0</ele><time>2026-04-26T08:28:15.999Z</time></trkpt><trkpt lat="43.22882170882234" lon="12.559221128653272"><ele>656.0</ele><time>2026-04-26T08:28:16.999Z</time></trkpt><trkpt lat="43.22871161162801" lon="12.559216708188298"><ele>655.8</ele><time>2026-04-26T08:28:17.999Z</time></trkpt><trkpt lat="43.228611051293925" lon="12.559193364542491"><ele>655.5999999999999</ele><time>2026-04-26T08:28:18.999Z</time></trkpt><trkpt lat="43.228518848336435" lon="12.559166163592044"><ele>655.4</ele><time>2026-04-26T08:28:19.999Z</time></trkpt><trkpt lat="43.22842734544445" lon="12.559151614428401"><ele>655.2</ele><time>2026-04-26T08:28:20.999Z</time></trkpt><trkpt lat="43.228338166796824" lon="12.559159129899173"><ele>655.0</ele><time>2026-04-26T08:28:21.999Z</time></trkpt><trkpt lat="43.22825212289858" lon="12.559199157693799"><ele>655.0</ele><time>2026-04-26T08:28:22.999Z</time></trkpt><trkpt lat="43.22818079795869" lon="12.559274959534774"><ele>655.0</ele><time>2026-04-26T08:28:23.999Z</time></trkpt><trkpt lat="43.22811876282611" lon="12.559357017092337"><ele>655.0</ele><time>2026-04-26T08:28:24.999Z</time></trkpt><trkpt lat="43.22805357133861" lon="12.559440965311348"><ele>655.0</ele><time>2026-04-26T08:28:25.999Z</time></trkpt><trkpt lat="43.227989270702416" lon="12.559519278886953"><ele>655.0</ele><time>2026-04-26T08:28:26.999Z</time></trkpt><trkpt lat="43.22792756516979" lon="12.559593937403763"><ele>655.0</ele><time>2026-04-26T08:28:27.999Z</time></trkpt><trkpt lat="43.22787240011602" lon="12.559676208929687"><ele>654.0</ele><time>2026-04-26T08:28:28.999Z</time></trkpt><trkpt lat="43.22781589831572" lon="12.559765839572302"><ele>653.0</ele><time>2026-04-26T08:28:29.999Z</time></trkpt><trkpt lat="43.22775905539621" lon="12.559856623505022"><ele>652.0</ele><time>2026-04-26T08:28:30.999Z</time></trkpt><trkpt lat="43.227702947673905" lon="12.559950710894995"><ele>651.0</ele><time>2026-04-26T08:28:31.999Z</time></trkpt><trkpt lat="43.22765221584913" lon="12.560057887031338"><ele>650.0</ele><time>2026-04-26T08:28:32.999Z</time></trkpt><trkpt lat="43.22760076625754" lon="12.560180224814383"><ele>650.0</ele><time>2026-04-26T08:28:33.999Z</time></trkpt><trkpt lat="43.22755390880966" lon="12.560320579744008"><ele>650.0</ele><time>2026-04-26T08:28:34.999Z</time></trkpt><trkpt lat="43.227515152086085" lon="12.560479769714549"><ele>650.0</ele><time>2026-04-26T08:28:35.999Z</time></trkpt><trkpt lat="43.22748575912501" lon="12.560663438058898"><ele>650.0</ele><time>2026-04-26T08:28:36.999Z</time></trkpt><trkpt lat="43.227464070729006" lon="12.560843213915026"><ele>650.2</ele><time>2026-04-26T08:28:37.999Z</time></trkpt><trkpt lat="43.22744183542939" lon="12.561002595323014"><ele>650.4</ele><time>2026-04-26T08:28:38.999Z</time></trkpt><trkpt lat="43.22741905249621" lon="12.561151683746832"><ele>650.5999999999999</ele><time>2026-04-26T08:28:39.999Z</time></trkpt><trkpt lat="43.227397737709666" lon="12.561291834821944"><ele>650.8</ele><time>2026-04-26T08:28:40.999Z</time></trkpt><trkpt lat="43.227379022504024" lon="12.561431645755423"><ele>651.0</ele><time>2026-04-26T08:28:41.999Z</time></trkpt><trkpt lat="43.22736772696806" lon="12.561582600220975"><ele>649.5</ele><time>2026-04-26T08:28:42.999Z</time></trkpt><trkpt lat="43.2273573147453" lon="12.561747682228773"><ele>648.0</ele><time>2026-04-26T08:28:43.999Z</time></trkpt><trkpt lat="43.22734302161711" lon="12.56192175553255"><ele>646.5</ele><time>2026-04-26T08:28:44.999Z</time></trkpt><trkpt lat="43.227331651607315" lon="12.56209466771471"><ele>645.0</ele><time>2026-04-26T08:28:45.999Z</time></trkpt><trkpt lat="43.22732286977254" lon="12.562254608133003"><ele>644.8333333333334</ele><time>2026-04-26T08:28:46.999Z</time></trkpt><trkpt lat="43.2273197480126" lon="12.56239429508887"><ele>644.6666666666666</ele><time>2026-04-26T08:28:47.999Z</time></trkpt><trkpt lat="43.227316293115926" lon="12.562524437221187"><ele>644.5</ele><time>2026-04-26T08:28:48.999Z</time></trkpt><trkpt lat="43.227306069343456" lon="12.562638808952372"><ele>644.3333333333333</ele><time>2026-04-26T08:28:49.999Z</time></trkpt><trkpt lat="43.22727906665566" lon="12.562736007695959"><ele>644.1666666666666</ele><time>2026-04-26T08:28:50.999Z</time></trkpt><trkpt lat="43.22724902388308" lon="12.562818055570302"><ele>644.0</ele><time>2026-04-26T08:28:51.999Z</time></trkpt><trkpt lat="43.22721312386324" lon="12.562906704308098"><ele>645.6666666666666</ele><time>2026-04-26T08:28:52.999Z</time></trkpt><trkpt lat="43.227177736319454" lon="12.562998794563853"><ele>647.3333333333333</ele><time>2026-04-26T08:28:53.999Z</time></trkpt><trkpt lat="43.227142806974705" lon="12.563097316322988"><ele>649.0</ele><time>2026-04-26T08:28:54.999Z</time></trkpt><trkpt lat="43.22710422567176" lon="12.56320182422937"><ele>650.6666666666666</ele><time>2026-04-26T08:28:55.999Z</time></trkpt><trkpt lat="43.22705247506113" lon="12.563294211278578"><ele>652.3333333333334</ele><time>2026-04-26T08:28:56.999Z</time></trkpt><trkpt lat="43.226995231126914" lon="12.56338911809954"><ele>654.0</ele><time>2026-04-26T08:28:57.998Z</time></trkpt><trkpt lat="43.226940514949256" lon="12.5634752454941"><ele>654.0</ele><time>2026-04-26T08:28:58.998Z</time></trkpt><trkpt lat="43.2268932765543" lon="12.563554750034532"><ele>654.0</ele><time>2026-04-26T08:28:59.998Z</time></trkpt><trkpt lat="43.226852898304486" lon="12.56362274976919"><ele>654.0</ele><time>2026-04-26T08:29:00.998Z</time></trkpt><trkpt lat="43.22677728130155" lon="12.563748401129839"><ele>654.0</ele><time>2026-04-26T08:29:02.998Z</time></trkpt><trkpt lat="43.22669830875493" lon="12.563870628295668"><ele>654.0</ele><time>2026-04-26T08:29:04.998Z</time></trkpt><trkpt lat="43.22662763863122" lon="12.56400435083395"><ele>653.0</ele><time>2026-04-26T08:29:06.998Z</time></trkpt><trkpt lat="43.22656609175095" lon="12.564121409145699"><ele>652.0</ele><time>2026-04-26T08:29:08.998Z</time></trkpt><trkpt lat="43.22652270421142" lon="12.564198579492379"><ele>651.0</ele><time>2026-04-26T08:29:10.998Z</time></trkpt><trkpt lat="43.226466030587154" lon="12.564305260828762"><ele>650.0</ele><time>2026-04-26T08:29:13.998Z</time></trkpt><trkpt lat="43.22641192549749" lon="12.56439225920613"><ele>649.0</ele><time>2026-04-26T08:29:15.998Z</time></trkpt><trkpt lat="43.22631251252934" lon="12.56452606646415"><ele>647.4000000000001</ele><time>2026-04-26T08:29:17.998Z</time></trkpt><trkpt lat="43.226252023241564" lon="12.564606881732082"><ele>645.8</ele><time>2026-04-26T08:29:18.998Z</time></trkpt><trkpt lat="43.226186256321135" lon="12.564694391440929"><ele>644.2</ele><time>2026-04-26T08:29:19.998Z</time></trkpt><trkpt lat="43.22610996131692" lon="12.564791412179675"><ele>642.5999999999999</ele><time>2026-04-26T08:29:20.998Z</time></trkpt><trkpt lat="43.226031833107065" lon="12.564885296801297"><ele>641.0</ele><time>2026-04-26T08:29:21.998Z</time></trkpt><trkpt lat="43.22594662340175" lon="12.564967962356286"><ele>641.0</ele><time>2026-04-26T08:29:22.998Z</time></trkpt><trkpt lat="43.22585995342274" lon="12.565047796127061"><ele>641.0</ele><time>2026-04-26T08:29:23.998Z</time></trkpt><trkpt lat="43.225771767036164" lon="12.565129812738945"><ele>641.0</ele><time>2026-04-26T08:29:24.998Z</time></trkpt><trkpt lat="43.225684213887874" lon="12.565203229091932"><ele>641.0</ele><time>2026-04-26T08:29:25.998Z</time></trkpt><trkpt lat="43.225597073944996" lon="12.565267089555718"><ele>641.0</ele><time>2026-04-26T08:29:26.998Z</time></trkpt><trkpt lat="43.225510997149435" lon="12.565316811452394"><ele>640.5</ele><time>2026-04-26T08:29:27.998Z</time></trkpt><trkpt lat="43.22542820784432" lon="12.565350137358374"><ele>640.0</ele><time>2026-04-26T08:29:28.998Z</time></trkpt><trkpt lat="43.22534611793686" lon="12.565357657415243"><ele>639.5</ele><time>2026-04-26T08:29:29.998Z</time></trkpt><trkpt lat="43.22526904326134" lon="12.565320586949932"><ele>639.0</ele><time>2026-04-26T08:29:30.998Z</time></trkpt><trkpt lat="43.22520455708128" lon="12.56526027046285"><ele>638.5</ele><time>2026-04-26T08:29:31.998Z</time></trkpt><trkpt lat="43.22514289139653" lon="12.56518812749372"><ele>638.0</ele><time>2026-04-26T08:29:32.998Z</time></trkpt><trkpt lat="43.22507754705076" lon="12.56511815160044"><ele>638.0</ele><time>2026-04-26T08:29:33.998Z</time></trkpt><trkpt lat="43.22500690881388" lon="12.565048396228306"><ele>638.0</ele><time>2026-04-26T08:29:34.998Z</time></trkpt><trkpt lat="43.22493004966684" lon="12.564993084169684"><ele>638.0</ele><time>2026-04-26T08:29:35.998Z</time></trkpt><trkpt lat="43.22483888333574" lon="12.564959249778845"><ele>638.0</ele><time>2026-04-26T08:29:36.998Z</time></trkpt><trkpt lat="43.22474971523477" lon="12.564960679342498"><ele>638.0</ele><time>2026-04-26T08:29:37.998Z</time></trkpt><trkpt lat="43.22466454500134" lon="12.564993479298403"><ele>638.0</ele><time>2026-04-26T08:29:38.998Z</time></trkpt><trkpt lat="43.22458463106444" lon="12.56504176807626"><ele>636.6666666666666</ele><time>2026-04-26T08:29:39.998Z</time></trkpt><trkpt lat="43.22453478675279" lon="12.565162059415652"><ele>635.3333333333333</ele><time>2026-04-26T08:29:40.998Z</time></trkpt><trkpt lat="43.22448233688994" lon="12.56526563783641"><ele>634.0</ele><time>2026-04-26T08:29:41.998Z</time></trkpt><trkpt lat="43.22442818408674" lon="12.565360095490721"><ele>632.6666666666666</ele><time>2026-04-26T08:29:42.997Z</time></trkpt><trkpt lat="43.22439122974834" lon="12.565435381927157"><ele>631.3333333333334</ele><time>2026-04-26T08:29:43.997Z</time></trkpt><trkpt lat="43.22433279374902" lon="12.565538973510007"><ele>630.0</ele><time>2026-04-26T08:29:45.997Z</time></trkpt><trkpt lat="43.22429285697278" lon="12.565624266661757"><ele>629.1428571428571</ele><time>2026-04-26T08:29:47.997Z</time></trkpt><trkpt lat="43.2242579269619" lon="12.56569948140204"><ele>628.2857142857142</ele><time>2026-04-26T08:29:49.997Z</time></trkpt><trkpt lat="43.22422088648899" lon="12.565785686009313"><ele>627.4285714285714</ele><time>2026-04-26T08:30:00Z</time></trkpt><trkpt lat="43.22419124100624" lon="12.565884644552764"><ele>626.5714285714286</ele><time>2026-04-26T08:30:02Z</time></trkpt><trkpt lat="43.22415222139862" lon="12.565955773574236"><ele>625.7142857142857</ele><time>2026-04-26T08:30:03Z</time></trkpt><trkpt lat="43.22410960532201" lon="12.566039673283221"><ele>624.8571428571429</ele><time>2026-04-26T08:30:04Z</time></trkpt><trkpt lat="43.224062842457315" lon="12.56613169338564"><ele>624.0</ele><time>2026-04-26T08:30:05Z</time></trkpt><trkpt lat="43.22401150738079" lon="12.566227078328607"><ele>624.0</ele><time>2026-04-26T08:30:06Z</time></trkpt><trkpt lat="43.22395492352263" lon="12.56632040221266"><ele>624.0</ele><time>2026-04-26T08:30:07Z</time></trkpt><trkpt lat="43.223895615378076" lon="12.566414863178386"><ele>624.0</ele><time>2026-04-26T08:30:08Z</time></trkpt><trkpt lat="43.22383555698696" lon="12.566503396256126"><ele>624.0</ele><time>2026-04-26T08:30:09Z</time></trkpt><trkpt lat="43.22377092668571" lon="12.566592894788876"><ele>624.0</ele><time>2026-04-26T08:30:10Z</time></trkpt><trkpt lat="43.223699411912776" lon="12.566680135234732"><ele>624.0</ele><time>2026-04-26T08:30:11Z</time></trkpt><trkpt lat="43.22362391062594" lon="12.566767352805313"><ele>624.0</ele><time>2026-04-26T08:30:12Z</time></trkpt><trkpt lat="43.22354695135612" lon="12.566856245109093"><ele>624.0</ele><time>2026-04-26T08:30:13Z</time></trkpt><trkpt lat="43.22346848674614" lon="12.566951700524838"><ele>624.0</ele><time>2026-04-26T08:30:14Z</time></trkpt><trkpt lat="43.223390991558226" lon="12.567046025937357"><ele>624.0</ele><time>2026-04-26T08:30:15Z</time></trkpt><trkpt lat="43.22331526721268" lon="12.567133320159538"><ele>622.4</ele><time>2026-04-26T08:30:16Z</time></trkpt><trkpt lat="43.2232323674305" lon="12.56720840947415"><ele>620.8</ele><time>2026-04-26T08:30:17Z</time></trkpt><trkpt lat="43.22314478624118" lon="12.567262226269632"><ele>619.2</ele><time>2026-04-26T08:30:18Z</time></trkpt><trkpt lat="43.22304899783417" lon="12.567265754425323"><ele>617.6</ele><time>2026-04-26T08:30:18.999Z</time></trkpt><trkpt lat="43.22295254496674" lon="12.567237504932347"><ele>616.0</ele><time>2026-04-26T08:30:19.999Z</time></trkpt><trkpt lat="43.2228526566755" lon="12.567196416795747"><ele>615.8</ele><time>2026-04-26T08:30:20.999Z</time></trkpt><trkpt lat="43.222748575910664" lon="12.567155268158277"><ele>615.6</ele><time>2026-04-26T08:30:21.999Z</time></trkpt><trkpt lat="43.22264811228278" lon="12.567109514908338"><ele>615.4</ele><time>2026-04-26T08:30:22.999Z</time></trkpt><trkpt lat="43.22254995163639" lon="12.567062100552512"><ele>615.2</ele><time>2026-04-26T08:30:23.999Z</time></trkpt><trkpt lat="43.222465291289815" lon="12.566995049324996"><ele>615.0</ele><time>2026-04-26T08:30:24.999Z</time></trkpt><trkpt lat="43.22240170796581" lon="12.566900411590606"><ele>615.0</ele><time>2026-04-26T08:30:25.999Z</time></trkpt><trkpt lat="43.22235419099095" lon="12.566793745865313"><ele>615.0</ele><time>2026-04-26T08:30:26.999Z</time></trkpt><trkpt lat="43.222322705047986" lon="12.56667535031136"><ele>615.0</ele><time>2026-04-26T08:30:27.999Z</time></trkpt><trkpt lat="43.22234705049317" lon="12.566552202288236"><ele>615.0</ele><time>2026-04-26T08:30:28.999Z</time></trkpt><trkpt lat="43.22233237494412" lon="12.56645330587457"><ele>615.0</ele><time>2026-04-26T08:30:29.999Z</time></trkpt><trkpt lat="43.2223194388626" lon="12.566365649456833"><ele>615.0</ele><time>2026-04-26T08:30:30.999Z</time></trkpt><trkpt lat="43.22225631751893" lon="12.566300930433691"><ele>612.6</ele><time>2026-04-26T08:30:31.999Z</time></trkpt><trkpt lat="43.22217970104069" lon="12.566316473410128"><ele>610.2</ele><time>2026-04-26T08:30:32.999Z</time></trkpt><trkpt lat="43.22206077717671" lon="12.56630816570568"><ele>607.8</ele><time>2026-04-26T08:30:34.999Z</time></trkpt><trkpt lat="43.22194106454575" lon="12.56628883825474"><ele>605.4</ele><time>2026-04-26T08:30:36.999Z</time></trkpt><trkpt lat="43.22187043558509" lon="12.56626097964124"><ele>603.0</ele><time>2026-04-26T08:30:37.999Z</time></trkpt><trkpt lat="43.221792946924765" lon="12.566218268342736"><ele>602.8</ele><time>2026-04-26T08:30:38.999Z</time></trkpt><trkpt lat="43.22171070317086" lon="12.56616472119723"><ele>602.5999999999999</ele><time>2026-04-26T08:30:39.999Z</time></trkpt><trkpt lat="43.221621488456634" lon="12.56610474737915"><ele>602.4000000000001</ele><time>2026-04-26T08:30:40.999Z</time></trkpt><trkpt lat="43.22152942937349" lon="12.566049791860923"><ele>602.2</ele><time>2026-04-26T08:30:41.999Z</time></trkpt><trkpt lat="43.22143774427193" lon="12.565993706306712"><ele>602.0</ele><time>2026-04-26T08:30:42.999Z</time></trkpt><trkpt lat="43.22135168854974" lon="12.565950756215916"><ele>602.4</ele><time>2026-04-26T08:30:43.999Z</time></trkpt><trkpt lat="43.22126230958912" lon="12.565929782189892"><ele>602.8000000000001</ele><time>2026-04-26T08:30:44.999Z</time></trkpt><trkpt lat="43.22116989247213" lon="12.565934076237305"><ele>603.2</ele><time>2026-04-26T08:30:45.999Z</time></trkpt><trkpt lat="43.22107606988119" lon="12.56594965610088"><ele>603.6</ele><time>2026-04-26T08:30:46.999Z</time></trkpt><trkpt lat="43.22098172107496" lon="12.565967066038645"><ele>604.0</ele><time>2026-04-26T08:30:47.999Z</time></trkpt><trkpt lat="43.22088459897059" lon="12.565941594340996"><ele>604.0</ele><time>2026-04-26T08:30:48.999Z</time></trkpt><trkpt lat="43.220789320190725" lon="12.565911853824677"><ele>604.0</ele><time>2026-04-26T08:30:49.999Z</time></trkpt><trkpt lat="43.22068294320191" lon="12.565894471252138"><ele>604.0</ele><time>2026-04-26T08:30:50.999Z</time></trkpt><trkpt lat="43.22058069250289" lon="12.565851189310315"><ele>604.0</ele><time>2026-04-26T08:30:51.999Z</time></trkpt><trkpt lat="43.22047196658722" lon="12.565844137407439"><ele>604.0</ele><time>2026-04-26T08:30:52.999Z</time></trkpt><trkpt lat="43.22036243774569" lon="12.565811544744363"><ele>604.5</ele><time>2026-04-26T08:30:53.999Z</time></trkpt><trkpt lat="43.22025237410342" lon="12.565790491192496"><ele>605.0</ele><time>2026-04-26T08:30:54.999Z</time></trkpt><trkpt lat="43.220141510834054" lon="12.565763754763644"><ele>605.5</ele><time>2026-04-26T08:30:55.999Z</time></trkpt><trkpt lat="43.22002338986733" lon="12.56573922181975"><ele>606.0</ele><time>2026-04-26T08:30:56.999Z</time></trkpt><trkpt lat="43.21990476332648" lon="12.565711299522869"><ele>607.5</ele><time>2026-04-26T08:30:57.999Z</time></trkpt><trkpt lat="43.21978855717323" lon="12.565690991378975"><ele>609.0</ele><time>2026-04-26T08:30:58.999Z</time></trkpt><trkpt lat="43.21966549574316" lon="12.56569145820687"><ele>610.5</ele><time>2026-04-26T08:30:59.999Z</time></trkpt><trkpt lat="43.2195403141051" lon="12.565707311623706"><ele>612.0</ele><time>2026-04-26T08:31:00.999Z</time></trkpt><trkpt lat="43.21942010570423" lon="12.565739086503978"><ele>612.0</ele><time>2026-04-26T08:31:01.999Z</time></trkpt><trkpt lat="43.219318476170685" lon="12.565802058813913"><ele>612.0</ele><time>2026-04-26T08:31:02.998Z</time></trkpt><trkpt lat="43.219226390840355" lon="12.565896050219473"><ele>612.0</ele><time>2026-04-26T08:31:03.998Z</time></trkpt><trkpt lat="43.21914987307104" lon="12.566013879920758"><ele>612.0</ele><time>2026-04-26T08:31:04.998Z</time></trkpt><trkpt lat="43.21908738343838" lon="12.566147661329765"><ele>611.6</ele><time>2026-04-26T08:31:05.998Z</time></trkpt><trkpt lat="43.21903007004638" lon="12.566278849556955"><ele>611.2</ele><time>2026-04-26T08:31:06.998Z</time></trkpt><trkpt lat="43.21896803998101" lon="12.566375454135652"><ele>610.8</ele><time>2026-04-26T08:31:07.998Z</time></trkpt><trkpt lat="43.21888879957379" lon="12.566453248763702"><ele>610.4</ele><time>2026-04-26T08:31:08.998Z</time></trkpt><trkpt lat="43.21879594809503" lon="12.56649908149448"><ele>610.0</ele><time>2026-04-26T08:31:09.998Z</time></trkpt><trkpt lat="43.218700245234935" lon="12.56648419190885"><ele>611.4</ele><time>2026-04-26T08:31:10.998Z</time></trkpt><trkpt lat="43.21862921492871" lon="12.566378500172053"><ele>612.8</ele><time>2026-04-26T08:31:11.998Z</time></trkpt><trkpt lat="43.21856777503744" lon="12.566274154622489"><ele>614.2</ele><time>2026-04-26T08:31:12.998Z</time></trkpt><trkpt lat="43.2184923631097" lon="12.566180746291995"><ele>615.6</ele><time>2026-04-26T08:31:13.998Z</time></trkpt><trkpt lat="43.21842377793605" lon="12.566083139405412"><ele>617.0</ele><time>2026-04-26T08:31:14.998Z</time></trkpt><trkpt lat="43.21833227402689" lon="12.56601437553198"><ele>618.5</ele><time>2026-04-26T08:31:15.998Z</time></trkpt><trkpt lat="43.218225300684935" lon="12.565981706206486"><ele>620.0</ele><time>2026-04-26T08:31:16.998Z</time></trkpt><trkpt lat="43.2181127792135" lon="12.565994988378462"><ele>621.5</ele><time>2026-04-26T08:31:17.998Z</time></trkpt><trkpt lat="43.21800681202303" lon="12.566048688517897"><ele>623.0</ele><time>2026-04-26T08:31:18.998Z</time></trkpt><trkpt lat="43.217911584504556" lon="12.566135783308221"><ele>624.75</ele><time>2026-04-26T08:31:19.998Z</time></trkpt><trkpt lat="43.217828757990745" lon="12.566241386973426"><ele>626.5</ele><time>2026-04-26T08:31:20.998Z</time></trkpt><trkpt lat="43.217758420711554" lon="12.566364261710719"><ele>628.25</ele><time>2026-04-26T08:31:21.998Z</time></trkpt><trkpt lat="43.21768636660598" lon="12.566486082549051"><ele>630.0</ele><time>2026-04-26T08:31:22.998Z</time></trkpt><trkpt lat="43.21760534951452" lon="12.566595139516902"><ele>630.0</ele><time>2026-04-26T08:31:23.998Z</time></trkpt><trkpt lat="43.21751211720954" lon="12.566686046816134"><ele>630.0</ele><time>2026-04-26T08:31:24.998Z</time></trkpt><trkpt lat="43.21742350730363" lon="12.566757326086996"><ele>630.0</ele><time>2026-04-26T08:31:25.998Z</time></trkpt><trkpt lat="43.21733336549701" lon="12.566821882719402"><ele>630.0</ele><time>2026-04-26T08:31:26.998Z</time></trkpt><trkpt lat="43.21724082561546" lon="12.566866009867768"><ele>630.0</ele><time>2026-04-26T08:31:27.998Z</time></trkpt><trkpt lat="43.21714546298089" lon="12.566889967786766"><ele>631.8</ele><time>2026-04-26T08:31:28.998Z</time></trkpt><trkpt lat="43.21704723821783" lon="12.566909964926163"><ele>633.6</ele><time>2026-04-26T08:31:29.998Z</time></trkpt><trkpt lat="43.216945632021805" lon="12.566912875335225"><ele>635.4</ele><time>2026-04-26T08:31:30.998Z</time></trkpt><trkpt lat="43.21684414340318" lon="12.566886057145464"><ele>637.2</ele><time>2026-04-26T08:31:31.998Z</time></trkpt><trkpt lat="43.21677343443074" lon="12.566769614300565"><ele>639.0</ele><time>2026-04-26T08:31:32.998Z</time></trkpt><trkpt lat="43.21669569171682" lon="12.566659826493757"><ele>639.0</ele><time>2026-04-26T08:31:33.998Z</time></trkpt><trkpt lat="43.21660843994261" lon="12.566573553617644"><ele>639.0</ele><time>2026-04-26T08:31:34.998Z</time></trkpt><trkpt lat="43.21651402146407" lon="12.566519127987307"><ele>639.0</ele><time>2026-04-26T08:31:35.998Z</time></trkpt><trkpt lat="43.21640809067376" lon="12.566509881896957"><ele>639.0</ele><time>2026-04-26T08:31:36.998Z</time></trkpt><trkpt lat="43.21630747992469" lon="12.56656258137273"><ele>639.0</ele><time>2026-04-26T08:31:37.998Z</time></trkpt><trkpt lat="43.21621918764362" lon="12.566656640164833"><ele>641.0</ele><time>2026-04-26T08:31:38.998Z</time></trkpt><trkpt lat="43.2161320187438" lon="12.566760766318788"><ele>643.0</ele><time>2026-04-26T08:31:39.998Z</time></trkpt><trkpt lat="43.21603534277365" lon="12.56684860879452"><ele>645.0</ele><time>2026-04-26T08:31:40.998Z</time></trkpt><trkpt lat="43.21592918342656" lon="12.566913420390678"><ele>647.0</ele><time>2026-04-26T08:31:41.998Z</time></trkpt><trkpt lat="43.21582048187852" lon="12.566937707655214"><ele>647.0</ele><time>2026-04-26T08:31:42.998Z</time></trkpt><trkpt lat="43.21571860337415" lon="12.566909550221537"><ele>647.0</ele><time>2026-04-26T08:31:43.998Z</time></trkpt><trkpt lat="43.21563885927289" lon="12.566826161391411"><ele>647.0</ele><time>2026-04-26T08:31:44.998Z</time></trkpt><trkpt lat="43.21561560879339" lon="12.566686656369104"><ele>647.0</ele><time>2026-04-26T08:31:45.998Z</time></trkpt><trkpt lat="43.21556870730483" lon="12.56656963360373"><ele>647.0</ele><time>2026-04-26T08:31:46.998Z</time></trkpt><trkpt lat="43.21551565442864" lon="12.566448213439918"><ele>647.2</ele><time>2026-04-26T08:31:47.997Z</time></trkpt><trkpt lat="43.21548160551278" lon="12.566306932962451"><ele>647.4000000000001</ele><time>2026-04-26T08:31:48.997Z</time></trkpt><trkpt lat="43.21543495024794" lon="12.566177873107724"><ele>647.5999999999999</ele><time>2026-04-26T08:31:49.997Z</time></trkpt><trkpt lat="43.21537192627969" lon="12.566073863745405"><ele>647.8</ele><time>2026-04-26T08:31:50.997Z</time></trkpt><trkpt lat="43.21529023012289" lon="12.566002049709352"><ele>648.0</ele><time>2026-04-26T08:31:51.997Z</time></trkpt><trkpt lat="43.21519932580633" lon="12.565956007116233"><ele>648.0</ele><time>2026-04-26T08:31:52.997Z</time></trkpt><trkpt lat="43.21510201256326" lon="12.565920568286446"><ele>648.0</ele><time>2026-04-26T08:31:53.997Z</time></trkpt><trkpt lat="43.215005769575605" lon="12.565883694477401"><ele>648.0</ele><time>2026-04-26T08:31:54.997Z</time></trkpt><trkpt lat="43.21490646051982" lon="12.565863814935337"><ele>648.0</ele><time>2026-04-26T08:31:55.997Z</time></trkpt><trkpt lat="43.21480864172498" lon="12.565838861045316"><ele>648.0</ele><time>2026-04-26T08:31:56.997Z</time></trkpt><trkpt lat="43.21470902137961" lon="12.565801359234872"><ele>651.0</ele><time>2026-04-26T08:31:57.997Z</time></trkpt><trkpt lat="43.21460656617851" lon="12.565764654545799"><ele>654.0</ele><time>2026-04-26T08:31:58.997Z</time></trkpt><trkpt lat="43.21450245521673" lon="12.565726788044325"><ele>657.0</ele><time>2026-04-26T08:32:00Z</time></trkpt><trkpt lat="43.21439242217859" lon="12.565693976603809"><ele>660.0</ele><time>2026-04-26T08:32:01Z</time></trkpt><trkpt lat="43.214278872208624" lon="12.56567199138853"><ele>663.0</ele><time>2026-04-26T08:32:02Z</time></trkpt><trkpt lat="43.2141596666213" lon="12.565659616646835"><ele>663.0</ele><time>2026-04-26T08:32:03Z</time></trkpt><trkpt lat="43.21404931431573" lon="12.565623884957148"><ele>663.0</ele><time>2026-04-26T08:32:04Z</time></trkpt><trkpt lat="43.213956656535245" lon="12.565560155515794"><ele>663.0</ele><time>2026-04-26T08:32:05Z</time></trkpt><trkpt lat="43.21385673993483" lon="12.565497333297673"><ele>663.0</ele><time>2026-04-26T08:32:06Z</time></trkpt><trkpt lat="43.213751817839345" lon="12.56545807672294"><ele>663.0</ele><time>2026-04-26T08:32:07Z</time></trkpt><trkpt lat="43.21364822140804" lon="12.56542862382672"><ele>662.8</ele><time>2026-04-26T08:32:08Z</time></trkpt><trkpt lat="43.21354315659116" lon="12.565427489443852"><ele>662.5999999999999</ele><time>2026-04-26T08:32:09Z</time></trkpt><trkpt lat="43.213441233490514" lon="12.565452737419296"><ele>662.4000000000001</ele><time>2026-04-26T08:32:10Z</time></trkpt><trkpt lat="43.213343150855934" lon="12.565503988685974"><ele>662.2</ele><time>2026-04-26T08:32:11Z</time></trkpt><trkpt lat="43.21325219528359" lon="12.565599020124282"><ele>662.0</ele><time>2026-04-26T08:32:12Z</time></trkpt><trkpt lat="43.213162234568756" lon="12.565676345847649"><ele>659.2</ele><time>2026-04-26T08:32:13Z</time></trkpt><trkpt lat="43.21306946431634" lon="12.565734513855265"><ele>656.4000000000001</ele><time>2026-04-26T08:32:14Z</time></trkpt><trkpt lat="43.21297259929548" lon="12.565775437661776"><ele>653.5999999999999</ele><time>2026-04-26T08:32:15Z</time></trkpt><trkpt lat="43.212872634410466" lon="12.565788569910318"><ele>650.8</ele><time>2026-04-26T08:32:16Z</time></trkpt><trkpt lat="43.21276981196029" lon="12.565772405476773"><ele>648.0</ele><time>2026-04-26T08:32:17Z</time></trkpt><trkpt lat="43.212668678765" lon="12.565736676502642"><ele>648.0</ele><time>2026-04-26T08:32:18Z</time></trkpt><trkpt lat="43.212573748917656" lon="12.565705190755995"><ele>648.0</ele><time>2026-04-26T08:32:19Z</time></trkpt><trkpt lat="43.212480421189134" lon="12.565683339077772"><ele>648.0</ele><time>2026-04-26T08:32:20Z</time></trkpt><trkpt lat="43.212387914159265" lon="12.565679106118031"><ele>648.0</ele><time>2026-04-26T08:32:21Z</time></trkpt><trkpt lat="43.21229727505758" lon="12.56570372883452"><ele>648.0</ele><time>2026-04-26T08:32:22Z</time></trkpt><trkpt lat="43.21221555773113" lon="12.565768249862158"><ele>643.5</ele><time>2026-04-26T08:32:22.999Z</time></trkpt><trkpt lat="43.2121302725583" lon="12.565849747261508"><ele>639.0</ele><time>2026-04-26T08:32:23.999Z</time></trkpt><trkpt lat="43.21203701214473" lon="12.565937388425107"><ele>634.5</ele><time>2026-04-26T08:32:24.999Z</time></trkpt><trkpt lat="43.21193649375969" lon="12.566025057982419"><ele>630.0</ele><time>2026-04-26T08:32:25.999Z</time></trkpt><trkpt lat="43.21183534894165" lon="12.566110806085794"><ele>630.0</ele><time>2026-04-26T08:32:26.999Z</time></trkpt><trkpt lat="43.211731758154556" lon="12.566189420162072"><ele>630.0</ele><time>2026-04-26T08:32:27.999Z</time></trkpt><trkpt lat="43.21161889246317" lon="12.566251973733294"><ele>630.0</ele><time>2026-04-26T08:32:28.999Z</time></trkpt><trkpt lat="43.21150427025533" lon="12.566311536730034"><ele>630.0</ele><time>2026-04-26T08:32:29.999Z</time></trkpt><trkpt lat="43.21138865958914" lon="12.566365928969045"><ele>631.0</ele><time>2026-04-26T08:32:30.999Z</time></trkpt><trkpt lat="43.21127689563059" lon="12.566424124354782"><ele>632.0</ele><time>2026-04-26T08:32:31.999Z</time></trkpt><trkpt lat="43.21116884275767" lon="12.566475549888066"><ele>633.0</ele><time>2026-04-26T08:32:32.999Z</time></trkpt><trkpt lat="43.211053523850296" lon="12.566498653570772"><ele>634.0</ele><time>2026-04-26T08:32:33.999Z</time></trkpt><trkpt lat="43.21093579833475" lon="12.566480133623486"><ele>634.0</ele><time>2026-04-26T08:32:34.999Z</time></trkpt><trkpt lat="43.21082675761358" lon="12.566418295190694"><ele>634.0</ele><time>2026-04-26T08:32:35.999Z</time></trkpt><trkpt lat="43.21076300469268" lon="12.5662935194018"><ele>634.0</ele><time>2026-04-26T08:32:36.999Z</time></trkpt><trkpt lat="43.210694968224715" lon="12.56617727284736"><ele>634.0</ele><time>2026-04-26T08:32:37.999Z</time></trkpt><trkpt lat="43.210639042730435" lon="12.566042655054318"><ele>633.5</ele><time>2026-04-26T08:32:38.999Z</time></trkpt><trkpt lat="43.21058278320549" lon="12.565902162390174"><ele>633.0</ele><time>2026-04-26T08:32:39.999Z</time></trkpt><trkpt lat="43.21052553174474" lon="12.565750830996567"><ele>632.5</ele><time>2026-04-26T08:32:40.999Z</time></trkpt><trkpt lat="43.21047187634931" lon="12.565593369584127"><ele>632.0</ele><time>2026-04-26T08:32:41.999Z</time></trkpt><trkpt lat="43.210431172841226" lon="12.565432875233933"><ele>633.75</ele><time>2026-04-26T08:32:42.999Z</time></trkpt><trkpt lat="43.21040311769057" lon="12.565264768951304"><ele>635.5</ele><time>2026-04-26T08:32:43.999Z</time></trkpt><trkpt lat="43.21039331796429" lon="12.565092321904272"><ele>637.25</ele><time>2026-04-26T08:32:44.999Z</time></trkpt><trkpt lat="43.21039183946163" lon="12.564934116543176"><ele>639.0</ele><time>2026-04-26T08:32:45.999Z</time></trkpt><trkpt lat="43.21037913106031" lon="12.564803717159409"><ele>639.0</ele><time>2026-04-26T08:32:46.999Z</time></trkpt><trkpt lat="43.21035527666531" lon="12.564680328804057"><ele>639.0</ele><time>2026-04-26T08:32:47.999Z</time></trkpt><trkpt lat="43.21027104414604" lon="12.564608006467557"><ele>639.0</ele><time>2026-04-26T08:32:48.999Z</time></trkpt><trkpt lat="43.2101850356801" lon="12.564592114994474"><ele>639.0</ele><time>2026-04-26T08:32:49.999Z</time></trkpt><trkpt lat="43.21009970644141" lon="12.564632644139209"><ele>639.0</ele><time>2026-04-26T08:32:50.999Z</time></trkpt><trkpt lat="43.210013327878485" lon="12.564696553545623"><ele>639.0</ele><time>2026-04-26T08:32:51.999Z</time></trkpt><trkpt lat="43.209953751157514" lon="12.564828150605214"><ele>639.0</ele><time>2026-04-26T08:32:52.999Z</time></trkpt><trkpt lat="43.20987928080691" lon="12.564935613654054"><ele>639.0</ele><time>2026-04-26T08:32:53.999Z</time></trkpt><trkpt lat="43.20979649830948" lon="12.56503388619637"><ele>639.0</ele><time>2026-04-26T08:32:54.999Z</time></trkpt><trkpt lat="43.20970429082823" lon="12.5651259432969"><ele>639.0</ele><time>2026-04-26T08:32:55.999Z</time></trkpt><trkpt lat="43.20960532692513" lon="12.565216063609741"><ele>640.5</ele><time>2026-04-26T08:32:56.999Z</time></trkpt><trkpt lat="43.20950327914088" lon="12.565300686785326"><ele>642.0</ele><time>2026-04-26T08:32:57.999Z</time></trkpt><trkpt lat="43.20940517150588" lon="12.565381486012427"><ele>643.5</ele><time>2026-04-26T08:32:58.999Z</time></trkpt><trkpt lat="43.20930470248778" lon="12.56545414550259"><ele>645.0</ele><time>2026-04-26T08:32:59.999Z</time></trkpt><trkpt lat="43.209201187160524" lon="12.56551563186709"><ele>645.0</ele><time>2026-04-26T08:33:00.999Z</time></trkpt><trkpt lat="43.209096198569306" lon="12.565560665447396"><ele>645.0</ele><time>2026-04-26T08:33:01.999Z</time></trkpt><trkpt lat="43.20899042817769" lon="12.565583268877328"><ele>645.0</ele><time>2026-04-26T08:33:02.999Z</time></trkpt><trkpt lat="43.208880129892414" lon="12.565593287909948"><ele>645.0</ele><time>2026-04-26T08:33:03.999Z</time></trkpt><trkpt lat="43.2087677742425" lon="12.565604382377035"><ele>645.0</ele><time>2026-04-26T08:33:04.999Z</time></trkpt><trkpt lat="43.20865260844654" lon="12.565615142413572"><ele>645.75</ele><time>2026-04-26T08:33:05.999Z</time></trkpt><trkpt lat="43.208534318384736" lon="12.565615684635274"><ele>646.5</ele><time>2026-04-26T08:33:06.998Z</time></trkpt><trkpt lat="43.20841234920806" lon="12.565612049303867"><ele>647.25</ele><time>2026-04-26T08:33:07.998Z</time></trkpt><trkpt lat="43.20828824054813" lon="12.565602372204525"><ele>648.0</ele><time>2026-04-26T08:33:08.998Z</time></trkpt><trkpt lat="43.20816365099908" lon="12.565589784661828"><ele>647.5999999999999</ele><time>2026-04-26T08:33:09.998Z</time></trkpt><trkpt lat="43.20804344196908" lon="12.56557796778119"><ele>647.1999999999999</ele><time>2026-04-26T08:33:10.998Z</time></trkpt><trkpt lat="43.20793205312454" lon="12.565567094864718"><ele>646.8</ele><time>2026-04-26T08:33:11.998Z</time></trkpt><trkpt lat="43.207852667539164" lon="12.565556608232532"><ele>646.4</ele><time>2026-04-26T08:33:12.998Z</time></trkpt><trkpt lat="43.2077795795187" lon="12.565538441813333"><ele>646.0</ele><time>2026-04-26T08:33:14.998Z</time></trkpt><trkpt lat="43.20768746592405" lon="12.565529990557424"><ele>646.0</ele><time>2026-04-26T08:34:03.997Z</time></trkpt><trkpt lat="43.20760939854262" lon="12.565519160136551"><ele>646.0</ele><time>2026-04-26T08:34:04.997Z</time></trkpt><trkpt lat="43.20751325570649" lon="12.565508153083558"><ele>646.0</ele><time>2026-04-26T08:34:06Z</time></trkpt><trkpt lat="43.20741455856303" lon="12.565497899159304"><ele>646.0</ele><time>2026-04-26T08:34:07Z</time></trkpt><trkpt lat="43.207306147578" lon="12.565488350209762"><ele>646.0</ele><time>2026-04-26T08:34:08Z</time></trkpt><trkpt lat="43.20719493687598" lon="12.565473724528259"><ele>647.0</ele><time>2026-04-26T08:34:09Z</time></trkpt><trkpt lat="43.207082891031995" lon="12.565467558817835"><ele>648.0</ele><time>2026-04-26T08:34:10Z</time></trkpt><trkpt lat="43.206971554355576" lon="12.565464835972353"><ele>649.0</ele><time>2026-04-26T08:34:11Z</time></trkpt><trkpt lat="43.206867153057466" lon="12.565449985570734"><ele>650.0</ele><time>2026-04-26T08:34:12Z</time></trkpt><trkpt lat="43.20675594115684" lon="12.565440155420943"><ele>651.0</ele><time>2026-04-26T08:34:13Z</time></trkpt><trkpt lat="43.20664751697176" lon="12.56542977708071"><ele>651.0</ele><time>2026-04-26T08:34:14Z</time></trkpt><trkpt lat="43.206542132382936" lon="12.565422443422948"><ele>651.0</ele><time>2026-04-26T08:34:15Z</time></trkpt><trkpt lat="43.20643241009873" lon="12.565419106671655"><ele>651.0</ele><time>2026-04-26T08:34:16Z</time></trkpt><trkpt lat="43.206322044818755" lon="12.5654190601865"><ele>651.0</ele><time>2026-04-26T08:34:17Z</time></trkpt><trkpt lat="43.20620956192125" lon="12.565424360382178"><ele>651.0</ele><time>2026-04-26T08:34:18Z</time></trkpt><trkpt lat="43.20609398892617" lon="12.565437464079867"><ele>651.4</ele><time>2026-04-26T08:34:19Z</time></trkpt><trkpt lat="43.205979169218324" lon="12.565447191221603"><ele>651.8</ele><time>2026-04-26T08:34:20Z</time></trkpt><trkpt lat="43.20586772437432" lon="12.565451607858174"><ele>652.1999999999999</ele><time>2026-04-26T08:34:20.999Z</time></trkpt><trkpt lat="43.205756068885876" lon="12.565442988262081"><ele>652.5999999999999</ele><time>2026-04-26T08:34:21.999Z</time></trkpt><trkpt lat="43.20564833730575" lon="12.565423300420061"><ele>653.0</ele><time>2026-04-26T08:34:22.999Z</time></trkpt><trkpt lat="43.20554243488287" lon="12.565396385559923"><ele>650.75</ele><time>2026-04-26T08:34:23.999Z</time></trkpt><trkpt lat="43.20544013977537" lon="12.56536588832636"><ele>648.5</ele><time>2026-04-26T08:34:24.999Z</time></trkpt><trkpt lat="43.20533249196837" lon="12.56533361715702"><ele>646.25</ele><time>2026-04-26T08:34:25.999Z</time></trkpt><trkpt lat="43.20521981385221" lon="12.565299770974447"><ele>644.0</ele><time>2026-04-26T08:34:26.999Z</time></trkpt><trkpt lat="43.205100975561436" lon="12.565267888131817"><ele>644.0</ele><time>2026-04-26T08:34:27.999Z</time></trkpt><trkpt lat="43.20498116027002" lon="12.565237641657577"><ele>644.0</ele><time>2026-04-26T08:34:28.999Z</time></trkpt><trkpt lat="43.204861879040024" lon="12.565214229619398"><ele>644.0</ele><time>2026-04-26T08:34:29.999Z</time></trkpt><trkpt lat="43.204745741836426" lon="12.565188554061386"><ele>644.0</ele><time>2026-04-26T08:34:30.999Z</time></trkpt><trkpt lat="43.2046361652094" lon="12.565146558472204"><ele>641.5</ele><time>2026-04-26T08:34:31.999Z</time></trkpt><trkpt lat="43.20454117253226" lon="12.565060921096867"><ele>639.0</ele><time>2026-04-26T08:34:32.999Z</time></trkpt><trkpt lat="43.2044366223687" lon="12.564994887039338"><ele>636.5</ele><time>2026-04-26T08:34:33.999Z</time></trkpt><trkpt lat="43.204341004674625" lon="12.564904675349705"><ele>634.0</ele><time>2026-04-26T08:34:34.999Z</time></trkpt><trkpt lat="43.204241632480354" lon="12.564806838522884"><ele>634.0</ele><time>2026-04-26T08:34:35.999Z</time></trkpt><trkpt lat="43.204135449682134" lon="12.564710568107213"><ele>634.0</ele><time>2026-04-26T08:34:36.999Z</time></trkpt><trkpt lat="43.204019379850436" lon="12.56463717187076"><ele>634.0</ele><time>2026-04-26T08:34:37.999Z</time></trkpt><trkpt lat="43.203892610149616" lon="12.564596371219592"><ele>634.0</ele><time>2026-04-26T08:34:38.999Z</time></trkpt><trkpt lat="43.20375827470543" lon="12.564599104400273"><ele>629.5</ele><time>2026-04-26T08:34:39.999Z</time></trkpt><trkpt lat="43.203624146900566" lon="12.56460840683864"><ele>625.0</ele><time>2026-04-26T08:34:40.999Z</time></trkpt><trkpt lat="43.20349781747921" lon="12.564589749336797"><ele>620.5</ele><time>2026-04-26T08:34:41.999Z</time></trkpt><trkpt lat="43.203372208467066" lon="12.564597244604087"><ele>616.0</ele><time>2026-04-26T08:34:42.999Z</time></trkpt><trkpt lat="43.20326206571116" lon="12.56455742335199"><ele>613.8</ele><time>2026-04-26T08:34:43.999Z</time></trkpt><trkpt lat="43.203173640823685" lon="12.564500373415742"><ele>611.6</ele><time>2026-04-26T08:34:44.999Z</time></trkpt><trkpt lat="43.20311357119318" lon="12.564405734227522"><ele>609.4</ele><time>2026-04-26T08:34:45.999Z</time></trkpt><trkpt lat="43.203075730872456" lon="12.564273552178985"><ele>607.2</ele><time>2026-04-26T08:34:46.999Z</time></trkpt><trkpt lat="43.20307225215711" lon="12.564113349596337"><ele>605.0</ele><time>2026-04-26T08:34:47.999Z</time></trkpt><trkpt lat="43.20303835538037" lon="12.563951515611137"><ele>605.0</ele><time>2026-04-26T08:34:48.999Z</time></trkpt><trkpt lat="43.20301909245962" lon="12.563774112065145"><ele>605.0</ele><time>2026-04-26T08:34:49.999Z</time></trkpt><trkpt lat="43.20295021747572" lon="12.563611063275713"><ele>605.0</ele><time>2026-04-26T08:34:50.999Z</time></trkpt><trkpt lat="43.20284639662423" lon="12.563470987224951"><ele>605.0</ele><time>2026-04-26T08:34:51.999Z</time></trkpt><trkpt lat="43.20274114253066" lon="12.563329734894099"><ele>607.0</ele><time>2026-04-26T08:34:52.999Z</time></trkpt><trkpt lat="43.20262599462175" lon="12.563202061735447"><ele>609.0</ele><time>2026-04-26T08:34:53.999Z</time></trkpt><trkpt lat="43.2025124885143" lon="12.563079558152502"><ele>611.0</ele><time>2026-04-26T08:34:54.999Z</time></trkpt><trkpt lat="43.20240455242953" lon="12.562953202287028"><ele>613.0</ele><time>2026-04-26T08:34:55.999Z</time></trkpt><trkpt lat="43.202310979015785" lon="12.562812228153991"><ele>616.0</ele><time>2026-04-26T08:34:56.999Z</time></trkpt><trkpt lat="43.20221271584657" lon="12.562684093950832"><ele>619.0</ele><time>2026-04-26T08:34:57.999Z</time></trkpt><trkpt lat="43.20211914791564" lon="12.56254488560151"><ele>622.0</ele><time>2026-04-26T08:34:58.999Z</time></trkpt><trkpt lat="43.20202926346815" lon="12.562404047014907"><ele>625.0</ele><time>2026-04-26T08:34:59.999Z</time></trkpt><trkpt lat="43.20196023352455" lon="12.56224512308283"><ele>625.0</ele><time>2026-04-26T08:35:00.999Z</time></trkpt><trkpt lat="43.20189214767178" lon="12.562096163219271"><ele>625.0</ele><time>2026-04-26T08:35:01.999Z</time></trkpt><trkpt lat="43.20181214631508" lon="12.561981022398882"><ele>625.0</ele><time>2026-04-26T08:35:02.999Z</time></trkpt><trkpt lat="43.20170988306893" lon="12.5618859009393"><ele>625.0</ele><time>2026-04-26T08:35:03.999Z</time></trkpt><trkpt lat="43.201591910111574" lon="12.56183592300015"><ele>627.25</ele><time>2026-04-26T08:35:04.999Z</time></trkpt><trkpt lat="43.201470505224464" lon="12.561816648512204"><ele>629.5</ele><time>2026-04-26T08:35:05.999Z</time></trkpt><trkpt lat="43.20135171326809" lon="12.561796774706087"><ele>631.75</ele><time>2026-04-26T08:35:06.999Z</time></trkpt><trkpt lat="43.201241219487414" lon="12.561725642195922"><ele>634.0</ele><time>2026-04-26T08:35:07.998Z</time></trkpt><trkpt lat="43.201131070527026" lon="12.561628392110908"><ele>634.0</ele><time>2026-04-26T08:35:08.998Z</time></trkpt><trkpt lat="43.20101684478853" lon="12.561529750880542"><ele>634.0</ele><time>2026-04-26T08:35:09.998Z</time></trkpt><trkpt lat="43.20091431477815" lon="12.56141864747469"><ele>634.0</ele><time>2026-04-26T08:35:10.998Z</time></trkpt><trkpt lat="43.200816636117025" lon="12.561292952801008"><ele>634.0</ele><time>2026-04-26T08:35:11.998Z</time></trkpt><trkpt lat="43.20073903407218" lon="12.561143764378455"><ele>631.5</ele><time>2026-04-26T08:35:12.998Z</time></trkpt><trkpt lat="43.200682117409585" lon="12.560999531627791"><ele>629.0</ele><time>2026-04-26T08:35:13.998Z</time></trkpt><trkpt lat="43.20067515146689" lon="12.560875588523624"><ele>626.5</ele><time>2026-04-26T08:35:15.998Z</time></trkpt><trkpt lat="43.200514891337654" lon="12.560924396866078"><ele>624.0</ele><time>2026-04-26T08:35:19.998Z</time></trkpt><trkpt lat="43.200435275698396" lon="12.561053361733018"><ele>623.5714285714286</ele><time>2026-04-26T08:35:21.998Z</time></trkpt><trkpt lat="43.200387921327895" lon="12.561126394618336"><ele>623.1428571428571</ele><time>2026-04-26T08:35:22.998Z</time></trkpt><trkpt lat="43.20034691098379" lon="12.561196371639168"><ele>622.7142857142857</ele><time>2026-04-26T08:35:23.998Z</time></trkpt><trkpt lat="43.200303992480436" lon="12.561267994039154"><ele>622.2857142857142</ele><time>2026-04-26T08:35:24.998Z</time></trkpt><trkpt lat="43.20025648132647" lon="12.561333949504851"><ele>621.8571428571429</ele><time>2026-04-26T08:35:25.998Z</time></trkpt><trkpt lat="43.20019937661881" lon="12.561387966723311"><ele>621.4285714285713</ele><time>2026-04-26T08:35:26.998Z</time></trkpt><trkpt lat="43.20013996207979" lon="12.561434401176713"><ele>621.0</ele><time>2026-04-26T08:35:27.998Z</time></trkpt><trkpt lat="43.20007751598861" lon="12.561473685417235"><ele>622.3333333333334</ele><time>2026-04-26T08:35:28.998Z</time></trkpt><trkpt lat="43.200020484039676" lon="12.561515118038804"><ele>623.6666666666666</ele><time>2026-04-26T08:35:29.998Z</time></trkpt><trkpt lat="43.19990426006395" lon="12.561587679120947"><ele>625.0</ele><time>2026-04-26T08:35:31.998Z</time></trkpt><trkpt lat="43.199840885450726" lon="12.561615434805093"><ele>626.3333333333333</ele><time>2026-04-26T08:35:32.998Z</time></trkpt><trkpt lat="43.19978014086648" lon="12.561642139819513"><ele>627.6666666666666</ele><time>2026-04-26T08:35:33.998Z</time></trkpt><trkpt lat="43.19972247706445" lon="12.561678082958286"><ele>629.0</ele><time>2026-04-26T08:35:34.998Z</time></trkpt><trkpt lat="43.199650321415554" lon="12.561746250620164"><ele>629.0</ele><time>2026-04-26T08:35:36.998Z</time></trkpt><trkpt lat="43.19958974495377" lon="12.56183030187487"><ele>629.0</ele><time>2026-04-26T08:35:39.998Z</time></trkpt><trkpt lat="43.19953519580709" lon="12.561942172448816"><ele>629.0</ele><time>2026-04-26T08:35:41.998Z</time></trkpt><trkpt lat="43.19949827990376" lon="12.562022284841094"><ele>629.0</ele><time>2026-04-26T08:35:42.998Z</time></trkpt><trkpt lat="43.199458890489936" lon="12.562101988701627"><ele>629.0</ele><time>2026-04-26T08:35:43.998Z</time></trkpt><trkpt lat="43.199413698998676" lon="12.562182622745462"><ele>629.0</ele><time>2026-04-26T08:35:44.998Z</time></trkpt><trkpt lat="43.199372555797616" lon="12.562266815515441"><ele>629.3333333333333</ele><time>2026-04-26T08:35:45.998Z</time></trkpt><trkpt lat="43.199329635147045" lon="12.56235730043826"><ele>629.6666666666666</ele><time>2026-04-26T08:35:46.998Z</time></trkpt><trkpt lat="43.199282877206635" lon="12.562435987833588"><ele>630.0</ele><time>2026-04-26T08:35:47.998Z</time></trkpt><trkpt lat="43.19924343111938" lon="12.562515202855797"><ele>630.3333333333334</ele><time>2026-04-26T08:35:48.998Z</time></trkpt><trkpt lat="43.19917783107439" lon="12.562648638277448"><ele>630.6666666666667</ele><time>2026-04-26T08:35:50.998Z</time></trkpt><trkpt lat="43.199124015997945" lon="12.562770470464464"><ele>631.0</ele><time>2026-04-26T08:35:52.997Z</time></trkpt><trkpt lat="43.1990573162664" lon="12.562888033060297"><ele>629.3333333333334</ele><time>2026-04-26T08:35:54.997Z</time></trkpt><trkpt lat="43.19898896139406" lon="12.562998560179802"><ele>627.6666666666667</ele><time>2026-04-26T08:35:56.997Z</time></trkpt><trkpt lat="43.19890550140297" lon="12.563123620572709"><ele>626.0</ele><time>2026-04-26T08:35:58.997Z</time></trkpt><trkpt lat="43.19885453303857" lon="12.56319052629533"><ele>624.3333333333334</ele><time>2026-04-26T08:35:59.997Z</time></trkpt><trkpt lat="43.19880560937818" lon="12.563261528794193"><ele>622.6666666666666</ele><time>2026-04-26T08:36:00.997Z</time></trkpt><trkpt lat="43.198757592918035" lon="12.563334091845624"><ele>621.0</ele><time>2026-04-26T08:36:01.997Z</time></trkpt><trkpt lat="43.198713389028455" lon="12.563407044279451"><ele>621.0</ele><time>2026-04-26T08:36:02.997Z</time></trkpt><trkpt lat="43.19867291225554" lon="12.563481272670627"><ele>621.0</ele><time>2026-04-26T08:36:03.997Z</time></trkpt><trkpt lat="43.19863195505975" lon="12.563549515850386"><ele>621.0</ele><time>2026-04-26T08:36:04.997Z</time></trkpt><trkpt lat="43.19852555051772" lon="12.563633666177003"><ele>621.0</ele><time>2026-04-26T08:36:06.997Z</time></trkpt><trkpt lat="43.198460108931314" lon="12.563643757088286"><ele>621.0</ele><time>2026-04-26T08:36:07.997Z</time></trkpt><trkpt lat="43.198385461380646" lon="12.563612385746062"><ele>621.0</ele><time>2026-04-26T08:36:08.997Z</time></trkpt><trkpt lat="43.19831202254227" lon="12.563564637277842"><ele>621.0</ele><time>2026-04-26T08:36:09.997Z</time></trkpt><trkpt lat="43.19823759326094" lon="12.563508675303039"><ele>621.0</ele><time>2026-04-26T08:36:10.997Z</time></trkpt><trkpt lat="43.19815362431486" lon="12.563459800393282"><ele>621.0</ele><time>2026-04-26T08:36:11.999Z</time></trkpt><trkpt lat="43.19806723741676" lon="12.563420103677503"><ele>621.0</ele><time>2026-04-26T08:36:12.999Z</time></trkpt><trkpt lat="43.19797993086436" lon="12.563386858761335"><ele>621.0</ele><time>2026-04-26T08:36:13.999Z</time></trkpt><trkpt lat="43.197890293700546" lon="12.56335624970358"><ele>620.0</ele><time>2026-04-26T08:36:14.999Z</time></trkpt><trkpt lat="43.197801755834966" lon="12.56333252938366"><ele>619.0</ele><time>2026-04-26T08:36:15.999Z</time></trkpt><trkpt lat="43.19771263942191" lon="12.563326551182275"><ele>618.0</ele><time>2026-04-26T08:36:16.999Z</time></trkpt><trkpt lat="43.197619470990006" lon="12.563323303934636"><ele>617.0</ele><time>2026-04-26T08:36:17.999Z</time></trkpt><trkpt lat="43.197525972239085" lon="12.563328502635304"><ele>616.0</ele><time>2026-04-26T08:36:18.999Z</time></trkpt><trkpt lat="43.19742963384585" lon="12.563343928893326"><ele>614.6</ele><time>2026-04-26T08:36:19.999Z</time></trkpt><trkpt lat="43.19733545328401" lon="12.563371090580981"><ele>613.2</ele><time>2026-04-26T08:36:20.999Z</time></trkpt><trkpt lat="43.19724416982737" lon="12.56340354463154"><ele>611.8</ele><time>2026-04-26T08:36:21.999Z</time></trkpt><trkpt lat="43.197154824740295" lon="12.563431528578102"><ele>610.4</ele><time>2026-04-26T08:36:22.999Z</time></trkpt><trkpt lat="43.19707009861158" lon="12.563464343473424"><ele>609.0</ele><time>2026-04-26T08:36:23.999Z</time></trkpt><trkpt lat="43.19699218614302" lon="12.563501653114278"><ele>609.0</ele><time>2026-04-26T08:36:24.999Z</time></trkpt><trkpt lat="43.196916395716194" lon="12.563545885410091"><ele>609.0</ele><time>2026-04-26T08:36:25.999Z</time></trkpt><trkpt lat="43.19683597322062" lon="12.563585545977839"><ele>609.0</ele><time>2026-04-26T08:36:26.999Z</time></trkpt><trkpt lat="43.196750139729666" lon="12.563625250988796"><ele>609.0</ele><time>2026-04-26T08:36:27.999Z</time></trkpt><trkpt lat="43.19666331668114" lon="12.5636519904296"><ele>609.0</ele><time>2026-04-26T08:36:28.999Z</time></trkpt><trkpt lat="43.19657239095655" lon="12.563684401224371"><ele>609.0</ele><time>2026-04-26T08:36:29.999Z</time></trkpt><trkpt lat="43.19647545548469" lon="12.563712540164339"><ele>608.0</ele><time>2026-04-26T08:36:30.999Z</time></trkpt><trkpt lat="43.19637369973691" lon="12.563751660944938"><ele>607.0</ele><time>2026-04-26T08:36:31.999Z</time></trkpt><trkpt lat="43.19626799351722" lon="12.563803505385955"><ele>606.0</ele><time>2026-04-26T08:36:32.999Z</time></trkpt><trkpt lat="43.1961633440481" lon="12.563859630275745"><ele>605.0</ele><time>2026-04-26T08:36:33.999Z</time></trkpt><trkpt lat="43.19606571276398" lon="12.56391163068045"><ele>604.0</ele><time>2026-04-26T08:36:34.999Z</time></trkpt><trkpt lat="43.195958617838485" lon="12.563945505354118"><ele>604.0</ele><time>2026-04-26T08:36:35.999Z</time></trkpt><trkpt lat="43.19585299396307" lon="12.564009506932502"><ele>604.0</ele><time>2026-04-26T08:36:36.999Z</time></trkpt><trkpt lat="43.195746585200844" lon="12.56404059563176"><ele>604.0</ele><time>2026-04-26T08:36:37.999Z</time></trkpt><trkpt lat="43.19564396935115" lon="12.564070222226777"><ele>604.0</ele><time>2026-04-26T08:36:38.999Z</time></trkpt><trkpt lat="43.19554669768841" lon="12.564102456168058"><ele>604.0</ele><time>2026-04-26T08:36:39.999Z</time></trkpt><trkpt lat="43.195452431324746" lon="12.564132759786697"><ele>604.1666666666667</ele><time>2026-04-26T08:36:40.999Z</time></trkpt><trkpt lat="43.19536299025977" lon="12.56416517586186"><ele>604.3333333333334</ele><time>2026-04-26T08:36:41.999Z</time></trkpt><trkpt lat="43.19527724065527" lon="12.564208892574237"><ele>604.5</ele><time>2026-04-26T08:36:42.999Z</time></trkpt><trkpt lat="43.195202831013475" lon="12.564275593911153"><ele>604.6666666666666</ele><time>2026-04-26T08:36:43.999Z</time></trkpt><trkpt lat="43.195148416011214" lon="12.564369631878668"><ele>604.8333333333333</ele><time>2026-04-26T08:36:44.999Z</time></trkpt><trkpt lat="43.19510685744789" lon="12.564464953923336"><ele>605.0</ele><time>2026-04-26T08:36:45.999Z</time></trkpt><trkpt lat="43.19507691779682" lon="12.564565089601045"><ele>604.6666666666666</ele><time>2026-04-26T08:36:46.999Z</time></trkpt><trkpt lat="43.19503969401496" lon="12.564665591251558"><ele>604.3333333333333</ele><time>2026-04-26T08:36:47.999Z</time></trkpt><trkpt lat="43.195002680195515" lon="12.564767367467947"><ele>604.0</ele><time>2026-04-26T08:36:48.999Z</time></trkpt><trkpt lat="43.19496755634563" lon="12.564865555781546"><ele>603.6666666666666</ele><time>2026-04-26T08:36:49.999Z</time></trkpt><trkpt lat="43.194928934570775" lon="12.564963927193427"><ele>603.3333333333334</ele><time>2026-04-26T08:36:50.999Z</time></trkpt><trkpt lat="43.19488511219391" lon="12.565063292235275"><ele>603.0</ele><time>2026-04-26T08:36:51.999Z</time></trkpt><trkpt lat="43.19483437436068" lon="12.565162477606554"><ele>603.5</ele><time>2026-04-26T08:36:52.999Z</time></trkpt><trkpt lat="43.19478724050471" lon="12.565257053194363"><ele>604.0</ele><time>2026-04-26T08:36:53.999Z</time></trkpt><trkpt lat="43.19474645935866" lon="12.56536045694597"><ele>604.5</ele><time>2026-04-26T08:36:54.999Z</time></trkpt><trkpt lat="43.19470940010922" lon="12.565457760973388"><ele>605.0</ele><time>2026-04-26T08:36:55.999Z</time></trkpt><trkpt lat="43.19466485632286" lon="12.565554933427968"><ele>605.5</ele><time>2026-04-26T08:36:56.999Z</time></trkpt><trkpt lat="43.19463619498097" lon="12.565656345799592"><ele>606.0</ele><time>2026-04-26T08:36:57.999Z</time></trkpt><trkpt lat="43.194621247833716" lon="12.565757543356465"><ele>606.0</ele><time>2026-04-26T08:36:58.999Z</time></trkpt><trkpt lat="43.19460565380515" lon="12.565863201737148"><ele>606.0</ele><time>2026-04-26T08:36:59.999Z</time></trkpt><trkpt lat="43.19458510891334" lon="12.56597341136976"><ele>606.0</ele><time>2026-04-26T08:37:00.999Z</time></trkpt><trkpt lat="43.194558351605785" lon="12.566080204203448"><ele>606.0</ele><time>2026-04-26T08:37:01.999Z</time></trkpt><trkpt lat="43.19453235051099" lon="12.566199030850699"><ele>606.0</ele><time>2026-04-26T08:37:02.999Z</time></trkpt><trkpt lat="43.194509351894546" lon="12.566321354640916"><ele>606.0</ele><time>2026-04-26T08:37:03.999Z</time></trkpt><trkpt lat="43.19448583792238" lon="12.566447861998881"><ele>604.8</ele><time>2026-04-26T08:37:04.998Z</time></trkpt><trkpt lat="43.194459645843715" lon="12.566579171971519"><ele>603.6</ele><time>2026-04-26T08:37:05.998Z</time></trkpt><trkpt lat="43.19443236483791" lon="12.566712486540863"><ele>602.4</ele><time>2026-04-26T08:37:06.998Z</time></trkpt><trkpt lat="43.19440329922442" lon="12.566857541488071"><ele>601.2</ele><time>2026-04-26T08:37:07.998Z</time></trkpt><trkpt lat="43.19437424644553" lon="12.567006603652326"><ele>600.0</ele><time>2026-04-26T08:37:08.998Z</time></trkpt><trkpt lat="43.19434495196296" lon="12.56715430338016"><ele>598.6</ele><time>2026-04-26T08:37:09.998Z</time></trkpt><trkpt lat="43.1943251473413" lon="12.56729573208472"><ele>597.2</ele><time>2026-04-26T08:37:10.998Z</time></trkpt><trkpt lat="43.19430821049797" lon="12.567436528742766"><ele>595.8</ele><time>2026-04-26T08:37:11.998Z</time></trkpt><trkpt lat="43.19429279755218" lon="12.56757260862775"><ele>594.4</ele><time>2026-04-26T08:37:12.998Z</time></trkpt><trkpt lat="43.19427707498633" lon="12.567704698234545"><ele>593.0</ele><time>2026-04-26T08:37:13.998Z</time></trkpt><trkpt lat="43.19425788415911" lon="12.567831221036288"><ele>591.1999999999999</ele><time>2026-04-26T08:37:14.998Z</time></trkpt><trkpt lat="43.19422744489299" lon="12.567955613543228"><ele>589.4</ele><time>2026-04-26T08:37:15.998Z</time></trkpt><trkpt lat="43.19419488110562" lon="12.568080308453792"><ele>587.5999999999999</ele><time>2026-04-26T08:37:16.998Z</time></trkpt><trkpt lat="43.194153644728125" lon="12.568203350264923"><ele>585.8</ele><time>2026-04-26T08:37:17.998Z</time></trkpt><trkpt lat="43.19410701000521" lon="12.568325551434896"><ele>584.0</ele><time>2026-04-26T08:37:18.998Z</time></trkpt><trkpt lat="43.19406499267871" lon="12.568445573405912"><ele>584.0</ele><time>2026-04-26T08:37:19.998Z</time></trkpt><trkpt lat="43.19402441770598" lon="12.568559503258951"><ele>584.0</ele><time>2026-04-26T08:37:20.998Z</time></trkpt><trkpt lat="43.193980028505734" lon="12.568659597783022"><ele>584.0</ele><time>2026-04-26T08:37:21.998Z</time></trkpt><trkpt lat="43.19392554349574" lon="12.568751294526336"><ele>584.0</ele><time>2026-04-26T08:37:22.998Z</time></trkpt><trkpt lat="43.19386601121785" lon="12.568821451170487"><ele>584.0</ele><time>2026-04-26T08:37:23.998Z</time></trkpt><trkpt lat="43.193797474476874" lon="12.568888909021412"><ele>584.0</ele><time>2026-04-26T08:37:24.998Z</time></trkpt><trkpt lat="43.193722558730684" lon="12.568949822110756"><ele>582.1666666666666</ele><time>2026-04-26T08:37:25.998Z</time></trkpt><trkpt lat="43.19364396139656" lon="12.569009574501209"><ele>580.3333333333333</ele><time>2026-04-26T08:37:26.998Z</time></trkpt><trkpt lat="43.193567168945464" lon="12.569066782469205"><ele>578.5</ele><time>2026-04-26T08:37:27.998Z</time></trkpt><trkpt lat="43.19349151804846" lon="12.569118388317074"><ele>576.6666666666666</ele><time>2026-04-26T08:37:28.998Z</time></trkpt><trkpt lat="43.193424400388274" lon="12.569163456553719"><ele>574.8333333333334</ele><time>2026-04-26T08:37:29.998Z</time></trkpt><trkpt lat="43.19336651332439" lon="12.56921872413206"><ele>573.0</ele><time>2026-04-26T08:37:30.998Z</time></trkpt><trkpt lat="43.193314847078234" lon="12.56929735142799"><ele>573.0</ele><time>2026-04-26T08:37:31.998Z</time></trkpt><trkpt lat="43.193265849871544" lon="12.569384299661793"><ele>573.0</ele><time>2026-04-26T08:37:32.998Z</time></trkpt><trkpt lat="43.193281068032405" lon="12.569511114143209"><ele>573.0</ele><time>2026-04-26T08:37:33.998Z</time></trkpt><trkpt lat="43.193293293350145" lon="12.569617353495905"><ele>573.0</ele><time>2026-04-26T08:37:34.998Z</time></trkpt><trkpt lat="43.19331182467896" lon="12.569721589214609"><ele>573.0</ele><time>2026-04-26T08:37:35.998Z</time></trkpt><trkpt lat="43.193333156174894" lon="12.569841967286242"><ele>573.0</ele><time>2026-04-26T08:37:36.998Z</time></trkpt><trkpt lat="43.19335443567372" lon="12.569970387772154"><ele>572.3333333333334</ele><time>2026-04-26T08:37:37.998Z</time></trkpt><trkpt lat="43.19337039477974" lon="12.570096965644774"><ele>571.6666666666666</ele><time>2026-04-26T08:37:38.998Z</time></trkpt><trkpt lat="43.193383643982564" lon="12.570215625489823"><ele>571.0</ele><time>2026-04-26T08:37:39.998Z</time></trkpt><trkpt lat="43.19339330059087" lon="12.57032828619445"><ele>570.3333333333333</ele><time>2026-04-26T08:37:40.998Z</time></trkpt><trkpt lat="43.193400807325915" lon="12.570438944615521"><ele>569.6666666666666</ele><time>2026-04-26T08:37:41.998Z</time></trkpt><trkpt lat="43.193398551743556" lon="12.570543893080547"><ele>569.0</ele><time>2026-04-26T08:37:42.998Z</time></trkpt><trkpt lat="43.19337971047676" lon="12.570631705187328"><ele>566.2</ele><time>2026-04-26T08:37:43.998Z</time></trkpt><trkpt lat="43.19334918119658" lon="12.570711847414833"><ele>563.4</ele><time>2026-04-26T08:37:44.998Z</time></trkpt><trkpt lat="43.1932775217286" lon="12.570845740189437"><ele>560.6</ele><time>2026-04-26T08:37:46.998Z</time></trkpt><trkpt lat="43.193176087964765" lon="12.570924210373235"><ele>557.8</ele><time>2026-04-26T08:37:48.998Z</time></trkpt><trkpt lat="43.193072536114315" lon="12.57095382838126"><ele>555.0</ele><time>2026-04-26T08:37:50.997Z</time></trkpt><trkpt lat="43.19300410997308" lon="12.57097538432268"><ele>553.2</ele><time>2026-04-26T08:37:53.997Z</time></trkpt><trkpt lat="43.19293252122958" lon="12.570925643975842"><ele>551.4</ele><time>2026-04-26T08:38:53.999Z</time></trkpt><trkpt lat="43.19283199554301" lon="12.570904038713243"><ele>549.6</ele><time>2026-04-26T08:38:55.999Z</time></trkpt><trkpt lat="43.19273919738011" lon="12.570890721154724"><ele>547.8</ele><time>2026-04-26T08:38:57.999Z</time></trkpt><trkpt lat="43.1926423044841" lon="12.570876166465405"><ele>546.0</ele><time>2026-04-26T08:38:59.999Z</time></trkpt><trkpt lat="43.192531092766274" lon="12.570829025186734"><ele>546.0</ele><time>2026-04-26T08:39:01.999Z</time></trkpt><trkpt lat="43.192467242031235" lon="12.570809958270248"><ele>546.0</ele><time>2026-04-26T08:39:02.999Z</time></trkpt><trkpt lat="43.19240469102521" lon="12.570788324425553"><ele>546.0</ele><time>2026-04-26T08:39:03.999Z</time></trkpt><trkpt lat="43.192341784369" lon="12.570767260050662"><ele>546.0</ele><time>2026-04-26T08:39:04.999Z</time></trkpt><trkpt lat="43.192277458143856" lon="12.570752961603043"><ele>546.0</ele><time>2026-04-26T08:39:05.999Z</time></trkpt><trkpt lat="43.19215406121758" lon="12.570777979337775"><ele>546.0</ele><time>2026-04-26T08:39:07.999Z</time></trkpt><trkpt lat="43.192048487330204" lon="12.570812419203888"><ele>543.2</ele><time>2026-04-26T08:39:09.999Z</time></trkpt><trkpt lat="43.19195329185665" lon="12.570865316258677"><ele>540.4000000000001</ele><time>2026-04-26T08:39:11.999Z</time></trkpt><trkpt lat="43.19184918207666" lon="12.570920093742961"><ele>537.6</ele><time>2026-04-26T08:39:13.999Z</time></trkpt><trkpt lat="43.191763045906995" lon="12.57096387096042"><ele>534.8000000000001</ele><time>2026-04-26T08:39:15.999Z</time></trkpt><trkpt lat="43.19168543637698" lon="12.570996166332513"><ele>532.0</ele><time>2026-04-26T08:39:17.998Z</time></trkpt><trkpt lat="43.19160725753847" lon="12.570988198401148"><ele>532.0</ele><time>2026-04-26T08:39:19.998Z</time></trkpt><trkpt lat="43.19154159642768" lon="12.57092627681566"><ele>532.0</ele><time>2026-04-26T08:39:21.998Z</time></trkpt><trkpt lat="43.19156309915243" lon="12.570839364048254"><ele>532.0</ele><time>2026-04-26T08:39:22.998Z</time></trkpt><trkpt lat="43.191524221661005" lon="12.570744150934816"><ele>532.0</ele><time>2026-04-26T08:39:24.998Z</time></trkpt><trkpt lat="43.19143229592758" lon="12.570694726642708"><ele>532.0</ele><time>2026-04-26T08:39:26.998Z</time></trkpt><trkpt lat="43.191330270001586" lon="12.570758918773032"><ele>532.0</ele><time>2026-04-26T08:39:28.998Z</time></trkpt><trkpt lat="43.19124611889447" lon="12.570834372720128"><ele>527.0</ele><time>2026-04-26T08:39:30.998Z</time></trkpt><trkpt lat="43.191173247940036" lon="12.570938416735371"><ele>522.0</ele><time>2026-04-26T08:39:32.998Z</time></trkpt><trkpt lat="43.191142381181244" lon="12.57106750225427"><ele>517.0</ele><time>2026-04-26T08:39:34.998Z</time></trkpt><trkpt lat="43.19115053115727" lon="12.571222134507293"><ele>512.0</ele><time>2026-04-26T08:39:36.998Z</time></trkpt><trkpt lat="43.19116300838736" lon="12.571310837707292"><ele>507.0</ele><time>2026-04-26T08:39:37.998Z</time></trkpt><trkpt lat="43.19117766195061" lon="12.571400310071054"><ele>506.6</ele><time>2026-04-26T08:39:38.998Z</time></trkpt><trkpt lat="43.19118924251814" lon="12.571490104278116"><ele>506.20000000000005</ele><time>2026-04-26T08:39:39.998Z</time></trkpt><trkpt lat="43.19121303845512" lon="12.571663562659523"><ele>505.8</ele><time>2026-04-26T08:39:41.998Z</time></trkpt><trkpt lat="43.19121720897272" lon="12.571757131822737"><ele>505.4</ele><time>2026-04-26T08:39:42.998Z</time></trkpt><trkpt lat="43.191221534833616" lon="12.571925510433818"><ele>505.0</ele><time>2026-04-26T08:39:44.998Z</time></trkpt><trkpt lat="43.19119876172193" lon="12.572091903691103"><ele>503.83333333333337</ele><time>2026-04-26T08:39:46.998Z</time></trkpt><trkpt lat="43.19117427174883" lon="12.57218873847338"><ele>502.6666666666667</ele><time>2026-04-26T08:39:47.998Z</time></trkpt><trkpt lat="43.191153960940596" lon="12.572296985416857"><ele>501.5</ele><time>2026-04-26T08:39:48.998Z</time></trkpt><trkpt lat="43.19113203512002" lon="12.572404871820266"><ele>500.33333333333337</ele><time>2026-04-26T08:39:49.998Z</time></trkpt><trkpt lat="43.19111160638509" lon="12.572520951106682"><ele>499.1666666666667</ele><time>2026-04-26T08:39:50.998Z</time></trkpt><trkpt lat="43.191091158995256" lon="12.57262672620406"><ele>498.0</ele><time>2026-04-26T08:39:51.998Z</time></trkpt><trkpt lat="43.191072235346645" lon="12.57273415261356"><ele>498.0</ele><time>2026-04-26T08:39:52.998Z</time></trkpt><trkpt lat="43.19105509091907" lon="12.572837261810184"><ele>497.99999999999994</ele><time>2026-04-26T08:39:53.998Z</time></trkpt><trkpt lat="43.19103771288783" lon="12.572935265528464"><ele>498.0</ele><time>2026-04-26T08:39:54.998Z</time></trkpt><trkpt lat="43.19102201279834" lon="12.573034867760834"><ele>498.0</ele><time>2026-04-26T08:39:55.998Z</time></trkpt><trkpt lat="43.19101490976055" lon="12.57313156031661"><ele>497.99999999999994</ele><time>2026-04-26T08:39:56.998Z</time></trkpt><trkpt lat="43.19101127767027" lon="12.573226982085169"><ele>498.0</ele><time>2026-04-26T08:39:57.998Z</time></trkpt><trkpt lat="43.19101300356629" lon="12.573318673202653"><ele>498.0</ele><time>2026-04-26T08:39:58.998Z</time></trkpt><trkpt lat="43.19101786100096" lon="12.573406931784467"><ele>496.4285714285714</ele><time>2026-04-26T08:39:59.998Z</time></trkpt><trkpt lat="43.19101986657728" lon="12.573496172977231"><ele>494.8571428571428</ele><time>2026-04-26T08:40:00.998Z</time></trkpt><trkpt lat="43.19101861130063" lon="12.573589254432243"><ele>493.2857142857143</ele><time>2026-04-26T08:40:01.998Z</time></trkpt><trkpt lat="43.19101704071307" lon="12.573692210381372"><ele>491.71428571428567</ele><time>2026-04-26T08:40:02.998Z</time></trkpt><trkpt lat="43.19102029279135" lon="12.573797646828138"><ele>490.1428571428571</ele><time>2026-04-26T08:40:03.998Z</time></trkpt><trkpt lat="43.191028027297584" lon="12.573901927436962"><ele>488.57142857142856</ele><time>2026-04-26T08:40:04.998Z</time></trkpt><trkpt lat="43.191034921861764" lon="12.574007627265546"><ele>487.0</ele><time>2026-04-26T08:40:05.998Z</time></trkpt><trkpt lat="43.19104256571951" lon="12.574108844564947"><ele>487.00000000000006</ele><time>2026-04-26T08:40:06.998Z</time></trkpt><trkpt lat="43.19105408497977" lon="12.574208516104578"><ele>487.0</ele><time>2026-04-26T08:40:07.998Z</time></trkpt><trkpt lat="43.19106810309516" lon="12.57431500348725"><ele>487.0</ele><time>2026-04-26T08:40:08.998Z</time></trkpt><trkpt lat="43.19109052590038" lon="12.57443505240692"><ele>487.0</ele><time>2026-04-26T08:40:09.998Z</time></trkpt><trkpt lat="43.191117329196395" lon="12.574564022179661"><ele>487.00000000000006</ele><time>2026-04-26T08:40:10.998Z</time></trkpt><trkpt lat="43.19114762229321" lon="12.574687874671149"><ele>487.0</ele><time>2026-04-26T08:40:11.998Z</time></trkpt><trkpt lat="43.191183201679955" lon="12.574810727413132"><ele>486.8</ele><time>2026-04-26T08:40:12.998Z</time></trkpt><trkpt lat="43.19122287728571" lon="12.57493184747234"><ele>486.6</ele><time>2026-04-26T08:40:13.998Z</time></trkpt><trkpt lat="43.191265642964865" lon="12.575048031398724"><ele>486.40000000000003</ele><time>2026-04-26T08:40:14.998Z</time></trkpt><trkpt lat="43.19131443897448" lon="12.575158340438772"><ele>486.20000000000005</ele><time>2026-04-26T08:40:15.998Z</time></trkpt><trkpt lat="43.19136874309142" lon="12.575262604178606"><ele>486.0</ele><time>2026-04-26T08:40:16.998Z</time></trkpt><trkpt lat="43.191421037821826" lon="12.575364300568797"><ele>485.0</ele><time>2026-04-26T08:40:17.998Z</time></trkpt><trkpt lat="43.19146951095341" lon="12.575458863066915"><ele>484.0</ele><time>2026-04-26T08:40:18.998Z</time></trkpt><trkpt lat="43.19151979421892" lon="12.575550779592467"><ele>483.0</ele><time>2026-04-26T08:40:19.998Z</time></trkpt><trkpt lat="43.191568890924145" lon="12.575641972115147"><ele>482.0</ele><time>2026-04-26T08:40:20.998Z</time></trkpt><trkpt lat="43.19161144908199" lon="12.575722167534003"><ele>481.0</ele><time>2026-04-26T08:40:21.998Z</time></trkpt><trkpt lat="43.19163882980974" lon="12.575800581069082"><ele>480.0</ele><time>2026-04-26T08:40:23Z</time></trkpt><trkpt lat="43.19164908232835" lon="12.57595466094698"><ele>476.8333333333333</ele><time>2026-04-26T08:40:25Z</time></trkpt><trkpt lat="43.19159499817224" lon="12.576083733867351"><ele>473.66666666666663</ele><time>2026-04-26T08:40:27Z</time></trkpt><trkpt lat="43.19154058159999" lon="12.576151845110854"><ele>470.5</ele><time>2026-04-26T08:40:28Z</time></trkpt><trkpt lat="43.19148169562594" lon="12.576225707369938"><ele>467.3333333333333</ele><time>2026-04-26T08:40:29Z</time></trkpt><trkpt lat="43.191425398142435" lon="12.576307774227708"><ele>464.16666666666663</ele><time>2026-04-26T08:40:30Z</time></trkpt><trkpt lat="43.19137151063565" lon="12.576391418931582"><ele>461.0</ele><time>2026-04-26T08:40:31Z</time></trkpt><trkpt lat="43.191320423487376" lon="12.57647410770767"><ele>461.0</ele><time>2026-04-26T08:40:32Z</time></trkpt><trkpt lat="43.191269608465554" lon="12.576549873070595"><ele>461.00000000000006</ele><time>2026-04-26T08:40:33Z</time></trkpt><trkpt lat="43.19122317596474" lon="12.576629463882155"><ele>461.0</ele><time>2026-04-26T08:40:34Z</time></trkpt><trkpt lat="43.19118007078734" lon="12.576713681578015"><ele>461.0</ele><time>2026-04-26T08:40:35Z</time></trkpt><trkpt lat="43.191147824617005" lon="12.576798991879905"><ele>461.00000000000006</ele><time>2026-04-26T08:40:36Z</time></trkpt><trkpt lat="43.19112912933118" lon="12.576890779509908"><ele>461.0</ele><time>2026-04-26T08:40:37Z</time></trkpt><trkpt lat="43.191121200661165" lon="12.57698445355553"><ele>461.0</ele><time>2026-04-26T08:40:38Z</time></trkpt><trkpt lat="43.19111409467703" lon="12.577080068590591"><ele>458.0</ele><time>2026-04-26T08:40:39Z</time></trkpt><trkpt lat="43.19109964790478" lon="12.577175630740529"><ele>455.00000000000006</ele><time>2026-04-26T08:40:40Z</time></trkpt><trkpt lat="43.191075115571174" lon="12.57726977809542"><ele>452.0</ele><time>2026-04-26T08:40:41Z</time></trkpt><trkpt lat="43.191045756353255" lon="12.577363581297925"><ele>449.0</ele><time>2026-04-26T08:40:42Z</time></trkpt><trkpt lat="43.19101342293896" lon="12.577453213233822"><ele>446.0</ele><time>2026-04-26T08:40:43Z</time></trkpt><trkpt lat="43.190978400886976" lon="12.57753561965127"><ele>443.0</ele><time>2026-04-26T08:40:44Z</time></trkpt><trkpt lat="43.190940703472705" lon="12.577614928978731"><ele>440.0</ele><time>2026-04-26T08:40:45Z</time></trkpt><trkpt lat="43.19087918361327" lon="12.577737588443856"><ele>436.99999999999994</ele><time>2026-04-26T08:40:47Z</time></trkpt><trkpt lat="43.19088626939172" lon="12.57786438432015"><ele>434.0</ele><time>2026-04-26T08:40:49Z</time></trkpt><trkpt lat="43.1909710459741" lon="12.577973546071833"><ele>431.0</ele><time>2026-04-26T08:40:51Z</time></trkpt><trkpt lat="43.19102614918358" lon="12.578027444623494"><ele>428.0</ele><time>2026-04-26T08:40:52Z</time></trkpt><trkpt lat="43.191076991284355" lon="12.578081691843842"><ele>424.99999999999994</ele><time>2026-04-26T08:40:53Z</time></trkpt><trkpt lat="43.191118016801006" lon="12.578147566600197"><ele>422.0</ele><time>2026-04-26T08:40:54Z</time></trkpt><trkpt lat="43.191181318576085" lon="12.578291806284739"><ele>421.99999999999994</ele><time>2026-04-26T08:40:56Z</time></trkpt><trkpt lat="43.19119769917928" lon="12.578381883057256"><ele>422.0</ele><time>2026-04-26T08:40:57Z</time></trkpt><trkpt lat="43.19122203318489" lon="12.578482889586333"><ele>422.0</ele><time>2026-04-26T08:40:58Z</time></trkpt><trkpt lat="43.19124223330183" lon="12.578591698358055"><ele>422.0</ele><time>2026-04-26T08:40:59Z</time></trkpt><trkpt lat="43.19126360534384" lon="12.578695985899467"><ele>421.99999999999994</ele><time>2026-04-26T08:41:00Z</time></trkpt><trkpt lat="43.19129583295925" lon="12.578791576113908"><ele>422.0</ele><time>2026-04-26T08:41:01Z</time></trkpt><trkpt lat="43.19134124785216" lon="12.578875508094175"><ele>420.16666666666663</ele><time>2026-04-26T08:41:02Z</time></trkpt><trkpt lat="43.19139046248452" lon="12.578954050955197"><ele>418.3333333333333</ele><time>2026-04-26T08:41:03Z</time></trkpt><trkpt lat="43.19143947509786" lon="12.579034017664789"><ele>416.5</ele><time>2026-04-26T08:41:04Z</time></trkpt><trkpt lat="43.19149158954736" lon="12.579111643106492"><ele>414.66666666666663</ele><time>2026-04-26T08:41:05Z</time></trkpt><trkpt lat="43.19154853027045" lon="12.579189074787234"><ele>412.8333333333333</ele><time>2026-04-26T08:41:06Z</time></trkpt><trkpt lat="43.191604843475" lon="12.579264163189949"><ele>411.0</ele><time>2026-04-26T08:41:07Z</time></trkpt><trkpt lat="43.19165941377206" lon="12.57933773685717"><ele>411.0</ele><time>2026-04-26T08:41:08Z</time></trkpt><trkpt lat="43.19170570247264" lon="12.57940876575981"><ele>411.0</ele><time>2026-04-26T08:41:09Z</time></trkpt><trkpt lat="43.19175087569148" lon="12.579481199626427"><ele>411.0</ele><time>2026-04-26T08:41:10Z</time></trkpt><trkpt lat="43.191820594478244" lon="12.579603846555267"><ele>411.0</ele><time>2026-04-26T08:41:12Z</time></trkpt><trkpt lat="43.19188132585266" lon="12.579715270327895"><ele>411.0</ele><time>2026-04-26T08:41:14Z</time></trkpt><trkpt lat="43.191929423160985" lon="12.579851730130486"><ele>409.5</ele><time>2026-04-26T08:41:16Z</time></trkpt><trkpt lat="43.19192060365339" lon="12.580017849116864"><ele>408.0</ele><time>2026-04-26T08:41:18Z</time></trkpt><trkpt lat="43.19187909116841" lon="12.580167439685441"><ele>406.5</ele><time>2026-04-26T08:41:19.999Z</time></trkpt><trkpt lat="43.19186891940456" lon="12.58033083918382"><ele>405.0</ele><time>2026-04-26T08:41:21.999Z</time></trkpt><trkpt lat="43.191895221715704" lon="12.580489842302926"><ele>402.6666666666667</ele><time>2026-04-26T08:41:23.999Z</time></trkpt><trkpt lat="43.19192257938742" lon="12.580568276060232"><ele>400.33333333333337</ele><time>2026-04-26T08:41:24.999Z</time></trkpt><trkpt lat="43.191973294157414" lon="12.580724076981298"><ele>398.0</ele><time>2026-04-26T08:41:26.999Z</time></trkpt><trkpt lat="43.19200084929241" lon="12.580890849404062"><ele>395.6666666666667</ele><time>2026-04-26T08:41:28.999Z</time></trkpt><trkpt lat="43.19199365244965" lon="12.580980348012538"><ele>393.33333333333337</ele><time>2026-04-26T08:41:29.999Z</time></trkpt><trkpt lat="43.19196607286665" lon="12.58105824793972"><ele>391.0</ele><time>2026-04-26T08:41:30.999Z</time></trkpt><trkpt lat="43.191920416257744" lon="12.581127542831966"><ele>390.99999999999994</ele><time>2026-04-26T08:41:31.999Z</time></trkpt><trkpt lat="43.19186407680903" lon="12.581179024650954"><ele>391.0</ele><time>2026-04-26T08:41:32.999Z</time></trkpt><trkpt lat="43.19179903802934" lon="12.581207090778767"><ele>391.0</ele><time>2026-04-26T08:41:33.999Z</time></trkpt><trkpt lat="43.19172534399054" lon="12.581228416476296"><ele>391.0</ele><time>2026-04-26T08:41:34.999Z</time></trkpt><trkpt lat="43.19165376414193" lon="12.581251710612968"><ele>391.0</ele><time>2026-04-26T08:41:35.999Z</time></trkpt><trkpt lat="43.191573558032665" lon="12.581258241478748"><ele>390.99999999999994</ele><time>2026-04-26T08:41:36.999Z</time></trkpt><trkpt lat="43.19150217814659" lon="12.581297341555615"><ele>391.0</ele><time>2026-04-26T08:41:37.999Z</time></trkpt><trkpt lat="43.19142555871596" lon="12.581318034935654"><ele>387.00000000000006</ele><time>2026-04-26T08:41:38.999Z</time></trkpt><trkpt lat="43.1913505594417" lon="12.581335272208085"><ele>383.0</ele><time>2026-04-26T08:41:39.999Z</time></trkpt><trkpt lat="43.19127427491641" lon="12.58135350873692"><ele>379.0</ele><time>2026-04-26T08:41:40.999Z</time></trkpt><trkpt lat="43.191195013005824" lon="12.581375488041965"><ele>375.0</ele><time>2026-04-26T08:41:41.999Z</time></trkpt><trkpt lat="43.191116668971844" lon="12.581397187230273"><ele>371.0</ele><time>2026-04-26T08:41:42.999Z</time></trkpt><trkpt lat="43.19103442774724" lon="12.581410062477547"><ele>367.0</ele><time>2026-04-26T08:41:43.999Z</time></trkpt><trkpt lat="43.19095537036661" lon="12.581417375627016"><ele>367.0</ele><time>2026-04-26T08:41:44.999Z</time></trkpt><trkpt lat="43.190879891992616" lon="12.581422068586754"><ele>367.0</ele><time>2026-04-26T08:41:45.999Z</time></trkpt><trkpt lat="43.19081147942485" lon="12.581445267822463"><ele>367.0</ele><time>2026-04-26T08:41:46.999Z</time></trkpt><trkpt lat="43.19074477056236" lon="12.581478189389191"><ele>367.0</ele><time>2026-04-26T08:41:47.999Z</time></trkpt><trkpt lat="43.19068050810343" lon="12.581510517984132"><ele>367.0</ele><time>2026-04-26T08:41:48.999Z</time></trkpt><trkpt lat="43.19061847298828" lon="12.581558360393448"><ele>367.0</ele><time>2026-04-26T08:41:49.999Z</time></trkpt><trkpt lat="43.19056074999753" lon="12.581610268077437"><ele>367.0</ele><time>2026-04-26T08:41:50.999Z</time></trkpt><trkpt lat="43.19050464296633" lon="12.581666296205997"><ele>364.85714285714283</ele><time>2026-04-26T08:41:51.999Z</time></trkpt><trkpt lat="43.190448535142984" lon="12.581719982004776"><ele>362.7142857142857</ele><time>2026-04-26T08:41:52.999Z</time></trkpt><trkpt lat="43.19038887143582" lon="12.581764867124383"><ele>360.57142857142856</ele><time>2026-04-26T08:41:53.999Z</time></trkpt><trkpt lat="43.190332851201624" lon="12.581810636942329"><ele>358.42857142857144</ele><time>2026-04-26T08:41:54.999Z</time></trkpt><trkpt lat="43.1902432277819" lon="12.581850569115268"><ele>356.2857142857143</ele><time>2026-04-26T08:41:56.999Z</time></trkpt><trkpt lat="43.190177469434666" lon="12.58180952897336"><ele>354.14285714285717</ele><time>2026-04-26T08:41:58.999Z</time></trkpt><trkpt lat="43.19017802169441" lon="12.581699681911678"><ele>352.0</ele><time>2026-04-26T08:42:00.999Z</time></trkpt><trkpt lat="43.190208762380244" lon="12.58156941278168"><ele>352.0</ele><time>2026-04-26T08:42:02.999Z</time></trkpt><trkpt lat="43.1902263628432" lon="12.581479433608672"><ele>352.0</ele><time>2026-04-26T08:42:03.999Z</time></trkpt><trkpt lat="43.190246370540464" lon="12.581385767995146"><ele>352.0</ele><time>2026-04-26T08:42:04.999Z</time></trkpt><trkpt lat="43.19026745271673" lon="12.581294913572687"><ele>352.0</ele><time>2026-04-26T08:42:05.998Z</time></trkpt><trkpt lat="43.19029112430252" lon="12.581205077986679"><ele>352.0</ele><time>2026-04-26T08:42:06.998Z</time></trkpt><trkpt lat="43.19030719672974" lon="12.581102405361877"><ele>352.0</ele><time>2026-04-26T08:42:07.998Z</time></trkpt><trkpt lat="43.19035679636563" lon="12.58102278063287"><ele>352.0</ele><time>2026-04-26T08:42:08.998Z</time></trkpt><trkpt lat="43.19039427696312" lon="12.580930475510332"><ele>352.66666666666663</ele><time>2026-04-26T08:42:09.998Z</time></trkpt><trkpt lat="43.19041052255741" lon="12.580828345225218"><ele>353.3333333333333</ele><time>2026-04-26T08:42:10.998Z</time></trkpt><trkpt lat="43.19043400437976" lon="12.580737589810242"><ele>354.0</ele><time>2026-04-26T08:42:11.998Z</time></trkpt><trkpt lat="43.19044660175405" lon="12.580644781035696"><ele>354.6666666666667</ele><time>2026-04-26T08:42:12.998Z</time></trkpt><trkpt lat="43.19045138770573" lon="12.580551927556849"><ele>355.33333333333337</ele><time>2026-04-26T08:42:13.998Z</time></trkpt><trkpt lat="43.19049290722746" lon="12.580475466854343"><ele>356.0</ele><time>2026-04-26T08:42:14.998Z</time></trkpt><trkpt lat="43.190519599820526" lon="12.58032135976318"><ele>358.0</ele><time>2026-04-26T08:42:16.998Z</time></trkpt><trkpt lat="43.19048877604126" lon="12.58016318406532"><ele>360.0</ele><time>2026-04-26T08:42:18.998Z</time></trkpt><trkpt lat="43.19046473566693" lon="12.580077841509999"><ele>362.0</ele><time>2026-04-26T08:42:19.998Z</time></trkpt><trkpt lat="43.190430205241164" lon="12.579988585662466"><ele>364.0</ele><time>2026-04-26T08:42:20.998Z</time></trkpt><trkpt lat="43.19039044732319" lon="12.579903343371472"><ele>366.0</ele><time>2026-04-26T08:42:21.998Z</time></trkpt><trkpt lat="43.190344825878505" lon="12.579824476695785"><ele>368.0</ele><time>2026-04-26T08:42:22.998Z</time></trkpt><trkpt lat="43.19026679887916" lon="12.579730925615143"><ele>368.0</ele><time>2026-04-26T08:42:24.998Z</time></trkpt><trkpt lat="43.19016576440217" lon="12.579752002571494"><ele>368.0</ele><time>2026-04-26T08:42:26.998Z</time></trkpt><trkpt lat="43.19012085322661" lon="12.579825838367759"><ele>368.0</ele><time>2026-04-26T08:42:28Z</time></trkpt><trkpt lat="43.19009561222314" lon="12.579916566719325"><ele>368.0</ele><time>2026-04-26T08:42:29Z</time></trkpt><trkpt lat="43.19008831420517" lon="12.580010542857833"><ele>368.0</ele><time>2026-04-26T08:42:30Z</time></trkpt><trkpt lat="43.19006047236848" lon="12.580165213450249"><ele>368.0</ele><time>2026-04-26T08:42:32Z</time></trkpt><trkpt lat="43.19005116097967" lon="12.580324675650902"><ele>365.0</ele><time>2026-04-26T08:42:34Z</time></trkpt><trkpt lat="43.190042550832395" lon="12.58048919799153"><ele>362.0</ele><time>2026-04-26T08:42:36Z</time></trkpt><trkpt lat="43.190021330341736" lon="12.58065848315637"><ele>359.0</ele><time>2026-04-26T08:42:38Z</time></trkpt><trkpt lat="43.189974190274306" lon="12.580781528649135"><ele>356.0</ele><time>2026-04-26T08:42:40Z</time></trkpt><trkpt lat="43.18986231944027" lon="12.580720325807931"><ele>354.83333333333337</ele><time>2026-04-26T08:42:43Z</time></trkpt><trkpt lat="43.189799941087315" lon="12.580688138067622"><ele>353.6666666666667</ele><time>2026-04-26T08:42:44Z</time></trkpt><trkpt lat="43.18971577395663" lon="12.580675739651062"><ele>352.5</ele><time>2026-04-26T08:42:45Z</time></trkpt><trkpt lat="43.18963224604864" lon="12.580654742584146"><ele>351.3333333333333</ele><time>2026-04-26T08:42:46Z</time></trkpt><trkpt lat="43.18953591087322" lon="12.580655704629601"><ele>350.16666666666663</ele><time>2026-04-26T08:42:47Z</time></trkpt><trkpt lat="43.189431911182304" lon="12.580625561326638"><ele>349.0</ele><time>2026-04-26T08:42:48Z</time></trkpt><trkpt lat="43.18931800116198" lon="12.580616214173768"><ele>349.0</ele><time>2026-04-26T08:42:49Z</time></trkpt><trkpt lat="43.18919732958393" lon="12.580630470347495"><ele>349.0</ele><time>2026-04-26T08:42:50Z</time></trkpt><trkpt lat="43.18907655842536" lon="12.580622569086877"><ele>349.0</ele><time>2026-04-26T08:42:51Z</time></trkpt><trkpt lat="43.18896135221743" lon="12.580618902510228"><ele>349.0</ele><time>2026-04-26T08:42:52Z</time></trkpt><trkpt lat="43.18884421266337" lon="12.580610542583585"><ele>349.2</ele><time>2026-04-26T08:42:53Z</time></trkpt><trkpt lat="43.18873118808563" lon="12.580583651998156"><ele>349.4</ele><time>2026-04-26T08:42:54Z</time></trkpt><trkpt lat="43.18862937947568" lon="12.580532155173385"><ele>349.6</ele><time>2026-04-26T08:42:55Z</time></trkpt><trkpt lat="43.18856207941408" lon="12.580417589368478"><ele>349.8</ele><time>2026-04-26T08:42:56Z</time></trkpt><trkpt lat="43.18851037540498" lon="12.580297283606214"><ele>350.0</ele><time>2026-04-26T08:42:57Z</time></trkpt><trkpt lat="43.1884779739184" lon="12.580156116992853"><ele>350.0</ele><time>2026-04-26T08:42:58Z</time></trkpt><trkpt lat="43.18848829098357" lon="12.580011913150319"><ele>350.0</ele><time>2026-04-26T08:42:59Z</time></trkpt><trkpt lat="43.18851707650972" lon="12.579857649162602"><ele>350.0</ele><time>2026-04-26T08:43:00Z</time></trkpt><trkpt lat="43.18853470151419" lon="12.579687968926152"><ele>350.0</ele><time>2026-04-26T08:43:01Z</time></trkpt><trkpt lat="43.188574060949506" lon="12.579524001793628"><ele>350.5</ele><time>2026-04-26T08:43:02Z</time></trkpt><trkpt lat="43.18860057618019" lon="12.57934838270059"><ele>351.0</ele><time>2026-04-26T08:43:03Z</time></trkpt><trkpt lat="43.18861135721768" lon="12.579164627979189"><ele>351.5</ele><time>2026-04-26T08:43:04Z</time></trkpt><trkpt lat="43.18859274463357" lon="12.578987117297379"><ele>352.0</ele><time>2026-04-26T08:43:05Z</time></trkpt><trkpt lat="43.18854032435092" lon="12.57882736557904"><ele>352.0</ele><time>2026-04-26T08:43:06Z</time></trkpt><trkpt lat="43.18846232249657" lon="12.578699876624121"><ele>352.0</ele><time>2026-04-26T08:43:07Z</time></trkpt><trkpt lat="43.188360334444155" lon="12.578602216517462"><ele>352.0</ele><time>2026-04-26T08:43:08Z</time></trkpt><trkpt lat="43.18824884095965" lon="12.578530938728884"><ele>352.0</ele><time>2026-04-26T08:43:09Z</time></trkpt><trkpt lat="43.188131789925606" lon="12.578469149614751"><ele>350.75</ele><time>2026-04-26T08:43:10Z</time></trkpt><trkpt lat="43.1880221020453" lon="12.578381237811216"><ele>349.5</ele><time>2026-04-26T08:43:11Z</time></trkpt><trkpt lat="43.187900001293876" lon="12.578321829898444"><ele>348.25</ele><time>2026-04-26T08:43:12Z</time></trkpt><trkpt lat="43.18779710759533" lon="12.578213574560285"><ele>347.0</ele><time>2026-04-26T08:43:13Z</time></trkpt><trkpt lat="43.18772663296984" lon="12.578056690739801"><ele>347.0</ele><time>2026-04-26T08:43:14Z</time></trkpt><trkpt lat="43.187680893049084" lon="12.57788958022282"><ele>347.0</ele><time>2026-04-26T08:43:15Z</time></trkpt><trkpt lat="43.187654048654956" lon="12.577714119059852"><ele>347.0</ele><time>2026-04-26T08:43:16Z</time></trkpt><trkpt lat="43.18762840691051" lon="12.57753404834847"><ele>347.0</ele><time>2026-04-26T08:43:17Z</time></trkpt><trkpt lat="43.187601472237006" lon="12.57734632367859"><ele>349.25</ele><time>2026-04-26T08:43:18Z</time></trkpt><trkpt lat="43.187572480002366" lon="12.577155544117382"><ele>351.5</ele><time>2026-04-26T08:43:19Z</time></trkpt><trkpt lat="43.187542704204596" lon="12.576963325822648"><ele>353.75</ele><time>2026-04-26T08:43:20Z</time></trkpt><trkpt lat="43.187512855115095" lon="12.576773936573275"><ele>356.0</ele><time>2026-04-26T08:43:21Z</time></trkpt><trkpt lat="43.18748284765367" lon="12.576584228788164"><ele>357.0</ele><time>2026-04-26T08:43:22Z</time></trkpt><trkpt lat="43.18745183781561" lon="12.576388662303467"><ele>358.0</ele><time>2026-04-26T08:43:23Z</time></trkpt><trkpt lat="43.18741982186767" lon="12.57618986820162"><ele>359.0</ele><time>2026-04-26T08:43:23.999Z</time></trkpt><trkpt lat="43.18738639175222" lon="12.575985048763286"><ele>360.0</ele><time>2026-04-26T08:43:24.999Z</time></trkpt><trkpt lat="43.18735180059111" lon="12.57576684475252"><ele>353.0</ele><time>2026-04-26T08:43:25.999Z</time></trkpt><trkpt lat="43.187316202395166" lon="12.575538173697431"><ele>346.0</ele><time>2026-04-26T08:43:26.999Z</time></trkpt><trkpt lat="43.18727512033297" lon="12.575310299069011"><ele>339.0</ele><time>2026-04-26T08:43:27.999Z</time></trkpt><trkpt lat="43.187222675658774" lon="12.575081695285716"><ele>339.0</ele><time>2026-04-26T08:43:28.999Z</time></trkpt><trkpt lat="43.18714300013645" lon="12.574864933214492"><ele>339.0</ele><time>2026-04-26T08:43:29.999Z</time></trkpt><trkpt lat="43.18704087042129" lon="12.574665988832935"><ele>339.0</ele><time>2026-04-26T08:43:30.999Z</time></trkpt><trkpt lat="43.186939899455" lon="12.574476783739565"><ele>341.0</ele><time>2026-04-26T08:43:31.999Z</time></trkpt><trkpt lat="43.186844782044005" lon="12.574298547198431"><ele>343.0</ele><time>2026-04-26T08:43:32.999Z</time></trkpt><trkpt lat="43.18675784972687" lon="12.574135648356187"><ele>345.0</ele><time>2026-04-26T08:43:33.999Z</time></trkpt><trkpt lat="43.186679122341545" lon="12.57397724067477"><ele>347.0</ele><time>2026-04-26T08:43:34.999Z</time></trkpt><trkpt lat="43.18660489985112" lon="12.573822819149619"><ele>347.0</ele><time>2026-04-26T08:43:35.999Z</time></trkpt><trkpt lat="43.18652211253142" lon="12.573707303395901"><ele>347.0</ele><time>2026-04-26T08:43:36.999Z</time></trkpt><trkpt lat="43.1864502078065" lon="12.573605634653102"><ele>347.0</ele><time>2026-04-26T08:43:37.999Z</time></trkpt><trkpt lat="43.18637144693836" lon="12.573525153386782"><ele>347.0</ele><time>2026-04-26T08:43:38.999Z</time></trkpt><trkpt lat="43.18629808885239" lon="12.57349191320964"><ele>347.0</ele><time>2026-04-26T08:43:39.999Z</time></trkpt><trkpt lat="43.18621776417306" lon="12.573489744870066"><ele>346.14285714285717</ele><time>2026-04-26T08:43:40.999Z</time></trkpt><trkpt lat="43.18614321002483" lon="12.573509300314912"><ele>345.2857142857143</ele><time>2026-04-26T08:43:41.999Z</time></trkpt><trkpt lat="43.1860763272647" lon="12.57355097825723"><ele>344.42857142857144</ele><time>2026-04-26T08:43:42.999Z</time></trkpt><trkpt lat="43.18601457158098" lon="12.57360159368724"><ele>343.57142857142856</ele><time>2026-04-26T08:43:43.999Z</time></trkpt><trkpt lat="43.18595013965377" lon="12.573644286984909"><ele>342.7142857142857</ele><time>2026-04-26T08:43:44.999Z</time></trkpt><trkpt lat="43.185885194397365" lon="12.57368463200806"><ele>341.85714285714283</ele><time>2026-04-26T08:43:45.999Z</time></trkpt><trkpt lat="43.18581409286278" lon="12.573724712780463"><ele>341.0</ele><time>2026-04-26T08:43:46.999Z</time></trkpt><trkpt lat="43.185731864830416" lon="12.573769736449941"><ele>343.75</ele><time>2026-04-26T08:43:47.999Z</time></trkpt><trkpt lat="43.18563061647676" lon="12.57382492932095"><ele>346.5</ele><time>2026-04-26T08:43:48.999Z</time></trkpt><trkpt lat="43.18552053075231" lon="12.573887677800704"><ele>349.25</ele><time>2026-04-26T08:43:49.999Z</time></trkpt><trkpt lat="43.185409991874394" lon="12.57394869198194"><ele>352.0</ele><time>2026-04-26T08:43:50.999Z</time></trkpt><trkpt lat="43.18529365121664" lon="12.57400794486763"><ele>352.0</ele><time>2026-04-26T08:43:51.999Z</time></trkpt><trkpt lat="43.18517299991627" lon="12.574071009983832"><ele>352.0</ele><time>2026-04-26T08:43:52.999Z</time></trkpt><trkpt lat="43.18506112163885" lon="12.574147149680494"><ele>352.0</ele><time>2026-04-26T08:43:53.999Z</time></trkpt><trkpt lat="43.18495862364084" lon="12.574250087542056"><ele>352.0</ele><time>2026-04-26T08:43:54.999Z</time></trkpt><trkpt lat="43.18487312844482" lon="12.574390090456697"><ele>355.0</ele><time>2026-04-26T08:43:55.999Z</time></trkpt><trkpt lat="43.18481758534313" lon="12.574560672233929"><ele>358.0</ele><time>2026-04-26T08:43:56.999Z</time></trkpt><trkpt lat="43.184787487258724" lon="12.574727068523673"><ele>361.0</ele><time>2026-04-26T08:43:57.999Z</time></trkpt><trkpt lat="43.18479232547367" lon="12.57489868209471"><ele>364.0</ele><time>2026-04-26T08:43:58.999Z</time></trkpt><trkpt lat="43.18480353212474" lon="12.575072809928011"><ele>364.0</ele><time>2026-04-26T08:43:59.999Z</time></trkpt><trkpt lat="43.184824710753134" lon="12.575253426758678"><ele>364.0</ele><time>2026-04-26T08:44:00.999Z</time></trkpt><trkpt lat="43.18484399942316" lon="12.575444741536279"><ele>364.0</ele><time>2026-04-26T08:44:01.999Z</time></trkpt><trkpt lat="43.1848635258705" lon="12.575644221612123"><ele>364.0</ele><time>2026-04-26T08:44:02.999Z</time></trkpt><trkpt lat="43.18488626122342" lon="12.575850956318051"><ele>359.5</ele><time>2026-04-26T08:44:03.999Z</time></trkpt><trkpt lat="43.18491070443561" lon="12.576042671987315"><ele>355.0</ele><time>2026-04-26T08:44:04.999Z</time></trkpt><trkpt lat="43.18493132500882" lon="12.57622144015351"><ele>350.5</ele><time>2026-04-26T08:44:05.999Z</time></trkpt><trkpt lat="43.18494972205286" lon="12.576384250631591"><ele>346.0</ele><time>2026-04-26T08:44:06.999Z</time></trkpt><trkpt lat="43.184947156022155" lon="12.576550069256577"><ele>345.0</ele><time>2026-04-26T08:44:07.999Z</time></trkpt><trkpt lat="43.184912621007484" lon="12.576699012249012"><ele>344.0</ele><time>2026-04-26T08:44:08.999Z</time></trkpt><trkpt lat="43.18483738364169" lon="12.576830705732034"><ele>343.0</ele><time>2026-04-26T08:44:09.998Z</time></trkpt><trkpt lat="43.18474197570518" lon="12.576942884026497"><ele>342.0</ele><time>2026-04-26T08:44:10.998Z</time></trkpt><trkpt lat="43.18462995469042" lon="12.577018782188025"><ele>347.0</ele><time>2026-04-26T08:44:11.998Z</time></trkpt><trkpt lat="43.184511294886484" lon="12.576994545077696"><ele>352.0</ele><time>2026-04-26T08:44:12.998Z</time></trkpt><trkpt lat="43.184403289903706" lon="12.576961317748463"><ele>357.0</ele><time>2026-04-26T08:44:13.998Z</time></trkpt><trkpt lat="43.184282621880506" lon="12.576927753183023"><ele>362.0</ele><time>2026-04-26T08:44:14.998Z</time></trkpt><trkpt lat="43.184159524031415" lon="12.576894408674558"><ele>362.0</ele><time>2026-04-26T08:44:15.998Z</time></trkpt><trkpt lat="43.184040565230376" lon="12.576862539011493"><ele>362.0</ele><time>2026-04-26T08:44:16.998Z</time></trkpt><trkpt lat="43.183926344916635" lon="12.576854342303415"><ele>362.0</ele><time>2026-04-26T08:44:17.998Z</time></trkpt><trkpt lat="43.18381966678389" lon="12.576874623468488"><ele>362.0</ele><time>2026-04-26T08:44:18.998Z</time></trkpt><trkpt lat="43.183729864236454" lon="12.576920361578523"><ele>362.0</ele><time>2026-04-26T08:44:19.998Z</time></trkpt><trkpt lat="43.18366423766884" lon="12.576997064686863"><ele>358.0</ele><time>2026-04-26T08:44:20.998Z</time></trkpt><trkpt lat="43.183614076206176" lon="12.57709276089701"><ele>354.0</ele><time>2026-04-26T08:44:21.998Z</time></trkpt><trkpt lat="43.18358131271124" lon="12.57719635807378"><ele>350.0</ele><time>2026-04-26T08:44:22.998Z</time></trkpt><trkpt lat="43.18355004486383" lon="12.577304567631534"><ele>346.0</ele><time>2026-04-26T08:44:23.998Z</time></trkpt><trkpt lat="43.183506333906195" lon="12.577428246024347"><ele>342.0</ele><time>2026-04-26T08:44:24.998Z</time></trkpt><trkpt lat="43.18345290559714" lon="12.577571048707204"><ele>342.0</ele><time>2026-04-26T08:44:25.998Z</time></trkpt><trkpt lat="43.18339163256899" lon="12.577722907121519"><ele>342.0</ele><time>2026-04-26T08:44:26.998Z</time></trkpt><trkpt lat="43.18333096847328" lon="12.577878530222064"><ele>342.0</ele><time>2026-04-26T08:44:27.998Z</time></trkpt><trkpt lat="43.183277162137394" lon="12.578027157898156"><ele>342.0</ele><time>2026-04-26T08:44:28.998Z</time></trkpt><trkpt lat="43.18323729198025" lon="12.578159392700645"><ele>343.3333333333333</ele><time>2026-04-26T08:44:29.998Z</time></trkpt><trkpt lat="43.18321868664058" lon="12.578281179205309"><ele>344.6666666666667</ele><time>2026-04-26T08:44:30.998Z</time></trkpt><trkpt lat="43.18322047060642" lon="12.578391393838732"><ele>346.0</ele><time>2026-04-26T08:44:31.998Z</time></trkpt><trkpt lat="43.18325074189859" lon="12.578484358135475"><ele>347.33333333333337</ele><time>2026-04-26T08:44:32.998Z</time></trkpt><trkpt lat="43.18329907560623" lon="12.5785744173018"><ele>348.6666666666667</ele><time>2026-04-26T08:44:34Z</time></trkpt><trkpt lat="43.18336769274174" lon="12.578655817356195"><ele>350.0</ele><time>2026-04-26T08:44:35Z</time></trkpt><trkpt lat="43.18345402443536" lon="12.578723869580525"><ele>355.0</ele><time>2026-04-26T08:44:36Z</time></trkpt><trkpt lat="43.183557765816175" lon="12.578769298835521"><ele>360.0</ele><time>2026-04-26T08:44:37Z</time></trkpt><trkpt lat="43.18367007355816" lon="12.578807931917597"><ele>365.0</ele><time>2026-04-26T08:44:38Z</time></trkpt><trkpt lat="43.183787268835694" lon="12.57886470822275"><ele>370.0</ele><time>2026-04-26T08:44:39Z</time></trkpt><trkpt lat="43.1839149907442" lon="12.578926013394774"><ele>365.5</ele><time>2026-04-26T08:44:40Z</time></trkpt><trkpt lat="43.18403913078673" lon="12.578985220897154"><ele>361.0</ele><time>2026-04-26T08:44:41Z</time></trkpt><trkpt lat="43.18417094971156" lon="12.579045300632743"><ele>356.5</ele><time>2026-04-26T08:44:42Z</time></trkpt><trkpt lat="43.1843003762065" lon="12.579120701149055"><ele>352.0</ele><time>2026-04-26T08:44:43Z</time></trkpt><trkpt lat="43.18441707801795" lon="12.579205008153423"><ele>352.0</ele><time>2026-04-26T08:44:44Z</time></trkpt><trkpt lat="43.18451444676134" lon="12.579303893244067"><ele>352.0</ele><time>2026-04-26T08:44:45Z</time></trkpt><trkpt lat="43.184591149315025" lon="12.579425796505399"><ele>352.0</ele><time>2026-04-26T08:44:46Z</time></trkpt><trkpt lat="43.184631153992925" lon="12.579566667019911"><ele>352.0</ele><time>2026-04-26T08:44:47Z</time></trkpt><trkpt lat="43.184635095369735" lon="12.579708034256205"><ele>356.25</ele><time>2026-04-26T08:44:48Z</time></trkpt><trkpt lat="43.18461650676429" lon="12.579861090209011"><ele>360.5</ele><time>2026-04-26T08:44:49Z</time></trkpt><trkpt lat="43.1845829812653" lon="12.58001781819684"><ele>364.75</ele><time>2026-04-26T08:44:50Z</time></trkpt><trkpt lat="43.184545491241565" lon="12.580184406998113"><ele>369.0</ele><time>2026-04-26T08:44:51Z</time></trkpt><trkpt lat="43.18450671988671" lon="12.580359244774094"><ele>371.0</ele><time>2026-04-26T08:44:52Z</time></trkpt><trkpt lat="43.184476754715654" lon="12.580537173541643"><ele>373.0</ele><time>2026-04-26T08:44:53Z</time></trkpt><trkpt lat="43.18446445964428" lon="12.580707714524328"><ele>375.0</ele><time>2026-04-26T08:44:54Z</time></trkpt><trkpt lat="43.18448024829964" lon="12.58086129458694"><ele>377.0</ele><time>2026-04-26T08:44:55Z</time></trkpt><trkpt lat="43.18452310840681" lon="12.580985807717411"><ele>377.0</ele><time>2026-04-26T08:44:56Z</time></trkpt><trkpt lat="43.18459670874464" lon="12.581082437487815"><ele>377.0</ele><time>2026-04-26T08:44:57Z</time></trkpt><trkpt lat="43.18469130553469" lon="12.581166528745714"><ele>377.0</ele><time>2026-04-26T08:44:58Z</time></trkpt><trkpt lat="43.184790724383376" lon="12.581252259612992"><ele>377.0</ele><time>2026-04-26T08:44:59Z</time></trkpt><trkpt lat="43.18489065752299" lon="12.581345421702954"><ele>377.0</ele><time>2026-04-26T08:45:00Z</time></trkpt><trkpt lat="43.184970384960195" lon="12.581458469590183"><ele>377.0</ele><time>2026-04-26T08:45:01Z</time></trkpt><trkpt lat="43.18502737757143" lon="12.58158827920197"><ele>377.0</ele><time>2026-04-26T08:45:02Z</time></trkpt><trkpt lat="43.18506368704027" lon="12.58173269629397"><ele>377.0</ele><time>2026-04-26T08:45:03Z</time></trkpt><trkpt lat="43.185072736635" lon="12.581885553452555"><ele>377.0</ele><time>2026-04-26T08:45:04Z</time></trkpt><trkpt lat="43.18506669593586" lon="12.582045820662783"><ele>377.0</ele><time>2026-04-26T08:45:05Z</time></trkpt><trkpt lat="43.18508327673308" lon="12.582211205926745"><ele>377.0</ele><time>2026-04-26T08:45:06Z</time></trkpt><trkpt lat="43.18512999155641" lon="12.58238114481392"><ele>377.0</ele><time>2026-04-26T08:45:07Z</time></trkpt><trkpt lat="43.18519572625385" lon="12.582553722463148"><ele>377.0</ele><time>2026-04-26T08:45:08Z</time></trkpt><trkpt lat="43.18525929890093" lon="12.582742180565049"><ele>378.0</ele><time>2026-04-26T08:45:09Z</time></trkpt><trkpt lat="43.18529824579638" lon="12.582952078297353"><ele>379.0</ele><time>2026-04-26T08:45:10Z</time></trkpt><trkpt lat="43.18530707404351" lon="12.583163544754807"><ele>380.0</ele><time>2026-04-26T08:45:11Z</time></trkpt><trkpt lat="43.1852881672596" lon="12.583360512178393"><ele>380.0</ele><time>2026-04-26T08:45:12Z</time></trkpt><trkpt lat="43.185234084919735" lon="12.583533876569673"><ele>380.0</ele><time>2026-04-26T08:45:13Z</time></trkpt><trkpt lat="43.185139953397" lon="12.583666402655583"><ele>380.0</ele><time>2026-04-26T08:45:14Z</time></trkpt><trkpt lat="43.18507267160157" lon="12.583822770235878"><ele>380.0</ele><time>2026-04-26T08:45:15Z</time></trkpt><trkpt lat="43.1850173842077" lon="12.583976055015324"><ele>378.75</ele><time>2026-04-26T08:45:16Z</time></trkpt><trkpt lat="43.18500400011173" lon="12.584153665056482"><ele>377.5</ele><time>2026-04-26T08:45:17Z</time></trkpt><trkpt lat="43.18501761544238" lon="12.584345032523503"><ele>376.25</ele><time>2026-04-26T08:45:18Z</time></trkpt><trkpt lat="43.18504034740888" lon="12.584539604929336"><ele>375.0</ele><time>2026-04-26T08:45:19Z</time></trkpt><trkpt lat="43.18506752991916" lon="12.584733738728096"><ele>375.0</ele><time>2026-04-26T08:45:20Z</time></trkpt><trkpt lat="43.18508942186381" lon="12.58492478749422"><ele>375.0</ele><time>2026-04-26T08:45:21Z</time></trkpt><trkpt lat="43.18509975952715" lon="12.585125074241127"><ele>375.0</ele><time>2026-04-26T08:45:22Z</time></trkpt><trkpt lat="43.18510972223448" lon="12.585330850914257"><ele>375.0</ele><time>2026-04-26T08:45:23Z</time></trkpt><trkpt lat="43.185117851186234" lon="12.58554207962129"><ele>375.0</ele><time>2026-04-26T08:45:24Z</time></trkpt><trkpt lat="43.185116360118606" lon="12.585754172868683"><ele>375.0</ele><time>2026-04-26T08:45:25Z</time></trkpt><trkpt lat="43.18510529404929" lon="12.58594599236646"><ele>375.0</ele><time>2026-04-26T08:45:26Z</time></trkpt><trkpt lat="43.1850721225286" lon="12.586116673901838"><ele>375.0</ele><time>2026-04-26T08:45:26.999Z</time></trkpt><trkpt lat="43.18500934458872" lon="12.586258962546815"><ele>372.5</ele><time>2026-04-26T08:45:27.999Z</time></trkpt><trkpt lat="43.184922230098586" lon="12.586363360536302"><ele>370.0</ele><time>2026-04-26T08:45:28.999Z</time></trkpt><trkpt lat="43.18482438137099" lon="12.586448513959313"><ele>367.5</ele><time>2026-04-26T08:45:29.999Z</time></trkpt><trkpt lat="43.18471872704275" lon="12.586538401747088"><ele>365.0</ele><time>2026-04-26T08:45:30.999Z</time></trkpt><trkpt lat="43.18461039725705" lon="12.586645016566502"><ele>365.0</ele><time>2026-04-26T08:45:31.999Z</time></trkpt><trkpt lat="43.1844996980339" lon="12.58675475048942"><ele>365.0</ele><time>2026-04-26T08:45:32.999Z</time></trkpt><trkpt lat="43.18438875199127" lon="12.586858727342765"><ele>365.0</ele><time>2026-04-26T08:45:33.999Z</time></trkpt><trkpt lat="43.184269239513554" lon="12.58696732165331"><ele>365.0</ele><time>2026-04-26T08:45:34.999Z</time></trkpt><trkpt lat="43.18415109108321" lon="12.587081614232408"><ele>364.0</ele><time>2026-04-26T08:45:35.999Z</time></trkpt><trkpt lat="43.18403558533567" lon="12.587197126696228"><ele>363.0</ele><time>2026-04-26T08:45:36.999Z</time></trkpt><trkpt lat="43.18393038410594" lon="12.58729818666078"><ele>362.0</ele><time>2026-04-26T08:45:37.999Z</time></trkpt><trkpt lat="43.183812286697766" lon="12.587383121102544"><ele>361.0</ele><time>2026-04-26T08:45:38.999Z</time></trkpt><trkpt lat="43.18368119541456" lon="12.587460866803466"><ele>365.66666666666663</ele><time>2026-04-26T08:45:39.999Z</time></trkpt><trkpt lat="43.18353895722913" lon="12.587539972053202"><ele>370.3333333333333</ele><time>2026-04-26T08:45:40.999Z</time></trkpt><trkpt lat="43.18339043832065" lon="12.587623212047985"><ele>375.0</ele><time>2026-04-26T08:45:41.999Z</time></trkpt><trkpt lat="43.18323675552447" lon="12.587710758925718"><ele>376.6666666666667</ele><time>2026-04-26T08:45:42.999Z</time></trkpt><trkpt lat="43.18308353786427" lon="12.587800033280484"><ele>378.33333333333337</ele><time>2026-04-26T08:45:43.999Z</time></trkpt><trkpt lat="43.18293152809843" lon="12.587883925987624"><ele>380.0</ele><time>2026-04-26T08:45:44.999Z</time></trkpt><trkpt lat="43.182784440173656" lon="12.587963394360287"><ele>381.75</ele><time>2026-04-26T08:45:45.999Z</time></trkpt><trkpt lat="43.18264480434708" lon="12.588041835923656"><ele>383.5</ele><time>2026-04-26T08:45:46.999Z</time></trkpt><trkpt lat="43.18251821439689" lon="12.588120177215337"><ele>385.25</ele><time>2026-04-26T08:45:47.999Z</time></trkpt><trkpt lat="43.18240890236134" lon="12.588216356911902"><ele>387.0</ele><time>2026-04-26T08:45:48.999Z</time></trkpt><trkpt lat="43.1823240825694" lon="12.588339773503638"><ele>387.0</ele><time>2026-04-26T08:45:49.999Z</time></trkpt><trkpt lat="43.182268793536736" lon="12.58848240486588"><ele>387.0</ele><time>2026-04-26T08:45:50.999Z</time></trkpt><trkpt lat="43.18224278274513" lon="12.588638528578802"><ele>387.0</ele><time>2026-04-26T08:45:51.999Z</time></trkpt><trkpt lat="43.182239622680186" lon="12.58880854560754"><ele>387.0</ele><time>2026-04-26T08:45:52.999Z</time></trkpt><trkpt lat="43.18224194728003" lon="12.588988716897315"><ele>386.75</ele><time>2026-04-26T08:45:53.999Z</time></trkpt><trkpt lat="43.182240205449894" lon="12.589166507136353"><ele>386.5</ele><time>2026-04-26T08:45:54.999Z</time></trkpt><trkpt lat="43.182236739399755" lon="12.589330349788337"><ele>386.25</ele><time>2026-04-26T08:45:55.999Z</time></trkpt><trkpt lat="43.182238040855644" lon="12.58948343673542"><ele>386.0</ele><time>2026-04-26T08:45:56.999Z</time></trkpt><trkpt lat="43.18225262235991" lon="12.589621584636252"><ele>386.8</ele><time>2026-04-26T08:45:57.999Z</time></trkpt><trkpt lat="43.182297336910096" lon="12.589740387107435"><ele>387.6</ele><time>2026-04-26T08:45:58.999Z</time></trkpt><trkpt lat="43.182370114206286" lon="12.58983686798135"><ele>388.4</ele><time>2026-04-26T08:45:59.999Z</time></trkpt><trkpt lat="43.18246008698599" lon="12.589904451549973"><ele>389.2</ele><time>2026-04-26T08:46:00.999Z</time></trkpt><trkpt lat="43.182574265549995" lon="12.589916652139275"><ele>390.0</ele><time>2026-04-26T08:46:01.999Z</time></trkpt><trkpt lat="43.18269487821181" lon="12.589905108450182"><ele>386.75</ele><time>2026-04-26T08:46:02.999Z</time></trkpt><trkpt lat="43.182820913312334" lon="12.589884270173702"><ele>383.5</ele><time>2026-04-26T08:46:03.999Z</time></trkpt><trkpt lat="43.18295389138812" lon="12.589869484541389"><ele>380.25</ele><time>2026-04-26T08:46:04.999Z</time></trkpt><trkpt lat="43.18309467646479" lon="12.589860263350863"><ele>377.0</ele><time>2026-04-26T08:46:05.999Z</time></trkpt><trkpt lat="43.18323186828521" lon="12.589851282344002"><ele>373.75</ele><time>2026-04-26T08:46:06.999Z</time></trkpt><trkpt lat="43.18335388881179" lon="12.589857863166515"><ele>370.5</ele><time>2026-04-26T08:46:07.999Z</time></trkpt><trkpt lat="43.18346600729428" lon="12.589899748740876"><ele>367.25</ele><time>2026-04-26T08:46:08.999Z</time></trkpt><trkpt lat="43.1835595050689" lon="12.589983225823751"><ele>364.0</ele><time>2026-04-26T08:46:09.999Z</time></trkpt><trkpt lat="43.18363935432125" lon="12.590095468137692"><ele>364.0</ele><time>2026-04-26T08:46:10.999Z</time></trkpt><trkpt lat="43.183716694154164" lon="12.590228593740044"><ele>364.0</ele><time>2026-04-26T08:46:11.999Z</time></trkpt><trkpt lat="43.183803465642136" lon="12.590366619065847"><ele>364.0</ele><time>2026-04-26T08:46:12.999Z</time></trkpt><trkpt lat="43.18390029347873" lon="12.590505568670142"><ele>364.0</ele><time>2026-04-26T08:46:13.998Z</time></trkpt><trkpt lat="43.18400213870921" lon="12.59065824813373"><ele>363.3333333333333</ele><time>2026-04-26T08:46:14.998Z</time></trkpt><trkpt lat="43.184105081796616" lon="12.590818770550237"><ele>362.6666666666667</ele><time>2026-04-26T08:46:15.998Z</time></trkpt><trkpt lat="43.184212262522834" lon="12.59097997976421"><ele>362.0</ele><time>2026-04-26T08:46:16.998Z</time></trkpt><trkpt lat="43.18432453266962" lon="12.591150977591546"><ele>366.33333333333337</ele><time>2026-04-26T08:46:17.998Z</time></trkpt><trkpt lat="43.184436665619515" lon="12.591321258775105"><ele>370.6666666666667</ele><time>2026-04-26T08:46:18.998Z</time></trkpt><trkpt lat="43.18454093040705" lon="12.591479290596139"><ele>375.0</ele><time>2026-04-26T08:46:19.998Z</time></trkpt><trkpt lat="43.1846392091265" lon="12.591627156508283"><ele>375.0</ele><time>2026-04-26T08:46:20.998Z</time></trkpt><trkpt lat="43.18473806529453" lon="12.591774337422478"><ele>375.0</ele><time>2026-04-26T08:46:21.998Z</time></trkpt><trkpt lat="43.184835260231424" lon="12.591927564273405"><ele>375.0</ele><time>2026-04-26T08:46:22.998Z</time></trkpt><trkpt lat="43.184927084260224" lon="12.592076756078962"><ele>375.0</ele><time>2026-04-26T08:46:23.998Z</time></trkpt><trkpt lat="43.18500649217653" lon="12.592227745269943"><ele>370.5</ele><time>2026-04-26T08:46:24.998Z</time></trkpt><trkpt lat="43.185066082664406" lon="12.592388281306645"><ele>366.0</ele><time>2026-04-26T08:46:25.998Z</time></trkpt><trkpt lat="43.18509925742605" lon="12.592556499005454"><ele>361.5</ele><time>2026-04-26T08:46:26.998Z</time></trkpt><trkpt lat="43.18509857239174" lon="12.592704690022865"><ele>357.0</ele><time>2026-04-26T08:46:27.998Z</time></trkpt><trkpt lat="43.18507672075959" lon="12.5928341212464"><ele>354.8</ele><time>2026-04-26T08:46:28.998Z</time></trkpt><trkpt lat="43.185052513291595" lon="12.592963105728959"><ele>352.6</ele><time>2026-04-26T08:46:29.998Z</time></trkpt><trkpt lat="43.18502730917534" lon="12.593087193107015"><ele>350.40000000000003</ele><time>2026-04-26T08:46:30.998Z</time></trkpt><trkpt lat="43.184998017508505" lon="12.593202641887668"><ele>348.20000000000005</ele><time>2026-04-26T08:46:31.998Z</time></trkpt><trkpt lat="43.18495109698865" lon="12.593304853345591"><ele>346.0</ele><time>2026-04-26T08:46:32.998Z</time></trkpt><trkpt lat="43.184895862165064" lon="12.593407583796251"><ele>346.0</ele><time>2026-04-26T08:46:33.998Z</time></trkpt><trkpt lat="43.184852678582786" lon="12.593515214774834"><ele>346.0</ele><time>2026-04-26T08:46:34.998Z</time></trkpt><trkpt lat="43.18481480082361" lon="12.59362750077014"><ele>346.0</ele><time>2026-04-26T08:46:35.998Z</time></trkpt><trkpt lat="43.18478041118118" lon="12.593740976405213"><ele>346.0</ele><time>2026-04-26T08:46:36.998Z</time></trkpt><trkpt lat="43.1847483181422" lon="12.59385394669691"><ele>346.0</ele><time>2026-04-26T08:46:37.998Z</time></trkpt><trkpt lat="43.184713937548494" lon="12.593967031284786"><ele>346.0</ele><time>2026-04-26T08:46:38.998Z</time></trkpt><trkpt lat="43.18467589585614" lon="12.594076984374485"><ele>346.8333333333333</ele><time>2026-04-26T08:46:40Z</time></trkpt><trkpt lat="43.1846396862725" lon="12.594185240142817"><ele>347.66666666666663</ele><time>2026-04-26T08:46:41Z</time></trkpt><trkpt lat="43.1846030423236" lon="12.594295376193102"><ele>348.5</ele><time>2026-04-26T08:46:42Z</time></trkpt><trkpt lat="43.1845703522901" lon="12.594406711132436"><ele>349.3333333333333</ele><time>2026-04-26T08:46:43Z</time></trkpt><trkpt lat="43.18454059608133" lon="12.59451607239532"><ele>350.1666666666667</ele><time>2026-04-26T08:46:44Z</time></trkpt><trkpt lat="43.18451169176933" lon="12.594616556922576"><ele>351.0</ele><time>2026-04-26T08:46:45Z</time></trkpt><trkpt lat="43.1844850163519" lon="12.594720528753244"><ele>351.0</ele><time>2026-04-26T08:46:46Z</time></trkpt><trkpt lat="43.184463016675274" lon="12.594827707007902"><ele>351.0</ele><time>2026-04-26T08:46:47Z</time></trkpt><trkpt lat="43.18444634921079" lon="12.59494034973089"><ele>351.0</ele><time>2026-04-26T08:46:48Z</time></trkpt><trkpt lat="43.18443075695228" lon="12.595062096810805"><ele>351.0</ele><time>2026-04-26T08:46:49Z</time></trkpt><trkpt lat="43.18442363505702" lon="12.595190081125244"><ele>351.0</ele><time>2026-04-26T08:46:50Z</time></trkpt><trkpt lat="43.18442611619929" lon="12.595320680028664"><ele>351.0</ele><time>2026-04-26T08:46:51Z</time></trkpt><trkpt lat="43.18443337589226" lon="12.595454061605981"><ele>349.0</ele><time>2026-04-26T08:46:52Z</time></trkpt><trkpt lat="43.184439118540936" lon="12.595587996671782"><ele>347.0</ele><time>2026-04-26T08:46:53Z</time></trkpt><trkpt lat="43.18443936423627" lon="12.59572447606369"><ele>345.0</ele><time>2026-04-26T08:46:54Z</time></trkpt><trkpt lat="43.18444148646834" lon="12.595864831205752"><ele>343.0</ele><time>2026-04-26T08:46:55Z</time></trkpt><trkpt lat="43.184438056516306" lon="12.596001387073963"><ele>341.0</ele><time>2026-04-26T08:46:56Z</time></trkpt><trkpt lat="43.184438347310426" lon="12.596141153889413"><ele>340.0</ele><time>2026-04-26T08:46:57Z</time></trkpt><trkpt lat="43.18443980477927" lon="12.596284300802038"><ele>339.0</ele><time>2026-04-26T08:46:58Z</time></trkpt><trkpt lat="43.18444404585573" lon="12.596433294794217"><ele>338.0</ele><time>2026-04-26T08:46:59Z</time></trkpt><trkpt lat="43.18444935165452" lon="12.59658991150741"><ele>337.0</ele><time>2026-04-26T08:47:00Z</time></trkpt><trkpt lat="43.18445728663906" lon="12.596744060236333"><ele>336.0</ele><time>2026-04-26T08:47:01Z</time></trkpt><trkpt lat="43.18446332769065" lon="12.596899613531852"><ele>335.75</ele><time>2026-04-26T08:47:02Z</time></trkpt><trkpt lat="43.18446965391314" lon="12.597058520422802"><ele>335.5</ele><time>2026-04-26T08:47:03Z</time></trkpt><trkpt lat="43.18447503246107" lon="12.597219537437988"><ele>335.25</ele><time>2026-04-26T08:47:04Z</time></trkpt><trkpt lat="43.18448596011322" lon="12.597380367292445"><ele>335.0</ele><time>2026-04-26T08:47:05Z</time></trkpt><trkpt lat="43.18450740803652" lon="12.597536589384763"><ele>335.0</ele><time>2026-04-26T08:47:06Z</time></trkpt><trkpt lat="43.18451819252626" lon="12.597686661184722"><ele>335.0</ele><time>2026-04-26T08:47:07Z</time></trkpt><trkpt lat="43.18450233599285" lon="12.597825778013021"><ele>335.0</ele><time>2026-04-26T08:47:08Z</time></trkpt><trkpt lat="43.18446790967339" lon="12.59795592770024"><ele>335.0</ele><time>2026-04-26T08:47:09Z</time></trkpt><trkpt lat="43.184413656009575" lon="12.598076685819349"><ele>335.0</ele><time>2026-04-26T08:47:10Z</time></trkpt><trkpt lat="43.184343911186325" lon="12.598184774746048"><ele>330.0</ele><time>2026-04-26T08:47:11Z</time></trkpt><trkpt lat="43.18426370825988" lon="12.59829744821279"><ele>325.0</ele><time>2026-04-26T08:47:12Z</time></trkpt><trkpt lat="43.18418078081014" lon="12.598413752479924"><ele>320.0</ele><time>2026-04-26T08:47:13Z</time></trkpt><trkpt lat="43.1841009749217" lon="12.598534532427475"><ele>315.0</ele><time>2026-04-26T08:47:14Z</time></trkpt><trkpt lat="43.18401635094229" lon="12.598651629207794"><ele>314.0</ele><time>2026-04-26T08:47:15Z</time></trkpt><trkpt lat="43.183930445278165" lon="12.598774865136935"><ele>313.0</ele><time>2026-04-26T08:47:16Z</time></trkpt><trkpt lat="43.183853331050614" lon="12.598894387812287"><ele>312.0</ele><time>2026-04-26T08:47:17Z</time></trkpt><trkpt lat="43.18378184027892" lon="12.599029687828283"><ele>311.0</ele><time>2026-04-26T08:47:18Z</time></trkpt><trkpt lat="43.183725427970664" lon="12.59917168115565"><ele>311.0</ele><time>2026-04-26T08:47:19Z</time></trkpt><trkpt lat="43.18367677503929" lon="12.599323486522277"><ele>311.0</ele><time>2026-04-26T08:47:20Z</time></trkpt><trkpt lat="43.18363024727382" lon="12.59947921019829"><ele>311.0</ele><time>2026-04-26T08:47:21Z</time></trkpt><trkpt lat="43.18357990537827" lon="12.59963772411619"><ele>311.0</ele><time>2026-04-26T08:47:22Z</time></trkpt><trkpt lat="43.18351691652016" lon="12.59979186361642"><ele>308.0</ele><time>2026-04-26T08:47:23Z</time></trkpt><trkpt lat="43.183436825207025" lon="12.599937499104621"><ele>305.0</ele><time>2026-04-26T08:47:24Z</time></trkpt><trkpt lat="43.18334272895043" lon="12.600072007152088"><ele>302.0</ele><time>2026-04-26T08:47:25Z</time></trkpt><trkpt lat="43.183240177129115" lon="12.600209476140137"><ele>299.0</ele><time>2026-04-26T08:47:26Z</time></trkpt><trkpt lat="43.18314088015662" lon="12.60035718006512"><ele>297.0</ele><time>2026-04-26T08:47:27Z</time></trkpt><trkpt lat="43.183034247670456" lon="12.600514619330974"><ele>295.0</ele><time>2026-04-26T08:47:28Z</time></trkpt><trkpt lat="43.182919049104456" lon="12.600682847595705"><ele>293.0</ele><time>2026-04-26T08:47:29Z</time></trkpt><trkpt lat="43.18280035946223" lon="12.600851490806695"><ele>293.0</ele><time>2026-04-26T08:47:30Z</time></trkpt><trkpt lat="43.18267766740226" lon="12.601024242164769"><ele>293.0</ele><time>2026-04-26T08:47:31Z</time></trkpt><trkpt lat="43.18254880835316" lon="12.601203631822363"><ele>293.0</ele><time>2026-04-26T08:47:31.999Z</time></trkpt><trkpt lat="43.18241369459389" lon="12.601388077971475"><ele>289.6666666666667</ele><time>2026-04-26T08:47:32.999Z</time></trkpt><trkpt lat="43.18228054249508" lon="12.601578556847741"><ele>286.3333333333333</ele><time>2026-04-26T08:47:33.999Z</time></trkpt><trkpt lat="43.18215429013013" lon="12.601766680061942"><ele>283.0</ele><time>2026-04-26T08:47:34.999Z</time></trkpt><trkpt lat="43.18203551527526" lon="12.601953977600653"><ele>280.0</ele><time>2026-04-26T08:47:35.999Z</time></trkpt><trkpt lat="43.18192764510399" lon="12.602143427124712"><ele>277.0</ele><time>2026-04-26T08:47:36.999Z</time></trkpt><trkpt lat="43.18183172507685" lon="12.602334601699555"><ele>274.0</ele><time>2026-04-26T08:47:37.999Z</time></trkpt><trkpt lat="43.1817430482741" lon="12.602532282805694"><ele>274.0</ele><time>2026-04-26T08:47:38.999Z</time></trkpt><trkpt lat="43.181663308269165" lon="12.602730383844968"><ele>274.0</ele><time>2026-04-26T08:47:39.999Z</time></trkpt><trkpt lat="43.181588293214936" lon="12.602929794251892"><ele>274.0</ele><time>2026-04-26T08:47:40.999Z</time></trkpt><trkpt lat="43.181516220999924" lon="12.603129866310963"><ele>272.5</ele><time>2026-04-26T08:47:41.999Z</time></trkpt><trkpt lat="43.181450178932444" lon="12.603322393403937"><ele>271.0</ele><time>2026-04-26T08:47:42.999Z</time></trkpt><trkpt lat="43.181390581449506" lon="12.60350451479847"><ele>269.5</ele><time>2026-04-26T08:47:43.999Z</time></trkpt><trkpt lat="43.18133686410432" lon="12.603678621235975"><ele>268.0</ele><time>2026-04-26T08:47:44.999Z</time></trkpt><trkpt lat="43.18128701953446" lon="12.603840864129984"><ele>267.5</ele><time>2026-04-26T08:47:45.999Z</time></trkpt><trkpt lat="43.18123092770714" lon="12.604006373876693"><ele>267.0</ele><time>2026-04-26T08:47:46.999Z</time></trkpt><trkpt lat="43.18116628090963" lon="12.60416435966493"><ele>266.5</ele><time>2026-04-26T08:47:47.999Z</time></trkpt><trkpt lat="43.18110279192271" lon="12.60435246079627"><ele>266.0</ele><time>2026-04-26T08:47:48.999Z</time></trkpt><trkpt lat="43.18104311916569" lon="12.604546341144312"><ele>265.6666666666667</ele><time>2026-04-26T08:47:49.999Z</time></trkpt><trkpt lat="43.18097889605324" lon="12.604744704734792"><ele>265.3333333333333</ele><time>2026-04-26T08:47:50.999Z</time></trkpt><trkpt lat="43.180915614778556" lon="12.60494689434509"><ele>265.0</ele><time>2026-04-26T08:47:51.999Z</time></trkpt><trkpt lat="43.180848771133356" lon="12.605158405522738"><ele>264.66666666666663</ele><time>2026-04-26T08:47:52.999Z</time></trkpt><trkpt lat="43.18078629544705" lon="12.605370607448311"><ele>264.3333333333333</ele><time>2026-04-26T08:47:53.999Z</time></trkpt><trkpt lat="43.18071518141071" lon="12.605580509021058"><ele>264.0</ele><time>2026-04-26T08:47:54.999Z</time></trkpt><trkpt lat="43.180642858482166" lon="12.605784905096067"><ele>264.0</ele><time>2026-04-26T08:47:55.999Z</time></trkpt><trkpt lat="43.180573912051024" lon="12.605991122010053"><ele>264.0</ele><time>2026-04-26T08:47:56.999Z</time></trkpt><trkpt lat="43.18050822645543" lon="12.606197670809399"><ele>264.0</ele><time>2026-04-26T08:47:57.999Z</time></trkpt><trkpt lat="43.18045125778753" lon="12.606398157450547"><ele>266.0</ele><time>2026-04-26T08:47:58.999Z</time></trkpt><trkpt lat="43.18040726859752" lon="12.606596156560888"><ele>268.0</ele><time>2026-04-26T08:47:59.999Z</time></trkpt><trkpt lat="43.18037333733761" lon="12.606789419832085"><ele>270.0</ele><time>2026-04-26T08:48:00.999Z</time></trkpt><trkpt lat="43.18034093344102" lon="12.606978244812604"><ele>272.0</ele><time>2026-04-26T08:48:01.999Z</time></trkpt><trkpt lat="43.18031209939082" lon="12.60716707351125"><ele>274.25</ele><time>2026-04-26T08:48:02.999Z</time></trkpt><trkpt lat="43.18028854471625" lon="12.607354735642508"><ele>276.5</ele><time>2026-04-26T08:48:03.999Z</time></trkpt><trkpt lat="43.18026507616958" lon="12.607534414094518"><ele>278.75</ele><time>2026-04-26T08:48:04.999Z</time></trkpt><trkpt lat="43.180255174465024" lon="12.607697033570101"><ele>281.0</ele><time>2026-04-26T08:48:05.999Z</time></trkpt><trkpt lat="43.18023277862548" lon="12.607872524718118"><ele>282.40000000000003</ele><time>2026-04-26T08:48:06.999Z</time></trkpt><trkpt lat="43.18022029985004" lon="12.608032998589279"><ele>283.8</ele><time>2026-04-26T08:48:07.999Z</time></trkpt><trkpt lat="43.180225968885296" lon="12.608195610762051"><ele>285.20000000000005</ele><time>2026-04-26T08:48:08.999Z</time></trkpt><trkpt lat="43.180247384755596" lon="12.608342658121071"><ele>286.6</ele><time>2026-04-26T08:48:09.999Z</time></trkpt><trkpt lat="43.180279652699575" lon="12.608459202816876"><ele>288.0</ele><time>2026-04-26T08:48:10.999Z</time></trkpt><trkpt lat="43.18030949366367" lon="12.608555060244463"><ele>288.0</ele><time>2026-04-26T08:48:11.999Z</time></trkpt><trkpt lat="43.18033174722539" lon="12.60865738441065"><ele>288.0</ele><time>2026-04-26T08:48:13.999Z</time></trkpt><trkpt lat="43.180390149108426" lon="12.608491603291785"><ele>288.0</ele><time>2026-04-26T08:48:19.998Z</time></trkpt><trkpt lat="43.18044242311291" lon="12.608364279571981"><ele>288.0</ele><time>2026-04-26T08:48:21.998Z</time></trkpt><trkpt lat="43.18050944873022" lon="12.608252697863868"><ele>288.0</ele><time>2026-04-26T08:48:23.998Z</time></trkpt><trkpt lat="43.180600334299335" lon="12.608152007373752"><ele>288.0</ele><time>2026-04-26T08:48:25.998Z</time></trkpt><trkpt lat="43.18066676651171" lon="12.608078184711038"><ele>288.0</ele><time>2026-04-26T08:48:27.998Z</time></trkpt><trkpt lat="43.18074587230586" lon="12.607959455306741"><ele>288.0</ele><time>2026-04-26T08:48:29.998Z</time></trkpt><trkpt lat="43.18077446047689" lon="12.607867839252936"><ele>288.0</ele><time>2026-04-26T08:48:30.998Z</time></trkpt><trkpt lat="43.18076103305772" lon="12.607755122843827"><ele>288.0</ele><time>2026-04-26T08:48:31.998Z</time></trkpt><trkpt lat="43.18072619205837" lon="12.607662793860138"><ele>288.0</ele><time>2026-04-26T08:48:32.998Z</time></trkpt><trkpt lat="43.1807189645685" lon="12.607571732109756"><ele>286.8333333333333</ele><time>2026-04-26T08:48:33.998Z</time></trkpt><trkpt lat="43.180690966529326" lon="12.607479246806031"><ele>285.6666666666667</ele><time>2026-04-26T08:48:34.998Z</time></trkpt><trkpt lat="43.18065913560081" lon="12.607354793816782"><ele>284.5</ele><time>2026-04-26T08:48:36.998Z</time></trkpt><trkpt lat="43.180669307097595" lon="12.607254327679124"><ele>283.33333333333337</ele><time>2026-04-26T08:48:38.998Z</time></trkpt><trkpt lat="43.180781999502166" lon="12.607191848266213"><ele>282.1666666666667</ele><time>2026-04-26T08:48:40.998Z</time></trkpt><trkpt lat="43.180848157047585" lon="12.6071388220708"><ele>281.0</ele><time>2026-04-26T08:48:41.998Z</time></trkpt><trkpt lat="43.18092093636915" lon="12.607075446566352"><ele>281.83333333333337</ele><time>2026-04-26T08:48:42.998Z</time></trkpt><trkpt lat="43.180993544363794" lon="12.606998728572778"><ele>282.6666666666667</ele><time>2026-04-26T08:48:43.998Z</time></trkpt><trkpt lat="43.18106766043075" lon="12.606943059659269"><ele>283.5</ele><time>2026-04-26T08:48:45Z</time></trkpt><trkpt lat="43.18114441993587" lon="12.606891375568534"><ele>284.3333333333333</ele><time>2026-04-26T08:48:46Z</time></trkpt><trkpt lat="43.18122654569946" lon="12.606847971917025"><ele>285.16666666666663</ele><time>2026-04-26T08:48:47Z</time></trkpt><trkpt lat="43.1813104793492" lon="12.606798406112585"><ele>286.0</ele><time>2026-04-26T08:48:48Z</time></trkpt><trkpt lat="43.18138942606917" lon="12.606746012389763"><ele>286.0</ele><time>2026-04-26T08:48:49Z</time></trkpt><trkpt lat="43.181477318854114" lon="12.606723831932284"><ele>286.0</ele><time>2026-04-26T08:48:50Z</time></trkpt><trkpt lat="43.181559823816784" lon="12.606683910163973"><ele>286.0</ele><time>2026-04-26T08:48:51Z</time></trkpt><trkpt lat="43.181633882541746" lon="12.606651184148998"><ele>286.0</ele><time>2026-04-26T08:48:52Z</time></trkpt><trkpt lat="43.181709090423624" lon="12.606618243752115"><ele>286.0</ele><time>2026-04-26T08:48:53Z</time></trkpt><trkpt lat="43.181786207284766" lon="12.606576075354305"><ele>286.0</ele><time>2026-04-26T08:48:54Z</time></trkpt><trkpt lat="43.18186935640217" lon="12.606543742488764"><ele>290.16666666666663</ele><time>2026-04-26T08:48:55Z</time></trkpt><trkpt lat="43.18195058229315" lon="12.606520809184865"><ele>294.3333333333333</ele><time>2026-04-26T08:48:56Z</time></trkpt><trkpt lat="43.1820301911095" lon="12.606501215425968"><ele>298.5</ele><time>2026-04-26T08:48:57Z</time></trkpt><trkpt lat="43.18210619133448" lon="12.606488463516316"><ele>302.6666666666667</ele><time>2026-04-26T08:48:58Z</time></trkpt><trkpt lat="43.18217465876592" lon="12.606489621051859"><ele>306.83333333333337</ele><time>2026-04-26T08:48:59Z</time></trkpt><trkpt lat="43.182297310523424" lon="12.606551579871429"><ele>311.0</ele><time>2026-04-26T08:49:01Z</time></trkpt><trkpt lat="43.18235656028887" lon="12.606628129579112"><ele>313.0</ele><time>2026-04-26T08:49:02Z</time></trkpt><trkpt lat="43.182425580610584" lon="12.606680600424845"><ele>315.0</ele><time>2026-04-26T08:49:03Z</time></trkpt><trkpt lat="43.18248799604092" lon="12.606722222497067"><ele>317.0</ele><time>2026-04-26T08:49:04Z</time></trkpt><trkpt lat="43.18256985125858" lon="12.606703447502042"><ele>319.0</ele><time>2026-04-26T08:49:05Z</time></trkpt><trkpt lat="43.18262780894068" lon="12.606620588581432"><ele>321.0</ele><time>2026-04-26T08:49:06Z</time></trkpt><trkpt lat="43.18265702105856" lon="12.606502676474404"><ele>323.0</ele><time>2026-04-26T08:49:07Z</time></trkpt><trkpt lat="43.18265168284374" lon="12.60638368782667"><ele>323.0</ele><time>2026-04-26T08:49:08Z</time></trkpt><trkpt lat="43.18269336391792" lon="12.606304788803161"><ele>323.0</ele><time>2026-04-26T08:49:09Z</time></trkpt><trkpt lat="43.182784214434506" lon="12.606207752982733"><ele>323.0</ele><time>2026-04-26T08:49:11Z</time></trkpt><trkpt lat="43.182849078381025" lon="12.606228033979306"><ele>323.0</ele><time>2026-04-26T08:49:12Z</time></trkpt><trkpt lat="43.182911782380884" lon="12.60626850382184"><ele>323.0</ele><time>2026-04-26T08:49:13Z</time></trkpt><trkpt lat="43.18297300395992" lon="12.606324540522824"><ele>323.0</ele><time>2026-04-26T08:49:14Z</time></trkpt><trkpt lat="43.18304143369232" lon="12.606373212965705"><ele>323.00000000000006</ele><time>2026-04-26T08:49:15Z</time></trkpt><trkpt lat="43.183115149431465" lon="12.606394773346075"><ele>323.0</ele><time>2026-04-26T08:49:16Z</time></trkpt><trkpt lat="43.18318828559229" lon="12.606386306729563"><ele>323.0</ele><time>2026-04-26T08:49:17Z</time></trkpt><trkpt lat="43.183257857781136" lon="12.606360129080862"><ele>323.0</ele><time>2026-04-26T08:49:18Z</time></trkpt><trkpt lat="43.18332025896482" lon="12.606314610065972"><ele>323.0</ele><time>2026-04-26T08:49:19Z</time></trkpt><trkpt lat="43.183373865446434" lon="12.606261356279031"><ele>323.00000000000006</ele><time>2026-04-26T08:49:20Z</time></trkpt><trkpt lat="43.183434462626195" lon="12.60621840028764"><ele>323.0</ele><time>2026-04-26T08:49:21Z</time></trkpt><trkpt lat="43.18348377051354" lon="12.60614047504771"><ele>321.5</ele><time>2026-04-26T08:49:22Z</time></trkpt><trkpt lat="43.18352855240615" lon="12.606057233942284"><ele>320.0</ele><time>2026-04-26T08:49:23Z</time></trkpt><trkpt lat="43.18357801425659" lon="12.605967978080702"><ele>318.5</ele><time>2026-04-26T08:49:24Z</time></trkpt><trkpt lat="43.183634964204145" lon="12.605888184454956"><ele>317.0</ele><time>2026-04-26T08:49:25Z</time></trkpt><trkpt lat="43.183709998144145" lon="12.605834770718468"><ele>315.5</ele><time>2026-04-26T08:49:26Z</time></trkpt><trkpt lat="43.18379682785408" lon="12.605780535783945"><ele>314.0</ele><time>2026-04-26T08:49:27Z</time></trkpt><trkpt lat="43.183886669100104" lon="12.605742430309434"><ele>314.0</ele><time>2026-04-26T08:49:28Z</time></trkpt><trkpt lat="43.18397066832466" lon="12.60571769682278"><ele>314.0</ele><time>2026-04-26T08:49:29Z</time></trkpt><trkpt lat="43.18404825698365" lon="12.605713873427803"><ele>314.0</ele><time>2026-04-26T08:49:30Z</time></trkpt><trkpt lat="43.184120448382856" lon="12.605722766538133"><ele>314.0</ele><time>2026-04-26T08:49:31Z</time></trkpt><trkpt lat="43.18419369314521" lon="12.605750523800548"><ele>314.0</ele><time>2026-04-26T08:49:32Z</time></trkpt><trkpt lat="43.18426192612591" lon="12.605797527755447"><ele>314.0</ele><time>2026-04-26T08:49:33Z</time></trkpt><trkpt lat="43.184314439281145" lon="12.605866063228353"><ele>316.83333333333337</ele><time>2026-04-26T08:49:34Z</time></trkpt><trkpt lat="43.18437628146942" lon="12.605939181958446"><ele>319.6666666666667</ele><time>2026-04-26T08:49:35Z</time></trkpt><trkpt lat="43.184424364685974" lon="12.606019790450484"><ele>322.5</ele><time>2026-04-26T08:49:36Z</time></trkpt><trkpt lat="43.18447304721947" lon="12.606076886976451"><ele>325.3333333333333</ele><time>2026-04-26T08:49:36.999Z</time></trkpt><trkpt lat="43.18453343301351" lon="12.60612361502653"><ele>328.16666666666663</ele><time>2026-04-26T08:49:37.999Z</time></trkpt><trkpt lat="43.18461344497568" lon="12.606130206976532"><ele>331.0</ele><time>2026-04-26T08:49:38.999Z</time></trkpt><trkpt lat="43.18470691015278" lon="12.6061224140157"><ele>331.0</ele><time>2026-04-26T08:49:39.999Z</time></trkpt><trkpt lat="43.18478834443982" lon="12.606113189004779"><ele>331.0</ele><time>2026-04-26T08:49:40.999Z</time></trkpt><trkpt lat="43.18489213331422" lon="12.606109355047554"><ele>331.0</ele><time>2026-04-26T08:49:42.999Z</time></trkpt><trkpt lat="43.18496921654481" lon="12.606150649959908"><ele>331.0</ele><time>2026-04-26T08:49:44.999Z</time></trkpt><trkpt lat="43.18503995516032" lon="12.606287061488125"><ele>331.0</ele><time>2026-04-26T08:49:46.999Z</time></trkpt><trkpt lat="43.18505034332824" lon="12.606372656917033"><ele>333.8333333333333</ele><time>2026-04-26T08:49:47.999Z</time></trkpt><trkpt lat="43.18508143820159" lon="12.606542672533072"><ele>336.66666666666663</ele><time>2026-04-26T08:49:49.999Z</time></trkpt><trkpt lat="43.185099421742066" lon="12.606635010829594"><ele>339.5</ele><time>2026-04-26T08:49:50.999Z</time></trkpt><trkpt lat="43.18511386697549" lon="12.606729355383091"><ele>342.3333333333333</ele><time>2026-04-26T08:49:51.999Z</time></trkpt><trkpt lat="43.185177483095316" lon="12.606795347086983"><ele>345.1666666666667</ele><time>2026-04-26T08:49:52.999Z</time></trkpt><trkpt lat="43.185234496523634" lon="12.606848008648756"><ele>348.0</ele><time>2026-04-26T08:49:53.999Z</time></trkpt><trkpt lat="43.18528719251031" lon="12.606896386328767"><ele>348.0</ele><time>2026-04-26T08:49:54.999Z</time></trkpt><trkpt lat="43.18533969267401" lon="12.60695027100182"><ele>348.0</ele><time>2026-04-26T08:49:55.999Z</time></trkpt><trkpt lat="43.18540453092566" lon="12.606974349124714"><ele>348.0</ele><time>2026-04-26T08:49:56.999Z</time></trkpt><trkpt lat="43.18548138412836" lon="12.606951975514013"><ele>348.0</ele><time>2026-04-26T08:49:57.999Z</time></trkpt><trkpt lat="43.18554341373339" lon="12.606852513699378"><ele>348.0</ele><time>2026-04-26T08:49:58.999Z</time></trkpt><trkpt lat="43.18558303321314" lon="12.60676130479593"><ele>348.0</ele><time>2026-04-26T08:49:59.999Z</time></trkpt><trkpt lat="43.18561508179534" lon="12.60667465440253"><ele>348.0</ele><time>2026-04-26T08:50:00.999Z</time></trkpt><trkpt lat="43.18564791970846" lon="12.606585178220369"><ele>348.0</ele><time>2026-04-26T08:50:01.999Z</time></trkpt><trkpt lat="43.18568250743364" lon="12.606497994079644"><ele>348.0</ele><time>2026-04-26T08:50:02.999Z</time></trkpt><trkpt lat="43.185723317459086" lon="12.606411582265213"><ele>348.0</ele><time>2026-04-26T08:50:03.999Z</time></trkpt><trkpt lat="43.18577231490561" lon="12.606331293174728"><ele>348.0</ele><time>2026-04-26T08:50:04.999Z</time></trkpt><trkpt lat="43.18583029435746" lon="12.606248478847276"><ele>348.0</ele><time>2026-04-26T08:50:05.999Z</time></trkpt><trkpt lat="43.185893067397195" lon="12.606167333925766"><ele>346.79999999999995</ele><time>2026-04-26T08:50:06.999Z</time></trkpt><trkpt lat="43.18596470321719" lon="12.606080402817677"><ele>345.6</ele><time>2026-04-26T08:50:07.999Z</time></trkpt><trkpt lat="43.18603986626267" lon="12.605992791899874"><ele>344.4</ele><time>2026-04-26T08:50:08.999Z</time></trkpt><trkpt lat="43.18611790372265" lon="12.605903439629842"><ele>343.20000000000005</ele><time>2026-04-26T08:50:09.999Z</time></trkpt><trkpt lat="43.18619448459225" lon="12.60582044388014"><ele>342.0</ele><time>2026-04-26T08:50:10.999Z</time></trkpt><trkpt lat="43.186265505365455" lon="12.605733389598555"><ele>342.0</ele><time>2026-04-26T08:50:11.999Z</time></trkpt><trkpt lat="43.18633806938996" lon="12.605666665367707"><ele>342.0</ele><time>2026-04-26T08:50:12.999Z</time></trkpt><trkpt lat="43.186407406072554" lon="12.605611220457721"><ele>342.0</ele><time>2026-04-26T08:50:13.999Z</time></trkpt><trkpt lat="43.18649168817562" lon="12.605586877531605"><ele>342.0</ele><time>2026-04-26T08:50:14.999Z</time></trkpt><trkpt lat="43.186571771443454" lon="12.605550372548825"><ele>342.0</ele><time>2026-04-26T08:50:15.999Z</time></trkpt><trkpt lat="43.18666201170689" lon="12.605507645330151"><ele>342.0</ele><time>2026-04-26T08:50:16.999Z</time></trkpt><trkpt lat="43.18674226638209" lon="12.60545988315216"><ele>344.0</ele><time>2026-04-26T08:50:17.999Z</time></trkpt><trkpt lat="43.18681154348323" lon="12.605412059885854"><ele>346.0</ele><time>2026-04-26T08:50:18.999Z</time></trkpt><trkpt lat="43.186883253099275" lon="12.605380072324875"><ele>348.0</ele><time>2026-04-26T08:50:19.999Z</time></trkpt><trkpt lat="43.186951389428636" lon="12.605329573542274"><ele>350.0</ele><time>2026-04-26T08:50:20.999Z</time></trkpt><trkpt lat="43.1870199524138" lon="12.605261610517244"><ele>352.0</ele><time>2026-04-26T08:50:21.999Z</time></trkpt><trkpt lat="43.18708404660486" lon="12.605170021953565"><ele>354.0</ele><time>2026-04-26T08:50:22.999Z</time></trkpt><trkpt lat="43.18711384714113" lon="12.605042701274392"><ele>354.0</ele><time>2026-04-26T08:50:23.998Z</time></trkpt><trkpt lat="43.18710738125203" lon="12.604930032016759"><ele>354.0</ele><time>2026-04-26T08:50:24.998Z</time></trkpt><trkpt lat="43.18710878865235" lon="12.604818023591061"><ele>354.0</ele><time>2026-04-26T08:50:25.998Z</time></trkpt><trkpt lat="43.18709726583562" lon="12.604703627959504"><ele>354.0</ele><time>2026-04-26T08:50:26.998Z</time></trkpt><trkpt lat="43.1871117744829" lon="12.60458307060396"><ele>354.0</ele><time>2026-04-26T08:50:27.998Z</time></trkpt><trkpt lat="43.18711937467311" lon="12.604458422690342"><ele>354.0</ele><time>2026-04-26T08:50:28.998Z</time></trkpt><trkpt lat="43.187128018425625" lon="12.604326016124785"><ele>351.79999999999995</ele><time>2026-04-26T08:50:29.998Z</time></trkpt><trkpt lat="43.187137834901264" lon="12.60419272760587"><ele>349.59999999999997</ele><time>2026-04-26T08:50:30.998Z</time></trkpt><trkpt lat="43.187151550538076" lon="12.604060493965775"><ele>347.4</ele><time>2026-04-26T08:50:31.998Z</time></trkpt><trkpt lat="43.187168571202555" lon="12.603930004114165"><ele>345.2</ele><time>2026-04-26T08:50:32.998Z</time></trkpt><trkpt lat="43.18718760051319" lon="12.603800304626615"><ele>343.0</ele><time>2026-04-26T08:50:33.998Z</time></trkpt><trkpt lat="43.187196248990965" lon="12.60367872595319"><ele>341.0</ele><time>2026-04-26T08:50:34.998Z</time></trkpt><trkpt lat="43.18722182498424" lon="12.603566730355908"><ele>339.0</ele><time>2026-04-26T08:50:35.998Z</time></trkpt><trkpt lat="43.1872525183527" lon="12.603475579385488"><ele>337.0</ele><time>2026-04-26T08:50:36.998Z</time></trkpt><trkpt lat="43.18729556278072" lon="12.60339138431555"><ele>335.0</ele><time>2026-04-26T08:50:37.998Z</time></trkpt><trkpt lat="43.18734713268531" lon="12.603311409955069"><ele>333.0</ele><time>2026-04-26T08:50:38.998Z</time></trkpt><trkpt lat="43.18742217860114" lon="12.603232670419178"><ele>331.0</ele><time>2026-04-26T08:50:39.998Z</time></trkpt><trkpt lat="43.18752026562844" lon="12.60317043486091"><ele>334.4</ele><time>2026-04-26T08:50:40.998Z</time></trkpt><trkpt lat="43.187616828347046" lon="12.603085833686833"><ele>337.8</ele><time>2026-04-26T08:50:41.998Z</time></trkpt><trkpt lat="43.18771293690913" lon="12.602993274109425"><ele>341.2</ele><time>2026-04-26T08:50:42.998Z</time></trkpt><trkpt lat="43.18780027520026" lon="12.602897940426944"><ele>344.59999999999997</ele><time>2026-04-26T08:50:43.998Z</time></trkpt><trkpt lat="43.18787816135652" lon="12.602809660175948"><ele>348.0</ele><time>2026-04-26T08:50:44.998Z</time></trkpt><trkpt lat="43.18795337477459" lon="12.602724789771315"><ele>348.0</ele><time>2026-04-26T08:50:45.998Z</time></trkpt><trkpt lat="43.188013752511814" lon="12.602629893240046"><ele>348.0</ele><time>2026-04-26T08:50:46.998Z</time></trkpt><trkpt lat="43.18808711837332" lon="12.602556799550191"><ele>348.0</ele><time>2026-04-26T08:50:47.998Z</time></trkpt><trkpt lat="43.18814570860255" lon="12.602469489730591"><ele>348.0</ele><time>2026-04-26T08:50:48.998Z</time></trkpt><trkpt lat="43.18821284879139" lon="12.602395507188906"><ele>348.0</ele><time>2026-04-26T08:50:49.998Z</time></trkpt><trkpt lat="43.188235370771636" lon="12.60228430571073"><ele>348.0</ele><time>2026-04-26T08:50:51Z</time></trkpt><trkpt lat="43.18825630254081" lon="12.602181578860067"><ele>352.1666666666667</ele><time>2026-04-26T08:50:52Z</time></trkpt><trkpt lat="43.188289909247516" lon="12.602080054009022"><ele>356.3333333333333</ele><time>2026-04-26T08:50:53Z</time></trkpt><trkpt lat="43.188313260720534" lon="12.601967761471277"><ele>360.5</ele><time>2026-04-26T08:50:54Z</time></trkpt><trkpt lat="43.18833543249958" lon="12.60185269492536"><ele>364.66666666666663</ele><time>2026-04-26T08:50:55Z</time></trkpt><trkpt lat="43.188356717839135" lon="12.601725683164492"><ele>368.8333333333333</ele><time>2026-04-26T08:50:56Z</time></trkpt><trkpt lat="43.1883770438301" lon="12.601597644239835"><ele>373.0</ele><time>2026-04-26T08:50:57Z</time></trkpt><trkpt lat="43.18838578511965" lon="12.601461063107955"><ele>373.0</ele><time>2026-04-26T08:50:58Z</time></trkpt><trkpt lat="43.18840521246089" lon="12.601327579727824"><ele>373.0</ele><time>2026-04-26T08:50:59Z</time></trkpt><trkpt lat="43.188431072168015" lon="12.60120110248527"><ele>373.0</ele><time>2026-04-26T08:51:00Z</time></trkpt><trkpt lat="43.18844305030585" lon="12.601079671334768"><ele>373.0</ele><time>2026-04-26T08:51:01Z</time></trkpt><trkpt lat="43.1884613967027" lon="12.600978607411246"><ele>373.0</ele><time>2026-04-26T08:51:02Z</time></trkpt><trkpt lat="43.18848747795412" lon="12.600872485835115"><ele>373.0</ele><time>2026-04-26T08:51:03Z</time></trkpt><trkpt lat="43.18853700595919" lon="12.600786764233284"><ele>372.5</ele><time>2026-04-26T08:51:04Z</time></trkpt><trkpt lat="43.188594449727965" lon="12.60070430484875"><ele>372.0</ele><time>2026-04-26T08:51:05Z</time></trkpt><trkpt lat="43.188658175764914" lon="12.600633291010503"><ele>371.5</ele><time>2026-04-26T08:51:06Z</time></trkpt><trkpt lat="43.18872621033646" lon="12.600571075787133"><ele>371.0</ele><time>2026-04-26T08:51:07Z</time></trkpt><trkpt lat="43.18879772233141" lon="12.60051253425024"><ele>370.5</ele><time>2026-04-26T08:51:08Z</time></trkpt><trkpt lat="43.18886946890521" lon="12.600453867817857"><ele>370.0</ele><time>2026-04-26T08:51:09Z</time></trkpt><trkpt lat="43.188943624431744" lon="12.600399578335512"><ele>373.0</ele><time>2026-04-26T08:51:10Z</time></trkpt><trkpt lat="43.189020985353935" lon="12.600345859496688"><ele>376.0</ele><time>2026-04-26T08:51:11Z</time></trkpt><trkpt lat="43.18910214664272" lon="12.600303339837112"><ele>379.0</ele><time>2026-04-26T08:51:12Z</time></trkpt><trkpt lat="43.189181987124215" lon="12.600269150845694"><ele>382.0</ele><time>2026-04-26T08:51:13Z</time></trkpt><trkpt lat="43.18926566134322" lon="12.60023710154087"><ele>385.00000000000006</ele><time>2026-04-26T08:51:14Z</time></trkpt><trkpt lat="43.189333676880466" lon="12.60019389696485"><ele>388.0</ele><time>2026-04-26T08:51:15Z</time></trkpt><trkpt lat="43.1894017475338" lon="12.600142823665761"><ele>388.0</ele><time>2026-04-26T08:51:16Z</time></trkpt><trkpt lat="43.18944831324704" lon="12.600035355924541"><ele>388.0</ele><time>2026-04-26T08:51:17Z</time></trkpt><trkpt lat="43.18945259572581" lon="12.599903379307422"><ele>388.0</ele><time>2026-04-26T08:51:18Z</time></trkpt><trkpt lat="43.1894633675557" lon="12.599779346262403"><ele>388.0</ele><time>2026-04-26T08:51:19Z</time></trkpt><trkpt lat="43.189472828217276" lon="12.599651441243603"><ele>388.0</ele><time>2026-04-26T08:51:20Z</time></trkpt><trkpt lat="43.189473710003035" lon="12.599524753190785"><ele>386.50000000000006</ele><time>2026-04-26T08:51:21Z</time></trkpt><trkpt lat="43.18946106373637" lon="12.599416566261812"><ele>385.0</ele><time>2026-04-26T08:51:22Z</time></trkpt><trkpt lat="43.18947345089546" lon="12.599319765403772"><ele>383.5</ele><time>2026-04-26T08:51:23Z</time></trkpt><trkpt lat="43.18950728827826" lon="12.599233673044075"><ele>382.0</ele><time>2026-04-26T08:51:24Z</time></trkpt><trkpt lat="43.18954362443016" lon="12.599104135625591"><ele>380.5</ele><time>2026-04-26T08:51:26Z</time></trkpt><trkpt lat="43.18962400788099" lon="12.598985454139553"><ele>379.0</ele><time>2026-04-26T08:51:27.999Z</time></trkpt><trkpt lat="43.18968967152614" lon="12.598962301873813"><ele>379.0</ele><time>2026-04-26T08:51:28.999Z</time></trkpt><trkpt lat="43.18975705673061" lon="12.59896671051986"><ele>379.0</ele><time>2026-04-26T08:51:29.999Z</time></trkpt><trkpt lat="43.18982616496612" lon="12.598986178349051"><ele>379.0</ele><time>2026-04-26T08:51:30.999Z</time></trkpt><trkpt lat="43.18990383739697" lon="12.59902239011021"><ele>379.0</ele><time>2026-04-26T08:51:31.999Z</time></trkpt><trkpt lat="43.18997392761172" lon="12.599062031289899"><ele>379.0</ele><time>2026-04-26T08:51:32.999Z</time></trkpt><trkpt lat="43.1900453090394" lon="12.599115589117874"><ele>379.0</ele><time>2026-04-26T08:51:33.999Z</time></trkpt><trkpt lat="43.19010746605754" lon="12.599170798935717"><ele>381.7142857142857</ele><time>2026-04-26T08:51:34.999Z</time></trkpt><trkpt lat="43.19015730914742" lon="12.599242948054929"><ele>384.42857142857144</ele><time>2026-04-26T08:51:35.999Z</time></trkpt><trkpt lat="43.190200805289585" lon="12.599322055959805"><ele>387.1428571428571</ele><time>2026-04-26T08:51:36.999Z</time></trkpt><trkpt lat="43.19022981384196" lon="12.59940666569439"><ele>389.8571428571429</ele><time>2026-04-26T08:51:37.999Z</time></trkpt><trkpt lat="43.1902501136988" lon="12.599493453369522"><ele>392.57142857142856</ele><time>2026-04-26T08:51:38.999Z</time></trkpt><trkpt lat="43.19026928900289" lon="12.599577658813432"><ele>395.2857142857143</ele><time>2026-04-26T08:51:39.999Z</time></trkpt><trkpt lat="43.19029409138606" lon="12.599664729111385"><ele>398.0</ele><time>2026-04-26T08:51:40.999Z</time></trkpt><trkpt lat="43.19031824414974" lon="12.599759271624066"><ele>399.99999999999994</ele><time>2026-04-26T08:51:41.999Z</time></trkpt><trkpt lat="43.190341840438144" lon="12.599859126074321"><ele>402.0</ele><time>2026-04-26T08:51:42.999Z</time></trkpt><trkpt lat="43.19036359561864" lon="12.5999632755475"><ele>404.0</ele><time>2026-04-26T08:51:43.999Z</time></trkpt><trkpt lat="43.19038276462724" lon="12.600075404334426"><ele>406.0</ele><time>2026-04-26T08:51:44.999Z</time></trkpt><trkpt lat="43.190408113223334" lon="12.600178024267572"><ele>407.99999999999994</ele><time>2026-04-26T08:51:45.999Z</time></trkpt><trkpt lat="43.19044512343662" lon="12.600259226028776"><ele>410.0</ele><time>2026-04-26T08:51:46.999Z</time></trkpt><trkpt lat="43.19049679797625" lon="12.600316858634073"><ele>410.8333333333333</ele><time>2026-04-26T08:51:47.999Z</time></trkpt><trkpt lat="43.19056663714674" lon="12.60034617270083"><ele>411.66666666666663</ele><time>2026-04-26T08:51:48.999Z</time></trkpt><trkpt lat="43.19065088956798" lon="12.600378924259003"><ele>412.5</ele><time>2026-04-26T08:51:49.999Z</time></trkpt><trkpt lat="43.19073114345633" lon="12.600416861729578"><ele>413.33333333333337</ele><time>2026-04-26T08:51:50.999Z</time></trkpt><trkpt lat="43.19080960223136" lon="12.60046102426359"><ele>414.1666666666667</ele><time>2026-04-26T08:51:51.999Z</time></trkpt><trkpt lat="43.19088427654671" lon="12.600502675543426"><ele>415.0</ele><time>2026-04-26T08:51:52.999Z</time></trkpt><trkpt lat="43.19096242300783" lon="12.600519827937466"><ele>415.0</ele><time>2026-04-26T08:51:53.999Z</time></trkpt><trkpt lat="43.19104914051997" lon="12.600548697763275"><ele>415.0</ele><time>2026-04-26T08:51:54.999Z</time></trkpt><trkpt lat="43.19113817012887" lon="12.600547018318432"><ele>415.0</ele><time>2026-04-26T08:51:55.999Z</time></trkpt><trkpt lat="43.19122762224183" lon="12.600537551385996"><ele>415.0</ele><time>2026-04-26T08:51:56.999Z</time></trkpt><trkpt lat="43.19132105254881" lon="12.600520030391749"><ele>415.0</ele><time>2026-04-26T08:51:57.999Z</time></trkpt><trkpt lat="43.19141778717476" lon="12.600490685030206"><ele>415.8</ele><time>2026-04-26T08:51:58.999Z</time></trkpt><trkpt lat="43.191516047162466" lon="12.600450761396225"><ele>416.6</ele><time>2026-04-26T08:51:59.999Z</time></trkpt><trkpt lat="43.19160816787252" lon="12.600409064909586"><ele>417.4</ele><time>2026-04-26T08:52:00.999Z</time></trkpt><trkpt lat="43.19169742310952" lon="12.600365028664413"><ele>418.2</ele><time>2026-04-26T08:52:01.999Z</time></trkpt><trkpt lat="43.19178765739404" lon="12.60030937308801"><ele>419.0</ele><time>2026-04-26T08:52:02.999Z</time></trkpt><trkpt lat="43.19187057381599" lon="12.60023986885823"><ele>415.6</ele><time>2026-04-26T08:52:03.999Z</time></trkpt><trkpt lat="43.191944349758984" lon="12.6001514604762"><ele>412.2</ele><time>2026-04-26T08:52:04.999Z</time></trkpt><trkpt lat="43.19201066878162" lon="12.600059668785441"><ele>408.8</ele><time>2026-04-26T08:52:05.999Z</time></trkpt><trkpt lat="43.1920764513382" lon="12.599972284370812"><ele>405.40000000000003</ele><time>2026-04-26T08:52:06.999Z</time></trkpt><trkpt lat="43.19214179403392" lon="12.599887763004498"><ele>402.0</ele><time>2026-04-26T08:52:07.999Z</time></trkpt><trkpt lat="43.19220545809175" lon="12.59980410736806"><ele>402.0</ele><time>2026-04-26T08:52:08.998Z</time></trkpt><trkpt lat="43.192268293113564" lon="12.599724973617207"><ele>402.0</ele><time>2026-04-26T08:52:09.998Z</time></trkpt><trkpt lat="43.1923344097629" lon="12.599653978446295"><ele>402.0</ele><time>2026-04-26T08:52:10.998Z</time></trkpt><trkpt lat="43.19240585903894" lon="12.599591793857199"><ele>402.0</ele><time>2026-04-26T08:52:11.998Z</time></trkpt><trkpt lat="43.192479422618916" lon="12.599552342059503"><ele>402.0</ele><time>2026-04-26T08:52:12.998Z</time></trkpt><trkpt lat="43.192555678072885" lon="12.599524338161102"><ele>402.0</ele><time>2026-04-26T08:52:13.998Z</time></trkpt><trkpt lat="43.19263460975181" lon="12.599509721954187"><ele>401.0</ele><time>2026-04-26T08:52:14.998Z</time></trkpt><trkpt lat="43.192713759343924" lon="12.599479241537152"><ele>400.0</ele><time>2026-04-26T08:52:15.998Z</time></trkpt><trkpt lat="43.192784655499835" lon="12.599510410216409"><ele>399.0</ele><time>2026-04-26T08:52:16.998Z</time></trkpt><trkpt lat="43.19284850782506" lon="12.599502198942258"><ele>398.0</ele><time>2026-04-26T08:52:17.998Z</time></trkpt><trkpt lat="43.19296453900704" lon="12.599563929691437"><ele>397.0</ele><time>2026-04-26T08:52:19.998Z</time></trkpt><trkpt lat="43.19302847329346" lon="12.599611326430255"><ele>396.0</ele><time>2026-04-26T08:52:20.998Z</time></trkpt><trkpt lat="43.19311780354279" lon="12.599653371640219"><ele>399.5</ele><time>2026-04-26T08:52:21.998Z</time></trkpt><trkpt lat="43.19320148965387" lon="12.599700738875775"><ele>403.0</ele><time>2026-04-26T08:52:22.998Z</time></trkpt><trkpt lat="43.19328376865753" lon="12.59974449247198"><ele>406.5</ele><time>2026-04-26T08:52:23.998Z</time></trkpt><trkpt lat="43.19336966609337" lon="12.59979236538975"><ele>410.0</ele><time>2026-04-26T08:52:24.998Z</time></trkpt><trkpt lat="43.19345729258254" lon="12.599839532585326"><ele>413.5</ele><time>2026-04-26T08:52:25.998Z</time></trkpt><trkpt lat="43.19353208711636" lon="12.599883537145901"><ele>417.0</ele><time>2026-04-26T08:52:26.998Z</time></trkpt><trkpt lat="43.193595743828666" lon="12.599928184451857"><ele>417.0</ele><time>2026-04-26T08:52:27.998Z</time></trkpt><trkpt lat="43.19365628036955" lon="12.599978622918853"><ele>417.0</ele><time>2026-04-26T08:52:28.998Z</time></trkpt><trkpt lat="43.1937121844426" lon="12.600047911984262"><ele>417.0</ele><time>2026-04-26T08:52:29.998Z</time></trkpt><trkpt lat="43.19376023718021" lon="12.600135394353794"><ele>417.0</ele><time>2026-04-26T08:52:30.998Z</time></trkpt><trkpt lat="43.193804018030086" lon="12.600234408166767"><ele>417.0</ele><time>2026-04-26T08:52:31.998Z</time></trkpt><trkpt lat="43.19384034954749" lon="12.600341731046438"><ele>417.0</ele><time>2026-04-26T08:52:32.998Z</time></trkpt><trkpt lat="43.193869901735425" lon="12.600449196996259"><ele>416.8333333333333</ele><time>2026-04-26T08:52:33.998Z</time></trkpt><trkpt lat="43.19389520427778" lon="12.600571979850715"><ele>416.66666666666663</ele><time>2026-04-26T08:52:34.998Z</time></trkpt><trkpt lat="43.19391990905957" lon="12.60068725208361"><ele>416.5</ele><time>2026-04-26T08:52:35.998Z</time></trkpt><trkpt lat="43.19396386713971" lon="12.600779804573625"><ele>416.3333333333333</ele><time>2026-04-26T08:52:36.998Z</time></trkpt><trkpt lat="43.19403378401942" lon="12.600852354429312"><ele>416.16666666666663</ele><time>2026-04-26T08:52:37.998Z</time></trkpt><trkpt lat="43.1941124010695" lon="12.600920839655394"><ele>416.0</ele><time>2026-04-26T08:52:38.998Z</time></trkpt><trkpt lat="43.19420169768189" lon="12.600991852148324"><ele>415.99999999999994</ele><time>2026-04-26T08:52:39.998Z</time></trkpt><trkpt lat="43.19429047179648" lon="12.601067331434809"><ele>416.0</ele><time>2026-04-26T08:52:40.998Z</time></trkpt><trkpt lat="43.19437094386447" lon="12.601133668396365"><ele>416.0</ele><time>2026-04-26T08:52:41.998Z</time></trkpt><trkpt lat="43.194450438785324" lon="12.601185118464132"><ele>416.0</ele><time>2026-04-26T08:52:42.998Z</time></trkpt><trkpt lat="43.194528627259714" lon="12.601207351220127"><ele>415.99999999999994</ele><time>2026-04-26T08:52:43.998Z</time></trkpt><trkpt lat="43.194605921584355" lon="12.601193216819567"><ele>416.0</ele><time>2026-04-26T08:52:44.998Z</time></trkpt><trkpt lat="43.194693583926394" lon="12.601166613385828"><ele>415.99999999999994</ele><time>2026-04-26T08:52:45.998Z</time></trkpt><trkpt lat="43.19477099591198" lon="12.601089460177986"><ele>416.0</ele><time>2026-04-26T08:52:46.998Z</time></trkpt><trkpt lat="43.194845863180404" lon="12.60102417531764"><ele>416.0</ele><time>2026-04-26T08:52:47.998Z</time></trkpt><trkpt lat="43.19492397709798" lon="12.600982990003065"><ele>416.0</ele><time>2026-04-26T08:52:48.998Z</time></trkpt><trkpt lat="43.194993931988776" lon="12.600961165002833"><ele>415.99999999999994</ele><time>2026-04-26T08:52:49.998Z</time></trkpt><trkpt lat="43.195066066199054" lon="12.600946598360347"><ele>416.0</ele><time>2026-04-26T08:52:50.998Z</time></trkpt><trkpt lat="43.195136671370605" lon="12.6009822929051"><ele>416.16666666666663</ele><time>2026-04-26T08:52:51.998Z</time></trkpt><trkpt lat="43.19520980933901" lon="12.601040910353934"><ele>416.3333333333333</ele><time>2026-04-26T08:52:52.998Z</time></trkpt><trkpt lat="43.19528238266783" lon="12.601105797945577"><ele>416.5</ele><time>2026-04-26T08:52:53.998Z</time></trkpt><trkpt lat="43.19535979989921" lon="12.601143753475538"><ele>416.66666666666663</ele><time>2026-04-26T08:52:54.997Z</time></trkpt><trkpt lat="43.195446549539476" lon="12.601135359264916"><ele>416.8333333333333</ele><time>2026-04-26T08:52:55.997Z</time></trkpt><trkpt lat="43.19552493110774" lon="12.601097318369865"><ele>417.0</ele><time>2026-04-26T08:52:57Z</time></trkpt><trkpt lat="43.19559727361006" lon="12.601068751784272"><ele>418.0</ele><time>2026-04-26T08:52:58Z</time></trkpt><trkpt lat="43.19568006619782" lon="12.601028525743379"><ele>419.0</ele><time>2026-04-26T08:52:59Z</time></trkpt><trkpt lat="43.195759465473365" lon="12.60097697406112"><ele>420.0</ele><time>2026-04-26T08:53:00Z</time></trkpt><trkpt lat="43.19582674847527" lon="12.600944140876319"><ele>421.0</ele><time>2026-04-26T08:53:01Z</time></trkpt><trkpt lat="43.19589371522028" lon="12.600941458379145"><ele>422.0</ele><time>2026-04-26T08:53:02Z</time></trkpt><trkpt lat="43.19597061150431" lon="12.600976495120692"><ele>423.0</ele><time>2026-04-26T08:53:03Z</time></trkpt><trkpt lat="43.19605216647551" lon="12.601031800532233"><ele>423.0</ele><time>2026-04-26T08:53:04Z</time></trkpt><trkpt lat="43.196141179031834" lon="12.60109345901633"><ele>423.0</ele><time>2026-04-26T08:53:05Z</time></trkpt><trkpt lat="43.196245063167886" lon="12.601146935806439"><ele>423.0</ele><time>2026-04-26T08:53:06Z</time></trkpt><trkpt lat="43.19634306017912" lon="12.601224617583433"><ele>423.0</ele><time>2026-04-26T08:53:07Z</time></trkpt><trkpt lat="43.19643970319632" lon="12.601323929067044"><ele>423.0</ele><time>2026-04-26T08:53:08Z</time></trkpt><trkpt lat="43.19655122556483" lon="12.601389864402611"><ele>426.4</ele><time>2026-04-26T08:53:09Z</time></trkpt><trkpt lat="43.19664384595162" lon="12.60148734103451"><ele>429.79999999999995</ele><time>2026-04-26T08:53:10Z</time></trkpt><trkpt lat="43.19674919566945" lon="12.60155102369163"><ele>433.2</ele><time>2026-04-26T08:53:11Z</time></trkpt><trkpt lat="43.196841014771415" lon="12.601629816741582"><ele>436.6</ele><time>2026-04-26T08:53:12Z</time></trkpt><trkpt lat="43.19691984566133" lon="12.601721202968106"><ele>440.0</ele><time>2026-04-26T08:53:13Z</time></trkpt><trkpt lat="43.197014484048346" lon="12.601792539141524"><ele>440.0</ele><time>2026-04-26T08:53:14Z</time></trkpt><trkpt lat="43.19709668149839" lon="12.601895711092224"><ele>440.0</ele><time>2026-04-26T08:53:15Z</time></trkpt><trkpt lat="43.197178699901414" lon="12.602004392286169"><ele>440.0</ele><time>2026-04-26T08:53:16Z</time></trkpt><trkpt lat="43.19725398132377" lon="12.602110731917668"><ele>440.0</ele><time>2026-04-26T08:53:17Z</time></trkpt><trkpt lat="43.197330853047646" lon="12.602196557228757"><ele>440.0</ele><time>2026-04-26T08:53:18Z</time></trkpt><trkpt lat="43.19739781484441" lon="12.60227340716386"><ele>440.49999999999994</ele><time>2026-04-26T08:53:19Z</time></trkpt><trkpt lat="43.197450875187634" lon="12.602357523712778"><ele>441.0</ele><time>2026-04-26T08:53:20Z</time></trkpt><trkpt lat="43.197487405241645" lon="12.60246223936793"><ele>441.5</ele><time>2026-04-26T08:53:21Z</time></trkpt><trkpt lat="43.19751558583131" lon="12.602561085797904"><ele>442.0</ele><time>2026-04-26T08:53:22Z</time></trkpt><trkpt lat="43.19754136842218" lon="12.602670332206547"><ele>442.49999999999994</ele><time>2026-04-26T08:53:23Z</time></trkpt><trkpt lat="43.19753759502745" lon="12.602793632197006"><ele>443.0</ele><time>2026-04-26T08:53:24Z</time></trkpt><trkpt lat="43.19752798115875" lon="12.602924253597525"><ele>444.2</ele><time>2026-04-26T08:53:25Z</time></trkpt><trkpt lat="43.197531975956394" lon="12.603059857114893"><ele>445.4</ele><time>2026-04-26T08:53:26Z</time></trkpt><trkpt lat="43.197549347377795" lon="12.603183319769267"><ele>446.59999999999997</ele><time>2026-04-26T08:53:27Z</time></trkpt><trkpt lat="43.19756955239894" lon="12.60330027793694"><ele>447.79999999999995</ele><time>2026-04-26T08:53:28Z</time></trkpt><trkpt lat="43.19760168801745" lon="12.60341654686897"><ele>449.0</ele><time>2026-04-26T08:53:29Z</time></trkpt><trkpt lat="43.197648660693055" lon="12.603533463290445"><ele>448.99999999999994</ele><time>2026-04-26T08:53:30Z</time></trkpt><trkpt lat="43.19771621111169" lon="12.603631212309482"><ele>449.0</ele><time>2026-04-26T08:53:31Z</time></trkpt><trkpt lat="43.19774992327682" lon="12.603748972805976"><ele>449.0</ele><time>2026-04-26T08:53:32Z</time></trkpt><trkpt lat="43.197746735521534" lon="12.60386331354663"><ele>449.0</ele><time>2026-04-26T08:53:33Z</time></trkpt><trkpt lat="43.19773402830381" lon="12.603949038072658"><ele>448.99999999999994</ele><time>2026-04-26T08:53:34Z</time></trkpt><trkpt lat="43.19769726817532" lon="12.604034923530687"><ele>449.0</ele><time>2026-04-26T08:53:35Z</time></trkpt><trkpt lat="43.19763694677293" lon="12.604104069922597"><ele>448.66666666666663</ele><time>2026-04-26T08:53:36Z</time></trkpt><trkpt lat="43.19756630576686" lon="12.604171649039648"><ele>448.3333333333333</ele><time>2026-04-26T08:53:37Z</time></trkpt><trkpt lat="43.19749072769357" lon="12.604228378994078"><ele>448.0</ele><time>2026-04-26T08:53:38Z</time></trkpt><trkpt lat="43.19740742684528" lon="12.604280315525122"><ele>447.66666666666663</ele><time>2026-04-26T08:53:39Z</time></trkpt><trkpt lat="43.197322176279016" lon="12.604311476779616"><ele>447.3333333333333</ele><time>2026-04-26T08:53:40Z</time></trkpt><trkpt lat="43.197230401092966" lon="12.604314135744795"><ele>447.0</ele><time>2026-04-26T08:53:41Z</time></trkpt><trkpt lat="43.197129759215315" lon="12.604317829777228"><ele>449.0</ele><time>2026-04-26T08:53:42Z</time></trkpt><trkpt lat="43.197022707026576" lon="12.604328218391915"><ele>451.00000000000006</ele><time>2026-04-26T08:53:43Z</time></trkpt><trkpt lat="43.19690674384284" lon="12.60433830351778"><ele>453.00000000000006</ele><time>2026-04-26T08:53:44Z</time></trkpt><trkpt lat="43.19679440822038" lon="12.604350422647475"><ele>455.0</ele><time>2026-04-26T08:53:45Z</time></trkpt><trkpt lat="43.19669963934798" lon="12.604380381230335"><ele>457.0</ele><time>2026-04-26T08:53:46Z</time></trkpt><trkpt lat="43.19661208989005" lon="12.604424805108035"><ele>457.0</ele><time>2026-04-26T08:53:46.999Z</time></trkpt><trkpt lat="43.196522085667915" lon="12.604488933722962"><ele>457.00000000000006</ele><time>2026-04-26T08:53:47.999Z</time></trkpt><trkpt lat="43.19642948265879" lon="12.604561010762469"><ele>457.00000000000006</ele><time>2026-04-26T08:53:48.999Z</time></trkpt><trkpt lat="43.19633672415071" lon="12.604634950908132"><ele>457.0</ele><time>2026-04-26T08:53:49.999Z</time></trkpt><trkpt lat="43.19624530330561" lon="12.60470915289682"><ele>457.0</ele><time>2026-04-26T08:53:50.999Z</time></trkpt><trkpt lat="43.19615282268707" lon="12.604784758154848"><ele>458.20000000000005</ele><time>2026-04-26T08:53:51.999Z</time></trkpt><trkpt lat="43.19606452126987" lon="12.604864057612946"><ele>459.40000000000003</ele><time>2026-04-26T08:53:52.999Z</time></trkpt><trkpt lat="43.195985751304995" lon="12.604950213471874"><ele>460.59999999999997</ele><time>2026-04-26T08:53:53.999Z</time></trkpt><trkpt lat="43.19591672465632" lon="12.605046371829614"><ele>461.79999999999995</ele><time>2026-04-26T08:53:54.999Z</time></trkpt><trkpt lat="43.195856582787286" lon="12.60514879906445"><ele>463.0</ele><time>2026-04-26T08:53:55.999Z</time></trkpt><trkpt lat="43.19580114548781" lon="12.605247898707995"><ele>462.2</ele><time>2026-04-26T08:53:56.999Z</time></trkpt><trkpt lat="43.19574519696067" lon="12.605347597274502"><ele>461.4</ele><time>2026-04-26T08:53:57.999Z</time></trkpt><trkpt lat="43.19569302499977" lon="12.605450110047602"><ele>460.59999999999997</ele><time>2026-04-26T08:53:58.999Z</time></trkpt><trkpt lat="43.19563686674369" lon="12.605552331891461"><ele>459.79999999999995</ele><time>2026-04-26T08:53:59.999Z</time></trkpt><trkpt lat="43.195584415136786" lon="12.605660222385703"><ele>459.0</ele><time>2026-04-26T08:54:00.999Z</time></trkpt><trkpt lat="43.195535694771834" lon="12.605775023877118"><ele>461.1666666666667</ele><time>2026-04-26T08:54:01.999Z</time></trkpt><trkpt lat="43.19549042091258" lon="12.605887604704577"><ele>463.33333333333337</ele><time>2026-04-26T08:54:02.999Z</time></trkpt><trkpt lat="43.19546058661463" lon="12.6059933276054"><ele>465.5</ele><time>2026-04-26T08:54:03.999Z</time></trkpt><trkpt lat="43.19543652763431" lon="12.606098321395208"><ele>467.6666666666667</ele><time>2026-04-26T08:54:04.999Z</time></trkpt><trkpt lat="43.19544251300511" lon="12.606245783688848"><ele>469.83333333333337</ele><time>2026-04-26T08:54:06.999Z</time></trkpt><trkpt lat="43.195468447141565" lon="12.606330662407565"><ele>472.0</ele><time>2026-04-26T08:54:08.999Z</time></trkpt><trkpt lat="43.19549086132882" lon="12.606480948024883"><ele>472.20000000000005</ele><time>2026-04-26T08:54:10.999Z</time></trkpt><trkpt lat="43.19553484456905" lon="12.606585803951994"><ele>472.40000000000003</ele><time>2026-04-26T08:54:11.999Z</time></trkpt><trkpt lat="43.195575206802765" lon="12.606661475137553"><ele>472.59999999999997</ele><time>2026-04-26T08:54:12.999Z</time></trkpt><trkpt lat="43.19564948957339" lon="12.606769847079947"><ele>472.79999999999995</ele><time>2026-04-26T08:54:14.999Z</time></trkpt><trkpt lat="43.195744648011775" lon="12.606898142497363"><ele>473.0</ele><time>2026-04-26T08:54:16.999Z</time></trkpt><trkpt lat="43.19582133215301" lon="12.607002292652838"><ele>472.99999999999994</ele><time>2026-04-26T08:54:18.999Z</time></trkpt><trkpt lat="43.195884055405834" lon="12.607081672859247"><ele>473.0</ele><time>2026-04-26T08:54:20.999Z</time></trkpt><trkpt lat="43.195933386308745" lon="12.607209348009249"><ele>473.0</ele><time>2026-04-26T08:54:22.999Z</time></trkpt><trkpt lat="43.19596458011032" lon="12.607286461081742"><ele>473.0</ele><time>2026-04-26T08:54:24.999Z</time></trkpt><trkpt lat="43.19600735923906" lon="12.6073565054483"><ele>472.99999999999994</ele><time>2026-04-26T08:54:28.999Z</time></trkpt><trkpt lat="43.196057791779005" lon="12.607426293731448"><ele>473.0</ele><time>2026-04-26T08:57:46.999Z</time></trkpt><trkpt lat="43.19613414408773" lon="12.607500550714693"><ele>472.99999999999994</ele><time>2026-04-26T08:57:48.999Z</time></trkpt><trkpt lat="43.19622327001885" lon="12.607607695430847"><ele>473.0</ele><time>2026-04-26T08:57:50.999Z</time></trkpt><trkpt lat="43.19628176893122" lon="12.607645859501847"><ele>473.0</ele><time>2026-04-26T08:57:51.999Z</time></trkpt><trkpt lat="43.196342478393866" lon="12.607671233095749"><ele>473.0</ele><time>2026-04-26T08:57:52.999Z</time></trkpt><trkpt lat="43.19640554216789" lon="12.60768658802308"><ele>472.99999999999994</ele><time>2026-04-26T08:57:53.999Z</time></trkpt><trkpt lat="43.19647993238037" lon="12.607674942517962"><ele>473.0</ele><time>2026-04-26T08:57:54.999Z</time></trkpt><trkpt lat="43.19655383693209" lon="12.607692076170409"><ele>475.0</ele><time>2026-04-26T08:57:55.999Z</time></trkpt><trkpt lat="43.19662095699254" lon="12.607703495308584"><ele>476.99999999999994</ele><time>2026-04-26T08:57:56.999Z</time></trkpt><trkpt lat="43.19673186205877" lon="12.607735311560534"><ele>478.99999999999994</ele><time>2026-04-26T08:57:58.999Z</time></trkpt><trkpt lat="43.196852999012606" lon="12.607810129982521"><ele>481.0</ele><time>2026-04-26T08:58:00.999Z</time></trkpt><trkpt lat="43.196920834398746" lon="12.607865176038066"><ele>483.0</ele><time>2026-04-26T08:58:01.999Z</time></trkpt><trkpt lat="43.19699788219395" lon="12.607930614536338"><ele>483.0</ele><time>2026-04-26T08:58:02.999Z</time></trkpt><trkpt lat="43.19708268982364" lon="12.607994759704058"><ele>482.99999999999994</ele><time>2026-04-26T08:58:03.999Z</time></trkpt><trkpt lat="43.197159100081215" lon="12.608080729971718"><ele>482.99999999999994</ele><time>2026-04-26T08:58:04.999Z</time></trkpt><trkpt lat="43.197247689236875" lon="12.608157262975912"><ele>483.0</ele><time>2026-04-26T08:58:05.999Z</time></trkpt><trkpt lat="43.197339057466976" lon="12.60822619758171"><ele>483.0</ele><time>2026-04-26T08:58:06.999Z</time></trkpt><trkpt lat="43.197439707715" lon="12.608267514171324"><ele>481.0</ele><time>2026-04-26T08:58:07.999Z</time></trkpt><trkpt lat="43.19752560244634" lon="12.608322094561316"><ele>479.0</ele><time>2026-04-26T08:58:08.999Z</time></trkpt><trkpt lat="43.19759841040575" lon="12.608370124676563"><ele>477.0</ele><time>2026-04-26T08:58:09.999Z</time></trkpt><trkpt lat="43.19766412535589" lon="12.608421180786676"><ele>475.0</ele><time>2026-04-26T08:58:10.999Z</time></trkpt><trkpt lat="43.19772601949864" lon="12.608484766815137"><ele>473.0</ele><time>2026-04-26T08:58:11.999Z</time></trkpt><trkpt lat="43.19778705517997" lon="12.608542136460526"><ele>471.0</ele><time>2026-04-26T08:58:12.999Z</time></trkpt><trkpt lat="43.19786103922605" lon="12.608642350823468"><ele>473.4</ele><time>2026-04-26T08:58:14.999Z</time></trkpt><trkpt lat="43.197924423721666" lon="12.608771518456772"><ele>475.8</ele><time>2026-04-26T08:58:16.999Z</time></trkpt><trkpt lat="43.19792026388617" lon="12.608931649890057"><ele>478.19999999999993</ele><time>2026-04-26T08:58:18.999Z</time></trkpt><trkpt lat="43.19785268767527" lon="12.609077654187146"><ele>480.59999999999997</ele><time>2026-04-26T08:58:20.999Z</time></trkpt><trkpt lat="43.19780457688126" lon="12.609164869680514"><ele>483.0</ele><time>2026-04-26T08:58:21.999Z</time></trkpt><trkpt lat="43.19774731147498" lon="12.609246771008435"><ele>483.0</ele><time>2026-04-26T08:58:22.999Z</time></trkpt><trkpt lat="43.19768951677494" lon="12.609312183057524"><ele>483.0</ele><time>2026-04-26T08:58:23.999Z</time></trkpt><trkpt lat="43.19762435310839" lon="12.60934478490595"><ele>483.0</ele><time>2026-04-26T08:58:24.999Z</time></trkpt><trkpt lat="43.19755335616828" lon="12.609360343084372"><ele>483.0</ele><time>2026-04-26T08:58:25.999Z</time></trkpt><trkpt lat="43.197479375161734" lon="12.609379616481217"><ele>483.0</ele><time>2026-04-26T08:58:26.999Z</time></trkpt><trkpt lat="43.19740481551902" lon="12.609421020913771"><ele>483.0</ele><time>2026-04-26T08:58:27.999Z</time></trkpt><trkpt lat="43.197330460549274" lon="12.609475861750798"><ele>483.3333333333333</ele><time>2026-04-26T08:58:28.999Z</time></trkpt><trkpt lat="43.197258846672995" lon="12.609548486474818"><ele>483.66666666666663</ele><time>2026-04-26T08:58:29.999Z</time></trkpt><trkpt lat="43.19719958358736" lon="12.60961675216287"><ele>484.0</ele><time>2026-04-26T08:58:30.999Z</time></trkpt><trkpt lat="43.19714564714048" lon="12.609676902741782"><ele>484.3333333333333</ele><time>2026-04-26T08:58:31.999Z</time></trkpt><trkpt lat="43.19708972763936" lon="12.609741069480535"><ele>484.66666666666663</ele><time>2026-04-26T08:58:32.998Z</time></trkpt><trkpt lat="43.19702336408167" lon="12.609802503083701"><ele>485.0</ele><time>2026-04-26T08:58:33.998Z</time></trkpt><trkpt lat="43.196945426486764" lon="12.609848483835775"><ele>484.99999999999994</ele><time>2026-04-26T08:58:34.998Z</time></trkpt><trkpt lat="43.19686073066642" lon="12.609874784232241"><ele>485.0</ele><time>2026-04-26T08:58:35.998Z</time></trkpt><trkpt lat="43.19677028158048" lon="12.609892736148455"><ele>485.0</ele><time>2026-04-26T08:58:36.998Z</time></trkpt><trkpt lat="43.19667952261252" lon="12.609916294694393"><ele>485.0</ele><time>2026-04-26T08:58:37.998Z</time></trkpt><trkpt lat="43.19658822169121" lon="12.609936106178935"><ele>484.99999999999994</ele><time>2026-04-26T08:58:38.998Z</time></trkpt><trkpt lat="43.19650310777341" lon="12.609952575643343"><ele>485.0</ele><time>2026-04-26T08:58:39.998Z</time></trkpt><trkpt lat="43.19642461180261" lon="12.609964296940632"><ele>487.16666666666663</ele><time>2026-04-26T08:58:40.998Z</time></trkpt><trkpt lat="43.196351613254265" lon="12.609974341600791"><ele>489.3333333333333</ele><time>2026-04-26T08:58:41.998Z</time></trkpt><trkpt lat="43.196281682995576" lon="12.60997644484022"><ele>491.5</ele><time>2026-04-26T08:58:42.998Z</time></trkpt><trkpt lat="43.196213950814844" lon="12.609961708708424"><ele>493.66666666666663</ele><time>2026-04-26T08:58:43.998Z</time></trkpt><trkpt lat="43.196151722247855" lon="12.609933388266718"><ele>495.8333333333333</ele><time>2026-04-26T08:58:44.998Z</time></trkpt><trkpt lat="43.19603637351726" lon="12.609889376307413"><ele>498.0</ele><time>2026-04-26T08:58:46.998Z</time></trkpt><trkpt lat="43.1959258175177" lon="12.609901139977952"><ele>498.0</ele><time>2026-04-26T08:58:48.998Z</time></trkpt><trkpt lat="43.195823010383386" lon="12.609969502374168"><ele>498.0</ele><time>2026-04-26T08:58:50.998Z</time></trkpt><trkpt lat="43.19577222097766" lon="12.610031396850209"><ele>498.0</ele><time>2026-04-26T08:58:51.998Z</time></trkpt><trkpt lat="43.195727482878745" lon="12.61010948475179"><ele>498.0</ele><time>2026-04-26T08:58:52.998Z</time></trkpt><trkpt lat="43.19568289807227" lon="12.610189256775332"><ele>498.0</ele><time>2026-04-26T08:58:53.998Z</time></trkpt><trkpt lat="43.19563217808846" lon="12.610255049891244"><ele>498.0</ele><time>2026-04-26T08:58:54.998Z</time></trkpt><trkpt lat="43.195572607724706" lon="12.610316296160756"><ele>499.1428571428571</ele><time>2026-04-26T08:58:55.998Z</time></trkpt><trkpt lat="43.195505469678494" lon="12.610355832990601"><ele>500.2857142857142</ele><time>2026-04-26T08:58:56.998Z</time></trkpt><trkpt lat="43.19544113359483" lon="12.610407198948838"><ele>501.42857142857144</ele><time>2026-04-26T08:58:57.998Z</time></trkpt><trkpt lat="43.19538002511803" lon="12.610471080234351"><ele>502.57142857142856</ele><time>2026-04-26T08:58:58.998Z</time></trkpt><trkpt lat="43.19533191312234" lon="12.610533619696495"><ele>503.7142857142857</ele><time>2026-04-26T08:58:59.998Z</time></trkpt><trkpt lat="43.19528571626411" lon="12.610597257393415"><ele>504.8571428571429</ele><time>2026-04-26T08:59:00.998Z</time></trkpt><trkpt lat="43.19523844057116" lon="12.610670526596707"><ele>506.00000000000006</ele><time>2026-04-26T08:59:01.998Z</time></trkpt><trkpt lat="43.19519740355128" lon="12.610758226918838"><ele>505.99999999999994</ele><time>2026-04-26T08:59:02.998Z</time></trkpt><trkpt lat="43.195160081562555" lon="12.610855981958492"><ele>506.0</ele><time>2026-04-26T08:59:03.998Z</time></trkpt><trkpt lat="43.19512002380904" lon="12.610947266254243"><ele>506.0</ele><time>2026-04-26T08:59:04.998Z</time></trkpt><trkpt lat="43.195083074973496" lon="12.611036797547934"><ele>506.0</ele><time>2026-04-26T08:59:05.998Z</time></trkpt><trkpt lat="43.1950471816172" lon="12.611132019187986"><ele>505.99999999999994</ele><time>2026-04-26T08:59:06.998Z</time></trkpt><trkpt lat="43.19502374439504" lon="12.611235006666464"><ele>506.0</ele><time>2026-04-26T08:59:07.998Z</time></trkpt><trkpt lat="43.194997204528924" lon="12.61133287611944"><ele>507.3333333333333</ele><time>2026-04-26T08:59:08.998Z</time></trkpt><trkpt lat="43.194975486189314" lon="12.611426530442934"><ele>508.66666666666663</ele><time>2026-04-26T08:59:09.998Z</time></trkpt><trkpt lat="43.194959653540295" lon="12.611517729907462"><ele>510.0</ele><time>2026-04-26T08:59:10.998Z</time></trkpt><trkpt lat="43.19493169131564" lon="12.611613220852949"><ele>511.33333333333337</ele><time>2026-04-26T08:59:11.998Z</time></trkpt><trkpt lat="43.194882079173716" lon="12.611698411810199"><ele>512.6666666666667</ele><time>2026-04-26T08:59:13Z</time></trkpt><trkpt lat="43.194814298097015" lon="12.611752645556567"><ele>514.0</ele><time>2026-04-26T08:59:14Z</time></trkpt><trkpt lat="43.19473969321666" lon="12.611795168735126"><ele>514.0</ele><time>2026-04-26T08:59:15Z</time></trkpt><trkpt lat="43.19466736311811" lon="12.611812373797543"><ele>514.0</ele><time>2026-04-26T08:59:16Z</time></trkpt><trkpt lat="43.194595312574414" lon="12.61184783509089"><ele>514.0</ele><time>2026-04-26T08:59:17Z</time></trkpt><trkpt lat="43.19451996650995" lon="12.611887750121218"><ele>514.0</ele><time>2026-04-26T08:59:18Z</time></trkpt><trkpt lat="43.19445312403286" lon="12.611939192896752"><ele>514.0</ele><time>2026-04-26T08:59:19Z</time></trkpt><trkpt lat="43.19439399094573" lon="12.611986585952245"><ele>514.0</ele><time>2026-04-26T08:59:20Z</time></trkpt><trkpt lat="43.194329626221574" lon="12.61212832526121"><ele>513.0</ele><time>2026-04-26T08:59:22Z</time></trkpt><trkpt lat="43.19430928517172" lon="12.612213443617373"><ele>512.0</ele><time>2026-04-26T08:59:23Z</time></trkpt><trkpt lat="43.19432659853326" lon="12.61237755811813"><ele>511.0</ele><time>2026-04-26T08:59:25Z</time></trkpt><trkpt lat="43.19433099082635" lon="12.612477986961606"><ele>510.0</ele><time>2026-04-26T08:59:26Z</time></trkpt><trkpt lat="43.194340620327" lon="12.612574803029913"><ele>509.00000000000006</ele><time>2026-04-26T08:59:27Z</time></trkpt><trkpt lat="43.194352309605236" lon="12.612671601393874"><ele>508.0</ele><time>2026-04-26T08:59:28Z</time></trkpt><trkpt lat="43.19436577921695" lon="12.612770523026585"><ele>508.33333333333337</ele><time>2026-04-26T08:59:29Z</time></trkpt><trkpt lat="43.19437084325788" lon="12.61286991059485"><ele>508.6666666666667</ele><time>2026-04-26T08:59:30Z</time></trkpt><trkpt lat="43.1944103122113" lon="12.61297106891285"><ele>509.0</ele><time>2026-04-26T08:59:31Z</time></trkpt><trkpt lat="43.1944369205944" lon="12.613072075851349"><ele>509.33333333333337</ele><time>2026-04-26T08:59:32Z</time></trkpt><trkpt lat="43.19445545735521" lon="12.613187859755188"><ele>509.6666666666667</ele><time>2026-04-26T08:59:33Z</time></trkpt><trkpt lat="43.19446926214826" lon="12.613302726500269"><ele>510.0</ele><time>2026-04-26T08:59:34Z</time></trkpt><trkpt lat="43.194479426454215" lon="12.61342598698063"><ele>510.0</ele><time>2026-04-26T08:59:35Z</time></trkpt><trkpt lat="43.19448123742469" lon="12.613532784320048"><ele>510.0</ele><time>2026-04-26T08:59:36Z</time></trkpt><trkpt lat="43.19448859862926" lon="12.61363686009439"><ele>510.0</ele><time>2026-04-26T08:59:37Z</time></trkpt><trkpt lat="43.194496421495764" lon="12.613791069630494"><ele>510.0</ele><time>2026-04-26T08:59:39Z</time></trkpt><trkpt lat="43.19447933956624" lon="12.613956499661755"><ele>510.0</ele><time>2026-04-26T08:59:41Z</time></trkpt><trkpt lat="43.19450269298901" lon="12.614060165678465"><ele>508.8571428571429</ele><time>2026-04-26T08:59:42Z</time></trkpt><trkpt lat="43.194544831224896" lon="12.614148922877943"><ele>507.7142857142858</ele><time>2026-04-26T08:59:43Z</time></trkpt><trkpt lat="43.194588829877304" lon="12.614231081212845"><ele>506.57142857142856</ele><time>2026-04-26T08:59:44Z</time></trkpt><trkpt lat="43.19462425334757" lon="12.614303675832744"><ele>505.42857142857144</ele><time>2026-04-26T08:59:45Z</time></trkpt><trkpt lat="43.19465981295844" lon="12.614385988154345"><ele>504.2857142857143</ele><time>2026-04-26T08:59:46Z</time></trkpt><trkpt lat="43.19470426303943" lon="12.614470349637587"><ele>503.1428571428571</ele><time>2026-04-26T08:59:47Z</time></trkpt><trkpt lat="43.19474720576713" lon="12.614549283379967"><ele>501.99999999999994</ele><time>2026-04-26T08:59:48Z</time></trkpt><trkpt lat="43.194799091240355" lon="12.614625421338634"><ele>502.33333333333337</ele><time>2026-04-26T08:59:49Z</time></trkpt><trkpt lat="43.19485970169917" lon="12.614689957418458"><ele>502.6666666666667</ele><time>2026-04-26T08:59:50Z</time></trkpt><trkpt lat="43.19492087397821" lon="12.614739702306903"><ele>503.0</ele><time>2026-04-26T08:59:50.999Z</time></trkpt><trkpt lat="43.19497626437168" lon="12.614813970560814"><ele>503.33333333333337</ele><time>2026-04-26T08:59:51.999Z</time></trkpt><trkpt lat="43.19502367030924" lon="12.61490346459039"><ele>503.6666666666667</ele><time>2026-04-26T08:59:52.999Z</time></trkpt><trkpt lat="43.19506185561725" lon="12.614999506794149"><ele>504.0</ele><time>2026-04-26T08:59:53.999Z</time></trkpt><trkpt lat="43.19510245223815" lon="12.615098722557477"><ele>504.0</ele><time>2026-04-26T08:59:54.999Z</time></trkpt><trkpt lat="43.195136112172015" lon="12.615211627206614"><ele>504.0</ele><time>2026-04-26T08:59:55.999Z</time></trkpt><trkpt lat="43.19516185676892" lon="12.615335090695035"><ele>504.0</ele><time>2026-04-26T08:59:56.999Z</time></trkpt><trkpt lat="43.19517168930101" lon="12.61547328522793"><ele>504.0</ele><time>2026-04-26T08:59:57.999Z</time></trkpt><trkpt lat="43.195154088987266" lon="12.615613870123775"><ele>504.0</ele><time>2026-04-26T08:59:58.999Z</time></trkpt><trkpt lat="43.19512789206671" lon="12.615758785330298"><ele>504.79999999999995</ele><time>2026-04-26T08:59:59.999Z</time></trkpt><trkpt lat="43.19508019622072" lon="12.615893080860044"><ele>505.59999999999997</ele><time>2026-04-26T09:00:00.999Z</time></trkpt><trkpt lat="43.19504124710733" lon="12.616033423524703"><ele>506.4</ele><time>2026-04-26T09:00:01.999Z</time></trkpt><trkpt lat="43.19496863535405" lon="12.616145413263107"><ele>507.2</ele><time>2026-04-26T09:00:02.999Z</time></trkpt><trkpt lat="43.19490095164864" lon="12.616254185924937"><ele>508.0</ele><time>2026-04-26T09:00:03.999Z</time></trkpt><trkpt lat="43.194815814405956" lon="12.61632858452983"><ele>509.4</ele><time>2026-04-26T09:00:04.999Z</time></trkpt><trkpt lat="43.19471926616934" lon="12.616376970303074"><ele>510.79999999999995</ele><time>2026-04-26T09:00:05.999Z</time></trkpt><trkpt lat="43.194623229484804" lon="12.616420838574342"><ele>512.2</ele><time>2026-04-26T09:00:06.999Z</time></trkpt><trkpt lat="43.194531420376016" lon="12.61648042477448"><ele>513.6</ele><time>2026-04-26T09:00:07.999Z</time></trkpt><trkpt lat="43.1944411495083" lon="12.616548131496787"><ele>515.0</ele><time>2026-04-26T09:00:08.999Z</time></trkpt><trkpt lat="43.19435182954882" lon="12.616629287272902"><ele>515.0</ele><time>2026-04-26T09:00:09.999Z</time></trkpt><trkpt lat="43.194269003713075" lon="12.616728456531922"><ele>515.0</ele><time>2026-04-26T09:00:10.999Z</time></trkpt><trkpt lat="43.194190562561374" lon="12.616854256148374"><ele>515.0</ele><time>2026-04-26T09:00:11.999Z</time></trkpt><trkpt lat="43.19412345666771" lon="12.61699710134923"><ele>515.0</ele><time>2026-04-26T09:00:12.999Z</time></trkpt><trkpt lat="43.19405494460748" lon="12.617143406714106"><ele>516.8</ele><time>2026-04-26T09:00:13.999Z</time></trkpt><trkpt lat="43.19399747875998" lon="12.617270873279775"><ele>518.6</ele><time>2026-04-26T09:00:14.999Z</time></trkpt><trkpt lat="43.19397508372514" lon="12.617390492103995"><ele>520.4</ele><time>2026-04-26T09:00:15.999Z</time></trkpt><trkpt lat="43.19397788341538" lon="12.617503180962471"><ele>522.2</ele><time>2026-04-26T09:00:16.999Z</time></trkpt><trkpt lat="43.19400210445494" lon="12.617614186415391"><ele>524.0</ele><time>2026-04-26T09:00:17.999Z</time></trkpt><trkpt lat="43.19404867178673" lon="12.617712116982625"><ele>524.0</ele><time>2026-04-26T09:00:18.999Z</time></trkpt><trkpt lat="43.19411495592545" lon="12.617803855956916"><ele>524.0</ele><time>2026-04-26T09:00:19.999Z</time></trkpt><trkpt lat="43.19419563143871" lon="12.617894505943426"><ele>524.0</ele><time>2026-04-26T09:00:20.999Z</time></trkpt><trkpt lat="43.19428169628619" lon="12.618005486661456"><ele>524.0</ele><time>2026-04-26T09:00:21.999Z</time></trkpt><trkpt lat="43.19437205085851" lon="12.61813375984999"><ele>524.0</ele><time>2026-04-26T09:00:22.999Z</time></trkpt><trkpt lat="43.194448542092296" lon="12.618270322283266"><ele>523.0</ele><time>2026-04-26T09:00:23.999Z</time></trkpt><trkpt lat="43.19448419535735" lon="12.618425835294488"><ele>522.0</ele><time>2026-04-26T09:00:24.999Z</time></trkpt><trkpt lat="43.19450910418637" lon="12.618568146593237"><ele>521.0</ele><time>2026-04-26T09:00:25.999Z</time></trkpt><trkpt lat="43.19453651923045" lon="12.618711185297466"><ele>520.0</ele><time>2026-04-26T09:00:26.999Z</time></trkpt><trkpt lat="43.19454515421368" lon="12.618855576789002"><ele>519.0</ele><time>2026-04-26T09:00:27.999Z</time></trkpt><trkpt lat="43.19455637762243" lon="12.619008224976286"><ele>517.5</ele><time>2026-04-26T09:00:28.999Z</time></trkpt><trkpt lat="43.19457020709003" lon="12.619165506279161"><ele>516.0</ele><time>2026-04-26T09:00:29.999Z</time></trkpt><trkpt lat="43.19458563574099" lon="12.619322642574808"><ele>514.5</ele><time>2026-04-26T09:00:30.999Z</time></trkpt><trkpt lat="43.19459929404491" lon="12.619477679764135"><ele>513.0</ele><time>2026-04-26T09:00:31.999Z</time></trkpt><trkpt lat="43.19460773541189" lon="12.619635001084886"><ele>512.8</ele><time>2026-04-26T09:00:32.999Z</time></trkpt><trkpt lat="43.19461180189146" lon="12.61979228570257"><ele>512.5999999999999</ele><time>2026-04-26T09:00:33.999Z</time></trkpt><trkpt lat="43.19461287674583" lon="12.619939100398895"><ele>512.4000000000001</ele><time>2026-04-26T09:00:34.999Z</time></trkpt><trkpt lat="43.19460225722369" lon="12.620072774818944"><ele>512.2</ele><time>2026-04-26T09:00:35.999Z</time></trkpt><trkpt lat="43.19457589791674" lon="12.62019996122932"><ele>512.0</ele><time>2026-04-26T09:00:36.998Z</time></trkpt><trkpt lat="43.19453347046946" lon="12.620327557116012"><ele>513.4</ele><time>2026-04-26T09:00:37.998Z</time></trkpt><trkpt lat="43.194470286495324" lon="12.620447115722694"><ele>514.8000000000001</ele><time>2026-04-26T09:00:38.998Z</time></trkpt><trkpt lat="43.194389064887766" lon="12.620551373188155"><ele>516.2</ele><time>2026-04-26T09:00:39.998Z</time></trkpt><trkpt lat="43.19429911546583" lon="12.620649084948228"><ele>517.6</ele><time>2026-04-26T09:00:40.998Z</time></trkpt><trkpt lat="43.194209500585956" lon="12.620736464174875"><ele>519.0</ele><time>2026-04-26T09:00:41.998Z</time></trkpt><trkpt lat="43.194113148466194" lon="12.620828347400703"><ele>519.0</ele><time>2026-04-26T09:00:42.998Z</time></trkpt><trkpt lat="43.19401935400206" lon="12.620919018555552"><ele>519.0</ele><time>2026-04-26T09:00:43.998Z</time></trkpt><trkpt lat="43.19392473097549" lon="12.621015243365953"><ele>519.0</ele><time>2026-04-26T09:00:44.998Z</time></trkpt><trkpt lat="43.19383783376457" lon="12.621106597296981"><ele>519.0</ele><time>2026-04-26T09:00:45.998Z</time></trkpt><trkpt lat="43.193765173058715" lon="12.62120014134509"><ele>519.0</ele><time>2026-04-26T09:00:46.998Z</time></trkpt><trkpt lat="43.193709643674985" lon="12.621306774213013"><ele>517.1666666666666</ele><time>2026-04-26T09:00:47.998Z</time></trkpt><trkpt lat="43.19367992537935" lon="12.621423359746535"><ele>515.3333333333334</ele><time>2026-04-26T09:00:48.998Z</time></trkpt><trkpt lat="43.19368003731317" lon="12.621538610945095"><ele>513.5</ele><time>2026-04-26T09:00:49.998Z</time></trkpt><trkpt lat="43.19370626391997" lon="12.621639266724527"><ele>511.6666666666667</ele><time>2026-04-26T09:00:50.998Z</time></trkpt><trkpt lat="43.193748231458585" lon="12.621721162280485"><ele>509.83333333333337</ele><time>2026-04-26T09:00:51.998Z</time></trkpt><trkpt lat="43.193797665244546" lon="12.621797135567794"><ele>508.0</ele><time>2026-04-26T09:00:52.998Z</time></trkpt><trkpt lat="43.19385217197539" lon="12.621874629805133"><ele>508.0</ele><time>2026-04-26T09:00:53.998Z</time></trkpt><trkpt lat="43.19391193077532" lon="12.621960454003897"><ele>507.99999999999994</ele><time>2026-04-26T09:00:54.998Z</time></trkpt><trkpt lat="43.19398208126865" lon="12.62204778522061"><ele>507.99999999999994</ele><time>2026-04-26T09:00:55.998Z</time></trkpt><trkpt lat="43.19405607199146" lon="12.622142258453238"><ele>508.0</ele><time>2026-04-26T09:00:56.998Z</time></trkpt><trkpt lat="43.19414229003541" lon="12.622231690319929"><ele>508.0</ele><time>2026-04-26T09:00:57.998Z</time></trkpt><trkpt lat="43.19422722631989" lon="12.622334876611353"><ele>508.5</ele><time>2026-04-26T09:00:58.998Z</time></trkpt><trkpt lat="43.19432988303877" lon="12.622416342473459"><ele>509.0</ele><time>2026-04-26T09:00:59.998Z</time></trkpt><trkpt lat="43.19442759285807" lon="12.622517579665924"><ele>509.5</ele><time>2026-04-26T09:01:00.998Z</time></trkpt><trkpt lat="43.194537601598824" lon="12.622614320153469"><ele>510.0</ele><time>2026-04-26T09:01:01.998Z</time></trkpt><trkpt lat="43.19463734444375" lon="12.622725393693967"><ele>507.0</ele><time>2026-04-26T09:01:02.998Z</time></trkpt><trkpt lat="43.19472328021545" lon="12.622861750512214"><ele>504.0</ele><time>2026-04-26T09:01:03.998Z</time></trkpt><trkpt lat="43.19479525318266" lon="12.623025560971357"><ele>501.0</ele><time>2026-04-26T09:01:04.998Z</time></trkpt><trkpt lat="43.194844896127236" lon="12.623207536708076"><ele>498.0</ele><time>2026-04-26T09:01:05.998Z</time></trkpt><trkpt lat="43.19487739761134" lon="12.623376147342096"><ele>501.0</ele><time>2026-04-26T09:01:06.998Z</time></trkpt><trkpt lat="43.194919020205255" lon="12.623518673043266"><ele>503.99999999999994</ele><time>2026-04-26T09:01:07.998Z</time></trkpt><trkpt lat="43.19497762953908" lon="12.623629319560987"><ele>506.99999999999994</ele><time>2026-04-26T09:01:08.998Z</time></trkpt><trkpt lat="43.19504819258675" lon="12.623701458676019"><ele>510.0</ele><time>2026-04-26T09:01:09.998Z</time></trkpt><trkpt lat="43.19513040517787" lon="12.623760282238747"><ele>513.0</ele><time>2026-04-26T09:01:10.998Z</time></trkpt><trkpt lat="43.19522583359427" lon="12.623817626260232"><ele>513.0</ele><time>2026-04-26T09:01:11.998Z</time></trkpt><trkpt lat="43.19532848185019" lon="12.623877614368164"><ele>513.0</ele><time>2026-04-26T09:01:12.998Z</time></trkpt><trkpt lat="43.195433742733705" lon="12.62394279729079"><ele>513.0</ele><time>2026-04-26T09:01:13.998Z</time></trkpt><trkpt lat="43.195530590995176" lon="12.6240285396628"><ele>513.0</ele><time>2026-04-26T09:01:14.998Z</time></trkpt><trkpt lat="43.19563323643935" lon="12.624115991928026"><ele>517.6</ele><time>2026-04-26T09:01:15.998Z</time></trkpt><trkpt lat="43.195718527233915" lon="12.624220520649384"><ele>522.1999999999999</ele><time>2026-04-26T09:01:16.998Z</time></trkpt><trkpt lat="43.195776281893714" lon="12.624338325878977"><ele>526.8</ele><time>2026-04-26T09:01:17.998Z</time></trkpt><trkpt lat="43.19579081150004" lon="12.624475688961674"><ele>531.4</ele><time>2026-04-26T09:01:19Z</time></trkpt><trkpt lat="43.19578789249121" lon="12.624587832194727"><ele>536.0</ele><time>2026-04-26T09:01:20Z</time></trkpt><trkpt lat="43.195787905581646" lon="12.624703023330953"><ele>536.0</ele><time>2026-04-26T09:01:21Z</time></trkpt><trkpt lat="43.19576285860683" lon="12.624811938752593"><ele>536.0</ele><time>2026-04-26T09:01:22Z</time></trkpt><trkpt lat="43.195719886006565" lon="12.624911328400145"><ele>536.0</ele><time>2026-04-26T09:01:23Z</time></trkpt><trkpt lat="43.195647793222875" lon="12.624979244201128"><ele>536.0</ele><time>2026-04-26T09:01:24Z</time></trkpt><trkpt lat="43.19558468918275" lon="12.625068305924374"><ele>536.0</ele><time>2026-04-26T09:01:25Z</time></trkpt><trkpt lat="43.19553438034168" lon="12.62516827251854"><ele>536.0</ele><time>2026-04-26T09:01:26Z</time></trkpt><trkpt lat="43.19548772315388" lon="12.625267162376264"><ele>532.4</ele><time>2026-04-26T09:01:27Z</time></trkpt><trkpt lat="43.19546616788216" lon="12.625387105091958"><ele>528.8</ele><time>2026-04-26T09:01:28Z</time></trkpt><trkpt lat="43.195458915412544" lon="12.625517740944002"><ele>525.1999999999999</ele><time>2026-04-26T09:01:29Z</time></trkpt><trkpt lat="43.19542301924855" lon="12.62564880654359"><ele>521.6</ele><time>2026-04-26T09:01:30Z</time></trkpt><trkpt lat="43.19542097486416" lon="12.625795819920459"><ele>518.0</ele><time>2026-04-26T09:01:31Z</time></trkpt><trkpt lat="43.19539311785066" lon="12.625941194973691"><ele>518.0</ele><time>2026-04-26T09:01:32Z</time></trkpt><trkpt lat="43.19535972708541" lon="12.626096982208997"><ele>518.0</ele><time>2026-04-26T09:01:33Z</time></trkpt><trkpt lat="43.195313786353864" lon="12.626250842022827"><ele>518.0</ele><time>2026-04-26T09:01:34Z</time></trkpt><trkpt lat="43.19526755702732" lon="12.62639851160429"><ele>518.0</ele><time>2026-04-26T09:01:35Z</time></trkpt><trkpt lat="43.19521867442582" lon="12.626548816918083"><ele>519.5</ele><time>2026-04-26T09:01:36Z</time></trkpt><trkpt lat="43.19516596529427" lon="12.62670778757412"><ele>521.0</ele><time>2026-04-26T09:01:37Z</time></trkpt><trkpt lat="43.195116495910234" lon="12.626870691170174"><ele>522.5</ele><time>2026-04-26T09:01:38Z</time></trkpt><trkpt lat="43.195068631779854" lon="12.627041379211805"><ele>524.0</ele><time>2026-04-26T09:01:39Z</time></trkpt><trkpt lat="43.19501925839629" lon="12.627222581309884"><ele>526.0</ele><time>2026-04-26T09:01:40Z</time></trkpt><trkpt lat="43.194969243017866" lon="12.6274156428646"><ele>528.0</ele><time>2026-04-26T09:01:41Z</time></trkpt><trkpt lat="43.194917792440215" lon="12.627601210379716"><ele>530.0</ele><time>2026-04-26T09:01:42Z</time></trkpt><trkpt lat="43.19486837505745" lon="12.627767650710902"><ele>532.0</ele><time>2026-04-26T09:01:43Z</time></trkpt><trkpt lat="43.19482387665034" lon="12.62793072686886"><ele>532.25</ele><time>2026-04-26T09:01:44Z</time></trkpt><trkpt lat="43.19478605627587" lon="12.628085552617115"><ele>532.5</ele><time>2026-04-26T09:01:45Z</time></trkpt><trkpt lat="43.19482824696558" lon="12.628245818380046"><ele>532.75</ele><time>2026-04-26T09:01:46Z</time></trkpt><trkpt lat="43.194855989145026" lon="12.628389481092904"><ele>533.0</ele><time>2026-04-26T09:01:47Z</time></trkpt><trkpt lat="43.1948936132764" lon="12.628530903278353"><ele>531.4</ele><time>2026-04-26T09:01:48Z</time></trkpt><trkpt lat="43.19493128588314" lon="12.628672550040678"><ele>529.8</ele><time>2026-04-26T09:01:49Z</time></trkpt><trkpt lat="43.194968514138466" lon="12.628802744232045"><ele>528.2</ele><time>2026-04-26T09:01:50Z</time></trkpt><trkpt lat="43.19500114616827" lon="12.628922279552373"><ele>526.6</ele><time>2026-04-26T09:01:51Z</time></trkpt><trkpt lat="43.19503732809081" lon="12.629043939416821"><ele>525.0</ele><time>2026-04-26T09:01:52Z</time></trkpt><trkpt lat="43.195075728388" lon="12.629171344452198"><ele>525.0</ele><time>2026-04-26T09:01:52.999Z</time></trkpt><trkpt lat="43.19512657272916" lon="12.629304184698274"><ele>525.0</ele><time>2026-04-26T09:01:53.999Z</time></trkpt><trkpt lat="43.1951828814114" lon="12.629434704111826"><ele>525.0</ele><time>2026-04-26T09:01:54.999Z</time></trkpt><trkpt lat="43.19525393993013" lon="12.629557860680157"><ele>525.0</ele><time>2026-04-26T09:01:55.999Z</time></trkpt><trkpt lat="43.195322564812116" lon="12.6296761369322"><ele>525.0</ele><time>2026-04-26T09:01:56.999Z</time></trkpt><trkpt lat="43.195353731765174" lon="12.629816906788404"><ele>522.2</ele><time>2026-04-26T09:01:57.999Z</time></trkpt><trkpt lat="43.195385885928225" lon="12.629955767991609"><ele>519.4</ele><time>2026-04-26T09:01:58.999Z</time></trkpt><trkpt lat="43.19542296368628" lon="12.630083821010356"><ele>516.6</ele><time>2026-04-26T09:01:59.999Z</time></trkpt><trkpt lat="43.19544145153066" lon="12.630219478871929"><ele>513.8</ele><time>2026-04-26T09:02:00.999Z</time></trkpt><trkpt lat="43.19546212681298" lon="12.630355613131952"><ele>511.0</ele><time>2026-04-26T09:02:01.999Z</time></trkpt><trkpt lat="43.195482689567605" lon="12.630499321989793"><ele>509.25</ele><time>2026-04-26T09:02:02.999Z</time></trkpt><trkpt lat="43.195506637325785" lon="12.630648567480034"><ele>507.5</ele><time>2026-04-26T09:02:03.999Z</time></trkpt><trkpt lat="43.195533558901104" lon="12.630799342135486"><ele>505.75</ele><time>2026-04-26T09:02:04.999Z</time></trkpt><trkpt lat="43.19555919648384" lon="12.630956049817057"><ele>504.0</ele><time>2026-04-26T09:02:05.999Z</time></trkpt><trkpt lat="43.19559247949786" lon="12.63111607137188"><ele>502.75</ele><time>2026-04-26T09:02:06.999Z</time></trkpt><trkpt lat="43.19562080887385" lon="12.631275822558662"><ele>501.5</ele><time>2026-04-26T09:02:07.999Z</time></trkpt><trkpt lat="43.19563880326121" lon="12.63142916373275"><ele>500.25</ele><time>2026-04-26T09:02:08.999Z</time></trkpt><trkpt lat="43.19565754103486" lon="12.631580227993782"><ele>499.0</ele><time>2026-04-26T09:02:09.999Z</time></trkpt><trkpt lat="43.19567474262249" lon="12.631733830099437"><ele>503.4</ele><time>2026-04-26T09:02:10.999Z</time></trkpt><trkpt lat="43.19569343409471" lon="12.631890939992783"><ele>507.79999999999995</ele><time>2026-04-26T09:02:11.999Z</time></trkpt><trkpt lat="43.195714611927926" lon="12.632045674558814"><ele>512.2</ele><time>2026-04-26T09:02:12.999Z</time></trkpt><trkpt lat="43.19573061689713" lon="12.632178142626858"><ele>516.6</ele><time>2026-04-26T09:02:13.999Z</time></trkpt><trkpt lat="43.19573304149016" lon="12.632288516032158"><ele>521.0</ele><time>2026-04-26T09:02:14.999Z</time></trkpt><trkpt lat="43.19571684013297" lon="12.632391442236543"><ele>522.2</ele><time>2026-04-26T09:02:15.999Z</time></trkpt><trkpt lat="43.19567683724619" lon="12.63248420694309"><ele>523.4000000000001</ele><time>2026-04-26T09:02:16.999Z</time></trkpt><trkpt lat="43.19560160730231" lon="12.63253907116294"><ele>524.6</ele><time>2026-04-26T09:02:17.999Z</time></trkpt><trkpt lat="43.19553929681258" lon="12.632629477399767"><ele>525.8000000000001</ele><time>2026-04-26T09:02:18.999Z</time></trkpt><trkpt lat="43.19546166447004" lon="12.632703477297564"><ele>527.0</ele><time>2026-04-26T09:02:19.999Z</time></trkpt><trkpt lat="43.19538715723317" lon="12.6328044603697"><ele>524.2</ele><time>2026-04-26T09:02:20.999Z</time></trkpt><trkpt lat="43.19530229564566" lon="12.632921692170193"><ele>521.4000000000001</ele><time>2026-04-26T09:02:21.999Z</time></trkpt><trkpt lat="43.19522006251789" lon="12.633020330453887"><ele>518.5999999999999</ele><time>2026-04-26T09:02:22.999Z</time></trkpt><trkpt lat="43.195157092470495" lon="12.633114059248749"><ele>515.8</ele><time>2026-04-26T09:02:23.999Z</time></trkpt><trkpt lat="43.1951149844835" lon="12.633207683244564"><ele>513.0</ele><time>2026-04-26T09:02:24.999Z</time></trkpt><trkpt lat="43.19510783402005" lon="12.633303851480356"><ele>513.0</ele><time>2026-04-26T09:02:25.999Z</time></trkpt><trkpt lat="43.19513130463541" lon="12.63339966577116"><ele>513.0</ele><time>2026-04-26T09:02:26.999Z</time></trkpt><trkpt lat="43.1951647760936" lon="12.63349955686917"><ele>513.0</ele><time>2026-04-26T09:02:27.999Z</time></trkpt><trkpt lat="43.1951826552383" lon="12.633613140049807"><ele>513.0</ele><time>2026-04-26T09:02:28.999Z</time></trkpt><trkpt lat="43.19514167110326" lon="12.633727531488404"><ele>513.0</ele><time>2026-04-26T09:02:29.999Z</time></trkpt><trkpt lat="43.19509039161881" lon="12.63382555327184"><ele>513.0</ele><time>2026-04-26T09:02:30.999Z</time></trkpt><trkpt lat="43.19502273468904" lon="12.633933678692642"><ele>513.0</ele><time>2026-04-26T09:02:31.999Z</time></trkpt><trkpt lat="43.19493130143172" lon="12.634027027270884"><ele>513.0</ele><time>2026-04-26T09:02:32.999Z</time></trkpt><trkpt lat="43.194844637360234" lon="12.634119085259515"><ele>513.0</ele><time>2026-04-26T09:02:33.999Z</time></trkpt><trkpt lat="43.19476134798723" lon="12.63420675321272"><ele>513.0</ele><time>2026-04-26T09:02:34.999Z</time></trkpt><trkpt lat="43.19467751408759" lon="12.634291317703571"><ele>513.0</ele><time>2026-04-26T09:02:35.999Z</time></trkpt><trkpt lat="43.194596179427926" lon="12.63436733676792"><ele>510.5</ele><time>2026-04-26T09:02:36.999Z</time></trkpt><trkpt lat="43.19451903845783" lon="12.634444312205638"><ele>508.0</ele><time>2026-04-26T09:02:37.999Z</time></trkpt><trkpt lat="43.19446708469512" lon="12.634523950048127"><ele>505.5</ele><time>2026-04-26T09:02:38.998Z</time></trkpt><trkpt lat="43.19444296482367" lon="12.634613640071121"><ele>503.0</ele><time>2026-04-26T09:02:39.998Z</time></trkpt><trkpt lat="43.19444855108882" lon="12.634707226402837"><ele>500.5</ele><time>2026-04-26T09:02:40.998Z</time></trkpt><trkpt lat="43.19452570606126" lon="12.634841175414142"><ele>498.0</ele><time>2026-04-26T09:02:42.998Z</time></trkpt><trkpt lat="43.19458436161589" lon="12.634872726074423"><ele>498.0</ele><time>2026-04-26T09:02:43.998Z</time></trkpt><trkpt lat="43.194655282016" lon="12.634877367247041"><ele>498.0</ele><time>2026-04-26T09:02:44.998Z</time></trkpt><trkpt lat="43.19473908908475" lon="12.634891757499204"><ele>498.0</ele><time>2026-04-26T09:02:45.998Z</time></trkpt><trkpt lat="43.19482423948888" lon="12.63487421134069"><ele>498.0</ele><time>2026-04-26T09:02:46.998Z</time></trkpt><trkpt lat="43.1949012611173" lon="12.634821454702253"><ele>498.0</ele><time>2026-04-26T09:02:47.998Z</time></trkpt><trkpt lat="43.194987952044016" lon="12.634800029870245"><ele>498.0</ele><time>2026-04-26T09:02:48.998Z</time></trkpt><trkpt lat="43.19506036131774" lon="12.63474528823538"><ele>498.3333333333333</ele><time>2026-04-26T09:02:49.998Z</time></trkpt><trkpt lat="43.1951305909284" lon="12.6346919930742"><ele>498.66666666666663</ele><time>2026-04-26T09:02:50.998Z</time></trkpt><trkpt lat="43.195202650699905" lon="12.634648280935666"><ele>499.0</ele><time>2026-04-26T09:02:51.998Z</time></trkpt><trkpt lat="43.19527736997941" lon="12.634608739995207"><ele>499.3333333333333</ele><time>2026-04-26T09:02:52.998Z</time></trkpt><trkpt lat="43.19534786040887" lon="12.63457831208402"><ele>499.66666666666663</ele><time>2026-04-26T09:02:53.998Z</time></trkpt><trkpt lat="43.195427035115856" lon="12.634535817713607"><ele>500.0</ele><time>2026-04-26T09:02:54.998Z</time></trkpt><trkpt lat="43.1955157234664" lon="12.634527434535787"><ele>500.0</ele><time>2026-04-26T09:02:55.998Z</time></trkpt><trkpt lat="43.19561140824227" lon="12.634552989023804"><ele>500.0</ele><time>2026-04-26T09:02:56.998Z</time></trkpt><trkpt lat="43.195717166948434" lon="12.634543678367162"><ele>500.0</ele><time>2026-04-26T09:02:57.998Z</time></trkpt><trkpt lat="43.19581330415017" lon="12.634556186089553"><ele>500.0</ele><time>2026-04-26T09:02:58.998Z</time></trkpt><trkpt lat="43.19590599187611" lon="12.63456505439047"><ele>500.0</ele><time>2026-04-26T09:02:59.998Z</time></trkpt><trkpt lat="43.195997565822374" lon="12.634579180303204"><ele>498.66666666666663</ele><time>2026-04-26T09:03:00.998Z</time></trkpt><trkpt lat="43.196086136751745" lon="12.634594171238223"><ele>497.3333333333333</ele><time>2026-04-26T09:03:01.998Z</time></trkpt><trkpt lat="43.196168829955646" lon="12.634613114860258"><ele>496.0</ele><time>2026-04-26T09:03:02.998Z</time></trkpt><trkpt lat="43.196244898442465" lon="12.634641248264492"><ele>494.66666666666663</ele><time>2026-04-26T09:03:03.998Z</time></trkpt><trkpt lat="43.196321407180946" lon="12.634667375339655"><ele>493.3333333333333</ele><time>2026-04-26T09:03:04.998Z</time></trkpt><trkpt lat="43.196397809753165" lon="12.634693567800376"><ele>492.0</ele><time>2026-04-26T09:03:05.998Z</time></trkpt><trkpt lat="43.19647288692881" lon="12.634734434902333"><ele>492.00000000000006</ele><time>2026-04-26T09:03:06.998Z</time></trkpt><trkpt lat="43.19653727269728" lon="12.634790874777119"><ele>492.0</ele><time>2026-04-26T09:03:07.998Z</time></trkpt><trkpt lat="43.19659044717063" lon="12.63485838460218"><ele>492.00000000000006</ele><time>2026-04-26T09:03:08.998Z</time></trkpt><trkpt lat="43.19662743526934" lon="12.634945470139998"><ele>492.00000000000006</ele><time>2026-04-26T09:03:09.998Z</time></trkpt><trkpt lat="43.19663903396832" lon="12.63504472258925"><ele>492.0</ele><time>2026-04-26T09:03:10.998Z</time></trkpt><trkpt lat="43.196613124017134" lon="12.635143507089552"><ele>492.00000000000006</ele><time>2026-04-26T09:03:11.998Z</time></trkpt><trkpt lat="43.19655281693814" lon="12.635198834019873"><ele>492.00000000000006</ele><time>2026-04-26T09:03:12.998Z</time></trkpt><trkpt lat="43.19647739571978" lon="12.635185332535913"><ele>492.0</ele><time>2026-04-26T09:03:13.998Z</time></trkpt><trkpt lat="43.1963790066882" lon="12.635172460234374"><ele>492.00000000000006</ele><time>2026-04-26T09:03:15.998Z</time></trkpt><trkpt lat="43.196315302946516" lon="12.63514789526193"><ele>492.00000000000006</ele><time>2026-04-26T09:03:17.998Z</time></trkpt><trkpt lat="43.19623976916127" lon="12.635282953824703"><ele>492.0</ele><time>2026-04-26T09:03:20.998Z</time></trkpt><trkpt lat="43.19621515395676" lon="12.635395357600496"><ele>492.0</ele><time>2026-04-26T09:03:21.998Z</time></trkpt><trkpt lat="43.196183836569425" lon="12.63550860785883"><ele>489.75</ele><time>2026-04-26T09:03:22.998Z</time></trkpt><trkpt lat="43.196143593814845" lon="12.635633548348943"><ele>487.5</ele><time>2026-04-26T09:03:23.998Z</time></trkpt><trkpt lat="43.19609100806326" lon="12.635772049912958"><ele>485.25</ele><time>2026-04-26T09:03:25Z</time></trkpt><trkpt lat="43.19603261156408" lon="12.635926712980913"><ele>483.0</ele><time>2026-04-26T09:03:26Z</time></trkpt><trkpt lat="43.19597624136076" lon="12.636088466495165"><ele>484.25</ele><time>2026-04-26T09:03:27Z</time></trkpt><trkpt lat="43.19592141638741" lon="12.63626160049498"><ele>485.5</ele><time>2026-04-26T09:03:28Z</time></trkpt><trkpt lat="43.19586156635822" lon="12.63644518821645"><ele>486.75</ele><time>2026-04-26T09:03:29Z</time></trkpt><trkpt lat="43.19579922858071" lon="12.636637699736577"><ele>488.0</ele><time>2026-04-26T09:03:30Z</time></trkpt><trkpt lat="43.195748019969784" lon="12.636834451663306"><ele>488.75</ele><time>2026-04-26T09:03:31Z</time></trkpt><trkpt lat="43.19572494571392" lon="12.637031728014442"><ele>489.5</ele><time>2026-04-26T09:03:32Z</time></trkpt><trkpt lat="43.19574012993614" lon="12.63722134672174"><ele>490.25</ele><time>2026-04-26T09:03:33Z</time></trkpt><trkpt lat="43.19579722193766" lon="12.637401531406566"><ele>491.0</ele><time>2026-04-26T09:03:34Z</time></trkpt><trkpt lat="43.19587291007257" lon="12.63757275285436"><ele>491.0</ele><time>2026-04-26T09:03:35Z</time></trkpt><trkpt lat="43.19595273472587" lon="12.637746435542423"><ele>491.0</ele><time>2026-04-26T09:03:36Z</time></trkpt><trkpt lat="43.19602996684997" lon="12.637930103171044"><ele>491.0</ele><time>2026-04-26T09:03:37Z</time></trkpt><trkpt lat="43.196104847584756" lon="12.638116811621275"><ele>486.0</ele><time>2026-04-26T09:03:38Z</time></trkpt><trkpt lat="43.196187276943796" lon="12.638299677035885"><ele>481.0</ele><time>2026-04-26T09:03:39Z</time></trkpt><trkpt lat="43.19629478442106" lon="12.638470578553221"><ele>476.0</ele><time>2026-04-26T09:03:40Z</time></trkpt><trkpt lat="43.196426436490576" lon="12.638613327180014"><ele>477.66666666666663</ele><time>2026-04-26T09:03:41Z</time></trkpt><trkpt lat="43.196579059572514" lon="12.638729586145878"><ele>479.33333333333337</ele><time>2026-04-26T09:03:42Z</time></trkpt><trkpt lat="43.19674550829712" lon="12.63881750533783"><ele>481.0</ele><time>2026-04-26T09:03:43Z</time></trkpt><trkpt lat="43.196924596984985" lon="12.638887773988248"><ele>481.0</ele><time>2026-04-26T09:03:44Z</time></trkpt><trkpt lat="43.197103167945286" lon="12.638968985571232"><ele>481.0</ele><time>2026-04-26T09:03:45Z</time></trkpt><trkpt lat="43.197290259845104" lon="12.639059872382587"><ele>481.0</ele><time>2026-04-26T09:03:46Z</time></trkpt><trkpt lat="43.19747736682384" lon="12.639157215645662"><ele>488.0</ele><time>2026-04-26T09:03:47Z</time></trkpt><trkpt lat="43.19764914635764" lon="12.639245639789872"><ele>495.0</ele><time>2026-04-26T09:03:48Z</time></trkpt><trkpt lat="43.19779740502592" lon="12.639321450884937"><ele>502.0</ele><time>2026-04-26T09:03:49Z</time></trkpt><trkpt lat="43.197928988503094" lon="12.63939314283779"><ele>504.0</ele><time>2026-04-26T09:03:50Z</time></trkpt><trkpt lat="43.198043576459995" lon="12.639481840060844"><ele>506.0</ele><time>2026-04-26T09:03:51Z</time></trkpt><trkpt lat="43.19815467567614" lon="12.639545356807862"><ele>508.0</ele><time>2026-04-26T09:03:52Z</time></trkpt><trkpt lat="43.19826252307152" lon="12.6395969724419"><ele>510.0</ele><time>2026-04-26T09:03:53Z</time></trkpt><trkpt lat="43.19833327592268" lon="12.639703731737077"><ele>510.0</ele><time>2026-04-26T09:03:54Z</time></trkpt><trkpt lat="43.19836969651258" lon="12.639835627111957"><ele>510.0</ele><time>2026-04-26T09:03:55Z</time></trkpt><trkpt lat="43.198361648117675" lon="12.63997045123942"><ele>510.0</ele><time>2026-04-26T09:03:55.999Z</time></trkpt><trkpt lat="43.19830583487337" lon="12.640093605642672"><ele>510.0</ele><time>2026-04-26T09:03:56.999Z</time></trkpt><trkpt lat="43.1982117994067" lon="12.640190552454852"><ele>510.0</ele><time>2026-04-26T09:03:57.999Z</time></trkpt><trkpt lat="43.19809898068071" lon="12.64025727514777"><ele>505.75</ele><time>2026-04-26T09:03:58.999Z</time></trkpt><trkpt lat="43.1979757197127" lon="12.640319234171578"><ele>501.5</ele><time>2026-04-26T09:03:59.999Z</time></trkpt><trkpt lat="43.19786017077703" lon="12.640409037012413"><ele>497.25</ele><time>2026-04-26T09:04:00.999Z</time></trkpt><trkpt lat="43.19777809528158" lon="12.640538559076125"><ele>493.0</ele><time>2026-04-26T09:04:01.999Z</time></trkpt><trkpt lat="43.1977440390929" lon="12.640692383851658"><ele>493.0</ele><time>2026-04-26T09:04:02.999Z</time></trkpt><trkpt lat="43.19775944573075" lon="12.640851039550325"><ele>493.0</ele><time>2026-04-26T09:04:03.999Z</time></trkpt><trkpt lat="43.19782698881275" lon="12.640999090700436"><ele>493.0</ele><time>2026-04-26T09:04:04.999Z</time></trkpt><trkpt lat="43.19795426591174" lon="12.641106321895291"><ele>493.0</ele><time>2026-04-26T09:04:05.999Z</time></trkpt><trkpt lat="43.19806204562439" lon="12.641217108205971"><ele>497.0</ele><time>2026-04-26T09:04:06.999Z</time></trkpt><trkpt lat="43.19816877702236" lon="12.641352710923394"><ele>501.0</ele><time>2026-04-26T09:04:07.999Z</time></trkpt><trkpt lat="43.198266204501294" lon="12.641517107151188"><ele>505.0</ele><time>2026-04-26T09:04:08.999Z</time></trkpt><trkpt lat="43.198356863489394" lon="12.64169456156747"><ele>505.0</ele><time>2026-04-26T09:04:09.999Z</time></trkpt><trkpt lat="43.19844147192952" lon="12.641875302052041"><ele>505.0</ele><time>2026-04-26T09:04:10.999Z</time></trkpt><trkpt lat="43.198509473779886" lon="12.64206107353997"><ele>505.0</ele><time>2026-04-26T09:04:11.999Z</time></trkpt><trkpt lat="43.19854863944091" lon="12.642254816442748"><ele>503.25</ele><time>2026-04-26T09:04:12.999Z</time></trkpt><trkpt lat="43.198555299872474" lon="12.642456040530776"><ele>501.5</ele><time>2026-04-26T09:04:13.999Z</time></trkpt><trkpt lat="43.19852258553068" lon="12.642644238357436"><ele>499.75</ele><time>2026-04-26T09:04:14.999Z</time></trkpt><trkpt lat="43.19848085595927" lon="12.642816774783276"><ele>498.0</ele><time>2026-04-26T09:04:15.999Z</time></trkpt><trkpt lat="43.19847703121698" lon="12.642997709640113"><ele>496.75</ele><time>2026-04-26T09:04:16.999Z</time></trkpt><trkpt lat="43.1985237292327" lon="12.643171620583487"><ele>495.5</ele><time>2026-04-26T09:04:17.999Z</time></trkpt><trkpt lat="43.19861280423386" lon="12.643321649602605"><ele>494.25</ele><time>2026-04-26T09:04:18.999Z</time></trkpt><trkpt lat="43.19872867979714" lon="12.643438580149414"><ele>493.0</ele><time>2026-04-26T09:04:19.999Z</time></trkpt><trkpt lat="43.19886152105826" lon="12.643538770024087"><ele>496.33333333333337</ele><time>2026-04-26T09:04:20.999Z</time></trkpt><trkpt lat="43.19900196318617" lon="12.643632220857503"><ele>499.66666666666663</ele><time>2026-04-26T09:04:21.999Z</time></trkpt><trkpt lat="43.19914135155468" lon="12.64373842294449"><ele>503.0</ele><time>2026-04-26T09:04:22.999Z</time></trkpt><trkpt lat="43.199286151560536" lon="12.643807451616425"><ele>503.0</ele><time>2026-04-26T09:04:23.999Z</time></trkpt><trkpt lat="43.19942024147325" lon="12.643843329714857"><ele>503.0</ele><time>2026-04-26T09:04:24.999Z</time></trkpt><trkpt lat="43.199524121658186" lon="12.643941178561294"><ele>503.0</ele><time>2026-04-26T09:04:25.999Z</time></trkpt><trkpt lat="43.1995928722137" lon="12.644071191648063"><ele>503.0</ele><time>2026-04-26T09:04:26.999Z</time></trkpt><trkpt lat="43.199603001915875" lon="12.644211003030462"><ele>503.0</ele><time>2026-04-26T09:04:27.999Z</time></trkpt><trkpt lat="43.199573523698575" lon="12.644335954414972"><ele>502.99999999999994</ele><time>2026-04-26T09:04:28.999Z</time></trkpt><trkpt lat="43.19951211480746" lon="12.644451182266156"><ele>502.99999999999994</ele><time>2026-04-26T09:04:29.999Z</time></trkpt><trkpt lat="43.19943226062077" lon="12.644562403097819"><ele>503.0</ele><time>2026-04-26T09:04:30.999Z</time></trkpt><trkpt lat="43.19934764634812" lon="12.644683613424448"><ele>503.0</ele><time>2026-04-26T09:04:31.999Z</time></trkpt><trkpt lat="43.19926350808548" lon="12.644816579338482"><ele>504.0</ele><time>2026-04-26T09:04:32.999Z</time></trkpt><trkpt lat="43.199174167075725" lon="12.644957571937029"><ele>505.0</ele><time>2026-04-26T09:04:33.999Z</time></trkpt><trkpt lat="43.19906480535122" lon="12.645089701411722"><ele>506.0</ele><time>2026-04-26T09:04:34.999Z</time></trkpt><trkpt lat="43.19893298984026" lon="12.645197376002118"><ele>507.0</ele><time>2026-04-26T09:04:35.999Z</time></trkpt><trkpt lat="43.19878144204285" lon="12.645271103672783"><ele>507.0</ele><time>2026-04-26T09:04:36.999Z</time></trkpt><trkpt lat="43.19860922103797" lon="12.645292048242364"><ele>507.0</ele><time>2026-04-26T09:04:37.999Z</time></trkpt><trkpt lat="43.19844966693872" lon="12.645310619083919"><ele>507.0</ele><time>2026-04-26T09:04:38.999Z</time></trkpt><trkpt lat="43.19831911028549" lon="12.64532045013213"><ele>509.75</ele><time>2026-04-26T09:04:39.999Z</time></trkpt><trkpt lat="43.19821447200277" lon="12.645331320198208"><ele>512.5</ele><time>2026-04-26T09:04:40.999Z</time></trkpt><trkpt lat="43.19811200720362" lon="12.645350254636334"><ele>515.25</ele><time>2026-04-26T09:04:41.998Z</time></trkpt><trkpt lat="43.197993786268285" lon="12.645370144972588"><ele>518.0</ele><time>2026-04-26T09:04:42.998Z</time></trkpt><trkpt lat="43.19786778912956" lon="12.645414191096986"><ele>518.0</ele><time>2026-04-26T09:04:43.998Z</time></trkpt><trkpt lat="43.197736575747356" lon="12.645486767684663"><ele>518.0</ele><time>2026-04-26T09:04:44.998Z</time></trkpt><trkpt lat="43.19760255936119" lon="12.645570334639803"><ele>518.0</ele><time>2026-04-26T09:04:45.998Z</time></trkpt><trkpt lat="43.19746447396958" lon="12.645650563042503"><ele>518.0</ele><time>2026-04-26T09:04:46.998Z</time></trkpt><trkpt lat="43.197320054222025" lon="12.645720503076403"><ele>517.3333333333333</ele><time>2026-04-26T09:04:47.998Z</time></trkpt><trkpt lat="43.19717211715794" lon="12.645760829308022"><ele>516.6666666666666</ele><time>2026-04-26T09:04:48.998Z</time></trkpt><trkpt lat="43.19701925524416" lon="12.64575876800069"><ele>516.0</ele><time>2026-04-26T09:04:49.998Z</time></trkpt><trkpt lat="43.19686588871892" lon="12.645767246552094"><ele>516.0</ele><time>2026-04-26T09:04:50.998Z</time></trkpt><trkpt lat="43.196732480281185" lon="12.645776788786957"><ele>516.0</ele><time>2026-04-26T09:04:51.998Z</time></trkpt><trkpt lat="43.19661072229008" lon="12.645785630938583"><ele>516.0</ele><time>2026-04-26T09:04:52.998Z</time></trkpt><trkpt lat="43.19650311500406" lon="12.64580824865121"><ele>516.0</ele><time>2026-04-26T09:04:53.998Z</time></trkpt><trkpt lat="43.196408215792054" lon="12.64585341492413"><ele>514.4</ele><time>2026-04-26T09:04:54.998Z</time></trkpt><trkpt lat="43.1963369405054" lon="12.64593532692243"><ele>512.8</ele><time>2026-04-26T09:04:55.998Z</time></trkpt><trkpt lat="43.19629484108649" lon="12.646053461668348"><ele>511.19999999999993</ele><time>2026-04-26T09:04:56.998Z</time></trkpt><trkpt lat="43.19628443075372" lon="12.646193236269463"><ele>509.59999999999997</ele><time>2026-04-26T09:04:57.998Z</time></trkpt><trkpt lat="43.196298457370396" lon="12.646334254199754"><ele>508.0</ele><time>2026-04-26T09:04:58.998Z</time></trkpt><trkpt lat="43.196316171014736" lon="12.646478159548364"><ele>508.0</ele><time>2026-04-26T09:04:59.998Z</time></trkpt><trkpt lat="43.196322959449994" lon="12.64662421824891"><ele>507.99999999999994</ele><time>2026-04-26T09:05:00.998Z</time></trkpt><trkpt lat="43.19631180474639" lon="12.646772410968229"><ele>507.99999999999994</ele><time>2026-04-26T09:05:01.998Z</time></trkpt><trkpt lat="43.19627972100461" lon="12.6469198095142"><ele>508.0</ele><time>2026-04-26T09:05:02.998Z</time></trkpt><trkpt lat="43.19623256323433" lon="12.647060231638577"><ele>508.0</ele><time>2026-04-26T09:05:03.998Z</time></trkpt><trkpt lat="43.1961708765011" lon="12.647189358840151"><ele>509.0</ele><time>2026-04-26T09:05:04.998Z</time></trkpt><trkpt lat="43.196100873539855" lon="12.647309588872423"><ele>510.0</ele><time>2026-04-26T09:05:05.998Z</time></trkpt><trkpt lat="43.19603285020903" lon="12.647435442286596"><ele>511.0</ele><time>2026-04-26T09:05:06.998Z</time></trkpt><trkpt lat="43.195966752963635" lon="12.64756859300551"><ele>512.0</ele><time>2026-04-26T09:05:07.998Z</time></trkpt><trkpt lat="43.19589876206575" lon="12.647711498551063"><ele>512.4</ele><time>2026-04-26T09:05:08.998Z</time></trkpt><trkpt lat="43.195846099208694" lon="12.647845075016745"><ele>512.8000000000001</ele><time>2026-04-26T09:05:09.998Z</time></trkpt><trkpt lat="43.1958184021119" lon="12.647978922718567"><ele>513.2</ele><time>2026-04-26T09:05:10.998Z</time></trkpt><trkpt lat="43.195814378508665" lon="12.648116837262235"><ele>513.6</ele><time>2026-04-26T09:05:11.998Z</time></trkpt><trkpt lat="43.19583272367104" lon="12.648271308764166"><ele>514.0</ele><time>2026-04-26T09:05:12.998Z</time></trkpt><trkpt lat="43.195877291845555" lon="12.64842544218063"><ele>514.0</ele><time>2026-04-26T09:05:13.998Z</time></trkpt><trkpt lat="43.19594378523621" lon="12.64856586611339"><ele>514.0</ele><time>2026-04-26T09:05:14.998Z</time></trkpt><trkpt lat="43.19602443434625" lon="12.648703892725365"><ele>514.0</ele><time>2026-04-26T09:05:15.998Z</time></trkpt><trkpt lat="43.19610979630929" lon="12.648845326037794"><ele>514.0</ele><time>2026-04-26T09:05:16.998Z</time></trkpt><trkpt lat="43.19619455066278" lon="12.648985418691765"><ele>514.0</ele><time>2026-04-26T09:05:17.998Z</time></trkpt><trkpt lat="43.19627895689804" lon="12.649117187354403"><ele>514.0</ele><time>2026-04-26T09:05:18.998Z</time></trkpt><trkpt lat="43.19635566935019" lon="12.649243310067373"><ele>514.0</ele><time>2026-04-26T09:05:19.998Z</time></trkpt><trkpt lat="43.19642530309449" lon="12.649367828031323"><ele>514.0</ele><time>2026-04-26T09:05:20.998Z</time></trkpt><trkpt lat="43.19648922594958" lon="12.649478241317786"><ele>514.0</ele><time>2026-04-26T09:05:21.998Z</time></trkpt><trkpt lat="43.19653783410193" lon="12.649579643776867"><ele>514.0</ele><time>2026-04-26T09:05:22.998Z</time></trkpt><trkpt lat="43.196566350033386" lon="12.649683721903717"><ele>514.0</ele><time>2026-04-26T09:05:23.998Z</time></trkpt><trkpt lat="43.196579805357224" lon="12.649795740270218"><ele>514.0</ele><time>2026-04-26T09:05:24.998Z</time></trkpt><trkpt lat="43.19658219577256" lon="12.649916286703936"><ele>514.0</ele><time>2026-04-26T09:05:25.998Z</time></trkpt><trkpt lat="43.19658617257307" lon="12.650045930006474"><ele>514.0</ele><time>2026-04-26T09:05:26.998Z</time></trkpt><trkpt lat="43.19658978967881" lon="12.650180539277114"><ele>515.2</ele><time>2026-04-26T09:05:27.998Z</time></trkpt><trkpt lat="43.19658580941828" lon="12.650309801741018"><ele>516.4</ele><time>2026-04-26T09:05:28.997Z</time></trkpt><trkpt lat="43.19655420299035" lon="12.650418031874231"><ele>517.6</ele><time>2026-04-26T09:05:30Z</time></trkpt><trkpt lat="43.19649427904634" lon="12.650507465210804"><ele>518.8</ele><time>2026-04-26T09:05:31Z</time></trkpt><trkpt lat="43.19639443782598" lon="12.650542078786367"><ele>520.0</ele><time>2026-04-26T09:05:32Z</time></trkpt><trkpt lat="43.196305887422284" lon="12.650587045769928"><ele>520.25</ele><time>2026-04-26T09:05:33Z</time></trkpt><trkpt lat="43.19620664474814" lon="12.65064431918503"><ele>520.5</ele><time>2026-04-26T09:05:34Z</time></trkpt><trkpt lat="43.196100788057215" lon="12.650714002311021"><ele>520.75</ele><time>2026-04-26T09:05:35Z</time></trkpt><trkpt lat="43.195995150581965" lon="12.650791161628396"><ele>521.0</ele><time>2026-04-26T09:05:36Z</time></trkpt><trkpt lat="43.195880017993645" lon="12.65088666206556"><ele>521.0</ele><time>2026-04-26T09:05:37Z</time></trkpt><trkpt lat="43.195763617236395" lon="12.650985661972287"><ele>521.0</ele><time>2026-04-26T09:05:38Z</time></trkpt><trkpt lat="43.19564655228616" lon="12.65109423229699"><ele>521.0</ele><time>2026-04-26T09:05:39Z</time></trkpt><trkpt lat="43.195526075534204" lon="12.651209307306578"><ele>521.0</ele><time>2026-04-26T09:05:40Z</time></trkpt><trkpt lat="43.19540863810103" lon="12.651323372153902"><ele>522.75</ele><time>2026-04-26T09:05:41Z</time></trkpt><trkpt lat="43.195291107291524" lon="12.651430308889228"><ele>524.5</ele><time>2026-04-26T09:05:42Z</time></trkpt><trkpt lat="43.19517693432699" lon="12.651538174924793"><ele>526.25</ele><time>2026-04-26T09:05:43Z</time></trkpt><trkpt lat="43.195067119115066" lon="12.651641108498092"><ele>528.0</ele><time>2026-04-26T09:05:44Z</time></trkpt><trkpt lat="43.19495683989331" lon="12.651732654415005"><ele>528.0</ele><time>2026-04-26T09:05:45Z</time></trkpt><trkpt lat="43.19486901143256" lon="12.651811615146103"><ele>528.0</ele><time>2026-04-26T09:05:46Z</time></trkpt><trkpt lat="43.19479507371315" lon="12.651888403712803"><ele>528.0</ele><time>2026-04-26T09:05:47Z</time></trkpt><trkpt lat="43.19473475831283" lon="12.65197315503057"><ele>528.0</ele><time>2026-04-26T09:05:48Z</time></trkpt><trkpt lat="43.194674522880526" lon="12.652078045980536"><ele>528.0</ele><time>2026-04-26T09:05:49Z</time></trkpt><trkpt lat="43.19462550481317" lon="12.652200409414691"><ele>527.75</ele><time>2026-04-26T09:05:50Z</time></trkpt><trkpt lat="43.194597264834485" lon="12.652345151312208"><ele>527.5</ele><time>2026-04-26T09:05:51Z</time></trkpt><trkpt lat="43.1945821032147" lon="12.652510343852995"><ele>527.25</ele><time>2026-04-26T09:05:52Z</time></trkpt><trkpt lat="43.1945670337417" lon="12.652689003783491"><ele>527.0</ele><time>2026-04-26T09:05:53Z</time></trkpt><trkpt lat="43.19454522152603" lon="12.652874855641496"><ele>527.0</ele><time>2026-04-26T09:05:54Z</time></trkpt><trkpt lat="43.19451758628054" lon="12.653067993177343"><ele>527.0</ele><time>2026-04-26T09:05:55Z</time></trkpt><trkpt lat="43.19447571833686" lon="12.653267172289736"><ele>527.0</ele><time>2026-04-26T09:05:56Z</time></trkpt><trkpt lat="43.19440110070292" lon="12.653453440053001"><ele>527.25</ele><time>2026-04-26T09:05:57Z</time></trkpt><trkpt lat="43.1943074612291" lon="12.65362652250354"><ele>527.5</ele><time>2026-04-26T09:05:58Z</time></trkpt><trkpt lat="43.19422615878962" lon="12.653797014128422"><ele>527.75</ele><time>2026-04-26T09:05:58.999Z</time></trkpt><trkpt lat="43.19416426270878" lon="12.65395285392505"><ele>528.0</ele><time>2026-04-26T09:05:59.999Z</time></trkpt><trkpt lat="43.19410779589852" lon="12.65409660620841"><ele>528.0</ele><time>2026-04-26T09:06:00.999Z</time></trkpt><trkpt lat="43.194045133130764" lon="12.654232782818628"><ele>528.0</ele><time>2026-04-26T09:06:01.999Z</time></trkpt><trkpt lat="43.19397858741235" lon="12.65437964833555"><ele>528.0</ele><time>2026-04-26T09:06:02.999Z</time></trkpt><trkpt lat="43.193909410611916" lon="12.654533234452398"><ele>528.0</ele><time>2026-04-26T09:06:03.999Z</time></trkpt><trkpt lat="43.19382645929708" lon="12.65468194974059"><ele>530.0</ele><time>2026-04-26T09:06:04.999Z</time></trkpt><trkpt lat="43.1937261551928" lon="12.654810656197927"><ele>532.0</ele><time>2026-04-26T09:06:05.999Z</time></trkpt><trkpt lat="43.19361953617895" lon="12.654933424274331"><ele>534.0</ele><time>2026-04-26T09:06:06.999Z</time></trkpt><trkpt lat="43.19352278025727" lon="12.65506003714761"><ele>536.0</ele><time>2026-04-26T09:06:07.999Z</time></trkpt><trkpt lat="43.193452075795044" lon="12.65519789169872"><ele>537.0</ele><time>2026-04-26T09:06:08.999Z</time></trkpt><trkpt lat="43.19340761782979" lon="12.65534009264417"><ele>538.0</ele><time>2026-04-26T09:06:09.999Z</time></trkpt><trkpt lat="43.19339450575399" lon="12.655486317277958"><ele>539.0</ele><time>2026-04-26T09:06:10.999Z</time></trkpt><trkpt lat="43.193391273598365" lon="12.655623331443241"><ele>540.0</ele><time>2026-04-26T09:06:11.999Z</time></trkpt><trkpt lat="43.19339447657419" lon="12.65576723941563"><ele>541.0</ele><time>2026-04-26T09:06:12.999Z</time></trkpt><trkpt lat="43.193417775181004" lon="12.65591448523929"><ele>541.0</ele><time>2026-04-26T09:06:13.999Z</time></trkpt><trkpt lat="43.19346481153566" lon="12.656055990865962"><ele>541.0</ele><time>2026-04-26T09:06:14.999Z</time></trkpt><trkpt lat="43.193513824644064" lon="12.656197160793552"><ele>541.0</ele><time>2026-04-26T09:06:15.999Z</time></trkpt><trkpt lat="43.193541316936155" lon="12.656350980136477"><ele>541.0</ele><time>2026-04-26T09:06:16.999Z</time></trkpt><trkpt lat="43.19352967243175" lon="12.65651934377987"><ele>541.8</ele><time>2026-04-26T09:06:17.999Z</time></trkpt><trkpt lat="43.193503636222495" lon="12.656689867925198"><ele>542.6</ele><time>2026-04-26T09:06:18.999Z</time></trkpt><trkpt lat="43.19349256252128" lon="12.656848384530964"><ele>543.4</ele><time>2026-04-26T09:06:19.999Z</time></trkpt><trkpt lat="43.19348585223526" lon="12.65699182265553"><ele>544.2</ele><time>2026-04-26T09:06:20.999Z</time></trkpt><trkpt lat="43.19346553331841" lon="12.657102314645492"><ele>545.0</ele><time>2026-04-26T09:06:21.999Z</time></trkpt><trkpt lat="43.19341782197316" lon="12.657189976181957"><ele>545.0</ele><time>2026-04-26T09:06:22.999Z</time></trkpt><trkpt lat="43.193331276699446" lon="12.657249909013569"><ele>545.0</ele><time>2026-04-26T09:06:23.999Z</time></trkpt><trkpt lat="43.19325945852747" lon="12.6573173609052"><ele>545.0</ele><time>2026-04-26T09:06:24.999Z</time></trkpt><trkpt lat="43.1931812015501" lon="12.657405738665231"><ele>545.0</ele><time>2026-04-26T09:06:25.999Z</time></trkpt><trkpt lat="43.19311124730614" lon="12.657510250222042"><ele>545.0</ele><time>2026-04-26T09:06:26.999Z</time></trkpt><trkpt lat="43.19305217380982" lon="12.657633534392478"><ele>547.8</ele><time>2026-04-26T09:06:27.999Z</time></trkpt><trkpt lat="43.193014955959335" lon="12.657780872889694"><ele>550.6</ele><time>2026-04-26T09:06:28.999Z</time></trkpt><trkpt lat="43.19298613572246" lon="12.657937569467233"><ele>553.4</ele><time>2026-04-26T09:06:29.999Z</time></trkpt><trkpt lat="43.19294938432018" lon="12.658077428802926"><ele>556.2</ele><time>2026-04-26T09:06:30.999Z</time></trkpt><trkpt lat="43.19290333904249" lon="12.658197631751193"><ele>559.0</ele><time>2026-04-26T09:06:31.999Z</time></trkpt><trkpt lat="43.19283498010747" lon="12.65830077088039"><ele>559.0</ele><time>2026-04-26T09:06:32.999Z</time></trkpt><trkpt lat="43.19275295544835" lon="12.658371458088807"><ele>559.0</ele><time>2026-04-26T09:06:33.999Z</time></trkpt><trkpt lat="43.19265866977489" lon="12.658360269674892"><ele>559.0</ele><time>2026-04-26T09:06:34.999Z</time></trkpt><trkpt lat="43.1925527674755" lon="12.658369034031914"><ele>559.0</ele><time>2026-04-26T09:06:35.999Z</time></trkpt><trkpt lat="43.19242621959513" lon="12.658346514867452"><ele>559.0</ele><time>2026-04-26T09:06:36.999Z</time></trkpt><trkpt lat="43.192291920216576" lon="12.658330917252531"><ele>559.25</ele><time>2026-04-26T09:06:37.999Z</time></trkpt><trkpt lat="43.192153443506434" lon="12.658349144997617"><ele>559.5</ele><time>2026-04-26T09:06:38.999Z</time></trkpt><trkpt lat="43.192024833082854" lon="12.658428035561238"><ele>559.75</ele><time>2026-04-26T09:06:39.999Z</time></trkpt><trkpt lat="43.19191337566132" lon="12.658529407468958"><ele>560.0</ele><time>2026-04-26T09:06:40.999Z</time></trkpt><trkpt lat="43.191822731750605" lon="12.65866453621878"><ele>560.0</ele><time>2026-04-26T09:06:41.999Z</time></trkpt><trkpt lat="43.191740903177866" lon="12.658815963006685"><ele>560.0</ele><time>2026-04-26T09:06:42.999Z</time></trkpt><trkpt lat="43.191661337839285" lon="12.658979527658342"><ele>560.0</ele><time>2026-04-26T09:06:43.999Z</time></trkpt><trkpt lat="43.19159630597312" lon="12.659142880393825"><ele>560.0</ele><time>2026-04-26T09:06:44.999Z</time></trkpt><trkpt lat="43.191559697363644" lon="12.659298743893869"><ele>560.0</ele><time>2026-04-26T09:06:45.998Z</time></trkpt><trkpt lat="43.19155908474806" lon="12.659443589292342"><ele>560.0</ele><time>2026-04-26T09:06:46.998Z</time></trkpt><trkpt lat="43.19159920390023" lon="12.65956788888998"><ele>560.0</ele><time>2026-04-26T09:06:47.998Z</time></trkpt><trkpt lat="43.19167130100298" lon="12.659671694783256"><ele>560.0</ele><time>2026-04-26T09:06:48.998Z</time></trkpt><trkpt lat="43.19175011817956" lon="12.659760848413573"><ele>560.0</ele><time>2026-04-26T09:06:49.998Z</time></trkpt><trkpt lat="43.19180803282553" lon="12.659824160629647"><ele>561.5</ele><time>2026-04-26T09:06:50.998Z</time></trkpt><trkpt lat="43.19187242969838" lon="12.659919522250984"><ele>563.0</ele><time>2026-04-26T09:06:52.998Z</time></trkpt><trkpt lat="43.191942785743" lon="12.66003857806245"><ele>564.5</ele><time>2026-04-26T09:06:54.998Z</time></trkpt><trkpt lat="43.19197713018878" lon="12.660117910167198"><ele>566.0</ele><time>2026-04-26T09:06:55.998Z</time></trkpt><trkpt lat="43.19200966407275" lon="12.660223098607654"><ele>567.5</ele><time>2026-04-26T09:06:56.998Z</time></trkpt><trkpt lat="43.19203877243294" lon="12.660340701249806"><ele>569.0</ele><time>2026-04-26T09:06:57.998Z</time></trkpt><trkpt lat="43.19205017540948" lon="12.660462109366048"><ele>570.4</ele><time>2026-04-26T09:06:58.998Z</time></trkpt><trkpt lat="43.19205037403098" lon="12.660600142556135"><ele>571.8</ele><time>2026-04-26T09:06:59.998Z</time></trkpt><trkpt lat="43.19201969282064" lon="12.660730597160804"><ele>573.2</ele><time>2026-04-26T09:07:00.998Z</time></trkpt><trkpt lat="43.19196810390399" lon="12.660852230073042"><ele>574.6</ele><time>2026-04-26T09:07:01.998Z</time></trkpt><trkpt lat="43.19188410275401" lon="12.660962278928498"><ele>576.0</ele><time>2026-04-26T09:07:02.998Z</time></trkpt><trkpt lat="43.19180470607705" lon="12.661086992019193"><ele>573.5</ele><time>2026-04-26T09:07:03.998Z</time></trkpt><trkpt lat="43.19172618110138" lon="12.661224757156408"><ele>571.0</ele><time>2026-04-26T09:07:04.998Z</time></trkpt><trkpt lat="43.19164784020414" lon="12.66136583442155"><ele>568.5</ele><time>2026-04-26T09:07:05.998Z</time></trkpt><trkpt lat="43.19156604766151" lon="12.661511266160622"><ele>566.0</ele><time>2026-04-26T09:07:06.998Z</time></trkpt><trkpt lat="43.19147875256819" lon="12.661658551945097"><ele>570.0</ele><time>2026-04-26T09:07:07.998Z</time></trkpt><trkpt lat="43.19141424432629" lon="12.661822843129613"><ele>574.0</ele><time>2026-04-26T09:07:08.998Z</time></trkpt><trkpt lat="43.19138587607549" lon="12.662004271159024"><ele>578.0</ele><time>2026-04-26T09:07:09.998Z</time></trkpt><trkpt lat="43.19137411834535" lon="12.66219069068096"><ele>582.0</ele><time>2026-04-26T09:07:10.998Z</time></trkpt><trkpt lat="43.191371551926025" lon="12.66237291297407"><ele>582.0</ele><time>2026-04-26T09:07:11.998Z</time></trkpt><trkpt lat="43.19135440483564" lon="12.662540494670717"><ele>582.0</ele><time>2026-04-26T09:07:12.998Z</time></trkpt><trkpt lat="43.19130032963881" lon="12.662675726160707"><ele>582.0</ele><time>2026-04-26T09:07:13.998Z</time></trkpt><trkpt lat="43.19121105641889" lon="12.662775207611897"><ele>582.0</ele><time>2026-04-26T09:07:14.998Z</time></trkpt><trkpt lat="43.191100494133515" lon="12.662853065921563"><ele>582.0</ele><time>2026-04-26T09:07:15.998Z</time></trkpt><trkpt lat="43.190983736540545" lon="12.662930161879121"><ele>582.0</ele><time>2026-04-26T09:07:16.998Z</time></trkpt><trkpt lat="43.19086583020955" lon="12.66302419108723"><ele>582.0</ele><time>2026-04-26T09:07:17.998Z</time></trkpt><trkpt lat="43.1907462375629" lon="12.663129779942796"><ele>582.0</ele><time>2026-04-26T09:07:18.998Z</time></trkpt><trkpt lat="43.19062266334685" lon="12.663235662945564"><ele>582.0</ele><time>2026-04-26T09:07:19.998Z</time></trkpt><trkpt lat="43.190494283113345" lon="12.663329047306698"><ele>582.0</ele><time>2026-04-26T09:07:20.998Z</time></trkpt><trkpt lat="43.190343851119465" lon="12.663340544890787"><ele>582.0</ele><time>2026-04-26T09:07:21.998Z</time></trkpt><trkpt lat="43.19019349754497" lon="12.663366602127807"><ele>582.0</ele><time>2026-04-26T09:07:22.998Z</time></trkpt><trkpt lat="43.19003820193363" lon="12.663357003813333"><ele>582.0</ele><time>2026-04-26T09:07:23.998Z</time></trkpt><trkpt lat="43.18988953780138" lon="12.663377616742046"><ele>582.0</ele><time>2026-04-26T09:07:24.998Z</time></trkpt><trkpt lat="43.189742253332604" lon="12.663421138858224"><ele>582.0</ele><time>2026-04-26T09:07:25.998Z</time></trkpt><trkpt lat="43.18960930988981" lon="12.663498338620892"><ele>582.0</ele><time>2026-04-26T09:07:26.998Z</time></trkpt><trkpt lat="43.1895000096065" lon="12.663576140157021"><ele>582.2</ele><time>2026-04-26T09:07:27.998Z</time></trkpt><trkpt lat="43.189396869965506" lon="12.663617453008065"><ele>582.4000000000001</ele><time>2026-04-26T09:07:28.998Z</time></trkpt><trkpt lat="43.1892980184849" lon="12.663594506883408"><ele>582.5999999999999</ele><time>2026-04-26T09:07:29.998Z</time></trkpt><trkpt lat="43.18924133246065" lon="12.663465392352713"><ele>582.8</ele><time>2026-04-26T09:07:30.998Z</time></trkpt><trkpt lat="43.18916089957841" lon="12.663358009943638"><ele>583.0</ele><time>2026-04-26T09:07:31.997Z</time></trkpt><trkpt lat="43.1890724235098" lon="12.663254187821872"><ele>587.6666666666667</ele><time>2026-04-26T09:07:32.997Z</time></trkpt><trkpt lat="43.18898893620779" lon="12.663149827199115"><ele>592.3333333333334</ele><time>2026-04-26T09:07:33.997Z</time></trkpt><trkpt lat="43.188908950757664" lon="12.663061194873936"><ele>597.0</ele><time>2026-04-26T09:07:34.997Z</time></trkpt><trkpt lat="43.18883582074028" lon="12.663014839128195"><ele>601.6666666666666</ele><time>2026-04-26T09:07:36Z</time></trkpt><trkpt lat="43.188768784035354" lon="12.66300598324596"><ele>606.3333333333333</ele><time>2026-04-26T09:07:37Z</time></trkpt><trkpt lat="43.18870133584192" lon="12.663012430474048"><ele>611.0</ele><time>2026-04-26T09:07:38Z</time></trkpt><trkpt lat="43.188639753522985" lon="12.663103335412819"><ele>611.0</ele><time>2026-04-26T09:07:39Z</time></trkpt><trkpt lat="43.188646090921445" lon="12.663265411457669"><ele>611.0</ele><time>2026-04-26T09:07:40Z</time></trkpt><trkpt lat="43.18866891228183" lon="12.663422300780448"><ele>611.0</ele><time>2026-04-26T09:07:41Z</time></trkpt><trkpt lat="43.18867407071966" lon="12.663590366618854"><ele>611.0</ele><time>2026-04-26T09:07:42Z</time></trkpt><trkpt lat="43.188647428999005" lon="12.663785668332762"><ele>610.0</ele><time>2026-04-26T09:07:43Z</time></trkpt><trkpt lat="43.188614065007606" lon="12.663981908215268"><ele>609.0</ele><time>2026-04-26T09:07:44Z</time></trkpt><trkpt lat="43.18859028078046" lon="12.6641797946284"><ele>608.0</ele><time>2026-04-26T09:07:45Z</time></trkpt><trkpt lat="43.18855551579705" lon="12.664364553452376"><ele>607.0</ele><time>2026-04-26T09:07:46Z</time></trkpt><trkpt lat="43.188508560700924" lon="12.664538980350525"><ele>606.5</ele><time>2026-04-26T09:07:47Z</time></trkpt><trkpt lat="43.18843546030283" lon="12.664691278144469"><ele>606.0</ele><time>2026-04-26T09:07:48Z</time></trkpt><trkpt lat="43.18833948172144" lon="12.664814286303368"><ele>605.5</ele><time>2026-04-26T09:07:49Z</time></trkpt><trkpt lat="43.1882724906629" lon="12.664955728534078"><ele>605.0</ele><time>2026-04-26T09:07:50Z</time></trkpt><trkpt lat="43.188263204625464" lon="12.665141374508586"><ele>604.5</ele><time>2026-04-26T09:07:51Z</time></trkpt><trkpt lat="43.18827359644197" lon="12.66531861674142"><ele>604.0</ele><time>2026-04-26T09:07:52Z</time></trkpt><trkpt lat="43.18823828184047" lon="12.665506714468059"><ele>603.5</ele><time>2026-04-26T09:07:53Z</time></trkpt><trkpt lat="43.18816205466906" lon="12.665680582826667"><ele>603.0</ele><time>2026-04-26T09:07:54Z</time></trkpt><trkpt lat="43.188059802469134" lon="12.665836337170344"><ele>611.0</ele><time>2026-04-26T09:07:55Z</time></trkpt><trkpt lat="43.18796884343806" lon="12.666006324984656"><ele>619.0</ele><time>2026-04-26T09:07:56Z</time></trkpt><trkpt lat="43.18788507629272" lon="12.666190514567942"><ele>627.0</ele><time>2026-04-26T09:07:57Z</time></trkpt><trkpt lat="43.18781458395946" lon="12.666361087486969"><ele>627.0</ele><time>2026-04-26T09:07:58Z</time></trkpt><trkpt lat="43.18777260298969" lon="12.666521190169819"><ele>627.0</ele><time>2026-04-26T09:07:59Z</time></trkpt><trkpt lat="43.18776066070615" lon="12.666684796362917"><ele>627.0</ele><time>2026-04-26T09:08:00Z</time></trkpt><trkpt lat="43.18778621609758" lon="12.666850129448232"><ele>627.0</ele><time>2026-04-26T09:08:01Z</time></trkpt><trkpt lat="43.18787099061142" lon="12.666978407727647"><ele>627.25</ele><time>2026-04-26T09:08:01.999Z</time></trkpt><trkpt lat="43.187971375906436" lon="12.667085981342273"><ele>627.5</ele><time>2026-04-26T09:08:02.999Z</time></trkpt><trkpt lat="43.18804680841414" lon="12.667225313469261"><ele>627.75</ele><time>2026-04-26T09:08:03.999Z</time></trkpt><trkpt lat="43.18808618781259" lon="12.667395662969193"><ele>628.0</ele><time>2026-04-26T09:08:04.999Z</time></trkpt><trkpt lat="43.188070883878304" lon="12.667561876559416"><ele>628.0</ele><time>2026-04-26T09:08:05.999Z</time></trkpt><trkpt lat="43.188011972330436" lon="12.66768030005972"><ele>628.0</ele><time>2026-04-26T09:08:06.999Z</time></trkpt><trkpt lat="43.187936323449" lon="12.66771185141293"><ele>628.0</ele><time>2026-04-26T09:08:07.999Z</time></trkpt><trkpt lat="43.18786951329264" lon="12.667673513362477"><ele>628.0</ele><time>2026-04-26T09:08:08.999Z</time></trkpt><trkpt lat="43.18779187866064" lon="12.667624401545458"><ele>628.0</ele><time>2026-04-26T09:08:09.999Z</time></trkpt><trkpt lat="43.18770274124372" lon="12.667591370714742"><ele>628.0</ele><time>2026-04-26T09:08:10.999Z</time></trkpt><trkpt lat="43.18760052012347" lon="12.667557506600502"><ele>628.0</ele><time>2026-04-26T09:08:11.999Z</time></trkpt><trkpt lat="43.18752011050072" lon="12.667525935171696"><ele>628.0</ele><time>2026-04-26T09:08:12.999Z</time></trkpt><trkpt lat="43.18745283293815" lon="12.667496103168721"><ele>628.0</ele><time>2026-04-26T09:08:13.999Z</time></trkpt><trkpt lat="43.18738047062446" lon="12.667462291690684"><ele>628.0</ele><time>2026-04-26T09:08:14.999Z</time></trkpt><trkpt lat="43.18729771855401" lon="12.66742881728626"><ele>628.0</ele><time>2026-04-26T09:08:15.999Z</time></trkpt><trkpt lat="43.18721031988227" lon="12.667404974555717"><ele>628.0</ele><time>2026-04-26T09:08:16.999Z</time></trkpt><trkpt lat="43.18713593308377" lon="12.667395217944"><ele>628.8</ele><time>2026-04-26T09:08:17.999Z</time></trkpt><trkpt lat="43.18707175763743" lon="12.66738818947551"><ele>629.5999999999999</ele><time>2026-04-26T09:08:18.999Z</time></trkpt><trkpt lat="43.186973741829235" lon="12.667373036652496"><ele>630.4000000000001</ele><time>2026-04-26T09:08:20.999Z</time></trkpt><trkpt lat="43.18687840078951" lon="12.66735428265657"><ele>631.2</ele><time>2026-04-26T09:08:22.999Z</time></trkpt><trkpt lat="43.186784343257024" lon="12.667320156219006"><ele>632.0</ele><time>2026-04-26T09:08:24.999Z</time></trkpt><trkpt lat="43.186823031790674" lon="12.667467685282547"><ele>632.0</ele><time>2026-04-26T09:08:30.999Z</time></trkpt><trkpt lat="43.18690512354111" lon="12.667438193431401"><ele>632.0</ele><time>2026-04-26T09:08:32.999Z</time></trkpt><trkpt lat="43.186968695329476" lon="12.667411748829524"><ele>632.0</ele><time>2026-04-26T09:08:33.999Z</time></trkpt><trkpt lat="43.18704713094507" lon="12.667403725157868"><ele>632.0</ele><time>2026-04-26T09:08:34.999Z</time></trkpt><trkpt lat="43.18714308111091" lon="12.667414737490697"><ele>632.0</ele><time>2026-04-26T09:08:35.999Z</time></trkpt><trkpt lat="43.18725726756979" lon="12.667446239686761"><ele>632.0</ele><time>2026-04-26T09:08:36.999Z</time></trkpt><trkpt lat="43.18737999565914" lon="12.66748559874521"><ele>631.0</ele><time>2026-04-26T09:08:37.999Z</time></trkpt><trkpt lat="43.18750871904573" lon="12.6675388241127"><ele>630.0</ele><time>2026-04-26T09:08:38.999Z</time></trkpt><trkpt lat="43.187638356270604" lon="12.667597878387816"><ele>629.0</ele><time>2026-04-26T09:08:39.999Z</time></trkpt><trkpt lat="43.1877478139106" lon="12.667645000197734"><ele>628.0</ele><time>2026-04-26T09:08:40.999Z</time></trkpt><trkpt lat="43.18783174244848" lon="12.66767888071283"><ele>628.0</ele><time>2026-04-26T09:08:41.999Z</time></trkpt><trkpt lat="43.18789663701919" lon="12.667713525087605"><ele>628.0</ele><time>2026-04-26T09:08:42.999Z</time></trkpt><trkpt lat="43.187978136248" lon="12.66782528083509"><ele>628.0</ele><time>2026-04-26T09:08:44.999Z</time></trkpt><trkpt lat="43.18804017855816" lon="12.667936759760458"><ele>628.0</ele><time>2026-04-26T09:08:46.999Z</time></trkpt><trkpt lat="43.1880987094706" lon="12.668055404676211"><ele>628.0</ele><time>2026-04-26T09:08:48.998Z</time></trkpt><trkpt lat="43.18813665298153" lon="12.668124900977835"><ele>626.5</ele><time>2026-04-26T09:08:49.998Z</time></trkpt><trkpt lat="43.1881819398078" lon="12.668201459298949"><ele>625.0</ele><time>2026-04-26T09:08:50.998Z</time></trkpt><trkpt lat="43.18822937772292" lon="12.668293492218947"><ele>623.5</ele><time>2026-04-26T09:08:51.998Z</time></trkpt><trkpt lat="43.18828338224153" lon="12.668384035874151"><ele>622.0</ele><time>2026-04-26T09:08:52.998Z</time></trkpt><trkpt lat="43.18833251817439" lon="12.668480151054947"><ele>620.5</ele><time>2026-04-26T09:08:53.998Z</time></trkpt><trkpt lat="43.188382680479215" lon="12.668572038777182"><ele>619.0</ele><time>2026-04-26T09:08:54.998Z</time></trkpt><trkpt lat="43.18842640857818" lon="12.668662926268322"><ele>617.5</ele><time>2026-04-26T09:08:55.998Z</time></trkpt><trkpt lat="43.1884675225657" lon="12.668756682938858"><ele>616.0</ele><time>2026-04-26T09:08:56.998Z</time></trkpt><trkpt lat="43.18850424986745" lon="12.668853278387454"><ele>614.5</ele><time>2026-04-26T09:08:57.998Z</time></trkpt><trkpt lat="43.1885422738427" lon="12.668950290959907"><ele>613.0</ele><time>2026-04-26T09:08:58.998Z</time></trkpt><trkpt lat="43.18858330178385" lon="12.66904530580995"><ele>611.5</ele><time>2026-04-26T09:08:59.998Z</time></trkpt><trkpt lat="43.18863253584699" lon="12.669133953158916"><ele>610.0</ele><time>2026-04-26T09:09:00.998Z</time></trkpt><trkpt lat="43.188686918302565" lon="12.66920992543213"><ele>610.0</ele><time>2026-04-26T09:09:01.998Z</time></trkpt><trkpt lat="43.18874824430238" lon="12.669275881759033"><ele>610.0</ele><time>2026-04-26T09:09:02.998Z</time></trkpt><trkpt lat="43.18881302025165" lon="12.669334753774363"><ele>610.0</ele><time>2026-04-26T09:09:03.998Z</time></trkpt><trkpt lat="43.18888225710616" lon="12.669393614129667"><ele>610.0</ele><time>2026-04-26T09:09:04.998Z</time></trkpt><trkpt lat="43.18895170678481" lon="12.669452539259458"><ele>610.0</ele><time>2026-04-26T09:09:05.998Z</time></trkpt><trkpt lat="43.189016139372235" lon="12.669505316679121"><ele>610.0</ele><time>2026-04-26T09:09:06.998Z</time></trkpt><trkpt lat="43.18906551488108" lon="12.669561337997404"><ele>610.6</ele><time>2026-04-26T09:09:07.998Z</time></trkpt><trkpt lat="43.1891606367463" lon="12.669644803978"><ele>611.2</ele><time>2026-04-26T09:09:09.998Z</time></trkpt><trkpt lat="43.189216521025344" lon="12.669778717850315"><ele>611.8</ele><time>2026-04-26T09:09:11.998Z</time></trkpt><trkpt lat="43.189229854880274" lon="12.669945666402919"><ele>612.4</ele><time>2026-04-26T09:09:13.998Z</time></trkpt><trkpt lat="43.189219026831665" lon="12.670031232756791"><ele>613.0</ele><time>2026-04-26T09:09:14.998Z</time></trkpt><trkpt lat="43.1892050385928" lon="12.670119514409265"><ele>613.0</ele><time>2026-04-26T09:09:15.998Z</time></trkpt><trkpt lat="43.18919171665369" lon="12.670204189422689"><ele>613.0</ele><time>2026-04-26T09:09:16.998Z</time></trkpt><trkpt lat="43.18918496182509" lon="12.670294145772766"><ele>613.0</ele><time>2026-04-26T09:09:17.998Z</time></trkpt><trkpt lat="43.18917725811185" lon="12.670391383261054"><ele>613.0</ele><time>2026-04-26T09:09:18.998Z</time></trkpt><trkpt lat="43.18916833242032" lon="12.670488690100496"><ele>613.0</ele><time>2026-04-26T09:09:19.998Z</time></trkpt><trkpt lat="43.1891652155744" lon="12.67058577339154"><ele>613.0</ele><time>2026-04-26T09:09:20.998Z</time></trkpt><trkpt lat="43.18917464385323" lon="12.670680595239608"><ele>613.0</ele><time>2026-04-26T09:09:21.998Z</time></trkpt><trkpt lat="43.18919554536865" lon="12.670771332934248"><ele>611.1999999999999</ele><time>2026-04-26T09:09:22.998Z</time></trkpt><trkpt lat="43.189225233704555" lon="12.67085384763903"><ele>609.4</ele><time>2026-04-26T09:09:23.998Z</time></trkpt><trkpt lat="43.18926092828033" lon="12.67092890635441"><ele>607.5999999999999</ele><time>2026-04-26T09:09:24.998Z</time></trkpt><trkpt lat="43.189330093795625" lon="12.671063095621847"><ele>605.8</ele><time>2026-04-26T09:09:26.998Z</time></trkpt><trkpt lat="43.18938356976865" lon="12.671200782764037"><ele>604.0</ele><time>2026-04-26T09:09:28.998Z</time></trkpt><trkpt lat="43.18939023106469" lon="12.67136210062647"><ele>603.1666666666667</ele><time>2026-04-26T09:09:30.998Z</time></trkpt><trkpt lat="43.18938366173836" lon="12.671449899862168"><ele>602.3333333333334</ele><time>2026-04-26T09:09:31.998Z</time></trkpt><trkpt lat="43.18935447863344" lon="12.671631438613975"><ele>601.5</ele><time>2026-04-26T09:09:33.998Z</time></trkpt><trkpt lat="43.18934546204866" lon="12.67172865911142"><ele>600.6666666666666</ele><time>2026-04-26T09:09:34.998Z</time></trkpt><trkpt lat="43.1893527118961" lon="12.671824237189487"><ele>599.8333333333333</ele><time>2026-04-26T09:09:35.997Z</time></trkpt><trkpt lat="43.18938401698068" lon="12.671907886822362"><ele>599.0</ele><time>2026-04-26T09:09:36.997Z</time></trkpt><trkpt lat="43.189435169443094" lon="12.67196609008916"><ele>597.2857142857143</ele><time>2026-04-26T09:09:37.997Z</time></trkpt><trkpt lat="43.18949231826959" lon="12.672016591026392"><ele>595.5714285714286</ele><time>2026-04-26T09:09:38.997Z</time></trkpt><trkpt lat="43.18954729677886" lon="12.672066499238513"><ele>593.8571428571429</ele><time>2026-04-26T09:09:39.997Z</time></trkpt><trkpt lat="43.1896095169087" lon="12.672120966925556"><ele>592.1428571428571</ele><time>2026-04-26T09:09:40.997Z</time></trkpt><trkpt lat="43.189672045564116" lon="12.672175377638778"><ele>590.4285714285714</ele><time>2026-04-26T09:09:42Z</time></trkpt><trkpt lat="43.18973124853916" lon="12.672227513318019"><ele>588.7142857142858</ele><time>2026-04-26T09:09:43Z</time></trkpt><trkpt lat="43.18978239337306" lon="12.672303634262668"><ele>587.0</ele><time>2026-04-26T09:09:44Z</time></trkpt><trkpt lat="43.18984387915522" lon="12.672362956053645"><ele>586.6666666666666</ele><time>2026-04-26T09:09:45Z</time></trkpt><trkpt lat="43.189904793632465" lon="12.672418621239455"><ele>586.3333333333333</ele><time>2026-04-26T09:09:46Z</time></trkpt><trkpt lat="43.18996412170993" lon="12.672472836900164"><ele>586.0</ele><time>2026-04-26T09:09:47Z</time></trkpt><trkpt lat="43.190029222675705" lon="12.67252323802568"><ele>585.6666666666666</ele><time>2026-04-26T09:09:48Z</time></trkpt><trkpt lat="43.19009386334377" lon="12.672587776282315"><ele>585.3333333333334</ele><time>2026-04-26T09:09:49Z</time></trkpt><trkpt lat="43.190150185326395" lon="12.672668754535485"><ele>585.0</ele><time>2026-04-26T09:09:50Z</time></trkpt><trkpt lat="43.190205773851496" lon="12.672759071155491"><ele>583.4</ele><time>2026-04-26T09:09:51Z</time></trkpt><trkpt lat="43.19026352733849" lon="12.672859426905692"><ele>581.8</ele><time>2026-04-26T09:09:52Z</time></trkpt><trkpt lat="43.1903286915825" lon="12.672973615882794"><ele>580.2</ele><time>2026-04-26T09:09:53Z</time></trkpt><trkpt lat="43.190396797566336" lon="12.673086671024397"><ele>578.6</ele><time>2026-04-26T09:09:54Z</time></trkpt><trkpt lat="43.190465093498275" lon="12.673196338604468"><ele>577.0</ele><time>2026-04-26T09:09:55Z</time></trkpt><trkpt lat="43.19053298147865" lon="12.673306084993197"><ele>577.0</ele><time>2026-04-26T09:09:56Z</time></trkpt><trkpt lat="43.1906001689614" lon="12.673418655276295"><ele>577.0</ele><time>2026-04-26T09:09:57Z</time></trkpt><trkpt lat="43.19067121441084" lon="12.673530590984194"><ele>577.0</ele><time>2026-04-26T09:09:58Z</time></trkpt><trkpt lat="43.190742392423054" lon="12.673640904510595"><ele>577.0</ele><time>2026-04-26T09:09:59Z</time></trkpt><trkpt lat="43.19081019118774" lon="12.673752940113092"><ele>577.0</ele><time>2026-04-26T09:10:00Z</time></trkpt><trkpt lat="43.19087576856013" lon="12.673869925533843"><ele>575.6</ele><time>2026-04-26T09:10:01Z</time></trkpt><trkpt lat="43.19094770338534" lon="12.67398356198857"><ele>574.2</ele><time>2026-04-26T09:10:02Z</time></trkpt><trkpt lat="43.19101905774864" lon="12.674099173388585"><ele>572.8</ele><time>2026-04-26T09:10:03Z</time></trkpt><trkpt lat="43.19109127532368" lon="12.674218968542181"><ele>571.4</ele><time>2026-04-26T09:10:04Z</time></trkpt><trkpt lat="43.19116356778685" lon="12.674335023831127"><ele>570.0</ele><time>2026-04-26T09:10:05Z</time></trkpt><trkpt lat="43.1912356107751" lon="12.674452790303617"><ele>568.4</ele><time>2026-04-26T09:10:06Z</time></trkpt><trkpt lat="43.19130297969178" lon="12.67457015629882"><ele>566.8</ele><time>2026-04-26T09:10:07Z</time></trkpt><trkpt lat="43.19136951370508" lon="12.674687418467713"><ele>565.2</ele><time>2026-04-26T09:10:07.999Z</time></trkpt><trkpt lat="43.19143277164269" lon="12.674802348200313"><ele>563.6</ele><time>2026-04-26T09:10:08.999Z</time></trkpt><trkpt lat="43.19149753625827" lon="12.67490926371745"><ele>562.0</ele><time>2026-04-26T09:10:09.999Z</time></trkpt><trkpt lat="43.1915633914401" lon="12.675019573809472"><ele>562.0</ele><time>2026-04-26T09:10:10.999Z</time></trkpt><trkpt lat="43.1916328645072" lon="12.675130536478962"><ele>562.0</ele><time>2026-04-26T09:10:11.999Z</time></trkpt><trkpt lat="43.1917043722612" lon="12.675232579025465"><ele>562.0</ele><time>2026-04-26T09:10:12.999Z</time></trkpt><trkpt lat="43.19177129684093" lon="12.675318670889773"><ele>562.0</ele><time>2026-04-26T09:10:13.999Z</time></trkpt><trkpt lat="43.191837091407535" lon="12.67538600583778"><ele>562.0</ele><time>2026-04-26T09:10:14.999Z</time></trkpt><trkpt lat="43.19190240851659" lon="12.675434032593987"><ele>561.8333333333334</ele><time>2026-04-26T09:10:15.999Z</time></trkpt><trkpt lat="43.1919702652141" lon="12.675473595127803"><ele>561.6666666666667</ele><time>2026-04-26T09:10:16.999Z</time></trkpt><trkpt lat="43.19204577588453" lon="12.675512137106859"><ele>561.5</ele><time>2026-04-26T09:10:17.999Z</time></trkpt><trkpt lat="43.1921221930317" lon="12.675543986582069"><ele>561.3333333333334</ele><time>2026-04-26T09:10:18.999Z</time></trkpt><trkpt lat="43.19220727001061" lon="12.675579662119082"><ele>561.1666666666666</ele><time>2026-04-26T09:10:19.999Z</time></trkpt><trkpt lat="43.192282891729484" lon="12.67564210601954"><ele>561.0</ele><time>2026-04-26T09:10:20.999Z</time></trkpt><trkpt lat="43.19236790335782" lon="12.675687516591644"><ele>563.4</ele><time>2026-04-26T09:10:21.999Z</time></trkpt><trkpt lat="43.19245801386175" lon="12.675735650901789"><ele>565.8</ele><time>2026-04-26T09:10:22.999Z</time></trkpt><trkpt lat="43.19255248690643" lon="12.675787717387937"><ele>568.1999999999999</ele><time>2026-04-26T09:10:23.999Z</time></trkpt><trkpt lat="43.192648574759595" lon="12.675831570807516"><ele>570.6</ele><time>2026-04-26T09:10:24.999Z</time></trkpt><trkpt lat="43.192744411003666" lon="12.675886577916133"><ele>573.0</ele><time>2026-04-26T09:10:25.999Z</time></trkpt><trkpt lat="43.19282837820713" lon="12.675937706392752"><ele>573.0</ele><time>2026-04-26T09:10:26.999Z</time></trkpt><trkpt lat="43.192889798929045" lon="12.676004125175092"><ele>573.0</ele><time>2026-04-26T09:10:27.999Z</time></trkpt><trkpt lat="43.19295450777667" lon="12.676045665811548"><ele>573.0</ele><time>2026-04-26T09:10:28.999Z</time></trkpt><trkpt lat="43.193018193416854" lon="12.67608654985591"><ele>573.0</ele><time>2026-04-26T09:10:29.999Z</time></trkpt><trkpt lat="43.19311650492792" lon="12.676151439355607"><ele>573.0</ele><time>2026-04-26T09:10:31.999Z</time></trkpt><trkpt lat="43.193197242519695" lon="12.676264200548243"><ele>573.0</ele><time>2026-04-26T09:10:33.999Z</time></trkpt><trkpt lat="43.19322918110481" lon="12.676343640826738"><ele>573.1999999999999</ele><time>2026-04-26T09:10:34.999Z</time></trkpt><trkpt lat="43.193264016844644" lon="12.676487947734618"><ele>573.4</ele><time>2026-04-26T09:10:36.999Z</time></trkpt><trkpt lat="43.1933166928062" lon="12.676632755043205"><ele>573.5999999999999</ele><time>2026-04-26T09:10:38.999Z</time></trkpt><trkpt lat="43.19335816183855" lon="12.676698189886771"><ele>573.8</ele><time>2026-04-26T09:10:39.999Z</time></trkpt><trkpt lat="43.19340879006017" lon="12.67675532817771"><ele>574.0</ele><time>2026-04-26T09:10:40.999Z</time></trkpt><trkpt lat="43.193515144611624" lon="12.676845057237994"><ele>574.0</ele><time>2026-04-26T09:10:42.999Z</time></trkpt><trkpt lat="43.193606331422195" lon="12.676928113302312"><ele>574.0</ele><time>2026-04-26T09:10:44.999Z</time></trkpt><trkpt lat="43.19366994326471" lon="12.677036253366573"><ele>574.0</ele><time>2026-04-26T09:10:46.999Z</time></trkpt><trkpt lat="43.193687103592" lon="12.67716485861875"><ele>574.0</ele><time>2026-04-26T09:10:48.999Z</time></trkpt><trkpt lat="43.19372949564698" lon="12.677315607754435"><ele>574.0</ele><time>2026-04-26T09:10:50.999Z</time></trkpt><trkpt lat="43.19375207509313" lon="12.677504832845692"><ele>571.8</ele><time>2026-04-26T09:10:52.999Z</time></trkpt><trkpt lat="43.19376624039203" lon="12.677618935220659"><ele>569.5999999999999</ele><time>2026-04-26T09:10:53.999Z</time></trkpt><trkpt lat="43.193790271313574" lon="12.677743516661218"><ele>567.4</ele><time>2026-04-26T09:10:54.998Z</time></trkpt><trkpt lat="43.193818949438416" lon="12.677875685323414"><ele>565.1999999999999</ele><time>2026-04-26T09:10:55.998Z</time></trkpt><trkpt lat="43.19384655994262" lon="12.678010548112933"><ele>563.0</ele><time>2026-04-26T09:10:56.998Z</time></trkpt><trkpt lat="43.19387417973066" lon="12.678146393300924"><ele>561.8</ele><time>2026-04-26T09:10:57.998Z</time></trkpt><trkpt lat="43.19390698896554" lon="12.678280351829935"><ele>560.5999999999999</ele><time>2026-04-26T09:10:58.998Z</time></trkpt><trkpt lat="43.19394270235327" lon="12.678410495692331"><ele>559.4000000000001</ele><time>2026-04-26T09:10:59.998Z</time></trkpt><trkpt lat="43.19398082828584" lon="12.678533431937366"><ele>558.2</ele><time>2026-04-26T09:11:00.998Z</time></trkpt><trkpt lat="43.194020714914046" lon="12.678651971716585"><ele>557.0</ele><time>2026-04-26T09:11:01.998Z</time></trkpt><trkpt lat="43.19407409982936" lon="12.67875695329742"><ele>557.0</ele><time>2026-04-26T09:11:02.998Z</time></trkpt><trkpt lat="43.1941251974583" lon="12.678868548948847"><ele>557.0</ele><time>2026-04-26T09:11:03.998Z</time></trkpt><trkpt lat="43.19417280212386" lon="12.678985648577726"><ele>557.0</ele><time>2026-04-26T09:11:04.998Z</time></trkpt><trkpt lat="43.19422533387558" lon="12.67910724486113"><ele>557.0</ele><time>2026-04-26T09:11:05.998Z</time></trkpt><trkpt lat="43.19427751119489" lon="12.679231951007159"><ele>557.0</ele><time>2026-04-26T09:11:06.998Z</time></trkpt><trkpt lat="43.19433151327858" lon="12.679356975582662"><ele>557.0</ele><time>2026-04-26T09:11:07.998Z</time></trkpt><trkpt lat="43.194381432665296" lon="12.679474358802942"><ele>557.0</ele><time>2026-04-26T09:11:08.998Z</time></trkpt><trkpt lat="43.19443188491683" lon="12.679590134328356"><ele>557.0</ele><time>2026-04-26T09:11:09.998Z</time></trkpt><trkpt lat="43.194474614383616" lon="12.679704155377086"><ele>557.0</ele><time>2026-04-26T09:11:10.998Z</time></trkpt><trkpt lat="43.19452786501307" lon="12.679820624559087"><ele>557.0</ele><time>2026-04-26T09:11:11.998Z</time></trkpt><trkpt lat="43.19457613922751" lon="12.679945190533337"><ele>557.0</ele><time>2026-04-26T09:11:12.998Z</time></trkpt><trkpt lat="43.194625989575364" lon="12.680077819584541"><ele>557.0</ele><time>2026-04-26T09:11:13.998Z</time></trkpt><trkpt lat="43.19467932848126" lon="12.680212874411511"><ele>557.0</ele><time>2026-04-26T09:11:14.998Z</time></trkpt><trkpt lat="43.19473739221111" lon="12.680346982261327"><ele>557.0</ele><time>2026-04-26T09:11:15.998Z</time></trkpt><trkpt lat="43.194793810853234" lon="12.680482329296778"><ele>557.0</ele><time>2026-04-26T09:11:16.998Z</time></trkpt><trkpt lat="43.19484941703023" lon="12.68062049326522"><ele>558.0</ele><time>2026-04-26T09:11:17.998Z</time></trkpt><trkpt lat="43.19490446610008" lon="12.68075772360447"><ele>559.0</ele><time>2026-04-26T09:11:18.998Z</time></trkpt><trkpt lat="43.19495510970061" lon="12.680885180762862"><ele>560.0</ele><time>2026-04-26T09:11:19.998Z</time></trkpt><trkpt lat="43.19500129174734" lon="12.681010449696297"><ele>561.0</ele><time>2026-04-26T09:11:20.998Z</time></trkpt><trkpt lat="43.19503644822734" lon="12.681140861086774"><ele>562.0</ele><time>2026-04-26T09:11:21.998Z</time></trkpt><trkpt lat="43.19506150427613" lon="12.681268245136234"><ele>562.2</ele><time>2026-04-26T09:11:22.998Z</time></trkpt><trkpt lat="43.195088637749016" lon="12.681386552479601"><ele>562.4000000000001</ele><time>2026-04-26T09:11:23.998Z</time></trkpt><trkpt lat="43.19512373199129" lon="12.681509142491606"><ele>562.5999999999999</ele><time>2026-04-26T09:11:24.998Z</time></trkpt><trkpt lat="43.19516216355752" lon="12.681630365185505"><ele>562.8</ele><time>2026-04-26T09:11:25.998Z</time></trkpt><trkpt lat="43.195207620814614" lon="12.681745261949832"><ele>563.0</ele><time>2026-04-26T09:11:26.998Z</time></trkpt><trkpt lat="43.195257110490694" lon="12.681852463935623"><ele>562.3333333333333</ele><time>2026-04-26T09:11:27.998Z</time></trkpt><trkpt lat="43.195311612389034" lon="12.681951050612142"><ele>561.6666666666666</ele><time>2026-04-26T09:11:28.998Z</time></trkpt><trkpt lat="43.19537411427583" lon="12.68203372580524"><ele>561.0</ele><time>2026-04-26T09:11:29.998Z</time></trkpt><trkpt lat="43.195439400579964" lon="12.682087709776601"><ele>560.3333333333334</ele><time>2026-04-26T09:11:30.998Z</time></trkpt><trkpt lat="43.19550699423555" lon="12.682130940395474"><ele>559.6666666666667</ele><time>2026-04-26T09:11:31.998Z</time></trkpt><trkpt lat="43.195585850647085" lon="12.682181092079283"><ele>559.0</ele><time>2026-04-26T09:11:32.998Z</time></trkpt><trkpt lat="43.19567092609404" lon="12.682232632309253"><ele>559.0</ele><time>2026-04-26T09:11:33.998Z</time></trkpt><trkpt lat="43.19575878018117" lon="12.68228644966673"><ele>559.0</ele><time>2026-04-26T09:11:34.998Z</time></trkpt><trkpt lat="43.19584557616896" lon="12.682347705179302"><ele>559.0</ele><time>2026-04-26T09:11:35.998Z</time></trkpt><trkpt lat="43.195939079013435" lon="12.682411012051215"><ele>559.0</ele><time>2026-04-26T09:11:36.998Z</time></trkpt><trkpt lat="43.19602686314086" lon="12.682475699918383"><ele>559.0</ele><time>2026-04-26T09:11:37.998Z</time></trkpt><trkpt lat="43.19611718188302" lon="12.682541552286692"><ele>559.0</ele><time>2026-04-26T09:11:38.998Z</time></trkpt><trkpt lat="43.19620732675168" lon="12.682606802345894"><ele>559.0</ele><time>2026-04-26T09:11:39.998Z</time></trkpt><trkpt lat="43.196302525537256" lon="12.682635544423775"><ele>559.0</ele><time>2026-04-26T09:11:40.997Z</time></trkpt><trkpt lat="43.19639645740288" lon="12.682662552144274"><ele>559.0</ele><time>2026-04-26T09:11:41.997Z</time></trkpt><trkpt lat="43.19649121227334" lon="12.682684748357618"><ele>559.0</ele><time>2026-04-26T09:11:42.997Z</time></trkpt><trkpt lat="43.19658373552336" lon="12.682696133268767"><ele>558.8333333333334</ele><time>2026-04-26T09:11:43.997Z</time></trkpt><trkpt lat="43.196671263219784" lon="12.682704916748401"><ele>558.6666666666667</ele><time>2026-04-26T09:11:44.997Z</time></trkpt><trkpt lat="43.196756908854496" lon="12.682709896193673"><ele>558.5</ele><time>2026-04-26T09:11:45.997Z</time></trkpt><trkpt lat="43.19683837137001" lon="12.68271770524819"><ele>558.3333333333334</ele><time>2026-04-26T09:11:46.997Z</time></trkpt><trkpt lat="43.196926550442946" lon="12.682734635876912"><ele>558.1666666666666</ele><time>2026-04-26T09:11:48Z</time></trkpt><trkpt lat="43.197022298162715" lon="12.682766972090148"><ele>558.0</ele><time>2026-04-26T09:11:49Z</time></trkpt><trkpt lat="43.19712021367071" lon="12.682814164606409"><ele>557.4</ele><time>2026-04-26T09:11:50Z</time></trkpt><trkpt lat="43.19721284783085" lon="12.682873803518525"><ele>556.8</ele><time>2026-04-26T09:11:51Z</time></trkpt><trkpt lat="43.19731279871583" lon="12.682931002596037"><ele>556.2</ele><time>2026-04-26T09:11:52Z</time></trkpt><trkpt lat="43.197414750951964" lon="12.68298148899531"><ele>555.6</ele><time>2026-04-26T09:11:53Z</time></trkpt><trkpt lat="43.19751623901823" lon="12.683029665462206"><ele>555.0</ele><time>2026-04-26T09:11:54Z</time></trkpt><trkpt lat="43.19761665857833" lon="12.683078913763337"><ele>555.0</ele><time>2026-04-26T09:11:55Z</time></trkpt><trkpt lat="43.19771453371921" lon="12.683131185407662"><ele>555.0</ele><time>2026-04-26T09:11:56Z</time></trkpt><trkpt lat="43.19781088974651" lon="12.683181483096616"><ele>555.0</ele><time>2026-04-26T09:11:57Z</time></trkpt><trkpt lat="43.19789697356729" lon="12.683221047622451"><ele>555.0</ele><time>2026-04-26T09:11:58Z</time></trkpt><trkpt lat="43.197976092974166" lon="12.68326657381895"><ele>555.0</ele><time>2026-04-26T09:11:59Z</time></trkpt><trkpt lat="43.19806179057787" lon="12.683317383921757"><ele>555.0</ele><time>2026-04-26T09:12:00Z</time></trkpt><trkpt lat="43.19815932677746" lon="12.683375871358262"><ele>555.0</ele><time>2026-04-26T09:12:01Z</time></trkpt><trkpt lat="43.198259116705074" lon="12.683439994349063"><ele>555.0</ele><time>2026-04-26T09:12:02Z</time></trkpt><trkpt lat="43.19835719897902" lon="12.683497383349732"><ele>555.0</ele><time>2026-04-26T09:12:03Z</time></trkpt><trkpt lat="43.198453361172824" lon="12.68355306448775"><ele>555.0</ele><time>2026-04-26T09:12:04Z</time></trkpt><trkpt lat="43.19855333389826" lon="12.68359786933"><ele>555.0</ele><time>2026-04-26T09:12:05Z</time></trkpt><trkpt lat="43.198651263811875" lon="12.683639366200376"><ele>555.0</ele><time>2026-04-26T09:12:06Z</time></trkpt><trkpt lat="43.19875183691552" lon="12.683682389921852"><ele>555.0</ele><time>2026-04-26T09:12:07Z</time></trkpt><trkpt lat="43.198852768476144" lon="12.683740281318217"><ele>555.0</ele><time>2026-04-26T09:12:08Z</time></trkpt><trkpt lat="43.198951392104114" lon="12.68381250373465"><ele>555.0</ele><time>2026-04-26T09:12:09Z</time></trkpt><trkpt lat="43.19904681510474" lon="12.683900801958275"><ele>555.0</ele><time>2026-04-26T09:12:09.999Z</time></trkpt><trkpt lat="43.19914187989026" lon="12.684000159416735"><ele>555.0</ele><time>2026-04-26T09:12:10.999Z</time></trkpt><trkpt lat="43.19923054943624" lon="12.684109087146918"><ele>555.0</ele><time>2026-04-26T09:12:11.999Z</time></trkpt><trkpt lat="43.199312923263456" lon="12.684219078426821"><ele>555.0</ele><time>2026-04-26T09:12:12.999Z</time></trkpt><trkpt lat="43.19939438263689" lon="12.684320642851013"><ele>555.0</ele><time>2026-04-26T09:12:13.999Z</time></trkpt><trkpt lat="43.199474458981506" lon="12.684420426217626"><ele>555.0</ele><time>2026-04-26T09:12:14.999Z</time></trkpt><trkpt lat="43.19955552487876" lon="12.684527051209812"><ele>555.0</ele><time>2026-04-26T09:12:15.999Z</time></trkpt><trkpt lat="43.19963747699961" lon="12.684634052831534"><ele>555.0</ele><time>2026-04-26T09:12:16.999Z</time></trkpt><trkpt lat="43.19971871240168" lon="12.684735888017846"><ele>555.0</ele><time>2026-04-26T09:12:17.999Z</time></trkpt><trkpt lat="43.19979296132341" lon="12.684831313814053"><ele>555.4</ele><time>2026-04-26T09:12:18.999Z</time></trkpt><trkpt lat="43.19987231516558" lon="12.684914634200211"><ele>555.8</ele><time>2026-04-26T09:12:19.999Z</time></trkpt><trkpt lat="43.199966004699775" lon="12.684982481451813"><ele>556.2</ele><time>2026-04-26T09:12:20.999Z</time></trkpt><trkpt lat="43.20006672297035" lon="12.685042376148395"><ele>556.6</ele><time>2026-04-26T09:12:21.999Z</time></trkpt><trkpt lat="43.2001716207639" lon="12.685105875528617"><ele>557.0</ele><time>2026-04-26T09:12:22.999Z</time></trkpt><trkpt lat="43.2002787139299" lon="12.685172421986664"><ele>557.0</ele><time>2026-04-26T09:12:23.999Z</time></trkpt><trkpt lat="43.2003904479756" lon="12.68524315672601"><ele>557.0</ele><time>2026-04-26T09:12:24.999Z</time></trkpt><trkpt lat="43.2005043071222" lon="12.685317696187118"><ele>557.0</ele><time>2026-04-26T09:12:25.999Z</time></trkpt><trkpt lat="43.200615501906746" lon="12.685396820595319"><ele>557.0</ele><time>2026-04-26T09:12:26.999Z</time></trkpt><trkpt lat="43.20071790843938" lon="12.685478248539596"><ele>557.0</ele><time>2026-04-26T09:12:27.999Z</time></trkpt><trkpt lat="43.200810127549715" lon="12.685543489397336"><ele>557.0</ele><time>2026-04-26T09:12:28.999Z</time></trkpt><trkpt lat="43.20089941695565" lon="12.685592731802208"><ele>557.0</ele><time>2026-04-26T09:12:29.999Z</time></trkpt><trkpt lat="43.20099786497339" lon="12.685622056412173"><ele>557.0</ele><time>2026-04-26T09:12:30.999Z</time></trkpt><trkpt lat="43.20109190515146" lon="12.685639517369111"><ele>557.0</ele><time>2026-04-26T09:12:31.999Z</time></trkpt><trkpt lat="43.201185101140084" lon="12.685651316179639"><ele>557.0</ele><time>2026-04-26T09:12:32.999Z</time></trkpt><trkpt lat="43.20127893216265" lon="12.68566374216001"><ele>557.0</ele><time>2026-04-26T09:12:33.999Z</time></trkpt><trkpt lat="43.20136831038822" lon="12.685695668810993"><ele>557.0</ele><time>2026-04-26T09:12:34.999Z</time></trkpt><trkpt lat="43.20144867736778" lon="12.685758397416972"><ele>557.0</ele><time>2026-04-26T09:12:35.999Z</time></trkpt><trkpt lat="43.20152522250625" lon="12.685847612851674"><ele>557.0</ele><time>2026-04-26T09:12:36.999Z</time></trkpt><trkpt lat="43.20160895907188" lon="12.685944144608657"><ele>557.0</ele><time>2026-04-26T09:12:37.999Z</time></trkpt><trkpt lat="43.201703382826864" lon="12.68603710034508"><ele>557.0</ele><time>2026-04-26T09:12:38.999Z</time></trkpt><trkpt lat="43.20179852071135" lon="12.686132562259914"><ele>557.0</ele><time>2026-04-26T09:12:39.999Z</time></trkpt><trkpt lat="43.201879795361435" lon="12.686241190378698"><ele>557.0</ele><time>2026-04-26T09:12:40.999Z</time></trkpt><trkpt lat="43.20196329875437" lon="12.686336275671465"><ele>557.0</ele><time>2026-04-26T09:12:41.999Z</time></trkpt><trkpt lat="43.20204489813515" lon="12.68642450621063"><ele>557.0</ele><time>2026-04-26T09:12:42.999Z</time></trkpt><trkpt lat="43.202127848397105" lon="12.686511417993529"><ele>557.0</ele><time>2026-04-26T09:12:43.999Z</time></trkpt><trkpt lat="43.202219946554074" lon="12.686600246872153"><ele>557.0</ele><time>2026-04-26T09:12:44.999Z</time></trkpt><trkpt lat="43.20231347815944" lon="12.686698417068714"><ele>557.0</ele><time>2026-04-26T09:12:45.999Z</time></trkpt><trkpt lat="43.20240484072034" lon="12.686801918508955"><ele>558.2</ele><time>2026-04-26T09:12:46.999Z</time></trkpt><trkpt lat="43.20249258582086" lon="12.686903139335548"><ele>559.4000000000001</ele><time>2026-04-26T09:12:47.999Z</time></trkpt><trkpt lat="43.20257509445846" lon="12.687007744564305"><ele>560.5999999999999</ele><time>2026-04-26T09:12:48.999Z</time></trkpt><trkpt lat="43.20264654768466" lon="12.687116602865938"><ele>561.8</ele><time>2026-04-26T09:12:49.999Z</time></trkpt><trkpt lat="43.20271364597777" lon="12.687235353364496"><ele>563.0</ele><time>2026-04-26T09:12:50.999Z</time></trkpt><trkpt lat="43.20277387737421" lon="12.68735176496844"><ele>563.0</ele><time>2026-04-26T09:12:51.999Z</time></trkpt><trkpt lat="43.20282546146075" lon="12.687469375239509"><ele>563.0</ele><time>2026-04-26T09:12:52.999Z</time></trkpt><trkpt lat="43.202897241809204" lon="12.687557661837108"><ele>563.0</ele><time>2026-04-26T09:12:53.999Z</time></trkpt><trkpt lat="43.20295409328171" lon="12.68765855412734"><ele>563.0</ele><time>2026-04-26T09:12:54.999Z</time></trkpt><trkpt lat="43.20301099883106" lon="12.68775740196208"><ele>563.0</ele><time>2026-04-26T09:12:55.999Z</time></trkpt><trkpt lat="43.20306582681346" lon="12.68785282817473"><ele>562.6666666666666</ele><time>2026-04-26T09:12:56.999Z</time></trkpt><trkpt lat="43.20312644407934" lon="12.687933719225587"><ele>562.3333333333333</ele><time>2026-04-26T09:12:57.998Z</time></trkpt><trkpt lat="43.203191595283876" lon="12.687996637568348"><ele>562.0</ele><time>2026-04-26T09:12:58.998Z</time></trkpt><trkpt lat="43.203259154911706" lon="12.68805141776207"><ele>561.6666666666666</ele><time>2026-04-26T09:12:59.998Z</time></trkpt><trkpt lat="43.20333054373626" lon="12.6881061038536"><ele>561.3333333333334</ele><time>2026-04-26T09:13:00.998Z</time></trkpt><trkpt lat="43.203409150044116" lon="12.68817110922642"><ele>561.0</ele><time>2026-04-26T09:13:01.998Z</time></trkpt><trkpt lat="43.203484659809774" lon="12.688232327680522"><ele>562.5</ele><time>2026-04-26T09:13:02.998Z</time></trkpt><trkpt lat="43.203559935399234" lon="12.688286281282174"><ele>564.0</ele><time>2026-04-26T09:13:03.998Z</time></trkpt><trkpt lat="43.20362946587334" lon="12.688332179190555"><ele>565.5</ele><time>2026-04-26T09:13:04.998Z</time></trkpt><trkpt lat="43.20369638481828" lon="12.688371935235685"><ele>567.0</ele><time>2026-04-26T09:13:05.998Z</time></trkpt><trkpt lat="43.20376751018723" lon="12.688418878479599"><ele>568.5</ele><time>2026-04-26T09:13:06.998Z</time></trkpt><trkpt lat="43.20383736341436" lon="12.688466927262887"><ele>570.0</ele><time>2026-04-26T09:13:07.998Z</time></trkpt><trkpt lat="43.20390850356662" lon="12.688507982052439"><ele>570.0</ele><time>2026-04-26T09:13:08.998Z</time></trkpt><trkpt lat="43.2039815990796" lon="12.688556155200732"><ele>570.0</ele><time>2026-04-26T09:13:09.998Z</time></trkpt><trkpt lat="43.20405056073666" lon="12.688615607935176"><ele>570.0</ele><time>2026-04-26T09:13:10.998Z</time></trkpt><trkpt lat="43.20413103370123" lon="12.688635391208221"><ele>570.0</ele><time>2026-04-26T09:13:11.998Z</time></trkpt><trkpt lat="43.20421248889698" lon="12.688659336248605"><ele>570.0</ele><time>2026-04-26T09:13:12.998Z</time></trkpt><trkpt lat="43.20430163383343" lon="12.688659295836063"><ele>570.0</ele><time>2026-04-26T09:13:13.998Z</time></trkpt><trkpt lat="43.20439219597142" lon="12.688636174077589"><ele>570.3333333333334</ele><time>2026-04-26T09:13:14.998Z</time></trkpt><trkpt lat="43.204480522189655" lon="12.688601157961847"><ele>570.6666666666666</ele><time>2026-04-26T09:13:15.998Z</time></trkpt><trkpt lat="43.204561838787804" lon="12.688565876523349"><ele>571.0</ele><time>2026-04-26T09:13:16.998Z</time></trkpt><trkpt lat="43.20463561744051" lon="12.688525732219688"><ele>571.3333333333333</ele><time>2026-04-26T09:13:17.998Z</time></trkpt><trkpt lat="43.20469920014597" lon="12.688492850884526"><ele>571.6666666666666</ele><time>2026-04-26T09:13:18.998Z</time></trkpt><trkpt lat="43.20479134467699" lon="12.688461739265811"><ele>572.0</ele><time>2026-04-26T09:13:20.998Z</time></trkpt><trkpt lat="43.204875202857316" lon="12.68847854158686"><ele>571.8333333333333</ele><time>2026-04-26T09:13:22.998Z</time></trkpt><trkpt lat="43.20496642590903" lon="12.688546508081044"><ele>571.6666666666666</ele><time>2026-04-26T09:13:24.998Z</time></trkpt><trkpt lat="43.20503858892095" lon="12.688587786663788"><ele>571.5</ele><time>2026-04-26T09:13:25.998Z</time></trkpt><trkpt lat="43.2051199829121" lon="12.688615206139533"><ele>571.3333333333334</ele><time>2026-04-26T09:13:26.998Z</time></trkpt><trkpt lat="43.20518669094167" lon="12.688653243661186"><ele>571.1666666666667</ele><time>2026-04-26T09:13:27.998Z</time></trkpt><trkpt lat="43.20524886949549" lon="12.688691354451038"><ele>571.0</ele><time>2026-04-26T09:13:28.998Z</time></trkpt><trkpt lat="43.20530678611378" lon="12.688729675042515"><ele>571.0</ele><time>2026-04-26T09:13:29.998Z</time></trkpt><trkpt lat="43.20536448701019" lon="12.68876783692392"><ele>571.0</ele><time>2026-04-26T09:13:30.998Z</time></trkpt><trkpt lat="43.205425375549034" lon="12.688793063238762"><ele>571.0</ele><time>2026-04-26T09:13:31.998Z</time></trkpt><trkpt lat="43.20549550406067" lon="12.688807570770457"><ele>571.0</ele><time>2026-04-26T09:13:32.998Z</time></trkpt><trkpt lat="43.205567718951706" lon="12.68881156373462"><ele>571.0</ele><time>2026-04-26T09:13:33.998Z</time></trkpt><trkpt lat="43.20564199034775" lon="12.688801652108356"><ele>571.0</ele><time>2026-04-26T09:13:34.998Z</time></trkpt><trkpt lat="43.20570847019513" lon="12.688775578215088"><ele>571.0</ele><time>2026-04-26T09:13:35.998Z</time></trkpt><trkpt lat="43.20577359564751" lon="12.688757635803928"><ele>570.8333333333334</ele><time>2026-04-26T09:13:36.998Z</time></trkpt><trkpt lat="43.20584188004085" lon="12.688721827498373"><ele>570.6666666666667</ele><time>2026-04-26T09:13:37.998Z</time></trkpt><trkpt lat="43.20591552007884" lon="12.688676506055458"><ele>570.5</ele><time>2026-04-26T09:13:38.998Z</time></trkpt><trkpt lat="43.20598841755396" lon="12.688617404336101"><ele>570.3333333333334</ele><time>2026-04-26T09:13:39.998Z</time></trkpt><trkpt lat="43.20607467414479" lon="12.688613324960624"><ele>570.1666666666666</ele><time>2026-04-26T09:13:40.998Z</time></trkpt><trkpt lat="43.2061565096467" lon="12.688591159682678"><ele>570.0</ele><time>2026-04-26T09:13:41.998Z</time></trkpt><trkpt lat="43.20623755844562" lon="12.688569207535476"><ele>566.3333333333334</ele><time>2026-04-26T09:13:42.998Z</time></trkpt><trkpt lat="43.20631793818004" lon="12.688548239325907"><ele>562.6666666666666</ele><time>2026-04-26T09:13:43.998Z</time></trkpt><trkpt lat="43.20639554726799" lon="12.68851434902084"><ele>559.0</ele><time>2026-04-26T09:13:44.997Z</time></trkpt><trkpt lat="43.2064752817052" lon="12.688508564089158"><ele>555.3333333333333</ele><time>2026-04-26T09:13:45.997Z</time></trkpt><trkpt lat="43.20654886604511" lon="12.68850686519749"><ele>551.6666666666666</ele><time>2026-04-26T09:13:46.997Z</time></trkpt><trkpt lat="43.20661891369932" lon="12.688509643006592"><ele>548.0</ele><time>2026-04-26T09:13:47.997Z</time></trkpt><trkpt lat="43.2066885311137" lon="12.688504623763762"><ele>548.0000000000001</ele><time>2026-04-26T09:13:48.997Z</time></trkpt><trkpt lat="43.20676495508225" lon="12.688489896947303"><ele>548.0</ele><time>2026-04-26T09:13:49.997Z</time></trkpt><trkpt lat="43.20683836807204" lon="12.688466269435077"><ele>548.0</ele><time>2026-04-26T09:13:50.997Z</time></trkpt><trkpt lat="43.20690479044124" lon="12.68843480334234"><ele>548.0</ele><time>2026-04-26T09:13:51.997Z</time></trkpt><trkpt lat="43.20696818485653" lon="12.688396614684638"><ele>548.0</ele><time>2026-04-26T09:13:53Z</time></trkpt><trkpt lat="43.20702631164257" lon="12.68835336966788"><ele>548.0000000000001</ele><time>2026-04-26T09:13:54Z</time></trkpt><trkpt lat="43.20708055828955" lon="12.688303366338559"><ele>548.0</ele><time>2026-04-26T09:13:55Z</time></trkpt><trkpt lat="43.207132530083804" lon="12.688237171949465"><ele>548.0</ele><time>2026-04-26T09:13:56Z</time></trkpt><trkpt lat="43.20718330757283" lon="12.688163695788754"><ele>548.0</ele><time>2026-04-26T09:13:57Z</time></trkpt><trkpt lat="43.20723255561146" lon="12.68807873387129"><ele>548.0</ele><time>2026-04-26T09:13:58Z</time></trkpt><trkpt lat="43.207279170711" lon="12.687990005958095"><ele>548.0</ele><time>2026-04-26T09:13:59Z</time></trkpt><trkpt lat="43.20732864092676" lon="12.687906418066373"><ele>548.0</ele><time>2026-04-26T09:14:00Z</time></trkpt><trkpt lat="43.20737868921819" lon="12.687823164851402"><ele>548.0</ele><time>2026-04-26T09:14:01Z</time></trkpt><trkpt lat="43.207428926675995" lon="12.687738810015246"><ele>547.8333333333333</ele><time>2026-04-26T09:14:02Z</time></trkpt><trkpt lat="43.20748010730146" lon="12.687658289358284"><ele>547.6666666666666</ele><time>2026-04-26T09:14:03Z</time></trkpt><trkpt lat="43.20754599039707" lon="12.687586590998103"><ele>547.5</ele><time>2026-04-26T09:14:04Z</time></trkpt><trkpt lat="43.20759794140178" lon="12.687507662419073"><ele>547.3333333333334</ele><time>2026-04-26T09:14:05Z</time></trkpt><trkpt lat="43.20764041283978" lon="12.687417558716202"><ele>547.1666666666667</ele><time>2026-04-26T09:14:06Z</time></trkpt><trkpt lat="43.20769944563313" lon="12.687339117904994"><ele>547.0</ele><time>2026-04-26T09:14:07Z</time></trkpt><trkpt lat="43.20775767611417" lon="12.6872506516151"><ele>547.0</ele><time>2026-04-26T09:14:08Z</time></trkpt><trkpt lat="43.207827584681844" lon="12.68719020910921"><ele>547.0</ele><time>2026-04-26T09:14:09Z</time></trkpt><trkpt lat="43.20788775550076" lon="12.687127745455093"><ele>547.0</ele><time>2026-04-26T09:14:10Z</time></trkpt><trkpt lat="43.20794925390822" lon="12.687074012215481"><ele>547.0</ele><time>2026-04-26T09:14:11Z</time></trkpt><trkpt lat="43.20800872324303" lon="12.687006476162061"><ele>547.0</ele><time>2026-04-26T09:14:12Z</time></trkpt><trkpt lat="43.20807819905001" lon="12.686952194804949"><ele>547.0</ele><time>2026-04-26T09:14:12.999Z</time></trkpt><trkpt lat="43.208151670756784" lon="12.686904785204522"><ele>545.1666666666667</ele><time>2026-04-26T09:14:13.999Z</time></trkpt><trkpt lat="43.208214898432516" lon="12.686843984018031"><ele>543.3333333333334</ele><time>2026-04-26T09:14:14.999Z</time></trkpt><trkpt lat="43.20828109495987" lon="12.686807936914722"><ele>541.5</ele><time>2026-04-26T09:14:15.999Z</time></trkpt><trkpt lat="43.208337494389475" lon="12.686756351812315"><ele>539.6666666666666</ele><time>2026-04-26T09:14:16.999Z</time></trkpt><trkpt lat="43.20840078989595" lon="12.686713497777868"><ele>537.8333333333333</ele><time>2026-04-26T09:14:17.999Z</time></trkpt><trkpt lat="43.20844369522893" lon="12.686605365548663"><ele>536.0</ele><time>2026-04-26T09:14:18.999Z</time></trkpt><trkpt lat="43.20851400842304" lon="12.686575393751424"><ele>536.0</ele><time>2026-04-26T09:14:19.999Z</time></trkpt><trkpt lat="43.208589685487134" lon="12.686557569924911"><ele>536.0</ele><time>2026-04-26T09:14:20.999Z</time></trkpt><trkpt lat="43.20866728792286" lon="12.686541723177037"><ele>536.0</ele><time>2026-04-26T09:14:21.999Z</time></trkpt><trkpt lat="43.20874674502512" lon="12.68652353647122"><ele>536.0</ele><time>2026-04-26T09:14:22.999Z</time></trkpt><trkpt lat="43.20882667290998" lon="12.686511539873274"><ele>536.0</ele><time>2026-04-26T09:14:23.999Z</time></trkpt><trkpt lat="43.20890298854482" lon="12.686468102086806"><ele>536.0</ele><time>2026-04-26T09:14:24.999Z</time></trkpt><trkpt lat="43.208973326148005" lon="12.686389466420293"><ele>535.3333333333333</ele><time>2026-04-26T09:14:25.999Z</time></trkpt><trkpt lat="43.209043989972294" lon="12.686318493549214"><ele>534.6666666666666</ele><time>2026-04-26T09:14:26.999Z</time></trkpt><trkpt lat="43.20910386083896" lon="12.68624713988874"><ele>534.0</ele><time>2026-04-26T09:14:27.999Z</time></trkpt><trkpt lat="43.20916154060515" lon="12.686170444430205"><ele>533.3333333333334</ele><time>2026-04-26T09:14:28.999Z</time></trkpt><trkpt lat="43.209225398461086" lon="12.686086301207657"><ele>532.6666666666667</ele><time>2026-04-26T09:14:29.999Z</time></trkpt><trkpt lat="43.20928240842682" lon="12.6859930480141"><ele>532.0</ele><time>2026-04-26T09:14:30.999Z</time></trkpt><trkpt lat="43.209346911172794" lon="12.685914036843641"><ele>532.0</ele><time>2026-04-26T09:14:31.999Z</time></trkpt><trkpt lat="43.20940152617514" lon="12.68582715209834"><ele>532.0</ele><time>2026-04-26T09:14:32.999Z</time></trkpt><trkpt lat="43.20943817820897" lon="12.685738828667736"><ele>532.0</ele><time>2026-04-26T09:14:33.999Z</time></trkpt><trkpt lat="43.20950280759593" lon="12.68568406783893"><ele>532.0</ele><time>2026-04-26T09:14:34.999Z</time></trkpt><trkpt lat="43.20958086073729" lon="12.685644167599769"><ele>532.0</ele><time>2026-04-26T09:14:35.999Z</time></trkpt><trkpt lat="43.20967035294333" lon="12.685622474523107"><ele>532.0</ele><time>2026-04-26T09:14:36.999Z</time></trkpt><trkpt lat="43.20976931921105" lon="12.685617354787302"><ele>532.75</ele><time>2026-04-26T09:14:37.999Z</time></trkpt><trkpt lat="43.20987577426096" lon="12.685621647046545"><ele>533.5</ele><time>2026-04-26T09:14:38.999Z</time></trkpt><trkpt lat="43.2099862183209" lon="12.685630150933696"><ele>534.25</ele><time>2026-04-26T09:14:39.999Z</time></trkpt><trkpt lat="43.21010707311291" lon="12.685635610630428"><ele>535.0</ele><time>2026-04-26T09:14:40.999Z</time></trkpt><trkpt lat="43.21022558551636" lon="12.685635774507752"><ele>535.0</ele><time>2026-04-26T09:14:41.999Z</time></trkpt><trkpt lat="43.2103361020305" lon="12.685629896114323"><ele>535.0</ele><time>2026-04-26T09:14:42.999Z</time></trkpt><trkpt lat="43.21045176635873" lon="12.685607121659064"><ele>535.0</ele><time>2026-04-26T09:14:43.999Z</time></trkpt><trkpt lat="43.21056721230671" lon="12.685587652788271"><ele>535.0</ele><time>2026-04-26T09:14:44.999Z</time></trkpt><trkpt lat="43.21068515972718" lon="12.685606263365067"><ele>535.0</ele><time>2026-04-26T09:14:45.999Z</time></trkpt><trkpt lat="43.21079529340497" lon="12.685573466678802"><ele>535.0</ele><time>2026-04-26T09:14:46.999Z</time></trkpt><trkpt lat="43.210901821606335" lon="12.685555790673073"><ele>535.0</ele><time>2026-04-26T09:14:47.999Z</time></trkpt><trkpt lat="43.21100331556006" lon="12.68553605018905"><ele>535.0</ele><time>2026-04-26T09:14:48.999Z</time></trkpt><trkpt lat="43.21109911152944" lon="12.685534914361737"><ele>535.0</ele><time>2026-04-26T09:14:49.999Z</time></trkpt><trkpt lat="43.21117509840569" lon="12.68556254863605"><ele>535.0</ele><time>2026-04-26T09:14:50.999Z</time></trkpt><trkpt lat="43.211221728886784" lon="12.685630479350527"><ele>535.0</ele><time>2026-04-26T09:14:51.999Z</time></trkpt><trkpt lat="43.21131576839022" lon="12.685724236375263"><ele>535.0</ele><time>2026-04-26T09:14:53.999Z</time></trkpt><trkpt lat="43.21135836129953" lon="12.685810483902031"><ele>535.0</ele><time>2026-04-26T09:14:54.999Z</time></trkpt><trkpt lat="43.21137211003968" lon="12.685922856029206"><ele>535.0</ele><time>2026-04-26T09:14:55.999Z</time></trkpt><trkpt lat="43.21140944072848" lon="12.686018771898864"><ele>535.0</ele><time>2026-04-26T09:14:56.999Z</time></trkpt><trkpt lat="43.21140492350442" lon="12.686113177987927"><ele>535.5</ele><time>2026-04-26T09:14:57.999Z</time></trkpt><trkpt lat="43.21140643863719" lon="12.686284401273834"><ele>536.0</ele><time>2026-04-26T09:14:59.998Z</time></trkpt><trkpt lat="43.211379757354145" lon="12.686381743795259"><ele>536.5</ele><time>2026-04-26T09:15:00.998Z</time></trkpt><trkpt lat="43.21135208975667" lon="12.686477503947476"><ele>537.0</ele><time>2026-04-26T09:15:01.998Z</time></trkpt><trkpt lat="43.21132508212278" lon="12.686580409336022"><ele>537.5</ele><time>2026-04-26T09:15:02.998Z</time></trkpt><trkpt lat="43.21130870904192" lon="12.6866852905926"><ele>538.0</ele><time>2026-04-26T09:15:03.998Z</time></trkpt><trkpt lat="43.21130261705699" lon="12.68678915659369"><ele>538.0</ele><time>2026-04-26T09:15:04.998Z</time></trkpt><trkpt lat="43.21130597311773" lon="12.686892091005138"><ele>538.0</ele><time>2026-04-26T09:15:05.998Z</time></trkpt><trkpt lat="43.211317064237086" lon="12.686995167308138"><ele>538.0</ele><time>2026-04-26T09:15:06.998Z</time></trkpt><trkpt lat="43.21132638629057" lon="12.68710237145618"><ele>538.0</ele><time>2026-04-26T09:15:07.998Z</time></trkpt><trkpt lat="43.21133642385314" lon="12.68720034139567"><ele>538.0</ele><time>2026-04-26T09:15:08.998Z</time></trkpt><trkpt lat="43.21135600429997" lon="12.687294386363218"><ele>538.0</ele><time>2026-04-26T09:15:09.998Z</time></trkpt><trkpt lat="43.21145013939989" lon="12.68740114312272"><ele>535.4</ele><time>2026-04-26T09:15:11.998Z</time></trkpt><trkpt lat="43.21156388206677" lon="12.687382602602305"><ele>532.8</ele><time>2026-04-26T09:15:13.998Z</time></trkpt><trkpt lat="43.21163755551385" lon="12.687347786304654"><ele>530.2</ele><time>2026-04-26T09:15:14.998Z</time></trkpt><trkpt lat="43.21173221271875" lon="12.687333137281989"><ele>527.6</ele><time>2026-04-26T09:15:15.998Z</time></trkpt><trkpt lat="43.21182595066918" lon="12.687283573326514"><ele>525.0</ele><time>2026-04-26T09:15:16.998Z</time></trkpt><trkpt lat="43.21191628285236" lon="12.687205642619539"><ele>525.0</ele><time>2026-04-26T09:15:17.998Z</time></trkpt><trkpt lat="43.21201076406255" lon="12.687140214594773"><ele>525.0</ele><time>2026-04-26T09:15:18.998Z</time></trkpt><trkpt lat="43.212110970610276" lon="12.687095208411874"><ele>525.0</ele><time>2026-04-26T09:15:19.998Z</time></trkpt><trkpt lat="43.212202586713516" lon="12.68701767044487"><ele>525.0</ele><time>2026-04-26T09:15:20.998Z</time></trkpt><trkpt lat="43.212291661391255" lon="12.686931174635623"><ele>525.0</ele><time>2026-04-26T09:15:21.998Z</time></trkpt><trkpt lat="43.212377424329574" lon="12.686835559918045"><ele>522.0</ele><time>2026-04-26T09:15:22.998Z</time></trkpt><trkpt lat="43.21246351841831" lon="12.686734944894937"><ele>519.0</ele><time>2026-04-26T09:15:23.998Z</time></trkpt><trkpt lat="43.21255250095831" lon="12.686634166813725"><ele>516.0</ele><time>2026-04-26T09:15:24.998Z</time></trkpt><trkpt lat="43.212630588470596" lon="12.686533049435052"><ele>513.0</ele><time>2026-04-26T09:15:25.998Z</time></trkpt><trkpt lat="43.212713789125516" lon="12.686479251805068"><ele>510.0</ele><time>2026-04-26T09:15:26.998Z</time></trkpt><trkpt lat="43.21280466673782" lon="12.686441602687353"><ele>510.0</ele><time>2026-04-26T09:15:27.998Z</time></trkpt><trkpt lat="43.21288531133229" lon="12.686408451419128"><ele>510.0</ele><time>2026-04-26T09:15:28.998Z</time></trkpt><trkpt lat="43.212951561760484" lon="12.686384024746463"><ele>510.0</ele><time>2026-04-26T09:15:29.998Z</time></trkpt><trkpt lat="43.21301993889354" lon="12.68635556163045"><ele>510.0</ele><time>2026-04-26T09:15:30.998Z</time></trkpt><trkpt lat="43.21310668520674" lon="12.686276458422343"><ele>510.0</ele><time>2026-04-26T09:15:32.998Z</time></trkpt><trkpt lat="43.213169726869104" lon="12.686183656365907"><ele>510.0</ele><time>2026-04-26T09:15:34.998Z</time></trkpt><trkpt lat="43.21319364552906" lon="12.686038198725011"><ele>505.8</ele><time>2026-04-26T09:15:36.998Z</time></trkpt><trkpt lat="43.213190751090025" lon="12.685892288716907"><ele>501.6</ele><time>2026-04-26T09:15:38.998Z</time></trkpt><trkpt lat="43.21321392302422" lon="12.68572743974889"><ele>497.4</ele><time>2026-04-26T09:15:40.998Z</time></trkpt><trkpt lat="43.213204362595256" lon="12.685625028479006"><ele>493.2</ele><time>2026-04-26T09:15:41.998Z</time></trkpt><trkpt lat="43.21322583309241" lon="12.685514106552096"><ele>489.0</ele><time>2026-04-26T09:15:42.998Z</time></trkpt><trkpt lat="43.21323444971479" lon="12.685399586431682"><ele>489.0</ele><time>2026-04-26T09:15:43.998Z</time></trkpt><trkpt lat="43.21324490996957" lon="12.685293984458141"><ele>489.0</ele><time>2026-04-26T09:15:44.998Z</time></trkpt><trkpt lat="43.21325778420658" lon="12.685196474426366"><ele>489.0</ele><time>2026-04-26T09:15:45.997Z</time></trkpt><trkpt lat="43.21325611242861" lon="12.685098312297077"><ele>489.0</ele><time>2026-04-26T09:15:46.997Z</time></trkpt><trkpt lat="43.213335056588676" lon="12.684973617831764"><ele>489.0</ele><time>2026-04-26T09:15:48.997Z</time></trkpt><trkpt lat="43.21339659561128" lon="12.684951231849633"><ele>489.0</ele><time>2026-04-26T09:15:49.997Z</time></trkpt><trkpt lat="43.213463320590996" lon="12.684957415285139"><ele>488.0</ele><time>2026-04-26T09:15:50.997Z</time></trkpt><trkpt lat="43.213528204915164" lon="12.684985538264092"><ele>487.00000000000006</ele><time>2026-04-26T09:15:51.997Z</time></trkpt><trkpt lat="43.21358931268817" lon="12.685022615247188"><ele>486.0</ele><time>2026-04-26T09:15:52.997Z</time></trkpt><trkpt lat="43.2136549180117" lon="12.68505810598126"><ele>485.0</ele><time>2026-04-26T09:15:53.997Z</time></trkpt><trkpt lat="43.213730024592714" lon="12.685087368870658"><ele>484.00000000000006</ele><time>2026-04-26T09:15:54.997Z</time></trkpt><trkpt lat="43.21380812819631" lon="12.685111866811273"><ele>483.0</ele><time>2026-04-26T09:15:55.997Z</time></trkpt><trkpt lat="43.213881862668295" lon="12.68513287102175"><ele>482.0</ele><time>2026-04-26T09:15:56.997Z</time></trkpt><trkpt lat="43.21395317825561" lon="12.685166443225988"><ele>479.3333333333333</ele><time>2026-04-26T09:15:58Z</time></trkpt><trkpt lat="43.214021348874354" lon="12.68518161316884"><ele>476.66666666666663</ele><time>2026-04-26T09:15:59Z</time></trkpt><trkpt lat="43.21408524840914" lon="12.685198319080088"><ele>474.0</ele><time>2026-04-26T09:15:59.999Z</time></trkpt><trkpt lat="43.21419458070835" lon="12.685222568377657"><ele>471.33333333333337</ele><time>2026-04-26T09:16:02Z</time></trkpt><trkpt lat="43.2143171745856" lon="12.685179188680264"><ele>468.6666666666667</ele><time>2026-04-26T09:16:04Z</time></trkpt><trkpt lat="43.21436958120328" lon="12.685103934125328"><ele>466.0</ele><time>2026-04-26T09:16:05Z</time></trkpt><trkpt lat="43.21441423408266" lon="12.685025634663212"><ele>466.00000000000006</ele><time>2026-04-26T09:16:06Z</time></trkpt><trkpt lat="43.214448325547146" lon="12.68494304198099"><ele>466.0</ele><time>2026-04-26T09:16:07Z</time></trkpt><trkpt lat="43.21448525738394" lon="12.684846600409884"><ele>466.0</ele><time>2026-04-26T09:16:08Z</time></trkpt><trkpt lat="43.21453692711399" lon="12.684763338006611"><ele>466.0</ele><time>2026-04-26T09:16:09Z</time></trkpt><trkpt lat="43.21458348658898" lon="12.684678179780562"><ele>466.00000000000006</ele><time>2026-04-26T09:16:10Z</time></trkpt><trkpt lat="43.21465117978532" lon="12.68462385706288"><ele>466.0</ele><time>2026-04-26T09:16:11Z</time></trkpt><trkpt lat="43.21472162625256" lon="12.684572977702436"><ele>466.00000000000006</ele><time>2026-04-26T09:16:12Z</time></trkpt><trkpt lat="43.21478595535468" lon="12.68450742549547"><ele>466.0</ele><time>2026-04-26T09:16:12.999Z</time></trkpt><trkpt lat="43.214841541605985" lon="12.684425231772225"><ele>466.0</ele><time>2026-04-26T09:16:13.999Z</time></trkpt><trkpt lat="43.21489511623807" lon="12.684346070184388"><ele>466.0</ele><time>2026-04-26T09:16:14.999Z</time></trkpt><trkpt lat="43.21493834383851" lon="12.684252480937323"><ele>466.00000000000006</ele><time>2026-04-26T09:16:15.999Z</time></trkpt><trkpt lat="43.21497167733218" lon="12.684150234616897"><ele>466.0</ele><time>2026-04-26T09:16:16.999Z</time></trkpt><trkpt lat="43.21500538519543" lon="12.684036728157343"><ele>461.0</ele><time>2026-04-26T09:16:17.999Z</time></trkpt><trkpt lat="43.21504823035735" lon="12.683916229284474"><ele>456.0</ele><time>2026-04-26T09:16:18.999Z</time></trkpt><trkpt lat="43.21508239689389" lon="12.683787526804382"><ele>451.0</ele><time>2026-04-26T09:16:19.999Z</time></trkpt><trkpt lat="43.21511488751053" lon="12.68365725271111"><ele>446.0</ele><time>2026-04-26T09:16:20.999Z</time></trkpt><trkpt lat="43.21514036823892" lon="12.68352883030805"><ele>441.0</ele><time>2026-04-26T09:16:21.999Z</time></trkpt><trkpt lat="43.21518098776007" lon="12.683434611532427"><ele>439.6666666666667</ele><time>2026-04-26T09:16:22.999Z</time></trkpt><trkpt lat="43.21521419373966" lon="12.683352592946452"><ele>438.33333333333337</ele><time>2026-04-26T09:16:23.999Z</time></trkpt><trkpt lat="43.21527160653232" lon="12.683232777115675"><ele>437.0</ele><time>2026-04-26T09:16:25.999Z</time></trkpt><trkpt lat="43.2153476069592" lon="12.683218576768992"><ele>435.6666666666667</ele><time>2026-04-26T09:16:26.999Z</time></trkpt><trkpt lat="43.21543047383228" lon="12.68320619812235"><ele>434.33333333333337</ele><time>2026-04-26T09:16:27.999Z</time></trkpt><trkpt lat="43.21552312952927" lon="12.68318834266945"><ele>433.0</ele><time>2026-04-26T09:16:28.999Z</time></trkpt><trkpt lat="43.21561611163102" lon="12.683173057004788"><ele>431.1666666666667</ele><time>2026-04-26T09:16:29.999Z</time></trkpt><trkpt lat="43.21570759592837" lon="12.683164642926721"><ele>429.33333333333337</ele><time>2026-04-26T09:16:30.999Z</time></trkpt><trkpt lat="43.21579346480413" lon="12.683164734220085"><ele>427.5</ele><time>2026-04-26T09:16:31.999Z</time></trkpt><trkpt lat="43.215866606667916" lon="12.683183978355279"><ele>425.66666666666663</ele><time>2026-04-26T09:16:32.999Z</time></trkpt><trkpt lat="43.215924634484985" lon="12.683236862194892"><ele>423.8333333333333</ele><time>2026-04-26T09:16:33.999Z</time></trkpt><trkpt lat="43.215952376908135" lon="12.683332829364316"><ele>422.0</ele><time>2026-04-26T09:16:34.999Z</time></trkpt><trkpt lat="43.21594036074557" lon="12.683444819165544"><ele>422.0</ele><time>2026-04-26T09:16:35.999Z</time></trkpt><trkpt lat="43.215880015972125" lon="12.683531301630515"><ele>422.0</ele><time>2026-04-26T09:16:36.999Z</time></trkpt><trkpt lat="43.21583704346408" lon="12.68364079559636"><ele>422.0</ele><time>2026-04-26T09:16:37.999Z</time></trkpt><trkpt lat="43.21577546268584" lon="12.683749190139702"><ele>422.0</ele><time>2026-04-26T09:16:38.999Z</time></trkpt><trkpt lat="43.21572128438957" lon="12.683871989807908"><ele>422.0</ele><time>2026-04-26T09:16:39.999Z</time></trkpt><trkpt lat="43.21568671513804" lon="12.683996296646495"><ele>421.6</ele><time>2026-04-26T09:16:40.999Z</time></trkpt><trkpt lat="43.21566793713834" lon="12.684115575237048"><ele>421.20000000000005</ele><time>2026-04-26T09:16:41.999Z</time></trkpt><trkpt lat="43.21565894865288" lon="12.684212949958516"><ele>420.8</ele><time>2026-04-26T09:16:42.999Z</time></trkpt><trkpt lat="43.2156648835124" lon="12.684363693248349"><ele>420.4</ele><time>2026-04-26T09:16:44.999Z</time></trkpt><trkpt lat="43.215727250211444" lon="12.68448281513585"><ele>420.0</ele><time>2026-04-26T09:16:46.999Z</time></trkpt><trkpt lat="43.21583448756823" lon="12.684520788024438"><ele>422.8</ele><time>2026-04-26T09:16:48.999Z</time></trkpt><trkpt lat="43.21590526358824" lon="12.684519201046612"><ele>425.6</ele><time>2026-04-26T09:16:49.999Z</time></trkpt><trkpt lat="43.21598895518427" lon="12.684506582477841"><ele>428.4</ele><time>2026-04-26T09:16:50.999Z</time></trkpt><trkpt lat="43.21607971643961" lon="12.684481836731779"><ele>431.2</ele><time>2026-04-26T09:16:51.999Z</time></trkpt><trkpt lat="43.216179547490725" lon="12.684470289467088"><ele>434.0</ele><time>2026-04-26T09:16:52.999Z</time></trkpt><trkpt lat="43.21628964187959" lon="12.684477064372874"><ele>434.0</ele><time>2026-04-26T09:16:53.999Z</time></trkpt><trkpt lat="43.216398365251514" lon="12.684476406514383"><ele>434.0</ele><time>2026-04-26T09:16:54.999Z</time></trkpt><trkpt lat="43.216499209539926" lon="12.684489217191981"><ele>434.0</ele><time>2026-04-26T09:16:55.999Z</time></trkpt><trkpt lat="43.216596693110525" lon="12.684499385836231"><ele>434.0</ele><time>2026-04-26T09:16:56.999Z</time></trkpt><trkpt lat="43.21668392985568" lon="12.684542082432948"><ele>434.0</ele><time>2026-04-26T09:16:57.999Z</time></trkpt><trkpt lat="43.21677041099654" lon="12.684574769384605"><ele>432.2</ele><time>2026-04-26T09:16:58.999Z</time></trkpt><trkpt lat="43.21685035770061" lon="12.684615998980908"><ele>430.4</ele><time>2026-04-26T09:16:59.999Z</time></trkpt><trkpt lat="43.216928844986036" lon="12.684664519135278"><ele>428.6</ele><time>2026-04-26T09:17:00.998Z</time></trkpt><trkpt lat="43.21700427161248" lon="12.68472111053157"><ele>426.8</ele><time>2026-04-26T09:17:01.998Z</time></trkpt><trkpt lat="43.21708035420459" lon="12.684792335250927"><ele>425.0</ele><time>2026-04-26T09:17:02.998Z</time></trkpt><trkpt lat="43.217170333694675" lon="12.684867225173232"><ele>425.0</ele><time>2026-04-26T09:17:03.998Z</time></trkpt><trkpt lat="43.21726180692988" lon="12.684955635419623"><ele>425.0</ele><time>2026-04-26T09:17:04.998Z</time></trkpt><trkpt lat="43.21735324383882" lon="12.685043328607577"><ele>425.0</ele><time>2026-04-26T09:17:05.998Z</time></trkpt><trkpt lat="43.2174406198552" lon="12.685134083292944"><ele>425.0</ele><time>2026-04-26T09:17:06.998Z</time></trkpt><trkpt lat="43.21752508254293" lon="12.685224038501259"><ele>425.0</ele><time>2026-04-26T09:17:07.998Z</time></trkpt><trkpt lat="43.217614504842764" lon="12.685298683377724"><ele>423.4</ele><time>2026-04-26T09:17:08.998Z</time></trkpt><trkpt lat="43.217707742463205" lon="12.685355413411788"><ele>421.8</ele><time>2026-04-26T09:17:09.998Z</time></trkpt><trkpt lat="43.21780196737985" lon="12.685401216537219"><ele>420.20000000000005</ele><time>2026-04-26T09:17:10.998Z</time></trkpt><trkpt lat="43.21789926749934" lon="12.685434969573018"><ele>418.6</ele><time>2026-04-26T09:17:11.998Z</time></trkpt><trkpt lat="43.21799379856443" lon="12.685476125549117"><ele>417.0</ele><time>2026-04-26T09:17:12.998Z</time></trkpt><trkpt lat="43.218087423448985" lon="12.68554105531165"><ele>414.0</ele><time>2026-04-26T09:17:13.998Z</time></trkpt><trkpt lat="43.21817293592778" lon="12.685602662465712"><ele>411.0</ele><time>2026-04-26T09:17:14.998Z</time></trkpt><trkpt lat="43.218251679661826" lon="12.68564337434943"><ele>408.0</ele><time>2026-04-26T09:17:15.998Z</time></trkpt><trkpt lat="43.21832872015937" lon="12.68566682040192"><ele>405.0</ele><time>2026-04-26T09:17:16.998Z</time></trkpt><trkpt lat="43.21841205397359" lon="12.685664298413565"><ele>402.0</ele><time>2026-04-26T09:17:17.998Z</time></trkpt><trkpt lat="43.21849376570551" lon="12.68563815621389"><ele>399.0</ele><time>2026-04-26T09:17:18.998Z</time></trkpt><trkpt lat="43.21857110689431" lon="12.68559977695312"><ele>399.0</ele><time>2026-04-26T09:17:19.998Z</time></trkpt><trkpt lat="43.218658499237286" lon="12.68558935404424"><ele>399.0</ele><time>2026-04-26T09:17:20.998Z</time></trkpt><trkpt lat="43.21874023937628" lon="12.685575166279921"><ele>399.0</ele><time>2026-04-26T09:17:21.998Z</time></trkpt><trkpt lat="43.21882710340535" lon="12.685574784290347"><ele>399.0</ele><time>2026-04-26T09:17:22.998Z</time></trkpt><trkpt lat="43.218913096643526" lon="12.685580438004374"><ele>399.0</ele><time>2026-04-26T09:17:23.998Z</time></trkpt><trkpt lat="43.21899285247896" lon="12.685588477586903"><ele>399.0</ele><time>2026-04-26T09:17:24.998Z</time></trkpt><trkpt lat="43.21907404904526" lon="12.685597054719146"><ele>397.3333333333333</ele><time>2026-04-26T09:17:25.998Z</time></trkpt><trkpt lat="43.219154837361245" lon="12.685607912936609"><ele>395.66666666666663</ele><time>2026-04-26T09:17:26.998Z</time></trkpt><trkpt lat="43.21923143447854" lon="12.685612737048197"><ele>394.0</ele><time>2026-04-26T09:17:27.998Z</time></trkpt><trkpt lat="43.21931176402807" lon="12.685589923713673"><ele>392.3333333333333</ele><time>2026-04-26T09:17:28.998Z</time></trkpt><trkpt lat="43.219397047328385" lon="12.68557675112912"><ele>390.66666666666663</ele><time>2026-04-26T09:17:29.998Z</time></trkpt><trkpt lat="43.219474368987115" lon="12.68555124453398"><ele>389.0</ele><time>2026-04-26T09:17:30.998Z</time></trkpt><trkpt lat="43.21955128380029" lon="12.685521219888537"><ele>388.99999999999994</ele><time>2026-04-26T09:17:31.998Z</time></trkpt><trkpt lat="43.21962357375151" lon="12.685475142589713"><ele>389.0</ele><time>2026-04-26T09:17:32.998Z</time></trkpt><trkpt lat="43.219687832199085" lon="12.685422048741849"><ele>389.0</ele><time>2026-04-26T09:17:33.998Z</time></trkpt><trkpt lat="43.219747582638256" lon="12.68535919389342"><ele>389.0</ele><time>2026-04-26T09:17:34.998Z</time></trkpt><trkpt lat="43.219793891834136" lon="12.685274723944492"><ele>388.99999999999994</ele><time>2026-04-26T09:17:35.998Z</time></trkpt><trkpt lat="43.21983110788262" lon="12.685171851175902"><ele>389.0</ele><time>2026-04-26T09:17:36.998Z</time></trkpt><trkpt lat="43.21986482911799" lon="12.685056253584428"><ele>386.99999999999994</ele><time>2026-04-26T09:17:37.998Z</time></trkpt><trkpt lat="43.21988470493652" lon="12.684934100604666"><ele>385.0</ele><time>2026-04-26T09:17:38.998Z</time></trkpt><trkpt lat="43.219893430365154" lon="12.68482016267007"><ele>383.0</ele><time>2026-04-26T09:17:39.998Z</time></trkpt><trkpt lat="43.21989905386668" lon="12.684720503588242"><ele>381.0</ele><time>2026-04-26T09:17:40.998Z</time></trkpt><trkpt lat="43.219906184774146" lon="12.684633519310056"><ele>379.0</ele><time>2026-04-26T09:17:41.998Z</time></trkpt><trkpt lat="43.21995196776267" lon="12.684474634734169"><ele>377.0</ele><time>2026-04-26T09:17:43.998Z</time></trkpt><trkpt lat="43.22001843612414" lon="12.68442194987497"><ele>377.0</ele><time>2026-04-26T09:17:44.998Z</time></trkpt><trkpt lat="43.220063231021435" lon="12.684358371573344"><ele>377.0</ele><time>2026-04-26T09:17:45.998Z</time></trkpt><trkpt lat="43.220189533512006" lon="12.68433412838489"><ele>377.0</ele><time>2026-04-26T09:17:47.997Z</time></trkpt><trkpt lat="43.22026272465476" lon="12.684334042106709"><ele>377.0</ele><time>2026-04-26T09:17:48.997Z</time></trkpt><trkpt lat="43.22033618069154" lon="12.684354600399688"><ele>377.0</ele><time>2026-04-26T09:17:49.997Z</time></trkpt><trkpt lat="43.220416005741015" lon="12.684390403649697"><ele>377.0</ele><time>2026-04-26T09:17:50.997Z</time></trkpt><trkpt lat="43.22049872233627" lon="12.684430519602508"><ele>377.0</ele><time>2026-04-26T09:17:51.997Z</time></trkpt><trkpt lat="43.22058018829726" lon="12.684461201916738"><ele>377.0</ele><time>2026-04-26T09:17:52.997Z</time></trkpt><trkpt lat="43.22065930742662" lon="12.684476999924783"><ele>377.0</ele><time>2026-04-26T09:17:53.997Z</time></trkpt><trkpt lat="43.22072966694443" lon="12.684476625648994"><ele>377.0</ele><time>2026-04-26T09:17:54.997Z</time></trkpt><trkpt lat="43.22079423313403" lon="12.684472910514428"><ele>377.0</ele><time>2026-04-26T09:17:55.997Z</time></trkpt><trkpt lat="43.220937942958024" lon="12.684440192247404"><ele>377.0</ele><time>2026-04-26T09:17:57.997Z</time></trkpt><trkpt lat="43.22101325277786" lon="12.68441726323103"><ele>377.33333333333337</ele><time>2026-04-26T09:17:58.997Z</time></trkpt><trkpt lat="43.22109346291327" lon="12.68439115547514"><ele>377.6666666666667</ele><time>2026-04-26T09:17:59.997Z</time></trkpt><trkpt lat="43.22118018957558" lon="12.684362469245167"><ele>378.0</ele><time>2026-04-26T09:18:00.997Z</time></trkpt><trkpt lat="43.22126526975906" lon="12.684357380465745"><ele>378.3333333333333</ele><time>2026-04-26T09:18:01.997Z</time></trkpt><trkpt lat="43.22135823466595" lon="12.684407415283937"><ele>378.66666666666663</ele><time>2026-04-26T09:18:02.997Z</time></trkpt><trkpt lat="43.22143669569271" lon="12.684399861432366"><ele>379.0</ele><time>2026-04-26T09:18:03.999Z</time></trkpt><trkpt lat="43.221508936423405" lon="12.6843852550255"><ele>379.0</ele><time>2026-04-26T09:18:04.999Z</time></trkpt><trkpt lat="43.221587111919625" lon="12.68435910986913"><ele>379.0</ele><time>2026-04-26T09:18:05.999Z</time></trkpt><trkpt lat="43.221672983655544" lon="12.684337667418365"><ele>379.0</ele><time>2026-04-26T09:18:06.999Z</time></trkpt><trkpt lat="43.221757934564515" lon="12.684315978346703"><ele>379.0</ele><time>2026-04-26T09:18:07.999Z</time></trkpt><trkpt lat="43.22184223452416" lon="12.684287795258388"><ele>379.0</ele><time>2026-04-26T09:18:08.999Z</time></trkpt><trkpt lat="43.22192201924119" lon="12.684257318639306"><ele>379.0</ele><time>2026-04-26T09:18:09.999Z</time></trkpt><trkpt lat="43.22198337132108" lon="12.684234381663181"><ele>379.0</ele><time>2026-04-26T09:18:10.999Z</time></trkpt><trkpt lat="43.22205090195057" lon="12.68423247322465"><ele>379.0</ele><time>2026-04-26T09:18:12.999Z</time></trkpt><trkpt lat="43.22212217337039" lon="12.68426886256099"><ele>379.0</ele><time>2026-04-26T09:18:15.999Z</time></trkpt><trkpt lat="43.222183829210955" lon="12.684416991806389"><ele>379.0</ele><time>2026-04-26T09:18:17.999Z</time></trkpt><trkpt lat="43.22222291912161" lon="12.684520708434341"><ele>379.0</ele><time>2026-04-26T09:18:18.999Z</time></trkpt><trkpt lat="43.222259603929665" lon="12.684641402195874"><ele>379.0</ele><time>2026-04-26T09:18:19.999Z</time></trkpt><trkpt lat="43.222292425536224" lon="12.684783688855504"><ele>378.75</ele><time>2026-04-26T09:18:20.999Z</time></trkpt><trkpt lat="43.22231352535687" lon="12.684947661547525"><ele>378.5</ele><time>2026-04-26T09:18:21.999Z</time></trkpt><trkpt lat="43.222310995420244" lon="12.685119643011527"><ele>378.25</ele><time>2026-04-26T09:18:22.999Z</time></trkpt><trkpt lat="43.222285624321366" lon="12.685298153355467"><ele>378.0</ele><time>2026-04-26T09:18:23.999Z</time></trkpt><trkpt lat="43.22224147539657" lon="12.685482453825255"><ele>378.0</ele><time>2026-04-26T09:18:24.999Z</time></trkpt><trkpt lat="43.22219207560214" lon="12.6856752032808"><ele>378.0</ele><time>2026-04-26T09:18:25.999Z</time></trkpt><trkpt lat="43.222149338635745" lon="12.68587567240202"><ele>378.0</ele><time>2026-04-26T09:18:26.999Z</time></trkpt><trkpt lat="43.22210986451768" lon="12.686087027881051"><ele>378.0</ele><time>2026-04-26T09:18:27.999Z</time></trkpt><trkpt lat="43.2220709179798" lon="12.686304644001446"><ele>378.0</ele><time>2026-04-26T09:18:28.999Z</time></trkpt><trkpt lat="43.222029370928965" lon="12.686526483602306"><ele>378.0</ele><time>2026-04-26T09:18:29.999Z</time></trkpt><trkpt lat="43.2219830012973" lon="12.68675133548519"><ele>379.0</ele><time>2026-04-26T09:18:30.999Z</time></trkpt><trkpt lat="43.22193661708475" lon="12.686981420886847"><ele>380.0</ele><time>2026-04-26T09:18:31.999Z</time></trkpt><trkpt lat="43.22188998804717" lon="12.687217390382209"><ele>381.0</ele><time>2026-04-26T09:18:32.999Z</time></trkpt><trkpt lat="43.221838955652444" lon="12.687453923935381"><ele>381.0</ele><time>2026-04-26T09:18:33.999Z</time></trkpt><trkpt lat="43.221787453869545" lon="12.68768242309299"><ele>381.0</ele><time>2026-04-26T09:18:34.999Z</time></trkpt><trkpt lat="43.221740139387215" lon="12.687912917943146"><ele>381.0</ele><time>2026-04-26T09:18:35.999Z</time></trkpt><trkpt lat="43.22169382955769" lon="12.688142614369898"><ele>382.33333333333337</ele><time>2026-04-26T09:18:36.999Z</time></trkpt><trkpt lat="43.22164855232768" lon="12.68837466656654"><ele>383.6666666666667</ele><time>2026-04-26T09:18:37.999Z</time></trkpt><trkpt lat="43.221600180461124" lon="12.688613268791022"><ele>385.0</ele><time>2026-04-26T09:18:38.999Z</time></trkpt><trkpt lat="43.22155129054712" lon="12.688848721133647"><ele>384.33333333333337</ele><time>2026-04-26T09:18:39.999Z</time></trkpt><trkpt lat="43.22149996009388" lon="12.689086769305039"><ele>383.6666666666667</ele><time>2026-04-26T09:18:40.999Z</time></trkpt><trkpt lat="43.22145033962267" lon="12.689327501855995"><ele>383.0</ele><time>2026-04-26T09:18:41.999Z</time></trkpt><trkpt lat="43.221402262951976" lon="12.689567622944123"><ele>383.0</ele><time>2026-04-26T09:18:42.999Z</time></trkpt><trkpt lat="43.22135210117982" lon="12.689809572786558"><ele>383.0</ele><time>2026-04-26T09:18:43.999Z</time></trkpt><trkpt lat="43.22130267944196" lon="12.690051253222785"><ele>383.0</ele><time>2026-04-26T09:18:44.999Z</time></trkpt><trkpt lat="43.22125944788157" lon="12.690295780753184"><ele>383.6666666666667</ele><time>2026-04-26T09:18:45.999Z</time></trkpt><trkpt lat="43.22122506093826" lon="12.690546457513816"><ele>384.33333333333337</ele><time>2026-04-26T09:18:46.999Z</time></trkpt><trkpt lat="43.22120223189657" lon="12.690804218022574"><ele>385.0</ele><time>2026-04-26T09:18:47.999Z</time></trkpt><trkpt lat="43.2211854169811" lon="12.69106211204525"><ele>386.0</ele><time>2026-04-26T09:18:48.999Z</time></trkpt><trkpt lat="43.2211689646076" lon="12.691324574671862"><ele>387.0</ele><time>2026-04-26T09:18:49.999Z</time></trkpt><trkpt lat="43.221155650967425" lon="12.691593961850261"><ele>388.0</ele><time>2026-04-26T09:18:50.999Z</time></trkpt><trkpt lat="43.22113984759939" lon="12.691866888204725"><ele>388.0</ele><time>2026-04-26T09:18:51.999Z</time></trkpt><trkpt lat="43.22112227005772" lon="12.692137532262175"><ele>388.0</ele><time>2026-04-26T09:18:52.999Z</time></trkpt><trkpt lat="43.22110629476984" lon="12.692410804289612"><ele>388.0</ele><time>2026-04-26T09:18:53.999Z</time></trkpt><trkpt lat="43.2210874288267" lon="12.692684682596514"><ele>389.6666666666667</ele><time>2026-04-26T09:18:54.999Z</time></trkpt><trkpt lat="43.22107066232256" lon="12.692967007142483"><ele>391.33333333333337</ele><time>2026-04-26T09:18:55.999Z</time></trkpt><trkpt lat="43.22105232043236" lon="12.6932449776329"><ele>393.0</ele><time>2026-04-26T09:18:56.999Z</time></trkpt><trkpt lat="43.22103486254948" lon="12.693527614194794"><ele>393.66666666666663</ele><time>2026-04-26T09:18:57.999Z</time></trkpt><trkpt lat="43.22102896943423" lon="12.693811059474958"><ele>394.3333333333333</ele><time>2026-04-26T09:18:58.999Z</time></trkpt><trkpt lat="43.22103906248378" lon="12.694093970965463"><ele>395.0</ele><time>2026-04-26T09:18:59.999Z</time></trkpt><trkpt lat="43.22107365494479" lon="12.69437859759996"><ele>393.3333333333333</ele><time>2026-04-26T09:19:00.999Z</time></trkpt><trkpt lat="43.2211208111129" lon="12.69465653564332"><ele>391.66666666666663</ele><time>2026-04-26T09:19:01.999Z</time></trkpt><trkpt lat="43.22116863505203" lon="12.694937158921185"><ele>390.0</ele><time>2026-04-26T09:19:02.999Z</time></trkpt><trkpt lat="43.22121520970206" lon="12.695214594642675"><ele>390.0</ele><time>2026-04-26T09:19:03.999Z</time></trkpt><trkpt lat="43.22126252406003" lon="12.695491322264745"><ele>390.0</ele><time>2026-04-26T09:19:04.998Z</time></trkpt><trkpt lat="43.22131771888991" lon="12.69576994041822"><ele>390.0</ele><time>2026-04-26T09:19:05.998Z</time></trkpt><trkpt lat="43.22137928548628" lon="12.696048369703794"><ele>389.66666666666663</ele><time>2026-04-26T09:19:06.998Z</time></trkpt><trkpt lat="43.22143789590591" lon="12.696329294683744"><ele>389.3333333333333</ele><time>2026-04-26T09:19:07.998Z</time></trkpt><trkpt lat="43.22149238583149" lon="12.69661286672879"><ele>389.0</ele><time>2026-04-26T09:19:08.998Z</time></trkpt><trkpt lat="43.22154264269881" lon="12.696898756438513"><ele>393.3333333333333</ele><time>2026-04-26T09:19:09.998Z</time></trkpt><trkpt lat="43.22158064055118" lon="12.697187223677858"><ele>397.66666666666663</ele><time>2026-04-26T09:19:10.998Z</time></trkpt><trkpt lat="43.22159729318351" lon="12.69748631542031"><ele>402.0</ele><time>2026-04-26T09:19:11.998Z</time></trkpt><trkpt lat="43.22159535214445" lon="12.697788586110926"><ele>402.0</ele><time>2026-04-26T09:19:12.998Z</time></trkpt><trkpt lat="43.221576674011345" lon="12.698090347263285"><ele>402.0</ele><time>2026-04-26T09:19:13.998Z</time></trkpt><trkpt lat="43.22154970348346" lon="12.698384010500378"><ele>402.0</ele><time>2026-04-26T09:19:14.998Z</time></trkpt><trkpt lat="43.22151325279359" lon="12.698679563207834"><ele>398.66666666666663</ele><time>2026-04-26T09:19:15.998Z</time></trkpt><trkpt lat="43.22147247100598" lon="12.698974644364675"><ele>395.3333333333333</ele><time>2026-04-26T09:19:16.998Z</time></trkpt><trkpt lat="43.221435174230116" lon="12.699267364986575"><ele>392.0</ele><time>2026-04-26T09:19:17.998Z</time></trkpt><trkpt lat="43.2214007195791" lon="12.699561233699384"><ele>392.0</ele><time>2026-04-26T09:19:18.998Z</time></trkpt><trkpt lat="43.22137143834145" lon="12.699853733799975"><ele>392.0</ele><time>2026-04-26T09:19:19.998Z</time></trkpt><trkpt lat="43.221363423250835" lon="12.700148048216612"><ele>392.0</ele><time>2026-04-26T09:19:20.998Z</time></trkpt><trkpt lat="43.221388642370194" lon="12.700437473447506"><ele>392.0</ele><time>2026-04-26T09:19:21.998Z</time></trkpt><trkpt lat="43.22141673364785" lon="12.700724638207385"><ele>392.0</ele><time>2026-04-26T09:19:22.998Z</time></trkpt><trkpt lat="43.22143827835578" lon="12.701013569950243"><ele>392.0</ele><time>2026-04-26T09:19:23.998Z</time></trkpt><trkpt lat="43.22151388624435" lon="12.701298214724762"><ele>395.0</ele><time>2026-04-26T09:19:24.998Z</time></trkpt><trkpt lat="43.221545329018404" lon="12.701586951935989"><ele>398.0</ele><time>2026-04-26T09:19:25.998Z</time></trkpt><trkpt lat="43.221580062067865" lon="12.701878373503309"><ele>401.0</ele><time>2026-04-26T09:19:26.998Z</time></trkpt><trkpt lat="43.22161646511386" lon="12.702166064533245"><ele>401.0</ele><time>2026-04-26T09:19:27.998Z</time></trkpt><trkpt lat="43.22165212310834" lon="12.70245469945812"><ele>401.0</ele><time>2026-04-26T09:19:28.998Z</time></trkpt><trkpt lat="43.221686900590136" lon="12.70274428272363"><ele>401.0</ele><time>2026-04-26T09:19:29.998Z</time></trkpt><trkpt lat="43.22171972033295" lon="12.703035935314851"><ele>400.66666666666663</ele><time>2026-04-26T09:19:30.998Z</time></trkpt><trkpt lat="43.221753546896636" lon="12.703327028592742"><ele>400.33333333333337</ele><time>2026-04-26T09:19:31.998Z</time></trkpt><trkpt lat="43.221789121407106" lon="12.70361630290055"><ele>400.0</ele><time>2026-04-26T09:19:32.998Z</time></trkpt><trkpt lat="43.221824569992286" lon="12.703907633391157"><ele>400.0</ele><time>2026-04-26T09:19:33.998Z</time></trkpt><trkpt lat="43.221859622644324" lon="12.704197573514847"><ele>400.0</ele><time>2026-04-26T09:19:34.998Z</time></trkpt><trkpt lat="43.22189174651798" lon="12.704464981926325"><ele>400.0</ele><time>2026-04-26T09:19:35.998Z</time></trkpt><trkpt lat="43.22192233068916" lon="12.704703602266385"><ele>400.0</ele><time>2026-04-26T09:19:36.998Z</time></trkpt><trkpt lat="43.22196785209217" lon="12.70491096542945"><ele>400.0</ele><time>2026-04-26T09:19:37.998Z</time></trkpt><trkpt lat="43.22203462978137" lon="12.705067046969834"><ele>400.0</ele><time>2026-04-26T09:19:38.998Z</time></trkpt><trkpt lat="43.22211335149096" lon="12.705177510724523"><ele>400.0</ele><time>2026-04-26T09:19:39.998Z</time></trkpt><trkpt lat="43.22217952907006" lon="12.705246782519826"><ele>400.0</ele><time>2026-04-26T09:19:40.998Z</time></trkpt><trkpt lat="43.22221501561015" lon="12.705333580789798"><ele>400.0</ele><time>2026-04-26T09:19:42.998Z</time></trkpt><trkpt lat="43.222144255649866" lon="12.70544596455963"><ele>400.0</ele><time>2026-04-26T09:19:44.998Z</time></trkpt><trkpt lat="43.222083066133905" lon="12.705515025032987"><ele>400.0</ele><time>2026-04-26T09:19:45.998Z</time></trkpt><trkpt lat="43.22201669989713" lon="12.705589306195552"><ele>400.0</ele><time>2026-04-26T09:19:46.998Z</time></trkpt><trkpt lat="43.221926669611236" lon="12.70566692639014"><ele>400.0</ele><time>2026-04-26T09:19:47.998Z</time></trkpt><trkpt lat="43.22181782166397" lon="12.705740804435083"><ele>400.0</ele><time>2026-04-26T09:19:48.998Z</time></trkpt><trkpt lat="43.22170281730844" lon="12.705814216825928"><ele>400.0</ele><time>2026-04-26T09:19:49.998Z</time></trkpt><trkpt lat="43.221584517032746" lon="12.705895534166023"><ele>400.0</ele><time>2026-04-26T09:19:50.998Z</time></trkpt><trkpt lat="43.221457026775134" lon="12.70597924445563"><ele>400.5</ele><time>2026-04-26T09:19:51.997Z</time></trkpt><trkpt lat="43.2213285969212" lon="12.706070413288233"><ele>401.0</ele><time>2026-04-26T09:19:52.997Z</time></trkpt><trkpt lat="43.22119969325234" lon="12.706167585084804"><ele>401.5</ele><time>2026-04-26T09:19:53.997Z</time></trkpt><trkpt lat="43.22107326360762" lon="12.706262702111903"><ele>402.0</ele><time>2026-04-26T09:19:54.997Z</time></trkpt><trkpt lat="43.22095292212576" lon="12.706344185900164"><ele>402.8</ele><time>2026-04-26T09:19:55.997Z</time></trkpt><trkpt lat="43.220842134715646" lon="12.706394318375416"><ele>403.6</ele><time>2026-04-26T09:19:56.997Z</time></trkpt><trkpt lat="43.22074716024646" lon="12.70641894041158"><ele>404.40000000000003</ele><time>2026-04-26T09:19:57.997Z</time></trkpt><trkpt lat="43.22067243278828" lon="12.706433892962181"><ele>405.20000000000005</ele><time>2026-04-26T09:19:58.997Z</time></trkpt><trkpt lat="43.22055897111285" lon="12.706445602445973"><ele>406.0</ele><time>2026-04-26T09:20:00.997Z</time></trkpt><trkpt lat="43.220459865886994" lon="12.706450067878414"><ele>410.6</ele><time>2026-04-26T09:20:02.997Z</time></trkpt><trkpt lat="43.22038441656756" lon="12.706514317427455"><ele>415.20000000000005</ele><time>2026-04-26T09:20:04.997Z</time></trkpt><trkpt lat="43.22032184646828" lon="12.706625006262467"><ele>419.79999999999995</ele><time>2026-04-26T09:20:06.997Z</time></trkpt><trkpt lat="43.22028428863768" lon="12.706745465294691"><ele>424.4</ele><time>2026-04-26T09:20:08.997Z</time></trkpt><trkpt lat="43.22025420329851" lon="12.706840929810188"><ele>429.0</ele><time>2026-04-26T09:20:11Z</time></trkpt><trkpt lat="43.22020385376506" lon="12.706967815196494"><ele>430.1666666666667</ele><time>2026-04-26T09:20:14Z</time></trkpt><trkpt lat="43.22019246193303" lon="12.707066562128759"><ele>431.33333333333337</ele><time>2026-04-26T09:20:16Z</time></trkpt><trkpt lat="43.22015707963181" lon="12.707155223992423"><ele>432.5</ele><time>2026-04-26T09:20:18Z</time></trkpt><trkpt lat="43.22011194999092" lon="12.707242938484368"><ele>433.6666666666667</ele><time>2026-04-26T09:20:20Z</time></trkpt><trkpt lat="43.220048605837306" lon="12.707301729042355"><ele>434.83333333333337</ele><time>2026-04-26T09:20:22Z</time></trkpt><trkpt lat="43.21998486623799" lon="12.707334368259062"><ele>436.0</ele><time>2026-04-26T09:20:24Z</time></trkpt><trkpt lat="43.21990341282565" lon="12.707354515243406"><ele>436.00000000000006</ele><time>2026-04-26T09:20:26Z</time></trkpt><trkpt lat="43.21982740352501" lon="12.707407384002806"><ele>436.0</ele><time>2026-04-26T09:20:28Z</time></trkpt><trkpt lat="43.21975431095801" lon="12.70746094893328"><ele>436.0</ele><time>2026-04-26T09:20:30Z</time></trkpt><trkpt lat="43.219661944882866" lon="12.707501241439179"><ele>436.0</ele><time>2026-04-26T09:20:32Z</time></trkpt><trkpt lat="43.21958285500443" lon="12.707508441642787"><ele>436.00000000000006</ele><time>2026-04-26T09:20:34Z</time></trkpt><trkpt lat="43.219498660682646" lon="12.707472504425715"><ele>436.0</ele><time>2026-04-26T09:20:36Z</time></trkpt><trkpt lat="43.21945890388892" lon="12.707391542686858"><ele>435.83333333333337</ele><time>2026-04-26T09:20:38Z</time></trkpt><trkpt lat="43.21944133888118" lon="12.707283482090979"><ele>435.6666666666667</ele><time>2026-04-26T09:20:40Z</time></trkpt><trkpt lat="43.21943712072202" lon="12.707187759208296"><ele>435.5</ele><time>2026-04-26T09:20:42Z</time></trkpt><trkpt lat="43.21942545508543" lon="12.707082551215777"><ele>435.33333333333337</ele><time>2026-04-26T09:20:45Z</time></trkpt><trkpt lat="43.21940583351583" lon="12.706955149398084"><ele>435.1666666666667</ele><time>2026-04-26T09:22:13.998Z</time></trkpt><trkpt lat="43.219377021127116" lon="12.70682431549797"><ele>435.0</ele><time>2026-04-26T09:22:16Z</time></trkpt><trkpt lat="43.21934668670773" lon="12.706696898494469"><ele>435.0</ele><time>2026-04-26T09:22:18Z</time></trkpt><trkpt lat="43.21933280543785" lon="12.706561232910646"><ele>435.0</ele><time>2026-04-26T09:22:20Z</time></trkpt><trkpt lat="43.2193165661585" lon="12.706406249776434"><ele>435.0</ele><time>2026-04-26T09:22:22Z</time></trkpt><trkpt lat="43.21928043650356" lon="12.706260682445073"><ele>435.0</ele><time>2026-04-26T09:22:24Z</time></trkpt><trkpt lat="43.21925775267574" lon="12.706099543798704"><ele>435.0</ele><time>2026-04-26T09:22:26Z</time></trkpt><trkpt lat="43.219252052371985" lon="12.706009824008941"><ele>434.4</ele><time>2026-04-26T09:22:27Z</time></trkpt><trkpt lat="43.21924962829265" lon="12.705916665270204"><ele>433.8</ele><time>2026-04-26T09:22:28Z</time></trkpt><trkpt lat="43.21924630288041" lon="12.705826103366224"><ele>433.20000000000005</ele><time>2026-04-26T09:22:29Z</time></trkpt><trkpt lat="43.21921962362293" lon="12.705657358630399"><ele>432.6</ele><time>2026-04-26T09:22:31Z</time></trkpt><trkpt lat="43.21918307630685" lon="12.705504422350192"><ele>432.0</ele><time>2026-04-26T09:22:33Z</time></trkpt><trkpt lat="43.21914075468767" lon="12.705357033908768"><ele>432.40000000000003</ele><time>2026-04-26T09:22:35Z</time></trkpt><trkpt lat="43.21908838956167" lon="12.705220821846082"><ele>432.80000000000007</ele><time>2026-04-26T09:22:37Z</time></trkpt><trkpt lat="43.21906278131677" lon="12.705067645306247"><ele>433.2</ele><time>2026-04-26T09:22:39Z</time></trkpt><trkpt lat="43.21903027692316" lon="12.704934960776532"><ele>433.6</ele><time>2026-04-26T09:22:41Z</time></trkpt><trkpt lat="43.21898489880939" lon="12.704805867360427"><ele>434.0</ele><time>2026-04-26T09:22:43Z</time></trkpt><trkpt lat="43.21891601584816" lon="12.704676364296374"><ele>434.0</ele><time>2026-04-26T09:22:45Z</time></trkpt><trkpt lat="43.2188435334927" lon="12.704549228514585"><ele>434.0</ele><time>2026-04-26T09:22:47Z</time></trkpt><trkpt lat="43.21875503356993" lon="12.704441221405906"><ele>434.0</ele><time>2026-04-26T09:22:49Z</time></trkpt><trkpt lat="43.218700860309774" lon="12.70439715059986"><ele>434.0</ele><time>2026-04-26T09:22:50Z</time></trkpt><trkpt lat="43.21858776352508" lon="12.704324074598093"><ele>434.0</ele><time>2026-04-26T09:22:52Z</time></trkpt><trkpt lat="43.21848455556513" lon="12.704236562787445"><ele>431.0</ele><time>2026-04-26T09:22:54Z</time></trkpt><trkpt lat="43.21841762133421" lon="12.704117908317109"><ele>428.0</ele><time>2026-04-26T09:22:56Z</time></trkpt><trkpt lat="43.21839103298436" lon="12.70395505213804"><ele>425.0</ele><time>2026-04-26T09:22:58Z</time></trkpt><trkpt lat="43.21834344597718" lon="12.703827089889916"><ele>422.0</ele><time>2026-04-26T09:23:00Z</time></trkpt><trkpt lat="43.21823761787542" lon="12.703753408529822"><ele>420.99999999999994</ele><time>2026-04-26T09:23:02Z</time></trkpt><trkpt lat="43.21811193984578" lon="12.703725789923213"><ele>420.0</ele><time>2026-04-26T09:23:04Z</time></trkpt><trkpt lat="43.21804519472378" lon="12.703716848935196"><ele>419.0</ele><time>2026-04-26T09:23:05Z</time></trkpt><trkpt lat="43.21798316993195" lon="12.703689866312876"><ele>418.0</ele><time>2026-04-26T09:23:06Z</time></trkpt><trkpt lat="43.21792395253615" lon="12.703646420088985"><ele>416.99999999999994</ele><time>2026-04-26T09:23:07Z</time></trkpt><trkpt lat="43.217868896694974" lon="12.703584128947323"><ele>416.0</ele><time>2026-04-26T09:23:08Z</time></trkpt><trkpt lat="43.21782451029314" lon="12.703505411731722"><ele>416.0</ele><time>2026-04-26T09:23:09Z</time></trkpt><trkpt lat="43.217790860113205" lon="12.703424366440608"><ele>416.0</ele><time>2026-04-26T09:23:10Z</time></trkpt><trkpt lat="43.21776118189688" lon="12.703343300439952"><ele>416.0</ele><time>2026-04-26T09:23:11Z</time></trkpt><trkpt lat="43.21773463228576" lon="12.703257709532094"><ele>416.0</ele><time>2026-04-26T09:23:11.999Z</time></trkpt><trkpt lat="43.217710290702776" lon="12.703170679726652"><ele>416.0</ele><time>2026-04-26T09:23:12.999Z</time></trkpt><trkpt lat="43.21768169729377" lon="12.703084169038773"><ele>416.0</ele><time>2026-04-26T09:23:13.999Z</time></trkpt><trkpt lat="43.217652512463694" lon="12.703000600551851"><ele>416.0</ele><time>2026-04-26T09:23:14.999Z</time></trkpt><trkpt lat="43.217624857298915" lon="12.702915336108768"><ele>415.99999999999994</ele><time>2026-04-26T09:23:15.999Z</time></trkpt><trkpt lat="43.21759687218845" lon="12.702835508397595"><ele>416.0</ele><time>2026-04-26T09:23:16.999Z</time></trkpt><trkpt lat="43.21756753905883" lon="12.702752486302622"><ele>416.0</ele><time>2026-04-26T09:23:17.999Z</time></trkpt><trkpt lat="43.217538935122825" lon="12.702675467031156"><ele>416.0</ele><time>2026-04-26T09:23:18.999Z</time></trkpt><trkpt lat="43.21750655889564" lon="12.702601302895987"><ele>415.99999999999994</ele><time>2026-04-26T09:23:19.999Z</time></trkpt><trkpt lat="43.21744001602793" lon="12.702475829640125"><ele>416.0</ele><time>2026-04-26T09:23:21.999Z</time></trkpt><trkpt lat="43.21736066201041" lon="12.702368529407197"><ele>414.49999999999994</ele><time>2026-04-26T09:23:23.999Z</time></trkpt><trkpt lat="43.21725875079123" lon="12.702282702665817"><ele>413.0</ele><time>2026-04-26T09:23:25.999Z</time></trkpt><trkpt lat="43.217143665253055" lon="12.702226040582907"><ele>411.5</ele><time>2026-04-26T09:23:27.999Z</time></trkpt><trkpt lat="43.21708099069711" lon="12.70221411706296"><ele>410.0</ele><time>2026-04-26T09:23:28.999Z</time></trkpt><trkpt lat="43.21701523540386" lon="12.702217116961911"><ele>408.49999999999994</ele><time>2026-04-26T09:23:29.999Z</time></trkpt><trkpt lat="43.21694706069754" lon="12.702220453369625"><ele>407.0</ele><time>2026-04-26T09:23:30.999Z</time></trkpt><trkpt lat="43.21687694704051" lon="12.702234435375761"><ele>407.00000000000006</ele><time>2026-04-26T09:23:31.999Z</time></trkpt><trkpt lat="43.21681083736895" lon="12.702246786198575"><ele>407.0</ele><time>2026-04-26T09:23:32.999Z</time></trkpt><trkpt lat="43.21674075662297" lon="12.702259731757959"><ele>407.0</ele><time>2026-04-26T09:23:33.999Z</time></trkpt><trkpt lat="43.216666718751675" lon="12.702267341549433"><ele>407.0</ele><time>2026-04-26T09:23:34.999Z</time></trkpt><trkpt lat="43.216592250692" lon="12.702280221847273"><ele>407.0</ele><time>2026-04-26T09:23:35.999Z</time></trkpt><trkpt lat="43.216513981595604" lon="12.702287937293613"><ele>407.00000000000006</ele><time>2026-04-26T09:23:36.999Z</time></trkpt><trkpt lat="43.21643812737495" lon="12.70230594276799"><ele>407.0</ele><time>2026-04-26T09:23:37.999Z</time></trkpt><trkpt lat="43.216359601275315" lon="12.702326625647725"><ele>406.5714285714286</ele><time>2026-04-26T09:23:38.999Z</time></trkpt><trkpt lat="43.21628661606486" lon="12.702349188883964"><ele>406.14285714285717</ele><time>2026-04-26T09:23:39.999Z</time></trkpt><trkpt lat="43.216214666143465" lon="12.702371729759994"><ele>405.7142857142857</ele><time>2026-04-26T09:23:40.999Z</time></trkpt><trkpt lat="43.21614848831836" lon="12.702393372598507"><ele>405.28571428571433</ele><time>2026-04-26T09:23:41.999Z</time></trkpt><trkpt lat="43.216076765239414" lon="12.702408019650429"><ele>404.85714285714283</ele><time>2026-04-26T09:23:42.999Z</time></trkpt><trkpt lat="43.21600656277585" lon="12.702414441287715"><ele>404.42857142857144</ele><time>2026-04-26T09:23:43.999Z</time></trkpt><trkpt lat="43.21593636801602" lon="12.702431807388749"><ele>404.0</ele><time>2026-04-26T09:23:44.999Z</time></trkpt><trkpt lat="43.215866095082774" lon="12.702457985107957"><ele>404.0</ele><time>2026-04-26T09:23:45.999Z</time></trkpt><trkpt lat="43.21579658020846" lon="12.702486837826392"><ele>404.0</ele><time>2026-04-26T09:23:46.999Z</time></trkpt><trkpt lat="43.21572811494721" lon="12.702521116217982"><ele>404.0</ele><time>2026-04-26T09:23:47.999Z</time></trkpt><trkpt lat="43.215659317636344" lon="12.702558095295617"><ele>404.0</ele><time>2026-04-26T09:23:48.999Z</time></trkpt><trkpt lat="43.21559011658802" lon="12.702594281054933"><ele>404.0</ele><time>2026-04-26T09:23:49.999Z</time></trkpt><trkpt lat="43.21552522533205" lon="12.702624144630741"><ele>404.0</ele><time>2026-04-26T09:23:50.999Z</time></trkpt><trkpt lat="43.21546272642142" lon="12.70265732812434"><ele>404.0</ele><time>2026-04-26T09:23:51.999Z</time></trkpt><trkpt lat="43.21539746947143" lon="12.702684174969502"><ele>404.6</ele><time>2026-04-26T09:23:52.999Z</time></trkpt><trkpt lat="43.21528814416992" lon="12.70273081843828"><ele>405.2</ele><time>2026-04-26T09:23:54.999Z</time></trkpt><trkpt lat="43.21522624869883" lon="12.702768487618098"><ele>405.8</ele><time>2026-04-26T09:23:55.999Z</time></trkpt><trkpt lat="43.21511303782101" lon="12.702858176248176"><ele>406.40000000000003</ele><time>2026-04-26T09:23:57.999Z</time></trkpt><trkpt lat="43.215062140450804" lon="12.702920480727355"><ele>407.0</ele><time>2026-04-26T09:23:58.999Z</time></trkpt><trkpt lat="43.21501235393838" lon="12.702985301464798"><ele>406.99999999999994</ele><time>2026-04-26T09:23:59.998Z</time></trkpt><trkpt lat="43.2149606177427" lon="12.703047708321302"><ele>407.0</ele><time>2026-04-26T09:24:00.998Z</time></trkpt><trkpt lat="43.214910985333404" lon="12.703104173289967"><ele>407.0</ele><time>2026-04-26T09:24:01.998Z</time></trkpt><trkpt lat="43.214822564218196" lon="12.703222060838074"><ele>407.0</ele><time>2026-04-26T09:24:03.998Z</time></trkpt><trkpt lat="43.21477432099991" lon="12.70327981658255"><ele>406.99999999999994</ele><time>2026-04-26T09:24:04.998Z</time></trkpt><trkpt lat="43.21468378953662" lon="12.703356942674697"><ele>407.0</ele><time>2026-04-26T09:24:06.998Z</time></trkpt><trkpt lat="43.21459323916677" lon="12.703429072997496"><ele>407.8</ele><time>2026-04-26T09:24:08.998Z</time></trkpt><trkpt lat="43.214512038072556" lon="12.703477173883845"><ele>408.6</ele><time>2026-04-26T09:24:10.998Z</time></trkpt><trkpt lat="43.21443053112666" lon="12.70351053346737"><ele>409.40000000000003</ele><time>2026-04-26T09:24:12.998Z</time></trkpt><trkpt lat="43.21432577580066" lon="12.70354446410271"><ele>410.20000000000005</ele><time>2026-04-26T09:24:14.998Z</time></trkpt><trkpt lat="43.21422027027816" lon="12.703572091254271"><ele>411.0</ele><time>2026-04-26T09:24:16.998Z</time></trkpt><trkpt lat="43.21410437342516" lon="12.703592028616635"><ele>411.42857142857144</ele><time>2026-04-26T09:24:18.998Z</time></trkpt><trkpt lat="43.213987929960346" lon="12.703605277415654"><ele>411.85714285714283</ele><time>2026-04-26T09:24:21Z</time></trkpt><trkpt lat="43.2139238577908" lon="12.703606866857507"><ele>412.28571428571433</ele><time>2026-04-26T09:24:22Z</time></trkpt><trkpt lat="43.21386057788349" lon="12.70360998030329"><ele>412.7142857142857</ele><time>2026-04-26T09:24:23Z</time></trkpt><trkpt lat="43.21379742627371" lon="12.703618084176707"><ele>413.14285714285717</ele><time>2026-04-26T09:24:24Z</time></trkpt><trkpt lat="43.21372842295776" lon="12.70362612950584"><ele>413.5714285714286</ele><time>2026-04-26T09:24:25Z</time></trkpt><trkpt lat="43.21366151394077" lon="12.70364020511283"><ele>414.0</ele><time>2026-04-26T09:24:26Z</time></trkpt><trkpt lat="43.21359591630628" lon="12.703651191128642"><ele>414.0</ele><time>2026-04-26T09:24:27Z</time></trkpt><trkpt lat="43.213483944426464" lon="12.703662747995079"><ele>414.0</ele><time>2026-04-26T09:24:29Z</time></trkpt><trkpt lat="43.21338756253834" lon="12.703667405687858"><ele>414.0</ele><time>2026-04-26T09:24:31Z</time></trkpt><trkpt lat="43.21327878818428" lon="12.70365987518015"><ele>414.0</ele><time>2026-04-26T09:24:33Z</time></trkpt><trkpt lat="43.21318143134737" lon="12.703658409228328"><ele>414.0</ele><time>2026-04-26T09:24:35Z</time></trkpt><trkpt lat="43.213093534971335" lon="12.703706735625243"><ele>413.1666666666667</ele><time>2026-04-26T09:24:37Z</time></trkpt><trkpt lat="43.21298703288431" lon="12.703781944883476"><ele>412.33333333333337</ele><time>2026-04-26T09:24:39Z</time></trkpt><trkpt lat="43.212929887304185" lon="12.703821841649491"><ele>411.5</ele><time>2026-04-26T09:24:40Z</time></trkpt><trkpt lat="43.21282238567746" lon="12.703920251975784"><ele>410.6666666666667</ele><time>2026-04-26T09:24:42Z</time></trkpt><trkpt lat="43.21277259217797" lon="12.703977959855568"><ele>409.83333333333337</ele><time>2026-04-26T09:24:43Z</time></trkpt><trkpt lat="43.21271813628003" lon="12.704038794607555"><ele>409.0</ele><time>2026-04-26T09:24:44Z</time></trkpt><trkpt lat="43.21266371659623" lon="12.704102889932889"><ele>409.0</ele><time>2026-04-26T09:24:45Z</time></trkpt><trkpt lat="43.21260730780893" lon="12.704163619863094"><ele>409.0</ele><time>2026-04-26T09:24:46Z</time></trkpt><trkpt lat="43.21255853975265" lon="12.704220495081406"><ele>409.0</ele><time>2026-04-26T09:24:47Z</time></trkpt><trkpt lat="43.21250431259298" lon="12.704279146387783"><ele>409.0</ele><time>2026-04-26T09:24:48Z</time></trkpt><trkpt lat="43.212449844824896" lon="12.704339149416604"><ele>409.0</ele><time>2026-04-26T09:24:49Z</time></trkpt><trkpt lat="43.21239641080468" lon="12.704401576641882"><ele>409.0</ele><time>2026-04-26T09:24:50Z</time></trkpt><trkpt lat="43.212346080384364" lon="12.704455721207266"><ele>409.0</ele><time>2026-04-26T09:24:51Z</time></trkpt><trkpt lat="43.212285752020925" lon="12.704511731364784"><ele>409.7142857142857</ele><time>2026-04-26T09:24:52Z</time></trkpt><trkpt lat="43.21222838475156" lon="12.704571557766334"><ele>410.42857142857144</ele><time>2026-04-26T09:24:53Z</time></trkpt><trkpt lat="43.21217511030265" lon="12.704628755484308"><ele>411.14285714285717</ele><time>2026-04-26T09:24:54Z</time></trkpt><trkpt lat="43.21212281161748" lon="12.704686834800345"><ele>411.8571428571429</ele><time>2026-04-26T09:24:55Z</time></trkpt><trkpt lat="43.212070505767514" lon="12.704746664728493"><ele>412.57142857142856</ele><time>2026-04-26T09:24:56Z</time></trkpt><trkpt lat="43.212013563512414" lon="12.704809492096112"><ele>413.28571428571433</ele><time>2026-04-26T09:24:57Z</time></trkpt><trkpt lat="43.211956844410196" lon="12.704867263294778"><ele>414.0</ele><time>2026-04-26T09:24:58Z</time></trkpt><trkpt lat="43.211897937779206" lon="12.704927731230164"><ele>414.0</ele><time>2026-04-26T09:24:59Z</time></trkpt><trkpt lat="43.21183671139951" lon="12.704978519080628"><ele>414.0</ele><time>2026-04-26T09:25:00Z</time></trkpt><trkpt lat="43.211721507637385" lon="12.705049379113577"><ele>414.0</ele><time>2026-04-26T09:25:02Z</time></trkpt><trkpt lat="43.211654059177945" lon="12.705085698021334"><ele>414.0</ele><time>2026-04-26T09:25:03Z</time></trkpt><trkpt lat="43.21157972772432" lon="12.705119828158566"><ele>414.0</ele><time>2026-04-26T09:25:04Z</time></trkpt><trkpt lat="43.211509417094554" lon="12.705140476566653"><ele>414.0</ele><time>2026-04-26T09:25:05Z</time></trkpt><trkpt lat="43.211384464089065" lon="12.70514280805224"><ele>414.3333333333333</ele><time>2026-04-26T09:25:07Z</time></trkpt><trkpt lat="43.211313541346996" lon="12.705133840629644"><ele>414.66666666666663</ele><time>2026-04-26T09:25:08Z</time></trkpt><trkpt lat="43.211248762324686" lon="12.705109225959285"><ele>415.0</ele><time>2026-04-26T09:25:08.999Z</time></trkpt><trkpt lat="43.211128903497574" lon="12.705049683746584"><ele>415.3333333333333</ele><time>2026-04-26T09:25:10.999Z</time></trkpt><trkpt lat="43.21107329637536" lon="12.70500112018491"><ele>415.66666666666663</ele><time>2026-04-26T09:25:11.999Z</time></trkpt><trkpt lat="43.21101165497707" lon="12.704950660731082"><ele>416.0</ele><time>2026-04-26T09:25:12.999Z</time></trkpt><trkpt lat="43.21094530236629" lon="12.70489943078422"><ele>416.0</ele><time>2026-04-26T09:25:13.999Z</time></trkpt><trkpt lat="43.21088593199742" lon="12.7048443028642"><ele>416.0</ele><time>2026-04-26T09:25:14.999Z</time></trkpt><trkpt lat="43.21082133055085" lon="12.704790982539977"><ele>416.0</ele><time>2026-04-26T09:25:15.999Z</time></trkpt><trkpt lat="43.21076111401486" lon="12.704742218049217"><ele>416.0</ele><time>2026-04-26T09:25:16.999Z</time></trkpt><trkpt lat="43.21069456768751" lon="12.704689244406524"><ele>416.0</ele><time>2026-04-26T09:25:17.999Z</time></trkpt><trkpt lat="43.210636524000755" lon="12.70464157761938"><ele>416.0</ele><time>2026-04-26T09:25:18.999Z</time></trkpt><trkpt lat="43.210579192161156" lon="12.704596527671118"><ele>416.0</ele><time>2026-04-26T09:25:19.999Z</time></trkpt><trkpt lat="43.210518938158046" lon="12.704552450491853"><ele>416.66666666666663</ele><time>2026-04-26T09:25:20.999Z</time></trkpt><trkpt lat="43.21045723839253" lon="12.70452214509257"><ele>417.3333333333333</ele><time>2026-04-26T09:25:21.999Z</time></trkpt><trkpt lat="43.21039720820829" lon="12.70449560770816"><ele>418.0</ele><time>2026-04-26T09:25:22.999Z</time></trkpt><trkpt lat="43.21033994114043" lon="12.704453031059215"><ele>418.66666666666663</ele><time>2026-04-26T09:25:23.999Z</time></trkpt><trkpt lat="43.210281996396645" lon="12.704402009791487"><ele>419.3333333333333</ele><time>2026-04-26T09:25:24.999Z</time></trkpt><trkpt lat="43.21018749932778" lon="12.70430943027998"><ele>420.0</ele><time>2026-04-26T09:25:26.999Z</time></trkpt><trkpt lat="43.21010009983096" lon="12.704242736602184"><ele>420.0</ele><time>2026-04-26T09:25:28.999Z</time></trkpt><trkpt lat="43.20999223691965" lon="12.704191305170847"><ele>420.0</ele><time>2026-04-26T09:25:30.999Z</time></trkpt><trkpt lat="43.2098950291783" lon="12.704147342440674"><ele>420.0</ele><time>2026-04-26T09:25:32.999Z</time></trkpt><trkpt lat="43.209807403229846" lon="12.70407967754107"><ele>420.0</ele><time>2026-04-26T09:25:34.999Z</time></trkpt><trkpt lat="43.209727544154234" lon="12.704022692912634"><ele>420.0</ele><time>2026-04-26T09:25:36.999Z</time></trkpt><trkpt lat="43.20962932790021" lon="12.70396990877479"><ele>421.4</ele><time>2026-04-26T09:25:38.999Z</time></trkpt><trkpt lat="43.20953393983396" lon="12.703939038744748"><ele>422.8</ele><time>2026-04-26T09:25:40.999Z</time></trkpt><trkpt lat="43.20943670698229" lon="12.703924816149824"><ele>424.20000000000005</ele><time>2026-04-26T09:25:42.999Z</time></trkpt><trkpt lat="43.209348623811536" lon="12.703937647223983"><ele>425.6</ele><time>2026-04-26T09:25:44.999Z</time></trkpt><trkpt lat="43.209241454702" lon="12.70399909416109"><ele>427.0</ele><time>2026-04-26T09:25:46.999Z</time></trkpt><trkpt lat="43.20915602898154" lon="12.704089489226472"><ele>427.0</ele><time>2026-04-26T09:25:48.999Z</time></trkpt><trkpt lat="43.20905727728593" lon="12.704165786022195"><ele>427.00000000000006</ele><time>2026-04-26T09:25:50.999Z</time></trkpt><trkpt lat="43.20897302883549" lon="12.70420887240401"><ele>427.00000000000006</ele><time>2026-04-26T09:25:52.999Z</time></trkpt><trkpt lat="43.208860627466315" lon="12.704243310022601"><ele>427.0</ele><time>2026-04-26T09:25:54.999Z</time></trkpt><trkpt lat="43.20876415231519" lon="12.704248691197877"><ele>427.0</ele><time>2026-04-26T09:25:56.999Z</time></trkpt><trkpt lat="43.20866281895305" lon="12.704235704443823"><ele>428.40000000000003</ele><time>2026-04-26T09:25:58.998Z</time></trkpt><trkpt lat="43.20855415025651" lon="12.704243239497643"><ele>429.80000000000007</ele><time>2026-04-26T09:26:00.998Z</time></trkpt><trkpt lat="43.20843747983897" lon="12.704279900626936"><ele>431.2</ele><time>2026-04-26T09:26:02.998Z</time></trkpt><trkpt lat="43.20837556862982" lon="12.704301473460474"><ele>432.6</ele><time>2026-04-26T09:26:03.998Z</time></trkpt><trkpt lat="43.20831109092297" lon="12.704311470616155"><ele>434.0</ele><time>2026-04-26T09:26:04.998Z</time></trkpt><trkpt lat="43.20819199542223" lon="12.704313577546431"><ele>436.6</ele><time>2026-04-26T09:26:06.998Z</time></trkpt><trkpt lat="43.2081256996111" lon="12.704308542387134"><ele>439.2</ele><time>2026-04-26T09:26:07.998Z</time></trkpt><trkpt lat="43.208007594697" lon="12.70428351839418"><ele>441.80000000000007</ele><time>2026-04-26T09:26:09.998Z</time></trkpt><trkpt lat="43.2079164575962" lon="12.704232001441289"><ele>444.40000000000003</ele><time>2026-04-26T09:26:11.998Z</time></trkpt><trkpt lat="43.20783708791319" lon="12.704178908366009"><ele>447.0</ele><time>2026-04-26T09:26:13.998Z</time></trkpt><trkpt lat="43.20776210474775" lon="12.704118533666243"><ele>447.0</ele><time>2026-04-26T09:26:15.998Z</time></trkpt><trkpt lat="43.207690051333884" lon="12.704065896030881"><ele>447.0</ele><time>2026-04-26T09:26:17.998Z</time></trkpt><trkpt lat="43.207619653740636" lon="12.70400621551566"><ele>447.0</ele><time>2026-04-26T09:26:19.998Z</time></trkpt><trkpt lat="43.207529955230626" lon="12.70397715294955"><ele>447.0</ele><time>2026-04-26T09:26:21.998Z</time></trkpt><trkpt lat="43.20746255379363" lon="12.70403124534697"><ele>447.0</ele><time>2026-04-26T09:26:23.998Z</time></trkpt><trkpt lat="43.207419553378415" lon="12.704166252927468"><ele>447.0</ele><time>2026-04-26T09:26:26Z</time></trkpt><trkpt lat="43.20741965527349" lon="12.704304578064269"><ele>449.40000000000003</ele><time>2026-04-26T09:26:28Z</time></trkpt><trkpt lat="43.20741034245175" lon="12.704447499197316"><ele>451.80000000000007</ele><time>2026-04-26T09:26:30Z</time></trkpt><trkpt lat="43.207404457498924" lon="12.704567894456101"><ele>454.2</ele><time>2026-04-26T09:26:32Z</time></trkpt><trkpt lat="43.20742098583107" lon="12.70469756597289"><ele>456.6</ele><time>2026-04-26T09:26:34Z</time></trkpt><trkpt lat="43.20743764569678" lon="12.704825134737627"><ele>459.0</ele><time>2026-04-26T09:26:36Z</time></trkpt><trkpt lat="43.20748842594572" lon="12.704951523725477"><ele>459.0</ele><time>2026-04-26T09:26:38Z</time></trkpt><trkpt lat="43.207577680128075" lon="12.705066699247249"><ele>459.0</ele><time>2026-04-26T09:26:40Z</time></trkpt><trkpt lat="43.207630755857714" lon="12.70511472638878"><ele>459.0</ele><time>2026-04-26T09:26:41Z</time></trkpt><trkpt lat="43.20774330018933" lon="12.705187922587752"><ele>459.0</ele><time>2026-04-26T09:26:43Z</time></trkpt><trkpt lat="43.20785050082515" lon="12.705230624871103"><ele>459.0</ele><time>2026-04-26T09:26:45Z</time></trkpt><trkpt lat="43.20795747855959" lon="12.705263283422916"><ele>462.0</ele><time>2026-04-26T09:26:47Z</time></trkpt><trkpt lat="43.208069699576" lon="12.705303837318006"><ele>465.0</ele><time>2026-04-26T09:26:49Z</time></trkpt><trkpt lat="43.208183947195884" lon="12.705362539236893"><ele>468.0</ele><time>2026-04-26T09:26:51Z</time></trkpt><trkpt lat="43.20829183807366" lon="12.705431022718301"><ele>471.0</ele><time>2026-04-26T09:26:53Z</time></trkpt><trkpt lat="43.208394245411384" lon="12.705506902225055"><ele>471.0</ele><time>2026-04-26T09:26:55Z</time></trkpt><trkpt lat="43.2084873848802" lon="12.7055721970632"><ele>471.0</ele><time>2026-04-26T09:26:57Z</time></trkpt><trkpt lat="43.208549305525004" lon="12.705650222141529"><ele>471.0</ele><time>2026-04-26T09:26:59Z</time></trkpt><trkpt lat="43.208604559304625" lon="12.705735219510029"><ele>471.0</ele><time>2026-04-26T09:27:01Z</time></trkpt><trkpt lat="43.208631258081645" lon="12.70584218263304"><ele>471.0</ele><time>2026-04-26T09:27:03Z</time></trkpt><trkpt lat="43.208645918517874" lon="12.705962953133731"><ele>471.0</ele><time>2026-04-26T09:27:05Z</time></trkpt><trkpt lat="43.20866574672647" lon="12.706085982750434"><ele>473.0</ele><time>2026-04-26T09:27:07Z</time></trkpt><trkpt lat="43.20867547780055" lon="12.706212496629972"><ele>475.0</ele><time>2026-04-26T09:27:09Z</time></trkpt><trkpt lat="43.208653126075774" lon="12.706339823461674"><ele>477.0</ele><time>2026-04-26T09:27:11Z</time></trkpt><trkpt lat="43.20863591533872" lon="12.706448837775653"><ele>479.0</ele><time>2026-04-26T09:27:13Z</time></trkpt><trkpt lat="43.20858045582356" lon="12.706542987546703"><ele>481.0</ele><time>2026-04-26T09:27:15Z</time></trkpt><trkpt lat="43.20851197784504" lon="12.706606226854339"><ele>483.0</ele><time>2026-04-26T09:27:17Z</time></trkpt><trkpt lat="43.20842832624925" lon="12.706656868678966"><ele>483.0</ele><time>2026-04-26T09:27:18.999Z</time></trkpt><trkpt lat="43.208347987894456" lon="12.706700652276579"><ele>482.99999999999994</ele><time>2026-04-26T09:27:20.999Z</time></trkpt><trkpt lat="43.20826830814859" lon="12.706729426846318"><ele>482.99999999999994</ele><time>2026-04-26T09:27:22.999Z</time></trkpt><trkpt lat="43.20818070465078" lon="12.70674531524534"><ele>483.0</ele><time>2026-04-26T09:27:24.999Z</time></trkpt><trkpt lat="43.208080689647716" lon="12.706723956964826"><ele>483.0</ele><time>2026-04-26T09:27:26.999Z</time></trkpt><trkpt lat="43.20799904018006" lon="12.7066526463377"><ele>485.0</ele><time>2026-04-26T09:27:28.999Z</time></trkpt><trkpt lat="43.20793622507194" lon="12.70655506292364"><ele>486.99999999999994</ele><time>2026-04-26T09:27:30.999Z</time></trkpt><trkpt lat="43.207882085142444" lon="12.706467847044323"><ele>488.99999999999994</ele><time>2026-04-26T09:27:32.999Z</time></trkpt><trkpt lat="43.20778759172557" lon="12.706389818211404"><ele>491.0</ele><time>2026-04-26T09:27:34.999Z</time></trkpt><trkpt lat="43.20768525503689" lon="12.706342925245858"><ele>493.0</ele><time>2026-04-26T09:27:36.999Z</time></trkpt><trkpt lat="43.207573800413066" lon="12.70632929466958"><ele>493.0</ele><time>2026-04-26T09:27:38.999Z</time></trkpt><trkpt lat="43.20746923981866" lon="12.706333073584304"><ele>492.99999999999994</ele><time>2026-04-26T09:27:40.999Z</time></trkpt><trkpt lat="43.20735951452157" lon="12.706338605878397"><ele>492.99999999999994</ele><time>2026-04-26T09:27:42.999Z</time></trkpt><trkpt lat="43.20724834893159" lon="12.706357884282799"><ele>493.0</ele><time>2026-04-26T09:27:44.999Z</time></trkpt><trkpt lat="43.207169363291634" lon="12.70642154535832"><ele>493.0</ele><time>2026-04-26T09:27:46.999Z</time></trkpt><trkpt lat="43.20711396373377" lon="12.706533615843188"><ele>495.4</ele><time>2026-04-26T09:27:48.999Z</time></trkpt><trkpt lat="43.20706666588496" lon="12.706635241623557"><ele>497.79999999999995</ele><time>2026-04-26T09:27:50.999Z</time></trkpt><trkpt lat="43.20702371518831" lon="12.706763701423288"><ele>500.2</ele><time>2026-04-26T09:27:52.999Z</time></trkpt><trkpt lat="43.206977178365534" lon="12.706904468799236"><ele>502.6</ele><time>2026-04-26T09:27:54.999Z</time></trkpt><trkpt lat="43.20690718608375" lon="12.706988765393891"><ele>505.0</ele><time>2026-04-26T09:27:56.999Z</time></trkpt><trkpt lat="43.20680943503336" lon="12.707033180504025"><ele>506.1666666666667</ele><time>2026-04-26T09:27:58.999Z</time></trkpt><trkpt lat="43.20672374874093" lon="12.707037432547692"><ele>507.33333333333337</ele><time>2026-04-26T09:28:00.999Z</time></trkpt><trkpt lat="43.20663099253019" lon="12.70705846078541"><ele>508.5</ele><time>2026-04-26T09:28:02.999Z</time></trkpt><trkpt lat="43.206537640860844" lon="12.707144608519897"><ele>509.66666666666663</ele><time>2026-04-26T09:28:04.999Z</time></trkpt><trkpt lat="43.206496639278164" lon="12.707212727576756"><ele>510.8333333333333</ele><time>2026-04-26T09:28:05.999Z</time></trkpt><trkpt lat="43.20645982396561" lon="12.707292172640187"><ele>512.0</ele><time>2026-04-26T09:28:06.999Z</time></trkpt><trkpt lat="43.20643367390485" lon="12.707375369389394"><ele>512.0</ele><time>2026-04-26T09:28:07.998Z</time></trkpt><trkpt lat="43.20641346612503" lon="12.707525204916836"><ele>512.0</ele><time>2026-04-26T09:28:09.998Z</time></trkpt><trkpt lat="43.20639766785514" lon="12.707650271862184"><ele>512.0</ele><time>2026-04-26T09:28:11.998Z</time></trkpt><trkpt lat="43.20638398735142" lon="12.707789501294387"><ele>512.0</ele><time>2026-04-26T09:28:13.998Z</time></trkpt><trkpt lat="43.20638785578599" lon="12.707943509458957"><ele>512.0</ele><time>2026-04-26T09:28:15.998Z</time></trkpt><trkpt lat="43.20639142639494" lon="12.708031060506183"><ele>514.2</ele><time>2026-04-26T09:28:16.998Z</time></trkpt><trkpt lat="43.206396758378" lon="12.708185105643064"><ele>516.4000000000001</ele><time>2026-04-26T09:28:18.998Z</time></trkpt><trkpt lat="43.206417045193085" lon="12.708352926800258"><ele>518.5999999999999</ele><time>2026-04-26T09:28:20.998Z</time></trkpt><trkpt lat="43.20642862343677" lon="12.708444455980334"><ele>520.8</ele><time>2026-04-26T09:28:21.998Z</time></trkpt><trkpt lat="43.20643998400371" lon="12.70852950224269"><ele>523.0</ele><time>2026-04-26T09:28:22.998Z</time></trkpt><trkpt lat="43.206446820645525" lon="12.708701180463533"><ele>526.0</ele><time>2026-04-26T09:28:24.998Z</time></trkpt><trkpt lat="43.206463375087964" lon="12.70879873485252"><ele>529.0</ele><time>2026-04-26T09:28:25.998Z</time></trkpt><trkpt lat="43.206484421678915" lon="12.708893294885078"><ele>532.0</ele><time>2026-04-26T09:28:26.998Z</time></trkpt><trkpt lat="43.206505295469874" lon="12.708975546698733"><ele>535.0</ele><time>2026-04-26T09:28:27.998Z</time></trkpt><trkpt lat="43.206547312565476" lon="12.709051918022654"><ele>538.0</ele><time>2026-04-26T09:28:28.998Z</time></trkpt><trkpt lat="43.206611594747734" lon="12.709183543976598"><ele>541.0</ele><time>2026-04-26T09:28:30.998Z</time></trkpt><trkpt lat="43.20670784873797" lon="12.709257880059365"><ele>541.5714285714287</ele><time>2026-04-26T09:28:33Z</time></trkpt><trkpt lat="43.20675163728437" lon="12.709324161260223"><ele>542.1428571428571</ele><time>2026-04-26T09:28:34Z</time></trkpt><trkpt lat="43.20680640431057" lon="12.709368353045727"><ele>542.7142857142858</ele><time>2026-04-26T09:28:35Z</time></trkpt><trkpt lat="43.206868696072455" lon="12.709416884269901"><ele>543.2857142857143</ele><time>2026-04-26T09:28:36Z</time></trkpt><trkpt lat="43.20693510131254" lon="12.709468293697"><ele>543.8571428571429</ele><time>2026-04-26T09:28:37Z</time></trkpt><trkpt lat="43.20700412556344" lon="12.709521730678807"><ele>544.4285714285714</ele><time>2026-04-26T09:28:38Z</time></trkpt><trkpt lat="43.20708246486297" lon="12.709555144797992"><ele>545.0</ele><time>2026-04-26T09:28:39Z</time></trkpt><trkpt lat="43.207143187722686" lon="12.7096010448388"><ele>547.1666666666666</ele><time>2026-04-26T09:28:40Z</time></trkpt><trkpt lat="43.207196301528015" lon="12.709658775176448"><ele>549.3333333333333</ele><time>2026-04-26T09:28:41Z</time></trkpt><trkpt lat="43.2072652635141" lon="12.709786443810188"><ele>551.5</ele><time>2026-04-26T09:28:43Z</time></trkpt><trkpt lat="43.20727191741712" lon="12.709874821377001"><ele>553.6666666666666</ele><time>2026-04-26T09:28:44Z</time></trkpt><trkpt lat="43.2072430081152" lon="12.71004856356465"><ele>555.8333333333334</ele><time>2026-04-26T09:28:46Z</time></trkpt><trkpt lat="43.207218600420624" lon="12.710129319919462"><ele>558.0</ele><time>2026-04-26T09:28:47Z</time></trkpt><trkpt lat="43.20714838866519" lon="12.71026091113602"><ele>561.1666666666666</ele><time>2026-04-26T09:28:49Z</time></trkpt><trkpt lat="43.20704443239822" lon="12.710360006186955"><ele>564.3333333333334</ele><time>2026-04-26T09:28:51Z</time></trkpt><trkpt lat="43.20698081133858" lon="12.710378804627743"><ele>567.5</ele><time>2026-04-26T09:28:52Z</time></trkpt><trkpt lat="43.20692675800662" lon="12.710310133228226"><ele>570.6666666666667</ele><time>2026-04-26T09:28:53Z</time></trkpt><trkpt lat="43.206860278163596" lon="12.710290715444662"><ele>573.8333333333334</ele><time>2026-04-26T09:28:54Z</time></trkpt><trkpt lat="43.206787198770975" lon="12.710271972764778"><ele>577.0</ele><time>2026-04-26T09:28:55Z</time></trkpt><trkpt lat="43.20670406328617" lon="12.710261765710356"><ele>577.0</ele><time>2026-04-26T09:28:56Z</time></trkpt><trkpt lat="43.20663376387647" lon="12.71026368457363"><ele>577.0</ele><time>2026-04-26T09:28:57Z</time></trkpt><trkpt lat="43.206566003218136" lon="12.710265637686408"><ele>577.0</ele><time>2026-04-26T09:28:58Z</time></trkpt><trkpt lat="43.20649882469062" lon="12.710264408839844"><ele>577.0</ele><time>2026-04-26T09:28:59Z</time></trkpt><trkpt lat="43.206435973406336" lon="12.710255537804986"><ele>577.0</ele><time>2026-04-26T09:29:00Z</time></trkpt><trkpt lat="43.20631404919049" lon="12.710217457825452"><ele>577.0</ele><time>2026-04-26T09:29:02Z</time></trkpt><trkpt lat="43.206202363336374" lon="12.710180802676614"><ele>575.4</ele><time>2026-04-26T09:29:04Z</time></trkpt><trkpt lat="43.20608830525248" lon="12.710187650254879"><ele>573.8000000000001</ele><time>2026-04-26T09:29:06Z</time></trkpt><trkpt lat="43.20600313344394" lon="12.710238501659775"><ele>572.2</ele><time>2026-04-26T09:29:08Z</time></trkpt><trkpt lat="43.20596456103261" lon="12.710349393961542"><ele>570.6</ele><time>2026-04-26T09:29:10Z</time></trkpt><trkpt lat="43.20601759281043" lon="12.710432584300936"><ele>569.0</ele><time>2026-04-26T09:29:11Z</time></trkpt><trkpt lat="43.20605224996454" lon="12.710564603127441"><ele>569.0</ele><time>2026-04-26T09:29:13Z</time></trkpt><trkpt lat="43.20598264513142" lon="12.710674930984887"><ele>569.0</ele><time>2026-04-26T09:29:15Z</time></trkpt><trkpt lat="43.20593645064452" lon="12.710803077981215"><ele>569.0</ele><time>2026-04-26T09:29:17Z</time></trkpt><trkpt lat="43.20591796174105" lon="12.710945537709122"><ele>569.0</ele><time>2026-04-26T09:29:18.999Z</time></trkpt><trkpt lat="43.20588328127863" lon="12.71111163131301"><ele>569.0</ele><time>2026-04-26T09:29:20.999Z</time></trkpt><trkpt lat="43.205857639728336" lon="12.71119880329902"><ele>571.3333333333333</ele><time>2026-04-26T09:29:21.999Z</time></trkpt><trkpt lat="43.20585234937877" lon="12.711290262346115"><ele>573.6666666666666</ele><time>2026-04-26T09:29:22.999Z</time></trkpt><trkpt lat="43.20586019819891" lon="12.711376155881979"><ele>576.0</ele><time>2026-04-26T09:29:23.999Z</time></trkpt><trkpt lat="43.20591167276196" lon="12.711533708791945"><ele>578.3333333333334</ele><time>2026-04-26T09:29:25.999Z</time></trkpt><trkpt lat="43.20594561097888" lon="12.711611229390824"><ele>580.6666666666667</ele><time>2026-04-26T09:29:26.999Z</time></trkpt><trkpt lat="43.20601970287075" lon="12.711743396296695"><ele>583.0</ele><time>2026-04-26T09:29:28.999Z</time></trkpt><trkpt lat="43.20605901320959" lon="12.711812724797616"><ele>583.0000000000001</ele><time>2026-04-26T09:29:29.999Z</time></trkpt><trkpt lat="43.20610843352244" lon="12.71188246083063"><ele>583.0</ele><time>2026-04-26T09:29:30.999Z</time></trkpt><trkpt lat="43.206158366985775" lon="12.711954286902358"><ele>583.0</ele><time>2026-04-26T09:29:31.999Z</time></trkpt><trkpt lat="43.20620406220707" lon="12.712022553754718"><ele>583.0</ele><time>2026-04-26T09:29:32.999Z</time></trkpt><trkpt lat="43.20625743090025" lon="12.712095424262849"><ele>583.0</ele><time>2026-04-26T09:29:33.999Z</time></trkpt><trkpt lat="43.20631325704069" lon="12.712164812677322"><ele>583.0000000000001</ele><time>2026-04-26T09:29:34.999Z</time></trkpt><trkpt lat="43.20636111101596" lon="12.712238504289402"><ele>583.0</ele><time>2026-04-26T09:29:35.999Z</time></trkpt><trkpt lat="43.20641001787982" lon="12.712301008127348"><ele>585.0</ele><time>2026-04-26T09:29:36.999Z</time></trkpt><trkpt lat="43.20645936999704" lon="12.712366742407871"><ele>587.0</ele><time>2026-04-26T09:29:37.999Z</time></trkpt><trkpt lat="43.20650936341311" lon="12.712426148053622"><ele>589.0</ele><time>2026-04-26T09:29:38.999Z</time></trkpt><trkpt lat="43.2065574694695" lon="12.712491919183435"><ele>591.0</ele><time>2026-04-26T09:29:39.999Z</time></trkpt><trkpt lat="43.20662681850689" lon="12.712626110882358"><ele>593.0</ele><time>2026-04-26T09:29:41.999Z</time></trkpt><trkpt lat="43.20665624078066" lon="12.712709060916051"><ele>595.0</ele><time>2026-04-26T09:29:42.999Z</time></trkpt><trkpt lat="43.206682417253084" lon="12.712800805080274"><ele>597.1666666666667</ele><time>2026-04-26T09:29:43.999Z</time></trkpt><trkpt lat="43.206713265478925" lon="12.71289378159367"><ele>599.3333333333334</ele><time>2026-04-26T09:29:44.999Z</time></trkpt><trkpt lat="43.2067573505438" lon="12.712989102143034"><ele>601.5</ele><time>2026-04-26T09:29:45.999Z</time></trkpt><trkpt lat="43.206807434906224" lon="12.713077398190261"><ele>603.6666666666666</ele><time>2026-04-26T09:29:46.999Z</time></trkpt><trkpt lat="43.20685718405533" lon="12.71315797856561"><ele>605.8333333333333</ele><time>2026-04-26T09:29:47.999Z</time></trkpt><trkpt lat="43.20690340332633" lon="12.713232124639138"><ele>608.0</ele><time>2026-04-26T09:29:48.999Z</time></trkpt><trkpt lat="43.20694749365467" lon="12.713303733027768"><ele>608.0</ele><time>2026-04-26T09:29:49.999Z</time></trkpt><trkpt lat="43.20698748027799" lon="12.713374852114201"><ele>608.0</ele><time>2026-04-26T09:29:50.999Z</time></trkpt><trkpt lat="43.207059857827716" lon="12.713500517334069"><ele>608.0</ele><time>2026-04-26T09:29:52.999Z</time></trkpt><trkpt lat="43.2071105990834" lon="12.713609895388451"><ele>608.0</ele><time>2026-04-26T09:29:54.999Z</time></trkpt><trkpt lat="43.20704369075704" lon="12.713736742395058"><ele>608.0</ele><time>2026-04-26T09:29:56.999Z</time></trkpt><trkpt lat="43.206972633410864" lon="12.713877286582985"><ele>609.1666666666666</ele><time>2026-04-26T09:29:58.999Z</time></trkpt><trkpt lat="43.20692190569978" lon="12.713931698384604"><ele>610.3333333333333</ele><time>2026-04-26T09:29:59.999Z</time></trkpt><trkpt lat="43.206859662631224" lon="12.71397495303407"><ele>611.5</ele><time>2026-04-26T09:30:00.999Z</time></trkpt><trkpt lat="43.20678845905653" lon="12.714020101155912"><ele>612.6666666666666</ele><time>2026-04-26T09:30:01.999Z</time></trkpt><trkpt lat="43.206707179770696" lon="12.714074523445786"><ele>613.8333333333334</ele><time>2026-04-26T09:30:02.999Z</time></trkpt><trkpt lat="43.206623602367756" lon="12.71413121849014"><ele>615.0</ele><time>2026-04-26T09:30:03.999Z</time></trkpt><trkpt lat="43.20653274061427" lon="12.714189891935524"><ele>615.8</ele><time>2026-04-26T09:30:04.999Z</time></trkpt><trkpt lat="43.206440200904225" lon="12.71425743602864"><ele>616.6</ele><time>2026-04-26T09:30:05.999Z</time></trkpt><trkpt lat="43.20633386875637" lon="12.714223661377293"><ele>617.4</ele><time>2026-04-26T09:30:06.999Z</time></trkpt><trkpt lat="43.20622183628258" lon="12.71421418319544"><ele>618.2</ele><time>2026-04-26T09:30:07.999Z</time></trkpt><trkpt lat="43.20613200315843" lon="12.714232053831378"><ele>619.0</ele><time>2026-04-26T09:30:08.999Z</time></trkpt><trkpt lat="43.20606179406511" lon="12.71424829421331"><ele>619.0</ele><time>2026-04-26T09:30:09.999Z</time></trkpt><trkpt lat="43.205993863164366" lon="12.71429438237702"><ele>619.0</ele><time>2026-04-26T09:30:10.999Z</time></trkpt><trkpt lat="43.20592684071528" lon="12.714378877248103"><ele>619.0</ele><time>2026-04-26T09:30:11.998Z</time></trkpt><trkpt lat="43.20586449435176" lon="12.71447677663406"><ele>619.0</ele><time>2026-04-26T09:30:12.998Z</time></trkpt><trkpt lat="43.20579936902586" lon="12.714570547547845"><ele>619.0</ele><time>2026-04-26T09:30:13.998Z</time></trkpt><trkpt lat="43.20573164271641" lon="12.714658188057964"><ele>619.0</ele><time>2026-04-26T09:30:14.998Z</time></trkpt><trkpt lat="43.20566706194673" lon="12.714743700936697"><ele>619.3333333333334</ele><time>2026-04-26T09:30:15.998Z</time></trkpt><trkpt lat="43.205605116750135" lon="12.714806295066353"><ele>619.6666666666667</ele><time>2026-04-26T09:30:16.998Z</time></trkpt><trkpt lat="43.20553731875416" lon="12.714909040014081"><ele>620.0</ele><time>2026-04-26T09:30:18.998Z</time></trkpt><trkpt lat="43.20556307503907" lon="12.715069937124648"><ele>620.3333333333334</ele><time>2026-04-26T09:30:20.998Z</time></trkpt><trkpt lat="43.20561112836815" lon="12.715141697595726"><ele>620.6666666666666</ele><time>2026-04-26T09:30:21.998Z</time></trkpt><trkpt lat="43.20567264606463" lon="12.715207532483225"><ele>621.0</ele><time>2026-04-26T09:30:22.998Z</time></trkpt><trkpt lat="43.205736867675846" lon="12.7152826994291"><ele>624.0</ele><time>2026-04-26T09:30:23.998Z</time></trkpt><trkpt lat="43.20579058372509" lon="12.715377453373213"><ele>627.0</ele><time>2026-04-26T09:30:24.998Z</time></trkpt><trkpt lat="43.2058124838825" lon="12.715501721843662"><ele>630.0</ele><time>2026-04-26T09:30:25.998Z</time></trkpt><trkpt lat="43.20583540341796" lon="12.715629945840062"><ele>633.0</ele><time>2026-04-26T09:30:26.998Z</time></trkpt><trkpt lat="43.205852379059046" lon="12.715761851803242"><ele>636.0</ele><time>2026-04-26T09:30:27.998Z</time></trkpt><trkpt lat="43.20587130096778" lon="12.715908947800948"><ele>636.0</ele><time>2026-04-26T09:30:28.998Z</time></trkpt><trkpt lat="43.20588277802895" lon="12.716046731715448"><ele>636.0</ele><time>2026-04-26T09:30:29.998Z</time></trkpt><trkpt lat="43.20587862004753" lon="12.716162023373258"><ele>636.0</ele><time>2026-04-26T09:30:30.998Z</time></trkpt><trkpt lat="43.20585847297387" lon="12.716268083569917"><ele>636.0</ele><time>2026-04-26T09:30:31.998Z</time></trkpt><trkpt lat="43.20584148738486" lon="12.716360663404544"><ele>636.0</ele><time>2026-04-26T09:30:32.998Z</time></trkpt><trkpt lat="43.20578662143227" lon="12.716410860113097"><ele>636.0</ele><time>2026-04-26T09:30:33.998Z</time></trkpt><trkpt lat="43.20571821500656" lon="12.716416825432422"><ele>639.8</ele><time>2026-04-26T09:30:34.998Z</time></trkpt><trkpt lat="43.205646452686786" lon="12.716364028469167"><ele>643.6</ele><time>2026-04-26T09:30:35.998Z</time></trkpt><trkpt lat="43.20556752932445" lon="12.716371457924188"><ele>647.4</ele><time>2026-04-26T09:30:36.998Z</time></trkpt><trkpt lat="43.20548027747224" lon="12.716371034997804"><ele>651.2</ele><time>2026-04-26T09:30:38Z</time></trkpt><trkpt lat="43.20538321497201" lon="12.716417266613584"><ele>655.0</ele><time>2026-04-26T09:30:39Z</time></trkpt><trkpt lat="43.20528176496444" lon="12.716497228296799"><ele>655.0</ele><time>2026-04-26T09:30:40Z</time></trkpt><trkpt lat="43.205175265296454" lon="12.716574666444284"><ele>655.0</ele><time>2026-04-26T09:30:41Z</time></trkpt><trkpt lat="43.20506262343692" lon="12.716637026847728"><ele>655.0</ele><time>2026-04-26T09:30:42Z</time></trkpt><trkpt lat="43.204960047490964" lon="12.716703794543601"><ele>655.0</ele><time>2026-04-26T09:30:43Z</time></trkpt><trkpt lat="43.20487417526224" lon="12.716799654601049"><ele>653.75</ele><time>2026-04-26T09:30:44Z</time></trkpt><trkpt lat="43.20479699865068" lon="12.716910179618452"><ele>652.5</ele><time>2026-04-26T09:30:45Z</time></trkpt><trkpt lat="43.20472564054856" lon="12.717032037257674"><ele>651.25</ele><time>2026-04-26T09:30:46Z</time></trkpt><trkpt lat="43.20466829574184" lon="12.717166888389107"><ele>650.0</ele><time>2026-04-26T09:30:47Z</time></trkpt><trkpt lat="43.204619936595336" lon="12.71730784275324"><ele>650.0</ele><time>2026-04-26T09:30:48Z</time></trkpt><trkpt lat="43.204580473842746" lon="12.717448854242534"><ele>650.0</ele><time>2026-04-26T09:30:49Z</time></trkpt><trkpt lat="43.204537162128354" lon="12.717593358011477"><ele>650.0</ele><time>2026-04-26T09:30:50Z</time></trkpt><trkpt lat="43.20450386253051" lon="12.71775003598431"><ele>650.0</ele><time>2026-04-26T09:30:51Z</time></trkpt><trkpt lat="43.20446373630447" lon="12.717909758709022"><ele>649.8</ele><time>2026-04-26T09:30:52Z</time></trkpt><trkpt lat="43.20442693771668" lon="12.718072551224036"><ele>649.6</ele><time>2026-04-26T09:30:53Z</time></trkpt><trkpt lat="43.204399304289325" lon="12.718225067180974"><ele>649.4000000000001</ele><time>2026-04-26T09:30:54Z</time></trkpt><trkpt lat="43.20438388800885" lon="12.718364522525732"><ele>649.2</ele><time>2026-04-26T09:30:55Z</time></trkpt><trkpt lat="43.20438219649452" lon="12.71849082007289"><ele>649.0</ele><time>2026-04-26T09:30:56Z</time></trkpt><trkpt lat="43.20439584031655" lon="12.718611441503997"><ele>649.0</ele><time>2026-04-26T09:30:57Z</time></trkpt><trkpt lat="43.204428867631314" lon="12.718731829940966"><ele>649.0</ele><time>2026-04-26T09:30:58Z</time></trkpt><trkpt lat="43.20447404018837" lon="12.71885745121079"><ele>649.0</ele><time>2026-04-26T09:30:59Z</time></trkpt><trkpt lat="43.20452242567935" lon="12.718987665459272"><ele>649.0</ele><time>2026-04-26T09:31:00Z</time></trkpt><trkpt lat="43.20457398480246" lon="12.719121947953282"><ele>649.0</ele><time>2026-04-26T09:31:01Z</time></trkpt><trkpt lat="43.20462253592621" lon="12.719257404510351"><ele>647.75</ele><time>2026-04-26T09:31:02Z</time></trkpt><trkpt lat="43.20466708854875" lon="12.719404274958467"><ele>646.5</ele><time>2026-04-26T09:31:03Z</time></trkpt><trkpt lat="43.20470724559677" lon="12.719560874559544"><ele>645.25</ele><time>2026-04-26T09:31:04Z</time></trkpt><trkpt lat="43.20474368200431" lon="12.719731372938703"><ele>644.0</ele><time>2026-04-26T09:31:05Z</time></trkpt><trkpt lat="43.2047755690013" lon="12.719912009252623"><ele>644.0</ele><time>2026-04-26T09:31:06Z</time></trkpt><trkpt lat="43.20480167039724" lon="12.720081336985436"><ele>644.0</ele><time>2026-04-26T09:31:07Z</time></trkpt><trkpt lat="43.20482630545289" lon="12.72023914035755"><ele>644.0</ele><time>2026-04-26T09:31:08Z</time></trkpt><trkpt lat="43.20484709403765" lon="12.72038689101742"><ele>644.0</ele><time>2026-04-26T09:31:09Z</time></trkpt><trkpt lat="43.204857980117005" lon="12.720533607568635"><ele>644.6666666666666</ele><time>2026-04-26T09:31:10Z</time></trkpt><trkpt lat="43.204876506347475" lon="12.720667449689378"><ele>645.3333333333333</ele><time>2026-04-26T09:31:11Z</time></trkpt><trkpt lat="43.20488335120319" lon="12.720781899163372"><ele>646.0</ele><time>2026-04-26T09:31:12Z</time></trkpt><trkpt lat="43.204886249524854" lon="12.720887085518417"><ele>646.6666666666666</ele><time>2026-04-26T09:31:13Z</time></trkpt><trkpt lat="43.204888929408426" lon="12.720975577221457"><ele>647.3333333333334</ele><time>2026-04-26T09:31:14Z</time></trkpt><trkpt lat="43.2048621734112" lon="12.721071705937296"><ele>648.0</ele><time>2026-04-26T09:31:16Z</time></trkpt><trkpt lat="43.20482732767956" lon="12.721184345237969"><ele>645.1999999999999</ele><time>2026-04-26T09:31:20Z</time></trkpt><trkpt lat="43.204757820544025" lon="12.721230652607511"><ele>642.4</ele><time>2026-04-26T09:31:22Z</time></trkpt><trkpt lat="43.20464838945253" lon="12.721261285097286"><ele>639.5999999999999</ele><time>2026-04-26T09:31:24Z</time></trkpt><trkpt lat="43.20461789398089" lon="12.72138381240897"><ele>636.8</ele><time>2026-04-26T09:31:26Z</time></trkpt><trkpt lat="43.204669007673694" lon="12.721507963977874"><ele>634.0</ele><time>2026-04-26T09:31:27.999Z</time></trkpt><trkpt lat="43.20471228047245" lon="12.721577488328954"><ele>634.0</ele><time>2026-04-26T09:31:28.999Z</time></trkpt><trkpt lat="43.20476593438209" lon="12.72166292781322"><ele>634.0</ele><time>2026-04-26T09:31:29.999Z</time></trkpt><trkpt lat="43.20483455691137" lon="12.721744532398576"><ele>634.0</ele><time>2026-04-26T09:31:30.999Z</time></trkpt><trkpt lat="43.20491661231656" lon="12.721823224254624"><ele>634.0</ele><time>2026-04-26T09:31:31.999Z</time></trkpt><trkpt lat="43.20499959439805" lon="12.721910669832363"><ele>634.0</ele><time>2026-04-26T09:31:32.999Z</time></trkpt><trkpt lat="43.20509176261923" lon="12.721992887178674"><ele>634.8</ele><time>2026-04-26T09:31:33.999Z</time></trkpt><trkpt lat="43.20517679431474" lon="12.722078919177815"><ele>635.5999999999999</ele><time>2026-04-26T09:31:34.999Z</time></trkpt><trkpt lat="43.20525976640831" lon="12.72216276388506"><ele>636.4</ele><time>2026-04-26T09:31:35.999Z</time></trkpt><trkpt lat="43.20532143226608" lon="12.72227545533888"><ele>637.1999999999999</ele><time>2026-04-26T09:31:36.999Z</time></trkpt><trkpt lat="43.205387540052676" lon="12.72237813020424"><ele>638.0</ele><time>2026-04-26T09:31:37.999Z</time></trkpt><trkpt lat="43.20544639657162" lon="12.72248237885886"><ele>638.0</ele><time>2026-04-26T09:31:38.999Z</time></trkpt><trkpt lat="43.20550731267491" lon="12.722577344521973"><ele>638.0</ele><time>2026-04-26T09:31:39.999Z</time></trkpt><trkpt lat="43.20554753343102" lon="12.722684404135553"><ele>638.0</ele><time>2026-04-26T09:31:40.999Z</time></trkpt><trkpt lat="43.20558471329247" lon="12.722791795380513"><ele>638.0</ele><time>2026-04-26T09:31:41.999Z</time></trkpt><trkpt lat="43.20562575750043" lon="12.722902180696288"><ele>638.0</ele><time>2026-04-26T09:31:42.999Z</time></trkpt><trkpt lat="43.2056663510194" lon="12.723004770853734"><ele>638.0</ele><time>2026-04-26T09:31:43.999Z</time></trkpt><trkpt lat="43.20568549407427" lon="12.723116946440454"><ele>638.1428571428572</ele><time>2026-04-26T09:31:44.999Z</time></trkpt><trkpt lat="43.205706789978336" lon="12.72321123679534"><ele>638.2857142857142</ele><time>2026-04-26T09:31:45.999Z</time></trkpt><trkpt lat="43.20572820881076" lon="12.723295677573224"><ele>638.4285714285714</ele><time>2026-04-26T09:31:46.999Z</time></trkpt><trkpt lat="43.205700824555315" lon="12.723378584157775"><ele>638.5714285714287</ele><time>2026-04-26T09:31:47.999Z</time></trkpt><trkpt lat="43.205645947771906" lon="12.723439563200788"><ele>638.7142857142858</ele><time>2026-04-26T09:31:48.999Z</time></trkpt><trkpt lat="43.205574052673065" lon="12.7234734593746"><ele>638.8571428571429</ele><time>2026-04-26T09:31:49.999Z</time></trkpt><trkpt lat="43.205497644099324" lon="12.72349773130736"><ele>639.0</ele><time>2026-04-26T09:31:50.999Z</time></trkpt><trkpt lat="43.205421791945376" lon="12.723541162628303"><ele>640.4</ele><time>2026-04-26T09:31:51.999Z</time></trkpt><trkpt lat="43.205349237408235" lon="12.723606571805815"><ele>641.8</ele><time>2026-04-26T09:31:52.999Z</time></trkpt><trkpt lat="43.205285912525206" lon="12.723688251761683"><ele>643.1999999999999</ele><time>2026-04-26T09:31:53.999Z</time></trkpt><trkpt lat="43.20523912372741" lon="12.723795166487806"><ele>644.5999999999999</ele><time>2026-04-26T09:31:54.999Z</time></trkpt><trkpt lat="43.20520429927814" lon="12.72391508838633"><ele>646.0</ele><time>2026-04-26T09:31:55.999Z</time></trkpt><trkpt lat="43.20517649687105" lon="12.724048898268853"><ele>646.0</ele><time>2026-04-26T09:31:56.999Z</time></trkpt><trkpt lat="43.205161082020894" lon="12.72418735262778"><ele>646.0</ele><time>2026-04-26T09:31:57.999Z</time></trkpt><trkpt lat="43.20516047995714" lon="12.72433120559884"><ele>646.0</ele><time>2026-04-26T09:31:58.999Z</time></trkpt><trkpt lat="43.20517073570288" lon="12.724482543667591"><ele>646.0</ele><time>2026-04-26T09:31:59.999Z</time></trkpt><trkpt lat="43.205180967614176" lon="12.724647209690009"><ele>646.0</ele><time>2026-04-26T09:32:00.999Z</time></trkpt><trkpt lat="43.205187105709506" lon="12.72481361459171"><ele>646.0</ele><time>2026-04-26T09:32:01.999Z</time></trkpt><trkpt lat="43.20518721748322" lon="12.724964414918137"><ele>646.0</ele><time>2026-04-26T09:32:02.999Z</time></trkpt><trkpt lat="43.20519117437512" lon="12.725104118131377"><ele>646.0</ele><time>2026-04-26T09:32:03.999Z</time></trkpt><trkpt lat="43.20521152021143" lon="12.725233404719638"><ele>646.0</ele><time>2026-04-26T09:32:04.999Z</time></trkpt><trkpt lat="43.205246552824335" lon="12.72533462778432"><ele>646.0</ele><time>2026-04-26T09:32:05.999Z</time></trkpt><trkpt lat="43.20526858158963" lon="12.725418496102273"><ele>645.0</ele><time>2026-04-26T09:32:06.999Z</time></trkpt><trkpt lat="43.205315852870456" lon="12.725505025169666"><ele>644.0</ele><time>2026-04-26T09:32:07.999Z</time></trkpt><trkpt lat="43.20539337549786" lon="12.725585935983823"><ele>643.0</ele><time>2026-04-26T09:32:08.999Z</time></trkpt><trkpt lat="43.205476970519925" lon="12.725686026713872"><ele>642.0</ele><time>2026-04-26T09:32:09.999Z</time></trkpt><trkpt lat="43.20557667034311" lon="12.725784575398295"><ele>641.0</ele><time>2026-04-26T09:32:10.999Z</time></trkpt><trkpt lat="43.20567179048127" lon="12.725871656790092"><ele>641.0</ele><time>2026-04-26T09:32:11.999Z</time></trkpt><trkpt lat="43.20574695347915" lon="12.725963615913066"><ele>641.0</ele><time>2026-04-26T09:32:12.999Z</time></trkpt><trkpt lat="43.20580615927539" lon="12.72607370227556"><ele>641.0</ele><time>2026-04-26T09:32:13.999Z</time></trkpt><trkpt lat="43.20584511423346" lon="12.726189744994425"><ele>641.0</ele><time>2026-04-26T09:32:14.999Z</time></trkpt><trkpt lat="43.20588061535874" lon="12.7263009193596"><ele>641.0</ele><time>2026-04-26T09:32:15.999Z</time></trkpt><trkpt lat="43.2059037495018" lon="12.726431492243172"><ele>641.25</ele><time>2026-04-26T09:32:16.999Z</time></trkpt><trkpt lat="43.20593230470412" lon="12.726565240141928"><ele>641.5</ele><time>2026-04-26T09:32:17.998Z</time></trkpt><trkpt lat="43.20597217891902" lon="12.726708354137669"><ele>641.75</ele><time>2026-04-26T09:32:18.998Z</time></trkpt><trkpt lat="43.20600677514966" lon="12.726873516852558"><ele>642.0</ele><time>2026-04-26T09:32:19.998Z</time></trkpt><trkpt lat="43.20604592216503" lon="12.727050210108104"><ele>642.25</ele><time>2026-04-26T09:32:20.998Z</time></trkpt><trkpt lat="43.20609512869686" lon="12.72722540224288"><ele>642.5</ele><time>2026-04-26T09:32:21.998Z</time></trkpt><trkpt lat="43.20615225038903" lon="12.727411664120014"><ele>642.75</ele><time>2026-04-26T09:32:22.998Z</time></trkpt><trkpt lat="43.206207649801804" lon="12.727598734957088"><ele>643.0</ele><time>2026-04-26T09:32:23.998Z</time></trkpt><trkpt lat="43.20626693338821" lon="12.727790535808468"><ele>640.75</ele><time>2026-04-26T09:32:24.998Z</time></trkpt><trkpt lat="43.206331846789595" lon="12.727976393752884"><ele>638.5</ele><time>2026-04-26T09:32:25.998Z</time></trkpt><trkpt lat="43.2064148175875" lon="12.728145058541834"><ele>636.25</ele><time>2026-04-26T09:32:26.998Z</time></trkpt><trkpt lat="43.206507834909196" lon="12.728306492512035"><ele>634.0</ele><time>2026-04-26T09:32:27.998Z</time></trkpt><trkpt lat="43.2065908201932" lon="12.72847567923755"><ele>639.25</ele><time>2026-04-26T09:32:28.998Z</time></trkpt><trkpt lat="43.20666073666283" lon="12.728651273202392"><ele>644.5</ele><time>2026-04-26T09:32:29.998Z</time></trkpt><trkpt lat="43.206715385384065" lon="12.728819420326424"><ele>649.75</ele><time>2026-04-26T09:32:30.998Z</time></trkpt><trkpt lat="43.2067653008925" lon="12.728956438625328"><ele>655.0</ele><time>2026-04-26T09:32:31.998Z</time></trkpt><trkpt lat="43.206831763953154" lon="12.729065346226912"><ele>655.0</ele><time>2026-04-26T09:32:32.998Z</time></trkpt><trkpt lat="43.20692236886205" lon="12.729159924296205"><ele>655.0</ele><time>2026-04-26T09:32:33.998Z</time></trkpt><trkpt lat="43.207017781072764" lon="12.72926941559552"><ele>655.0</ele><time>2026-04-26T09:32:34.998Z</time></trkpt><trkpt lat="43.207096103654706" lon="12.729414668338649"><ele>655.0</ele><time>2026-04-26T09:32:35.998Z</time></trkpt><trkpt lat="43.20719429531893" lon="12.729537954187514"><ele>653.0</ele><time>2026-04-26T09:32:36.998Z</time></trkpt><trkpt lat="43.20727109584756" lon="12.72968574403717"><ele>651.0</ele><time>2026-04-26T09:32:37.998Z</time></trkpt><trkpt lat="43.207367344783115" lon="12.729810477938967"><ele>649.0</ele><time>2026-04-26T09:32:38.998Z</time></trkpt><trkpt lat="43.207459318359966" lon="12.72994472890097"><ele>647.0</ele><time>2026-04-26T09:32:39.998Z</time></trkpt><trkpt lat="43.207548367246844" lon="12.730070682232865"><ele>652.0</ele><time>2026-04-26T09:32:40.998Z</time></trkpt><trkpt lat="43.20763742224115" lon="12.730187767671538"><ele>657.0</ele><time>2026-04-26T09:32:41.998Z</time></trkpt><trkpt lat="43.20773251526444" lon="12.730293020930738"><ele>662.0</ele><time>2026-04-26T09:32:43Z</time></trkpt><trkpt lat="43.20783091008321" lon="12.730400459362226"><ele>667.0</ele><time>2026-04-26T09:32:44Z</time></trkpt><trkpt lat="43.20792382039174" lon="12.73051127548817"><ele>667.5</ele><time>2026-04-26T09:32:45Z</time></trkpt><trkpt lat="43.20800742269441" lon="12.730638219251823"><ele>668.0</ele><time>2026-04-26T09:32:46Z</time></trkpt><trkpt lat="43.208084434532076" lon="12.730781491607717"><ele>668.5</ele><time>2026-04-26T09:32:47Z</time></trkpt><trkpt lat="43.2081773545999" lon="12.730919447384666"><ele>669.0</ele><time>2026-04-26T09:32:48Z</time></trkpt><trkpt lat="43.20828483485291" lon="12.73104351675074"><ele>669.25</ele><time>2026-04-26T09:32:49Z</time></trkpt><trkpt lat="43.20840367705669" lon="12.731163932408638"><ele>669.5</ele><time>2026-04-26T09:32:50Z</time></trkpt><trkpt lat="43.20850864513163" lon="12.731272170331536"><ele>669.75</ele><time>2026-04-26T09:32:51Z</time></trkpt><trkpt lat="43.208613159552705" lon="12.73137712483903"><ele>670.0</ele><time>2026-04-26T09:32:52Z</time></trkpt><trkpt lat="43.208710693269026" lon="12.731503883296933"><ele>670.0</ele><time>2026-04-26T09:32:53Z</time></trkpt><trkpt lat="43.20880288701105" lon="12.731635935820906"><ele>670.0</ele><time>2026-04-26T09:32:54Z</time></trkpt><trkpt lat="43.20887630147271" lon="12.731762140384435"><ele>670.0</ele><time>2026-04-26T09:32:55Z</time></trkpt><trkpt lat="43.208922533623415" lon="12.73190571907169"><ele>670.0</ele><time>2026-04-26T09:32:56Z</time></trkpt><trkpt lat="43.208972613558835" lon="12.732054795656879"><ele>672.0</ele><time>2026-04-26T09:32:57Z</time></trkpt><trkpt lat="43.20904113617325" lon="12.732199472583492"><ele>674.0</ele><time>2026-04-26T09:32:58Z</time></trkpt><trkpt lat="43.209099921633" lon="12.732354017474062"><ele>676.0</ele><time>2026-04-26T09:32:59Z</time></trkpt><trkpt lat="43.209161247217324" lon="12.73249582858261"><ele>678.0</ele><time>2026-04-26T09:33:00Z</time></trkpt><trkpt lat="43.20922529687661" lon="12.73262563502456"><ele>676.0</ele><time>2026-04-26T09:33:01Z</time></trkpt><trkpt lat="43.2092931253415" lon="12.732754211028347"><ele>674.0</ele><time>2026-04-26T09:33:02Z</time></trkpt><trkpt lat="43.209365721472764" lon="12.732886498643515"><ele>672.0</ele><time>2026-04-26T09:33:03Z</time></trkpt><trkpt lat="43.20943068495485" lon="12.733008869416999"><ele>670.0</ele><time>2026-04-26T09:33:04Z</time></trkpt><trkpt lat="43.20950070915831" lon="12.733119628744717"><ele>670.0</ele><time>2026-04-26T09:33:05Z</time></trkpt><trkpt lat="43.20958963404527" lon="12.73322622382723"><ele>670.0</ele><time>2026-04-26T09:33:06Z</time></trkpt><trkpt lat="43.20968996640454" lon="12.733350472267745"><ele>670.0</ele><time>2026-04-26T09:33:07Z</time></trkpt><trkpt lat="43.209798843172905" lon="12.733456558343843"><ele>670.0</ele><time>2026-04-26T09:33:08Z</time></trkpt><trkpt lat="43.2099068847119" lon="12.733546506777884"><ele>670.25</ele><time>2026-04-26T09:33:09Z</time></trkpt><trkpt lat="43.21000304235819" lon="12.733651514287782"><ele>670.5</ele><time>2026-04-26T09:33:10Z</time></trkpt><trkpt lat="43.21007949324504" lon="12.733791208607755"><ele>670.75</ele><time>2026-04-26T09:33:11Z</time></trkpt><trkpt lat="43.21012926081405" lon="12.73395053237909"><ele>671.0</ele><time>2026-04-26T09:33:12Z</time></trkpt><trkpt lat="43.210159164426024" lon="12.734109726021751"><ele>671.0</ele><time>2026-04-26T09:33:13Z</time></trkpt><trkpt lat="43.21016275370753" lon="12.734274229037714"><ele>671.0</ele><time>2026-04-26T09:33:14Z</time></trkpt><trkpt lat="43.21019238155383" lon="12.734433044589709"><ele>671.0</ele><time>2026-04-26T09:33:15Z</time></trkpt><trkpt lat="43.21020101553427" lon="12.73458527725214"><ele>671.0</ele><time>2026-04-26T09:33:16Z</time></trkpt><trkpt lat="43.21021207030436" lon="12.734726421505501"><ele>671.0</ele><time>2026-04-26T09:33:17Z</time></trkpt><trkpt lat="43.210224454860146" lon="12.734852847158473"><ele>671.0</ele><time>2026-04-26T09:33:18Z</time></trkpt><trkpt lat="43.21024073702637" lon="12.73496953443339"><ele>671.0</ele><time>2026-04-26T09:33:19Z</time></trkpt><trkpt lat="43.210261262253255" lon="12.735070778905754"><ele>671.0</ele><time>2026-04-26T09:33:20Z</time></trkpt><trkpt lat="43.210271044240784" lon="12.735221311044544"><ele>671.0</ele><time>2026-04-26T09:33:22Z</time></trkpt><trkpt lat="43.21026602345044" lon="12.73531606369687"><ele>671.0</ele><time>2026-04-26T09:33:24Z</time></trkpt><trkpt lat="43.21015549473998" lon="12.735376123897733"><ele>672.5999999999999</ele><time>2026-04-26T09:33:25Z</time></trkpt><trkpt lat="43.21008499253146" lon="12.735428320330799"><ele>674.2</ele><time>2026-04-26T09:33:26Z</time></trkpt><trkpt lat="43.21000201654464" lon="12.735493543178732"><ele>675.8</ele><time>2026-04-26T09:33:27Z</time></trkpt><trkpt lat="43.20991805107786" lon="12.735560039085598"><ele>677.4000000000001</ele><time>2026-04-26T09:33:28Z</time></trkpt><trkpt lat="43.20982395053549" lon="12.735633465462787"><ele>679.0</ele><time>2026-04-26T09:33:29Z</time></trkpt><trkpt lat="43.209723280308054" lon="12.735706762742554"><ele>679.2</ele><time>2026-04-26T09:33:30Z</time></trkpt><trkpt lat="43.20961259114258" lon="12.735747338346245"><ele>679.4000000000001</ele><time>2026-04-26T09:33:31Z</time></trkpt><trkpt lat="43.20950888072628" lon="12.735817133229347"><ele>679.6</ele><time>2026-04-26T09:33:32Z</time></trkpt><trkpt lat="43.209406061129094" lon="12.735851924350941"><ele>679.8</ele><time>2026-04-26T09:33:32.999Z</time></trkpt><trkpt lat="43.209312497161626" lon="12.735884216524559"><ele>680.0</ele><time>2026-04-26T09:33:33.999Z</time></trkpt><trkpt lat="43.209243152366824" lon="12.735934889141305"><ele>680.0</ele><time>2026-04-26T09:33:34.999Z</time></trkpt><trkpt lat="43.20920108365011" lon="12.736032725534914"><ele>680.0</ele><time>2026-04-26T09:33:35.999Z</time></trkpt><trkpt lat="43.209190149099534" lon="12.73615922644755"><ele>680.0</ele><time>2026-04-26T09:33:36.999Z</time></trkpt><trkpt lat="43.209198277510836" lon="12.73630123647466"><ele>680.0</ele><time>2026-04-26T09:33:37.999Z</time></trkpt><trkpt lat="43.20921446682495" lon="12.736430371607396"><ele>680.0</ele><time>2026-04-26T09:33:38.999Z</time></trkpt><trkpt lat="43.20923047632308" lon="12.736531534665037"><ele>680.2</ele><time>2026-04-26T09:33:39.999Z</time></trkpt><trkpt lat="43.209236866111" lon="12.73662162069824"><ele>680.4</ele><time>2026-04-26T09:33:40.999Z</time></trkpt><trkpt lat="43.20923890747869" lon="12.736747313377657"><ele>680.5999999999999</ele><time>2026-04-26T09:33:41.999Z</time></trkpt><trkpt lat="43.209242173771706" lon="12.736891377434135"><ele>680.8</ele><time>2026-04-26T09:33:42.999Z</time></trkpt><trkpt lat="43.2092360516412" lon="12.737045062497494"><ele>681.0</ele><time>2026-04-26T09:33:43.999Z</time></trkpt><trkpt lat="43.20919832083348" lon="12.7371880227805"><ele>681.0</ele><time>2026-04-26T09:33:44.999Z</time></trkpt><trkpt lat="43.2091392427796" lon="12.737318299521116"><ele>681.0</ele><time>2026-04-26T09:33:45.999Z</time></trkpt><trkpt lat="43.20906277394111" lon="12.73742733364687"><ele>681.0</ele><time>2026-04-26T09:33:46.999Z</time></trkpt><trkpt lat="43.20898457667882" lon="12.737525933652874"><ele>681.0</ele><time>2026-04-26T09:33:47.999Z</time></trkpt><trkpt lat="43.20891652907133" lon="12.737631334072203"><ele>681.0</ele><time>2026-04-26T09:33:48.999Z</time></trkpt><trkpt lat="43.20887358140293" lon="12.737722257403584"><ele>680.1999999999999</ele><time>2026-04-26T09:33:49.999Z</time></trkpt><trkpt lat="43.20882288769353" lon="12.73784328752549"><ele>679.4</ele><time>2026-04-26T09:33:51.999Z</time></trkpt><trkpt lat="43.208710105900714" lon="12.737936498881593"><ele>678.6</ele><time>2026-04-26T09:33:53.999Z</time></trkpt><trkpt lat="43.20862586205587" lon="12.737976863487248"><ele>677.8</ele><time>2026-04-26T09:33:54.999Z</time></trkpt><trkpt lat="43.208538052880385" lon="12.738014151333003"><ele>677.0</ele><time>2026-04-26T09:33:55.999Z</time></trkpt><trkpt lat="43.208439152501406" lon="12.738046159009189"><ele>677.0</ele><time>2026-04-26T09:33:56.999Z</time></trkpt><trkpt lat="43.20833149336831" lon="12.738074572173288"><ele>677.0</ele><time>2026-04-26T09:33:57.999Z</time></trkpt><trkpt lat="43.20820645935778" lon="12.738088642953391"><ele>677.0</ele><time>2026-04-26T09:33:58.999Z</time></trkpt><trkpt lat="43.20806029036697" lon="12.738084970376056"><ele>677.0</ele><time>2026-04-26T09:33:59.999Z</time></trkpt><trkpt lat="43.20792315029158" lon="12.73806557545609"><ele>677.0</ele><time>2026-04-26T09:34:00.999Z</time></trkpt><trkpt lat="43.20778133385654" lon="12.73803804616271"><ele>677.0</ele><time>2026-04-26T09:34:01.999Z</time></trkpt><trkpt lat="43.2076336729017" lon="12.738032576430877"><ele>677.0</ele><time>2026-04-26T09:34:02.999Z</time></trkpt><trkpt lat="43.20748062787793" lon="12.738070636768791"><ele>677.0</ele><time>2026-04-26T09:34:03.999Z</time></trkpt><trkpt lat="43.20732430572374" lon="12.738151246381289"><ele>677.0</ele><time>2026-04-26T09:34:04.999Z</time></trkpt><trkpt lat="43.20716919642758" lon="12.738248792778869"><ele>677.0</ele><time>2026-04-26T09:34:05.999Z</time></trkpt><trkpt lat="43.20701027987001" lon="12.738345784345574"><ele>677.0</ele><time>2026-04-26T09:34:06.999Z</time></trkpt><trkpt lat="43.20684408828453" lon="12.738441664173983"><ele>677.0</ele><time>2026-04-26T09:34:07.999Z</time></trkpt><trkpt lat="43.20667085276855" lon="12.738538967085407"><ele>677.0</ele><time>2026-04-26T09:34:08.999Z</time></trkpt><trkpt lat="43.20650330400291" lon="12.738637978476733"><ele>677.0</ele><time>2026-04-26T09:34:09.999Z</time></trkpt><trkpt lat="43.20634459608134" lon="12.73872952722787"><ele>679.5</ele><time>2026-04-26T09:34:10.999Z</time></trkpt><trkpt lat="43.20618938859616" lon="12.738790697226364"><ele>682.0</ele><time>2026-04-26T09:34:11.999Z</time></trkpt><trkpt lat="43.20604455486809" lon="12.738813686956862"><ele>684.5</ele><time>2026-04-26T09:34:12.999Z</time></trkpt><trkpt lat="43.20592261752355" lon="12.738814352098514"><ele>687.0</ele><time>2026-04-26T09:34:13.999Z</time></trkpt><trkpt lat="43.205826475459034" lon="12.73879533191995"><ele>687.0</ele><time>2026-04-26T09:34:14.999Z</time></trkpt><trkpt lat="43.20576219350745" lon="12.738763855958737"><ele>687.0</ele><time>2026-04-26T09:34:15.999Z</time></trkpt><trkpt lat="43.20567127774543" lon="12.738716488561614"><ele>687.0</ele><time>2026-04-26T09:34:17.999Z</time></trkpt><trkpt lat="43.20572468396638" lon="12.738767932293072"><ele>687.0</ele><time>2026-04-26T09:34:22.998Z</time></trkpt><trkpt lat="43.20583601423893" lon="12.738825778839749"><ele>687.0</ele><time>2026-04-26T09:34:24.998Z</time></trkpt><trkpt lat="43.205919885952184" lon="12.738844189196469"><ele>687.0</ele><time>2026-04-26T09:34:25.998Z</time></trkpt><trkpt lat="43.20601938757439" lon="12.738853019390765"><ele>687.0</ele><time>2026-04-26T09:34:26.998Z</time></trkpt><trkpt lat="43.206131924895324" lon="12.73883487043387"><ele>687.0</ele><time>2026-04-26T09:34:27.998Z</time></trkpt><trkpt lat="43.20623698601369" lon="12.73879658531619"><ele>687.0</ele><time>2026-04-26T09:34:28.998Z</time></trkpt><trkpt lat="43.20631704034495" lon="12.738751468041704"><ele>687.0</ele><time>2026-04-26T09:34:29.998Z</time></trkpt><trkpt lat="43.206381082087844" lon="12.73871417446687"><ele>687.0</ele><time>2026-04-26T09:34:30.998Z</time></trkpt><trkpt lat="43.20644686054051" lon="12.738768056344094"><ele>687.0</ele><time>2026-04-26T09:34:33.998Z</time></trkpt><trkpt lat="43.206438967214346" lon="12.738866923327983"><ele>687.0</ele><time>2026-04-26T09:34:35.998Z</time></trkpt><trkpt lat="43.20639968115846" lon="12.738936849264118"><ele>687.0</ele><time>2026-04-26T09:34:36.998Z</time></trkpt><trkpt lat="43.20634833860484" lon="12.739013733002478"><ele>687.0</ele><time>2026-04-26T09:34:37.998Z</time></trkpt><trkpt lat="43.20629948765706" lon="12.739112599660974"><ele>687.0</ele><time>2026-04-26T09:34:38.998Z</time></trkpt><trkpt lat="43.206251755145786" lon="12.739205603578672"><ele>687.0</ele><time>2026-04-26T09:34:39.998Z</time></trkpt><trkpt lat="43.206189781722856" lon="12.739304267988661"><ele>686.25</ele><time>2026-04-26T09:34:40.998Z</time></trkpt><trkpt lat="43.206111960126904" lon="12.739407369333708"><ele>685.5</ele><time>2026-04-26T09:34:41.998Z</time></trkpt><trkpt lat="43.20602947522658" lon="12.739513641530134"><ele>684.75</ele><time>2026-04-26T09:34:42.998Z</time></trkpt><trkpt lat="43.205940595720286" lon="12.739619240178426"><ele>684.0</ele><time>2026-04-26T09:34:43.998Z</time></trkpt><trkpt lat="43.20585182588316" lon="12.739725458436974"><ele>684.0</ele><time>2026-04-26T09:34:44.998Z</time></trkpt><trkpt lat="43.20577302959329" lon="12.73983723503089"><ele>684.0</ele><time>2026-04-26T09:34:45.998Z</time></trkpt><trkpt lat="43.20570219448365" lon="12.739956704017706"><ele>684.0</ele><time>2026-04-26T09:34:46.998Z</time></trkpt><trkpt lat="43.20563290862554" lon="12.740074030665248"><ele>684.0</ele><time>2026-04-26T09:34:48Z</time></trkpt><trkpt lat="43.20555737240834" lon="12.740167495551033"><ele>684.0</ele><time>2026-04-26T09:34:49Z</time></trkpt><trkpt lat="43.20547334757186" lon="12.740251308782842"><ele>685.2</ele><time>2026-04-26T09:34:50Z</time></trkpt><trkpt lat="43.20539769218241" lon="12.740341151543097"><ele>686.4000000000001</ele><time>2026-04-26T09:34:51Z</time></trkpt><trkpt lat="43.20532270424981" lon="12.740439046789403"><ele>687.6</ele><time>2026-04-26T09:34:52Z</time></trkpt><trkpt lat="43.2052497624579" lon="12.74053175627956"><ele>688.8</ele><time>2026-04-26T09:34:53Z</time></trkpt><trkpt lat="43.205177524714976" lon="12.74059755277502"><ele>690.0</ele><time>2026-04-26T09:34:54Z</time></trkpt><trkpt lat="43.20509128007899" lon="12.740634822768762"><ele>690.0</ele><time>2026-04-26T09:34:55Z</time></trkpt><trkpt lat="43.20499532201321" lon="12.740650002975684"><ele>690.0</ele><time>2026-04-26T09:34:56Z</time></trkpt><trkpt lat="43.20489723054727" lon="12.740677770138998"><ele>690.0</ele><time>2026-04-26T09:34:57Z</time></trkpt><trkpt lat="43.204805554159805" lon="12.740727033751819"><ele>690.0</ele><time>2026-04-26T09:34:58Z</time></trkpt><trkpt lat="43.20472281381061" lon="12.740800434349607"><ele>690.0</ele><time>2026-04-26T09:34:59Z</time></trkpt><trkpt lat="43.20464580032198" lon="12.740892565228517"><ele>689.2</ele><time>2026-04-26T09:35:00Z</time></trkpt><trkpt lat="43.204585196550326" lon="12.74099370622895"><ele>688.4</ele><time>2026-04-26T09:35:01Z</time></trkpt><trkpt lat="43.20453349699674" lon="12.741095927276055"><ele>687.5999999999999</ele><time>2026-04-26T09:35:02Z</time></trkpt><trkpt lat="43.20450083506243" lon="12.741196994097887"><ele>686.8</ele><time>2026-04-26T09:35:03Z</time></trkpt><trkpt lat="43.20449375828881" lon="12.741287946525192"><ele>686.0</ele><time>2026-04-26T09:35:04Z</time></trkpt><trkpt lat="43.20450770311306" lon="12.74144874192729"><ele>686.0</ele><time>2026-04-26T09:35:06Z</time></trkpt><trkpt lat="43.204572633648105" lon="12.74158284794334"><ele>686.0</ele><time>2026-04-26T09:35:08Z</time></trkpt><trkpt lat="43.20461896091292" lon="12.741645675159042"><ele>686.0</ele><time>2026-04-26T09:35:09Z</time></trkpt><trkpt lat="43.204675116380365" lon="12.741718334767457"><ele>686.0</ele><time>2026-04-26T09:35:10Z</time></trkpt><trkpt lat="43.20473830299049" lon="12.741794597736448"><ele>686.0</ele><time>2026-04-26T09:35:11Z</time></trkpt><trkpt lat="43.20479843088483" lon="12.741873708953493"><ele>686.0</ele><time>2026-04-26T09:35:12Z</time></trkpt><trkpt lat="43.20486402872423" lon="12.741959323182252"><ele>684.5</ele><time>2026-04-26T09:35:13Z</time></trkpt><trkpt lat="43.204931303240336" lon="12.742046868429636"><ele>683.0</ele><time>2026-04-26T09:35:14Z</time></trkpt><trkpt lat="43.20499822915832" lon="12.742137461483033"><ele>681.5</ele><time>2026-04-26T09:35:15Z</time></trkpt><trkpt lat="43.205061656694085" lon="12.742222370753641"><ele>680.0</ele><time>2026-04-26T09:35:16Z</time></trkpt><trkpt lat="43.205125152994384" lon="12.742297556824767"><ele>678.5</ele><time>2026-04-26T09:35:17Z</time></trkpt><trkpt lat="43.20518134527689" lon="12.742369020118309"><ele>677.0</ele><time>2026-04-26T09:35:18Z</time></trkpt><trkpt lat="43.20522982059758" lon="12.742458502177502"><ele>677.0</ele><time>2026-04-26T09:35:19Z</time></trkpt><trkpt lat="43.2052900848523" lon="12.742537489306967"><ele>677.0</ele><time>2026-04-26T09:35:20Z</time></trkpt><trkpt lat="43.20534873650671" lon="12.742614802383573"><ele>677.0</ele><time>2026-04-26T09:35:21Z</time></trkpt><trkpt lat="43.205415016179074" lon="12.74268369385935"><ele>677.0</ele><time>2026-04-26T09:35:22Z</time></trkpt><trkpt lat="43.20547657712398" lon="12.742758203965808"><ele>677.0</ele><time>2026-04-26T09:35:23Z</time></trkpt><trkpt lat="43.20553433961975" lon="12.74283596967551"><ele>677.0</ele><time>2026-04-26T09:35:24Z</time></trkpt><trkpt lat="43.20559501294443" lon="12.742914892479824"><ele>678.0</ele><time>2026-04-26T09:35:25Z</time></trkpt><trkpt lat="43.20565654982791" lon="12.742999688854262"><ele>679.0</ele><time>2026-04-26T09:35:26Z</time></trkpt><trkpt lat="43.20571577267348" lon="12.743085238137661"><ele>680.0</ele><time>2026-04-26T09:35:27Z</time></trkpt><trkpt lat="43.20577687870327" lon="12.743170219655445"><ele>681.0</ele><time>2026-04-26T09:35:28Z</time></trkpt><trkpt lat="43.205839722461775" lon="12.743261603251684"><ele>682.0</ele><time>2026-04-26T09:35:29Z</time></trkpt><trkpt lat="43.2059043301978" lon="12.743348263916321"><ele>683.0</ele><time>2026-04-26T09:35:30Z</time></trkpt><trkpt lat="43.205966726486785" lon="12.743425873221964"><ele>683.0</ele><time>2026-04-26T09:35:31Z</time></trkpt><trkpt lat="43.206029583583835" lon="12.743503199030917"><ele>683.0</ele><time>2026-04-26T09:35:32Z</time></trkpt><trkpt lat="43.20609821838029" lon="12.74358575197045"><ele>683.0</ele><time>2026-04-26T09:35:33Z</time></trkpt><trkpt lat="43.20617113491826" lon="12.74366826745018"><ele>683.0</ele><time>2026-04-26T09:35:34Z</time></trkpt><trkpt lat="43.20624187539726" lon="12.74375340044346"><ele>683.0</ele><time>2026-04-26T09:35:35Z</time></trkpt><trkpt lat="43.206314005279616" lon="12.743843627899928"><ele>682.6666666666666</ele><time>2026-04-26T09:35:36Z</time></trkpt><trkpt lat="43.20639049352842" lon="12.743935516449817"><ele>682.3333333333333</ele><time>2026-04-26T09:35:36.999Z</time></trkpt><trkpt lat="43.20646190009626" lon="12.744028089180583"><ele>682.0</ele><time>2026-04-26T09:35:37.999Z</time></trkpt><trkpt lat="43.20652130358756" lon="12.744119482523196"><ele>681.6666666666666</ele><time>2026-04-26T09:35:38.999Z</time></trkpt><trkpt lat="43.20656853041364" lon="12.744205211378484"><ele>681.3333333333334</ele><time>2026-04-26T09:35:39.999Z</time></trkpt><trkpt lat="43.20661228049521" lon="12.74429079198745"><ele>681.0</ele><time>2026-04-26T09:35:40.999Z</time></trkpt><trkpt lat="43.20665246486681" lon="12.74436890038546"><ele>680.1428571428572</ele><time>2026-04-26T09:35:41.999Z</time></trkpt><trkpt lat="43.20668984839011" lon="12.74444285726419"><ele>679.2857142857143</ele><time>2026-04-26T09:35:42.999Z</time></trkpt><trkpt lat="43.2067270403308" lon="12.744518566875707"><ele>678.4285714285714</ele><time>2026-04-26T09:35:43.999Z</time></trkpt><trkpt lat="43.20676516710842" lon="12.74459867772573"><ele>677.5714285714287</ele><time>2026-04-26T09:35:44.999Z</time></trkpt><trkpt lat="43.206804398245865" lon="12.744673702666224"><ele>676.7142857142858</ele><time>2026-04-26T09:35:45.999Z</time></trkpt><trkpt lat="43.20684210784399" lon="12.744747500966714"><ele>675.8571428571429</ele><time>2026-04-26T09:35:46.999Z</time></trkpt><trkpt lat="43.206872712735255" lon="12.74483118208362"><ele>675.0</ele><time>2026-04-26T09:35:47.999Z</time></trkpt><trkpt lat="43.20689862183111" lon="12.744924650194962"><ele>675.0</ele><time>2026-04-26T09:35:48.999Z</time></trkpt><trkpt lat="43.206920909421946" lon="12.745024605466915"><ele>675.0</ele><time>2026-04-26T09:35:49.999Z</time></trkpt><trkpt lat="43.206935537673566" lon="12.745117588137429"><ele>675.0</ele><time>2026-04-26T09:35:50.999Z</time></trkpt><trkpt lat="43.206948445902604" lon="12.745209445111657"><ele>675.0</ele><time>2026-04-26T09:35:51.999Z</time></trkpt><trkpt lat="43.20695967109635" lon="12.745367741413007"><ele>675.0</ele><time>2026-04-26T09:35:53.999Z</time></trkpt><trkpt lat="43.20698843384686" lon="12.745515452004483"><ele>675.0</ele><time>2026-04-26T09:35:55.999Z</time></trkpt><trkpt lat="43.20704130118586" lon="12.74564760367859"><ele>672.4</ele><time>2026-04-26T09:35:57.999Z</time></trkpt><trkpt lat="43.20711618922358" lon="12.74576221770767"><ele>669.8</ele><time>2026-04-26T09:35:59.999Z</time></trkpt><trkpt lat="43.207186604530584" lon="12.745886052733457"><ele>667.2</ele><time>2026-04-26T09:36:01.999Z</time></trkpt><trkpt lat="43.20726326134911" lon="12.746010364599114"><ele>664.6</ele><time>2026-04-26T09:36:03.999Z</time></trkpt><trkpt lat="43.207316420207974" lon="12.746063887043624"><ele>662.0</ele><time>2026-04-26T09:36:04.999Z</time></trkpt><trkpt lat="43.20734003810969" lon="12.746145908895516"><ele>660.5714285714286</ele><time>2026-04-26T09:36:05.999Z</time></trkpt><trkpt lat="43.20737819400606" lon="12.746219971229735"><ele>659.1428571428571</ele><time>2026-04-26T09:36:06.999Z</time></trkpt><trkpt lat="43.20742459035851" lon="12.746283658832972"><ele>657.7142857142858</ele><time>2026-04-26T09:36:07.999Z</time></trkpt><trkpt lat="43.207449005928616" lon="12.746368196500391"><ele>656.2857142857142</ele><time>2026-04-26T09:36:08.999Z</time></trkpt><trkpt lat="43.20746049968348" lon="12.746457403479827"><ele>654.8571428571428</ele><time>2026-04-26T09:36:09.999Z</time></trkpt><trkpt lat="43.20746680385963" lon="12.746545869646026"><ele>653.4285714285714</ele><time>2026-04-26T09:36:10.999Z</time></trkpt><trkpt lat="43.20746950778064" lon="12.746708410335275"><ele>652.0</ele><time>2026-04-26T09:36:12.999Z</time></trkpt><trkpt lat="43.20752064242798" lon="12.746820118750367"><ele>650.0</ele><time>2026-04-26T09:36:14.999Z</time></trkpt><trkpt lat="43.20761672819436" lon="12.746882797864847"><ele>648.0</ele><time>2026-04-26T09:36:16.999Z</time></trkpt><trkpt lat="43.20770662949782" lon="12.74694575358531"><ele>646.0</ele><time>2026-04-26T09:36:18.999Z</time></trkpt><trkpt lat="43.207720225400564" lon="12.747092413921283"><ele>644.0</ele><time>2026-04-26T09:36:20.999Z</time></trkpt><trkpt lat="43.20765475365328" lon="12.747203311547539"><ele>642.0</ele><time>2026-04-26T09:36:22.999Z</time></trkpt><trkpt lat="43.20754575211747" lon="12.74726125013398"><ele>642.0</ele><time>2026-04-26T09:36:24.999Z</time></trkpt><trkpt lat="43.207426300427414" lon="12.747266112983223"><ele>642.0</ele><time>2026-04-26T09:36:26.998Z</time></trkpt><trkpt lat="43.20730750466931" lon="12.74723342899489"><ele>642.0</ele><time>2026-04-26T09:36:28.998Z</time></trkpt><trkpt lat="43.207192383819375" lon="12.747238276726826"><ele>642.0</ele><time>2026-04-26T09:36:30.998Z</time></trkpt><trkpt lat="43.207109437723275" lon="12.747282254534522"><ele>642.0</ele><time>2026-04-26T09:36:32.998Z</time></trkpt><trkpt lat="43.20708443908828" lon="12.747395123672472"><ele>640.1666666666666</ele><time>2026-04-26T09:36:34.998Z</time></trkpt><trkpt lat="43.207093294540726" lon="12.747538190968633"><ele>638.3333333333334</ele><time>2026-04-26T09:36:36.998Z</time></trkpt><trkpt lat="43.20707080939237" lon="12.747698438480064"><ele>636.5</ele><time>2026-04-26T09:36:38.998Z</time></trkpt><trkpt lat="43.20703327446912" lon="12.747772971327961"><ele>634.6666666666667</ele><time>2026-04-26T09:36:39.998Z</time></trkpt><trkpt lat="43.20696574016362" lon="12.747813540068698"><ele>632.8333333333334</ele><time>2026-04-26T09:36:40.998Z</time></trkpt><trkpt lat="43.20691462183504" lon="12.74786973168125"><ele>631.0</ele><time>2026-04-26T09:36:41.998Z</time></trkpt><trkpt lat="43.20687409464181" lon="12.747939730871012"><ele>629.0</ele><time>2026-04-26T09:36:42.998Z</time></trkpt><trkpt lat="43.20679579657661" lon="12.748063791989425"><ele>627.0</ele><time>2026-04-26T09:36:44.998Z</time></trkpt><trkpt lat="43.20676519923525" lon="12.748207800244044"><ele>625.0</ele><time>2026-04-26T09:36:46.998Z</time></trkpt><trkpt lat="43.20674557448729" lon="12.748354148472545"><ele>623.0</ele><time>2026-04-26T09:36:48.998Z</time></trkpt><trkpt lat="43.206735575085446" lon="12.748510400448545"><ele>622.0</ele><time>2026-04-26T09:36:50.998Z</time></trkpt><trkpt lat="43.20674062279563" lon="12.748599004442816"><ele>621.0</ele><time>2026-04-26T09:36:51.998Z</time></trkpt><trkpt lat="43.206740880826096" lon="12.7486944404435"><ele>620.0</ele><time>2026-04-26T09:36:52.998Z</time></trkpt><trkpt lat="43.20674079202469" lon="12.748794896913582"><ele>619.0</ele><time>2026-04-26T09:36:54Z</time></trkpt><trkpt lat="43.20673949149686" lon="12.74890089111767"><ele>618.0</ele><time>2026-04-26T09:36:55Z</time></trkpt><trkpt lat="43.20672132678224" lon="12.749008452955884"><ele>617.0</ele><time>2026-04-26T09:36:56Z</time></trkpt><trkpt lat="43.206720684256254" lon="12.749109264922645"><ele>616.0</ele><time>2026-04-26T09:36:57Z</time></trkpt><trkpt lat="43.20671875635338" lon="12.749206896056211"><ele>616.0</ele><time>2026-04-26T09:36:58Z</time></trkpt><trkpt lat="43.206715799473585" lon="12.749313647967313"><ele>616.0</ele><time>2026-04-26T09:36:59Z</time></trkpt><trkpt lat="43.20672547884262" lon="12.74942271084882"><ele>616.0</ele><time>2026-04-26T09:37:00Z</time></trkpt><trkpt lat="43.20671539556506" lon="12.749525945234545"><ele>616.0</ele><time>2026-04-26T09:37:01Z</time></trkpt><trkpt lat="43.20670240627349" lon="12.74961801270169"><ele>616.0</ele><time>2026-04-26T09:37:02Z</time></trkpt><trkpt lat="43.206662119837084" lon="12.749776086443731"><ele>616.0</ele><time>2026-04-26T09:37:04Z</time></trkpt><trkpt lat="43.20661381458469" lon="12.7498436267781"><ele>614.2857142857143</ele><time>2026-04-26T09:37:05Z</time></trkpt><trkpt lat="43.20655106942141" lon="12.749902341801889"><ele>612.5714285714286</ele><time>2026-04-26T09:37:06Z</time></trkpt><trkpt lat="43.206479556907844" lon="12.74992585377556"><ele>610.8571428571429</ele><time>2026-04-26T09:37:07Z</time></trkpt><trkpt lat="43.2064110436807" lon="12.749939345791605"><ele>609.1428571428571</ele><time>2026-04-26T09:37:08Z</time></trkpt><trkpt lat="43.20634603277249" lon="12.74991781570602"><ele>607.4285714285714</ele><time>2026-04-26T09:37:09Z</time></trkpt><trkpt lat="43.206272547575864" lon="12.74990272416534"><ele>605.7142857142858</ele><time>2026-04-26T09:37:10Z</time></trkpt><trkpt lat="43.20620053589099" lon="12.749863525237062"><ele>604.0</ele><time>2026-04-26T09:37:11Z</time></trkpt><trkpt lat="43.20612287002047" lon="12.749837523108877"><ele>601.3333333333334</ele><time>2026-04-26T09:37:12Z</time></trkpt><trkpt lat="43.2060469685591" lon="12.749813403406078"><ele>598.6666666666667</ele><time>2026-04-26T09:37:13Z</time></trkpt><trkpt lat="43.205965830325304" lon="12.749780070784546"><ele>596.0</ele><time>2026-04-26T09:37:14Z</time></trkpt><trkpt lat="43.205900048165404" lon="12.749730270159993"><ele>593.3333333333334</ele><time>2026-04-26T09:37:15Z</time></trkpt><trkpt lat="43.20580658021119" lon="12.749624579551094"><ele>590.6666666666666</ele><time>2026-04-26T09:37:17Z</time></trkpt><trkpt lat="43.20576425719527" lon="12.749516724220975"><ele>588.0</ele><time>2026-04-26T09:37:19Z</time></trkpt><trkpt lat="43.20567670364091" lon="12.74952768646896"><ele>588.0</ele><time>2026-04-26T09:37:21Z</time></trkpt><trkpt lat="43.20565866812867" lon="12.749611035083847"><ele>588.0</ele><time>2026-04-26T09:37:22Z</time></trkpt><trkpt lat="43.20567866687396" lon="12.749776881450622"><ele>588.0</ele><time>2026-04-26T09:37:24Z</time></trkpt><trkpt lat="43.205698589278555" lon="12.74988161526487"><ele>588.0</ele><time>2026-04-26T09:37:25Z</time></trkpt><trkpt lat="43.2057158007353" lon="12.750008581866082"><ele>588.0</ele><time>2026-04-26T09:37:26Z</time></trkpt><trkpt lat="43.20573482100153" lon="12.750143012409639"><ele>584.6</ele><time>2026-04-26T09:37:27Z</time></trkpt><trkpt lat="43.20576165972651" lon="12.7502808694733"><ele>581.1999999999999</ele><time>2026-04-26T09:37:28Z</time></trkpt><trkpt lat="43.20578494652388" lon="12.750419569976232"><ele>577.8</ele><time>2026-04-26T09:37:29Z</time></trkpt><trkpt lat="43.20581850222544" lon="12.750557277427392"><ele>574.4</ele><time>2026-04-26T09:37:30Z</time></trkpt><trkpt lat="43.205854912374235" lon="12.75069809953312"><ele>571.0</ele><time>2026-04-26T09:37:31Z</time></trkpt><trkpt lat="43.205895340492255" lon="12.750837237742015"><ele>571.0</ele><time>2026-04-26T09:37:32Z</time></trkpt><trkpt lat="43.20593776231478" lon="12.75096594746467"><ele>571.0</ele><time>2026-04-26T09:37:33Z</time></trkpt><trkpt lat="43.205965629413285" lon="12.751092652299626"><ele>571.0</ele><time>2026-04-26T09:37:34Z</time></trkpt><trkpt lat="43.205988126228924" lon="12.751227569475638"><ele>571.0</ele><time>2026-04-26T09:37:35Z</time></trkpt><trkpt lat="43.206021186141065" lon="12.75136855876959"><ele>571.0</ele><time>2026-04-26T09:37:36Z</time></trkpt><trkpt lat="43.20603937357027" lon="12.751511560778248"><ele>568.6</ele><time>2026-04-26T09:37:37Z</time></trkpt><trkpt lat="43.206076940707874" lon="12.751643117193575"><ele>566.2</ele><time>2026-04-26T09:37:38Z</time></trkpt><trkpt lat="43.2061312938417" lon="12.751742016376038"><ele>563.8</ele><time>2026-04-26T09:37:39Z</time></trkpt><trkpt lat="43.206198887310926" lon="12.751817630563455"><ele>561.4</ele><time>2026-04-26T09:37:39.999Z</time></trkpt><trkpt lat="43.20627515474717" lon="12.751876672090058"><ele>559.0</ele><time>2026-04-26T09:37:40.999Z</time></trkpt><trkpt lat="43.206347455094644" lon="12.751934900723398"><ele>557.0</ele><time>2026-04-26T09:37:41.999Z</time></trkpt><trkpt lat="43.206406871735865" lon="12.751996501352158"><ele>555.0</ele><time>2026-04-26T09:37:42.999Z</time></trkpt><trkpt lat="43.206463138937494" lon="12.752061502553328"><ele>553.0</ele><time>2026-04-26T09:37:43.999Z</time></trkpt><trkpt lat="43.20649478522792" lon="12.752170494555488"><ele>551.0</ele><time>2026-04-26T09:37:44.999Z</time></trkpt><trkpt lat="43.20652151915937" lon="12.752279818037929"><ele>549.0</ele><time>2026-04-26T09:37:45.999Z</time></trkpt><trkpt lat="43.206560303132505" lon="12.75241071065808"><ele>547.0</ele><time>2026-04-26T09:37:46.999Z</time></trkpt><trkpt lat="43.20661761757536" lon="12.752549687113953"><ele>547.0</ele><time>2026-04-26T09:37:47.999Z</time></trkpt><trkpt lat="43.206651238198575" lon="12.752703235530019"><ele>547.0</ele><time>2026-04-26T09:37:48.999Z</time></trkpt><trkpt lat="43.206646451563444" lon="12.752858092584283"><ele>547.0</ele><time>2026-04-26T09:37:49.999Z</time></trkpt><trkpt lat="43.20662869548946" lon="12.7530110924923"><ele>547.0</ele><time>2026-04-26T09:37:50.999Z</time></trkpt><trkpt lat="43.20662694150027" lon="12.753163376780874"><ele>544.8000000000001</ele><time>2026-04-26T09:37:51.999Z</time></trkpt><trkpt lat="43.206624323918106" lon="12.753299026976512"><ele>542.6</ele><time>2026-04-26T09:37:52.999Z</time></trkpt><trkpt lat="43.20664889721044" lon="12.753433810381594"><ele>540.4000000000001</ele><time>2026-04-26T09:37:53.999Z</time></trkpt><trkpt lat="43.206687370626845" lon="12.753561170490267"><ele>538.2</ele><time>2026-04-26T09:37:54.999Z</time></trkpt><trkpt lat="43.20672920380909" lon="12.753686529001207"><ele>536.0</ele><time>2026-04-26T09:37:55.999Z</time></trkpt><trkpt lat="43.20677310088122" lon="12.753811165152378"><ele>533.8</ele><time>2026-04-26T09:37:56.999Z</time></trkpt><trkpt lat="43.206814271903816" lon="12.753935214715874"><ele>531.6</ele><time>2026-04-26T09:37:57.999Z</time></trkpt><trkpt lat="43.20684454749726" lon="12.75406141329175"><ele>529.4</ele><time>2026-04-26T09:37:58.999Z</time></trkpt><trkpt lat="43.20684739641989" lon="12.75418290278895"><ele>527.2</ele><time>2026-04-26T09:37:59.999Z</time></trkpt><trkpt lat="43.20681555730283" lon="12.754286213376027"><ele>525.0</ele><time>2026-04-26T09:38:00.999Z</time></trkpt><trkpt lat="43.206727212900006" lon="12.754353605087733"><ele>523.5</ele><time>2026-04-26T09:38:01.999Z</time></trkpt><trkpt lat="43.206679164507705" lon="12.75444896673291"><ele>522.0</ele><time>2026-04-26T09:38:02.999Z</time></trkpt><trkpt lat="43.20668252725175" lon="12.754569229483543"><ele>520.5</ele><time>2026-04-26T09:38:03.999Z</time></trkpt><trkpt lat="43.206713499258164" lon="12.754675483729235"><ele>519.0</ele><time>2026-04-26T09:38:04.999Z</time></trkpt><trkpt lat="43.20675052121803" lon="12.754777866932287"><ele>517.5</ele><time>2026-04-26T09:38:05.999Z</time></trkpt><trkpt lat="43.206779981900944" lon="12.754882632000951"><ele>516.0</ele><time>2026-04-26T09:38:06.999Z</time></trkpt><trkpt lat="43.20680031886982" lon="12.754993892291587"><ele>516.0</ele><time>2026-04-26T09:38:07.999Z</time></trkpt><trkpt lat="43.206811766648805" lon="12.755108317308752"><ele>516.0</ele><time>2026-04-26T09:38:08.999Z</time></trkpt><trkpt lat="43.20680659253249" lon="12.755223509706862"><ele>516.0</ele><time>2026-04-26T09:38:09.999Z</time></trkpt><trkpt lat="43.20678025818171" lon="12.755334589240913"><ele>516.0</ele><time>2026-04-26T09:38:10.999Z</time></trkpt><trkpt lat="43.20673146331991" lon="12.755445404324114"><ele>516.0</ele><time>2026-04-26T09:38:11.999Z</time></trkpt><trkpt lat="43.2067182183222" lon="12.75558587977079"><ele>514.6</ele><time>2026-04-26T09:38:12.999Z</time></trkpt><trkpt lat="43.20669435534449" lon="12.75572516590359"><ele>513.2</ele><time>2026-04-26T09:38:13.999Z</time></trkpt><trkpt lat="43.20667642887445" lon="12.755863627975476"><ele>511.79999999999995</ele><time>2026-04-26T09:38:14.999Z</time></trkpt><trkpt lat="43.20666801546221" lon="12.756002679208056"><ele>510.4</ele><time>2026-04-26T09:38:15.999Z</time></trkpt><trkpt lat="43.206660341500466" lon="12.756145188705474"><ele>509.0</ele><time>2026-04-26T09:38:16.999Z</time></trkpt><trkpt lat="43.206654156223735" lon="12.756295428901776"><ele>507.79999999999995</ele><time>2026-04-26T09:38:17.999Z</time></trkpt><trkpt lat="43.2066469351861" lon="12.756449255938872"><ele>506.59999999999997</ele><time>2026-04-26T09:38:18.999Z</time></trkpt><trkpt lat="43.206644920577666" lon="12.756596400155368"><ele>505.4</ele><time>2026-04-26T09:38:19.999Z</time></trkpt><trkpt lat="43.206646249373385" lon="12.756736523006486"><ele>504.2</ele><time>2026-04-26T09:38:20.999Z</time></trkpt><trkpt lat="43.206655923920735" lon="12.756868549493728"><ele>503.0</ele><time>2026-04-26T09:38:21.999Z</time></trkpt><trkpt lat="43.2066801919971" lon="12.75699535877247"><ele>502.16666666666663</ele><time>2026-04-26T09:38:22.999Z</time></trkpt><trkpt lat="43.20671701590271" lon="12.757111204406138"><ele>501.3333333333333</ele><time>2026-04-26T09:38:23.999Z</time></trkpt><trkpt lat="43.206750813932544" lon="12.757219420442379"><ele>500.5</ele><time>2026-04-26T09:38:24.999Z</time></trkpt><trkpt lat="43.206776715807365" lon="12.757324367173048"><ele>499.66666666666663</ele><time>2026-04-26T09:38:25.999Z</time></trkpt><trkpt lat="43.20678420563668" lon="12.75742863035738"><ele>498.8333333333333</ele><time>2026-04-26T09:38:26.999Z</time></trkpt><trkpt lat="43.20681785058492" lon="12.757517219931222"><ele>498.0</ele><time>2026-04-26T09:38:27.999Z</time></trkpt><trkpt lat="43.20683434006511" lon="12.757601855516649"><ele>497.4</ele><time>2026-04-26T09:38:28.998Z</time></trkpt><trkpt lat="43.20686299166974" lon="12.757777233113378"><ele>496.79999999999995</ele><time>2026-04-26T09:38:30.998Z</time></trkpt><trkpt lat="43.20687531113189" lon="12.75788593595859"><ele>496.2</ele><time>2026-04-26T09:38:31.998Z</time></trkpt><trkpt lat="43.206890849247756" lon="12.757997960733237"><ele>495.6</ele><time>2026-04-26T09:38:32.998Z</time></trkpt><trkpt lat="43.20690607313616" lon="12.758110667494375"><ele>495.0</ele><time>2026-04-26T09:38:33.998Z</time></trkpt><trkpt lat="43.20692511067601" lon="12.758228390541023"><ele>495.0</ele><time>2026-04-26T09:38:34.998Z</time></trkpt><trkpt lat="43.206954027406276" lon="12.75835058055629"><ele>495.0</ele><time>2026-04-26T09:38:35.998Z</time></trkpt><trkpt lat="43.20699453479439" lon="12.758472080771249"><ele>495.0</ele><time>2026-04-26T09:38:36.998Z</time></trkpt><trkpt lat="43.20703672064215" lon="12.758588018975791"><ele>495.0</ele><time>2026-04-26T09:38:37.998Z</time></trkpt><trkpt lat="43.20707773893091" lon="12.75870194640958"><ele>495.0</ele><time>2026-04-26T09:38:38.998Z</time></trkpt><trkpt lat="43.20711364197498" lon="12.758816634076585"><ele>494.6</ele><time>2026-04-26T09:38:39.998Z</time></trkpt><trkpt lat="43.207155776001095" lon="12.758927896172349"><ele>494.2</ele><time>2026-04-26T09:38:40.998Z</time></trkpt><trkpt lat="43.207191682463" lon="12.759045937535753"><ele>493.79999999999995</ele><time>2026-04-26T09:38:41.998Z</time></trkpt><trkpt lat="43.2072243039603" lon="12.759169157458986"><ele>493.4</ele><time>2026-04-26T09:38:42.998Z</time></trkpt><trkpt lat="43.20726310046326" lon="12.759296113170222"><ele>493.0</ele><time>2026-04-26T09:38:43.998Z</time></trkpt><trkpt lat="43.207300552567375" lon="12.759427015781844"><ele>493.0</ele><time>2026-04-26T09:38:44.998Z</time></trkpt><trkpt lat="43.207350477227465" lon="12.759557142195918"><ele>492.99999999999994</ele><time>2026-04-26T09:38:45.998Z</time></trkpt><trkpt lat="43.20740612284258" lon="12.759681860672286"><ele>492.99999999999994</ele><time>2026-04-26T09:38:46.998Z</time></trkpt><trkpt lat="43.20746098679504" lon="12.759797252692863"><ele>493.0</ele><time>2026-04-26T09:38:47.998Z</time></trkpt><trkpt lat="43.207499569157136" lon="12.759909711877759"><ele>493.0</ele><time>2026-04-26T09:38:48.998Z</time></trkpt><trkpt lat="43.207528304812435" lon="12.760021795982244"><ele>493.0</ele><time>2026-04-26T09:38:49.998Z</time></trkpt><trkpt lat="43.207557703986964" lon="12.760139534229053"><ele>492.99999999999994</ele><time>2026-04-26T09:38:50.998Z</time></trkpt><trkpt lat="43.20758484374435" lon="12.7602542214705"><ele>492.99999999999994</ele><time>2026-04-26T09:38:51.998Z</time></trkpt><trkpt lat="43.207610567267366" lon="12.760374360621372"><ele>493.0</ele><time>2026-04-26T09:38:52.998Z</time></trkpt><trkpt lat="43.20763476339007" lon="12.760495074658474"><ele>493.0</ele><time>2026-04-26T09:38:53.998Z</time></trkpt><trkpt lat="43.20765819454191" lon="12.760619473732467"><ele>493.0</ele><time>2026-04-26T09:38:54.998Z</time></trkpt><trkpt lat="43.20767995305994" lon="12.760749891310942"><ele>492.99999999999994</ele><time>2026-04-26T09:38:55.998Z</time></trkpt><trkpt lat="43.207701781400296" lon="12.760884950582636"><ele>492.99999999999994</ele><time>2026-04-26T09:38:56.998Z</time></trkpt><trkpt lat="43.20772285130466" lon="12.761012438727224"><ele>493.0</ele><time>2026-04-26T09:38:57.998Z</time></trkpt><trkpt lat="43.20774177975039" lon="12.761136344348888"><ele>493.0</ele><time>2026-04-26T09:38:58.998Z</time></trkpt><trkpt lat="43.20776327682815" lon="12.761256741449198"><ele>491.79999999999995</ele><time>2026-04-26T09:39:00Z</time></trkpt><trkpt lat="43.207781439546565" lon="12.761376992553549"><ele>490.59999999999997</ele><time>2026-04-26T09:39:01Z</time></trkpt><trkpt lat="43.20779883758091" lon="12.761498914258304"><ele>489.40000000000003</ele><time>2026-04-26T09:39:02Z</time></trkpt><trkpt lat="43.20781779160775" lon="12.761617651202272"><ele>488.20000000000005</ele><time>2026-04-26T09:39:03Z</time></trkpt><trkpt lat="43.20784130994362" lon="12.761739273109475"><ele>487.0</ele><time>2026-04-26T09:39:04Z</time></trkpt><trkpt lat="43.207862982256884" lon="12.761861405878243"><ele>485.6666666666667</ele><time>2026-04-26T09:39:05Z</time></trkpt><trkpt lat="43.20788503296694" lon="12.761985020862141"><ele>484.33333333333337</ele><time>2026-04-26T09:39:06Z</time></trkpt><trkpt lat="43.20790536339474" lon="12.762104108247307"><ele>483.0</ele><time>2026-04-26T09:39:07Z</time></trkpt><trkpt lat="43.207931018536904" lon="12.762224316665511"><ele>481.66666666666663</ele><time>2026-04-26T09:39:08Z</time></trkpt><trkpt lat="43.2079585730064" lon="12.76233686469144"><ele>480.3333333333333</ele><time>2026-04-26T09:39:09Z</time></trkpt><trkpt lat="43.20798369571002" lon="12.762442073189298"><ele>479.0</ele><time>2026-04-26T09:39:10Z</time></trkpt><trkpt lat="43.20801154529893" lon="12.762542577121781"><ele>478.99999999999994</ele><time>2026-04-26T09:39:11Z</time></trkpt><trkpt lat="43.20804546784389" lon="12.762638392318562"><ele>479.0</ele><time>2026-04-26T09:39:12Z</time></trkpt><trkpt lat="43.20808084570728" lon="12.762735593024903"><ele>479.0</ele><time>2026-04-26T09:39:13Z</time></trkpt><trkpt lat="43.208121587890105" lon="12.762828722154108"><ele>479.0</ele><time>2026-04-26T09:39:14Z</time></trkpt><trkpt lat="43.2081715737734" lon="12.762938698185772"><ele>478.99999999999994</ele><time>2026-04-26T09:39:15Z</time></trkpt><trkpt lat="43.208220135841515" lon="12.763055572426202"><ele>479.0</ele><time>2026-04-26T09:39:16Z</time></trkpt><trkpt lat="43.20826515436772" lon="12.763187280668005"><ele>478.0</ele><time>2026-04-26T09:39:17Z</time></trkpt><trkpt lat="43.208308293321345" lon="12.76332959482525"><ele>477.0</ele><time>2026-04-26T09:39:18Z</time></trkpt><trkpt lat="43.208347088885596" lon="12.763468107668503"><ele>476.0</ele><time>2026-04-26T09:39:19Z</time></trkpt><trkpt lat="43.20837979260992" lon="12.763600468920576"><ele>475.0</ele><time>2026-04-26T09:39:20Z</time></trkpt><trkpt lat="43.208403707687985" lon="12.763723798764675"><ele>474.0</ele><time>2026-04-26T09:39:21Z</time></trkpt><trkpt lat="43.208404926415504" lon="12.763839977256692"><ele>473.4</ele><time>2026-04-26T09:39:22Z</time></trkpt><trkpt lat="43.208383142504616" lon="12.763946727937073"><ele>472.79999999999995</ele><time>2026-04-26T09:39:23Z</time></trkpt><trkpt lat="43.20835486702534" lon="12.76405150171601"><ele>472.20000000000005</ele><time>2026-04-26T09:39:24Z</time></trkpt><trkpt lat="43.20832596148071" lon="12.764167690806111"><ele>471.6</ele><time>2026-04-26T09:39:25Z</time></trkpt><trkpt lat="43.20829490721002" lon="12.764298210490761"><ele>471.0</ele><time>2026-04-26T09:39:26Z</time></trkpt><trkpt lat="43.20826655405676" lon="12.764435899642027"><ele>471.0</ele><time>2026-04-26T09:39:27Z</time></trkpt><trkpt lat="43.20825839543965" lon="12.764575102278762"><ele>471.0</ele><time>2026-04-26T09:39:28Z</time></trkpt><trkpt lat="43.2082661491284" lon="12.76471604570179"><ele>471.0</ele><time>2026-04-26T09:39:29Z</time></trkpt><trkpt lat="43.20827835450505" lon="12.764858820058695"><ele>471.0</ele><time>2026-04-26T09:39:30Z</time></trkpt><trkpt lat="43.20829885083195" lon="12.7650042238274"><ele>471.0</ele><time>2026-04-26T09:39:31Z</time></trkpt><trkpt lat="43.208293178040485" lon="12.76515146952133"><ele>471.0</ele><time>2026-04-26T09:39:32Z</time></trkpt><trkpt lat="43.208304968343626" lon="12.765295804359459"><ele>471.0</ele><time>2026-04-26T09:39:33Z</time></trkpt><trkpt lat="43.20830555720854" lon="12.765444329772944"><ele>471.0</ele><time>2026-04-26T09:39:34Z</time></trkpt><trkpt lat="43.2083037237596" lon="12.765595006766267"><ele>471.0</ele><time>2026-04-26T09:39:35Z</time></trkpt><trkpt lat="43.20828929846778" lon="12.765753725049283"><ele>471.0</ele><time>2026-04-26T09:39:36Z</time></trkpt><trkpt lat="43.208260387267266" lon="12.765911028951932"><ele>471.4</ele><time>2026-04-26T09:39:37Z</time></trkpt><trkpt lat="43.20822472790041" lon="12.766059377763808"><ele>471.8</ele><time>2026-04-26T09:39:38Z</time></trkpt><trkpt lat="43.20819859591687" lon="12.766209681026472"><ele>472.19999999999993</ele><time>2026-04-26T09:39:39Z</time></trkpt><trkpt lat="43.20818720014335" lon="12.766362396512328"><ele>472.59999999999997</ele><time>2026-04-26T09:39:40Z</time></trkpt><trkpt lat="43.20818456438011" lon="12.766513367192575"><ele>473.0</ele><time>2026-04-26T09:39:41Z</time></trkpt><trkpt lat="43.20818267870536" lon="12.766668726933952"><ele>473.0</ele><time>2026-04-26T09:39:42Z</time></trkpt><trkpt lat="43.20818044943422" lon="12.766824975948122"><ele>473.0</ele><time>2026-04-26T09:39:42.999Z</time></trkpt><trkpt lat="43.208174601467654" lon="12.766979246261643"><ele>473.0</ele><time>2026-04-26T09:39:43.999Z</time></trkpt><trkpt lat="43.20817290696471" lon="12.767131691843716"><ele>473.0</ele><time>2026-04-26T09:39:44.999Z</time></trkpt><trkpt lat="43.208165533973066" lon="12.767296120783179"><ele>475.0</ele><time>2026-04-26T09:39:45.999Z</time></trkpt><trkpt lat="43.20815461981165" lon="12.767466447723844"><ele>477.0</ele><time>2026-04-26T09:39:46.999Z</time></trkpt><trkpt lat="43.20814603164088" lon="12.76764755268488"><ele>479.0</ele><time>2026-04-26T09:39:47.999Z</time></trkpt><trkpt lat="43.20813553048507" lon="12.767841078978542"><ele>481.0</ele><time>2026-04-26T09:39:48.999Z</time></trkpt><trkpt lat="43.20812434577901" lon="12.768042958878219"><ele>481.25</ele><time>2026-04-26T09:39:49.999Z</time></trkpt><trkpt lat="43.20811240843443" lon="12.768244713352976"><ele>481.5</ele><time>2026-04-26T09:39:50.999Z</time></trkpt><trkpt lat="43.20810410829694" lon="12.768452713139974"><ele>481.75</ele><time>2026-04-26T09:39:51.999Z</time></trkpt><trkpt lat="43.208093385649555" lon="12.768631527192152"><ele>482.0</ele><time>2026-04-26T09:39:52.999Z</time></trkpt><trkpt lat="43.20808998078919" lon="12.76879368582645"><ele>481.99999999999994</ele><time>2026-04-26T09:39:53.999Z</time></trkpt><trkpt lat="43.20808070935366" lon="12.768926450650145"><ele>482.0</ele><time>2026-04-26T09:39:54.999Z</time></trkpt><trkpt lat="43.20807227532438" lon="12.769013054056014"><ele>482.0</ele><time>2026-04-26T09:39:55.999Z</time></trkpt><trkpt lat="43.20805817642663" lon="12.769121192356883"><ele>482.0</ele><time>2026-04-26T09:39:57.999Z</time></trkpt><trkpt lat="43.20797453084253" lon="12.769213920620475"><ele>481.99999999999994</ele><time>2026-04-26T09:40:00.999Z</time></trkpt><trkpt lat="43.20789577201321" lon="12.769248115104672"><ele>482.0</ele><time>2026-04-26T09:40:01.999Z</time></trkpt><trkpt lat="43.20780511004288" lon="12.769284584840618"><ele>482.0</ele><time>2026-04-26T09:40:02.999Z</time></trkpt><trkpt lat="43.207713094343696" lon="12.769320967457462"><ele>482.00000000000006</ele><time>2026-04-26T09:40:03.999Z</time></trkpt><trkpt lat="43.2076134139313" lon="12.76936938033333"><ele>482.00000000000006</ele><time>2026-04-26T09:40:04.999Z</time></trkpt><trkpt lat="43.20751006154296" lon="12.769425886693366"><ele>482.0</ele><time>2026-04-26T09:40:05.999Z</time></trkpt><trkpt lat="43.207397283573854" lon="12.769490118425507"><ele>482.0</ele><time>2026-04-26T09:40:06.999Z</time></trkpt><trkpt lat="43.20727426343208" lon="12.769557772833295"><ele>482.0</ele><time>2026-04-26T09:40:07.999Z</time></trkpt><trkpt lat="43.207143516349284" lon="12.769628105790455"><ele>482.0</ele><time>2026-04-26T09:40:08.999Z</time></trkpt><trkpt lat="43.207008224811084" lon="12.76969672670922"><ele>482.0</ele><time>2026-04-26T09:40:09.999Z</time></trkpt><trkpt lat="43.206862858029396" lon="12.769768855067486"><ele>482.0</ele><time>2026-04-26T09:40:10.999Z</time></trkpt><trkpt lat="43.206714015726405" lon="12.76983865988495"><ele>482.0</ele><time>2026-04-26T09:40:11.999Z</time></trkpt><trkpt lat="43.2065517172428" lon="12.769918985190955"><ele>482.0</ele><time>2026-04-26T09:40:12.999Z</time></trkpt><trkpt lat="43.206385772874114" lon="12.77000390343992"><ele>482.0</ele><time>2026-04-26T09:40:13.999Z</time></trkpt><trkpt lat="43.20621354293675" lon="12.770089780731507"><ele>482.3333333333333</ele><time>2026-04-26T09:40:14.999Z</time></trkpt><trkpt lat="43.206036196870905" lon="12.770180261509504"><ele>482.66666666666663</ele><time>2026-04-26T09:40:15.999Z</time></trkpt><trkpt lat="43.20585781865438" lon="12.770275092334838"><ele>483.0</ele><time>2026-04-26T09:40:16.999Z</time></trkpt><trkpt lat="43.20568738819651" lon="12.770366317703465"><ele>480.66666666666663</ele><time>2026-04-26T09:40:17.999Z</time></trkpt><trkpt lat="43.20552274362348" lon="12.77044653557463"><ele>478.3333333333333</ele><time>2026-04-26T09:40:18.999Z</time></trkpt><trkpt lat="43.20537136436396" lon="12.770523034938115"><ele>476.0</ele><time>2026-04-26T09:40:19.999Z</time></trkpt><trkpt lat="43.20523014556918" lon="12.770593010266722"><ele>476.0</ele><time>2026-04-26T09:40:20.999Z</time></trkpt><trkpt lat="43.20509097861657" lon="12.770659033988832"><ele>476.0</ele><time>2026-04-26T09:40:21.999Z</time></trkpt><trkpt lat="43.204956082224406" lon="12.770720222591939"><ele>476.0</ele><time>2026-04-26T09:40:22.999Z</time></trkpt><trkpt lat="43.204821895132774" lon="12.77078314291184"><ele>476.0</ele><time>2026-04-26T09:40:23.999Z</time></trkpt><trkpt lat="43.20469034462872" lon="12.770846672873176"><ele>475.5</ele><time>2026-04-26T09:40:24.999Z</time></trkpt><trkpt lat="43.20456536599595" lon="12.77090748967276"><ele>475.0</ele><time>2026-04-26T09:40:25.999Z</time></trkpt><trkpt lat="43.20444442499777" lon="12.770967234777101"><ele>474.5</ele><time>2026-04-26T09:40:26.999Z</time></trkpt><trkpt lat="43.20433457040025" lon="12.771019022357109"><ele>474.0</ele><time>2026-04-26T09:40:27.999Z</time></trkpt><trkpt lat="43.20423613619838" lon="12.771063494799066"><ele>474.0</ele><time>2026-04-26T09:40:28.999Z</time></trkpt><trkpt lat="43.20416084177357" lon="12.771106627880101"><ele>474.0</ele><time>2026-04-26T09:40:29.999Z</time></trkpt><trkpt lat="43.20407234043537" lon="12.771141011752253"><ele>474.0</ele><time>2026-04-26T09:40:31.998Z</time></trkpt><trkpt lat="43.2041198316418" lon="12.771368356780206"><ele>474.0</ele><time>2026-04-26T09:40:33.998Z</time></trkpt><trkpt lat="43.20416369356075" lon="12.771455383567755"><ele>474.0</ele><time>2026-04-26T09:40:34.998Z</time></trkpt><trkpt lat="43.20420705319187" lon="12.771558996600715"><ele>474.0</ele><time>2026-04-26T09:40:35.998Z</time></trkpt><trkpt lat="43.20425093694841" lon="12.771680016481161"><ele>474.0</ele><time>2026-04-26T09:40:36.998Z</time></trkpt><trkpt lat="43.20429833433441" lon="12.77182327397245"><ele>474.0</ele><time>2026-04-26T09:40:37.998Z</time></trkpt><trkpt lat="43.20433816292859" lon="12.771974364103732"><ele>474.0</ele><time>2026-04-26T09:40:38.998Z</time></trkpt><trkpt lat="43.20436455350493" lon="12.772135025907396"><ele>475.0</ele><time>2026-04-26T09:40:39.998Z</time></trkpt><trkpt lat="43.20438659967424" lon="12.772304400095324"><ele>476.0</ele><time>2026-04-26T09:40:40.998Z</time></trkpt><trkpt lat="43.20440261720886" lon="12.772486856940553"><ele>477.0</ele><time>2026-04-26T09:40:41.998Z</time></trkpt><trkpt lat="43.20440761992027" lon="12.772677482268383"><ele>478.0</ele><time>2026-04-26T09:40:42.998Z</time></trkpt><trkpt lat="43.20441216674853" lon="12.772870089493424"><ele>478.25</ele><time>2026-04-26T09:40:43.998Z</time></trkpt><trkpt lat="43.20442323689384" lon="12.773064934462637"><ele>478.5</ele><time>2026-04-26T09:40:44.998Z</time></trkpt><trkpt lat="43.204431572835716" lon="12.7732552669955"><ele>478.75</ele><time>2026-04-26T09:40:45.998Z</time></trkpt><trkpt lat="43.20443694484904" lon="12.77342917888076"><ele>479.0</ele><time>2026-04-26T09:40:46.998Z</time></trkpt><trkpt lat="43.20445824018922" lon="12.773592997220986"><ele>479.2</ele><time>2026-04-26T09:40:47.998Z</time></trkpt><trkpt lat="43.20449005966792" lon="12.77373718705838"><ele>479.4</ele><time>2026-04-26T09:40:48.998Z</time></trkpt><trkpt lat="43.20453297062938" lon="12.77387028508193"><ele>479.6</ele><time>2026-04-26T09:40:49.998Z</time></trkpt><trkpt lat="43.204580798916425" lon="12.774006522046317"><ele>479.8</ele><time>2026-04-26T09:40:50.998Z</time></trkpt><trkpt lat="43.204627627919834" lon="12.774155408899198"><ele>480.0</ele><time>2026-04-26T09:40:51.998Z</time></trkpt><trkpt lat="43.20467265371431" lon="12.774309900122622"><ele>479.75</ele><time>2026-04-26T09:40:52.998Z</time></trkpt><trkpt lat="43.204711318939566" lon="12.7744719723784"><ele>479.5</ele><time>2026-04-26T09:40:53.998Z</time></trkpt><trkpt lat="43.2047498358153" lon="12.774638048297275"><ele>479.25</ele><time>2026-04-26T09:40:54.998Z</time></trkpt><trkpt lat="43.20478582207973" lon="12.774806631135727"><ele>479.0</ele><time>2026-04-26T09:40:55.998Z</time></trkpt><trkpt lat="43.20482270328539" lon="12.774967212260178"><ele>479.6</ele><time>2026-04-26T09:40:56.998Z</time></trkpt><trkpt lat="43.204852458431574" lon="12.775110707285581"><ele>480.2</ele><time>2026-04-26T09:40:57.998Z</time></trkpt><trkpt lat="43.20488061387612" lon="12.775209722226784"><ele>480.80000000000007</ele><time>2026-04-26T09:40:58.998Z</time></trkpt><trkpt lat="43.204911759984704" lon="12.775349287806716"><ele>481.40000000000003</ele><time>2026-04-26T09:41:00.998Z</time></trkpt><trkpt lat="43.20494255941379" lon="12.775496587771276"><ele>482.0</ele><time>2026-04-26T09:41:02.998Z</time></trkpt><trkpt lat="43.20500255603979" lon="12.775655356934749"><ele>482.40000000000003</ele><time>2026-04-26T09:41:05Z</time></trkpt><trkpt lat="43.2050262090081" lon="12.775769525348679"><ele>482.80000000000007</ele><time>2026-04-26T09:41:06Z</time></trkpt><trkpt lat="43.205047898847305" lon="12.775894884284575"><ele>483.2</ele><time>2026-04-26T09:41:07Z</time></trkpt><trkpt lat="43.20506990867513" lon="12.776040609428778"><ele>483.6</ele><time>2026-04-26T09:41:08Z</time></trkpt><trkpt lat="43.20509438144873" lon="12.77618764355778"><ele>484.0</ele><time>2026-04-26T09:41:09Z</time></trkpt><trkpt lat="43.20512147836343" lon="12.776341492019315"><ele>484.2</ele><time>2026-04-26T09:41:10Z</time></trkpt><trkpt lat="43.205151754573926" lon="12.776490710969984"><ele>484.4</ele><time>2026-04-26T09:41:11Z</time></trkpt><trkpt lat="43.20518603154898" lon="12.776625221985531"><ele>484.6</ele><time>2026-04-26T09:41:12Z</time></trkpt><trkpt lat="43.205230111239665" lon="12.776751431817939"><ele>484.8</ele><time>2026-04-26T09:41:13Z</time></trkpt><trkpt lat="43.205280458392615" lon="12.776878589793768"><ele>485.0</ele><time>2026-04-26T09:41:14Z</time></trkpt><trkpt lat="43.20533420921038" lon="12.77701883575526"><ele>485.25</ele><time>2026-04-26T09:41:15Z</time></trkpt><trkpt lat="43.20538913453708" lon="12.777166808965175"><ele>485.5</ele><time>2026-04-26T09:41:16Z</time></trkpt><trkpt lat="43.20544733573018" lon="12.777317173320538"><ele>485.75</ele><time>2026-04-26T09:41:17Z</time></trkpt><trkpt lat="43.20550979262813" lon="12.777472911261109"><ele>486.0</ele><time>2026-04-26T09:41:18Z</time></trkpt><trkpt lat="43.20557605588234" lon="12.777636673804361"><ele>486.5</ele><time>2026-04-26T09:41:19Z</time></trkpt><trkpt lat="43.205647993487005" lon="12.777800531279134"><ele>487.0</ele><time>2026-04-26T09:41:20Z</time></trkpt><trkpt lat="43.20572035864556" lon="12.77797123177032"><ele>487.5</ele><time>2026-04-26T09:41:21Z</time></trkpt><trkpt lat="43.20579449216411" lon="12.778142493824298"><ele>488.0</ele><time>2026-04-26T09:41:22Z</time></trkpt><trkpt lat="43.20586142422207" lon="12.778307298874369"><ele>489.0</ele><time>2026-04-26T09:41:23Z</time></trkpt><trkpt lat="43.20592433312823" lon="12.778453055415977"><ele>490.0</ele><time>2026-04-26T09:41:24Z</time></trkpt><trkpt lat="43.20598261188556" lon="12.778584685451056"><ele>491.0</ele><time>2026-04-26T09:41:25Z</time></trkpt><trkpt lat="43.20603556672208" lon="12.77871725290809"><ele>492.0</ele><time>2026-04-26T09:41:26Z</time></trkpt><trkpt lat="43.20609243987858" lon="12.778859251451975"><ele>492.0</ele><time>2026-04-26T09:41:27Z</time></trkpt><trkpt lat="43.20614902784745" lon="12.779008102947307"><ele>492.0</ele><time>2026-04-26T09:41:28Z</time></trkpt><trkpt lat="43.20620149620302" lon="12.77916051494371"><ele>492.0</ele><time>2026-04-26T09:41:29Z</time></trkpt><trkpt lat="43.20624679385999" lon="12.779323948749319"><ele>492.0</ele><time>2026-04-26T09:41:30Z</time></trkpt><trkpt lat="43.20629647568963" lon="12.779491801555823"><ele>492.5</ele><time>2026-04-26T09:41:31Z</time></trkpt><trkpt lat="43.20634614664417" lon="12.779664080660794"><ele>493.0</ele><time>2026-04-26T09:41:32Z</time></trkpt><trkpt lat="43.20638504301372" lon="12.77983487423981"><ele>493.5</ele><time>2026-04-26T09:41:33Z</time></trkpt><trkpt lat="43.20641628286035" lon="12.780000817330025"><ele>494.0</ele><time>2026-04-26T09:41:34Z</time></trkpt><trkpt lat="43.2064262513483" lon="12.780172676488434"><ele>494.25</ele><time>2026-04-26T09:41:35Z</time></trkpt><trkpt lat="43.20644575778209" lon="12.78033658000027"><ele>494.5</ele><time>2026-04-26T09:41:36Z</time></trkpt><trkpt lat="43.20646352448105" lon="12.780499423980618"><ele>494.75</ele><time>2026-04-26T09:41:37Z</time></trkpt><trkpt lat="43.20648121961719" lon="12.780661725406148"><ele>495.0</ele><time>2026-04-26T09:41:38Z</time></trkpt><trkpt lat="43.20649757079411" lon="12.780822654602654"><ele>495.25</ele><time>2026-04-26T09:41:39Z</time></trkpt><trkpt lat="43.206527400758674" lon="12.78097863737912"><ele>495.5</ele><time>2026-04-26T09:41:40Z</time></trkpt><trkpt lat="43.20653552388982" lon="12.781134034884305"><ele>495.75</ele><time>2026-04-26T09:41:41Z</time></trkpt><trkpt lat="43.2065399324437" lon="12.781289043797274"><ele>496.0</ele><time>2026-04-26T09:41:42Z</time></trkpt><trkpt lat="43.20655374462515" lon="12.781448605871782"><ele>497.0</ele><time>2026-04-26T09:41:43Z</time></trkpt><trkpt lat="43.206567589988566" lon="12.781612593075904"><ele>498.0</ele><time>2026-04-26T09:41:43.999Z</time></trkpt><trkpt lat="43.206581104554225" lon="12.78177877217473"><ele>499.0</ele><time>2026-04-26T09:41:44.999Z</time></trkpt><trkpt lat="43.206597230540964" lon="12.781936125677188"><ele>500.0</ele><time>2026-04-26T09:41:45.999Z</time></trkpt><trkpt lat="43.20660521969907" lon="12.782073647704058"><ele>500.4</ele><time>2026-04-26T09:41:46.999Z</time></trkpt><trkpt lat="43.20661628983194" lon="12.782209290447677"><ele>500.8</ele><time>2026-04-26T09:41:47.999Z</time></trkpt><trkpt lat="43.20663014525458" lon="12.782347199360663"><ele>501.20000000000005</ele><time>2026-04-26T09:41:48.999Z</time></trkpt><trkpt lat="43.2066433798675" lon="12.782483026163044"><ele>501.6</ele><time>2026-04-26T09:41:49.999Z</time></trkpt><trkpt lat="43.20665914109548" lon="12.782602529542674"><ele>502.0</ele><time>2026-04-26T09:41:50.999Z</time></trkpt><trkpt lat="43.20667625385223" lon="12.782706049767608"><ele>502.6</ele><time>2026-04-26T09:41:51.999Z</time></trkpt><trkpt lat="43.20672117651926" lon="12.782846571957291"><ele>503.20000000000005</ele><time>2026-04-26T09:41:53.999Z</time></trkpt><trkpt lat="43.2067951519589" lon="12.782921858747784"><ele>503.8</ele><time>2026-04-26T09:41:55.999Z</time></trkpt><trkpt lat="43.20691478088362" lon="12.782990094764628"><ele>504.4</ele><time>2026-04-26T09:41:57.999Z</time></trkpt><trkpt lat="43.206991807088585" lon="12.783005662775668"><ele>505.0</ele><time>2026-04-26T09:41:58.999Z</time></trkpt><trkpt lat="43.20706450494236" lon="12.783021120983419"><ele>505.00000000000006</ele><time>2026-04-26T09:41:59.999Z</time></trkpt><trkpt lat="43.207132682290435" lon="12.783041277518532"><ele>505.0</ele><time>2026-04-26T09:42:00.999Z</time></trkpt><trkpt lat="43.20720031880798" lon="12.78305443210481"><ele>505.0</ele><time>2026-04-26T09:42:01.999Z</time></trkpt><trkpt lat="43.20725221557114" lon="12.783124003998585"><ele>505.0</ele><time>2026-04-26T09:42:02.999Z</time></trkpt><trkpt lat="43.20727638090227" lon="12.783231119200167"><ele>505.00000000000006</ele><time>2026-04-26T09:42:03.999Z</time></trkpt><trkpt lat="43.2072727090205" lon="12.78335262867086"><ele>505.0</ele><time>2026-04-26T09:42:04.999Z</time></trkpt><trkpt lat="43.207257125514886" lon="12.78346987661078"><ele>506.0</ele><time>2026-04-26T09:42:05.999Z</time></trkpt><trkpt lat="43.207244375980814" lon="12.783594459844231"><ele>507.0</ele><time>2026-04-26T09:42:06.999Z</time></trkpt><trkpt lat="43.207240885855875" lon="12.78373841322348"><ele>508.0</ele><time>2026-04-26T09:42:07.999Z</time></trkpt><trkpt lat="43.207238472477194" lon="12.783893662599777"><ele>509.0</ele><time>2026-04-26T09:42:08.999Z</time></trkpt><trkpt lat="43.20723749956701" lon="12.784061238182804"><ele>510.0</ele><time>2026-04-26T09:42:09.999Z</time></trkpt><trkpt lat="43.2072368051643" lon="12.784235953852068"><ele>511.25</ele><time>2026-04-26T09:42:10.999Z</time></trkpt><trkpt lat="43.207235593710216" lon="12.784416461983135"><ele>512.5</ele><time>2026-04-26T09:42:11.999Z</time></trkpt><trkpt lat="43.20723382577815" lon="12.784594990065054"><ele>513.75</ele><time>2026-04-26T09:42:12.999Z</time></trkpt><trkpt lat="43.207238307846445" lon="12.784776930470928"><ele>515.0</ele><time>2026-04-26T09:42:13.999Z</time></trkpt><trkpt lat="43.20724820280247" lon="12.784956390063428"><ele>515.0</ele><time>2026-04-26T09:42:14.999Z</time></trkpt><trkpt lat="43.2072566479371" lon="12.78512778447767"><ele>515.0</ele><time>2026-04-26T09:42:15.999Z</time></trkpt><trkpt lat="43.207255978184705" lon="12.785289036909708"><ele>515.0</ele><time>2026-04-26T09:42:16.999Z</time></trkpt><trkpt lat="43.20725985853576" lon="12.7854576577759"><ele>515.0</ele><time>2026-04-26T09:42:17.999Z</time></trkpt><trkpt lat="43.20726757805793" lon="12.785633185830621"><ele>516.25</ele><time>2026-04-26T09:42:18.999Z</time></trkpt><trkpt lat="43.20728027572361" lon="12.785816204445986"><ele>517.5</ele><time>2026-04-26T09:42:19.999Z</time></trkpt><trkpt lat="43.20729186625088" lon="12.785998370092546"><ele>518.75</ele><time>2026-04-26T09:42:20.999Z</time></trkpt><trkpt lat="43.2072999970925" lon="12.786154563395511"><ele>520.0</ele><time>2026-04-26T09:42:21.999Z</time></trkpt><trkpt lat="43.2073048789522" lon="12.786288678832936"><ele>520.8333333333334</ele><time>2026-04-26T09:42:22.999Z</time></trkpt><trkpt lat="43.20731048023306" lon="12.78640082326537"><ele>521.6666666666667</ele><time>2026-04-26T09:42:23.999Z</time></trkpt><trkpt lat="43.20732013240099" lon="12.786488563313686"><ele>522.5</ele><time>2026-04-26T09:42:24.999Z</time></trkpt><trkpt lat="43.20731013096509" lon="12.786593307352803"><ele>523.3333333333334</ele><time>2026-04-26T09:42:26.999Z</time></trkpt><trkpt lat="43.207176814446015" lon="12.786608952003446"><ele>524.1666666666666</ele><time>2026-04-26T09:42:29.999Z</time></trkpt><trkpt lat="43.207088268415966" lon="12.786587569413097"><ele>525.0</ele><time>2026-04-26T09:42:30.999Z</time></trkpt><trkpt lat="43.20699208581248" lon="12.78657473294274"><ele>525.0</ele><time>2026-04-26T09:42:31.998Z</time></trkpt><trkpt lat="43.20689236714412" lon="12.786558058452224"><ele>525.0</ele><time>2026-04-26T09:42:32.998Z</time></trkpt><trkpt lat="43.206779221133175" lon="12.786546170230777"><ele>525.0</ele><time>2026-04-26T09:42:33.998Z</time></trkpt><trkpt lat="43.206644760949644" lon="12.786526445164256"><ele>525.0</ele><time>2026-04-26T09:42:34.998Z</time></trkpt><trkpt lat="43.20650733185876" lon="12.78650161019435"><ele>523.3333333333334</ele><time>2026-04-26T09:42:35.998Z</time></trkpt><trkpt lat="43.206363441901026" lon="12.786483746473237"><ele>521.6666666666667</ele><time>2026-04-26T09:42:36.998Z</time></trkpt><trkpt lat="43.20620677191439" lon="12.786467326498084"><ele>520.0</ele><time>2026-04-26T09:42:37.998Z</time></trkpt><trkpt lat="43.20604284548271" lon="12.786450973045126"><ele>520.0</ele><time>2026-04-26T09:42:38.998Z</time></trkpt><trkpt lat="43.20587087781229" lon="12.786432874713647"><ele>520.0</ele><time>2026-04-26T09:42:39.998Z</time></trkpt><trkpt lat="43.20569019619024" lon="12.786413897155667"><ele>520.0</ele><time>2026-04-26T09:42:40.998Z</time></trkpt><trkpt lat="43.20550426442049" lon="12.78639333477124"><ele>517.3333333333334</ele><time>2026-04-26T09:42:41.998Z</time></trkpt><trkpt lat="43.20531237563529" lon="12.786369850607736"><ele>514.6666666666666</ele><time>2026-04-26T09:42:42.998Z</time></trkpt><trkpt lat="43.20511461651846" lon="12.786346793022988"><ele>512.0</ele><time>2026-04-26T09:42:43.998Z</time></trkpt><trkpt lat="43.20491252064901" lon="12.78632279004366"><ele>510.0</ele><time>2026-04-26T09:42:44.998Z</time></trkpt><trkpt lat="43.2047071982695" lon="12.786299897791498"><ele>508.0</ele><time>2026-04-26T09:42:45.998Z</time></trkpt><trkpt lat="43.20449510652102" lon="12.78628399873801"><ele>506.0</ele><time>2026-04-26T09:42:46.998Z</time></trkpt><trkpt lat="43.204283692621736" lon="12.786266001921275"><ele>506.0</ele><time>2026-04-26T09:42:47.998Z</time></trkpt><trkpt lat="43.20407231117708" lon="12.786246092572283"><ele>506.0</ele><time>2026-04-26T09:42:48.998Z</time></trkpt><trkpt lat="43.20385842415512" lon="12.786221197479696"><ele>506.0</ele><time>2026-04-26T09:42:49.998Z</time></trkpt><trkpt lat="43.20364356462016" lon="12.78619985161596"><ele>504.66666666666663</ele><time>2026-04-26T09:42:50.998Z</time></trkpt><trkpt lat="43.20342949987542" lon="12.786178212649894"><ele>503.33333333333337</ele><time>2026-04-26T09:42:51.998Z</time></trkpt><trkpt lat="43.20322248245881" lon="12.786151692216182"><ele>502.0</ele><time>2026-04-26T09:42:52.998Z</time></trkpt><trkpt lat="43.2030165815249" lon="12.786123618957257"><ele>501.6666666666667</ele><time>2026-04-26T09:42:53.998Z</time></trkpt><trkpt lat="43.202811058550786" lon="12.786097920358454"><ele>501.33333333333337</ele><time>2026-04-26T09:42:54.998Z</time></trkpt><trkpt lat="43.20260528645964" lon="12.786075971076222"><ele>501.0</ele><time>2026-04-26T09:42:55.998Z</time></trkpt><trkpt lat="43.202400108284955" lon="12.786055677749172"><ele>501.33333333333337</ele><time>2026-04-26T09:42:56.998Z</time></trkpt><trkpt lat="43.20219684244433" lon="12.786035528512167"><ele>501.6666666666667</ele><time>2026-04-26T09:42:57.998Z</time></trkpt><trkpt lat="43.20199302735192" lon="12.786015591040446"><ele>502.0</ele><time>2026-04-26T09:42:58.998Z</time></trkpt><trkpt lat="43.201791437006854" lon="12.785993087364023"><ele>501.6666666666667</ele><time>2026-04-26T09:42:59.998Z</time></trkpt><trkpt lat="43.201590858779845" lon="12.785968686353959"><ele>501.33333333333337</ele><time>2026-04-26T09:43:00.998Z</time></trkpt><trkpt lat="43.20139096182997" lon="12.785945629338924"><ele>501.0</ele><time>2026-04-26T09:43:01.998Z</time></trkpt><trkpt lat="43.20119104258039" lon="12.785921029457196"><ele>501.0</ele><time>2026-04-26T09:43:02.998Z</time></trkpt><trkpt lat="43.20099211852722" lon="12.785894492022031"><ele>501.0</ele><time>2026-04-26T09:43:03.998Z</time></trkpt><trkpt lat="43.20079586086811" lon="12.785869535081405"><ele>501.0</ele><time>2026-04-26T09:43:04.998Z</time></trkpt><trkpt lat="43.20060010444225" lon="12.785842494449975"><ele>502.0</ele><time>2026-04-26T09:43:05.998Z</time></trkpt><trkpt lat="43.20040772337154" lon="12.785808710018093"><ele>503.0</ele><time>2026-04-26T09:43:06.998Z</time></trkpt><trkpt lat="43.20021681194315" lon="12.785775547511017"><ele>504.0</ele><time>2026-04-26T09:43:07.998Z</time></trkpt><trkpt lat="43.20002545206377" lon="12.78574819433267"><ele>504.0</ele><time>2026-04-26T09:43:08.998Z</time></trkpt><trkpt lat="43.19983611259744" lon="12.785721097426299"><ele>504.0</ele><time>2026-04-26T09:43:09.998Z</time></trkpt><trkpt lat="43.199648871722985" lon="12.785689502835739"><ele>504.0</ele><time>2026-04-26T09:43:11Z</time></trkpt><trkpt lat="43.199464020275" lon="12.785660137166447"><ele>505.33333333333337</ele><time>2026-04-26T09:43:12Z</time></trkpt><trkpt lat="43.19927818650709" lon="12.785633518031805"><ele>506.6666666666667</ele><time>2026-04-26T09:43:13Z</time></trkpt><trkpt lat="43.19909510328733" lon="12.785610071363426"><ele>508.0</ele><time>2026-04-26T09:43:14Z</time></trkpt><trkpt lat="43.198910383949574" lon="12.785585110227522"><ele>509.6666666666667</ele><time>2026-04-26T09:43:15Z</time></trkpt><trkpt lat="43.19872554115505" lon="12.78556255237169"><ele>511.33333333333337</ele><time>2026-04-26T09:43:16Z</time></trkpt><trkpt lat="43.198539705329374" lon="12.785542390494674"><ele>513.0</ele><time>2026-04-26T09:43:17Z</time></trkpt><trkpt lat="43.198347000973975" lon="12.78552530923478"><ele>514.3333333333334</ele><time>2026-04-26T09:43:18Z</time></trkpt><trkpt lat="43.19815613912989" lon="12.785507897646418"><ele>515.6666666666667</ele><time>2026-04-26T09:43:19Z</time></trkpt><trkpt lat="43.19796280422047" lon="12.785487910142159"><ele>517.0</ele><time>2026-04-26T09:43:20Z</time></trkpt><trkpt lat="43.1977645980107" lon="12.785466468559365"><ele>517.0</ele><time>2026-04-26T09:43:21Z</time></trkpt><trkpt lat="43.19756622593384" lon="12.785443993520577"><ele>517.0</ele><time>2026-04-26T09:43:22Z</time></trkpt><trkpt lat="43.19736285301355" lon="12.78542227375975"><ele>517.0</ele><time>2026-04-26T09:43:23Z</time></trkpt><trkpt lat="43.19715687501828" lon="12.78539987672938"><ele>516.6666666666667</ele><time>2026-04-26T09:43:24Z</time></trkpt><trkpt lat="43.1969485944963" lon="12.785377944075561"><ele>516.3333333333334</ele><time>2026-04-26T09:43:25Z</time></trkpt><trkpt lat="43.19673784102391" lon="12.785359174148773"><ele>516.0</ele><time>2026-04-26T09:43:26Z</time></trkpt><trkpt lat="43.196524269416024" lon="12.785339331912537"><ele>516.6666666666666</ele><time>2026-04-26T09:43:27Z</time></trkpt><trkpt lat="43.196315322720736" lon="12.785315949600223"><ele>517.3333333333333</ele><time>2026-04-26T09:43:28Z</time></trkpt><trkpt lat="43.196112271293956" lon="12.785289468356261"><ele>518.0</ele><time>2026-04-26T09:43:29Z</time></trkpt><trkpt lat="43.195912977224296" lon="12.785263527134761"><ele>518.0</ele><time>2026-04-26T09:43:30Z</time></trkpt><trkpt lat="43.195714827149" lon="12.785235717249863"><ele>518.0</ele><time>2026-04-26T09:43:31Z</time></trkpt><trkpt lat="43.19551632251066" lon="12.785211958987018"><ele>518.0</ele><time>2026-04-26T09:43:32Z</time></trkpt><trkpt lat="43.19531541147413" lon="12.785185867057185"><ele>517.3333333333333</ele><time>2026-04-26T09:43:33Z</time></trkpt><trkpt lat="43.19511574992281" lon="12.785156657135305"><ele>516.6666666666666</ele><time>2026-04-26T09:43:34Z</time></trkpt><trkpt lat="43.19491424682552" lon="12.7851303987881"><ele>516.0</ele><time>2026-04-26T09:43:35Z</time></trkpt><trkpt lat="43.19471210626315" lon="12.785106688754146"><ele>516.0</ele><time>2026-04-26T09:43:36Z</time></trkpt><trkpt lat="43.194509177650296" lon="12.785082867822876"><ele>516.0</ele><time>2026-04-26T09:43:37Z</time></trkpt><trkpt lat="43.194303367344055" lon="12.78505795605018"><ele>516.0</ele><time>2026-04-26T09:43:38Z</time></trkpt><trkpt lat="43.19409961488977" lon="12.78503366249015"><ele>515.3333333333334</ele><time>2026-04-26T09:43:39Z</time></trkpt><trkpt lat="43.19388914070715" lon="12.785017145648704"><ele>514.6666666666667</ele><time>2026-04-26T09:43:40Z</time></trkpt><trkpt lat="43.1936804706775" lon="12.785002115570022"><ele>514.0</ele><time>2026-04-26T09:43:41Z</time></trkpt><trkpt lat="43.19346717041842" lon="12.78499317637626"><ele>514.0</ele><time>2026-04-26T09:43:42Z</time></trkpt><trkpt lat="43.193253545554185" lon="12.784990657719423"><ele>514.0</ele><time>2026-04-26T09:43:43Z</time></trkpt><trkpt lat="43.1930384333411" lon="12.784992229258698"><ele>514.0</ele><time>2026-04-26T09:43:44Z</time></trkpt><trkpt lat="43.192824823870424" lon="12.78499796403182"><ele>514.0</ele><time>2026-04-26T09:43:45Z</time></trkpt><trkpt lat="43.19262386256667" lon="12.784997945548808"><ele>514.0</ele><time>2026-04-26T09:43:46Z</time></trkpt><trkpt lat="43.1924310900462" lon="12.784994780296135"><ele>514.0</ele><time>2026-04-26T09:43:47Z</time></trkpt><trkpt lat="43.192252109141656" lon="12.784989727634652"><ele>513.0</ele><time>2026-04-26T09:43:47.999Z</time></trkpt><trkpt lat="43.19208070917263" lon="12.784986731694492"><ele>512.0</ele><time>2026-04-26T09:43:48.999Z</time></trkpt><trkpt lat="43.191920266754174" lon="12.784985395610121"><ele>511.0</ele><time>2026-04-26T09:43:49.999Z</time></trkpt><trkpt lat="43.191762089759244" lon="12.784984594000216"><ele>511.0</ele><time>2026-04-26T09:43:50.999Z</time></trkpt><trkpt lat="43.1915984838743" lon="12.78498220545272"><ele>511.0</ele><time>2026-04-26T09:43:51.999Z</time></trkpt><trkpt lat="43.19144005396274" lon="12.784978563888357"><ele>511.0</ele><time>2026-04-26T09:43:52.999Z</time></trkpt><trkpt lat="43.19128547733767" lon="12.784976928241559"><ele>510.0</ele><time>2026-04-26T09:43:53.999Z</time></trkpt><trkpt lat="43.19113081081734" lon="12.784979460104061"><ele>509.0</ele><time>2026-04-26T09:43:54.999Z</time></trkpt><trkpt lat="43.190971074839965" lon="12.784979543146715"><ele>508.0</ele><time>2026-04-26T09:43:55.999Z</time></trkpt><trkpt lat="43.19081461149314" lon="12.784977479194813"><ele>507.5</ele><time>2026-04-26T09:43:56.999Z</time></trkpt><trkpt lat="43.19066441239704" lon="12.784975073327647"><ele>507.0</ele><time>2026-04-26T09:43:57.999Z</time></trkpt><trkpt lat="43.19052415462522" lon="12.78497513805179"><ele>506.5</ele><time>2026-04-26T09:43:58.999Z</time></trkpt><trkpt lat="43.19038353871656" lon="12.784975235692569"><ele>506.0</ele><time>2026-04-26T09:43:59.999Z</time></trkpt><trkpt lat="43.19024587313489" lon="12.784974957754358"><ele>506.0</ele><time>2026-04-26T09:44:00.999Z</time></trkpt><trkpt lat="43.19010454709721" lon="12.78497732120185"><ele>506.0</ele><time>2026-04-26T09:44:01.999Z</time></trkpt><trkpt lat="43.18996094295692" lon="12.784978332476683"><ele>506.0</ele><time>2026-04-26T09:44:02.999Z</time></trkpt><trkpt lat="43.1898143481218" lon="12.784977900680621"><ele>506.0</ele><time>2026-04-26T09:44:03.999Z</time></trkpt><trkpt lat="43.189662364353396" lon="12.784978206530015"><ele>505.0</ele><time>2026-04-26T09:44:04.999Z</time></trkpt><trkpt lat="43.18951139282146" lon="12.78497852085068"><ele>504.0</ele><time>2026-04-26T09:44:05.999Z</time></trkpt><trkpt lat="43.1893617807219" lon="12.784981630805422"><ele>503.0</ele><time>2026-04-26T09:44:06.999Z</time></trkpt><trkpt lat="43.189217386499394" lon="12.784986611101298"><ele>502.0</ele><time>2026-04-26T09:44:07.999Z</time></trkpt><trkpt lat="43.18907224287072" lon="12.78499280393268"><ele>501.33333333333337</ele><time>2026-04-26T09:44:08.999Z</time></trkpt><trkpt lat="43.18891938557757" lon="12.784996901154235"><ele>500.66666666666663</ele><time>2026-04-26T09:44:09.999Z</time></trkpt><trkpt lat="43.18876766024275" lon="12.78499200357942"><ele>500.0</ele><time>2026-04-26T09:44:10.999Z</time></trkpt><trkpt lat="43.18860966704973" lon="12.784981614587322"><ele>500.0</ele><time>2026-04-26T09:44:11.999Z</time></trkpt><trkpt lat="43.18845122206829" lon="12.78496685869295"><ele>500.0</ele><time>2026-04-26T09:44:12.999Z</time></trkpt><trkpt lat="43.18828329245055" lon="12.78495262580862"><ele>500.0</ele><time>2026-04-26T09:44:13.999Z</time></trkpt><trkpt lat="43.18810338595239" lon="12.784938563167989"><ele>498.66666666666663</ele><time>2026-04-26T09:44:14.999Z</time></trkpt><trkpt lat="43.18790412905632" lon="12.784900238761962"><ele>497.33333333333337</ele><time>2026-04-26T09:44:15.999Z</time></trkpt><trkpt lat="43.187683759956656" lon="12.784876977010812"><ele>496.0</ele><time>2026-04-26T09:44:16.999Z</time></trkpt><trkpt lat="43.18745892346909" lon="12.784864318281347"><ele>495.5</ele><time>2026-04-26T09:44:17.999Z</time></trkpt><trkpt lat="43.18722857317288" lon="12.784863286372921"><ele>495.0</ele><time>2026-04-26T09:44:18.999Z</time></trkpt><trkpt lat="43.18699383362824" lon="12.784863708030432"><ele>495.0</ele><time>2026-04-26T09:44:19.999Z</time></trkpt><trkpt lat="43.18675341850482" lon="12.784864139882195"><ele>495.0</ele><time>2026-04-26T09:44:20.999Z</time></trkpt><trkpt lat="43.18651008028083" lon="12.784864576984718"><ele>494.5</ele><time>2026-04-26T09:44:21.999Z</time></trkpt><trkpt lat="43.186262417022355" lon="12.784876697406931"><ele>494.0</ele><time>2026-04-26T09:44:22.999Z</time></trkpt><trkpt lat="43.18601722456986" lon="12.784863872116997"><ele>494.0</ele><time>2026-04-26T09:44:23.999Z</time></trkpt><trkpt lat="43.18577090778347" lon="12.784859936907777"><ele>494.0</ele><time>2026-04-26T09:44:24.999Z</time></trkpt><trkpt lat="43.1855236685668" lon="12.784862915238026"><ele>491.0</ele><time>2026-04-26T09:44:25.999Z</time></trkpt><trkpt lat="43.18527649921301" lon="12.784865984676708"><ele>488.0</ele><time>2026-04-26T09:44:26.999Z</time></trkpt><trkpt lat="43.18502777642266" lon="12.784867329577995"><ele>488.5</ele><time>2026-04-26T09:44:27.999Z</time></trkpt><trkpt lat="43.18477829880509" lon="12.784868635634554"><ele>489.0</ele><time>2026-04-26T09:44:28.999Z</time></trkpt><trkpt lat="43.184526574218644" lon="12.784870445461934"><ele>489.0</ele><time>2026-04-26T09:44:29.999Z</time></trkpt><trkpt lat="43.18427590207665" lon="12.784872922671525"><ele>489.0</ele><time>2026-04-26T09:44:30.999Z</time></trkpt><trkpt lat="43.18403370218553" lon="12.784878014627623"><ele>488.0</ele><time>2026-04-26T09:44:31.999Z</time></trkpt><trkpt lat="43.183803382943445" lon="12.784884723378822"><ele>487.0</ele><time>2026-04-26T09:44:32.999Z</time></trkpt><trkpt lat="43.18358617942646" lon="12.784891824313187"><ele>486.0</ele><time>2026-04-26T09:44:33.999Z</time></trkpt><trkpt lat="43.18338070900119" lon="12.7848959257912"><ele>486.0</ele><time>2026-04-26T09:44:34.998Z</time></trkpt><trkpt lat="43.18318622658007" lon="12.784898061881565"><ele>486.0</ele><time>2026-04-26T09:44:35.998Z</time></trkpt><trkpt lat="43.1829978315281" lon="12.784899527195014"><ele>486.0</ele><time>2026-04-26T09:44:36.998Z</time></trkpt><trkpt lat="43.18280892821035" lon="12.784899390917214"><ele>486.0</ele><time>2026-04-26T09:44:37.998Z</time></trkpt><trkpt lat="43.182618014359356" lon="12.78489813152726"><ele>486.0</ele><time>2026-04-26T09:44:38.998Z</time></trkpt><trkpt lat="43.182425600400016" lon="12.784895923826943"><ele>486.0</ele><time>2026-04-26T09:44:39.998Z</time></trkpt><trkpt lat="43.18223122930197" lon="12.784900429013708"><ele>486.0</ele><time>2026-04-26T09:44:40.998Z</time></trkpt><trkpt lat="43.182034838307274" lon="12.784902579594736"><ele>486.0</ele><time>2026-04-26T09:44:41.998Z</time></trkpt><trkpt lat="43.18183303270312" lon="12.784902023499"><ele>486.0</ele><time>2026-04-26T09:44:42.998Z</time></trkpt><trkpt lat="43.181629666402294" lon="12.784900465142673"><ele>484.66666666666663</ele><time>2026-04-26T09:44:43.998Z</time></trkpt><trkpt lat="43.181423572987896" lon="12.784897695222178"><ele>483.3333333333333</ele><time>2026-04-26T09:44:44.998Z</time></trkpt><trkpt lat="43.18121310880254" lon="12.78489467296964"><ele>482.0</ele><time>2026-04-26T09:44:45.998Z</time></trkpt><trkpt lat="43.18099626740694" lon="12.784890876685404"><ele>482.0</ele><time>2026-04-26T09:44:46.998Z</time></trkpt><trkpt lat="43.180779779022835" lon="12.784889521360807"><ele>482.0</ele><time>2026-04-26T09:44:47.998Z</time></trkpt><trkpt lat="43.180560927837305" lon="12.784890762094733"><ele>482.0</ele><time>2026-04-26T09:44:48.998Z</time></trkpt><trkpt lat="43.180340456486846" lon="12.78489228274134"><ele>481.66666666666663</ele><time>2026-04-26T09:44:49.998Z</time></trkpt><trkpt lat="43.180118448512125" lon="12.784890479739044"><ele>481.33333333333337</ele><time>2026-04-26T09:44:50.998Z</time></trkpt><trkpt lat="43.179896867980176" lon="12.784887468892018"><ele>481.0</ele><time>2026-04-26T09:44:51.998Z</time></trkpt><trkpt lat="43.17967104155061" lon="12.784884947760071"><ele>480.0</ele><time>2026-04-26T09:44:52.998Z</time></trkpt><trkpt lat="43.1794456633607" lon="12.784883618978792"><ele>479.0</ele><time>2026-04-26T09:44:53.998Z</time></trkpt><trkpt lat="43.1792209359894" lon="12.784884445009364"><ele>479.5</ele><time>2026-04-26T09:44:54.998Z</time></trkpt><trkpt lat="43.17899520596449" lon="12.784884680101536"><ele>480.0</ele><time>2026-04-26T09:44:55.998Z</time></trkpt><trkpt lat="43.17877011961352" lon="12.784883233965251"><ele>480.0</ele><time>2026-04-26T09:44:56.998Z</time></trkpt><trkpt lat="43.17854588176795" lon="12.784876589328277"><ele>480.0</ele><time>2026-04-26T09:44:57.998Z</time></trkpt><trkpt lat="43.178333027271535" lon="12.784873726443246"><ele>480.0</ele><time>2026-04-26T09:44:58.998Z</time></trkpt><trkpt lat="43.17813382160401" lon="12.784870639952702"><ele>480.0</ele><time>2026-04-26T09:44:59.998Z</time></trkpt><trkpt lat="43.17794482894337" lon="12.784864977152731"><ele>480.0</ele><time>2026-04-26T09:45:00.998Z</time></trkpt><trkpt lat="43.177758446309184" lon="12.784860522178233"><ele>480.0</ele><time>2026-04-26T09:45:01.998Z</time></trkpt><trkpt lat="43.17757387898966" lon="12.784855514467356"><ele>480.0</ele><time>2026-04-26T09:45:02.998Z</time></trkpt><trkpt lat="43.17739279205986" lon="12.784846485051474"><ele>480.0</ele><time>2026-04-26T09:45:03.998Z</time></trkpt><trkpt lat="43.17721469878069" lon="12.784823532074277"><ele>480.0</ele><time>2026-04-26T09:45:04.998Z</time></trkpt><trkpt lat="43.177040910434144" lon="12.784776994140973"><ele>481.66666666666663</ele><time>2026-04-26T09:45:05.998Z</time></trkpt><trkpt lat="43.17687414335918" lon="12.784708539919304"><ele>483.3333333333333</ele><time>2026-04-26T09:45:06.998Z</time></trkpt><trkpt lat="43.17671342857371" lon="12.784646316201416"><ele>485.0</ele><time>2026-04-26T09:45:07.998Z</time></trkpt><trkpt lat="43.17655311545441" lon="12.784587767197216"><ele>485.0</ele><time>2026-04-26T09:45:08.998Z</time></trkpt><trkpt lat="43.176402454980376" lon="12.78454057338298"><ele>485.0</ele><time>2026-04-26T09:45:09.998Z</time></trkpt><trkpt lat="43.176261692867705" lon="12.784514689908274"><ele>485.0</ele><time>2026-04-26T09:45:10.998Z</time></trkpt><trkpt lat="43.1761216742401" lon="12.78451179552132"><ele>485.0</ele><time>2026-04-26T09:45:11.998Z</time></trkpt><trkpt lat="43.17597666910477" lon="12.784541121753895"><ele>485.0</ele><time>2026-04-26T09:45:12.998Z</time></trkpt><trkpt lat="43.17582631138867" lon="12.784584524333882"><ele>485.0</ele><time>2026-04-26T09:45:13.998Z</time></trkpt><trkpt lat="43.17567373321314" lon="12.7846220321569"><ele>485.0</ele><time>2026-04-26T09:45:14.998Z</time></trkpt><trkpt lat="43.17551890093162" lon="12.784651711037059"><ele>484.3333333333333</ele><time>2026-04-26T09:45:16Z</time></trkpt><trkpt lat="43.1753615566822" lon="12.784686350555146"><ele>483.66666666666663</ele><time>2026-04-26T09:45:17Z</time></trkpt><trkpt lat="43.175210015215185" lon="12.784757838162694"><ele>483.0</ele><time>2026-04-26T09:45:18Z</time></trkpt><trkpt lat="43.17507856079269" lon="12.78489639932925"><ele>483.0</ele><time>2026-04-26T09:45:19Z</time></trkpt><trkpt lat="43.174961478912174" lon="12.78505583655235"><ele>483.0</ele><time>2026-04-26T09:45:20Z</time></trkpt><trkpt lat="43.17485433869238" lon="12.78524038829321"><ele>483.0</ele><time>2026-04-26T09:45:21Z</time></trkpt><trkpt lat="43.17475240103354" lon="12.785426842348695"><ele>483.33333333333337</ele><time>2026-04-26T09:45:22Z</time></trkpt><trkpt lat="43.174644524978135" lon="12.785617230473894"><ele>483.6666666666667</ele><time>2026-04-26T09:45:23Z</time></trkpt><trkpt lat="43.174534201481585" lon="12.785794353069932"><ele>484.0</ele><time>2026-04-26T09:45:24Z</time></trkpt><trkpt lat="43.1744173235468" lon="12.78594594633851"><ele>484.6666666666667</ele><time>2026-04-26T09:45:25Z</time></trkpt><trkpt lat="43.17428410234677" lon="12.786060644101914"><ele>485.33333333333337</ele><time>2026-04-26T09:45:26Z</time></trkpt><trkpt lat="43.174132686125915" lon="12.786141383769944"><ele>486.0</ele><time>2026-04-26T09:45:27Z</time></trkpt><trkpt lat="43.17397777570764" lon="12.786207255332073"><ele>486.0</ele><time>2026-04-26T09:45:28Z</time></trkpt><trkpt lat="43.173821414241665" lon="12.786282772680973"><ele>486.0</ele><time>2026-04-26T09:45:29Z</time></trkpt><trkpt lat="43.1736639569528" lon="12.786364954589772"><ele>486.0</ele><time>2026-04-26T09:45:30Z</time></trkpt><trkpt lat="43.17349927719153" lon="12.786445398631503"><ele>486.0</ele><time>2026-04-26T09:45:31Z</time></trkpt><trkpt lat="43.17333233665052" lon="12.786528573025311"><ele>486.0</ele><time>2026-04-26T09:45:32Z</time></trkpt><trkpt lat="43.17316059131663" lon="12.786611256002791"><ele>486.0</ele><time>2026-04-26T09:45:33Z</time></trkpt><trkpt lat="43.17298935427646" lon="12.786692338084393"><ele>486.0</ele><time>2026-04-26T09:45:34Z</time></trkpt><trkpt lat="43.172819227630896" lon="12.786779354591026"><ele>486.0</ele><time>2026-04-26T09:45:35Z</time></trkpt><trkpt lat="43.17264867083553" lon="12.786868975454828"><ele>486.0</ele><time>2026-04-26T09:45:36Z</time></trkpt><trkpt lat="43.172479397311" lon="12.786956431539869"><ele>486.33333333333337</ele><time>2026-04-26T09:45:37Z</time></trkpt><trkpt lat="43.172307900391104" lon="12.787046163637788"><ele>486.6666666666667</ele><time>2026-04-26T09:45:38Z</time></trkpt><trkpt lat="43.17213399095274" lon="12.787134602007807"><ele>487.0</ele><time>2026-04-26T09:45:39Z</time></trkpt><trkpt lat="43.1719591513613" lon="12.787222109382265"><ele>487.0</ele><time>2026-04-26T09:45:40Z</time></trkpt><trkpt lat="43.17178329624736" lon="12.78730705247901"><ele>487.0</ele><time>2026-04-26T09:45:41Z</time></trkpt><trkpt lat="43.17160569436377" lon="12.787395697098203"><ele>487.0</ele><time>2026-04-26T09:45:42Z</time></trkpt><trkpt lat="43.17142882644208" lon="12.78748686874782"><ele>486.6666666666667</ele><time>2026-04-26T09:45:43Z</time></trkpt><trkpt lat="43.17125324629213" lon="12.787577614321002"><ele>486.33333333333337</ele><time>2026-04-26T09:45:44Z</time></trkpt><trkpt lat="43.17107218374132" lon="12.787665778101827"><ele>486.0</ele><time>2026-04-26T09:45:45Z</time></trkpt><trkpt lat="43.170888153351996" lon="12.787755866119591"><ele>486.0</ele><time>2026-04-26T09:45:46Z</time></trkpt><trkpt lat="43.17070163705351" lon="12.787844600679103"><ele>486.0</ele><time>2026-04-26T09:45:47Z</time></trkpt><trkpt lat="43.17051256109831" lon="12.787934333859683"><ele>486.0</ele><time>2026-04-26T09:45:48Z</time></trkpt><trkpt lat="43.17032378040822" lon="12.788026800802758"><ele>485.0</ele><time>2026-04-26T09:45:48.999Z</time></trkpt><trkpt lat="43.17013621698897" lon="12.788126813686565"><ele>484.0</ele><time>2026-04-26T09:45:49.999Z</time></trkpt><trkpt lat="43.16994627903936" lon="12.788227539906373"><ele>483.0</ele><time>2026-04-26T09:45:50.999Z</time></trkpt><trkpt lat="43.16975104757713" lon="12.788328846411023"><ele>483.33333333333337</ele><time>2026-04-26T09:45:51.999Z</time></trkpt><trkpt lat="43.16955067589532" lon="12.788427813955767"><ele>483.6666666666667</ele><time>2026-04-26T09:45:52.999Z</time></trkpt><trkpt lat="43.16934824833643" lon="12.788526726683912"><ele>484.0</ele><time>2026-04-26T09:45:53.999Z</time></trkpt><trkpt lat="43.16914735932857" lon="12.788627086914353"><ele>483.0</ele><time>2026-04-26T09:45:54.999Z</time></trkpt><trkpt lat="43.16894627930372" lon="12.788725002294788"><ele>482.0</ele><time>2026-04-26T09:45:55.999Z</time></trkpt><trkpt lat="43.16874524339586" lon="12.788824298047112"><ele>481.0</ele><time>2026-04-26T09:45:56.999Z</time></trkpt><trkpt lat="43.16854259942122" lon="12.788927479387178"><ele>481.0</ele><time>2026-04-26T09:45:57.999Z</time></trkpt><trkpt lat="43.16833787318931" lon="12.789033432372094"><ele>481.0</ele><time>2026-04-26T09:45:58.999Z</time></trkpt><trkpt lat="43.168132703892105" lon="12.789139680022831"><ele>481.0</ele><time>2026-04-26T09:45:59.999Z</time></trkpt><trkpt lat="43.16792854381228" lon="12.789245782690365"><ele>482.33333333333337</ele><time>2026-04-26T09:46:00.999Z</time></trkpt><trkpt lat="43.16773597806575" lon="12.789343708679047"><ele>483.66666666666663</ele><time>2026-04-26T09:46:01.999Z</time></trkpt><trkpt lat="43.16755243922687" lon="12.78943493379773"><ele>485.0</ele><time>2026-04-26T09:46:02.999Z</time></trkpt><trkpt lat="43.16737249182263" lon="12.78952200162494"><ele>485.66666666666663</ele><time>2026-04-26T09:46:03.999Z</time></trkpt><trkpt lat="43.16719502307619" lon="12.789607959772457"><ele>486.33333333333337</ele><time>2026-04-26T09:46:04.999Z</time></trkpt><trkpt lat="43.167018479668045" lon="12.789691923801515"><ele>487.0</ele><time>2026-04-26T09:46:05.999Z</time></trkpt><trkpt lat="43.16684080987984" lon="12.789779169870725"><ele>487.0</ele><time>2026-04-26T09:46:06.999Z</time></trkpt><trkpt lat="43.16666647716672" lon="12.789865078328933"><ele>487.0</ele><time>2026-04-26T09:46:07.999Z</time></trkpt><trkpt lat="43.16649523572063" lon="12.78994927979624"><ele>487.0</ele><time>2026-04-26T09:46:08.999Z</time></trkpt><trkpt lat="43.16632453132006" lon="12.790033310470838"><ele>487.33333333333337</ele><time>2026-04-26T09:46:09.999Z</time></trkpt><trkpt lat="43.166156159535504" lon="12.790120688107038"><ele>487.66666666666663</ele><time>2026-04-26T09:46:10.999Z</time></trkpt><trkpt lat="43.165986701319035" lon="12.790211585518813"><ele>488.0</ele><time>2026-04-26T09:46:11.999Z</time></trkpt><trkpt lat="43.16581381994809" lon="12.790299148360178"><ele>489.0</ele><time>2026-04-26T09:46:12.999Z</time></trkpt><trkpt lat="43.16564073804768" lon="12.79038264196076"><ele>490.0</ele><time>2026-04-26T09:46:13.999Z</time></trkpt><trkpt lat="43.165467204910506" lon="12.79047235921403"><ele>491.0</ele><time>2026-04-26T09:46:14.999Z</time></trkpt><trkpt lat="43.16529318692068" lon="12.790561527227439"><ele>491.0</ele><time>2026-04-26T09:46:15.999Z</time></trkpt><trkpt lat="43.16511880591839" lon="12.790649975946964"><ele>491.0</ele><time>2026-04-26T09:46:16.999Z</time></trkpt><trkpt lat="43.164939418872294" lon="12.790742631763862"><ele>491.0</ele><time>2026-04-26T09:46:17.999Z</time></trkpt><trkpt lat="43.164756912256266" lon="12.790834224055843"><ele>491.0</ele><time>2026-04-26T09:46:18.999Z</time></trkpt><trkpt lat="43.16457124625578" lon="12.790925270394734"><ele>491.0</ele><time>2026-04-26T09:46:19.999Z</time></trkpt><trkpt lat="43.16438104256551" lon="12.791019935449421"><ele>491.0</ele><time>2026-04-26T09:46:20.999Z</time></trkpt><trkpt lat="43.164188338337674" lon="12.791118128699994"><ele>491.0</ele><time>2026-04-26T09:46:21.999Z</time></trkpt><trkpt lat="43.16399118559745" lon="12.791221737021985"><ele>491.0</ele><time>2026-04-26T09:46:22.999Z</time></trkpt><trkpt lat="43.163787625720296" lon="12.791324414230651"><ele>491.0</ele><time>2026-04-26T09:46:23.999Z</time></trkpt><trkpt lat="43.16358089626529" lon="12.791427161881774"><ele>491.0</ele><time>2026-04-26T09:46:24.999Z</time></trkpt><trkpt lat="43.163373540492884" lon="12.79153466481146"><ele>491.0</ele><time>2026-04-26T09:46:25.999Z</time></trkpt><trkpt lat="43.16316347982605" lon="12.791643471237432"><ele>491.0</ele><time>2026-04-26T09:46:26.999Z</time></trkpt><trkpt lat="43.16295162747993" lon="12.791754080593968"><ele>493.0</ele><time>2026-04-26T09:46:27.999Z</time></trkpt><trkpt lat="43.16273960203978" lon="12.791878175221855"><ele>495.0</ele><time>2026-04-26T09:46:28.999Z</time></trkpt><trkpt lat="43.16252871455618" lon="12.792016776936933"><ele>492.0</ele><time>2026-04-26T09:46:29.999Z</time></trkpt><trkpt lat="43.16231665372644" lon="12.792159297283847"><ele>489.0</ele><time>2026-04-26T09:46:30.999Z</time></trkpt><trkpt lat="43.16209838700388" lon="12.792309155509246"><ele>489.0</ele><time>2026-04-26T09:46:31.999Z</time></trkpt><trkpt lat="43.161868539044725" lon="12.792463385948192"><ele>489.0</ele><time>2026-04-26T09:46:32.999Z</time></trkpt><trkpt lat="43.16163397349183" lon="12.792622158465381"><ele>489.0</ele><time>2026-04-26T09:46:33.999Z</time></trkpt><trkpt lat="43.16139447150617" lon="12.792786099337901"><ele>489.0</ele><time>2026-04-26T09:46:34.999Z</time></trkpt><trkpt lat="43.16115371486447" lon="12.792950502380009"><ele>489.0</ele><time>2026-04-26T09:46:35.998Z</time></trkpt><trkpt lat="43.16098799518946" lon="12.793059462079679"><ele>489.0</ele><time>2026-04-26T09:46:36.998Z</time></trkpt><trkpt lat="43.160764550460605" lon="12.793212547995601"><ele>489.0</ele><time>2026-04-26T09:46:37.998Z</time></trkpt><trkpt lat="43.16053596237667" lon="12.793369727926072"><ele>491.0</ele><time>2026-04-26T09:46:38.998Z</time></trkpt><trkpt lat="43.160305591649326" lon="12.793519612760342"><ele>493.0</ele><time>2026-04-26T09:46:39.998Z</time></trkpt><trkpt lat="43.160082124404255" lon="12.793664044372145"><ele>494.0</ele><time>2026-04-26T09:46:40.998Z</time></trkpt><trkpt lat="43.15986357330528" lon="12.793814252524895"><ele>495.0</ele><time>2026-04-26T09:46:41.998Z</time></trkpt><trkpt lat="43.15966119281067" lon="12.793949439665338"><ele>495.0</ele><time>2026-04-26T09:46:42.998Z</time></trkpt><trkpt lat="43.15947480024349" lon="12.794072913578264"><ele>495.0</ele><time>2026-04-26T09:46:43.998Z</time></trkpt><trkpt lat="43.159301176705135" lon="12.794185878752701"><ele>495.0</ele><time>2026-04-26T09:46:44.998Z</time></trkpt><trkpt lat="43.159138761766904" lon="12.794296612007038"><ele>495.33333333333337</ele><time>2026-04-26T09:46:45.998Z</time></trkpt><trkpt lat="43.15898463677609" lon="12.794399929003744"><ele>495.6666666666667</ele><time>2026-04-26T09:46:46.998Z</time></trkpt><trkpt lat="43.1588300298103" lon="12.794497794409038"><ele>496.0</ele><time>2026-04-26T09:46:47.998Z</time></trkpt><trkpt lat="43.15866257720376" lon="12.794582120028815"><ele>496.0</ele><time>2026-04-26T09:46:48.998Z</time></trkpt><trkpt lat="43.15849182037041" lon="12.794649727015331"><ele>496.0</ele><time>2026-04-26T09:46:49.998Z</time></trkpt><trkpt lat="43.15831232073763" lon="12.79469816280925"><ele>496.0</ele><time>2026-04-26T09:46:50.998Z</time></trkpt><trkpt lat="43.15812815107163" lon="12.794750354242176"><ele>495.0</ele><time>2026-04-26T09:46:51.998Z</time></trkpt><trkpt lat="43.157954176920605" lon="12.794798422418133"><ele>494.0</ele><time>2026-04-26T09:46:52.998Z</time></trkpt><trkpt lat="43.157777045024886" lon="12.794848468370034"><ele>493.0</ele><time>2026-04-26T09:46:53.998Z</time></trkpt><trkpt lat="43.15759803853943" lon="12.79491089323937"><ele>493.0</ele><time>2026-04-26T09:46:54.998Z</time></trkpt><trkpt lat="43.15741774562549" lon="12.794966492696583"><ele>493.0</ele><time>2026-04-26T09:46:55.998Z</time></trkpt><trkpt lat="43.15723402400107" lon="12.795017514328544"><ele>493.0</ele><time>2026-04-26T09:46:56.998Z</time></trkpt><trkpt lat="43.15705228522103" lon="12.795059091179525"><ele>492.6666666666667</ele><time>2026-04-26T09:46:57.998Z</time></trkpt><trkpt lat="43.156854627831265" lon="12.795101638342775"><ele>492.33333333333337</ele><time>2026-04-26T09:46:58.998Z</time></trkpt><trkpt lat="43.15665864786841" lon="12.795147418222436"><ele>492.0</ele><time>2026-04-26T09:46:59.998Z</time></trkpt><trkpt lat="43.156460779519435" lon="12.795197990701391"><ele>493.66666666666663</ele><time>2026-04-26T09:47:00.998Z</time></trkpt><trkpt lat="43.15626448903893" lon="12.795255723281532"><ele>495.3333333333333</ele><time>2026-04-26T09:47:01.998Z</time></trkpt><trkpt lat="43.15605932920995" lon="12.79532021847736"><ele>497.0</ele><time>2026-04-26T09:47:02.998Z</time></trkpt><trkpt lat="43.15585126493218" lon="12.795390189969165"><ele>495.0</ele><time>2026-04-26T09:47:03.998Z</time></trkpt><trkpt lat="43.15564158629986" lon="12.795463119326117"><ele>493.0</ele><time>2026-04-26T09:47:04.998Z</time></trkpt><trkpt lat="43.15542537879573" lon="12.79553934131448"><ele>491.0</ele><time>2026-04-26T09:47:05.998Z</time></trkpt><trkpt lat="43.155205144726125" lon="12.79560989384764"><ele>491.0</ele><time>2026-04-26T09:47:06.998Z</time></trkpt><trkpt lat="43.154980785681545" lon="12.795676659464005"><ele>491.0</ele><time>2026-04-26T09:47:07.998Z</time></trkpt><trkpt lat="43.154758070247496" lon="12.795730765412744"><ele>493.0</ele><time>2026-04-26T09:47:08.998Z</time></trkpt><trkpt lat="43.154534160843106" lon="12.795777993552793"><ele>495.0</ele><time>2026-04-26T09:47:09.998Z</time></trkpt><trkpt lat="43.154308743457435" lon="12.795810261674426"><ele>495.0</ele><time>2026-04-26T09:47:10.998Z</time></trkpt><trkpt lat="43.15408437821076" lon="12.795831845749051"><ele>495.0</ele><time>2026-04-26T09:47:11.998Z</time></trkpt><trkpt lat="43.153863382050716" lon="12.795836285667106"><ele>495.0</ele><time>2026-04-26T09:47:12.998Z</time></trkpt><trkpt lat="43.153649219146374" lon="12.795817767076098"><ele>498.33333333333337</ele><time>2026-04-26T09:47:13.998Z</time></trkpt><trkpt lat="43.15344418587387" lon="12.79578589911061"><ele>501.6666666666667</ele><time>2026-04-26T09:47:14.998Z</time></trkpt><trkpt lat="43.15324103038161" lon="12.795763033218055"><ele>505.0</ele><time>2026-04-26T09:47:15.998Z</time></trkpt><trkpt lat="43.15304209201368" lon="12.795749507332523"><ele>508.0</ele><time>2026-04-26T09:47:16.998Z</time></trkpt><trkpt lat="43.15284539642191" lon="12.795746865643267"><ele>511.0</ele><time>2026-04-26T09:47:17.998Z</time></trkpt><trkpt lat="43.1526625580259" lon="12.79574869797559"><ele>514.0</ele><time>2026-04-26T09:47:18.998Z</time></trkpt><trkpt lat="43.15250092688087" lon="12.795760862142807"><ele>512.4</ele><time>2026-04-26T09:47:19.998Z</time></trkpt><trkpt lat="43.15235263733286" lon="12.79577638136778"><ele>510.79999999999995</ele><time>2026-04-26T09:47:20.998Z</time></trkpt><trkpt lat="43.15222681175063" lon="12.795796767155933"><ele>509.20000000000005</ele><time>2026-04-26T09:47:22Z</time></trkpt><trkpt lat="43.15213585310242" lon="12.795821944546704"><ele>507.6</ele><time>2026-04-26T09:47:23Z</time></trkpt><trkpt lat="43.1520667905397" lon="12.795840865051929"><ele>506.0</ele><time>2026-04-26T09:47:24Z</time></trkpt><trkpt lat="43.15198939728693" lon="12.795867091064803"><ele>506.0</ele><time>2026-04-26T09:47:25Z</time></trkpt><trkpt lat="43.1519091961234" lon="12.795905547450124"><ele>506.0</ele><time>2026-04-26T09:47:26Z</time></trkpt><trkpt lat="43.151826613787485" lon="12.7959560750708"><ele>506.0</ele><time>2026-04-26T09:47:27Z</time></trkpt><trkpt lat="43.15176011554968" lon="12.79600774973014"><ele>506.0</ele><time>2026-04-26T09:47:28Z</time></trkpt><trkpt lat="43.151680549606375" lon="12.79611531059804"><ele>506.0</ele><time>2026-04-26T09:47:30Z</time></trkpt><trkpt lat="43.151661604775754" lon="12.796281392069002"><ele>507.6</ele><time>2026-04-26T09:47:32Z</time></trkpt><trkpt lat="43.151651267447555" lon="12.79638610791605"><ele>509.20000000000005</ele><time>2026-04-26T09:47:33Z</time></trkpt><trkpt lat="43.151631230304595" lon="12.796505035199452"><ele>510.79999999999995</ele><time>2026-04-26T09:47:34Z</time></trkpt><trkpt lat="43.151599486120325" lon="12.796636343734123"><ele>512.4</ele><time>2026-04-26T09:47:35Z</time></trkpt><trkpt lat="43.15157462478109" lon="12.796778951942139"><ele>514.0</ele><time>2026-04-26T09:47:36Z</time></trkpt><trkpt lat="43.15155286165383" lon="12.796929421256152"><ele>513.8333333333334</ele><time>2026-04-26T09:47:37Z</time></trkpt><trkpt lat="43.15153492422507" lon="12.797064513508264"><ele>513.6666666666667</ele><time>2026-04-26T09:47:38Z</time></trkpt><trkpt lat="43.151507260504914" lon="12.797159755758265"><ele>513.5</ele><time>2026-04-26T09:47:39Z</time></trkpt><trkpt lat="43.151474890803954" lon="12.797244306413804"><ele>513.3333333333334</ele><time>2026-04-26T09:47:40Z</time></trkpt><trkpt lat="43.15142494492716" lon="12.797323789924427"><ele>513.1666666666666</ele><time>2026-04-26T09:47:41Z</time></trkpt><trkpt lat="43.15135664858624" lon="12.797391095847976"><ele>513.0</ele><time>2026-04-26T09:47:42Z</time></trkpt><trkpt lat="43.151283204005466" lon="12.797459973783527"><ele>513.0</ele><time>2026-04-26T09:47:43Z</time></trkpt><trkpt lat="43.151210839772475" lon="12.797541581226522"><ele>513.0</ele><time>2026-04-26T09:47:44Z</time></trkpt><trkpt lat="43.15113942620917" lon="12.797630542678988"><ele>513.0</ele><time>2026-04-26T09:47:45Z</time></trkpt><trkpt lat="43.15106716192728" lon="12.79772075617033"><ele>513.0</ele><time>2026-04-26T09:47:46Z</time></trkpt><trkpt lat="43.15100114234161" lon="12.797810556362863"><ele>513.0</ele><time>2026-04-26T09:47:47Z</time></trkpt><trkpt lat="43.1509442851109" lon="12.797901728245757"><ele>513.1666666666666</ele><time>2026-04-26T09:47:48Z</time></trkpt><trkpt lat="43.15089766905616" lon="12.797997319918707"><ele>513.3333333333334</ele><time>2026-04-26T09:47:49Z</time></trkpt><trkpt lat="43.1508589758808" lon="12.798091337103546"><ele>513.5</ele><time>2026-04-26T09:47:50Z</time></trkpt><trkpt lat="43.15081784398956" lon="12.79818648799666"><ele>513.6666666666667</ele><time>2026-04-26T09:47:51Z</time></trkpt><trkpt lat="43.15077566064905" lon="12.798294477360066"><ele>513.8333333333334</ele><time>2026-04-26T09:47:52Z</time></trkpt><trkpt lat="43.15073930151031" lon="12.798410524857292"><ele>514.0</ele><time>2026-04-26T09:47:52.999Z</time></trkpt><trkpt lat="43.150701036756445" lon="12.798531192812078"><ele>514.0</ele><time>2026-04-26T09:47:53.999Z</time></trkpt><trkpt lat="43.150665666268885" lon="12.798657256785608"><ele>514.0</ele><time>2026-04-26T09:47:54.999Z</time></trkpt><trkpt lat="43.150636126824885" lon="12.798793155059032"><ele>514.0</ele><time>2026-04-26T09:47:55.999Z</time></trkpt><trkpt lat="43.1506035188702" lon="12.798930947966097"><ele>514.0</ele><time>2026-04-26T09:47:56.999Z</time></trkpt><trkpt lat="43.15056320092391" lon="12.79906635025621"><ele>514.0</ele><time>2026-04-26T09:47:57.999Z</time></trkpt><trkpt lat="43.15050635654802" lon="12.799192345761039"><ele>514.0</ele><time>2026-04-26T09:47:58.999Z</time></trkpt><trkpt lat="43.1504731999085" lon="12.79933176086222"><ele>514.0</ele><time>2026-04-26T09:47:59.999Z</time></trkpt><trkpt lat="43.15045278496003" lon="12.799475154539419"><ele>514.0</ele><time>2026-04-26T09:48:00.999Z</time></trkpt><trkpt lat="43.150453491113744" lon="12.799621264201848"><ele>514.0</ele><time>2026-04-26T09:48:01.999Z</time></trkpt><trkpt lat="43.15043348064065" lon="12.799765045612823"><ele>514.0</ele><time>2026-04-26T09:48:02.999Z</time></trkpt><trkpt lat="43.15042730049502" lon="12.79991091551712"><ele>515.2</ele><time>2026-04-26T09:48:03.999Z</time></trkpt><trkpt lat="43.15041780228929" lon="12.800055924547815"><ele>516.4</ele><time>2026-04-26T09:48:04.999Z</time></trkpt><trkpt lat="43.150405240958364" lon="12.800195954651693"><ele>517.6</ele><time>2026-04-26T09:48:05.999Z</time></trkpt><trkpt lat="43.15039924548047" lon="12.800313230004651"><ele>518.8</ele><time>2026-04-26T09:48:06.999Z</time></trkpt><trkpt lat="43.15040340353559" lon="12.800431281025105"><ele>520.0</ele><time>2026-04-26T09:48:07.999Z</time></trkpt><trkpt lat="43.1504756805597" lon="12.800529348360284"><ele>521.4</ele><time>2026-04-26T09:48:08.999Z</time></trkpt><trkpt lat="43.15054596016546" lon="12.800618515831795"><ele>522.8</ele><time>2026-04-26T09:48:09.999Z</time></trkpt><trkpt lat="43.150606491072715" lon="12.800714673716456"><ele>524.2</ele><time>2026-04-26T09:48:10.999Z</time></trkpt><trkpt lat="43.15064995721745" lon="12.800825605981666"><ele>525.6</ele><time>2026-04-26T09:48:11.999Z</time></trkpt><trkpt lat="43.150678827853824" lon="12.800937619575167"><ele>527.0</ele><time>2026-04-26T09:48:12.999Z</time></trkpt><trkpt lat="43.15069088266813" lon="12.801059143272354"><ele>529.2</ele><time>2026-04-26T09:48:13.999Z</time></trkpt><trkpt lat="43.15068659041219" lon="12.80117897603375"><ele>531.4000000000001</ele><time>2026-04-26T09:48:14.999Z</time></trkpt><trkpt lat="43.1506812059325" lon="12.801307859359019"><ele>533.5999999999999</ele><time>2026-04-26T09:48:15.999Z</time></trkpt><trkpt lat="43.150654460847065" lon="12.801430457961047"><ele>535.8</ele><time>2026-04-26T09:48:16.999Z</time></trkpt><trkpt lat="43.15064346802376" lon="12.801562825287958"><ele>538.0</ele><time>2026-04-26T09:48:17.999Z</time></trkpt><trkpt lat="43.15065013296478" lon="12.801698434616135"><ele>538.0</ele><time>2026-04-26T09:48:18.999Z</time></trkpt><trkpt lat="43.150646530508084" lon="12.801831360204663"><ele>538.0</ele><time>2026-04-26T09:48:19.999Z</time></trkpt><trkpt lat="43.150652245337646" lon="12.801954488168208"><ele>538.0</ele><time>2026-04-26T09:48:20.999Z</time></trkpt><trkpt lat="43.150668248752474" lon="12.802080499355679"><ele>538.0</ele><time>2026-04-26T09:48:21.999Z</time></trkpt><trkpt lat="43.15068191476686" lon="12.802201189450816"><ele>538.0</ele><time>2026-04-26T09:48:22.999Z</time></trkpt><trkpt lat="43.15068113351743" lon="12.80232361091655"><ele>539.3333333333334</ele><time>2026-04-26T09:48:23.999Z</time></trkpt><trkpt lat="43.15067144338851" lon="12.80245009423522"><ele>540.6666666666667</ele><time>2026-04-26T09:48:24.999Z</time></trkpt><trkpt lat="43.15064333610066" lon="12.802575268534438"><ele>542.0</ele><time>2026-04-26T09:48:25.999Z</time></trkpt><trkpt lat="43.1505978332426" lon="12.802690182961351"><ele>543.3333333333334</ele><time>2026-04-26T09:48:26.999Z</time></trkpt><trkpt lat="43.15054436742914" lon="12.802773770353646"><ele>544.6666666666666</ele><time>2026-04-26T09:48:27.999Z</time></trkpt><trkpt lat="43.15046983829017" lon="12.802814565845175"><ele>546.0</ele><time>2026-04-26T09:48:28.999Z</time></trkpt><trkpt lat="43.15040738344894" lon="12.802847538841126"><ele>546.0</ele><time>2026-04-26T09:48:29.999Z</time></trkpt><trkpt lat="43.15032716237474" lon="12.802784538525811"><ele>546.0</ele><time>2026-04-26T09:48:30.999Z</time></trkpt><trkpt lat="43.15023202804452" lon="12.80277001612085"><ele>546.0</ele><time>2026-04-26T09:48:31.999Z</time></trkpt><trkpt lat="43.15012943932753" lon="12.802768033498436"><ele>546.0</ele><time>2026-04-26T09:48:32.999Z</time></trkpt><trkpt lat="43.15002015153694" lon="12.802702933864218"><ele>546.0</ele><time>2026-04-26T09:48:33.999Z</time></trkpt><trkpt lat="43.14990202104883" lon="12.802645824045937"><ele>552.0</ele><time>2026-04-26T09:48:34.999Z</time></trkpt><trkpt lat="43.1497929033684" lon="12.802570319447575"><ele>558.0</ele><time>2026-04-26T09:48:35.999Z</time></trkpt><trkpt lat="43.149673299204196" lon="12.802532122449765"><ele>564.0</ele><time>2026-04-26T09:48:36.999Z</time></trkpt><trkpt lat="43.149558204793244" lon="12.802503332218603"><ele>570.0</ele><time>2026-04-26T09:48:37.999Z</time></trkpt><trkpt lat="43.149445047486516" lon="12.802482393676929"><ele>570.0</ele><time>2026-04-26T09:48:38.999Z</time></trkpt><trkpt lat="43.14935235685994" lon="12.802457183896415"><ele>570.0</ele><time>2026-04-26T09:48:39.998Z</time></trkpt><trkpt lat="43.14927928385477" lon="12.802386430947323"><ele>570.0</ele><time>2026-04-26T09:48:40.998Z</time></trkpt><trkpt lat="43.14921058029151" lon="12.802303461110418"><ele>570.0</ele><time>2026-04-26T09:48:41.998Z</time></trkpt><trkpt lat="43.149134370067465" lon="12.802217457514661"><ele>570.0</ele><time>2026-04-26T09:48:42.998Z</time></trkpt><trkpt lat="43.14904497728137" lon="12.802141270423851"><ele>572.2</ele><time>2026-04-26T09:48:43.998Z</time></trkpt><trkpt lat="43.148966950737034" lon="12.802042674610748"><ele>574.4</ele><time>2026-04-26T09:48:44.998Z</time></trkpt><trkpt lat="43.148886133058" lon="12.801952811924943"><ele>576.6</ele><time>2026-04-26T09:48:45.998Z</time></trkpt><trkpt lat="43.148811825171464" lon="12.801859606232952"><ele>578.8</ele><time>2026-04-26T09:48:46.998Z</time></trkpt><trkpt lat="43.14872152072645" lon="12.801815018934343"><ele>581.0</ele><time>2026-04-26T09:48:47.998Z</time></trkpt><trkpt lat="43.1486299365573" lon="12.801774603710731"><ele>581.0</ele><time>2026-04-26T09:48:48.998Z</time></trkpt><trkpt lat="43.14853312128074" lon="12.801740511154971"><ele>581.0</ele><time>2026-04-26T09:48:49.998Z</time></trkpt><trkpt lat="43.14843623302857" lon="12.80171426584819"><ele>581.0</ele><time>2026-04-26T09:48:50.998Z</time></trkpt><trkpt lat="43.14834170412656" lon="12.801658347553367"><ele>581.0</ele><time>2026-04-26T09:48:51.998Z</time></trkpt><trkpt lat="43.1482405231947" lon="12.8016050819385"><ele>581.0</ele><time>2026-04-26T09:48:52.998Z</time></trkpt><trkpt lat="43.148130746131024" lon="12.801552934115591"><ele>584.0</ele><time>2026-04-26T09:48:53.998Z</time></trkpt><trkpt lat="43.14804948435896" lon="12.80148226346692"><ele>587.0</ele><time>2026-04-26T09:48:54.998Z</time></trkpt><trkpt lat="43.147972393663295" lon="12.801399958468572"><ele>590.0</ele><time>2026-04-26T09:48:55.998Z</time></trkpt><trkpt lat="43.14789421891774" lon="12.801330089829346"><ele>593.0</ele><time>2026-04-26T09:48:56.998Z</time></trkpt><trkpt lat="43.147818304676164" lon="12.801275778139738"><ele>596.0</ele><time>2026-04-26T09:48:57.998Z</time></trkpt><trkpt lat="43.14773936193899" lon="12.801238028091031"><ele>596.0</ele><time>2026-04-26T09:48:58.998Z</time></trkpt><trkpt lat="43.147660964559904" lon="12.801212092712445"><ele>596.0</ele><time>2026-04-26T09:48:59.998Z</time></trkpt><trkpt lat="43.14757880767253" lon="12.801186546253618"><ele>596.0</ele><time>2026-04-26T09:49:00.998Z</time></trkpt><trkpt lat="43.14749488149115" lon="12.801155911175762"><ele>596.0</ele><time>2026-04-26T09:49:01.998Z</time></trkpt><trkpt lat="43.14741851499551" lon="12.801124268994009"><ele>596.0</ele><time>2026-04-26T09:49:02.998Z</time></trkpt><trkpt lat="43.14735105760024" lon="12.801092291281112"><ele>596.0</ele><time>2026-04-26T09:49:03.998Z</time></trkpt><trkpt lat="43.14728712698325" lon="12.80107040916976"><ele>599.75</ele><time>2026-04-26T09:49:04.998Z</time></trkpt><trkpt lat="43.147171621941034" lon="12.801032827961471"><ele>603.5</ele><time>2026-04-26T09:49:06.998Z</time></trkpt><trkpt lat="43.147052011104506" lon="12.801016304166104"><ele>607.25</ele><time>2026-04-26T09:49:08.998Z</time></trkpt><trkpt lat="43.14693910447422" lon="12.80101851303502"><ele>611.0</ele><time>2026-04-26T09:49:10.998Z</time></trkpt><trkpt lat="43.146824887433574" lon="12.801049875109415"><ele>611.0</ele><time>2026-04-26T09:49:12.998Z</time></trkpt><trkpt lat="43.14674843772784" lon="12.8010402734392"><ele>611.0</ele><time>2026-04-26T09:49:13.998Z</time></trkpt><trkpt lat="43.146667455041964" lon="12.801054198866659"><ele>611.0</ele><time>2026-04-26T09:49:14.998Z</time></trkpt><trkpt lat="43.14658959814365" lon="12.801069667542576"><ele>611.0</ele><time>2026-04-26T09:49:15.998Z</time></trkpt><trkpt lat="43.14651556611282" lon="12.80110672726509"><ele>611.0</ele><time>2026-04-26T09:49:16.998Z</time></trkpt><trkpt lat="43.14643983832868" lon="12.80111998649766"><ele>611.0</ele><time>2026-04-26T09:49:17.998Z</time></trkpt><trkpt lat="43.14636636211996" lon="12.80113627491415"><ele>612.6666666666666</ele><time>2026-04-26T09:49:18.998Z</time></trkpt><trkpt lat="43.146292605910546" lon="12.801146621250425"><ele>614.3333333333333</ele><time>2026-04-26T09:49:19.998Z</time></trkpt><trkpt lat="43.146219720605124" lon="12.801164413839373"><ele>616.0</ele><time>2026-04-26T09:49:20.998Z</time></trkpt><trkpt lat="43.14614850119985" lon="12.801175941065273"><ele>617.6666666666666</ele><time>2026-04-26T09:49:21.998Z</time></trkpt><trkpt lat="43.14608160670446" lon="12.801181398578793"><ele>619.3333333333334</ele><time>2026-04-26T09:49:22.998Z</time></trkpt><trkpt lat="43.145959723740006" lon="12.801209744702808"><ele>621.0</ele><time>2026-04-26T09:49:24.998Z</time></trkpt><trkpt lat="43.14585042809924" lon="12.801216677691162"><ele>621.0</ele><time>2026-04-26T09:49:26.997Z</time></trkpt><trkpt lat="43.14578096766272" lon="12.80123264256939"><ele>621.0</ele><time>2026-04-26T09:49:30Z</time></trkpt><trkpt lat="43.14584146405444" lon="12.801384087422502"><ele>621.0</ele><time>2026-04-26T09:49:33Z</time></trkpt><trkpt lat="43.14591679446015" lon="12.801404681606238"><ele>621.0</ele><time>2026-04-26T09:49:34Z</time></trkpt><trkpt lat="43.14599643628765" lon="12.801466581687063"><ele>621.0</ele><time>2026-04-26T09:49:35Z</time></trkpt><trkpt lat="43.14608605716364" lon="12.801519148426562"><ele>621.0</ele><time>2026-04-26T09:49:36Z</time></trkpt><trkpt lat="43.14618683614007" lon="12.801559691864831"><ele>621.0</ele><time>2026-04-26T09:49:37Z</time></trkpt><trkpt lat="43.146280737276214" lon="12.801629391836686"><ele>621.0</ele><time>2026-04-26T09:49:38Z</time></trkpt><trkpt lat="43.1463863984932" lon="12.801695499623596"><ele>621.0</ele><time>2026-04-26T09:49:39Z</time></trkpt><trkpt lat="43.146493747465556" lon="12.80176292312513"><ele>621.0</ele><time>2026-04-26T09:49:40Z</time></trkpt><trkpt lat="43.14660047181828" lon="12.801845594912217"><ele>624.25</ele><time>2026-04-26T09:49:41Z</time></trkpt><trkpt lat="43.146704947475776" lon="12.801936373096286"><ele>627.5</ele><time>2026-04-26T09:49:42Z</time></trkpt><trkpt lat="43.14679712244108" lon="12.802050946061145"><ele>630.75</ele><time>2026-04-26T09:49:43Z</time></trkpt><trkpt lat="43.146895034242846" lon="12.80214967766255"><ele>634.0</ele><time>2026-04-26T09:49:44Z</time></trkpt><trkpt lat="43.14698099301561" lon="12.802237076279397"><ele>634.0</ele><time>2026-04-26T09:49:45Z</time></trkpt><trkpt lat="43.1470718473597" lon="12.802329452462295"><ele>634.0</ele><time>2026-04-26T09:49:46Z</time></trkpt><trkpt lat="43.147175338485134" lon="12.802401852361388"><ele>634.0</ele><time>2026-04-26T09:49:47Z</time></trkpt><trkpt lat="43.14726161125111" lon="12.802502580352984"><ele>634.0</ele><time>2026-04-26T09:49:48Z</time></trkpt><trkpt lat="43.14734052390552" lon="12.802617446932608"><ele>633.6</ele><time>2026-04-26T09:49:49Z</time></trkpt><trkpt lat="43.1474114956228" lon="12.802737286382092"><ele>633.2</ele><time>2026-04-26T09:49:50Z</time></trkpt><trkpt lat="43.147477279303416" lon="12.802856297642588"><ele>632.8000000000001</ele><time>2026-04-26T09:49:51Z</time></trkpt><trkpt lat="43.14753123244336" lon="12.802975464265636"><ele>632.4</ele><time>2026-04-26T09:49:52Z</time></trkpt><trkpt lat="43.147572728725166" lon="12.80309434281328"><ele>632.0</ele><time>2026-04-26T09:49:53Z</time></trkpt><trkpt lat="43.14759656397346" lon="12.803217971174234"><ele>632.0</ele><time>2026-04-26T09:49:54Z</time></trkpt><trkpt lat="43.14761622766499" lon="12.803343246273329"><ele>632.0</ele><time>2026-04-26T09:49:55Z</time></trkpt><trkpt lat="43.1476375771491" lon="12.803462731646356"><ele>632.0</ele><time>2026-04-26T09:49:55.999Z</time></trkpt><trkpt lat="43.14766769171711" lon="12.803585828655335"><ele>632.0</ele><time>2026-04-26T09:49:56.999Z</time></trkpt><trkpt lat="43.14770493667777" lon="12.803712665715226"><ele>632.0</ele><time>2026-04-26T09:49:57.999Z</time></trkpt><trkpt lat="43.14775217681843" lon="12.803829523396132"><ele>636.4000000000001</ele><time>2026-04-26T09:49:58.999Z</time></trkpt><trkpt lat="43.14780260846192" lon="12.803941371710517"><ele>640.8000000000001</ele><time>2026-04-26T09:49:59.999Z</time></trkpt><trkpt lat="43.14785560962263" lon="12.804049281333397"><ele>645.2</ele><time>2026-04-26T09:50:00.999Z</time></trkpt><trkpt lat="43.14790664663855" lon="12.804155652540008"><ele>649.6</ele><time>2026-04-26T09:50:01.999Z</time></trkpt><trkpt lat="43.14795314578442" lon="12.804267071692346"><ele>654.0</ele><time>2026-04-26T09:50:02.999Z</time></trkpt><trkpt lat="43.148000818751214" lon="12.804375463388567"><ele>657.0</ele><time>2026-04-26T09:50:03.999Z</time></trkpt><trkpt lat="43.14804606542859" lon="12.804483864259536"><ele>660.0</ele><time>2026-04-26T09:50:04.999Z</time></trkpt><trkpt lat="43.148077147097545" lon="12.80458712089149"><ele>663.0</ele><time>2026-04-26T09:50:05.999Z</time></trkpt><trkpt lat="43.148096953193075" lon="12.804694786158342"><ele>666.0</ele><time>2026-04-26T09:50:06.999Z</time></trkpt><trkpt lat="43.14811238478229" lon="12.804808629296398"><ele>669.0</ele><time>2026-04-26T09:50:07.999Z</time></trkpt><trkpt lat="43.14812459227068" lon="12.804929446767726"><ele>672.0</ele><time>2026-04-26T09:50:08.999Z</time></trkpt><trkpt lat="43.14812381108545" lon="12.80506500450523"><ele>673.6</ele><time>2026-04-26T09:50:09.999Z</time></trkpt><trkpt lat="43.14808269869874" lon="12.805193055611012"><ele>675.2</ele><time>2026-04-26T09:50:10.999Z</time></trkpt><trkpt lat="43.14803969511778" lon="12.805318381736102"><ele>676.8</ele><time>2026-04-26T09:50:11.999Z</time></trkpt><trkpt lat="43.14800307171759" lon="12.805452962173716"><ele>678.4</ele><time>2026-04-26T09:50:12.999Z</time></trkpt><trkpt lat="43.147938560796064" lon="12.805570042405044"><ele>680.0</ele><time>2026-04-26T09:50:13.999Z</time></trkpt><trkpt lat="43.14791016588126" lon="12.805703101810426"><ele>680.0</ele><time>2026-04-26T09:50:14.999Z</time></trkpt><trkpt lat="43.147872598699145" lon="12.805822358694913"><ele>680.0</ele><time>2026-04-26T09:50:15.999Z</time></trkpt><trkpt lat="43.14785587827789" lon="12.805953322165047"><ele>680.0</ele><time>2026-04-26T09:50:16.999Z</time></trkpt><trkpt lat="43.147850931142386" lon="12.806089784633887"><ele>680.0</ele><time>2026-04-26T09:50:17.999Z</time></trkpt><trkpt lat="43.147851119718894" lon="12.806219431692133"><ele>680.0</ele><time>2026-04-26T09:50:18.999Z</time></trkpt><trkpt lat="43.14785644474495" lon="12.80633377473799"><ele>680.2857142857143</ele><time>2026-04-26T09:50:19.999Z</time></trkpt><trkpt lat="43.14785891965789" lon="12.806437699657733"><ele>680.5714285714286</ele><time>2026-04-26T09:50:20.999Z</time></trkpt><trkpt lat="43.147876324568536" lon="12.80653258702586"><ele>680.8571428571429</ele><time>2026-04-26T09:50:21.999Z</time></trkpt><trkpt lat="43.14791099752719" lon="12.806613858564186"><ele>681.1428571428571</ele><time>2026-04-26T09:50:22.999Z</time></trkpt><trkpt lat="43.14796098612051" lon="12.806674269272445"><ele>681.4285714285714</ele><time>2026-04-26T09:50:23.999Z</time></trkpt><trkpt lat="43.14801988597862" lon="12.806722460146878"><ele>681.7142857142857</ele><time>2026-04-26T09:50:24.999Z</time></trkpt><trkpt lat="43.14808960474813" lon="12.806750025206464"><ele>682.0</ele><time>2026-04-26T09:50:25.999Z</time></trkpt><trkpt lat="43.1481586776684" lon="12.806747326494827"><ele>677.8333333333334</ele><time>2026-04-26T09:50:26.999Z</time></trkpt><trkpt lat="43.148226862426945" lon="12.80671745964829"><ele>673.6666666666667</ele><time>2026-04-26T09:50:27.999Z</time></trkpt><trkpt lat="43.14829105898769" lon="12.806673977096375"><ele>669.5</ele><time>2026-04-26T09:50:28.999Z</time></trkpt><trkpt lat="43.14836198881339" lon="12.80663918587516"><ele>665.3333333333334</ele><time>2026-04-26T09:50:29.999Z</time></trkpt><trkpt lat="43.14843799075906" lon="12.8066185304683"><ele>661.1666666666666</ele><time>2026-04-26T09:50:30.999Z</time></trkpt><trkpt lat="43.14852349144813" lon="12.806595776183462"><ele>657.0</ele><time>2026-04-26T09:50:31.999Z</time></trkpt><trkpt lat="43.14860489875051" lon="12.806581390131118"><ele>657.0</ele><time>2026-04-26T09:50:32.999Z</time></trkpt><trkpt lat="43.14867254333443" lon="12.806586540518643"><ele>657.0</ele><time>2026-04-26T09:50:33.999Z</time></trkpt><trkpt lat="43.148757211105725" lon="12.806668297205855"><ele>657.0</ele><time>2026-04-26T09:50:35.999Z</time></trkpt><trkpt lat="43.14880803577257" lon="12.80680356808614"><ele>657.0</ele><time>2026-04-26T09:50:37.999Z</time></trkpt><trkpt lat="43.148820455800674" lon="12.806943465919796"><ele>657.0</ele><time>2026-04-26T09:50:39.999Z</time></trkpt><trkpt lat="43.148809933890675" lon="12.807125151793631"><ele>661.0</ele><time>2026-04-26T09:50:41.998Z</time></trkpt><trkpt lat="43.14879108099982" lon="12.807222918099535"><ele>665.0</ele><time>2026-04-26T09:50:42.998Z</time></trkpt><trkpt lat="43.14876831672072" lon="12.807331216144886"><ele>669.0</ele><time>2026-04-26T09:50:43.998Z</time></trkpt><trkpt lat="43.148751830402674" lon="12.807445338867256"><ele>673.0</ele><time>2026-04-26T09:50:44.998Z</time></trkpt><trkpt lat="43.1487176470293" lon="12.807561206855134"><ele>677.0</ele><time>2026-04-26T09:50:45.998Z</time></trkpt><trkpt lat="43.148726904279854" lon="12.807689788384073"><ele>681.0</ele><time>2026-04-26T09:50:46.998Z</time></trkpt><trkpt lat="43.14873649253799" lon="12.807808758745198"><ele>678.3333333333334</ele><time>2026-04-26T09:50:47.998Z</time></trkpt><trkpt lat="43.14877124977319" lon="12.807895938389995"><ele>675.6666666666666</ele><time>2026-04-26T09:50:48.998Z</time></trkpt><trkpt lat="43.14882243425329" lon="12.807958283622263"><ele>673.0</ele><time>2026-04-26T09:50:49.998Z</time></trkpt><trkpt lat="43.148913635278824" lon="12.807998717956032"><ele>670.3333333333333</ele><time>2026-04-26T09:50:51.998Z</time></trkpt><trkpt lat="43.14901915712932" lon="12.808077492072503"><ele>667.6666666666666</ele><time>2026-04-26T09:50:53.998Z</time></trkpt><trkpt lat="43.14906588009445" lon="12.808136467033922"><ele>665.0</ele><time>2026-04-26T09:50:54.998Z</time></trkpt><trkpt lat="43.14908411086524" lon="12.808267769177345"><ele>665.0</ele><time>2026-04-26T09:50:56.998Z</time></trkpt><trkpt lat="43.14912133692985" lon="12.808402205670033"><ele>665.0</ele><time>2026-04-26T09:50:58.998Z</time></trkpt><trkpt lat="43.149130197760876" lon="12.808569115627055"><ele>665.0</ele><time>2026-04-26T09:51:00.998Z</time></trkpt><trkpt lat="43.14914269413106" lon="12.808673656147088"><ele>665.0</ele><time>2026-04-26T09:51:01.998Z</time></trkpt><trkpt lat="43.149156413001336" lon="12.808788625287052"><ele>665.0</ele><time>2026-04-26T09:51:02.998Z</time></trkpt><trkpt lat="43.14916449870207" lon="12.808915876536712"><ele>668.8</ele><time>2026-04-26T09:51:03.998Z</time></trkpt><trkpt lat="43.14916946257403" lon="12.809048081932964"><ele>672.6</ele><time>2026-04-26T09:51:04.998Z</time></trkpt><trkpt lat="43.149189100644556" lon="12.809191710360553"><ele>676.4000000000001</ele><time>2026-04-26T09:51:05.998Z</time></trkpt><trkpt lat="43.14919902977387" lon="12.809342842841408"><ele>680.2</ele><time>2026-04-26T09:51:06.998Z</time></trkpt><trkpt lat="43.14921181430479" lon="12.809498611054114"><ele>684.0</ele><time>2026-04-26T09:51:07.998Z</time></trkpt><trkpt lat="43.14922420917987" lon="12.809667387411931"><ele>687.25</ele><time>2026-04-26T09:51:08.998Z</time></trkpt><trkpt lat="43.149237492502664" lon="12.80983904096025"><ele>690.5</ele><time>2026-04-26T09:51:09.998Z</time></trkpt><trkpt lat="43.149256685364286" lon="12.810015394238224"><ele>693.75</ele><time>2026-04-26T09:51:10.998Z</time></trkpt><trkpt lat="43.14927923810116" lon="12.810182918972437"><ele>697.0</ele><time>2026-04-26T09:51:11.998Z</time></trkpt><trkpt lat="43.149298150965585" lon="12.810331272366106"><ele>699.2</ele><time>2026-04-26T09:51:12.998Z</time></trkpt><trkpt lat="43.14931827133588" lon="12.810471895830199"><ele>701.4000000000001</ele><time>2026-04-26T09:51:13.998Z</time></trkpt><trkpt lat="43.14932892396921" lon="12.810603625348165"><ele>703.5999999999999</ele><time>2026-04-26T09:51:14.998Z</time></trkpt><trkpt lat="43.1493388186308" lon="12.810730986669983"><ele>705.8</ele><time>2026-04-26T09:51:15.998Z</time></trkpt><trkpt lat="43.149352523732986" lon="12.810850558917712"><ele>708.0</ele><time>2026-04-26T09:51:16.998Z</time></trkpt><trkpt lat="43.14936572992057" lon="12.810960991619073"><ele>710.3333333333334</ele><time>2026-04-26T09:51:17.998Z</time></trkpt><trkpt lat="43.14937536519717" lon="12.81107746857344"><ele>712.6666666666666</ele><time>2026-04-26T09:51:18.998Z</time></trkpt><trkpt lat="43.14938171882037" lon="12.811194958350205"><ele>715.0</ele><time>2026-04-26T09:51:19.998Z</time></trkpt><trkpt lat="43.149382907585625" lon="12.811303488569685"><ele>717.3333333333333</ele><time>2026-04-26T09:51:20.998Z</time></trkpt><trkpt lat="43.149384772125444" lon="12.811416997105805"><ele>719.6666666666666</ele><time>2026-04-26T09:51:21.998Z</time></trkpt><trkpt lat="43.14939731374957" lon="12.811535081079631"><ele>722.0</ele><time>2026-04-26T09:51:22.998Z</time></trkpt><trkpt lat="43.14941687448477" lon="12.811652364408175"><ele>722.0</ele><time>2026-04-26T09:51:23.998Z</time></trkpt><trkpt lat="43.1494407636043" lon="12.811776748466125"><ele>722.0</ele><time>2026-04-26T09:51:24.998Z</time></trkpt><trkpt lat="43.14946206116397" lon="12.811901106724495"><ele>722.0</ele><time>2026-04-26T09:51:25.998Z</time></trkpt><trkpt lat="43.14947778952637" lon="12.81202281288261"><ele>722.0</ele><time>2026-04-26T09:51:26.998Z</time></trkpt><trkpt lat="43.14949434596954" lon="12.812149955842951"><ele>722.0</ele><time>2026-04-26T09:51:27.998Z</time></trkpt><trkpt lat="43.14951575829592" lon="12.812275520933493"><ele>725.6</ele><time>2026-04-26T09:51:28.997Z</time></trkpt><trkpt lat="43.14953253383273" lon="12.812400057570477"><ele>729.2</ele><time>2026-04-26T09:51:29.997Z</time></trkpt><trkpt lat="43.14955305193766" lon="12.812527265401513"><ele>732.8</ele><time>2026-04-26T09:51:30.997Z</time></trkpt><trkpt lat="43.14957377339454" lon="12.812649318412832"><ele>736.4</ele><time>2026-04-26T09:51:31.997Z</time></trkpt><trkpt lat="43.14959424096579" lon="12.812770052338124"><ele>740.0</ele><time>2026-04-26T09:51:33Z</time></trkpt><trkpt lat="43.14961520556709" lon="12.812892888985944"><ele>744.4</ele><time>2026-04-26T09:51:34Z</time></trkpt><trkpt lat="43.1496384523753" lon="12.813020115031383"><ele>748.8</ele><time>2026-04-26T09:51:35Z</time></trkpt><trkpt lat="43.149666820418304" lon="12.813150421707183"><ele>753.2</ele><time>2026-04-26T09:51:36Z</time></trkpt><trkpt lat="43.14969504492222" lon="12.813284687341342"><ele>757.6</ele><time>2026-04-26T09:51:37Z</time></trkpt><trkpt lat="43.149726410787274" lon="12.813418501570922"><ele>762.0</ele><time>2026-04-26T09:51:38Z</time></trkpt><trkpt lat="43.14975675724057" lon="12.813557580173152"><ele>766.0</ele><time>2026-04-26T09:51:39Z</time></trkpt><trkpt lat="43.149790330222785" lon="12.81369694760402"><ele>770.0</ele><time>2026-04-26T09:51:40Z</time></trkpt><trkpt lat="43.14982900832277" lon="12.813838745731816"><ele>774.0</ele><time>2026-04-26T09:51:41Z</time></trkpt><trkpt lat="43.14986608234431" lon="12.813984205493735"><ele>778.0</ele><time>2026-04-26T09:51:42Z</time></trkpt><trkpt lat="43.149898998456834" lon="12.814118372665991"><ele>782.0</ele><time>2026-04-26T09:51:43Z</time></trkpt><trkpt lat="43.14992673934363" lon="12.814238308137847"><ele>775.1666666666667</ele><time>2026-04-26T09:51:44Z</time></trkpt><trkpt lat="43.149961634620006" lon="12.81435282018851"><ele>768.3333333333334</ele><time>2026-04-26T09:51:45Z</time></trkpt><trkpt lat="43.14999020235962" lon="12.814454997937904"><ele>761.5</ele><time>2026-04-26T09:51:46Z</time></trkpt><trkpt lat="43.15000775128556" lon="12.814539126927963"><ele>754.6666666666667</ele><time>2026-04-26T09:51:47Z</time></trkpt><trkpt lat="43.150029066085324" lon="12.814716136373839"><ele>747.8333333333334</ele><time>2026-04-26T09:51:49Z</time></trkpt><trkpt lat="43.15003855808661" lon="12.814804817259656"><ele>741.0</ele><time>2026-04-26T09:51:50Z</time></trkpt><trkpt lat="43.15005094111846" lon="12.814891295793371"><ele>741.0</ele><time>2026-04-26T09:51:51Z</time></trkpt><trkpt lat="43.15006953148987" lon="12.815059607316389"><ele>741.0</ele><time>2026-04-26T09:51:53Z</time></trkpt><trkpt lat="43.15008212191203" lon="12.815221748291462"><ele>741.0</ele><time>2026-04-26T09:51:55Z</time></trkpt><trkpt lat="43.15009312214054" lon="12.815359530759785"><ele>741.0</ele><time>2026-04-26T09:51:57Z</time></trkpt><trkpt lat="43.150061580244845" lon="12.815480702571385"><ele>741.0</ele><time>2026-04-26T09:51:59Z</time></trkpt><trkpt lat="43.15003193852389" lon="12.815619669905702"><ele>741.0</ele><time>2026-04-26T09:52:00.999Z</time></trkpt><trkpt lat="43.14999360529948" lon="12.815693471345572"><ele>741.0</ele><time>2026-04-26T09:52:01.999Z</time></trkpt><trkpt lat="43.14995339202205" lon="12.815858285911297"><ele>741.0</ele><time>2026-04-26T09:52:03.999Z</time></trkpt><trkpt lat="43.14992168815764" lon="12.815948884484495"><ele>741.0</ele><time>2026-04-26T09:52:04.999Z</time></trkpt><trkpt lat="43.14987842964816" lon="12.816019504139492"><ele>741.0</ele><time>2026-04-26T09:52:05.999Z</time></trkpt><trkpt lat="43.14985538597383" lon="12.81610235453708"><ele>741.0</ele><time>2026-04-26T09:52:06.999Z</time></trkpt><trkpt lat="43.14982290907478" lon="12.81618011572116"><ele>747.7142857142857</ele><time>2026-04-26T09:52:07.999Z</time></trkpt><trkpt lat="43.149793476482444" lon="12.816257783507064"><ele>754.4285714285714</ele><time>2026-04-26T09:52:08.999Z</time></trkpt><trkpt lat="43.1497624387944" lon="12.816334180333502"><ele>761.1428571428571</ele><time>2026-04-26T09:52:09.999Z</time></trkpt><trkpt lat="43.14972812721793" lon="12.816412492714038"><ele>767.8571428571429</ele><time>2026-04-26T09:52:10.999Z</time></trkpt><trkpt lat="43.14968490478605" lon="12.816485328365015"><ele>774.5714285714287</ele><time>2026-04-26T09:52:11.999Z</time></trkpt><trkpt lat="43.14964744552489" lon="12.816559661057024"><ele>781.2857142857143</ele><time>2026-04-26T09:52:12.999Z</time></trkpt><trkpt lat="43.1496168358137" lon="12.81665250571782"><ele>788.0</ele><time>2026-04-26T09:52:13.999Z</time></trkpt><trkpt lat="43.14957059732513" lon="12.816730695469436"><ele>788.0000000000001</ele><time>2026-04-26T09:52:14.999Z</time></trkpt><trkpt lat="43.14951203555382" lon="12.81679896134175"><ele>788.0</ele><time>2026-04-26T09:52:15.999Z</time></trkpt><trkpt lat="43.1494724698138" lon="12.816892108149283"><ele>788.0</ele><time>2026-04-26T09:52:16.999Z</time></trkpt><trkpt lat="43.14943148001947" lon="12.816983272937215"><ele>788.0</ele><time>2026-04-26T09:52:17.999Z</time></trkpt><trkpt lat="43.14939305422557" lon="12.81707826799075"><ele>788.0000000000001</ele><time>2026-04-26T09:52:18.999Z</time></trkpt><trkpt lat="43.14935191762489" lon="12.817178731285773"><ele>788.0</ele><time>2026-04-26T09:52:19.999Z</time></trkpt><trkpt lat="43.14930847977226" lon="12.81727870904537"><ele>785.5000000000001</ele><time>2026-04-26T09:52:20.999Z</time></trkpt><trkpt lat="43.14926664111212" lon="12.817377332247945"><ele>783.0</ele><time>2026-04-26T09:52:21.999Z</time></trkpt><trkpt lat="43.14922864279945" lon="12.817483289645908"><ele>780.5</ele><time>2026-04-26T09:52:22.999Z</time></trkpt><trkpt lat="43.14919122413495" lon="12.817593234885146"><ele>778.0</ele><time>2026-04-26T09:52:23.999Z</time></trkpt><trkpt lat="43.14915575624765" lon="12.817703011465003"><ele>775.5000000000001</ele><time>2026-04-26T09:52:24.999Z</time></trkpt><trkpt lat="43.14912049198441" lon="12.817809530387096"><ele>773.0</ele><time>2026-04-26T09:52:25.999Z</time></trkpt><trkpt lat="43.14909315556531" lon="12.817919189577623"><ele>772.0000000000001</ele><time>2026-04-26T09:52:26.999Z</time></trkpt><trkpt lat="43.14907064279766" lon="12.818027250236264"><ele>771.0</ele><time>2026-04-26T09:52:27.999Z</time></trkpt><trkpt lat="43.149050326764794" lon="12.818136303072443"><ele>770.0</ele><time>2026-04-26T09:52:28.999Z</time></trkpt><trkpt lat="43.14903259841198" lon="12.818248491509904"><ele>769.0</ele><time>2026-04-26T09:52:29.999Z</time></trkpt><trkpt lat="43.14901405143906" lon="12.818360745314452"><ele>768.0</ele><time>2026-04-26T09:52:30.999Z</time></trkpt><trkpt lat="43.14900378964273" lon="12.818476581431593"><ele>767.0</ele><time>2026-04-26T09:52:31.999Z</time></trkpt><trkpt lat="43.14899905641447" lon="12.818590500899743"><ele>768.1666666666666</ele><time>2026-04-26T09:52:32.999Z</time></trkpt><trkpt lat="43.149005870655905" lon="12.818708551095128"><ele>769.3333333333333</ele><time>2026-04-26T09:52:33.999Z</time></trkpt><trkpt lat="43.14901076774961" lon="12.818827136185682"><ele>770.5</ele><time>2026-04-26T09:52:34.999Z</time></trkpt><trkpt lat="43.14901230238579" lon="12.818945327945936"><ele>771.6666666666666</ele><time>2026-04-26T09:52:35.999Z</time></trkpt><trkpt lat="43.14901590591951" lon="12.819060943933046"><ele>772.8333333333334</ele><time>2026-04-26T09:52:36.999Z</time></trkpt><trkpt lat="43.14902908077032" lon="12.819180971628336"><ele>774.0</ele><time>2026-04-26T09:52:37.999Z</time></trkpt><trkpt lat="43.14904856414674" lon="12.819307761693995"><ele>776.0</ele><time>2026-04-26T09:52:38.999Z</time></trkpt><trkpt lat="43.149071870564626" lon="12.819433422333802"><ele>778.0</ele><time>2026-04-26T09:52:39.999Z</time></trkpt><trkpt lat="43.1490940501815" lon="12.819563756145438"><ele>780.0</ele><time>2026-04-26T09:52:40.999Z</time></trkpt><trkpt lat="43.149117473482995" lon="12.819701823791078"><ele>782.0</ele><time>2026-04-26T09:52:41.999Z</time></trkpt><trkpt lat="43.14913760157245" lon="12.819843832290806"><ele>784.0</ele><time>2026-04-26T09:52:42.999Z</time></trkpt><trkpt lat="43.14915541047144" lon="12.819987453818573"><ele>784.0</ele><time>2026-04-26T09:52:43.999Z</time></trkpt><trkpt lat="43.14917457916925" lon="12.820136169289036"><ele>784.0</ele><time>2026-04-26T09:52:44.999Z</time></trkpt><trkpt lat="43.14919517563049" lon="12.820284665002946"><ele>784.0</ele><time>2026-04-26T09:52:45.998Z</time></trkpt><trkpt lat="43.14921557831162" lon="12.820412393092303"><ele>784.0</ele><time>2026-04-26T09:52:46.998Z</time></trkpt><trkpt lat="43.14922221980525" lon="12.82051114873369"><ele>784.0</ele><time>2026-04-26T09:52:47.998Z</time></trkpt><trkpt lat="43.14924804701406" lon="12.820668259342362"><ele>785.4000000000001</ele><time>2026-04-26T09:52:49.998Z</time></trkpt><trkpt lat="43.14924150215332" lon="12.820822306888125"><ele>786.8</ele><time>2026-04-26T09:52:51.998Z</time></trkpt><trkpt lat="43.149191184442905" lon="12.82093630945767"><ele>788.2</ele><time>2026-04-26T09:52:53.998Z</time></trkpt><trkpt lat="43.149129339707926" lon="12.821092328280683"><ele>789.5999999999999</ele><time>2026-04-26T09:52:55.998Z</time></trkpt><trkpt lat="43.149091402425654" lon="12.821182788970983"><ele>791.0</ele><time>2026-04-26T09:52:56.998Z</time></trkpt><trkpt lat="43.14907336762709" lon="12.821282665191358"><ele>791.6666666666667</ele><time>2026-04-26T09:52:57.998Z</time></trkpt><trkpt lat="43.1490557586308" lon="12.821396684760096"><ele>792.3333333333334</ele><time>2026-04-26T09:52:58.998Z</time></trkpt><trkpt lat="43.1490610202393" lon="12.821504013812646"><ele>793.0</ele><time>2026-04-26T09:52:59.998Z</time></trkpt><trkpt lat="43.14906608533315" lon="12.821641961853398"><ele>793.6666666666667</ele><time>2026-04-26T09:53:00.998Z</time></trkpt><trkpt lat="43.149095931497186" lon="12.821758695685137"><ele>794.3333333333334</ele><time>2026-04-26T09:53:01.998Z</time></trkpt><trkpt lat="43.149125555138724" lon="12.821877313710514"><ele>795.0</ele><time>2026-04-26T09:53:02.998Z</time></trkpt><trkpt lat="43.149161983618534" lon="12.82200817569828"><ele>796.0</ele><time>2026-04-26T09:53:03.998Z</time></trkpt><trkpt lat="43.14920786312804" lon="12.822148927017228"><ele>797.0</ele><time>2026-04-26T09:53:04.998Z</time></trkpt><trkpt lat="43.14922853701994" lon="12.822255309954699"><ele>798.0</ele><time>2026-04-26T09:53:05.998Z</time></trkpt><trkpt lat="43.14922517280241" lon="12.82240882540858"><ele>799.0</ele><time>2026-04-26T09:53:06.998Z</time></trkpt><trkpt lat="43.14924072652" lon="12.822559694406186"><ele>800.0</ele><time>2026-04-26T09:53:07.998Z</time></trkpt><trkpt lat="43.14925999962454" lon="12.822702809870714"><ele>800.5000000000001</ele><time>2026-04-26T09:53:08.998Z</time></trkpt><trkpt lat="43.149301106872215" lon="12.822827294788103"><ele>801.0</ele><time>2026-04-26T09:53:09.998Z</time></trkpt><trkpt lat="43.149329932158466" lon="12.822943106398498"><ele>801.5</ele><time>2026-04-26T09:53:10.998Z</time></trkpt><trkpt lat="43.14936582614524" lon="12.823042713088887"><ele>802.0</ele><time>2026-04-26T09:53:11.998Z</time></trkpt><trkpt lat="43.14941626121872" lon="12.823135847650102"><ele>802.5000000000001</ele><time>2026-04-26T09:53:12.998Z</time></trkpt><trkpt lat="43.14947138334573" lon="12.823222948772845"><ele>803.0</ele><time>2026-04-26T09:53:13.998Z</time></trkpt><trkpt lat="43.149529400013655" lon="12.823301802069388"><ele>803.0000000000001</ele><time>2026-04-26T09:53:14.998Z</time></trkpt><trkpt lat="43.14958516233031" lon="12.823377866951361"><ele>803.0</ele><time>2026-04-26T09:53:15.998Z</time></trkpt><trkpt lat="43.14963407395392" lon="12.823462136389312"><ele>803.0</ele><time>2026-04-26T09:53:16.998Z</time></trkpt><trkpt lat="43.14967683954142" lon="12.823546943547809"><ele>803.0</ele><time>2026-04-26T09:53:17.998Z</time></trkpt><trkpt lat="43.14972157716768" lon="12.823634176775315"><ele>803.0000000000001</ele><time>2026-04-26T09:53:18.998Z</time></trkpt><trkpt lat="43.14975654081287" lon="12.823724334914184"><ele>803.0</ele><time>2026-04-26T09:53:19.998Z</time></trkpt><trkpt lat="43.149789901786185" lon="12.823819934983893"><ele>803.0000000000001</ele><time>2026-04-26T09:53:20.998Z</time></trkpt><trkpt lat="43.149814832713815" lon="12.823919538889484"><ele>803.0</ele><time>2026-04-26T09:53:21.998Z</time></trkpt><trkpt lat="43.14984243987248" lon="12.824022748429444"><ele>803.0</ele><time>2026-04-26T09:53:22.998Z</time></trkpt><trkpt lat="43.14987134955947" lon="12.824125349803742"><ele>803.0</ele><time>2026-04-26T09:53:23.998Z</time></trkpt><trkpt lat="43.14990614670421" lon="12.824223563185713"><ele>803.0000000000001</ele><time>2026-04-26T09:53:24.998Z</time></trkpt><trkpt lat="43.149940511573455" lon="12.824311802881708"><ele>803.0</ele><time>2026-04-26T09:53:25.998Z</time></trkpt><trkpt lat="43.1499764958168" lon="12.824383561598532"><ele>804.3333333333334</ele><time>2026-04-26T09:53:26.998Z</time></trkpt><trkpt lat="43.15008735579951" lon="12.82446813666718"><ele>805.6666666666667</ele><time>2026-04-26T09:53:28.998Z</time></trkpt><trkpt lat="43.15015904559996" lon="12.824483898153572"><ele>807.0</ele><time>2026-04-26T09:53:29.998Z</time></trkpt><trkpt lat="43.15022994703695" lon="12.824501798690342"><ele>808.3333333333333</ele><time>2026-04-26T09:53:30.998Z</time></trkpt><trkpt lat="43.150296064650604" lon="12.824537170572858"><ele>809.6666666666666</ele><time>2026-04-26T09:53:31.998Z</time></trkpt><trkpt lat="43.1503548501614" lon="12.824592380985328"><ele>811.0</ele><time>2026-04-26T09:53:32.997Z</time></trkpt><trkpt lat="43.15040983348277" lon="12.824656416174463"><ele>810.9999999999999</ele><time>2026-04-26T09:53:33.997Z</time></trkpt><trkpt lat="43.150455827719114" lon="12.82472357065769"><ele>811.0</ele><time>2026-04-26T09:53:34.997Z</time></trkpt><trkpt lat="43.15049832808262" lon="12.8247899461173"><ele>811.0</ele><time>2026-04-26T09:53:35.997Z</time></trkpt><trkpt lat="43.150526440913694" lon="12.824895276441037"><ele>811.0</ele><time>2026-04-26T09:53:36.997Z</time></trkpt><trkpt lat="43.150580339719504" lon="12.825008986619693"><ele>810.9999999999999</ele><time>2026-04-26T09:53:37.997Z</time></trkpt><trkpt lat="43.150619300442976" lon="12.825152925312741"><ele>811.0</ele><time>2026-04-26T09:53:39Z</time></trkpt><trkpt lat="43.1506582411291" lon="12.825299212057267"><ele>810.1999999999999</ele><time>2026-04-26T09:53:40Z</time></trkpt><trkpt lat="43.15070719624721" lon="12.82544592260831"><ele>809.4</ele><time>2026-04-26T09:53:41Z</time></trkpt><trkpt lat="43.15075722756789" lon="12.825573752825289"><ele>808.6</ele><time>2026-04-26T09:53:42Z</time></trkpt><trkpt lat="43.150814889167606" lon="12.825679741966995"><ele>807.8</ele><time>2026-04-26T09:53:43Z</time></trkpt><trkpt lat="43.15088394696672" lon="12.825762378997528"><ele>807.0</ele><time>2026-04-26T09:53:44Z</time></trkpt><trkpt lat="43.15095809250867" lon="12.825820293255275"><ele>807.0</ele><time>2026-04-26T09:53:45Z</time></trkpt><trkpt lat="43.15100396232387" lon="12.825904009561711"><ele>807.0</ele><time>2026-04-26T09:53:46Z</time></trkpt><trkpt lat="43.15105896322291" lon="12.825975967514557"><ele>807.0</ele><time>2026-04-26T09:53:47Z</time></trkpt><trkpt lat="43.15110452232911" lon="12.826043286041347"><ele>807.0</ele><time>2026-04-26T09:53:48Z</time></trkpt><trkpt lat="43.151153152480106" lon="12.826113127525499"><ele>807.0</ele><time>2026-04-26T09:53:49Z</time></trkpt><trkpt lat="43.15121433104077" lon="12.826198278484219"><ele>807.0</ele><time>2026-04-26T09:53:50Z</time></trkpt><trkpt lat="43.151259705632064" lon="12.82631131098849"><ele>811.25</ele><time>2026-04-26T09:53:51Z</time></trkpt><trkpt lat="43.15132825979276" lon="12.826427873492104"><ele>815.5</ele><time>2026-04-26T09:53:52Z</time></trkpt><trkpt lat="43.15139486481198" lon="12.826558268336377"><ele>819.75</ele><time>2026-04-26T09:53:53Z</time></trkpt><trkpt lat="43.151460518206065" lon="12.826699395486683"><ele>824.0</ele><time>2026-04-26T09:53:54Z</time></trkpt><trkpt lat="43.151522418392666" lon="12.826840640214524"><ele>820.6</ele><time>2026-04-26T09:53:55Z</time></trkpt><trkpt lat="43.15158011124761" lon="12.82697550481307"><ele>817.2</ele><time>2026-04-26T09:53:56Z</time></trkpt><trkpt lat="43.151624710053895" lon="12.827104481251757"><ele>813.8000000000001</ele><time>2026-04-26T09:53:57Z</time></trkpt><trkpt lat="43.15168218034745" lon="12.827215491819498"><ele>810.4000000000001</ele><time>2026-04-26T09:53:58Z</time></trkpt><trkpt lat="43.151739076460345" lon="12.8273196042227"><ele>807.0</ele><time>2026-04-26T09:53:59Z</time></trkpt><trkpt lat="43.15179737194559" lon="12.827424221242511"><ele>807.0</ele><time>2026-04-26T09:54:00Z</time></trkpt><trkpt lat="43.151851137902916" lon="12.827527142884469"><ele>807.0</ele><time>2026-04-26T09:54:01Z</time></trkpt><trkpt lat="43.15190156217707" lon="12.827625423344815"><ele>807.0</ele><time>2026-04-26T09:54:02Z</time></trkpt><trkpt lat="43.15194282563221" lon="12.827738031589977"><ele>807.0</ele><time>2026-04-26T09:54:03Z</time></trkpt><trkpt lat="43.15199783468349" lon="12.82785514906788"><ele>807.0</ele><time>2026-04-26T09:54:03.999Z</time></trkpt><trkpt lat="43.152056884489994" lon="12.827980869547282"><ele>813.0</ele><time>2026-04-26T09:54:04.999Z</time></trkpt><trkpt lat="43.152118871579795" lon="12.828115495010282"><ele>819.0</ele><time>2026-04-26T09:54:05.999Z</time></trkpt><trkpt lat="43.15218183500226" lon="12.82825845827903"><ele>825.0</ele><time>2026-04-26T09:54:06.999Z</time></trkpt><trkpt lat="43.152255767824045" lon="12.82840312423722"><ele>831.0</ele><time>2026-04-26T09:54:07.999Z</time></trkpt><trkpt lat="43.152313267865026" lon="12.828565683420246"><ele>825.75</ele><time>2026-04-26T09:54:08.999Z</time></trkpt><trkpt lat="43.15237103437024" lon="12.828730639903052"><ele>820.5</ele><time>2026-04-26T09:54:09.999Z</time></trkpt><trkpt lat="43.152423472646305" lon="12.82889545600513"><ele>815.25</ele><time>2026-04-26T09:54:10.999Z</time></trkpt><trkpt lat="43.152469557985" lon="12.829046900882238"><ele>810.0</ele><time>2026-04-26T09:54:11.999Z</time></trkpt><trkpt lat="43.152539825900575" lon="12.829170107843353"><ele>810.0</ele><time>2026-04-26T09:54:12.999Z</time></trkpt><trkpt lat="43.152622525835376" lon="12.829260596139944"><ele>810.0</ele><time>2026-04-26T09:54:13.999Z</time></trkpt><trkpt lat="43.15270986854459" lon="12.829308155495083"><ele>810.0</ele><time>2026-04-26T09:54:14.999Z</time></trkpt><trkpt lat="43.15279127097534" lon="12.82934925693907"><ele>810.0</ele><time>2026-04-26T09:54:15.999Z</time></trkpt><trkpt lat="43.15287427364719" lon="12.829405506870629"><ele>810.0</ele><time>2026-04-26T09:54:16.999Z</time></trkpt><trkpt lat="43.1529643878771" lon="12.82943942213987"><ele>811.6</ele><time>2026-04-26T09:54:17.999Z</time></trkpt><trkpt lat="43.15305427887112" lon="12.829479444704077"><ele>813.2</ele><time>2026-04-26T09:54:18.999Z</time></trkpt><trkpt lat="43.153145735637565" lon="12.829524959698844"><ele>814.8</ele><time>2026-04-26T09:54:19.999Z</time></trkpt><trkpt lat="43.153230146858505" lon="12.829572674845682"><ele>816.4</ele><time>2026-04-26T09:54:20.999Z</time></trkpt><trkpt lat="43.15331331005874" lon="12.829622658609232"><ele>818.0</ele><time>2026-04-26T09:54:21.999Z</time></trkpt><trkpt lat="43.15338133719352" lon="12.829670601857968"><ele>818.0000000000001</ele><time>2026-04-26T09:54:22.999Z</time></trkpt><trkpt lat="43.15344390177769" lon="12.829733586344942"><ele>818.0</ele><time>2026-04-26T09:54:23.999Z</time></trkpt><trkpt lat="43.153503442262334" lon="12.829807448801482"><ele>818.0</ele><time>2026-04-26T09:54:24.999Z</time></trkpt><trkpt lat="43.15356265872736" lon="12.829889631552298"><ele>818.0</ele><time>2026-04-26T09:54:25.999Z</time></trkpt><trkpt lat="43.15361111736232" lon="12.82997547860667"><ele>818.0000000000001</ele><time>2026-04-26T09:54:26.999Z</time></trkpt><trkpt lat="43.15367043539161" lon="12.83010631103523"><ele>818.0</ele><time>2026-04-26T09:54:28.999Z</time></trkpt><trkpt lat="43.15372056208196" lon="12.83025269542841"><ele>821.4</ele><time>2026-04-26T09:54:30.999Z</time></trkpt><trkpt lat="43.1537583225371" lon="12.830424734274702"><ele>824.8</ele><time>2026-04-26T09:54:32.999Z</time></trkpt><trkpt lat="43.153776899921326" lon="12.83051225864984"><ele>828.2</ele><time>2026-04-26T09:54:33.999Z</time></trkpt><trkpt lat="43.15380723339839" lon="12.83067702629508"><ele>831.6</ele><time>2026-04-26T09:54:35.999Z</time></trkpt><trkpt lat="43.1538122700556" lon="12.830767594192672"><ele>835.0</ele><time>2026-04-26T09:54:36.999Z</time></trkpt><trkpt lat="43.15380871318666" lon="12.830855402492222"><ele>835.0000000000001</ele><time>2026-04-26T09:54:37.999Z</time></trkpt><trkpt lat="43.15380155197846" lon="12.830942044874474"><ele>835.0</ele><time>2026-04-26T09:54:38.999Z</time></trkpt><trkpt lat="43.15379410084849" lon="12.831030246542069"><ele>835.0</ele><time>2026-04-26T09:54:39.999Z</time></trkpt><trkpt lat="43.15378664427184" lon="12.831118512670706"><ele>835.0</ele><time>2026-04-26T09:54:40.999Z</time></trkpt><trkpt lat="43.15377881461987" lon="12.831211195030427"><ele>835.0</ele><time>2026-04-26T09:54:41.999Z</time></trkpt><trkpt lat="43.153763753916444" lon="12.831374580948282"><ele>835.0000000000001</ele><time>2026-04-26T09:54:43.999Z</time></trkpt><trkpt lat="43.15375556056531" lon="12.831461066363653"><ele>835.0</ele><time>2026-04-26T09:54:44.999Z</time></trkpt><trkpt lat="43.15374634631812" lon="12.83155228979547"><ele>838.0</ele><time>2026-04-26T09:54:45.999Z</time></trkpt><trkpt lat="43.15373712702058" lon="12.831642135007701"><ele>841.0</ele><time>2026-04-26T09:54:46.999Z</time></trkpt><trkpt lat="43.15372742822732" lon="12.831736653130932"><ele>844.0</ele><time>2026-04-26T09:54:47.999Z</time></trkpt><trkpt lat="43.15371778273134" lon="12.831828574013814"><ele>847.0</ele><time>2026-04-26T09:54:48.998Z</time></trkpt><trkpt lat="43.15369986389671" lon="12.831993497596288"><ele>850.0</ele><time>2026-04-26T09:54:50.998Z</time></trkpt><trkpt lat="43.15367970309436" lon="12.832167071873892"><ele>852.6666666666666</ele><time>2026-04-26T09:54:52.998Z</time></trkpt><trkpt lat="43.153683147865124" lon="12.832266253910499"><ele>855.3333333333333</ele><time>2026-04-26T09:54:53.998Z</time></trkpt><trkpt lat="43.1536701943496" lon="12.83235950889187"><ele>858.0</ele><time>2026-04-26T09:54:54.998Z</time></trkpt><trkpt lat="43.15365820206843" lon="12.83245227864073"><ele>860.6666666666667</ele><time>2026-04-26T09:54:55.998Z</time></trkpt><trkpt lat="43.153645446537595" lon="12.832545530626604"><ele>863.3333333333334</ele><time>2026-04-26T09:54:56.998Z</time></trkpt><trkpt lat="43.15362542172139" lon="12.83271727032438"><ele>866.0</ele><time>2026-04-26T09:54:58.998Z</time></trkpt><trkpt lat="43.15360635011293" lon="12.832818377472716"><ele>866.8571428571428</ele><time>2026-04-26T09:54:59.998Z</time></trkpt><trkpt lat="43.153580843198384" lon="12.832912173729252"><ele>867.7142857142857</ele><time>2026-04-26T09:55:00.998Z</time></trkpt><trkpt lat="43.15356475202694" lon="12.833017107409185"><ele>868.5714285714286</ele><time>2026-04-26T09:55:01.998Z</time></trkpt><trkpt lat="43.153547584996005" lon="12.83312161111736"><ele>869.4285714285713</ele><time>2026-04-26T09:55:02.998Z</time></trkpt><trkpt lat="43.153531822942426" lon="12.833214414644825"><ele>870.2857142857143</ele><time>2026-04-26T09:55:03.998Z</time></trkpt><trkpt lat="43.15351702953519" lon="12.833301514935185"><ele>871.1428571428571</ele><time>2026-04-26T09:55:04.998Z</time></trkpt><trkpt lat="43.15351572279787" lon="12.833397310138164"><ele>872.0</ele><time>2026-04-26T09:55:05.998Z</time></trkpt><trkpt lat="43.15349353545148" lon="12.833482239431023"><ele>872.0</ele><time>2026-04-26T09:55:06.998Z</time></trkpt><trkpt lat="43.1534757221373" lon="12.833583997814573"><ele>872.0</ele><time>2026-04-26T09:55:07.998Z</time></trkpt><trkpt lat="43.15344410331012" lon="12.833679043478572"><ele>872.0</ele><time>2026-04-26T09:55:08.998Z</time></trkpt><trkpt lat="43.153429346572" lon="12.833770950023105"><ele>872.0</ele><time>2026-04-26T09:55:09.998Z</time></trkpt><trkpt lat="43.15343270398407" lon="12.833863060784042"><ele>872.0</ele><time>2026-04-26T09:55:10.998Z</time></trkpt><trkpt lat="43.153412064461776" lon="12.833946341623838"><ele>872.0</ele><time>2026-04-26T09:55:11.998Z</time></trkpt><trkpt lat="43.15335835293639" lon="12.834007041574921"><ele>872.0</ele><time>2026-04-26T09:55:12.998Z</time></trkpt><trkpt lat="43.15324289326338" lon="12.834043436310793"><ele>868.6666666666667</ele><time>2026-04-26T09:55:14.998Z</time></trkpt><trkpt lat="43.15312388613655" lon="12.833972198652573"><ele>865.3333333333334</ele><time>2026-04-26T09:55:16.998Z</time></trkpt><trkpt lat="43.15305305743759" lon="12.833943867244257"><ele>862.0</ele><time>2026-04-26T09:55:17.998Z</time></trkpt><trkpt lat="43.15298510386934" lon="12.833930721665716"><ele>858.6666666666667</ele><time>2026-04-26T09:55:18.998Z</time></trkpt><trkpt lat="43.152929204584865" lon="12.83397581892936"><ele>855.3333333333334</ele><time>2026-04-26T09:55:19.998Z</time></trkpt><trkpt lat="43.15286974268351" lon="12.834104301600345"><ele>852.0</ele><time>2026-04-26T09:55:21.998Z</time></trkpt><trkpt lat="43.152803841354505" lon="12.834239848276495"><ele>852.0</ele><time>2026-04-26T09:55:23.998Z</time></trkpt><trkpt lat="43.152766468912446" lon="12.834323243940645"><ele>852.0</ele><time>2026-04-26T09:55:24.998Z</time></trkpt><trkpt lat="43.15272662934773" lon="12.834412144922442"><ele>852.0</ele><time>2026-04-26T09:55:25.998Z</time></trkpt><trkpt lat="43.15276845914384" lon="12.83459031632143"><ele>852.0</ele><time>2026-04-26T09:55:26.998Z</time></trkpt><trkpt lat="43.15274096165126" lon="12.83473795610462"><ele>852.0</ele><time>2026-04-26T09:55:27.998Z</time></trkpt><trkpt lat="43.152696892883206" lon="12.83488882513263"><ele>852.0</ele><time>2026-04-26T09:55:28.998Z</time></trkpt><trkpt lat="43.15264170803124" lon="12.835052279610505"><ele>852.0</ele><time>2026-04-26T09:55:29.998Z</time></trkpt><trkpt lat="43.152591965291286" lon="12.835220801584068"><ele>852.0</ele><time>2026-04-26T09:55:30.998Z</time></trkpt><trkpt lat="43.15255085361889" lon="12.835385811445907"><ele>852.0</ele><time>2026-04-26T09:55:31.998Z</time></trkpt><trkpt lat="43.15253288275989" lon="12.835553603730373"><ele>851.75</ele><time>2026-04-26T09:55:32.998Z</time></trkpt><trkpt lat="43.15254601611664" lon="12.83571661583012"><ele>851.5</ele><time>2026-04-26T09:55:33.998Z</time></trkpt><trkpt lat="43.15258204878048" lon="12.83587153638235"><ele>851.25</ele><time>2026-04-26T09:55:34.997Z</time></trkpt><trkpt lat="43.15264825849321" lon="12.836008935299994"><ele>851.0</ele><time>2026-04-26T09:55:35.997Z</time></trkpt><trkpt lat="43.15269839292689" lon="12.836158914727267"><ele>849.5</ele><time>2026-04-26T09:55:36.997Z</time></trkpt><trkpt lat="43.15275114706556" lon="12.836313829371525"><ele>848.0</ele><time>2026-04-26T09:55:37.997Z</time></trkpt><trkpt lat="43.15280877521708" lon="12.836477301176519"><ele>846.5</ele><time>2026-04-26T09:55:38.997Z</time></trkpt><trkpt lat="43.15288377035913" lon="12.836637827854299"><ele>845.0</ele><time>2026-04-26T09:55:39.997Z</time></trkpt><trkpt lat="43.152993711084285" lon="12.836784846034993"><ele>843.0</ele><time>2026-04-26T09:55:40.997Z</time></trkpt><trkpt lat="43.15311277564252" lon="12.83694036845519"><ele>841.0</ele><time>2026-04-26T09:55:41.997Z</time></trkpt><trkpt lat="43.15323606235714" lon="12.837075581878322"><ele>839.0</ele><time>2026-04-26T09:55:42.997Z</time></trkpt><trkpt lat="43.15335165254815" lon="12.837209941192308"><ele>839.0</ele><time>2026-04-26T09:55:43.997Z</time></trkpt><trkpt lat="43.15341780958239" lon="12.837380735716948"><ele>839.0</ele><time>2026-04-26T09:55:45Z</time></trkpt><trkpt lat="43.153480012934956" lon="12.837539796203544"><ele>839.0</ele><time>2026-04-26T09:55:46Z</time></trkpt><trkpt lat="43.15354944926774" lon="12.837679951939633"><ele>839.0</ele><time>2026-04-26T09:55:47Z</time></trkpt><trkpt lat="43.153608908908275" lon="12.837832200549169"><ele>834.0</ele><time>2026-04-26T09:55:48Z</time></trkpt><trkpt lat="43.153682685792155" lon="12.837995029368587"><ele>829.0</ele><time>2026-04-26T09:55:49Z</time></trkpt><trkpt lat="43.15378350345901" lon="12.838141131603198"><ele>824.0</ele><time>2026-04-26T09:55:50Z</time></trkpt><trkpt lat="43.153882300613944" lon="12.838293456489687"><ele>819.0</ele><time>2026-04-26T09:55:51Z</time></trkpt><trkpt lat="43.15396607991778" lon="12.838468159408775"><ele>819.0</ele><time>2026-04-26T09:55:52Z</time></trkpt><trkpt lat="43.15405112741866" lon="12.838646809532765"><ele>819.0</ele><time>2026-04-26T09:55:53Z</time></trkpt><trkpt lat="43.154113873477364" lon="12.838838838315443"><ele>819.0</ele><time>2026-04-26T09:55:54Z</time></trkpt><trkpt lat="43.15417586235631" lon="12.839022883580082"><ele>819.0</ele><time>2026-04-26T09:55:55Z</time></trkpt><trkpt lat="43.15425971189146" lon="12.839194242406858"><ele>819.0</ele><time>2026-04-26T09:55:56Z</time></trkpt><trkpt lat="43.1543633991992" lon="12.83933898320439"><ele>819.0</ele><time>2026-04-26T09:55:57Z</time></trkpt><trkpt lat="43.15446983339474" lon="12.839470636842623"><ele>819.0</ele><time>2026-04-26T09:55:58Z</time></trkpt><trkpt lat="43.154557389140095" lon="12.839620201355535"><ele>812.5</ele><time>2026-04-26T09:55:59Z</time></trkpt><trkpt lat="43.15464087002322" lon="12.839757891871553"><ele>806.0</ele><time>2026-04-26T09:56:00Z</time></trkpt><trkpt lat="43.154711690346176" lon="12.839900228013976"><ele>799.5</ele><time>2026-04-26T09:56:01Z</time></trkpt><trkpt lat="43.15476847948469" lon="12.840045281757988"><ele>793.0</ele><time>2026-04-26T09:56:02Z</time></trkpt><trkpt lat="43.15480639457592" lon="12.840207536741119"><ele>798.0</ele><time>2026-04-26T09:56:02.999Z</time></trkpt><trkpt lat="43.15484690342438" lon="12.840375933567383"><ele>803.0</ele><time>2026-04-26T09:56:03.999Z</time></trkpt><trkpt lat="43.154867036319736" lon="12.840538408063795"><ele>808.0</ele><time>2026-04-26T09:56:04.999Z</time></trkpt><trkpt lat="43.15491705174052" lon="12.840678978945594"><ele>813.0</ele><time>2026-04-26T09:56:05.999Z</time></trkpt><trkpt lat="43.15499929014613" lon="12.840797139759502"><ele>813.0</ele><time>2026-04-26T09:56:06.999Z</time></trkpt><trkpt lat="43.15509416523778" lon="12.840889885042461"><ele>813.0</ele><time>2026-04-26T09:56:07.999Z</time></trkpt><trkpt lat="43.155197794597434" lon="12.840970386807145"><ele>813.0</ele><time>2026-04-26T09:56:08.999Z</time></trkpt><trkpt lat="43.155312511707805" lon="12.841045689456333"><ele>813.0</ele><time>2026-04-26T09:56:09.999Z</time></trkpt><trkpt lat="43.155430009857476" lon="12.84115152784577"><ele>811.25</ele><time>2026-04-26T09:56:10.999Z</time></trkpt><trkpt lat="43.15556508577497" lon="12.841231955559211"><ele>809.5</ele><time>2026-04-26T09:56:11.999Z</time></trkpt><trkpt lat="43.15569387939827" lon="12.841326544133013"><ele>807.75</ele><time>2026-04-26T09:56:12.999Z</time></trkpt><trkpt lat="43.15582291663458" lon="12.841416138802032"><ele>806.0</ele><time>2026-04-26T09:56:13.999Z</time></trkpt><trkpt lat="43.15595916260938" lon="12.841478902399293"><ele>806.0</ele><time>2026-04-26T09:56:14.999Z</time></trkpt><trkpt lat="43.15609873848561" lon="12.84150656535736"><ele>806.0</ele><time>2026-04-26T09:56:15.999Z</time></trkpt><trkpt lat="43.15623976679189" lon="12.841509641831511"><ele>806.0</ele><time>2026-04-26T09:56:16.999Z</time></trkpt><trkpt lat="43.15637959525457" lon="12.841496087286874"><ele>806.0</ele><time>2026-04-26T09:56:17.999Z</time></trkpt><trkpt lat="43.1565213287351" lon="12.841465606112184"><ele>808.6666666666667</ele><time>2026-04-26T09:56:18.999Z</time></trkpt><trkpt lat="43.15666942058928" lon="12.841445514995677"><ele>811.3333333333333</ele><time>2026-04-26T09:56:19.999Z</time></trkpt><trkpt lat="43.15682424038635" lon="12.841451092566324"><ele>814.0</ele><time>2026-04-26T09:56:20.999Z</time></trkpt><trkpt lat="43.15698137869058" lon="12.841483283499292"><ele>814.0</ele><time>2026-04-26T09:56:21.999Z</time></trkpt><trkpt lat="43.157142904667666" lon="12.841522357896856"><ele>814.0</ele><time>2026-04-26T09:56:22.999Z</time></trkpt><trkpt lat="43.157302088054045" lon="12.84155503955855"><ele>814.0</ele><time>2026-04-26T09:56:23.999Z</time></trkpt><trkpt lat="43.157462328906334" lon="12.84158762103521"><ele>813.6666666666666</ele><time>2026-04-26T09:56:24.999Z</time></trkpt><trkpt lat="43.15762769970075" lon="12.841622676964285"><ele>813.3333333333333</ele><time>2026-04-26T09:56:25.999Z</time></trkpt><trkpt lat="43.15779963605772" lon="12.841655619253334"><ele>813.0</ele><time>2026-04-26T09:56:26.999Z</time></trkpt><trkpt lat="43.15797823435838" lon="12.84168667697921"><ele>813.0</ele><time>2026-04-26T09:56:27.999Z</time></trkpt><trkpt lat="43.15816375952087" lon="12.841717230307436"><ele>813.0</ele><time>2026-04-26T09:56:28.999Z</time></trkpt><trkpt lat="43.15835130019546" lon="12.841748925758504"><ele>813.0</ele><time>2026-04-26T09:56:29.999Z</time></trkpt><trkpt lat="43.15853467821517" lon="12.841789326645346"><ele>815.0</ele><time>2026-04-26T09:56:30.999Z</time></trkpt><trkpt lat="43.15871484061312" lon="12.841837606510934"><ele>817.0</ele><time>2026-04-26T09:56:31.999Z</time></trkpt><trkpt lat="43.158894751024164" lon="12.841877209222995"><ele>819.0</ele><time>2026-04-26T09:56:32.999Z</time></trkpt><trkpt lat="43.15907672497076" lon="12.841905817494562"><ele>815.0</ele><time>2026-04-26T09:56:33.999Z</time></trkpt><trkpt lat="43.159255616982094" lon="12.841929134401473"><ele>811.0</ele><time>2026-04-26T09:56:34.999Z</time></trkpt><trkpt lat="43.159434295987786" lon="12.841965585908543"><ele>807.0</ele><time>2026-04-26T09:56:35.999Z</time></trkpt><trkpt lat="43.15961345695458" lon="12.842024165908624"><ele>807.0</ele><time>2026-04-26T09:56:36.999Z</time></trkpt><trkpt lat="43.15978553572884" lon="12.842078277033067"><ele>807.0</ele><time>2026-04-26T09:56:37.999Z</time></trkpt><trkpt lat="43.159934827103065" lon="12.842109630343304"><ele>807.0</ele><time>2026-04-26T09:56:38.999Z</time></trkpt><trkpt lat="43.16006063676578" lon="12.842101948590631"><ele>804.0</ele><time>2026-04-26T09:56:39.999Z</time></trkpt><trkpt lat="43.16017076680468" lon="12.84212554289124"><ele>801.0</ele><time>2026-04-26T09:56:40.999Z</time></trkpt><trkpt lat="43.160303523434884" lon="12.84211646552047"><ele>798.0</ele><time>2026-04-26T09:56:41.999Z</time></trkpt><trkpt lat="43.16045561891934" lon="12.842101334156915"><ele>795.0</ele><time>2026-04-26T09:56:42.999Z</time></trkpt><trkpt lat="43.16062193965268" lon="12.842088646503274"><ele>790.0</ele><time>2026-04-26T09:56:43.999Z</time></trkpt><trkpt lat="43.160799101988026" lon="12.842077019830489"><ele>785.0</ele><time>2026-04-26T09:56:44.999Z</time></trkpt><trkpt lat="43.16098460773122" lon="12.842065889506324"><ele>780.0</ele><time>2026-04-26T09:56:45.999Z</time></trkpt><trkpt lat="43.1611760944217" lon="12.842053872851952"><ele>780.0</ele><time>2026-04-26T09:56:46.999Z</time></trkpt><trkpt lat="43.1613737457698" lon="12.8420436206021"><ele>780.0</ele><time>2026-04-26T09:56:47.999Z</time></trkpt><trkpt lat="43.161576844893176" lon="12.84205792417345"><ele>780.0</ele><time>2026-04-26T09:56:48.999Z</time></trkpt><trkpt lat="43.161781638857924" lon="12.842064226731084"><ele>777.0</ele><time>2026-04-26T09:56:49.999Z</time></trkpt><trkpt lat="43.16198421490604" lon="12.842056682221898"><ele>774.0</ele><time>2026-04-26T09:56:50.999Z</time></trkpt><trkpt lat="43.162182885701796" lon="12.842080906334454"><ele>771.0</ele><time>2026-04-26T09:56:51.998Z</time></trkpt><trkpt lat="43.16237651352548" lon="12.842100568142063"><ele>767.0</ele><time>2026-04-26T09:56:52.998Z</time></trkpt><trkpt lat="43.16256575220922" lon="12.842106416702466"><ele>763.0</ele><time>2026-04-26T09:56:53.998Z</time></trkpt><trkpt lat="43.16275136600396" lon="12.842097110549025"><ele>759.0</ele><time>2026-04-26T09:56:54.998Z</time></trkpt><trkpt lat="43.162931784805465" lon="12.84207075271706"><ele>759.0</ele><time>2026-04-26T09:56:55.998Z</time></trkpt><trkpt lat="43.163102650816654" lon="12.84202815026563"><ele>759.0</ele><time>2026-04-26T09:56:56.998Z</time></trkpt><trkpt lat="43.16327473102082" lon="12.841999829534762"><ele>759.0</ele><time>2026-04-26T09:56:57.998Z</time></trkpt><trkpt lat="43.16343939372363" lon="12.841958795402247"><ele>758.0</ele><time>2026-04-26T09:56:58.998Z</time></trkpt><trkpt lat="43.16360509820129" lon="12.841917501636308"><ele>757.0</ele><time>2026-04-26T09:56:59.998Z</time></trkpt><trkpt lat="43.163767760132224" lon="12.841867690639715"><ele>756.0</ele><time>2026-04-26T09:57:00.998Z</time></trkpt><trkpt lat="43.16393498915495" lon="12.841853015385437"><ele>755.3333333333334</ele><time>2026-04-26T09:57:01.998Z</time></trkpt><trkpt lat="43.164101809657865" lon="12.841839723605096"><ele>754.6666666666667</ele><time>2026-04-26T09:57:02.998Z</time></trkpt><trkpt lat="43.16426535016979" lon="12.841825091170145"><ele>754.0</ele><time>2026-04-26T09:57:03.998Z</time></trkpt><trkpt lat="43.16442695167593" lon="12.841837464992276"><ele>754.0</ele><time>2026-04-26T09:57:04.998Z</time></trkpt><trkpt lat="43.1645851135007" lon="12.84181790501892"><ele>754.0</ele><time>2026-04-26T09:57:05.998Z</time></trkpt><trkpt lat="43.164740802643664" lon="12.841756402272688"><ele>754.0</ele><time>2026-04-26T09:57:06.998Z</time></trkpt><trkpt lat="43.164882411212226" lon="12.841653887262007"><ele>744.6666666666667</ele><time>2026-04-26T09:57:07.998Z</time></trkpt><trkpt lat="43.16502166989509" lon="12.841555903341531"><ele>735.3333333333334</ele><time>2026-04-26T09:57:08.998Z</time></trkpt><trkpt lat="43.165148854262036" lon="12.841433199054148"><ele>726.0</ele><time>2026-04-26T09:57:09.998Z</time></trkpt><trkpt lat="43.165277882940806" lon="12.841315468028274"><ele>726.0</ele><time>2026-04-26T09:57:10.998Z</time></trkpt><trkpt lat="43.165398767906176" lon="12.841196871359775"><ele>726.0</ele><time>2026-04-26T09:57:11.998Z</time></trkpt><trkpt lat="43.165514158369206" lon="12.841075620186889"><ele>726.0</ele><time>2026-04-26T09:57:12.998Z</time></trkpt><trkpt lat="43.16561436925568" lon="12.84096020761338"><ele>726.0</ele><time>2026-04-26T09:57:13.998Z</time></trkpt><trkpt lat="43.165703873647296" lon="12.84086572080729"><ele>724.5999999999999</ele><time>2026-04-26T09:57:14.998Z</time></trkpt><trkpt lat="43.1657866755366" lon="12.84080320233802"><ele>723.2</ele><time>2026-04-26T09:57:15.998Z</time></trkpt><trkpt lat="43.165881006762305" lon="12.840813670165286"><ele>721.8</ele><time>2026-04-26T09:57:16.998Z</time></trkpt><trkpt lat="43.165992797539495" lon="12.840839910292456"><ele>720.4000000000001</ele><time>2026-04-26T09:57:17.998Z</time></trkpt><trkpt lat="43.16612146516478" lon="12.840865736178825"><ele>719.0</ele><time>2026-04-26T09:57:18.998Z</time></trkpt><trkpt lat="43.16625564205606" lon="12.840842665165738"><ele>719.0</ele><time>2026-04-26T09:57:19.998Z</time></trkpt><trkpt lat="43.166396094395544" lon="12.840784915421658"><ele>719.0</ele><time>2026-04-26T09:57:20.998Z</time></trkpt><trkpt lat="43.16653803433543" lon="12.84072816256938"><ele>719.0</ele><time>2026-04-26T09:57:21.998Z</time></trkpt><trkpt lat="43.1666741335975" lon="12.840660686966581"><ele>719.0</ele><time>2026-04-26T09:57:22.998Z</time></trkpt><trkpt lat="43.16679885851141" lon="12.840579806326968"><ele>716.25</ele><time>2026-04-26T09:57:23.998Z</time></trkpt><trkpt lat="43.166915355017544" lon="12.840482903934706"><ele>713.5</ele><time>2026-04-26T09:57:24.998Z</time></trkpt><trkpt lat="43.167024055764855" lon="12.840423845468061"><ele>710.75</ele><time>2026-04-26T09:57:25.998Z</time></trkpt><trkpt lat="43.167126787871354" lon="12.840420528302241"><ele>708.0</ele><time>2026-04-26T09:57:26.998Z</time></trkpt><trkpt lat="43.167216024993444" lon="12.84048710979288"><ele>708.0</ele><time>2026-04-26T09:57:27.998Z</time></trkpt><trkpt lat="43.16727190366988" lon="12.84060609394243"><ele>708.0</ele><time>2026-04-26T09:57:28.998Z</time></trkpt><trkpt lat="43.167287899068164" lon="12.840744470067511"><ele>708.0</ele><time>2026-04-26T09:57:29.998Z</time></trkpt><trkpt lat="43.16732723726761" lon="12.84087555452986"><ele>708.0</ele><time>2026-04-26T09:57:30.998Z</time></trkpt><trkpt lat="43.16742089973385" lon="12.840975932758086"><ele>708.0</ele><time>2026-04-26T09:57:31.998Z</time></trkpt><trkpt lat="43.167540988897" lon="12.841060937512808"><ele>709.0</ele><time>2026-04-26T09:57:32.998Z</time></trkpt><trkpt lat="43.16766942636153" lon="12.841154556695244"><ele>710.0</ele><time>2026-04-26T09:57:33.998Z</time></trkpt><trkpt lat="43.16780095085693" lon="12.841255882892863"><ele>711.0</ele><time>2026-04-26T09:57:34.998Z</time></trkpt><trkpt lat="43.167940325087045" lon="12.841358003705864"><ele>711.0</ele><time>2026-04-26T09:57:35.998Z</time></trkpt><trkpt lat="43.168090535462646" lon="12.841465418543063"><ele>711.0</ele><time>2026-04-26T09:57:36.998Z</time></trkpt><trkpt lat="43.16824273425367" lon="12.8415746088457"><ele>711.0</ele><time>2026-04-26T09:57:37.997Z</time></trkpt><trkpt lat="43.16839442578797" lon="12.84168095206485"><ele>710.5</ele><time>2026-04-26T09:57:38.997Z</time></trkpt><trkpt lat="43.16853025250767" lon="12.841784920644848"><ele>710.0</ele><time>2026-04-26T09:57:39.997Z</time></trkpt><trkpt lat="43.1686552129715" lon="12.841888939583107"><ele>709.5</ele><time>2026-04-26T09:57:40.997Z</time></trkpt><trkpt lat="43.16876045619241" lon="12.841985964013913"><ele>709.0</ele><time>2026-04-26T09:57:41.997Z</time></trkpt><trkpt lat="43.16885286407035" lon="12.84209025368429"><ele>709.0</ele><time>2026-04-26T09:57:42.997Z</time></trkpt><trkpt lat="43.16893095081331" lon="12.84218822753933"><ele>709.0</ele><time>2026-04-26T09:57:43.997Z</time></trkpt><trkpt lat="43.16899139471498" lon="12.84226797641824"><ele>709.0</ele><time>2026-04-26T09:57:44.997Z</time></trkpt><trkpt lat="43.16908284739651" lon="12.842277790844069"><ele>709.0</ele><time>2026-04-26T09:57:46.997Z</time></trkpt><trkpt lat="43.16908761945586" lon="12.842133580635988"><ele>709.0</ele><time>2026-04-26T09:57:48.997Z</time></trkpt><trkpt lat="43.16903319419083" lon="12.842055193694842"><ele>709.0</ele><time>2026-04-26T09:57:49.997Z</time></trkpt><trkpt lat="43.16896868605921" lon="12.841979851377745"><ele>709.0</ele><time>2026-04-26T09:57:51Z</time></trkpt><trkpt lat="43.16889410608407" lon="12.841878589300503"><ele>709.0</ele><time>2026-04-26T09:57:52Z</time></trkpt><trkpt lat="43.168815524769435" lon="12.841755307958293"><ele>709.0</ele><time>2026-04-26T09:57:53Z</time></trkpt><trkpt lat="43.16873408980964" lon="12.841621377567382"><ele>709.0</ele><time>2026-04-26T09:57:54Z</time></trkpt><trkpt lat="43.16864782173674" lon="12.841503513122808"><ele>702.0</ele><time>2026-04-26T09:57:55Z</time></trkpt><trkpt lat="43.16855879393036" lon="12.841403576711725"><ele>695.0</ele><time>2026-04-26T09:57:56Z</time></trkpt><trkpt lat="43.16846668725395" lon="12.841313368489214"><ele>688.0</ele><time>2026-04-26T09:57:57Z</time></trkpt><trkpt lat="43.16838180884336" lon="12.841222826052356"><ele>681.0</ele><time>2026-04-26T09:57:58Z</time></trkpt><trkpt lat="43.16830174288512" lon="12.84114878145484"><ele>674.0</ele><time>2026-04-26T09:57:59Z</time></trkpt><trkpt lat="43.16824748998502" lon="12.841098366153386"><ele>674.0</ele><time>2026-04-26T09:58:00Z</time></trkpt><trkpt lat="43.168273947640735" lon="12.840986849379394"><ele>674.0</ele><time>2026-04-26T09:58:02Z</time></trkpt><trkpt lat="43.16833805414401" lon="12.840970089991174"><ele>674.0</ele><time>2026-04-26T09:58:03Z</time></trkpt><trkpt lat="43.168412601319645" lon="12.84099983269684"><ele>674.0</ele><time>2026-04-26T09:58:04Z</time></trkpt><trkpt lat="43.16850305690336" lon="12.84104951563983"><ele>674.0</ele><time>2026-04-26T09:58:05Z</time></trkpt><trkpt lat="43.16860683127966" lon="12.84110981465069"><ele>674.0</ele><time>2026-04-26T09:58:06Z</time></trkpt><trkpt lat="43.16872792268077" lon="12.841175446456957"><ele>674.0</ele><time>2026-04-26T09:58:07Z</time></trkpt><trkpt lat="43.168854485768954" lon="12.841259271093895"><ele>674.0</ele><time>2026-04-26T09:58:08Z</time></trkpt><trkpt lat="43.168975052680636" lon="12.84137182089773"><ele>674.0</ele><time>2026-04-26T09:58:08.999Z</time></trkpt><trkpt lat="43.169095661307935" lon="12.841508588037938"><ele>674.0</ele><time>2026-04-26T09:58:09.999Z</time></trkpt><trkpt lat="43.16922579734312" lon="12.841649515743134"><ele>674.6666666666666</ele><time>2026-04-26T09:58:10.999Z</time></trkpt><trkpt lat="43.16936412004397" lon="12.841786964652613"><ele>675.3333333333334</ele><time>2026-04-26T09:58:11.999Z</time></trkpt><trkpt lat="43.16951066677034" lon="12.84192676721327"><ele>676.0</ele><time>2026-04-26T09:58:12.999Z</time></trkpt><trkpt lat="43.16965721613614" lon="12.842060004376219"><ele>676.0</ele><time>2026-04-26T09:58:13.999Z</time></trkpt><trkpt lat="43.16980255348882" lon="12.842163589016918"><ele>676.0</ele><time>2026-04-26T09:58:14.999Z</time></trkpt><trkpt lat="43.169946517869604" lon="12.842237481181353"><ele>676.0</ele><time>2026-04-26T09:58:15.999Z</time></trkpt><trkpt lat="43.17009651436166" lon="12.842277509868866"><ele>664.6666666666667</ele><time>2026-04-26T09:58:16.999Z</time></trkpt><trkpt lat="43.170255674784045" lon="12.842293517549766"><ele>653.3333333333334</ele><time>2026-04-26T09:58:17.999Z</time></trkpt><trkpt lat="43.17041681881932" lon="12.842325879985028"><ele>642.0</ele><time>2026-04-26T09:58:18.999Z</time></trkpt><trkpt lat="43.17057692501705" lon="12.842376700850293"><ele>634.6666666666666</ele><time>2026-04-26T09:58:19.999Z</time></trkpt><trkpt lat="43.17074360514002" lon="12.842432252679618"><ele>627.3333333333333</ele><time>2026-04-26T09:58:20.999Z</time></trkpt><trkpt lat="43.17091450330442" lon="12.842475919049361"><ele>620.0</ele><time>2026-04-26T09:58:21.999Z</time></trkpt><trkpt lat="43.17109306788577" lon="12.842510326848625"><ele>620.0</ele><time>2026-04-26T09:58:22.999Z</time></trkpt><trkpt lat="43.17127287860099" lon="12.842542089289184"><ele>620.0</ele><time>2026-04-26T09:58:23.999Z</time></trkpt><trkpt lat="43.17145432498274" lon="12.842567914509443"><ele>620.0</ele><time>2026-04-26T09:58:24.999Z</time></trkpt><trkpt lat="43.17163783766292" lon="12.842594496069733"><ele>624.0</ele><time>2026-04-26T09:58:25.999Z</time></trkpt><trkpt lat="43.171815487279666" lon="12.842623130130788"><ele>628.0</ele><time>2026-04-26T09:58:26.999Z</time></trkpt><trkpt lat="43.171993458432375" lon="12.842657414642746"><ele>632.0</ele><time>2026-04-26T09:58:27.999Z</time></trkpt><trkpt lat="43.172159256051174" lon="12.842699494174926"><ele>632.0</ele><time>2026-04-26T09:58:28.999Z</time></trkpt><trkpt lat="43.172312970665566" lon="12.842738245653685"><ele>632.0</ele><time>2026-04-26T09:58:29.999Z</time></trkpt><trkpt lat="43.17245351571733" lon="12.842765700705662"><ele>632.0</ele><time>2026-04-26T09:58:30.999Z</time></trkpt><trkpt lat="43.17258427707585" lon="12.842789220592548"><ele>632.0</ele><time>2026-04-26T09:58:31.999Z</time></trkpt><trkpt lat="43.17269819358704" lon="12.842809569046018"><ele>628.0</ele><time>2026-04-26T09:58:32.999Z</time></trkpt><trkpt lat="43.172791133775796" lon="12.842843866715697"><ele>624.0</ele><time>2026-04-26T09:58:33.999Z</time></trkpt><trkpt lat="43.17285100940281" lon="12.84289372867366"><ele>620.0</ele><time>2026-04-26T09:58:34.999Z</time></trkpt><trkpt lat="43.17289710937129" lon="12.842956305075916"><ele>616.0</ele><time>2026-04-26T09:58:35.999Z</time></trkpt><trkpt lat="43.17294051263435" lon="12.843037258429764"><ele>612.0</ele><time>2026-04-26T09:58:36.999Z</time></trkpt><trkpt lat="43.172985230410426" lon="12.843129742879384"><ele>608.0</ele><time>2026-04-26T09:58:37.999Z</time></trkpt><trkpt lat="43.173035702161876" lon="12.843237456934002"><ele>608.0</ele><time>2026-04-26T09:58:38.999Z</time></trkpt><trkpt lat="43.1730987622261" lon="12.843342329133844"><ele>608.0</ele><time>2026-04-26T09:58:39.999Z</time></trkpt><trkpt lat="43.17317617871749" lon="12.843445057448946"><ele>608.0</ele><time>2026-04-26T09:58:40.999Z</time></trkpt><trkpt lat="43.17326071078988" lon="12.843542238168373"><ele>608.0</ele><time>2026-04-26T09:58:41.999Z</time></trkpt><trkpt lat="43.1733419892385" lon="12.843636310030366"><ele>608.0</ele><time>2026-04-26T09:58:42.999Z</time></trkpt><trkpt lat="43.17341669428202" lon="12.843734809040402"><ele>606.5</ele><time>2026-04-26T09:58:43.999Z</time></trkpt><trkpt lat="43.173478790678885" lon="12.84385292420029"><ele>605.0</ele><time>2026-04-26T09:58:44.999Z</time></trkpt><trkpt lat="43.17353013196193" lon="12.843988084378466"><ele>603.5</ele><time>2026-04-26T09:58:45.999Z</time></trkpt><trkpt lat="43.17357986664476" lon="12.844130300062726"><ele>602.0</ele><time>2026-04-26T09:58:46.999Z</time></trkpt><trkpt lat="43.17364378095423" lon="12.84427263678305"><ele>607.5</ele><time>2026-04-26T09:58:47.999Z</time></trkpt><trkpt lat="43.173724153841725" lon="12.844406225242947"><ele>613.0</ele><time>2026-04-26T09:58:48.999Z</time></trkpt><trkpt lat="43.17381289165833" lon="12.844524974118535"><ele>618.5</ele><time>2026-04-26T09:58:49.999Z</time></trkpt><trkpt lat="43.17390395819847" lon="12.84464056496158"><ele>624.0</ele><time>2026-04-26T09:58:50.999Z</time></trkpt><trkpt lat="43.17399933627126" lon="12.84475910858572"><ele>623.5</ele><time>2026-04-26T09:58:51.999Z</time></trkpt><trkpt lat="43.17409371643725" lon="12.844882948483432"><ele>623.0</ele><time>2026-04-26T09:58:52.999Z</time></trkpt><trkpt lat="43.17418662680932" lon="12.84499798190978"><ele>622.5</ele><time>2026-04-26T09:58:53.998Z</time></trkpt><trkpt lat="43.17428600164441" lon="12.845106204584573"><ele>622.0</ele><time>2026-04-26T09:58:54.998Z</time></trkpt><trkpt lat="43.17437900675442" lon="12.845196672244633"><ele>622.0</ele><time>2026-04-26T09:58:55.998Z</time></trkpt><trkpt lat="43.174463544719735" lon="12.845278926627516"><ele>622.0</ele><time>2026-04-26T09:58:56.998Z</time></trkpt><trkpt lat="43.17455160359911" lon="12.84535469473401"><ele>622.0</ele><time>2026-04-26T09:58:57.998Z</time></trkpt><trkpt lat="43.174645436920976" lon="12.845426770417033"><ele>622.0</ele><time>2026-04-26T09:58:58.998Z</time></trkpt><trkpt lat="43.17473445071212" lon="12.845502140705422"><ele>622.0</ele><time>2026-04-26T09:58:59.998Z</time></trkpt><trkpt lat="43.17482757905111" lon="12.845591008474935"><ele>615.0</ele><time>2026-04-26T09:59:00.998Z</time></trkpt><trkpt lat="43.174928351903965" lon="12.845680958346817"><ele>608.0</ele><time>2026-04-26T09:59:01.998Z</time></trkpt><trkpt lat="43.17503566008223" lon="12.845767488835644"><ele>601.0</ele><time>2026-04-26T09:59:02.998Z</time></trkpt><trkpt lat="43.17514488877106" lon="12.845854987757459"><ele>594.0</ele><time>2026-04-26T09:59:03.998Z</time></trkpt><trkpt lat="43.1752531762886" lon="12.845952159314214"><ele>599.5</ele><time>2026-04-26T09:59:04.998Z</time></trkpt><trkpt lat="43.1753561327881" lon="12.846061259860818"><ele>605.0</ele><time>2026-04-26T09:59:05.998Z</time></trkpt><trkpt lat="43.17545939767675" lon="12.84617777543911"><ele>610.5</ele><time>2026-04-26T09:59:06.998Z</time></trkpt><trkpt lat="43.17555416302607" lon="12.846283901925004"><ele>616.0</ele><time>2026-04-26T09:59:07.998Z</time></trkpt><trkpt lat="43.17563405488262" lon="12.846393396896547"><ele>608.8</ele><time>2026-04-26T09:59:08.998Z</time></trkpt><trkpt lat="43.1757030325391" lon="12.846509962903902"><ele>601.6</ele><time>2026-04-26T09:59:09.998Z</time></trkpt><trkpt lat="43.175755912387835" lon="12.846632751311768"><ele>594.4</ele><time>2026-04-26T09:59:10.998Z</time></trkpt><trkpt lat="43.175787753941066" lon="12.84677191717816"><ele>587.2</ele><time>2026-04-26T09:59:11.998Z</time></trkpt><trkpt lat="43.175784465717996" lon="12.846915277289387"><ele>580.0</ele><time>2026-04-26T09:59:12.998Z</time></trkpt><trkpt lat="43.17574304344521" lon="12.84706127672"><ele>579.2</ele><time>2026-04-26T09:59:13.998Z</time></trkpt><trkpt lat="43.175699169863535" lon="12.847209663283927"><ele>578.4</ele><time>2026-04-26T09:59:14.998Z</time></trkpt><trkpt lat="43.17564442360655" lon="12.84733817930392"><ele>577.6</ele><time>2026-04-26T09:59:15.998Z</time></trkpt><trkpt lat="43.175562743716895" lon="12.847433876243889"><ele>576.8</ele><time>2026-04-26T09:59:16.998Z</time></trkpt><trkpt lat="43.175470986584656" lon="12.847514412309492"><ele>576.0</ele><time>2026-04-26T09:59:17.998Z</time></trkpt><trkpt lat="43.175381718488495" lon="12.847597431157707"><ele>580.25</ele><time>2026-04-26T09:59:18.998Z</time></trkpt><trkpt lat="43.175309168775875" lon="12.847718983031157"><ele>584.5</ele><time>2026-04-26T09:59:19.998Z</time></trkpt><trkpt lat="43.1752577718575" lon="12.847850924372256"><ele>588.75</ele><time>2026-04-26T09:59:20.998Z</time></trkpt><trkpt lat="43.17520321874835" lon="12.847986219850053"><ele>593.0</ele><time>2026-04-26T09:59:21.998Z</time></trkpt><trkpt lat="43.17514611613575" lon="12.848123235393672"><ele>593.0</ele><time>2026-04-26T09:59:22.998Z</time></trkpt><trkpt lat="43.175084778787614" lon="12.848244335602125"><ele>593.0</ele><time>2026-04-26T09:59:23.998Z</time></trkpt><trkpt lat="43.17501362892705" lon="12.848336441532581"><ele>593.0</ele><time>2026-04-26T09:59:24.998Z</time></trkpt><trkpt lat="43.174926526588344" lon="12.848392052217195"><ele>593.0</ele><time>2026-04-26T09:59:25.998Z</time></trkpt><trkpt lat="43.174824854461434" lon="12.848424791027501"><ele>593.0</ele><time>2026-04-26T09:59:26.998Z</time></trkpt><trkpt lat="43.17470731592156" lon="12.848462220580855"><ele>587.75</ele><time>2026-04-26T09:59:27.998Z</time></trkpt><trkpt lat="43.17459220970948" lon="12.848508766449392"><ele>582.5</ele><time>2026-04-26T09:59:28.998Z</time></trkpt><trkpt lat="43.174481874509006" lon="12.848541950587087"><ele>577.25</ele><time>2026-04-26T09:59:29.998Z</time></trkpt><trkpt lat="43.17436949288327" lon="12.848550379695975"><ele>572.0</ele><time>2026-04-26T09:59:30.998Z</time></trkpt><trkpt lat="43.17426332879995" lon="12.848527793660216"><ele>572.0</ele><time>2026-04-26T09:59:31.998Z</time></trkpt><trkpt lat="43.174172621313126" lon="12.848467133760499"><ele>572.0</ele><time>2026-04-26T09:59:32.998Z</time></trkpt><trkpt lat="43.174085147118724" lon="12.84838454735577"><ele>572.0</ele><time>2026-04-26T09:59:33.998Z</time></trkpt><trkpt lat="43.17398941358142" lon="12.848289733799446"><ele>572.0</ele><time>2026-04-26T09:59:34.998Z</time></trkpt><trkpt lat="43.173886583995085" lon="12.848194567066757"><ele>572.0</ele><time>2026-04-26T09:59:35.998Z</time></trkpt><trkpt lat="43.173771357781064" lon="12.848106886705347"><ele>576.2</ele><time>2026-04-26T09:59:36.998Z</time></trkpt><trkpt lat="43.17365580406394" lon="12.848036029718351"><ele>580.4000000000001</ele><time>2026-04-26T09:59:37.998Z</time></trkpt><trkpt lat="43.173547990175045" lon="12.847987842815739"><ele>584.5999999999999</ele><time>2026-04-26T09:59:38.998Z</time></trkpt><trkpt lat="43.17345343736544" lon="12.847978063537656"><ele>588.8</ele><time>2026-04-26T09:59:39.997Z</time></trkpt><trkpt lat="43.173382413375805" lon="12.848001028778418"><ele>593.0</ele><time>2026-04-26T09:59:40.997Z</time></trkpt><trkpt lat="43.17329526529086" lon="12.848126020968953"><ele>593.0</ele><time>2026-04-26T09:59:42.997Z</time></trkpt><trkpt lat="43.173278130688374" lon="12.848233313493967"><ele>593.0</ele><time>2026-04-26T09:59:43.997Z</time></trkpt><trkpt lat="43.173253260350734" lon="12.848353220550342"><ele>593.0</ele><time>2026-04-26T09:59:44.997Z</time></trkpt><trkpt lat="43.17321301092658" lon="12.84845206849343"><ele>593.0</ele><time>2026-04-26T09:59:45.997Z</time></trkpt><trkpt lat="43.173157178257384" lon="12.848533047137694"><ele>593.0</ele><time>2026-04-26T09:59:46.997Z</time></trkpt><trkpt lat="43.173098360981" lon="12.84859650295051"><ele>593.0</ele><time>2026-04-26T09:59:47.997Z</time></trkpt><trkpt lat="43.17303256672982" lon="12.848652302822092"><ele>590.8</ele><time>2026-04-26T09:59:48.997Z</time></trkpt><trkpt lat="43.17295018830362" lon="12.848696520047215"><ele>588.5999999999999</ele><time>2026-04-26T09:59:49.997Z</time></trkpt><trkpt lat="43.1728497497065" lon="12.848724632151843"><ele>586.4000000000001</ele><time>2026-04-26T09:59:50.997Z</time></trkpt><trkpt lat="43.17274105563783" lon="12.84874978632805"><ele>584.2</ele><time>2026-04-26T09:59:51.997Z</time></trkpt><trkpt lat="43.17262491766994" lon="12.848754156049715"><ele>582.0</ele><time>2026-04-26T09:59:52.997Z</time></trkpt><trkpt lat="43.17251299636745" lon="12.848741750982942"><ele>582.0</ele><time>2026-04-26T09:59:53.997Z</time></trkpt><trkpt lat="43.17240074216836" lon="12.84870513559976"><ele>582.0</ele><time>2026-04-26T09:59:54.997Z</time></trkpt><trkpt lat="43.17229312636252" lon="12.848652336070653"><ele>582.0</ele><time>2026-04-26T09:59:55.997Z</time></trkpt><trkpt lat="43.1721779203877" lon="12.848593938707598"><ele>582.0</ele><time>2026-04-26T09:59:57Z</time></trkpt><trkpt lat="43.17206005137024" lon="12.848534596821981"><ele>579.25</ele><time>2026-04-26T09:59:58Z</time></trkpt><trkpt lat="43.17194380164942" lon="12.84847428576484"><ele>576.5</ele><time>2026-04-26T09:59:59Z</time></trkpt><trkpt lat="43.17183319811432" lon="12.84840890487226"><ele>573.75</ele><time>2026-04-26T10:00:00Z</time></trkpt><trkpt lat="43.17171835742079" lon="12.848364893556422"><ele>571.0</ele><time>2026-04-26T10:00:01Z</time></trkpt><trkpt lat="43.171606303338166" lon="12.848346630859712"><ele>574.8</ele><time>2026-04-26T10:00:02.001Z</time></trkpt><trkpt lat="43.17150204227716" lon="12.848340773816357"><ele>578.6</ele><time>2026-04-26T10:00:03.001Z</time></trkpt><trkpt lat="43.17140945622046" lon="12.848328620786551"><ele>582.4</ele><time>2026-04-26T10:00:04.001Z</time></trkpt><trkpt lat="43.171330812987904" lon="12.848285860548481"><ele>586.2</ele><time>2026-04-26T10:00:05.001Z</time></trkpt><trkpt lat="43.171259089537855" lon="12.848204419400643"><ele>590.0</ele><time>2026-04-26T10:00:06.001Z</time></trkpt><trkpt lat="43.171184038890225" lon="12.84809714741792"><ele>590.0</ele><time>2026-04-26T10:00:07.001Z</time></trkpt><trkpt lat="43.171113481958855" lon="12.847992465658887"><ele>590.0</ele><time>2026-04-26T10:00:08.001Z</time></trkpt><trkpt lat="43.17104099483382" lon="12.847905937253543"><ele>590.0</ele><time>2026-04-26T10:00:09.001Z</time></trkpt><trkpt lat="43.17096499628407" lon="12.847870490311175"><ele>590.0</ele><time>2026-04-26T10:00:10.001Z</time></trkpt><trkpt lat="43.17089047198056" lon="12.847874248681933"><ele>590.0</ele><time>2026-04-26T10:00:11.001Z</time></trkpt><trkpt lat="43.1708199625842" lon="12.847920725113214"><ele>590.0</ele><time>2026-04-26T10:00:12.001Z</time></trkpt><trkpt lat="43.170747970298706" lon="12.847980465532126"><ele>590.6</ele><time>2026-04-26T10:00:13.001Z</time></trkpt><trkpt lat="43.17067286655132" lon="12.848027404408473"><ele>591.2</ele><time>2026-04-26T10:00:14Z</time></trkpt><trkpt lat="43.17058242502609" lon="12.84805342766507"><ele>591.8</ele><time>2026-04-26T10:00:15Z</time></trkpt><trkpt lat="43.17048835286478" lon="12.848040137003354"><ele>592.4</ele><time>2026-04-26T10:00:16Z</time></trkpt><trkpt lat="43.17040169060168" lon="12.848001604447022"><ele>593.0</ele><time>2026-04-26T10:00:17Z</time></trkpt><trkpt lat="43.17030817459142" lon="12.84795562354887"><ele>593.0</ele><time>2026-04-26T10:00:18Z</time></trkpt><trkpt lat="43.17020571030459" lon="12.84791951887628"><ele>593.0</ele><time>2026-04-26T10:00:19Z</time></trkpt><trkpt lat="43.17009388177048" lon="12.847905572842274"><ele>593.0</ele><time>2026-04-26T10:00:20Z</time></trkpt><trkpt lat="43.169974840231326" lon="12.84791100534352"><ele>593.0</ele><time>2026-04-26T10:00:21Z</time></trkpt><trkpt lat="43.169851682954885" lon="12.847926836804422"><ele>597.25</ele><time>2026-04-26T10:00:22Z</time></trkpt><trkpt lat="43.16972831091457" lon="12.847943758731063"><ele>601.5</ele><time>2026-04-26T10:00:23Z</time></trkpt><trkpt lat="43.169602304390935" lon="12.84795456263844"><ele>605.75</ele><time>2026-04-26T10:00:24Z</time></trkpt><trkpt lat="43.16946950486852" lon="12.847946978943675"><ele>610.0</ele><time>2026-04-26T10:00:25Z</time></trkpt><trkpt lat="43.16934216608119" lon="12.847934537125212"><ele>610.0</ele><time>2026-04-26T10:00:26Z</time></trkpt><trkpt lat="43.169235453011254" lon="12.847944165470823"><ele>610.0</ele><time>2026-04-26T10:00:27Z</time></trkpt><trkpt lat="43.169140447805695" lon="12.847986578543518"><ele>610.0</ele><time>2026-04-26T10:00:28Z</time></trkpt><trkpt lat="43.1690663867146" lon="12.848059119913898"><ele>610.0</ele><time>2026-04-26T10:00:29Z</time></trkpt><trkpt lat="43.16902607011027" lon="12.848155872817804"><ele>610.0</ele><time>2026-04-26T10:00:30Z</time></trkpt><trkpt lat="43.16903687246306" lon="12.84825856461845"><ele>610.0</ele><time>2026-04-26T10:00:31Z</time></trkpt><trkpt lat="43.16908715936792" lon="12.848345990158043"><ele>610.0</ele><time>2026-04-26T10:00:32Z</time></trkpt><trkpt lat="43.16914094778803" lon="12.848442360043252"><ele>610.0</ele><time>2026-04-26T10:00:33Z</time></trkpt><trkpt lat="43.169193611076565" lon="12.848559414108365"><ele>610.0</ele><time>2026-04-26T10:00:34Z</time></trkpt><trkpt lat="43.169250812199785" lon="12.848692325853342"><ele>610.0</ele><time>2026-04-26T10:00:35Z</time></trkpt><trkpt lat="43.16932559770034" lon="12.84882218065287"><ele>610.0</ele><time>2026-04-26T10:00:36Z</time></trkpt><trkpt lat="43.169411231995895" lon="12.848941748550946"><ele>610.0</ele><time>2026-04-26T10:00:37Z</time></trkpt><trkpt lat="43.16950316208633" lon="12.849053712302911"><ele>610.0</ele><time>2026-04-26T10:00:38Z</time></trkpt><trkpt lat="43.16959008738824" lon="12.84917602101402"><ele>610.0</ele><time>2026-04-26T10:00:39Z</time></trkpt><trkpt lat="43.16967298219869" lon="12.849304312987503"><ele>608.0</ele><time>2026-04-26T10:00:40Z</time></trkpt><trkpt lat="43.169743218536155" lon="12.849444053369481"><ele>606.0</ele><time>2026-04-26T10:00:41Z</time></trkpt><trkpt lat="43.1697982467137" lon="12.849583324805202"><ele>604.0</ele><time>2026-04-26T10:00:42Z</time></trkpt><trkpt lat="43.169833607895995" lon="12.849710042407306"><ele>602.0</ele><time>2026-04-26T10:00:43Z</time></trkpt><trkpt lat="43.16985517734249" lon="12.849822153054921"><ele>600.0</ele><time>2026-04-26T10:00:44Z</time></trkpt><trkpt lat="43.169851230573215" lon="12.849910801486075"><ele>600.0</ele><time>2026-04-26T10:00:45Z</time></trkpt><trkpt lat="43.169771271918584" lon="12.849941956772232"><ele>600.0</ele><time>2026-04-26T10:00:47Z</time></trkpt><trkpt lat="43.16972013585861" lon="12.849848685836571"><ele>600.0</ele><time>2026-04-26T10:00:49Z</time></trkpt><trkpt lat="43.16967026767808" lon="12.84971419632773"><ele>600.0</ele><time>2026-04-26T10:00:51Z</time></trkpt><trkpt lat="43.16962532645973" lon="12.849632190320648"><ele>600.0</ele><time>2026-04-26T10:00:52Z</time></trkpt><trkpt lat="43.1695727538232" lon="12.849545944256084"><ele>600.0</ele><time>2026-04-26T10:00:53Z</time></trkpt><trkpt lat="43.169516486870485" lon="12.849469728433398"><ele>600.0</ele><time>2026-04-26T10:00:54Z</time></trkpt><trkpt lat="43.16945615529455" lon="12.849393985600702"><ele>600.0</ele><time>2026-04-26T10:00:55Z</time></trkpt><trkpt lat="43.16939620242194" lon="12.849326792054292"><ele>600.0</ele><time>2026-04-26T10:00:56Z</time></trkpt><trkpt lat="43.16933981144613" lon="12.849267535882223"><ele>600.0</ele><time>2026-04-26T10:00:57Z</time></trkpt><trkpt lat="43.16924661456189" lon="12.84917115269191"><ele>600.0</ele><time>2026-04-26T10:00:58.999Z</time></trkpt><trkpt lat="43.169175133021334" lon="12.849087154860966"><ele>600.0</ele><time>2026-04-26T10:01:01.999Z</time></trkpt><trkpt lat="43.16912525121705" lon="12.84901853346036"><ele>600.0</ele><time>2026-04-26T10:01:04.999Z</time></trkpt><trkpt lat="43.16908798042564" lon="12.849094334394929"><ele>600.0</ele><time>2026-04-26T10:01:07.999Z</time></trkpt><trkpt lat="43.16917013934644" lon="12.849135774076851"><ele>600.0</ele><time>2026-04-26T10:01:10.999Z</time></trkpt><trkpt lat="43.16923720882339" lon="12.849159577179792"><ele>600.0</ele><time>2026-04-26T10:01:12.999Z</time></trkpt><trkpt lat="43.16928215164226" lon="12.849222914263033"><ele>600.0</ele><time>2026-04-26T10:01:13.999Z</time></trkpt><trkpt lat="43.16937791296405" lon="12.849320405121277"><ele>600.0</ele><time>2026-04-26T10:01:15.999Z</time></trkpt><trkpt lat="43.16943104982189" lon="12.849379267460389"><ele>600.0</ele><time>2026-04-26T10:01:16.999Z</time></trkpt><trkpt lat="43.16949021304622" lon="12.84945382023956"><ele>600.0</ele><time>2026-04-26T10:01:17.999Z</time></trkpt><trkpt lat="43.169547554296464" lon="12.849532314744707"><ele>600.0</ele><time>2026-04-26T10:01:18.999Z</time></trkpt><trkpt lat="43.16959818544823" lon="12.849615884129669"><ele>600.0</ele><time>2026-04-26T10:01:19.999Z</time></trkpt><trkpt lat="43.16964756793265" lon="12.849699429210316"><ele>600.0</ele><time>2026-04-26T10:01:20.999Z</time></trkpt><trkpt lat="43.169691016467915" lon="12.849779600024085"><ele>600.0</ele><time>2026-04-26T10:01:21.999Z</time></trkpt><trkpt lat="43.169763993127575" lon="12.849899363744203"><ele>600.0</ele><time>2026-04-26T10:01:23.999Z</time></trkpt><trkpt lat="43.16979962927103" lon="12.849998715510903"><ele>600.0</ele><time>2026-04-26T10:01:25.999Z</time></trkpt><trkpt lat="43.16978364410884" lon="12.850104637278253"><ele>600.0</ele><time>2026-04-26T10:01:27.999Z</time></trkpt><trkpt lat="43.1697959155232" lon="12.850250336625642"><ele>600.0</ele><time>2026-04-26T10:01:29.999Z</time></trkpt><trkpt lat="43.16983534314381" lon="12.850331552565326"><ele>600.0</ele><time>2026-04-26T10:01:30.999Z</time></trkpt><trkpt lat="43.16988178781124" lon="12.850419984809596"><ele>600.0</ele><time>2026-04-26T10:01:31.999Z</time></trkpt><trkpt lat="43.16993510740531" lon="12.850529731995664"><ele>599.0</ele><time>2026-04-26T10:01:32.999Z</time></trkpt><trkpt lat="43.16998319117922" lon="12.850655049081942"><ele>598.0</ele><time>2026-04-26T10:01:33.999Z</time></trkpt><trkpt lat="43.17002324956189" lon="12.850780975502367"><ele>597.0</ele><time>2026-04-26T10:01:34.999Z</time></trkpt><trkpt lat="43.17005624762184" lon="12.85091297084298"><ele>596.0</ele><time>2026-04-26T10:01:35.999Z</time></trkpt><trkpt lat="43.17008580717626" lon="12.851038662488193"><ele>595.0</ele><time>2026-04-26T10:01:36.999Z</time></trkpt><trkpt lat="43.17011579714816" lon="12.85114420271711"><ele>595.0</ele><time>2026-04-26T10:01:37.999Z</time></trkpt><trkpt lat="43.1701568021373" lon="12.851212186057179"><ele>595.0</ele><time>2026-04-26T10:01:38.999Z</time></trkpt><trkpt lat="43.170284424435025" lon="12.85122967930423"><ele>595.0</ele><time>2026-04-26T10:01:40.999Z</time></trkpt><trkpt lat="43.170345108114375" lon="12.851176303278278"><ele>595.0</ele><time>2026-04-26T10:01:41.999Z</time></trkpt><trkpt lat="43.17040238220975" lon="12.851106798118506"><ele>595.0</ele><time>2026-04-26T10:01:42.998Z</time></trkpt><trkpt lat="43.17046344724378" lon="12.851024413983192"><ele>595.0</ele><time>2026-04-26T10:01:43.998Z</time></trkpt><trkpt lat="43.170519922995645" lon="12.850935455734948"><ele>595.0</ele><time>2026-04-26T10:01:44.998Z</time></trkpt><trkpt lat="43.17055923355957" lon="12.8508360377865"><ele>595.0</ele><time>2026-04-26T10:01:45.998Z</time></trkpt><trkpt lat="43.170573632906766" lon="12.850725778190814"><ele>595.0</ele><time>2026-04-26T10:01:46.998Z</time></trkpt><trkpt lat="43.1705673627804" lon="12.85061587997694"><ele>595.0</ele><time>2026-04-26T10:01:47.998Z</time></trkpt><trkpt lat="43.17055177183451" lon="12.850526187978664"><ele>595.0</ele><time>2026-04-26T10:01:48.998Z</time></trkpt><trkpt lat="43.17059798394372" lon="12.850450374432556"><ele>595.0</ele><time>2026-04-26T10:01:51.998Z</time></trkpt><trkpt lat="43.17065047455945" lon="12.850573646958441"><ele>595.0</ele><time>2026-04-26T10:01:53.998Z</time></trkpt><trkpt lat="43.17065972387855" lon="12.850659812624965"><ele>595.0</ele><time>2026-04-26T10:01:54.998Z</time></trkpt><trkpt lat="43.170674298059986" lon="12.85077101529139"><ele>595.0</ele><time>2026-04-26T10:01:55.998Z</time></trkpt><trkpt lat="43.17069656057892" lon="12.850875724702014"><ele>595.0</ele><time>2026-04-26T10:01:56.998Z</time></trkpt><trkpt lat="43.1707255121796" lon="12.850961424299728"><ele>595.0</ele><time>2026-04-26T10:01:57.998Z</time></trkpt><trkpt lat="43.17075344197878" lon="12.851039516162214"><ele>595.0</ele><time>2026-04-26T10:01:58.998Z</time></trkpt><trkpt lat="43.17078266854354" lon="12.851116361383019"><ele>595.0</ele><time>2026-04-26T10:01:59.998Z</time></trkpt><trkpt lat="43.17083479988405" lon="12.851247797652244"><ele>592.5</ele><time>2026-04-26T10:02:01.998Z</time></trkpt><trkpt lat="43.17084801883801" lon="12.851358414315683"><ele>590.0</ele><time>2026-04-26T10:02:06Z</time></trkpt><trkpt lat="43.17076574469995" lon="12.851441932815161"><ele>587.5</ele><time>2026-04-26T10:02:08Z</time></trkpt><trkpt lat="43.17070251639822" lon="12.851490639197953"><ele>585.0</ele><time>2026-04-26T10:02:09Z</time></trkpt><trkpt lat="43.170643693009794" lon="12.851543906885325"><ele>582.5</ele><time>2026-04-26T10:02:10Z</time></trkpt><trkpt lat="43.170579517263114" lon="12.851584338625551"><ele>580.0</ele><time>2026-04-26T10:02:11Z</time></trkpt><trkpt lat="43.170489402115884" lon="12.851698772927335"><ele>580.0</ele><time>2026-04-26T10:02:13Z</time></trkpt><trkpt lat="43.17045172729197" lon="12.851780533514258"><ele>580.0</ele><time>2026-04-26T10:02:14Z</time></trkpt><trkpt lat="43.170409416444684" lon="12.851859791873704"><ele>580.0</ele><time>2026-04-26T10:02:15Z</time></trkpt><trkpt lat="43.170357422299254" lon="12.851933493310502"><ele>580.0</ele><time>2026-04-26T10:02:16Z</time></trkpt><trkpt lat="43.17028927815571" lon="12.851984645751354"><ele>580.0</ele><time>2026-04-26T10:02:17Z</time></trkpt><trkpt lat="43.17021030163609" lon="12.852010699375606"><ele>580.0</ele><time>2026-04-26T10:02:18Z</time></trkpt><trkpt lat="43.17012473416926" lon="12.852016424200642"><ele>575.2</ele><time>2026-04-26T10:02:19Z</time></trkpt><trkpt lat="43.17002368631196" lon="12.852010662124126"><ele>570.4</ele><time>2026-04-26T10:02:20Z</time></trkpt><trkpt lat="43.169915913376755" lon="12.851996842689477"><ele>565.6</ele><time>2026-04-26T10:02:21Z</time></trkpt><trkpt lat="43.16979746480267" lon="12.851983170823589"><ele>560.8</ele><time>2026-04-26T10:02:22Z</time></trkpt><trkpt lat="43.169683283969114" lon="12.85196542104908"><ele>556.0</ele><time>2026-04-26T10:02:23Z</time></trkpt><trkpt lat="43.16957370449972" lon="12.851950174594132"><ele>555.0</ele><time>2026-04-26T10:02:24Z</time></trkpt><trkpt lat="43.16947074335137" lon="12.851930189673794"><ele>554.0</ele><time>2026-04-26T10:02:25Z</time></trkpt><trkpt lat="43.169381153251734" lon="12.851903091554009"><ele>553.0</ele><time>2026-04-26T10:02:26Z</time></trkpt><trkpt lat="43.169306212168465" lon="12.851867246932661"><ele>552.0</ele><time>2026-04-26T10:02:27Z</time></trkpt><trkpt lat="43.16923999036858" lon="12.851832274705146"><ele>551.0</ele><time>2026-04-26T10:02:28Z</time></trkpt><trkpt lat="43.16912048800439" lon="12.85186137356922"><ele>551.0</ele><time>2026-04-26T10:02:30Z</time></trkpt><trkpt lat="43.16909497658077" lon="12.851942829586436"><ele>551.0</ele><time>2026-04-26T10:02:31Z</time></trkpt><trkpt lat="43.169115285135355" lon="12.852031347204461"><ele>551.0</ele><time>2026-04-26T10:02:32Z</time></trkpt><trkpt lat="43.16916041992119" lon="12.852107891202586"><ele>551.0</ele><time>2026-04-26T10:02:33Z</time></trkpt><trkpt lat="43.16921520497552" lon="12.852206303725257"><ele>551.0</ele><time>2026-04-26T10:02:34Z</time></trkpt><trkpt lat="43.16927594706197" lon="12.85232761001219"><ele>551.0</ele><time>2026-04-26T10:02:35Z</time></trkpt><trkpt lat="43.16933858711154" lon="12.852466972572206"><ele>551.0</ele><time>2026-04-26T10:02:36Z</time></trkpt><trkpt lat="43.16939465724841" lon="12.852617824942177"><ele>551.0</ele><time>2026-04-26T10:02:37Z</time></trkpt><trkpt lat="43.169436222728336" lon="12.852775056226598"><ele>551.0</ele><time>2026-04-26T10:02:38Z</time></trkpt><trkpt lat="43.16946418343756" lon="12.85293655182108"><ele>551.0</ele><time>2026-04-26T10:02:39Z</time></trkpt><trkpt lat="43.169486287456806" lon="12.85309678795997"><ele>550.25</ele><time>2026-04-26T10:02:40Z</time></trkpt><trkpt lat="43.169492637683234" lon="12.853254620675697"><ele>549.5</ele><time>2026-04-26T10:02:41Z</time></trkpt><trkpt lat="43.16947636451324" lon="12.853409590512365"><ele>548.75</ele><time>2026-04-26T10:02:42Z</time></trkpt><trkpt lat="43.1694484561265" lon="12.853562370484072"><ele>548.0</ele><time>2026-04-26T10:02:43Z</time></trkpt><trkpt lat="43.16941877104555" lon="12.853716131580974"><ele>546.75</ele><time>2026-04-26T10:02:44Z</time></trkpt><trkpt lat="43.169386256806675" lon="12.853884996258248"><ele>545.5</ele><time>2026-04-26T10:02:45Z</time></trkpt><trkpt lat="43.16935873357454" lon="12.854067957159364"><ele>544.25</ele><time>2026-04-26T10:02:46Z</time></trkpt><trkpt lat="43.16933253789782" lon="12.854259170298798"><ele>543.0</ele><time>2026-04-26T10:02:47Z</time></trkpt><trkpt lat="43.16930861758337" lon="12.854446753746021"><ele>541.25</ele><time>2026-04-26T10:02:48Z</time></trkpt><trkpt lat="43.169295428878826" lon="12.85462415883199"><ele>539.5</ele><time>2026-04-26T10:02:49Z</time></trkpt><trkpt lat="43.169301289706276" lon="12.854787735646363"><ele>537.75</ele><time>2026-04-26T10:02:50Z</time></trkpt><trkpt lat="43.16932657592081" lon="12.85492980590045"><ele>536.0</ele><time>2026-04-26T10:02:51Z</time></trkpt><trkpt lat="43.16938168474087" lon="12.85505056785309"><ele>534.75</ele><time>2026-04-26T10:02:52Z</time></trkpt><trkpt lat="43.16946912296488" lon="12.855150874360099"><ele>533.5</ele><time>2026-04-26T10:02:53Z</time></trkpt><trkpt lat="43.16956092173993" lon="12.855260942257857"><ele>532.25</ele><time>2026-04-26T10:02:54Z</time></trkpt><trkpt lat="43.16963233875665" lon="12.855404010657598"><ele>531.0</ele><time>2026-04-26T10:02:55Z</time></trkpt><trkpt lat="43.169669963497924" lon="12.855579079507324"><ele>531.0</ele><time>2026-04-26T10:02:56Z</time></trkpt><trkpt lat="43.169681297026024" lon="12.855774405330774"><ele>531.0</ele><time>2026-04-26T10:02:57Z</time></trkpt><trkpt lat="43.169683883851334" lon="12.855970233010956"><ele>531.0</ele><time>2026-04-26T10:02:57.999Z</time></trkpt><trkpt lat="43.16969305409805" lon="12.856149440921376"><ele>531.0</ele><time>2026-04-26T10:02:58.999Z</time></trkpt><trkpt lat="43.16973011815949" lon="12.856321778817907"><ele>531.5</ele><time>2026-04-26T10:02:59.999Z</time></trkpt><trkpt lat="43.16979406093134" lon="12.856488846096642"><ele>532.0</ele><time>2026-04-26T10:03:00.999Z</time></trkpt><trkpt lat="43.16986483517241" lon="12.856656038390975"><ele>532.5</ele><time>2026-04-26T10:03:01.999Z</time></trkpt><trkpt lat="43.16991654505525" lon="12.856838884356378"><ele>533.0</ele><time>2026-04-26T10:03:02.999Z</time></trkpt><trkpt lat="43.16994387415067" lon="12.857041636042329"><ele>530.3333333333333</ele><time>2026-04-26T10:03:03.999Z</time></trkpt><trkpt lat="43.169953911160114" lon="12.857261284713983"><ele>527.6666666666666</ele><time>2026-04-26T10:03:04.999Z</time></trkpt><trkpt lat="43.16995716495171" lon="12.857488868313531"><ele>525.0</ele><time>2026-04-26T10:03:05.999Z</time></trkpt><trkpt lat="43.169958319352354" lon="12.857703338816483"><ele>523.0</ele><time>2026-04-26T10:03:06.999Z</time></trkpt><trkpt lat="43.169959865748616" lon="12.8579030524237"><ele>521.0</ele><time>2026-04-26T10:03:07.999Z</time></trkpt><trkpt lat="43.16996498899275" lon="12.858091658868313"><ele>519.0</ele><time>2026-04-26T10:03:08.999Z</time></trkpt><trkpt lat="43.16997935251116" lon="12.858275093289311"><ele>517.0</ele><time>2026-04-26T10:03:09.999Z</time></trkpt><trkpt lat="43.17001069122118" lon="12.858453038567406"><ele>516.0</ele><time>2026-04-26T10:03:10.999Z</time></trkpt><trkpt lat="43.170060085697" lon="12.858624259379331"><ele>515.0</ele><time>2026-04-26T10:03:11.999Z</time></trkpt><trkpt lat="43.170117983606886" lon="12.85878637381017"><ele>514.0</ele><time>2026-04-26T10:03:12.999Z</time></trkpt><trkpt lat="43.17017774747712" lon="12.858951020751842"><ele>513.0</ele><time>2026-04-26T10:03:13.999Z</time></trkpt><trkpt lat="43.1702295877809" lon="12.859120450394347"><ele>512.5</ele><time>2026-04-26T10:03:14.999Z</time></trkpt><trkpt lat="43.17027830953195" lon="12.859286758730452"><ele>512.0</ele><time>2026-04-26T10:03:15.999Z</time></trkpt><trkpt lat="43.17033107624703" lon="12.859445271418581"><ele>511.5</ele><time>2026-04-26T10:03:16.999Z</time></trkpt><trkpt lat="43.17039365548351" lon="12.859596422122356"><ele>511.0</ele><time>2026-04-26T10:03:17.999Z</time></trkpt><trkpt lat="43.170467653740374" lon="12.8597370935952"><ele>511.0</ele><time>2026-04-26T10:03:18.999Z</time></trkpt><trkpt lat="43.1705587205929" lon="12.859856452439923"><ele>511.0</ele><time>2026-04-26T10:03:19.999Z</time></trkpt><trkpt lat="43.17066450784172" lon="12.859964702086964"><ele>511.0</ele><time>2026-04-26T10:03:20.999Z</time></trkpt><trkpt lat="43.170775178468915" lon="12.86007319163467"><ele>511.0</ele><time>2026-04-26T10:03:21.999Z</time></trkpt><trkpt lat="43.17088486865817" lon="12.860185235376665"><ele>510.0</ele><time>2026-04-26T10:03:22.999Z</time></trkpt><trkpt lat="43.170992216093026" lon="12.860305274493074"><ele>509.0</ele><time>2026-04-26T10:03:23.999Z</time></trkpt><trkpt lat="43.171097172020154" lon="12.860432930917337"><ele>508.0</ele><time>2026-04-26T10:03:24.999Z</time></trkpt><trkpt lat="43.17119074173328" lon="12.860559757253542"><ele>507.0</ele><time>2026-04-26T10:03:25.999Z</time></trkpt><trkpt lat="43.171281732004864" lon="12.860669761715805"><ele>507.0</ele><time>2026-04-26T10:03:26.999Z</time></trkpt><trkpt lat="43.17137619578512" lon="12.860771436679943"><ele>507.00000000000006</ele><time>2026-04-26T10:03:27.999Z</time></trkpt><trkpt lat="43.171458471333054" lon="12.860864124475007"><ele>507.00000000000006</ele><time>2026-04-26T10:03:28.999Z</time></trkpt><trkpt lat="43.1715296185488" lon="12.860960294278625"><ele>507.0</ele><time>2026-04-26T10:03:29.999Z</time></trkpt><trkpt lat="43.17158688608302" lon="12.861075433563773"><ele>507.0</ele><time>2026-04-26T10:03:30.999Z</time></trkpt><trkpt lat="43.171614798553406" lon="12.861212958280912"><ele>507.75</ele><time>2026-04-26T10:03:31.999Z</time></trkpt><trkpt lat="43.171608364008776" lon="12.861370694808098"><ele>508.5</ele><time>2026-04-26T10:03:32.999Z</time></trkpt><trkpt lat="43.171575895647884" lon="12.861530803745426"><ele>509.25</ele><time>2026-04-26T10:03:33.999Z</time></trkpt><trkpt lat="43.1715411179806" lon="12.861697570410408"><ele>510.0</ele><time>2026-04-26T10:03:34.999Z</time></trkpt><trkpt lat="43.1715129778398" lon="12.86186729425039"><ele>510.2</ele><time>2026-04-26T10:03:35.999Z</time></trkpt><trkpt lat="43.17149273141824" lon="12.862026616987556"><ele>510.4</ele><time>2026-04-26T10:03:36.999Z</time></trkpt><trkpt lat="43.17149180785835" lon="12.86217343463143"><ele>510.6</ele><time>2026-04-26T10:03:37.999Z</time></trkpt><trkpt lat="43.171518785297046" lon="12.862312177913353"><ele>510.8</ele><time>2026-04-26T10:03:38.999Z</time></trkpt><trkpt lat="43.17157475581022" lon="12.862430168873463"><ele>511.0</ele><time>2026-04-26T10:03:39.999Z</time></trkpt><trkpt lat="43.17165212782401" lon="12.862517810860142"><ele>511.0</ele><time>2026-04-26T10:03:40.999Z</time></trkpt><trkpt lat="43.1717472713425" lon="12.862563376908172"><ele>511.0</ele><time>2026-04-26T10:03:41.999Z</time></trkpt><trkpt lat="43.17184844408703" lon="12.86256051601321"><ele>511.0</ele><time>2026-04-26T10:03:42.999Z</time></trkpt><trkpt lat="43.17195851557584" lon="12.862538887854232"><ele>511.0</ele><time>2026-04-26T10:03:43.998Z</time></trkpt><trkpt lat="43.17207586779656" lon="12.862535889864164"><ele>511.0</ele><time>2026-04-26T10:03:44.998Z</time></trkpt><trkpt lat="43.17220125242196" lon="12.862563037874487"><ele>512.0</ele><time>2026-04-26T10:03:45.998Z</time></trkpt><trkpt lat="43.17232006951128" lon="12.862623835419853"><ele>513.0</ele><time>2026-04-26T10:03:46.998Z</time></trkpt><trkpt lat="43.172424134809624" lon="12.862720749813386"><ele>514.0</ele><time>2026-04-26T10:03:47.998Z</time></trkpt><trkpt lat="43.17251675606292" lon="12.862845182140692"><ele>515.0</ele><time>2026-04-26T10:03:48.998Z</time></trkpt><trkpt lat="43.17260393105153" lon="12.862985699422333"><ele>516.0</ele><time>2026-04-26T10:03:49.998Z</time></trkpt><trkpt lat="43.17268433844371" lon="12.863141275467605"><ele>517.0</ele><time>2026-04-26T10:03:50.998Z</time></trkpt><trkpt lat="43.172766977508836" lon="12.863293194180201"><ele>518.0</ele><time>2026-04-26T10:03:51.998Z</time></trkpt><trkpt lat="43.17286137992658" lon="12.86341385365058"><ele>519.0</ele><time>2026-04-26T10:03:52.998Z</time></trkpt><trkpt lat="43.17298055930071" lon="12.8634970886091"><ele>519.0</ele><time>2026-04-26T10:03:53.998Z</time></trkpt><trkpt lat="43.17310782514837" lon="12.863585946149303"><ele>519.0</ele><time>2026-04-26T10:03:54.998Z</time></trkpt><trkpt lat="43.173234205100655" lon="12.86369468426279"><ele>519.0</ele><time>2026-04-26T10:03:55.998Z</time></trkpt><trkpt lat="43.17335779481836" lon="12.863822078237378"><ele>519.0</ele><time>2026-04-26T10:03:56.998Z</time></trkpt><trkpt lat="43.173485035872055" lon="12.863950271793549"><ele>522.3333333333334</ele><time>2026-04-26T10:03:57.998Z</time></trkpt><trkpt lat="43.17362157688111" lon="12.864075296545886"><ele>525.6666666666667</ele><time>2026-04-26T10:03:58.998Z</time></trkpt><trkpt lat="43.173763059129485" lon="12.864196908432413"><ele>529.0</ele><time>2026-04-26T10:03:59.998Z</time></trkpt><trkpt lat="43.17389863831855" lon="12.864305284729923"><ele>529.0</ele><time>2026-04-26T10:04:00.998Z</time></trkpt><trkpt lat="43.17402074512861" lon="12.864411897330735"><ele>529.0</ele><time>2026-04-26T10:04:01.998Z</time></trkpt><trkpt lat="43.174135663361" lon="12.864508243994138"><ele>529.0</ele><time>2026-04-26T10:04:02.998Z</time></trkpt><trkpt lat="43.174249355424756" lon="12.864582221583364"><ele>529.0</ele><time>2026-04-26T10:04:03.998Z</time></trkpt><trkpt lat="43.17436664331959" lon="12.864626996744944"><ele>523.25</ele><time>2026-04-26T10:04:04.998Z</time></trkpt><trkpt lat="43.174486081570336" lon="12.864650157262412"><ele>517.5</ele><time>2026-04-26T10:04:05.998Z</time></trkpt><trkpt lat="43.174608784159716" lon="12.864673638964977"><ele>511.75</ele><time>2026-04-26T10:04:06.998Z</time></trkpt><trkpt lat="43.17473463557131" lon="12.864712043662825"><ele>506.0</ele><time>2026-04-26T10:04:07.998Z</time></trkpt><trkpt lat="43.17485927477048" lon="12.86477461931953"><ele>505.75</ele><time>2026-04-26T10:04:09Z</time></trkpt><trkpt lat="43.174978644571794" lon="12.8648568692624"><ele>505.5</ele><time>2026-04-26T10:04:10Z</time></trkpt><trkpt lat="43.17508869814018" lon="12.864951871232831"><ele>505.25</ele><time>2026-04-26T10:04:11Z</time></trkpt><trkpt lat="43.17519046351908" lon="12.865062540943573"><ele>505.0</ele><time>2026-04-26T10:04:12Z</time></trkpt><trkpt lat="43.175278297066924" lon="12.865199331008325"><ele>504.0</ele><time>2026-04-26T10:04:13Z</time></trkpt><trkpt lat="43.1753659443255" lon="12.865331500744729"><ele>503.0</ele><time>2026-04-26T10:04:14Z</time></trkpt><trkpt lat="43.17545247892066" lon="12.865419867244748"><ele>502.0</ele><time>2026-04-26T10:04:15Z</time></trkpt><trkpt lat="43.175548758894976" lon="12.865490378723349"><ele>501.0</ele><time>2026-04-26T10:04:16Z</time></trkpt><trkpt lat="43.17565466321569" lon="12.865562761131965"><ele>501.0</ele><time>2026-04-26T10:04:17Z</time></trkpt><trkpt lat="43.17577018819968" lon="12.865652024697665"><ele>501.0</ele><time>2026-04-26T10:04:18Z</time></trkpt><trkpt lat="43.175879850323234" lon="12.865751543527956"><ele>501.0</ele><time>2026-04-26T10:04:19Z</time></trkpt><trkpt lat="43.17597859385286" lon="12.86587042137081"><ele>501.0</ele><time>2026-04-26T10:04:20Z</time></trkpt><trkpt lat="43.17606722010427" lon="12.866004576474994"><ele>500.0</ele><time>2026-04-26T10:04:21Z</time></trkpt><trkpt lat="43.17615140747488" lon="12.866141881259502"><ele>499.0</ele><time>2026-04-26T10:04:22Z</time></trkpt><trkpt lat="43.17623846986718" lon="12.866283812818168"><ele>498.0</ele><time>2026-04-26T10:04:23Z</time></trkpt><trkpt lat="43.17632535001311" lon="12.86642337969507"><ele>497.0</ele><time>2026-04-26T10:04:24Z</time></trkpt><trkpt lat="43.1764163946162" lon="12.866564519954292"><ele>497.0</ele><time>2026-04-26T10:04:25Z</time></trkpt><trkpt lat="43.176501538483144" lon="12.866697863349406"><ele>497.0</ele><time>2026-04-26T10:04:26Z</time></trkpt><trkpt lat="43.17657820864822" lon="12.866823441526394"><ele>497.0</ele><time>2026-04-26T10:04:27Z</time></trkpt><trkpt lat="43.17664054995915" lon="12.866948546994871"><ele>497.0</ele><time>2026-04-26T10:04:28Z</time></trkpt><trkpt lat="43.17667907128774" lon="12.867084454406497"><ele>497.20000000000005</ele><time>2026-04-26T10:04:29Z</time></trkpt><trkpt lat="43.17670242362465" lon="12.86722467928009"><ele>497.40000000000003</ele><time>2026-04-26T10:04:30Z</time></trkpt><trkpt lat="43.17671447509094" lon="12.867369985992942"><ele>497.59999999999997</ele><time>2026-04-26T10:04:31Z</time></trkpt><trkpt lat="43.17672090251356" lon="12.86752023600905"><ele>497.79999999999995</ele><time>2026-04-26T10:04:32Z</time></trkpt><trkpt lat="43.17672957793099" lon="12.86767567118424"><ele>498.0</ele><time>2026-04-26T10:04:33Z</time></trkpt><trkpt lat="43.17674451444487" lon="12.867829382816945"><ele>498.0</ele><time>2026-04-26T10:04:34Z</time></trkpt><trkpt lat="43.176765223001034" lon="12.867981651966762"><ele>497.99999999999994</ele><time>2026-04-26T10:04:35Z</time></trkpt><trkpt lat="43.17679127109371" lon="12.86812100239995"><ele>497.99999999999994</ele><time>2026-04-26T10:04:36Z</time></trkpt><trkpt lat="43.17682555991775" lon="12.868244055926077"><ele>498.0</ele><time>2026-04-26T10:04:37Z</time></trkpt><trkpt lat="43.17687255000063" lon="12.868363007148341"><ele>498.0</ele><time>2026-04-26T10:04:38Z</time></trkpt><trkpt lat="43.1769275707273" lon="12.868477777519363"><ele>498.79999999999995</ele><time>2026-04-26T10:04:39Z</time></trkpt><trkpt lat="43.17699325782028" lon="12.868579557374236"><ele>499.59999999999997</ele><time>2026-04-26T10:04:40Z</time></trkpt><trkpt lat="43.17707056116509" lon="12.868673312149463"><ele>500.40000000000003</ele><time>2026-04-26T10:04:41Z</time></trkpt><trkpt lat="43.17715883178883" lon="12.868766003644541"><ele>501.20000000000005</ele><time>2026-04-26T10:04:42Z</time></trkpt><trkpt lat="43.177253057819016" lon="12.868863689457877"><ele>502.0</ele><time>2026-04-26T10:04:43Z</time></trkpt><trkpt lat="43.17735323148055" lon="12.868970108329131"><ele>502.0</ele><time>2026-04-26T10:04:43.999Z</time></trkpt><trkpt lat="43.17745452605912" lon="12.869082913089828"><ele>502.0</ele><time>2026-04-26T10:04:44.999Z</time></trkpt><trkpt lat="43.17754351557474" lon="12.869196981764318"><ele>502.0</ele><time>2026-04-26T10:04:45.999Z</time></trkpt><trkpt lat="43.17761327096776" lon="12.86931969204893"><ele>502.0</ele><time>2026-04-26T10:04:46.999Z</time></trkpt><trkpt lat="43.177661549548034" lon="12.869450966636993"><ele>500.20000000000005</ele><time>2026-04-26T10:04:47.999Z</time></trkpt><trkpt lat="43.17769284375647" lon="12.869588284704628"><ele>498.40000000000003</ele><time>2026-04-26T10:04:48.999Z</time></trkpt><trkpt lat="43.17772241011553" lon="12.869723821118354"><ele>496.59999999999997</ele><time>2026-04-26T10:04:49.999Z</time></trkpt><trkpt lat="43.177762476112896" lon="12.869863002322825"><ele>494.79999999999995</ele><time>2026-04-26T10:04:50.999Z</time></trkpt><trkpt lat="43.17781992376581" lon="12.870007628897334"><ele>493.0</ele><time>2026-04-26T10:04:51.999Z</time></trkpt><trkpt lat="43.17789188557302" lon="12.870143062938267"><ele>493.5</ele><time>2026-04-26T10:04:52.999Z</time></trkpt><trkpt lat="43.177977943663194" lon="12.870261050262311"><ele>494.0</ele><time>2026-04-26T10:04:53.999Z</time></trkpt><trkpt lat="43.178071759809576" lon="12.870368605894553"><ele>494.5</ele><time>2026-04-26T10:04:54.999Z</time></trkpt><trkpt lat="43.17816727492076" lon="12.8704680811409"><ele>495.0</ele><time>2026-04-26T10:04:55.999Z</time></trkpt><trkpt lat="43.17826350230845" lon="12.870571233775088"><ele>495.0</ele><time>2026-04-26T10:04:56.999Z</time></trkpt><trkpt lat="43.17836266110949" lon="12.870676589036696"><ele>495.0</ele><time>2026-04-26T10:04:57.999Z</time></trkpt><trkpt lat="43.17846722316155" lon="12.870782617899806"><ele>495.0</ele><time>2026-04-26T10:04:58.999Z</time></trkpt><trkpt lat="43.17857417110989" lon="12.87089040526299"><ele>495.0</ele><time>2026-04-26T10:04:59.999Z</time></trkpt><trkpt lat="43.178680778180244" lon="12.871002287171143"><ele>495.5</ele><time>2026-04-26T10:05:00.999Z</time></trkpt><trkpt lat="43.178788297322264" lon="12.871117822149749"><ele>496.0</ele><time>2026-04-26T10:05:01.999Z</time></trkpt><trkpt lat="43.17888779393378" lon="12.87123512432626"><ele>496.5</ele><time>2026-04-26T10:05:02.999Z</time></trkpt><trkpt lat="43.178979667539146" lon="12.871350798499556"><ele>497.0</ele><time>2026-04-26T10:05:03.999Z</time></trkpt><trkpt lat="43.17906312154613" lon="12.871459684158998"><ele>497.0</ele><time>2026-04-26T10:05:04.999Z</time></trkpt><trkpt lat="43.17914661229618" lon="12.87156171642509"><ele>497.00000000000006</ele><time>2026-04-26T10:05:05.999Z</time></trkpt><trkpt lat="43.17922603697096" lon="12.87165965966918"><ele>497.00000000000006</ele><time>2026-04-26T10:05:06.999Z</time></trkpt><trkpt lat="43.17930383410576" lon="12.871750128749428"><ele>497.0</ele><time>2026-04-26T10:05:07.999Z</time></trkpt><trkpt lat="43.17938046691314" lon="12.871836198896794"><ele>497.0</ele><time>2026-04-26T10:05:08.999Z</time></trkpt><trkpt lat="43.179450886656234" lon="12.87191790783393"><ele>495.0</ele><time>2026-04-26T10:05:09.999Z</time></trkpt><trkpt lat="43.17951696029118" lon="12.871999822230118"><ele>493.00000000000006</ele><time>2026-04-26T10:05:10.999Z</time></trkpt><trkpt lat="43.17958062003926" lon="12.87207723735346"><ele>491.00000000000006</ele><time>2026-04-26T10:05:11.999Z</time></trkpt><trkpt lat="43.17964827490846" lon="12.872165099751228"><ele>489.0</ele><time>2026-04-26T10:05:12.999Z</time></trkpt><trkpt lat="43.1797198047576" lon="12.872254154838679"><ele>487.0</ele><time>2026-04-26T10:05:13.999Z</time></trkpt><trkpt lat="43.179789337746875" lon="12.872345604982073"><ele>487.83333333333337</ele><time>2026-04-26T10:05:14.999Z</time></trkpt><trkpt lat="43.179854645384914" lon="12.872425710946038"><ele>488.6666666666667</ele><time>2026-04-26T10:05:15.999Z</time></trkpt><trkpt lat="43.179915024777515" lon="12.87250296378632"><ele>489.5</ele><time>2026-04-26T10:05:16.999Z</time></trkpt><trkpt lat="43.17997041783034" lon="12.872581394870354"><ele>490.33333333333337</ele><time>2026-04-26T10:05:17.999Z</time></trkpt><trkpt lat="43.18001616125868" lon="12.8726654652865"><ele>491.1666666666667</ele><time>2026-04-26T10:05:18.999Z</time></trkpt><trkpt lat="43.180048031347006" lon="12.87275626759918"><ele>492.0</ele><time>2026-04-26T10:05:19.999Z</time></trkpt><trkpt lat="43.18006413553164" lon="12.872847156333355"><ele>492.0</ele><time>2026-04-26T10:05:20.999Z</time></trkpt><trkpt lat="43.180062793355326" lon="12.872936267339139"><ele>492.0</ele><time>2026-04-26T10:05:21.999Z</time></trkpt><trkpt lat="43.18002714869494" lon="12.873092335631585"><ele>492.0</ele><time>2026-04-26T10:05:23.999Z</time></trkpt><trkpt lat="43.17996770449806" lon="12.873182306266727"><ele>492.0</ele><time>2026-04-26T10:05:25.999Z</time></trkpt><trkpt lat="43.17992746394904" lon="12.873249624075932"><ele>492.0</ele><time>2026-04-26T10:05:27.998Z</time></trkpt><trkpt lat="43.17989373926388" lon="12.873328006186878"><ele>492.0</ele><time>2026-04-26T10:05:31.998Z</time></trkpt><trkpt lat="43.17986219987345" lon="12.873436015395663"><ele>491.6</ele><time>2026-04-26T10:05:35.998Z</time></trkpt><trkpt lat="43.1799513785532" lon="12.873553443575027"><ele>491.20000000000005</ele><time>2026-04-26T10:05:37.998Z</time></trkpt><trkpt lat="43.18002538487363" lon="12.873611329756292"><ele>490.8</ele><time>2026-04-26T10:05:38.998Z</time></trkpt><trkpt lat="43.18010099735259" lon="12.873676939247115"><ele>490.4</ele><time>2026-04-26T10:05:39.998Z</time></trkpt><trkpt lat="43.18018849767999" lon="12.873753337797087"><ele>490.0</ele><time>2026-04-26T10:05:40.998Z</time></trkpt><trkpt lat="43.180276800608596" lon="12.873840354374988"><ele>490.0</ele><time>2026-04-26T10:05:41.998Z</time></trkpt><trkpt lat="43.18035220629162" lon="12.873937656897962"><ele>490.0</ele><time>2026-04-26T10:05:42.998Z</time></trkpt><trkpt lat="43.18041867854089" lon="12.874041407388654"><ele>490.0</ele><time>2026-04-26T10:05:43.998Z</time></trkpt><trkpt lat="43.18048113889584" lon="12.874135733328833"><ele>490.0</ele><time>2026-04-26T10:05:44.998Z</time></trkpt><trkpt lat="43.1805342588522" lon="12.874236120830714"><ele>490.0</ele><time>2026-04-26T10:05:45.998Z</time></trkpt><trkpt lat="43.18057845523384" lon="12.874331207279162"><ele>490.33333333333337</ele><time>2026-04-26T10:05:46.998Z</time></trkpt><trkpt lat="43.180621103353104" lon="12.874425608053079"><ele>490.6666666666667</ele><time>2026-04-26T10:05:47.998Z</time></trkpt><trkpt lat="43.18066575948" lon="12.874521368992035"><ele>491.0</ele><time>2026-04-26T10:05:48.998Z</time></trkpt><trkpt lat="43.18071144410846" lon="12.874623494487391"><ele>491.33333333333337</ele><time>2026-04-26T10:05:49.998Z</time></trkpt><trkpt lat="43.18075698181786" lon="12.874731562461758"><ele>491.6666666666667</ele><time>2026-04-26T10:05:50.998Z</time></trkpt><trkpt lat="43.180804475505965" lon="12.874829577250585"><ele>492.0</ele><time>2026-04-26T10:05:51.998Z</time></trkpt><trkpt lat="43.18085693566725" lon="12.874923369936146"><ele>492.0</ele><time>2026-04-26T10:05:52.998Z</time></trkpt><trkpt lat="43.18092205439825" lon="12.875007591438733"><ele>492.0</ele><time>2026-04-26T10:05:53.998Z</time></trkpt><trkpt lat="43.18098061513413" lon="12.8750851097436"><ele>492.0</ele><time>2026-04-26T10:05:54.998Z</time></trkpt><trkpt lat="43.18104012684928" lon="12.875157417221486"><ele>492.0</ele><time>2026-04-26T10:05:55.998Z</time></trkpt><trkpt lat="43.18110633338094" lon="12.875221901344982"><ele>492.0</ele><time>2026-04-26T10:05:56.998Z</time></trkpt><trkpt lat="43.18117869035002" lon="12.875285467401838"><ele>492.0</ele><time>2026-04-26T10:05:57.998Z</time></trkpt><trkpt lat="43.18125797359551" lon="12.87535272627822"><ele>491.3333333333333</ele><time>2026-04-26T10:05:58.998Z</time></trkpt><trkpt lat="43.18133439312991" lon="12.875421490723035"><ele>490.66666666666663</ele><time>2026-04-26T10:05:59.998Z</time></trkpt><trkpt lat="43.181406505385596" lon="12.87548932441676"><ele>490.0</ele><time>2026-04-26T10:06:00.998Z</time></trkpt><trkpt lat="43.18147994354719" lon="12.875558009781244"><ele>489.3333333333333</ele><time>2026-04-26T10:06:01.998Z</time></trkpt><trkpt lat="43.18155107708318" lon="12.875620976839121"><ele>488.66666666666663</ele><time>2026-04-26T10:06:02.998Z</time></trkpt><trkpt lat="43.18161636792893" lon="12.875680068154223"><ele>488.0</ele><time>2026-04-26T10:06:03.998Z</time></trkpt><trkpt lat="43.18167461103275" lon="12.875746040376644"><ele>488.16666666666663</ele><time>2026-04-26T10:06:04.998Z</time></trkpt><trkpt lat="43.18173313254236" lon="12.87582062919784"><ele>488.3333333333333</ele><time>2026-04-26T10:06:05.998Z</time></trkpt><trkpt lat="43.18179006569234" lon="12.87590483918155"><ele>488.5</ele><time>2026-04-26T10:06:06.998Z</time></trkpt><trkpt lat="43.181839939824734" lon="12.876003607479175"><ele>488.66666666666663</ele><time>2026-04-26T10:06:07.998Z</time></trkpt><trkpt lat="43.181882695481654" lon="12.87611304267148"><ele>488.8333333333333</ele><time>2026-04-26T10:06:08.998Z</time></trkpt><trkpt lat="43.181916958906086" lon="12.87622741768357"><ele>489.0</ele><time>2026-04-26T10:06:09.998Z</time></trkpt><trkpt lat="43.18194120933759" lon="12.876337477251834"><ele>489.0</ele><time>2026-04-26T10:06:10.998Z</time></trkpt><trkpt lat="43.181960735484914" lon="12.876445039356454"><ele>489.0</ele><time>2026-04-26T10:06:11.998Z</time></trkpt><trkpt lat="43.18197647100402" lon="12.876551231097682"><ele>489.0</ele><time>2026-04-26T10:06:12.998Z</time></trkpt><trkpt lat="43.181982184312716" lon="12.876664656795663"><ele>489.0</ele><time>2026-04-26T10:06:13.997Z</time></trkpt><trkpt lat="43.18197739137227" lon="12.876783391587445"><ele>489.0</ele><time>2026-04-26T10:06:15Z</time></trkpt><trkpt lat="43.18196122161396" lon="12.876903182979461"><ele>489.0</ele><time>2026-04-26T10:06:16Z</time></trkpt><trkpt lat="43.18193636897507" lon="12.877014439095014"><ele>489.0</ele><time>2026-04-26T10:06:17Z</time></trkpt><trkpt lat="43.181906071591484" lon="12.877119497023523"><ele>489.0</ele><time>2026-04-26T10:06:18Z</time></trkpt><trkpt lat="43.18187207791469" lon="12.877223812917663"><ele>489.0</ele><time>2026-04-26T10:06:19Z</time></trkpt><trkpt lat="43.181838866412306" lon="12.87732968453847"><ele>489.0</ele><time>2026-04-26T10:06:20Z</time></trkpt><trkpt lat="43.181806874159044" lon="12.877437786719364"><ele>489.0</ele><time>2026-04-26T10:06:21Z</time></trkpt><trkpt lat="43.18177591267336" lon="12.877547007232408"><ele>489.0</ele><time>2026-04-26T10:06:22Z</time></trkpt><trkpt lat="43.1817525052378" lon="12.87765834211552"><ele>488.1666666666667</ele><time>2026-04-26T10:06:23Z</time></trkpt><trkpt lat="43.181751611163754" lon="12.87777909646327"><ele>487.33333333333337</ele><time>2026-04-26T10:06:24Z</time></trkpt><trkpt lat="43.18176631610142" lon="12.877891840134376"><ele>486.5</ele><time>2026-04-26T10:06:25Z</time></trkpt><trkpt lat="43.181791850543036" lon="12.877996441575037"><ele>485.6666666666667</ele><time>2026-04-26T10:06:26Z</time></trkpt><trkpt lat="43.1818265169787" lon="12.878099031514159"><ele>484.83333333333337</ele><time>2026-04-26T10:06:27Z</time></trkpt><trkpt lat="43.18188009224857" lon="12.878186972878732"><ele>484.0</ele><time>2026-04-26T10:06:28Z</time></trkpt><trkpt lat="43.181952222635104" lon="12.878260313610435"><ele>484.0</ele><time>2026-04-26T10:06:29Z</time></trkpt><trkpt lat="43.182059672513574" lon="12.878330655018484"><ele>484.0</ele><time>2026-04-26T10:06:30Z</time></trkpt><trkpt lat="43.182189788370394" lon="12.878421497935046"><ele>484.0</ele><time>2026-04-26T10:06:31Z</time></trkpt><trkpt lat="43.18233209457855" lon="12.878540840231189"><ele>484.0</ele><time>2026-04-26T10:06:32Z</time></trkpt><trkpt lat="43.18246652498668" lon="12.878664043861072"><ele>482.33333333333337</ele><time>2026-04-26T10:06:33Z</time></trkpt><trkpt lat="43.18260685233588" lon="12.878792525067263"><ele>480.66666666666663</ele><time>2026-04-26T10:06:34Z</time></trkpt><trkpt lat="43.18275425667687" lon="12.878916541150241"><ele>479.0</ele><time>2026-04-26T10:06:35Z</time></trkpt><trkpt lat="43.18290827293861" lon="12.879035010230698"><ele>479.0</ele><time>2026-04-26T10:06:36Z</time></trkpt><trkpt lat="43.183062800970966" lon="12.879152504461"><ele>479.0</ele><time>2026-04-26T10:06:37Z</time></trkpt><trkpt lat="43.1832111384432" lon="12.879271777806201"><ele>479.0</ele><time>2026-04-26T10:06:38Z</time></trkpt><trkpt lat="43.18335221257383" lon="12.879390669533011"><ele>479.0</ele><time>2026-04-26T10:06:39Z</time></trkpt><trkpt lat="43.18348889409346" lon="12.879516080105779"><ele>479.0</ele><time>2026-04-26T10:06:40Z</time></trkpt><trkpt lat="43.183619498740704" lon="12.87965416651957"><ele>479.0</ele><time>2026-04-26T10:06:41Z</time></trkpt><trkpt lat="43.183743919889146" lon="12.879801829060023"><ele>479.0</ele><time>2026-04-26T10:06:42Z</time></trkpt><trkpt lat="43.18386923151304" lon="12.87995176215413"><ele>479.0</ele><time>2026-04-26T10:06:43Z</time></trkpt><trkpt lat="43.18399655835042" lon="12.880105288232013"><ele>479.0</ele><time>2026-04-26T10:06:44Z</time></trkpt><trkpt lat="43.18412476674133" lon="12.880263219691239"><ele>479.3333333333333</ele><time>2026-04-26T10:06:45Z</time></trkpt><trkpt lat="43.18425503038657" lon="12.880421353861193"><ele>479.66666666666663</ele><time>2026-04-26T10:06:46Z</time></trkpt><trkpt lat="43.184384210026806" lon="12.880575335020485"><ele>480.0</ele><time>2026-04-26T10:06:47Z</time></trkpt><trkpt lat="43.18449552387165" lon="12.880734597814019"><ele>480.0</ele><time>2026-04-26T10:06:48Z</time></trkpt><trkpt lat="43.184597628234904" lon="12.880912982809681"><ele>480.0</ele><time>2026-04-26T10:06:49Z</time></trkpt><trkpt lat="43.18469519002191" lon="12.881100574175324"><ele>480.0</ele><time>2026-04-26T10:06:50Z</time></trkpt><trkpt lat="43.18478881206351" lon="12.881292805666945"><ele>481.0</ele><time>2026-04-26T10:06:51Z</time></trkpt><trkpt lat="43.18486937982" lon="12.881479927484218"><ele>482.0</ele><time>2026-04-26T10:06:52Z</time></trkpt><trkpt lat="43.184933190821035" lon="12.881662238621303"><ele>483.0</ele><time>2026-04-26T10:06:53Z</time></trkpt><trkpt lat="43.1849720230786" lon="12.881851546222261"><ele>484.0</ele><time>2026-04-26T10:06:54Z</time></trkpt><trkpt lat="43.18497795471555" lon="12.882053390168895"><ele>484.0</ele><time>2026-04-26T10:06:55Z</time></trkpt><trkpt lat="43.184972956681186" lon="12.882263168463233"><ele>484.0</ele><time>2026-04-26T10:06:56Z</time></trkpt><trkpt lat="43.18496740396361" lon="12.882475719921562"><ele>484.0</ele><time>2026-04-26T10:06:57Z</time></trkpt><trkpt lat="43.18495934424448" lon="12.882688137602832"><ele>484.25</ele><time>2026-04-26T10:06:58Z</time></trkpt><trkpt lat="43.184949680035004" lon="12.88288521251222"><ele>484.5</ele><time>2026-04-26T10:06:59Z</time></trkpt><trkpt lat="43.18493998939113" lon="12.883069811744255"><ele>484.75</ele><time>2026-04-26T10:07:00Z</time></trkpt><trkpt lat="43.18492307125524" lon="12.8832448713754"><ele>485.0</ele><time>2026-04-26T10:07:00.999Z</time></trkpt><trkpt lat="43.18488421239541" lon="12.883405188512821"><ele>485.6</ele><time>2026-04-26T10:07:01.999Z</time></trkpt><trkpt lat="43.184832080569684" lon="12.88355095262494"><ele>486.2</ele><time>2026-04-26T10:07:02.999Z</time></trkpt><trkpt lat="43.184778850825595" lon="12.88368824156659"><ele>486.79999999999995</ele><time>2026-04-26T10:07:03.999Z</time></trkpt><trkpt lat="43.184730633174254" lon="12.883825385632742"><ele>487.4</ele><time>2026-04-26T10:07:04.999Z</time></trkpt><trkpt lat="43.184701420714404" lon="12.883958132778485"><ele>488.0</ele><time>2026-04-26T10:07:05.999Z</time></trkpt><trkpt lat="43.18469886291621" lon="12.884093953473542"><ele>488.0</ele><time>2026-04-26T10:07:06.999Z</time></trkpt><trkpt lat="43.18472157489375" lon="12.884231427323359"><ele>487.99999999999994</ele><time>2026-04-26T10:07:07.999Z</time></trkpt><trkpt lat="43.18476112246788" lon="12.884369432596849"><ele>487.99999999999994</ele><time>2026-04-26T10:07:08.999Z</time></trkpt><trkpt lat="43.18480872886877" lon="12.884514846131509"><ele>488.0</ele><time>2026-04-26T10:07:09.999Z</time></trkpt><trkpt lat="43.18485882129341" lon="12.88466410619212"><ele>488.0</ele><time>2026-04-26T10:07:10.999Z</time></trkpt><trkpt lat="43.184911892929414" lon="12.884820265396966"><ele>488.75</ele><time>2026-04-26T10:07:11.999Z</time></trkpt><trkpt lat="43.18496143983541" lon="12.884974154365175"><ele>489.5</ele><time>2026-04-26T10:07:12.999Z</time></trkpt><trkpt lat="43.18501191648915" lon="12.885136610330305"><ele>490.25</ele><time>2026-04-26T10:07:13.999Z</time></trkpt><trkpt lat="43.18506394445461" lon="12.885301705577543"><ele>491.0</ele><time>2026-04-26T10:07:14.999Z</time></trkpt><trkpt lat="43.185115886153596" lon="12.88546748301052"><ele>488.75</ele><time>2026-04-26T10:07:15.999Z</time></trkpt><trkpt lat="43.185170713107475" lon="12.885640167815163"><ele>486.5</ele><time>2026-04-26T10:07:16.999Z</time></trkpt><trkpt lat="43.185225799587926" lon="12.885814906469564"><ele>484.25</ele><time>2026-04-26T10:07:17.999Z</time></trkpt><trkpt lat="43.185281347820656" lon="12.885995084005463"><ele>482.0</ele><time>2026-04-26T10:07:18.999Z</time></trkpt><trkpt lat="43.18533513120408" lon="12.886177599055312"><ele>481.75</ele><time>2026-04-26T10:07:19.999Z</time></trkpt><trkpt lat="43.18538835974533" lon="12.886358534714045"><ele>481.5</ele><time>2026-04-26T10:07:20.999Z</time></trkpt><trkpt lat="43.18544279909872" lon="12.886533603270111"><ele>481.25</ele><time>2026-04-26T10:07:21.999Z</time></trkpt><trkpt lat="43.18549607463197" lon="12.886706588044644"><ele>481.0</ele><time>2026-04-26T10:07:22.999Z</time></trkpt><trkpt lat="43.18554431176346" lon="12.886870578251019"><ele>481.0</ele><time>2026-04-26T10:07:23.999Z</time></trkpt><trkpt lat="43.185589340956305" lon="12.887028026972901"><ele>481.0</ele><time>2026-04-26T10:07:24.999Z</time></trkpt><trkpt lat="43.185631347194956" lon="12.887173235048715"><ele>481.0</ele><time>2026-04-26T10:07:25.999Z</time></trkpt><trkpt lat="43.18567138368166" lon="12.887312093232183"><ele>481.0</ele><time>2026-04-26T10:07:26.999Z</time></trkpt><trkpt lat="43.185708148965716" lon="12.887445770384808"><ele>482.0</ele><time>2026-04-26T10:07:27.999Z</time></trkpt><trkpt lat="43.185739060144044" lon="12.887576506188832"><ele>483.0</ele><time>2026-04-26T10:07:28.999Z</time></trkpt><trkpt lat="43.185782918037575" lon="12.887852040109413"><ele>484.0</ele><time>2026-04-26T10:07:29.999Z</time></trkpt><trkpt lat="43.185798860222604" lon="12.888030369627762"><ele>485.0</ele><time>2026-04-26T10:07:30.999Z</time></trkpt><trkpt lat="43.18580879629876" lon="12.888214379881568"><ele>485.0</ele><time>2026-04-26T10:07:31.999Z</time></trkpt><trkpt lat="43.18582589925817" lon="12.888391372882312"><ele>485.0</ele><time>2026-04-26T10:07:32.999Z</time></trkpt><trkpt lat="43.185852557204605" lon="12.888554048708912"><ele>485.0</ele><time>2026-04-26T10:07:33.999Z</time></trkpt><trkpt lat="43.18591381371238" lon="12.888686507201342"><ele>485.0</ele><time>2026-04-26T10:07:34.999Z</time></trkpt><trkpt lat="43.18600642736406" lon="12.888785714283497"><ele>484.75</ele><time>2026-04-26T10:07:35.999Z</time></trkpt><trkpt lat="43.18611153166801" lon="12.888856243236091"><ele>484.5</ele><time>2026-04-26T10:07:36.999Z</time></trkpt><trkpt lat="43.18622359196528" lon="12.888887410637405"><ele>484.25</ele><time>2026-04-26T10:07:37.999Z</time></trkpt><trkpt lat="43.186341709852975" lon="12.88890064850715"><ele>484.0</ele><time>2026-04-26T10:07:38.999Z</time></trkpt><trkpt lat="43.18645737518372" lon="12.888890058882291"><ele>483.5</ele><time>2026-04-26T10:07:39.999Z</time></trkpt><trkpt lat="43.18657241202094" lon="12.888861328280717"><ele>483.0</ele><time>2026-04-26T10:07:40.999Z</time></trkpt><trkpt lat="43.18669198069301" lon="12.888821152507361"><ele>482.5</ele><time>2026-04-26T10:07:41.999Z</time></trkpt><trkpt lat="43.186816661514364" lon="12.888762425989132"><ele>482.0</ele><time>2026-04-26T10:07:42.999Z</time></trkpt><trkpt lat="43.186938921685424" lon="12.888707782212899"><ele>482.0</ele><time>2026-04-26T10:07:43.999Z</time></trkpt><trkpt lat="43.18705430766639" lon="12.88864326048106"><ele>482.0</ele><time>2026-04-26T10:07:44.999Z</time></trkpt><trkpt lat="43.18717444926805" lon="12.888600995710858"><ele>482.0</ele><time>2026-04-26T10:07:45.999Z</time></trkpt><trkpt lat="43.18729746913329" lon="12.88859347108218"><ele>482.0</ele><time>2026-04-26T10:07:46.999Z</time></trkpt><trkpt lat="43.18741457574915" lon="12.888613392846551"><ele>480.5</ele><time>2026-04-26T10:07:47.999Z</time></trkpt><trkpt lat="43.1875301324061" lon="12.888661715820707"><ele>479.0</ele><time>2026-04-26T10:07:48.999Z</time></trkpt><trkpt lat="43.18764993804326" lon="12.888722551799617"><ele>477.5</ele><time>2026-04-26T10:07:49.998Z</time></trkpt><trkpt lat="43.18775022258616" lon="12.888786187473821"><ele>476.0</ele><time>2026-04-26T10:07:50.998Z</time></trkpt><trkpt lat="43.187839109399114" lon="12.888859001844393"><ele>476.0</ele><time>2026-04-26T10:07:51.998Z</time></trkpt><trkpt lat="43.18792783032891" lon="12.888948751335466"><ele>476.0</ele><time>2026-04-26T10:07:52.998Z</time></trkpt><trkpt lat="43.1880145092215" lon="12.889054496940979"><ele>476.0</ele><time>2026-04-26T10:07:53.998Z</time></trkpt><trkpt lat="43.188090556759995" lon="12.8891559806345"><ele>476.0</ele><time>2026-04-26T10:07:54.998Z</time></trkpt><trkpt lat="43.188158135048866" lon="12.88925803593386"><ele>476.0</ele><time>2026-04-26T10:07:55.998Z</time></trkpt><trkpt lat="43.18822038158904" lon="12.889357978141792"><ele>475.8333333333333</ele><time>2026-04-26T10:07:56.998Z</time></trkpt><trkpt lat="43.18827523687721" lon="12.88945350781645"><ele>475.66666666666663</ele><time>2026-04-26T10:07:57.998Z</time></trkpt><trkpt lat="43.188317400966525" lon="12.889521713613423"><ele>475.5</ele><time>2026-04-26T10:07:58.998Z</time></trkpt><trkpt lat="43.18837147083557" lon="12.889630577169479"><ele>475.33333333333337</ele><time>2026-04-26T10:08:00.998Z</time></trkpt><trkpt lat="43.188407751171766" lon="12.889731395796025"><ele>475.1666666666667</ele><time>2026-04-26T10:08:02.998Z</time></trkpt><trkpt lat="43.188440578702505" lon="12.889822278027186"><ele>475.0</ele><time>2026-04-26T10:08:04.998Z</time></trkpt><trkpt lat="43.18850547448522" lon="12.889868067948719"><ele>475.0</ele><time>2026-04-26T10:08:07.998Z</time></trkpt><trkpt lat="43.188493159255" lon="12.88973169395586"><ele>475.0</ele><time>2026-04-26T10:08:12.998Z</time></trkpt><trkpt lat="43.18843239887383" lon="12.889660224293024"><ele>475.0</ele><time>2026-04-26T10:08:13.998Z</time></trkpt><trkpt lat="43.18837364252517" lon="12.88957552988635"><ele>475.0</ele><time>2026-04-26T10:08:14.998Z</time></trkpt><trkpt lat="43.18831609564124" lon="12.889479732850559"><ele>475.0</ele><time>2026-04-26T10:08:15.998Z</time></trkpt><trkpt lat="43.18824893364785" lon="12.88936651470591"><ele>475.25</ele><time>2026-04-26T10:08:16.998Z</time></trkpt><trkpt lat="43.1881739391979" lon="12.889247096118828"><ele>475.5</ele><time>2026-04-26T10:08:17.998Z</time></trkpt><trkpt lat="43.18808921318628" lon="12.889130070422627"><ele>475.75</ele><time>2026-04-26T10:08:18.998Z</time></trkpt><trkpt lat="43.187995292686395" lon="12.889008360998117"><ele>476.0</ele><time>2026-04-26T10:08:20Z</time></trkpt><trkpt lat="43.187887718366355" lon="12.88888596425033"><ele>476.0</ele><time>2026-04-26T10:08:21Z</time></trkpt><trkpt lat="43.18776061278955" lon="12.888775062363665"><ele>476.0</ele><time>2026-04-26T10:08:22Z</time></trkpt><trkpt lat="43.18761723468251" lon="12.888679794707242"><ele>476.0</ele><time>2026-04-26T10:08:23Z</time></trkpt><trkpt lat="43.18746457773381" lon="12.888608884764375"><ele>478.0</ele><time>2026-04-26T10:08:24Z</time></trkpt><trkpt lat="43.187299349938556" lon="12.88856650844772"><ele>480.0</ele><time>2026-04-26T10:08:25Z</time></trkpt><trkpt lat="43.18712525897331" lon="12.888564915351576"><ele>482.0</ele><time>2026-04-26T10:08:26Z</time></trkpt><trkpt lat="43.18695350235573" lon="12.888625408883218"><ele>482.0</ele><time>2026-04-26T10:08:27Z</time></trkpt><trkpt lat="43.186787561100346" lon="12.888716040117394"><ele>482.0</ele><time>2026-04-26T10:08:28Z</time></trkpt><trkpt lat="43.18662807338936" lon="12.888788226771382"><ele>482.0</ele><time>2026-04-26T10:08:29Z</time></trkpt><trkpt lat="43.18647179239206" lon="12.888830936032662"><ele>482.5</ele><time>2026-04-26T10:08:30Z</time></trkpt><trkpt lat="43.18633031225253" lon="12.888841449014249"><ele>483.0</ele><time>2026-04-26T10:08:31Z</time></trkpt><trkpt lat="43.18619317459691" lon="12.888821163759633"><ele>483.5</ele><time>2026-04-26T10:08:32Z</time></trkpt><trkpt lat="43.18605582880917" lon="12.888761841610739"><ele>484.0</ele><time>2026-04-26T10:08:33Z</time></trkpt><trkpt lat="43.185931668182675" lon="12.888659744422075"><ele>484.0</ele><time>2026-04-26T10:08:34Z</time></trkpt><trkpt lat="43.18584517555569" lon="12.888498438468933"><ele>484.0</ele><time>2026-04-26T10:08:35Z</time></trkpt><trkpt lat="43.18580444805879" lon="12.888305143385871"><ele>484.0</ele><time>2026-04-26T10:08:36Z</time></trkpt><trkpt lat="43.185800342233854" lon="12.888106023338006"><ele>484.0</ele><time>2026-04-26T10:08:37Z</time></trkpt><trkpt lat="43.18580962017772" lon="12.887903432284453"><ele>484.33333333333337</ele><time>2026-04-26T10:08:38Z</time></trkpt><trkpt lat="43.18578518264058" lon="12.887695319184107"><ele>484.66666666666663</ele><time>2026-04-26T10:08:39Z</time></trkpt><trkpt lat="43.18573755529732" lon="12.887482431429703"><ele>485.0</ele><time>2026-04-26T10:08:40Z</time></trkpt><trkpt lat="43.18567875100533" lon="12.887267489322102"><ele>483.66666666666663</ele><time>2026-04-26T10:08:41Z</time></trkpt><trkpt lat="43.18561305924072" lon="12.887041406502664"><ele>482.33333333333337</ele><time>2026-04-26T10:08:42Z</time></trkpt><trkpt lat="43.185545897183324" lon="12.886811485112192"><ele>481.0</ele><time>2026-04-26T10:08:43Z</time></trkpt><trkpt lat="43.185480469896184" lon="12.886587128904816"><ele>481.33333333333337</ele><time>2026-04-26T10:08:44Z</time></trkpt><trkpt lat="43.18541286606614" lon="12.88636141836832"><ele>481.66666666666663</ele><time>2026-04-26T10:08:45Z</time></trkpt><trkpt lat="43.18534423250554" lon="12.886130766838217"><ele>482.0</ele><time>2026-04-26T10:08:46Z</time></trkpt><trkpt lat="43.18527204718139" lon="12.885901156847265"><ele>482.0</ele><time>2026-04-26T10:08:47Z</time></trkpt><trkpt lat="43.1851968241753" lon="12.88567036262696"><ele>482.0</ele><time>2026-04-26T10:08:48Z</time></trkpt><trkpt lat="43.1851219046954" lon="12.885435223166624"><ele>482.0</ele><time>2026-04-26T10:08:49Z</time></trkpt><trkpt lat="43.18504689763609" lon="12.885195168886918"><ele>485.0</ele><time>2026-04-26T10:08:50Z</time></trkpt><trkpt lat="43.18497511256654" lon="12.884962850124035"><ele>488.0</ele><time>2026-04-26T10:08:51Z</time></trkpt><trkpt lat="43.184908643206086" lon="12.884745474535421"><ele>491.0</ele><time>2026-04-26T10:08:52Z</time></trkpt><trkpt lat="43.18484421832646" lon="12.884537661792315"><ele>491.25</ele><time>2026-04-26T10:08:53Z</time></trkpt><trkpt lat="43.184778743577084" lon="12.884343772374619"><ele>491.5</ele><time>2026-04-26T10:08:54Z</time></trkpt><trkpt lat="43.18472523997021" lon="12.884154322460605"><ele>491.75</ele><time>2026-04-26T10:08:55Z</time></trkpt><trkpt lat="43.18471305959524" lon="12.883961682133467"><ele>492.0</ele><time>2026-04-26T10:08:56Z</time></trkpt><trkpt lat="43.18475326712559" lon="12.883776522721925"><ele>492.5</ele><time>2026-04-26T10:08:57Z</time></trkpt><trkpt lat="43.1848295281469" lon="12.88360269898633"><ele>493.0</ele><time>2026-04-26T10:08:58Z</time></trkpt><trkpt lat="43.18490349763021" lon="12.883439318404017"><ele>493.5</ele><time>2026-04-26T10:08:59Z</time></trkpt><trkpt lat="43.184957642025594" lon="12.88327275241704"><ele>494.0</ele><time>2026-04-26T10:09:00Z</time></trkpt><trkpt lat="43.184986328837056" lon="12.883089343312822"><ele>491.75</ele><time>2026-04-26T10:09:01Z</time></trkpt><trkpt lat="43.18498767464355" lon="12.882893120241485"><ele>489.5</ele><time>2026-04-26T10:09:02Z</time></trkpt><trkpt lat="43.18498244835917" lon="12.8826980265776"><ele>487.25</ele><time>2026-04-26T10:09:03Z</time></trkpt><trkpt lat="43.184986799950025" lon="12.882502144086011"><ele>485.0</ele><time>2026-04-26T10:09:03.999Z</time></trkpt><trkpt lat="43.184997332701585" lon="12.882306125876358"><ele>484.75</ele><time>2026-04-26T10:09:04.999Z</time></trkpt><trkpt lat="43.18500158807836" lon="12.88211344420082"><ele>484.5</ele><time>2026-04-26T10:09:05.999Z</time></trkpt><trkpt lat="43.18500056285554" lon="12.881932992288029"><ele>484.25</ele><time>2026-04-26T10:09:06.999Z</time></trkpt><trkpt lat="43.1849906556737" lon="12.881764669020432"><ele>484.0</ele><time>2026-04-26T10:09:07.999Z</time></trkpt><trkpt lat="43.184954206020315" lon="12.88160609829925"><ele>483.25</ele><time>2026-04-26T10:09:08.999Z</time></trkpt><trkpt lat="43.18489064083388" lon="12.881454146461412"><ele>482.5</ele><time>2026-04-26T10:09:09.999Z</time></trkpt><trkpt lat="43.18481264577347" lon="12.88130713799901"><ele>481.75</ele><time>2026-04-26T10:09:10.999Z</time></trkpt><trkpt lat="43.18473812171326" lon="12.881160869506479"><ele>481.0</ele><time>2026-04-26T10:09:11.999Z</time></trkpt><trkpt lat="43.18467804041024" lon="12.88101748610173"><ele>480.8</ele><time>2026-04-26T10:09:12.999Z</time></trkpt><trkpt lat="43.18461795892591" lon="12.88088964809929"><ele>480.6</ele><time>2026-04-26T10:09:13.999Z</time></trkpt><trkpt lat="43.18455606458053" lon="12.88078767609145"><ele>480.4</ele><time>2026-04-26T10:09:14.999Z</time></trkpt><trkpt lat="43.18450098894365" lon="12.880703960088848"><ele>480.2</ele><time>2026-04-26T10:09:15.999Z</time></trkpt><trkpt lat="43.18445117518046" lon="12.880635681139877"><ele>480.0</ele><time>2026-04-26T10:09:16.999Z</time></trkpt><trkpt lat="43.184371666900034" lon="12.88053820286229"><ele>480.0</ele><time>2026-04-26T10:09:18.999Z</time></trkpt><trkpt lat="43.184305157056784" lon="12.880475922787392"><ele>480.0</ele><time>2026-04-26T10:09:20.999Z</time></trkpt><trkpt lat="43.18423645716482" lon="12.880471295301694"><ele>480.0</ele><time>2026-04-26T10:09:23.999Z</time></trkpt><trkpt lat="43.18417692749084" lon="12.880351802877106"><ele>480.0</ele><time>2026-04-26T10:18:21.998Z</time></trkpt><trkpt lat="43.18413800010564" lon="12.880279977343967"><ele>480.0</ele><time>2026-04-26T10:18:22.998Z</time></trkpt><trkpt lat="43.18409221613227" lon="12.880204372389631"><ele>480.0</ele><time>2026-04-26T10:18:23.998Z</time></trkpt><trkpt lat="43.184036509488195" lon="12.880143507420222"><ele>479.8333333333333</ele><time>2026-04-26T10:18:24.998Z</time></trkpt><trkpt lat="43.18398077892696" lon="12.880077149763943"><ele>479.66666666666663</ele><time>2026-04-26T10:18:25.998Z</time></trkpt><trkpt lat="43.18392233318977" lon="12.87999983441697"><ele>479.5</ele><time>2026-04-26T10:18:26.998Z</time></trkpt><trkpt lat="43.18385855913954" lon="12.879917628668757"><ele>479.3333333333333</ele><time>2026-04-26T10:18:27.998Z</time></trkpt><trkpt lat="43.18379309937954" lon="12.87982689650101"><ele>479.16666666666663</ele><time>2026-04-26T10:18:28.998Z</time></trkpt><trkpt lat="43.18372324383094" lon="12.879728675348396"><ele>479.0</ele><time>2026-04-26T10:18:29.998Z</time></trkpt><trkpt lat="43.183647058055264" lon="12.879634364555518"><ele>479.0</ele><time>2026-04-26T10:18:30.998Z</time></trkpt><trkpt lat="43.18357967058162" lon="12.879556278538102"><ele>479.0</ele><time>2026-04-26T10:18:31.998Z</time></trkpt><trkpt lat="43.18352620160195" lon="12.87948879442997"><ele>479.0</ele><time>2026-04-26T10:18:32.998Z</time></trkpt><trkpt lat="43.18349485581276" lon="12.87934645073545"><ele>479.0</ele><time>2026-04-26T10:18:34.998Z</time></trkpt><trkpt lat="43.18350284263808" lon="12.879225992503576"><ele>479.0</ele><time>2026-04-26T10:18:36.998Z</time></trkpt><trkpt lat="43.18354382356687" lon="12.879085663557795"><ele>479.0</ele><time>2026-04-26T10:18:38.998Z</time></trkpt><trkpt lat="43.18356694974209" lon="12.87895915720012"><ele>479.0</ele><time>2026-04-26T10:18:40.998Z</time></trkpt><trkpt lat="43.183477095126015" lon="12.878950582211308"><ele>479.0</ele><time>2026-04-26T10:18:43.998Z</time></trkpt><trkpt lat="43.183414555211115" lon="12.879055148530751"><ele>479.0</ele><time>2026-04-26T10:18:45.998Z</time></trkpt><trkpt lat="43.183355033492404" lon="12.879191769843198"><ele>479.0</ele><time>2026-04-26T10:18:47.998Z</time></trkpt><trkpt lat="43.18332972436763" lon="12.879294638651917"><ele>479.0</ele><time>2026-04-26T10:18:50Z</time></trkpt><trkpt lat="43.18334488154262" lon="12.879388266286115"><ele>479.0</ele><time>2026-04-26T10:18:52Z</time></trkpt><trkpt lat="43.18345563810645" lon="12.879491327291731"><ele>479.0</ele><time>2026-04-26T10:18:54Z</time></trkpt><trkpt lat="43.183517078197816" lon="12.879550114783914"><ele>479.0</ele><time>2026-04-26T10:18:55Z</time></trkpt><trkpt lat="43.18357864099113" lon="12.879621260591641"><ele>479.0</ele><time>2026-04-26T10:18:56Z</time></trkpt><trkpt lat="43.18364710067797" lon="12.87970410706686"><ele>479.0</ele><time>2026-04-26T10:18:57Z</time></trkpt><trkpt lat="43.183720413462815" lon="12.879789725028601"><ele>479.0</ele><time>2026-04-26T10:18:58Z</time></trkpt><trkpt lat="43.18379548422309" lon="12.879872186066901"><ele>479.0</ele><time>2026-04-26T10:18:59Z</time></trkpt><trkpt lat="43.18386782777391" lon="12.879952044866764"><ele>479.0</ele><time>2026-04-26T10:19:00Z</time></trkpt><trkpt lat="43.183933202994574" lon="12.880036672567993"><ele>479.0</ele><time>2026-04-26T10:19:01Z</time></trkpt><trkpt lat="43.18399668177908" lon="12.88012220245295"><ele>479.16666666666663</ele><time>2026-04-26T10:19:02Z</time></trkpt><trkpt lat="43.18406368195379" lon="12.880203154244773"><ele>479.3333333333333</ele><time>2026-04-26T10:19:03Z</time></trkpt><trkpt lat="43.18413162673497" lon="12.880282036220972"><ele>479.5</ele><time>2026-04-26T10:19:04Z</time></trkpt><trkpt lat="43.18419851730949" lon="12.880363999187072"><ele>479.66666666666663</ele><time>2026-04-26T10:19:05Z</time></trkpt><trkpt lat="43.184264258775904" lon="12.880446579408607"><ele>479.8333333333333</ele><time>2026-04-26T10:19:06Z</time></trkpt><trkpt lat="43.184331009074576" lon="12.880526045676485"><ele>480.0</ele><time>2026-04-26T10:19:07Z</time></trkpt><trkpt lat="43.184399084961306" lon="12.88060483079166"><ele>480.0</ele><time>2026-04-26T10:19:08Z</time></trkpt><trkpt lat="43.18446674040141" lon="12.880689468953575"><ele>480.0</ele><time>2026-04-26T10:19:09Z</time></trkpt><trkpt lat="43.18452047968055" lon="12.880776716129851"><ele>480.0</ele><time>2026-04-26T10:19:10Z</time></trkpt><trkpt lat="43.18456736770165" lon="12.880864187024876"><ele>480.0</ele><time>2026-04-26T10:19:11Z</time></trkpt><trkpt lat="43.18461120381289" lon="12.880952175324856"><ele>480.0</ele><time>2026-04-26T10:19:12Z</time></trkpt><trkpt lat="43.18465435830765" lon="12.881036495141728"><ele>480.0</ele><time>2026-04-26T10:19:13Z</time></trkpt><trkpt lat="43.18469524149092" lon="12.88112362550647"><ele>480.1666666666667</ele><time>2026-04-26T10:19:14Z</time></trkpt><trkpt lat="43.18473515358046" lon="12.881211905077587"><ele>480.33333333333337</ele><time>2026-04-26T10:19:15Z</time></trkpt><trkpt lat="43.18477540327139" lon="12.881302201548865"><ele>480.5</ele><time>2026-04-26T10:19:16Z</time></trkpt><trkpt lat="43.18481603580454" lon="12.881393627991654"><ele>480.6666666666667</ele><time>2026-04-26T10:19:17Z</time></trkpt><trkpt lat="43.18485890148125" lon="12.881486478601902"><ele>480.83333333333337</ele><time>2026-04-26T10:19:18Z</time></trkpt><trkpt lat="43.184904160372206" lon="12.881587329327463"><ele>481.0</ele><time>2026-04-26T10:19:19Z</time></trkpt><trkpt lat="43.18494490686207" lon="12.881690441150813"><ele>481.50000000000006</ele><time>2026-04-26T10:19:19.999Z</time></trkpt><trkpt lat="43.184963963816536" lon="12.88180425004666"><ele>482.0</ele><time>2026-04-26T10:19:20.999Z</time></trkpt><trkpt lat="43.184971108083964" lon="12.881924098478702"><ele>482.5</ele><time>2026-04-26T10:19:21.999Z</time></trkpt><trkpt lat="43.1849732677867" lon="12.882045003904915"><ele>483.0</ele><time>2026-04-26T10:19:22.999Z</time></trkpt><trkpt lat="43.18497267682482" lon="12.882167831226635"><ele>483.50000000000006</ele><time>2026-04-26T10:19:23.999Z</time></trkpt><trkpt lat="43.184968424384905" lon="12.88228776731442"><ele>484.0</ele><time>2026-04-26T10:19:24.999Z</time></trkpt><trkpt lat="43.1849637583793" lon="12.882405666887266"><ele>484.00000000000006</ele><time>2026-04-26T10:19:25.999Z</time></trkpt><trkpt lat="43.184953102420494" lon="12.882494549057053"><ele>484.0</ele><time>2026-04-26T10:19:26.999Z</time></trkpt><trkpt lat="43.184942225346106" lon="12.882592602813842"><ele>484.0</ele><time>2026-04-26T10:19:28.999Z</time></trkpt><trkpt lat="43.18489614980696" lon="12.882673637294868"><ele>484.0</ele><time>2026-04-26T10:19:31.999Z</time></trkpt><trkpt lat="43.18491069365548" lon="12.882764223112709"><ele>484.00000000000006</ele><time>2026-04-26T10:19:35.999Z</time></trkpt><trkpt lat="43.18498588102898" lon="12.882694102726141"><ele>484.0</ele><time>2026-04-26T10:20:46.997Z</time></trkpt><trkpt lat="43.18499240659281" lon="12.882525909996346"><ele>484.0</ele><time>2026-04-26T10:20:48.997Z</time></trkpt><trkpt lat="43.18498963497028" lon="12.88242054222285"><ele>484.0</ele><time>2026-04-26T10:20:49.997Z</time></trkpt><trkpt lat="43.18499329261325" lon="12.882304441629703"><ele>484.0</ele><time>2026-04-26T10:20:50.997Z</time></trkpt><trkpt lat="43.18499679184569" lon="12.882173298112237"><ele>484.0</ele><time>2026-04-26T10:20:51.997Z</time></trkpt><trkpt lat="43.1849970789468" lon="12.882031791092617"><ele>484.0</ele><time>2026-04-26T10:20:52.997Z</time></trkpt><trkpt lat="43.18499475570465" lon="12.8818904851407"><ele>483.4</ele><time>2026-04-26T10:20:53.999Z</time></trkpt><trkpt lat="43.184976877119496" lon="12.881745823418951"><ele>482.79999999999995</ele><time>2026-04-26T10:20:54.999Z</time></trkpt><trkpt lat="43.18493691504907" lon="12.881604953398691"><ele>482.20000000000005</ele><time>2026-04-26T10:20:55.999Z</time></trkpt><trkpt lat="43.18488000184771" lon="12.881467430026799"><ele>481.6</ele><time>2026-04-26T10:20:56.999Z</time></trkpt><trkpt lat="43.18481871576306" lon="12.881335460651535"><ele>481.0</ele><time>2026-04-26T10:20:57.999Z</time></trkpt><trkpt lat="43.18475921188314" lon="12.88120420413281"><ele>481.0</ele><time>2026-04-26T10:20:58.999Z</time></trkpt><trkpt lat="43.18470271352282" lon="12.881076704662004"><ele>481.0</ele><time>2026-04-26T10:20:59.999Z</time></trkpt><trkpt lat="43.184646100746875" lon="12.880955190859163"><ele>481.0</ele><time>2026-04-26T10:21:00.999Z</time></trkpt><trkpt lat="43.184582216267906" lon="12.880841955690968"><ele>481.0</ele><time>2026-04-26T10:21:01.999Z</time></trkpt><trkpt lat="43.184515336635066" lon="12.880731908656445"><ele>481.0</ele><time>2026-04-26T10:21:02.999Z</time></trkpt><trkpt lat="43.18444484473142" lon="12.88062428029901"><ele>480.8</ele><time>2026-04-26T10:21:03.999Z</time></trkpt><trkpt lat="43.18436739233258" lon="12.880526959997493"><ele>480.6</ele><time>2026-04-26T10:21:04.999Z</time></trkpt><trkpt lat="43.184286477400825" lon="12.880431706057625"><ele>480.4</ele><time>2026-04-26T10:21:05.999Z</time></trkpt><trkpt lat="43.18420250374609" lon="12.880330572653907"><ele>480.2</ele><time>2026-04-26T10:21:06.999Z</time></trkpt><trkpt lat="43.1841128727249" lon="12.880224271194162"><ele>480.0</ele><time>2026-04-26T10:21:07.999Z</time></trkpt><trkpt lat="43.18401762049319" lon="12.880115703399738"><ele>479.75</ele><time>2026-04-26T10:21:08.999Z</time></trkpt><trkpt lat="43.18392105549021" lon="12.879999999408835"><ele>479.5</ele><time>2026-04-26T10:21:09.999Z</time></trkpt><trkpt lat="43.183825089225856" lon="12.879876662842493"><ele>479.25</ele><time>2026-04-26T10:21:10.999Z</time></trkpt><trkpt lat="43.18373195895007" lon="12.879759590686438"><ele>479.0</ele><time>2026-04-26T10:21:11.999Z</time></trkpt><trkpt lat="43.18364537181743" lon="12.879658068148265"><ele>478.99999999999994</ele><time>2026-04-26T10:21:12.999Z</time></trkpt><trkpt lat="43.183568963423674" lon="12.879561681814092"><ele>479.0</ele><time>2026-04-26T10:21:13.999Z</time></trkpt><trkpt lat="43.18351818562916" lon="12.87946280722612"><ele>479.0</ele><time>2026-04-26T10:21:14.999Z</time></trkpt><trkpt lat="43.183498296527205" lon="12.879352229211461"><ele>479.0</ele><time>2026-04-26T10:21:15.999Z</time></trkpt><trkpt lat="43.183502135300444" lon="12.879239217217714"><ele>478.99999999999994</ele><time>2026-04-26T10:21:16.999Z</time></trkpt><trkpt lat="43.183532512192826" lon="12.879121236132262"><ele>479.0</ele><time>2026-04-26T10:21:17.999Z</time></trkpt><trkpt lat="43.18358083028956" lon="12.879000183411453"><ele>479.2</ele><time>2026-04-26T10:21:18.999Z</time></trkpt><trkpt lat="43.18364097639407" lon="12.878873199140342"><ele>479.4</ele><time>2026-04-26T10:21:19.999Z</time></trkpt><trkpt lat="43.18371383497367" lon="12.878759676295038"><ele>479.6</ele><time>2026-04-26T10:21:20.999Z</time></trkpt><trkpt lat="43.1837962715327" lon="12.87866455442472"><ele>479.8</ele><time>2026-04-26T10:21:21.999Z</time></trkpt><trkpt lat="43.18388476881505" lon="12.878602556897542"><ele>480.0</ele><time>2026-04-26T10:21:22.999Z</time></trkpt><trkpt lat="43.183983159240356" lon="12.87856687824462"><ele>480.2</ele><time>2026-04-26T10:21:23.999Z</time></trkpt><trkpt lat="43.184089416160795" lon="12.878554485701946"><ele>480.4</ele><time>2026-04-26T10:21:24.999Z</time></trkpt><trkpt lat="43.18419653463389" lon="12.878560974220047"><ele>480.6</ele><time>2026-04-26T10:21:25.999Z</time></trkpt><trkpt lat="43.184304833742864" lon="12.878577853138063"><ele>480.8</ele><time>2026-04-26T10:21:26.999Z</time></trkpt><trkpt lat="43.18441466222517" lon="12.878582083806544"><ele>481.0</ele><time>2026-04-26T10:21:27.999Z</time></trkpt><trkpt lat="43.18452764094045" lon="12.878583525395753"><ele>481.0</ele><time>2026-04-26T10:21:28.999Z</time></trkpt><trkpt lat="43.18464253101445" lon="12.878591396615125"><ele>481.0</ele><time>2026-04-26T10:21:29.999Z</time></trkpt><trkpt lat="43.184760402541556" lon="12.878616189715288"><ele>481.0</ele><time>2026-04-26T10:21:30.999Z</time></trkpt><trkpt lat="43.184877015396175" lon="12.878653108022556"><ele>481.0</ele><time>2026-04-26T10:21:31.999Z</time></trkpt><trkpt lat="43.18499119742849" lon="12.878687740118615"><ele>483.5</ele><time>2026-04-26T10:21:32.999Z</time></trkpt><trkpt lat="43.18510261605992" lon="12.878704298197027"><ele>486.0</ele><time>2026-04-26T10:21:33.999Z</time></trkpt><trkpt lat="43.18521359982421" lon="12.878693412085354"><ele>488.5</ele><time>2026-04-26T10:21:34.999Z</time></trkpt><trkpt lat="43.185326154561395" lon="12.878660448525267"><ele>491.0</ele><time>2026-04-26T10:21:35.999Z</time></trkpt><trkpt lat="43.185434398333086" lon="12.878611459061867"><ele>491.0</ele><time>2026-04-26T10:21:36.999Z</time></trkpt><trkpt lat="43.18553086202325" lon="12.878533890872095"><ele>491.0</ele><time>2026-04-26T10:21:37.999Z</time></trkpt><trkpt lat="43.18561144931333" lon="12.878435171922908"><ele>491.0</ele><time>2026-04-26T10:21:38.999Z</time></trkpt><trkpt lat="43.18567325764298" lon="12.87831405882357"><ele>491.0</ele><time>2026-04-26T10:21:39.999Z</time></trkpt><trkpt lat="43.185706389867335" lon="12.87817489922674"><ele>491.0</ele><time>2026-04-26T10:21:40.999Z</time></trkpt><trkpt lat="43.18571992189218" lon="12.878019983147949"><ele>491.25</ele><time>2026-04-26T10:21:41.999Z</time></trkpt><trkpt lat="43.185726404862166" lon="12.87785398322088"><ele>491.5</ele><time>2026-04-26T10:21:42.999Z</time></trkpt><trkpt lat="43.185730797568404" lon="12.87768003372282"><ele>491.75</ele><time>2026-04-26T10:21:43.999Z</time></trkpt><trkpt lat="43.18573227254418" lon="12.87749674839694"><ele>492.0</ele><time>2026-04-26T10:21:44.999Z</time></trkpt><trkpt lat="43.18571631097934" lon="12.87730529925056"><ele>492.0</ele><time>2026-04-26T10:21:45.999Z</time></trkpt><trkpt lat="43.18568793185722" lon="12.877107965130074"><ele>492.0</ele><time>2026-04-26T10:21:46.999Z</time></trkpt><trkpt lat="43.18565857520335" lon="12.876897999487268"><ele>492.0</ele><time>2026-04-26T10:21:47.999Z</time></trkpt><trkpt lat="43.18562974474674" lon="12.876690911461669"><ele>490.33333333333337</ele><time>2026-04-26T10:21:48.999Z</time></trkpt><trkpt lat="43.18560012790638" lon="12.87647806220704"><ele>488.6666666666667</ele><time>2026-04-26T10:21:49.999Z</time></trkpt><trkpt lat="43.185567374175974" lon="12.876268974266365"><ele>487.0</ele><time>2026-04-26T10:21:50.999Z</time></trkpt><trkpt lat="43.18554029498065" lon="12.876066422367918"><ele>488.5</ele><time>2026-04-26T10:21:51.999Z</time></trkpt><trkpt lat="43.18552830500694" lon="12.875878245166199"><ele>490.0</ele><time>2026-04-26T10:21:52.999Z</time></trkpt><trkpt lat="43.18553210735621" lon="12.875695121116852"><ele>491.5</ele><time>2026-04-26T10:21:53.999Z</time></trkpt><trkpt lat="43.18554388970193" lon="12.875511811665035"><ele>493.0</ele><time>2026-04-26T10:21:54.999Z</time></trkpt><trkpt lat="43.18555649616303" lon="12.875334697938959"><ele>493.0</ele><time>2026-04-26T10:21:55.999Z</time></trkpt><trkpt lat="43.185573503520324" lon="12.8751662707209"><ele>493.0</ele><time>2026-04-26T10:21:56.999Z</time></trkpt><trkpt lat="43.18560391516906" lon="12.875006455408418"><ele>493.0</ele><time>2026-04-26T10:21:57.999Z</time></trkpt><trkpt lat="43.18566555518204" lon="12.87486891507473"><ele>493.0</ele><time>2026-04-26T10:21:58.999Z</time></trkpt><trkpt lat="43.18576027868901" lon="12.874774042085852"><ele>493.4</ele><time>2026-04-26T10:21:59.999Z</time></trkpt><trkpt lat="43.18585879819049" lon="12.874706072552074"><ele>493.79999999999995</ele><time>2026-04-26T10:22:00.999Z</time></trkpt><trkpt lat="43.18595310814078" lon="12.874636292622062"><ele>494.2</ele><time>2026-04-26T10:22:01.999Z</time></trkpt><trkpt lat="43.18604846168402" lon="12.874559921276203"><ele>494.6</ele><time>2026-04-26T10:22:02.999Z</time></trkpt><trkpt lat="43.18612867082077" lon="12.874462340795944"><ele>495.0</ele><time>2026-04-26T10:22:03.999Z</time></trkpt><trkpt lat="43.18618834026258" lon="12.874351624757388"><ele>493.25</ele><time>2026-04-26T10:22:04.999Z</time></trkpt><trkpt lat="43.186237560181446" lon="12.874232277095214"><ele>491.5</ele><time>2026-04-26T10:22:05.999Z</time></trkpt><trkpt lat="43.186276413713415" lon="12.874106847166884"><ele>489.75</ele><time>2026-04-26T10:22:06.999Z</time></trkpt><trkpt lat="43.18630730497072" lon="12.873976391321397"><ele>488.0</ele><time>2026-04-26T10:22:07.998Z</time></trkpt><trkpt lat="43.18641651741464" lon="12.873793450439464"><ele>488.0</ele><time>2026-04-26T10:22:08.998Z</time></trkpt><trkpt lat="43.186415201405396" lon="12.873640854118566"><ele>488.0</ele><time>2026-04-26T10:22:09.998Z</time></trkpt><trkpt lat="43.18639131857846" lon="12.873486005225464"><ele>488.0</ele><time>2026-04-26T10:22:10.998Z</time></trkpt><trkpt lat="43.18635558489771" lon="12.8733307745225"><ele>488.0</ele><time>2026-04-26T10:22:11.998Z</time></trkpt><trkpt lat="43.18632232989229" lon="12.873181233026024"><ele>488.4</ele><time>2026-04-26T10:22:12.998Z</time></trkpt><trkpt lat="43.186314429105764" lon="12.87302888848871"><ele>488.79999999999995</ele><time>2026-04-26T10:22:13.998Z</time></trkpt><trkpt lat="43.18632177680994" lon="12.87287676185638"><ele>489.2</ele><time>2026-04-26T10:22:14.998Z</time></trkpt><trkpt lat="43.186348869276166" lon="12.872733986152534"><ele>489.6</ele><time>2026-04-26T10:22:15.998Z</time></trkpt><trkpt lat="43.1864030152181" lon="12.87261377473572"><ele>490.0</ele><time>2026-04-26T10:22:16.998Z</time></trkpt><trkpt lat="43.18648411848029" lon="12.872537064109773"><ele>491.75</ele><time>2026-04-26T10:22:17.998Z</time></trkpt><trkpt lat="43.18658003186715" lon="12.872467007786357"><ele>493.5</ele><time>2026-04-26T10:22:18.998Z</time></trkpt><trkpt lat="43.186670974282066" lon="12.872376048593614"><ele>495.25</ele><time>2026-04-26T10:22:19.998Z</time></trkpt><trkpt lat="43.186763639137155" lon="12.872270317724867"><ele>497.0</ele><time>2026-04-26T10:22:20.998Z</time></trkpt><trkpt lat="43.18685570048689" lon="12.872152373675407"><ele>497.0</ele><time>2026-04-26T10:22:21.998Z</time></trkpt><trkpt lat="43.18695224546439" lon="12.87202550980317"><ele>497.0</ele><time>2026-04-26T10:22:22.998Z</time></trkpt><trkpt lat="43.18704319802689" lon="12.871891884495831"><ele>497.0</ele><time>2026-04-26T10:22:23.998Z</time></trkpt><trkpt lat="43.18713269609355" lon="12.871756005679714"><ele>497.0</ele><time>2026-04-26T10:22:24.998Z</time></trkpt><trkpt lat="43.18722571623375" lon="12.871623210465716"><ele>497.25</ele><time>2026-04-26T10:22:25.998Z</time></trkpt><trkpt lat="43.187324402555014" lon="12.871518235767422"><ele>497.5</ele><time>2026-04-26T10:22:26.998Z</time></trkpt><trkpt lat="43.18742403792531" lon="12.87143219321338"><ele>497.75</ele><time>2026-04-26T10:22:27.998Z</time></trkpt><trkpt lat="43.1875192572715" lon="12.871354379754987"><ele>498.0</ele><time>2026-04-26T10:22:28.998Z</time></trkpt><trkpt lat="43.18760476472365" lon="12.871293490718806"><ele>498.0</ele><time>2026-04-26T10:22:29.998Z</time></trkpt><trkpt lat="43.187668499330506" lon="12.871246982080054"><ele>498.0</ele><time>2026-04-26T10:22:30.998Z</time></trkpt><trkpt lat="43.187735939303224" lon="12.87117619164387"><ele>498.0</ele><time>2026-04-26T10:22:32.998Z</time></trkpt><trkpt lat="43.18778044006461" lon="12.871086747091375"><ele>498.0</ele><time>2026-04-26T10:23:48.999Z</time></trkpt><trkpt lat="43.187854308176995" lon="12.870953058152859"><ele>498.0</ele><time>2026-04-26T10:23:50.999Z</time></trkpt><trkpt lat="43.187895548534954" lon="12.870873631804713"><ele>498.0</ele><time>2026-04-26T10:23:51.999Z</time></trkpt><trkpt lat="43.18794545465815" lon="12.870785834453061"><ele>499.2</ele><time>2026-04-26T10:23:52.999Z</time></trkpt><trkpt lat="43.18800231858987" lon="12.870683667299458"><ele>500.4</ele><time>2026-04-26T10:23:53.999Z</time></trkpt><trkpt lat="43.188069805605" lon="12.870570903743936"><ele>501.59999999999997</ele><time>2026-04-26T10:23:54.999Z</time></trkpt><trkpt lat="43.1881377522846" lon="12.870459841355729"><ele>502.79999999999995</ele><time>2026-04-26T10:23:55.999Z</time></trkpt><trkpt lat="43.18821534951569" lon="12.870349774243898"><ele>504.0</ele><time>2026-04-26T10:23:56.999Z</time></trkpt><trkpt lat="43.18829309896077" lon="12.870251141484097"><ele>504.0</ele><time>2026-04-26T10:23:57.999Z</time></trkpt><trkpt lat="43.18836453112049" lon="12.870158927616547"><ele>504.0</ele><time>2026-04-26T10:23:58.999Z</time></trkpt><trkpt lat="43.18843571226285" lon="12.870066208710075"><ele>504.0</ele><time>2026-04-26T10:23:59.999Z</time></trkpt><trkpt lat="43.1885039187099" lon="12.869982608543085"><ele>504.0</ele><time>2026-04-26T10:24:00.998Z</time></trkpt><trkpt lat="43.188568651283106" lon="12.869901046749474"><ele>504.0</ele><time>2026-04-26T10:24:01.998Z</time></trkpt><trkpt lat="43.18862733537326" lon="12.869824686425455"><ele>503.4</ele><time>2026-04-26T10:24:02.998Z</time></trkpt><trkpt lat="43.188691161083355" lon="12.869754219511032"><ele>502.79999999999995</ele><time>2026-04-26T10:24:03.998Z</time></trkpt><trkpt lat="43.18876489949255" lon="12.869690446983773"><ele>502.20000000000005</ele><time>2026-04-26T10:24:04.998Z</time></trkpt><trkpt lat="43.188846795465736" lon="12.869623416587928"><ele>501.6</ele><time>2026-04-26T10:24:05.998Z</time></trkpt><trkpt lat="43.18893575625134" lon="12.86955112650986"><ele>501.0</ele><time>2026-04-26T10:24:06.998Z</time></trkpt><trkpt lat="43.18902878972601" lon="12.869467223919603"><ele>501.0</ele><time>2026-04-26T10:24:07.998Z</time></trkpt><trkpt lat="43.1891290023537" lon="12.869380917051803"><ele>501.0</ele><time>2026-04-26T10:24:08.998Z</time></trkpt><trkpt lat="43.18923443668622" lon="12.86929756407324"><ele>501.0</ele><time>2026-04-26T10:24:09.998Z</time></trkpt><trkpt lat="43.189344454522455" lon="12.869217246252838"><ele>501.0</ele><time>2026-04-26T10:24:10.998Z</time></trkpt><trkpt lat="43.189456275969135" lon="12.869146354574514"><ele>502.0</ele><time>2026-04-26T10:24:11.998Z</time></trkpt><trkpt lat="43.18957402509862" lon="12.869087279517856"><ele>503.0</ele><time>2026-04-26T10:24:12.998Z</time></trkpt><trkpt lat="43.1896934781409" lon="12.869050736782292"><ele>504.0</ele><time>2026-04-26T10:24:13.998Z</time></trkpt><trkpt lat="43.18981387278671" lon="12.869030071424778"><ele>505.0</ele><time>2026-04-26T10:24:14.998Z</time></trkpt><trkpt lat="43.18993490872826" lon="12.869003744785038"><ele>505.0</ele><time>2026-04-26T10:24:15.998Z</time></trkpt><trkpt lat="43.19005820465491" lon="12.86897509563009"><ele>505.0</ele><time>2026-04-26T10:24:16.998Z</time></trkpt><trkpt lat="43.19018393809831" lon="12.868943401009185"><ele>505.0</ele><time>2026-04-26T10:24:17.998Z</time></trkpt><trkpt lat="43.190310328317715" lon="12.868911025235231"><ele>505.0</ele><time>2026-04-26T10:24:18.998Z</time></trkpt><trkpt lat="43.19043858998619" lon="12.868872165339974"><ele>505.0</ele><time>2026-04-26T10:24:19.998Z</time></trkpt><trkpt lat="43.19056633942493" lon="12.868834663968153"><ele>505.0</ele><time>2026-04-26T10:24:20.998Z</time></trkpt><trkpt lat="43.190688493234184" lon="12.868802939679162"><ele>505.0</ele><time>2026-04-26T10:24:21.998Z</time></trkpt><trkpt lat="43.19081220820533" lon="12.868774947905635"><ele>505.0</ele><time>2026-04-26T10:24:22.998Z</time></trkpt><trkpt lat="43.19093508694158" lon="12.868747120716593"><ele>505.8</ele><time>2026-04-26T10:24:23.998Z</time></trkpt><trkpt lat="43.191060892572416" lon="12.86873688779439"><ele>506.6</ele><time>2026-04-26T10:24:24.998Z</time></trkpt><trkpt lat="43.19117657196432" lon="12.868749732611864"><ele>507.4</ele><time>2026-04-26T10:24:25.998Z</time></trkpt><trkpt lat="43.191274370780114" lon="12.86877939592931"><ele>508.2</ele><time>2026-04-26T10:24:26.998Z</time></trkpt><trkpt lat="43.19136439382949" lon="12.868817380591942"><ele>509.0</ele><time>2026-04-26T10:24:27.998Z</time></trkpt><trkpt lat="43.191443241342895" lon="12.868856448885268"><ele>508.99999999999994</ele><time>2026-04-26T10:24:28.998Z</time></trkpt><trkpt lat="43.191510445491474" lon="12.868890444133573"><ele>509.0</ele><time>2026-04-26T10:24:29.998Z</time></trkpt><trkpt lat="43.19161042434712" lon="12.868924364534745"><ele>509.0</ele><time>2026-04-26T10:24:31.998Z</time></trkpt><trkpt lat="43.19164824357923" lon="12.86900583264706"><ele>509.0</ele><time>2026-04-26T10:24:34.998Z</time></trkpt><trkpt lat="43.19157651081375" lon="12.869025218976276"><ele>508.99999999999994</ele><time>2026-04-26T10:24:37.998Z</time></trkpt><trkpt lat="43.19150513069266" lon="12.86896496746494"><ele>509.0</ele><time>2026-04-26T10:24:39.998Z</time></trkpt><trkpt lat="43.19139095814236" lon="12.868914358553397"><ele>508.99999999999994</ele><time>2026-04-26T10:24:41.998Z</time></trkpt><trkpt lat="43.19132603193446" lon="12.868886914925254"><ele>509.0</ele><time>2026-04-26T10:24:42.998Z</time></trkpt><trkpt lat="43.19126297913115" lon="12.86886554342673"><ele>508.99999999999994</ele><time>2026-04-26T10:24:43.998Z</time></trkpt><trkpt lat="43.19119963806777" lon="12.868848658343307"><ele>508.99999999999994</ele><time>2026-04-26T10:24:44.998Z</time></trkpt><trkpt lat="43.191130368996085" lon="12.868848344614797"><ele>509.0</ele><time>2026-04-26T10:24:45.998Z</time></trkpt><trkpt lat="43.19106314762352" lon="12.868865832852647"><ele>508.99999999999994</ele><time>2026-04-26T10:24:46.998Z</time></trkpt><trkpt lat="43.190998132677045" lon="12.868895898528411"><ele>508.99999999999994</ele><time>2026-04-26T10:24:47.998Z</time></trkpt><trkpt lat="43.190934087334966" lon="12.868937147515918"><ele>509.0</ele><time>2026-04-26T10:24:48.998Z</time></trkpt><trkpt lat="43.1908744997603" lon="12.868980794661704"><ele>509.0</ele><time>2026-04-26T10:24:49.998Z</time></trkpt><trkpt lat="43.1907752391418" lon="12.869059285361034"><ele>509.0</ele><time>2026-04-26T10:24:51.998Z</time></trkpt><trkpt lat="43.19070313550484" lon="12.869120477262415"><ele>509.0</ele><time>2026-04-26T10:24:53.997Z</time></trkpt><trkpt lat="43.1906165205946" lon="12.869202326548583"><ele>509.0</ele><time>2026-04-26T10:24:55.997Z</time></trkpt><trkpt lat="43.19053203315387" lon="12.869308805277825"><ele>509.66666666666663</ele><time>2026-04-26T10:24:57.997Z</time></trkpt><trkpt lat="43.190462159503696" lon="12.869398295460833"><ele>510.3333333333333</ele><time>2026-04-26T10:24:59.997Z</time></trkpt><trkpt lat="43.19044073961197" lon="12.869498584926088"><ele>511.0</ele><time>2026-04-26T10:25:01.997Z</time></trkpt><trkpt lat="43.19046025593382" lon="12.869583076895932"><ele>511.66666666666663</ele><time>2026-04-26T10:25:04.998Z</time></trkpt><trkpt lat="43.19051308018642" lon="12.869662057426693"><ele>512.3333333333334</ele><time>2026-04-26T10:25:08.998Z</time></trkpt><trkpt lat="43.1906008974134" lon="12.869690402786997"><ele>513.0</ele><time>2026-04-26T10:25:10.998Z</time></trkpt><trkpt lat="43.19070262144369" lon="12.869664555607244"><ele>514.1666666666666</ele><time>2026-04-26T10:25:12.998Z</time></trkpt><trkpt lat="43.19079306594296" lon="12.869697038435838"><ele>515.3333333333334</ele><time>2026-04-26T10:25:14.998Z</time></trkpt><trkpt lat="43.19086605597099" lon="12.869672294908703"><ele>516.5</ele><time>2026-04-26T10:25:16.998Z</time></trkpt><trkpt lat="43.190930187364515" lon="12.869669870642689"><ele>517.6666666666667</ele><time>2026-04-26T10:25:20.998Z</time></trkpt><trkpt lat="43.191022076474574" lon="12.869647231607946"><ele>518.8333333333334</ele><time>2026-04-26T10:25:25.999Z</time></trkpt><trkpt lat="43.19110438972382" lon="12.869602824158735"><ele>520.0</ele><time>2026-04-26T10:25:27.999Z</time></trkpt><trkpt lat="43.19117818562379" lon="12.869589602223634"><ele>520.0</ele><time>2026-04-26T10:25:29.999Z</time></trkpt><trkpt lat="43.19125388004494" lon="12.869562715334478"><ele>520.0</ele><time>2026-04-26T10:25:32.999Z</time></trkpt><trkpt lat="43.191314206830434" lon="12.869535506286626"><ele>520.0</ele><time>2026-04-26T10:25:36.999Z</time></trkpt><trkpt lat="43.191325234270835" lon="12.869411130604508"><ele>520.0</ele><time>2026-04-26T10:25:41.999Z</time></trkpt><trkpt lat="43.191369021813294" lon="12.869319503375419"><ele>520.0</ele><time>2026-04-26T10:25:43.999Z</time></trkpt><trkpt lat="43.1912470935043" lon="12.869272900718702"><ele>520.0</ele><time>2026-04-26T10:25:44.999Z</time></trkpt><trkpt lat="43.19116788815953" lon="12.869282938384947"><ele>520.0</ele><time>2026-04-26T10:25:46.999Z</time></trkpt><trkpt lat="43.19108999573863" lon="12.869301820997"><ele>520.0</ele><time>2026-04-26T10:25:48.999Z</time></trkpt><trkpt lat="43.19101679284176" lon="12.869312519597129"><ele>520.0</ele><time>2026-04-26T10:25:52.998Z</time></trkpt><trkpt lat="43.19099056392244" lon="12.869230331241443"><ele>520.0</ele><time>2026-04-26T10:25:54.998Z</time></trkpt><trkpt lat="43.19092472740696" lon="12.86917737483265"><ele>520.0</ele><time>2026-04-26T10:25:56.998Z</time></trkpt><trkpt lat="43.19085178877822" lon="12.869130735100317"><ele>520.0</ele><time>2026-04-26T10:25:59.998Z</time></trkpt><trkpt lat="43.190887421454455" lon="12.869023053871501"><ele>517.8</ele><time>2026-04-26T10:26:04.998Z</time></trkpt><trkpt lat="43.19098507753132" lon="12.868946108835958"><ele>515.6</ele><time>2026-04-26T10:26:06.998Z</time></trkpt><trkpt lat="43.191052790171895" lon="12.868922232006677"><ele>513.4</ele><time>2026-04-26T10:26:07.998Z</time></trkpt><trkpt lat="43.19111713737934" lon="12.868902676667036"><ele>511.2</ele><time>2026-04-26T10:26:08.998Z</time></trkpt><trkpt lat="43.19123263752126" lon="12.868908324566268"><ele>509.0</ele><time>2026-04-26T10:26:10.998Z</time></trkpt><trkpt lat="43.191336066645526" lon="12.868945619658925"><ele>509.0</ele><time>2026-04-26T10:26:12.998Z</time></trkpt><trkpt lat="43.19144263089142" lon="12.868985108788529"><ele>509.0</ele><time>2026-04-26T10:26:14.998Z</time></trkpt><trkpt lat="43.19154888426052" lon="12.869019486425527"><ele>509.0</ele><time>2026-04-26T10:26:16.998Z</time></trkpt><trkpt lat="43.191617728099416" lon="12.869075244972613"><ele>509.0</ele><time>2026-04-26T10:26:18.998Z</time></trkpt><trkpt lat="43.191670773883594" lon="12.869013992264877"><ele>509.0</ele><time>2026-04-26T10:26:21.998Z</time></trkpt><trkpt lat="43.19165291494298" lon="12.868888734830668"><ele>509.0</ele><time>2026-04-26T10:26:24.998Z</time></trkpt><trkpt lat="43.19152666201703" lon="12.868838972786795"><ele>509.0</ele><time>2026-04-26T10:26:26.998Z</time></trkpt><trkpt lat="43.19144995512411" lon="12.86881483361222"><ele>509.0</ele><time>2026-04-26T10:26:27.998Z</time></trkpt><trkpt lat="43.19136900924711" lon="12.868784490788697"><ele>509.0</ele><time>2026-04-26T10:26:28.998Z</time></trkpt><trkpt lat="43.19127097801947" lon="12.868754921987284"><ele>509.0</ele><time>2026-04-26T10:26:29.998Z</time></trkpt><trkpt lat="43.19116300139361" lon="12.868719428261173"><ele>509.0</ele><time>2026-04-26T10:26:30.998Z</time></trkpt><trkpt lat="43.1910469116013" lon="12.868697342724433"><ele>509.0</ele><time>2026-04-26T10:26:31.998Z</time></trkpt><trkpt lat="43.19091809541329" lon="12.868708567168587"><ele>509.0</ele><time>2026-04-26T10:26:32.998Z</time></trkpt><trkpt lat="43.19078248149564" lon="12.868743196370728"><ele>509.0</ele><time>2026-04-26T10:26:33.998Z</time></trkpt><trkpt lat="43.190637237029556" lon="12.868789655493163"><ele>507.66666666666663</ele><time>2026-04-26T10:26:34.998Z</time></trkpt><trkpt lat="43.190488689220004" lon="12.868837721883589"><ele>506.33333333333337</ele><time>2026-04-26T10:26:35.998Z</time></trkpt><trkpt lat="43.190335049649164" lon="12.868873339561528"><ele>505.0</ele><time>2026-04-26T10:26:36.998Z</time></trkpt><trkpt lat="43.1901734028934" lon="12.868908517550448"><ele>505.0</ele><time>2026-04-26T10:26:37.998Z</time></trkpt><trkpt lat="43.19000905628365" lon="12.868943181653194"><ele>505.0</ele><time>2026-04-26T10:26:38.998Z</time></trkpt><trkpt lat="43.189837761899895" lon="12.868976143899301"><ele>505.0</ele><time>2026-04-26T10:26:39.998Z</time></trkpt><trkpt lat="43.18966854092882" lon="12.869021189660717"><ele>503.6666666666667</ele><time>2026-04-26T10:26:40.998Z</time></trkpt><trkpt lat="43.18950025846117" lon="12.869089719103233"><ele>502.33333333333337</ele><time>2026-04-26T10:26:41.998Z</time></trkpt><trkpt lat="43.18933895157609" lon="12.869178088228141"><ele>501.0</ele><time>2026-04-26T10:26:42.998Z</time></trkpt><trkpt lat="43.18918311820134" lon="12.869298249266052"><ele>501.0</ele><time>2026-04-26T10:26:43.998Z</time></trkpt><trkpt lat="43.18902924703065" lon="12.869424209782858"><ele>501.0</ele><time>2026-04-26T10:26:44.998Z</time></trkpt><trkpt lat="43.188874822380924" lon="12.869558812572615"><ele>501.0</ele><time>2026-04-26T10:26:45.998Z</time></trkpt><trkpt lat="43.188720028781226" lon="12.869696585510995"><ele>502.0</ele><time>2026-04-26T10:26:46.998Z</time></trkpt><trkpt lat="43.1885762939171" lon="12.869836949102305"><ele>503.0</ele><time>2026-04-26T10:26:47.998Z</time></trkpt><trkpt lat="43.18844333446846" lon="12.869996009795331"><ele>504.0</ele><time>2026-04-26T10:26:48.998Z</time></trkpt><trkpt lat="43.188313297166694" lon="12.870167228472342"><ele>504.0</ele><time>2026-04-26T10:26:49.998Z</time></trkpt><trkpt lat="43.18818745008485" lon="12.870350188410592"><ele>504.0</ele><time>2026-04-26T10:26:50.998Z</time></trkpt><trkpt lat="43.188049220236046" lon="12.870527044219173"><ele>504.0</ele><time>2026-04-26T10:26:51.998Z</time></trkpt><trkpt lat="43.18793222152419" lon="12.870723787768263"><ele>502.0</ele><time>2026-04-26T10:26:52.998Z</time></trkpt><trkpt lat="43.187836153400944" lon="12.870926831189212"><ele>500.0</ele><time>2026-04-26T10:26:53.997Z</time></trkpt><trkpt lat="43.18772599400713" lon="12.871097281922024"><ele>498.0</ele><time>2026-04-26T10:26:54.997Z</time></trkpt><trkpt lat="43.187606137843105" lon="12.871239629894715"><ele>498.0</ele><time>2026-04-26T10:26:55.997Z</time></trkpt><trkpt lat="43.18747610635098" lon="12.871358907633978"><ele>498.0</ele><time>2026-04-26T10:26:56.997Z</time></trkpt><trkpt lat="43.18734711890736" lon="12.871471054991344"><ele>498.0</ele><time>2026-04-26T10:26:57.997Z</time></trkpt><trkpt lat="43.18722425071254" lon="12.87159831696891"><ele>497.66666666666663</ele><time>2026-04-26T10:26:58.997Z</time></trkpt><trkpt lat="43.18710978281502" lon="12.871740987687337"><ele>497.3333333333333</ele><time>2026-04-26T10:26:59.997Z</time></trkpt><trkpt lat="43.18700956147293" lon="12.871896684444877"><ele>497.0</ele><time>2026-04-26T10:27:00.997Z</time></trkpt><trkpt lat="43.18691421904431" lon="12.872049525377967"><ele>497.0</ele><time>2026-04-26T10:27:01.997Z</time></trkpt><trkpt lat="43.186808058056634" lon="12.872186545055005"><ele>497.0</ele><time>2026-04-26T10:27:02.997Z</time></trkpt><trkpt lat="43.186694679802365" lon="12.872313388353934"><ele>497.0</ele><time>2026-04-26T10:27:03.997Z</time></trkpt><trkpt lat="43.18657938340857" lon="12.872432133175034"><ele>497.0</ele><time>2026-04-26T10:27:04.997Z</time></trkpt><trkpt lat="43.18646430681716" lon="12.872549627663972"><ele>495.25</ele><time>2026-04-26T10:27:05.997Z</time></trkpt><trkpt lat="43.18636593211699" lon="12.8726859634652"><ele>493.5</ele><time>2026-04-26T10:27:06.997Z</time></trkpt><trkpt lat="43.186289870732004" lon="12.872852549120049"><ele>491.75</ele><time>2026-04-26T10:27:07.997Z</time></trkpt><trkpt lat="43.186254302659016" lon="12.873053178729622"><ele>490.0</ele><time>2026-04-26T10:27:08.997Z</time></trkpt><trkpt lat="43.18625256800953" lon="12.873258065538293"><ele>490.0</ele><time>2026-04-26T10:27:09.997Z</time></trkpt><trkpt lat="43.18629158053622" lon="12.873373731582042"><ele>490.0</ele><time>2026-04-26T10:27:10.999Z</time></trkpt><trkpt lat="43.18634309593313" lon="12.873555000094168"><ele>490.0</ele><time>2026-04-26T10:27:11.999Z</time></trkpt><trkpt lat="43.18638105486925" lon="12.873738712493425"><ele>490.0</ele><time>2026-04-26T10:27:12.999Z</time></trkpt><trkpt lat="43.18635394102895" lon="12.873921945784423"><ele>489.5</ele><time>2026-04-26T10:27:13.999Z</time></trkpt><trkpt lat="43.186298755531475" lon="12.874085262833063"><ele>489.0</ele><time>2026-04-26T10:27:14.999Z</time></trkpt><trkpt lat="43.18622364929161" lon="12.874249464355675"><ele>488.5</ele><time>2026-04-26T10:27:15.999Z</time></trkpt><trkpt lat="43.1861358562414" lon="12.874410842408123"><ele>488.0</ele><time>2026-04-26T10:27:16.999Z</time></trkpt><trkpt lat="43.18602321860343" lon="12.874544092573423"><ele>489.75</ele><time>2026-04-26T10:27:17.999Z</time></trkpt><trkpt lat="43.18589850818388" lon="12.874646492094737"><ele>491.5</ele><time>2026-04-26T10:27:18.999Z</time></trkpt><trkpt lat="43.18577531108024" lon="12.874754522139202"><ele>493.25</ele><time>2026-04-26T10:27:19.999Z</time></trkpt><trkpt lat="43.18564648887229" lon="12.874829686431331"><ele>495.0</ele><time>2026-04-26T10:27:20.999Z</time></trkpt><trkpt lat="43.18555248761784" lon="12.87495183132975"><ele>494.5</ele><time>2026-04-26T10:27:21.999Z</time></trkpt><trkpt lat="43.18551057012277" lon="12.875112477936893"><ele>494.0</ele><time>2026-04-26T10:27:22.999Z</time></trkpt><trkpt lat="43.18550467943108" lon="12.875308522654077"><ele>493.5</ele><time>2026-04-26T10:27:23.999Z</time></trkpt><trkpt lat="43.18550831016605" lon="12.875497601793148"><ele>493.0</ele><time>2026-04-26T10:27:24.999Z</time></trkpt><trkpt lat="43.185499723562565" lon="12.875684016150645"><ele>493.0</ele><time>2026-04-26T10:27:25.999Z</time></trkpt><trkpt lat="43.18549022064789" lon="12.875875448726696"><ele>493.0</ele><time>2026-04-26T10:27:26.999Z</time></trkpt><trkpt lat="43.18549978305573" lon="12.876072788260284"><ele>493.0</ele><time>2026-04-26T10:27:27.999Z</time></trkpt><trkpt lat="43.18552372489496" lon="12.876271705431458"><ele>493.0</ele><time>2026-04-26T10:27:28.999Z</time></trkpt><trkpt lat="43.185558665967314" lon="12.876465442544376"><ele>491.0</ele><time>2026-04-26T10:27:29.999Z</time></trkpt><trkpt lat="43.1855985534652" lon="12.876669027086189"><ele>489.0</ele><time>2026-04-26T10:27:30.999Z</time></trkpt><trkpt lat="43.18563742192298" lon="12.876873725269151"><ele>487.0</ele><time>2026-04-26T10:27:31.999Z</time></trkpt><trkpt lat="43.18566539534657" lon="12.877091902001212"><ele>488.6666666666667</ele><time>2026-04-26T10:27:32.999Z</time></trkpt><trkpt lat="43.18568787708417" lon="12.87730520698311"><ele>490.33333333333337</ele><time>2026-04-26T10:27:33.999Z</time></trkpt><trkpt lat="43.185704812916676" lon="12.87751387570147"><ele>492.0</ele><time>2026-04-26T10:27:34.999Z</time></trkpt><trkpt lat="43.1857104389942" lon="12.877725528381095"><ele>491.75</ele><time>2026-04-26T10:27:35.999Z</time></trkpt><trkpt lat="43.18570429583209" lon="12.877936518670541"><ele>491.5</ele><time>2026-04-26T10:27:36.999Z</time></trkpt><trkpt lat="43.185686539132" lon="12.878141496005064"><ele>491.25</ele><time>2026-04-26T10:27:37.999Z</time></trkpt><trkpt lat="43.185648285489975" lon="12.878329748432447"><ele>491.0</ele><time>2026-04-26T10:27:38.999Z</time></trkpt><trkpt lat="43.18556969515497" lon="12.878484917001412"><ele>491.0</ele><time>2026-04-26T10:27:39.999Z</time></trkpt><trkpt lat="43.18544424777017" lon="12.878563376750803"><ele>491.0</ele><time>2026-04-26T10:27:40.999Z</time></trkpt><trkpt lat="43.18531604195167" lon="12.878627027027045"><ele>491.0</ele><time>2026-04-26T10:27:41.999Z</time></trkpt><trkpt lat="43.18517980739134" lon="12.878677395639844"><ele>491.0</ele><time>2026-04-26T10:27:42.999Z</time></trkpt><trkpt lat="43.1850419400491" lon="12.8786755039419"><ele>491.0</ele><time>2026-04-26T10:27:43.999Z</time></trkpt><trkpt lat="43.1849065990994" lon="12.878617571960008"><ele>491.0</ele><time>2026-04-26T10:27:44.999Z</time></trkpt><trkpt lat="43.18476950861554" lon="12.878587940670187"><ele>491.0</ele><time>2026-04-26T10:27:45.999Z</time></trkpt><trkpt lat="43.18463903655165" lon="12.878543523510487"><ele>491.0</ele><time>2026-04-26T10:27:46.999Z</time></trkpt><trkpt lat="43.18451039388726" lon="12.87852895603957"><ele>488.5</ele><time>2026-04-26T10:27:47.999Z</time></trkpt><trkpt lat="43.18438615968584" lon="12.878528917111543"><ele>486.0</ele><time>2026-04-26T10:27:48.999Z</time></trkpt><trkpt lat="43.184273250777636" lon="12.878523871889564"><ele>483.5</ele><time>2026-04-26T10:27:49.999Z</time></trkpt><trkpt lat="43.18416192654853" lon="12.878519063828065"><ele>481.0</ele><time>2026-04-26T10:27:50.999Z</time></trkpt><trkpt lat="43.184049436101105" lon="12.878521031572989"><ele>480.75</ele><time>2026-04-26T10:27:51.999Z</time></trkpt><trkpt lat="43.18393698837096" lon="12.878540480492243"><ele>480.5</ele><time>2026-04-26T10:27:52.999Z</time></trkpt><trkpt lat="43.18382500086676" lon="12.878586774444805"><ele>480.25</ele><time>2026-04-26T10:27:53.999Z</time></trkpt><trkpt lat="43.18371938361234" lon="12.878672036887725"><ele>480.0</ele><time>2026-04-26T10:27:54.999Z</time></trkpt><trkpt lat="43.183625097902095" lon="12.878788559309445"><ele>480.0</ele><time>2026-04-26T10:27:55.999Z</time></trkpt><trkpt lat="43.183540653073756" lon="12.878912330611987"><ele>480.0</ele><time>2026-04-26T10:27:56.999Z</time></trkpt><trkpt lat="43.18346518988804" lon="12.879025567605188"><ele>480.0</ele><time>2026-04-26T10:27:57.999Z</time></trkpt><trkpt lat="43.18339899628935" lon="12.879116883327393"><ele>480.0</ele><time>2026-04-26T10:27:58.999Z</time></trkpt><trkpt lat="43.18335227447435" lon="12.879191254587225"><ele>480.0</ele><time>2026-04-26T10:27:59.999Z</time></trkpt><trkpt lat="43.183330495942585" lon="12.87930582840809"><ele>479.8</ele><time>2026-04-26T10:28:01.999Z</time></trkpt><trkpt lat="43.18341985450389" lon="12.87947993678882"><ele>479.6</ele><time>2026-04-26T10:28:04.999Z</time></trkpt><trkpt lat="43.183489159226056" lon="12.879531179256423"><ele>479.4</ele><time>2026-04-26T10:28:05.999Z</time></trkpt><trkpt lat="43.18356483330014" lon="12.879598824659697"><ele>479.2</ele><time>2026-04-26T10:28:06.999Z</time></trkpt><trkpt lat="43.18364775966779" lon="12.879690665654373"><ele>479.0</ele><time>2026-04-26T10:28:07.999Z</time></trkpt><trkpt lat="43.183730621021994" lon="12.879793256882875"><ele>479.0</ele><time>2026-04-26T10:28:08.999Z</time></trkpt><trkpt lat="43.183816947315975" lon="12.879900133218845"><ele>479.0</ele><time>2026-04-26T10:28:09.999Z</time></trkpt><trkpt lat="43.1839147162995" lon="12.880016433605528"><ele>479.0</ele><time>2026-04-26T10:28:10.999Z</time></trkpt><trkpt lat="43.184019497984664" lon="12.880147635648706"><ele>479.0</ele><time>2026-04-26T10:28:11.999Z</time></trkpt><trkpt lat="43.18413158722714" lon="12.880289391195438"><ele>479.3333333333333</ele><time>2026-04-26T10:28:12.999Z</time></trkpt><trkpt lat="43.18424915078894" lon="12.880434779260048"><ele>479.66666666666663</ele><time>2026-04-26T10:28:13.999Z</time></trkpt><trkpt lat="43.18436848659545" lon="12.880572410262808"><ele>480.0</ele><time>2026-04-26T10:28:14.999Z</time></trkpt><trkpt lat="43.18448668351463" lon="12.880717022119372"><ele>480.0</ele><time>2026-04-26T10:28:15.999Z</time></trkpt><trkpt lat="43.184591238412494" lon="12.880884937148334"><ele>480.0</ele><time>2026-04-26T10:28:16.999Z</time></trkpt><trkpt lat="43.184676267654076" lon="12.881059710210446"><ele>480.0</ele><time>2026-04-26T10:28:17.999Z</time></trkpt><trkpt lat="43.18474475506128" lon="12.88122762429646"><ele>480.25</ele><time>2026-04-26T10:28:18.999Z</time></trkpt><trkpt lat="43.18480891366936" lon="12.881384645352426"><ele>480.5</ele><time>2026-04-26T10:28:19.999Z</time></trkpt><trkpt lat="43.18487479503292" lon="12.881530815850805"><ele>480.75</ele><time>2026-04-26T10:28:20.999Z</time></trkpt><trkpt lat="43.184934130569204" lon="12.881681149587727"><ele>481.0</ele><time>2026-04-26T10:28:21.998Z</time></trkpt><trkpt lat="43.18498247517092" lon="12.881843767191707"><ele>481.75</ele><time>2026-04-26T10:28:22.998Z</time></trkpt><trkpt lat="43.184984962292845" lon="12.882018831979398"><ele>482.5</ele><time>2026-04-26T10:28:23.998Z</time></trkpt><trkpt lat="43.18497459737552" lon="12.882205098078366"><ele>483.25</ele><time>2026-04-26T10:28:24.998Z</time></trkpt><trkpt lat="43.184970652083656" lon="12.882396223004822"><ele>484.0</ele><time>2026-04-26T10:28:25.998Z</time></trkpt><trkpt lat="43.18496331841973" lon="12.882584287492548"><ele>484.25</ele><time>2026-04-26T10:28:26.998Z</time></trkpt><trkpt lat="43.18495125249015" lon="12.882781054582734"><ele>484.5</ele><time>2026-04-26T10:28:27.998Z</time></trkpt><trkpt lat="43.18494430242606" lon="12.88296625191875"><ele>484.75</ele><time>2026-04-26T10:28:28.998Z</time></trkpt><trkpt lat="43.18493706558104" lon="12.883137407128078"><ele>485.0</ele><time>2026-04-26T10:28:29.998Z</time></trkpt><trkpt lat="43.184914847268075" lon="12.883307575994522"><ele>485.75</ele><time>2026-04-26T10:28:30.998Z</time></trkpt><trkpt lat="43.18486691165517" lon="12.883478615753942"><ele>486.5</ele><time>2026-04-26T10:28:31.998Z</time></trkpt><trkpt lat="43.18479853883571" lon="12.88364526958993"><ele>487.25</ele><time>2026-04-26T10:28:32.998Z</time></trkpt><trkpt lat="43.1847288549559" lon="12.883815564900733"><ele>488.0</ele><time>2026-04-26T10:28:33.998Z</time></trkpt><trkpt lat="43.18468444576001" lon="12.883997098685027"><ele>488.0</ele><time>2026-04-26T10:28:34.998Z</time></trkpt><trkpt lat="43.18468692727594" lon="12.884189291871799"><ele>488.0</ele><time>2026-04-26T10:28:35.998Z</time></trkpt><trkpt lat="43.184736786685846" lon="12.884381124406628"><ele>488.0</ele><time>2026-04-26T10:28:36.998Z</time></trkpt><trkpt lat="43.184812301417146" lon="12.884568373087516"><ele>488.0</ele><time>2026-04-26T10:28:37.998Z</time></trkpt><trkpt lat="43.18488777501907" lon="12.884761527871305"><ele>489.0</ele><time>2026-04-26T10:28:38.998Z</time></trkpt><trkpt lat="43.184958690610614" lon="12.884967072700672"><ele>490.0</ele><time>2026-04-26T10:28:39.998Z</time></trkpt><trkpt lat="43.18502519089216" lon="12.885186902365243"><ele>491.0</ele><time>2026-04-26T10:28:40.998Z</time></trkpt><trkpt lat="43.18509490529984" lon="12.885415353549519"><ele>488.0</ele><time>2026-04-26T10:28:41.998Z</time></trkpt><trkpt lat="43.18516908339555" lon="12.885650838332655"><ele>485.0</ele><time>2026-04-26T10:28:42.998Z</time></trkpt><trkpt lat="43.18524484536833" lon="12.885892958213246"><ele>482.0</ele><time>2026-04-26T10:28:43.998Z</time></trkpt><trkpt lat="43.1853183419158" lon="12.886132264683138"><ele>481.66666666666663</ele><time>2026-04-26T10:28:44.998Z</time></trkpt><trkpt lat="43.185396805308756" lon="12.88638146078071"><ele>481.33333333333337</ele><time>2026-04-26T10:28:45.998Z</time></trkpt><trkpt lat="43.185474801793006" lon="12.886633343375552"><ele>481.0</ele><time>2026-04-26T10:28:46.998Z</time></trkpt><trkpt lat="43.18555116688674" lon="12.88689745385838"><ele>481.0</ele><time>2026-04-26T10:28:47.998Z</time></trkpt><trkpt lat="43.185624559176034" lon="12.887167101075518"><ele>481.0</ele><time>2026-04-26T10:28:48.998Z</time></trkpt><trkpt lat="43.185697077097814" lon="12.887443061123111"><ele>481.0</ele><time>2026-04-26T10:28:49.998Z</time></trkpt><trkpt lat="43.1857575147302" lon="12.887724797552604"><ele>482.0</ele><time>2026-04-26T10:28:50.998Z</time></trkpt><trkpt lat="43.18579441298629" lon="12.887999253597627"><ele>483.0</ele><time>2026-04-26T10:28:51.998Z</time></trkpt><trkpt lat="43.18580957787786" lon="12.888256653841852"><ele>484.0</ele><time>2026-04-26T10:28:52.998Z</time></trkpt><trkpt lat="43.18583487340335" lon="12.888489468328876"><ele>484.0</ele><time>2026-04-26T10:28:53.998Z</time></trkpt><trkpt lat="43.18589882915118" lon="12.888672120419667"><ele>484.0</ele><time>2026-04-26T10:28:54.998Z</time></trkpt><trkpt lat="43.186016371661" lon="12.888788551089801"><ele>484.0</ele><time>2026-04-26T10:28:55.998Z</time></trkpt><trkpt lat="43.18615989266782" lon="12.888861043048216"><ele>484.0</ele><time>2026-04-26T10:28:56.998Z</time></trkpt><trkpt lat="43.18631086408994" lon="12.888884687556915"><ele>484.0</ele><time>2026-04-26T10:28:57.998Z</time></trkpt><trkpt lat="43.186472347274076" lon="12.888865589225654"><ele>484.0</ele><time>2026-04-26T10:28:58.998Z</time></trkpt><trkpt lat="43.186632381519786" lon="12.888826058127247"><ele>484.0</ele><time>2026-04-26T10:28:59.998Z</time></trkpt><trkpt lat="43.18679608597088" lon="12.888758824591209"><ele>483.33333333333337</ele><time>2026-04-26T10:29:00.998Z</time></trkpt><trkpt lat="43.18694764480697" lon="12.888677234152745"><ele>482.66666666666663</ele><time>2026-04-26T10:29:01.998Z</time></trkpt><trkpt lat="43.18710504596456" lon="12.88861371362085"><ele>482.0</ele><time>2026-04-26T10:29:02.998Z</time></trkpt><trkpt lat="43.18726197673081" lon="12.888588316730685"><ele>480.0</ele><time>2026-04-26T10:29:03.998Z</time></trkpt><trkpt lat="43.187425362049964" lon="12.888619812079114"><ele>478.0</ele><time>2026-04-26T10:29:04.998Z</time></trkpt><trkpt lat="43.18758295329252" lon="12.888695652843547"><ele>476.0</ele><time>2026-04-26T10:29:05.998Z</time></trkpt><trkpt lat="43.187741161161505" lon="12.88879872120789"><ele>476.0</ele><time>2026-04-26T10:29:06.998Z</time></trkpt><trkpt lat="43.187889471630605" lon="12.888926832124488"><ele>476.0</ele><time>2026-04-26T10:29:07.998Z</time></trkpt><trkpt lat="43.18803314823779" lon="12.889085227630698"><ele>476.0</ele><time>2026-04-26T10:29:08.998Z</time></trkpt><trkpt lat="43.188157489675476" lon="12.889268540481565"><ele>475.66666666666663</ele><time>2026-04-26T10:29:09.998Z</time></trkpt><trkpt lat="43.18827289292867" lon="12.889458812596821"><ele>475.33333333333337</ele><time>2026-04-26T10:29:10.998Z</time></trkpt><trkpt lat="43.188390486376996" lon="12.889649905303266"><ele>475.0</ele><time>2026-04-26T10:29:11.998Z</time></trkpt><trkpt lat="43.18850682530473" lon="12.889846520221685"><ele>475.0</ele><time>2026-04-26T10:29:12.998Z</time></trkpt><trkpt lat="43.18862334991773" lon="12.890050895724636"><ele>475.0</ele><time>2026-04-26T10:29:13.998Z</time></trkpt><trkpt lat="43.188745951644854" lon="12.890250520210214"><ele>475.0</ele><time>2026-04-26T10:29:14.998Z</time></trkpt><trkpt lat="43.18887564841428" lon="12.89044628125743"><ele>475.0</ele><time>2026-04-26T10:29:15.998Z</time></trkpt><trkpt lat="43.18901232795158" lon="12.890634752297796"><ele>475.0</ele><time>2026-04-26T10:29:16.999Z</time></trkpt><trkpt lat="43.18916102397588" lon="12.890818581509105"><ele>475.0</ele><time>2026-04-26T10:29:18Z</time></trkpt><trkpt lat="43.18931219381451" lon="12.890998240017847"><ele>475.0</ele><time>2026-04-26T10:29:18.999Z</time></trkpt><trkpt lat="43.18946309881155" lon="12.891180244706652"><ele>475.0</ele><time>2026-04-26T10:29:19.999Z</time></trkpt><trkpt lat="43.18960739770624" lon="12.891369586176001"><ele>475.0</ele><time>2026-04-26T10:29:21Z</time></trkpt><trkpt lat="43.189742737423664" lon="12.891568458304636"><ele>476.33333333333337</ele><time>2026-04-26T10:29:21.999Z</time></trkpt><trkpt lat="43.18986283843184" lon="12.891787938371767"><ele>477.66666666666663</ele><time>2026-04-26T10:29:23Z</time></trkpt><trkpt lat="43.18995917636361" lon="12.892029946194446"><ele>479.0</ele><time>2026-04-26T10:29:24Z</time></trkpt><trkpt lat="43.190037356991766" lon="12.892287539318513"><ele>479.0</ele><time>2026-04-26T10:29:25Z</time></trkpt><trkpt lat="43.19011246706183" lon="12.892556299154661"><ele>479.0</ele><time>2026-04-26T10:29:26Z</time></trkpt><trkpt lat="43.19018927336734" lon="12.89282748063496"><ele>479.0</ele><time>2026-04-26T10:29:27Z</time></trkpt><trkpt lat="43.19026616324372" lon="12.89309727358187"><ele>479.0</ele><time>2026-04-26T10:29:28Z</time></trkpt><trkpt lat="43.19034026128191" lon="12.893376460634958"><ele>479.0</ele><time>2026-04-26T10:29:29Z</time></trkpt><trkpt lat="43.19040564375942" lon="12.893659910928857"><ele>479.0</ele><time>2026-04-26T10:29:30Z</time></trkpt><trkpt lat="43.1904658363552" lon="12.893928916875485"><ele>480.0</ele><time>2026-04-26T10:29:31Z</time></trkpt><trkpt lat="43.19052366353808" lon="12.894166498219931"><ele>481.0</ele><time>2026-04-26T10:29:32Z</time></trkpt><trkpt lat="43.190584770833325" lon="12.894342718349103"><ele>482.0</ele><time>2026-04-26T10:29:33Z</time></trkpt><trkpt lat="43.19066584143873" lon="12.894464834219207"><ele>483.0</ele><time>2026-04-26T10:29:33.999Z</time></trkpt><trkpt lat="43.19077678256955" lon="12.894530518878273"><ele>480.75</ele><time>2026-04-26T10:29:34.999Z</time></trkpt><trkpt lat="43.19090325340372" lon="12.894570719253617"><ele>478.5</ele><time>2026-04-26T10:29:35.999Z</time></trkpt><trkpt lat="43.191034036469325" lon="12.894625373787653"><ele>476.25</ele><time>2026-04-26T10:29:36.999Z</time></trkpt><trkpt lat="43.191169723826874" lon="12.8947011050293"><ele>474.0</ele><time>2026-04-26T10:29:37.999Z</time></trkpt><trkpt lat="43.19130561622407" lon="12.89479740032932"><ele>474.0</ele><time>2026-04-26T10:29:38.999Z</time></trkpt><trkpt lat="43.19143443824779" lon="12.894914654169028"><ele>474.0</ele><time>2026-04-26T10:29:39.999Z</time></trkpt><trkpt lat="43.19153805503197" lon="12.895074639112694"><ele>474.0</ele><time>2026-04-26T10:29:40.999Z</time></trkpt><trkpt lat="43.19161992638658" lon="12.895267635736632"><ele>475.0</ele><time>2026-04-26T10:29:41.999Z</time></trkpt><trkpt lat="43.191695388138484" lon="12.895472189762415"><ele>476.0</ele><time>2026-04-26T10:29:42.999Z</time></trkpt><trkpt lat="43.191786659263826" lon="12.895669736473563"><ele>477.0</ele><time>2026-04-26T10:29:43.999Z</time></trkpt><trkpt lat="43.191877142936725" lon="12.895872682844008"><ele>478.0</ele><time>2026-04-26T10:29:44.999Z</time></trkpt><trkpt lat="43.19196671729" lon="12.896080293233537"><ele>479.0</ele><time>2026-04-26T10:29:45.999Z</time></trkpt><trkpt lat="43.192059481146124" lon="12.896299828879107"><ele>480.0</ele><time>2026-04-26T10:29:46.999Z</time></trkpt><trkpt lat="43.192156177398765" lon="12.896516098570094"><ele>480.0</ele><time>2026-04-26T10:29:47.999Z</time></trkpt><trkpt lat="43.192264622702204" lon="12.896718531328002"><ele>480.0</ele><time>2026-04-26T10:29:48.999Z</time></trkpt><trkpt lat="43.19238447391461" lon="12.896909090357777"><ele>480.0</ele><time>2026-04-26T10:29:49.999Z</time></trkpt><trkpt lat="43.19251130881282" lon="12.897103399946493"><ele>478.33333333333337</ele><time>2026-04-26T10:29:50.999Z</time></trkpt><trkpt lat="43.19262782572275" lon="12.897295086008786"><ele>476.6666666666667</ele><time>2026-04-26T10:29:51.999Z</time></trkpt><trkpt lat="43.192736196124564" lon="12.897493855216865"><ele>475.0</ele><time>2026-04-26T10:29:52.999Z</time></trkpt><trkpt lat="43.19284206083102" lon="12.897694808010401"><ele>474.0</ele><time>2026-04-26T10:29:53.999Z</time></trkpt><trkpt lat="43.192942965989985" lon="12.89790799045321"><ele>473.0</ele><time>2026-04-26T10:29:54.999Z</time></trkpt><trkpt lat="43.1930362826462" lon="12.898127801059077"><ele>472.0</ele><time>2026-04-26T10:29:55.999Z</time></trkpt><trkpt lat="43.19312787400362" lon="12.898343307126837"><ele>471.6666666666667</ele><time>2026-04-26T10:29:56.999Z</time></trkpt><trkpt lat="43.193224021138505" lon="12.898560209570872"><ele>471.33333333333337</ele><time>2026-04-26T10:29:57.999Z</time></trkpt><trkpt lat="43.193323136477716" lon="12.898776487911901"><ele>471.0</ele><time>2026-04-26T10:29:58.999Z</time></trkpt><trkpt lat="43.19342486665561" lon="12.898993864115878"><ele>471.0</ele><time>2026-04-26T10:29:59.999Z</time></trkpt><trkpt lat="43.19352896069905" lon="12.899215097424145"><ele>471.0</ele><time>2026-04-26T10:30:00.999Z</time></trkpt><trkpt lat="43.19363473427171" lon="12.899443198241677"><ele>471.0</ele><time>2026-04-26T10:30:01.999Z</time></trkpt><trkpt lat="43.193739743958716" lon="12.899669400394913"><ele>471.0</ele><time>2026-04-26T10:30:02.999Z</time></trkpt><trkpt lat="43.193852442384156" lon="12.899892835100662"><ele>471.0</ele><time>2026-04-26T10:30:03.999Z</time></trkpt><trkpt lat="43.19398297330387" lon="12.900101227304074"><ele>471.0</ele><time>2026-04-26T10:30:04.999Z</time></trkpt><trkpt lat="43.1941203267567" lon="12.90029753040289"><ele>471.0</ele><time>2026-04-26T10:30:05.999Z</time></trkpt><trkpt lat="43.194242601155786" lon="12.900484200413418"><ele>471.0</ele><time>2026-04-26T10:30:06.999Z</time></trkpt><trkpt lat="43.19433793437522" lon="12.900662248650926"><ele>471.0</ele><time>2026-04-26T10:30:07.999Z</time></trkpt><trkpt lat="43.19441592005834" lon="12.900844928244654"><ele>472.0</ele><time>2026-04-26T10:30:08.999Z</time></trkpt><trkpt lat="43.194490244741985" lon="12.901032403502345"><ele>473.0</ele><time>2026-04-26T10:30:09.999Z</time></trkpt><trkpt lat="43.19457257380789" lon="12.901225063085441"><ele>474.0</ele><time>2026-04-26T10:30:10.999Z</time></trkpt><trkpt lat="43.19464964149041" lon="12.90142144459494"><ele>474.0</ele><time>2026-04-26T10:30:11.999Z</time></trkpt><trkpt lat="43.194701031211494" lon="12.901635621859231"><ele>474.0</ele><time>2026-04-26T10:30:12.999Z</time></trkpt><trkpt lat="43.19470836344384" lon="12.901863636922279"><ele>474.0</ele><time>2026-04-26T10:30:13.999Z</time></trkpt><trkpt lat="43.19468490094557" lon="12.902099813660634"><ele>474.0</ele><time>2026-04-26T10:30:14.999Z</time></trkpt><trkpt lat="43.19464333028598" lon="12.902334404624153"><ele>474.0</ele><time>2026-04-26T10:30:15.999Z</time></trkpt><trkpt lat="43.19462000334136" lon="12.90257033142005"><ele>474.0</ele><time>2026-04-26T10:30:16.999Z</time></trkpt><trkpt lat="43.194592788135246" lon="12.902807000890528"><ele>472.33333333333337</ele><time>2026-04-26T10:30:17.999Z</time></trkpt><trkpt lat="43.19456774719156" lon="12.903036071636413"><ele>470.6666666666667</ele><time>2026-04-26T10:30:18.999Z</time></trkpt><trkpt lat="43.19454437302279" lon="12.903260639616256"><ele>469.0</ele><time>2026-04-26T10:30:19.999Z</time></trkpt><trkpt lat="43.19451750717897" lon="12.903476915509575"><ele>468.0</ele><time>2026-04-26T10:30:20.999Z</time></trkpt><trkpt lat="43.194488951565134" lon="12.903697855898262"><ele>467.0</ele><time>2026-04-26T10:30:21.999Z</time></trkpt><trkpt lat="43.19446546952235" lon="12.903920136345613"><ele>466.0</ele><time>2026-04-26T10:30:22.999Z</time></trkpt><trkpt lat="43.19444799926719" lon="12.90414193744779"><ele>466.6666666666667</ele><time>2026-04-26T10:30:23.999Z</time></trkpt><trkpt lat="43.19442003915134" lon="12.904361756339851"><ele>467.33333333333337</ele><time>2026-04-26T10:30:24.999Z</time></trkpt><trkpt lat="43.19438828746054" lon="12.904581810309587"><ele>468.0</ele><time>2026-04-26T10:30:25.999Z</time></trkpt><trkpt lat="43.19435883288895" lon="12.904801578825435"><ele>468.0</ele><time>2026-04-26T10:30:26.999Z</time></trkpt><trkpt lat="43.19433158852555" lon="12.905026026607002"><ele>468.0</ele><time>2026-04-26T10:30:27.999Z</time></trkpt><trkpt lat="43.19431704582165" lon="12.905252496462806"><ele>468.0</ele><time>2026-04-26T10:30:28.999Z</time></trkpt><trkpt lat="43.194331725648915" lon="12.905478428430206"><ele>467.0</ele><time>2026-04-26T10:30:29.999Z</time></trkpt><trkpt lat="43.194377585550576" lon="12.905701934564442"><ele>466.0</ele><time>2026-04-26T10:30:30.999Z</time></trkpt><trkpt lat="43.19445120660264" lon="12.905907604324554"><ele>465.0</ele><time>2026-04-26T10:30:31.999Z</time></trkpt><trkpt lat="43.194553209251474" lon="12.906103217466292"><ele>464.0</ele><time>2026-04-26T10:30:32.999Z</time></trkpt><trkpt lat="43.194661005568356" lon="12.90629076013567"><ele>463.0</ele><time>2026-04-26T10:30:33.999Z</time></trkpt><trkpt lat="43.19477096625124" lon="12.906477126452735"><ele>462.0</ele><time>2026-04-26T10:30:34.999Z</time></trkpt><trkpt lat="43.19488140474846" lon="12.906670074790691"><ele>463.33333333333337</ele><time>2026-04-26T10:30:35.999Z</time></trkpt><trkpt lat="43.194993036526085" lon="12.906863068838149"><ele>464.6666666666667</ele><time>2026-04-26T10:30:36.999Z</time></trkpt><trkpt lat="43.195105761399326" lon="12.907057538935305"><ele>466.0</ele><time>2026-04-26T10:30:37.999Z</time></trkpt><trkpt lat="43.195224248670485" lon="12.907251278120517"><ele>466.0</ele><time>2026-04-26T10:30:38.999Z</time></trkpt><trkpt lat="43.195352971206795" lon="12.907435511239267"><ele>466.0</ele><time>2026-04-26T10:30:39.999Z</time></trkpt><trkpt lat="43.19548721962404" lon="12.907616725297578"><ele>466.0</ele><time>2026-04-26T10:30:40.999Z</time></trkpt><trkpt lat="43.19560940569761" lon="12.907793105987007"><ele>467.33333333333337</ele><time>2026-04-26T10:30:41.999Z</time></trkpt><trkpt lat="43.195718040162255" lon="12.90796016103581"><ele>468.66666666666663</ele><time>2026-04-26T10:30:42.999Z</time></trkpt><trkpt lat="43.19581970553394" lon="12.908119624364234"><ele>470.0</ele><time>2026-04-26T10:30:43.999Z</time></trkpt><trkpt lat="43.195899885458246" lon="12.908285249785727"><ele>468.25</ele><time>2026-04-26T10:30:44.998Z</time></trkpt><trkpt lat="43.195945631259306" lon="12.908457723771917"><ele>466.5</ele><time>2026-04-26T10:30:45.998Z</time></trkpt><trkpt lat="43.195948457453966" lon="12.908629163131753"><ele>464.75</ele><time>2026-04-26T10:30:46.998Z</time></trkpt><trkpt lat="43.195922216637165" lon="12.908791303718985"><ele>463.0</ele><time>2026-04-26T10:30:47.998Z</time></trkpt><trkpt lat="43.19588644996872" lon="12.908930044585558"><ele>463.0</ele><time>2026-04-26T10:30:48.998Z</time></trkpt><trkpt lat="43.195854123010434" lon="12.909064711004495"><ele>462.99999999999994</ele><time>2026-04-26T10:30:49.998Z</time></trkpt><trkpt lat="43.19582375888101" lon="12.909204909101957"><ele>462.99999999999994</ele><time>2026-04-26T10:30:50.998Z</time></trkpt><trkpt lat="43.19579077520917" lon="12.909351821408944"><ele>463.0</ele><time>2026-04-26T10:30:51.998Z</time></trkpt><trkpt lat="43.195752844965035" lon="12.909503265115726"><ele>463.0</ele><time>2026-04-26T10:30:52.998Z</time></trkpt><trkpt lat="43.195706615679754" lon="12.909657526283176"><ele>462.75</ele><time>2026-04-26T10:30:53.998Z</time></trkpt><trkpt lat="43.19564479371167" lon="12.909811733415003"><ele>462.5</ele><time>2026-04-26T10:30:54.998Z</time></trkpt><trkpt lat="43.19556622875428" lon="12.90996669357682"><ele>462.25</ele><time>2026-04-26T10:30:55.998Z</time></trkpt><trkpt lat="43.19547272328888" lon="12.910114070918112"><ele>462.0</ele><time>2026-04-26T10:30:56.998Z</time></trkpt><trkpt lat="43.195363420552525" lon="12.910242708738375"><ele>465.33333333333337</ele><time>2026-04-26T10:30:57.998Z</time></trkpt><trkpt lat="43.19524324301445" lon="12.910366380074045"><ele>468.6666666666667</ele><time>2026-04-26T10:30:58.998Z</time></trkpt><trkpt lat="43.19511684679691" lon="12.910488939112595"><ele>472.0</ele><time>2026-04-26T10:30:59.998Z</time></trkpt><trkpt lat="43.19499212237604" lon="12.910618429538642"><ele>472.0</ele><time>2026-04-26T10:31:00.998Z</time></trkpt><trkpt lat="43.19486448659039" lon="12.910752336269402"><ele>472.0</ele><time>2026-04-26T10:31:01.998Z</time></trkpt><trkpt lat="43.194731731106685" lon="12.910884682845422"><ele>472.0</ele><time>2026-04-26T10:31:02.998Z</time></trkpt><trkpt lat="43.19459189231985" lon="12.91102217208456"><ele>470.6666666666667</ele><time>2026-04-26T10:31:03.998Z</time></trkpt><trkpt lat="43.194456177273665" lon="12.911160806777648"><ele>469.33333333333337</ele><time>2026-04-26T10:31:04.998Z</time></trkpt><trkpt lat="43.19432081822141" lon="12.91130485084222"><ele>468.0</ele><time>2026-04-26T10:31:05.998Z</time></trkpt><trkpt lat="43.194181360097204" lon="12.911448804238479"><ele>468.0</ele><time>2026-04-26T10:31:06.998Z</time></trkpt><trkpt lat="43.19403574315004" lon="12.911586916339557"><ele>468.0</ele><time>2026-04-26T10:31:07.998Z</time></trkpt><trkpt lat="43.19388267767618" lon="12.911720179502032"><ele>468.0</ele><time>2026-04-26T10:31:08.998Z</time></trkpt><trkpt lat="43.19372172351325" lon="12.911839704349797"><ele>468.0</ele><time>2026-04-26T10:31:09.998Z</time></trkpt><trkpt lat="43.19355409708531" lon="12.91194124783037"><ele>468.0</ele><time>2026-04-26T10:31:10.998Z</time></trkpt><trkpt lat="43.19338596820176" lon="12.912044693573318"><ele>468.0</ele><time>2026-04-26T10:31:11.998Z</time></trkpt><trkpt lat="43.19322124287653" lon="12.912168458477323"><ele>466.66666666666663</ele><time>2026-04-26T10:31:12.998Z</time></trkpt><trkpt lat="43.193069656026196" lon="12.91231917614343"><ele>465.3333333333333</ele><time>2026-04-26T10:31:13.998Z</time></trkpt><trkpt lat="43.19292576353875" lon="12.912487816875663"><ele>464.0</ele><time>2026-04-26T10:31:14.998Z</time></trkpt><trkpt lat="43.19278222814817" lon="12.912665853437431"><ele>464.0</ele><time>2026-04-26T10:31:15.998Z</time></trkpt><trkpt lat="43.19263362623766" lon="12.912836904202818"><ele>464.0</ele><time>2026-04-26T10:31:16.998Z</time></trkpt><trkpt lat="43.192482484202884" lon="12.913008462250197"><ele>464.0</ele><time>2026-04-26T10:31:17.998Z</time></trkpt><trkpt lat="43.19232900365725" lon="12.913184135145078"><ele>463.3333333333333</ele><time>2026-04-26T10:31:18.998Z</time></trkpt><trkpt lat="43.19217622766797" lon="12.91336102626157"><ele>462.66666666666663</ele><time>2026-04-26T10:31:19.998Z</time></trkpt><trkpt lat="43.192020344489706" lon="12.91354088437456"><ele>462.0</ele><time>2026-04-26T10:31:20.998Z</time></trkpt><trkpt lat="43.19186333698115" lon="12.913716616701132"><ele>462.0</ele><time>2026-04-26T10:31:22Z</time></trkpt><trkpt lat="43.19170414805174" lon="12.913892292431926"><ele>462.0</ele><time>2026-04-26T10:31:23Z</time></trkpt><trkpt lat="43.19154417526862" lon="12.91407076315403"><ele>462.0</ele><time>2026-04-26T10:31:24Z</time></trkpt><trkpt lat="43.191382340166044" lon="12.914249590945081"><ele>463.33333333333337</ele><time>2026-04-26T10:31:25Z</time></trkpt><trkpt lat="43.19121748916831" lon="12.914426408914888"><ele>464.6666666666667</ele><time>2026-04-26T10:31:26Z</time></trkpt><trkpt lat="43.19105100995174" lon="12.914600109268555"><ele>466.0</ele><time>2026-04-26T10:31:27Z</time></trkpt><trkpt lat="43.190883298058125" lon="12.914770100222665"><ele>466.0</ele><time>2026-04-26T10:31:28Z</time></trkpt><trkpt lat="43.19071223636902" lon="12.914928915663891"><ele>466.0</ele><time>2026-04-26T10:31:29Z</time></trkpt><trkpt lat="43.190538143154846" lon="12.91507235898054"><ele>466.0</ele><time>2026-04-26T10:31:30Z</time></trkpt><trkpt lat="43.19035552913204" lon="12.915199666724583"><ele>471.33333333333337</ele><time>2026-04-26T10:31:31Z</time></trkpt><trkpt lat="43.19016491545833" lon="12.915302257612387"><ele>476.66666666666663</ele><time>2026-04-26T10:31:32Z</time></trkpt><trkpt lat="43.18996981741133" lon="12.915385795800917"><ele>482.0</ele><time>2026-04-26T10:31:33Z</time></trkpt><trkpt lat="43.18977438128541" lon="12.915447929670256"><ele>482.0</ele><time>2026-04-26T10:31:34Z</time></trkpt><trkpt lat="43.18957772609656" lon="12.915479005859495"><ele>482.0</ele><time>2026-04-26T10:31:35Z</time></trkpt><trkpt lat="43.18938193661212" lon="12.91546591349985"><ele>482.0</ele><time>2026-04-26T10:31:36Z</time></trkpt><trkpt lat="43.189188010771936" lon="12.915423892779573"><ele>479.66666666666663</ele><time>2026-04-26T10:31:37Z</time></trkpt><trkpt lat="43.1889929310514" lon="12.915408042391068"><ele>477.33333333333337</ele><time>2026-04-26T10:31:38Z</time></trkpt><trkpt lat="43.18879857207294" lon="12.915428639708411"><ele>475.0</ele><time>2026-04-26T10:31:39Z</time></trkpt><trkpt lat="43.1886066571434" lon="12.915472369467015"><ele>475.0</ele><time>2026-04-26T10:31:40Z</time></trkpt><trkpt lat="43.18841568466668" lon="12.915517783333266"><ele>475.0</ele><time>2026-04-26T10:31:41Z</time></trkpt><trkpt lat="43.18822386522319" lon="12.915561220697027"><ele>475.0</ele><time>2026-04-26T10:31:42Z</time></trkpt><trkpt lat="43.188030855427606" lon="12.915603160321767"><ele>472.33333333333337</ele><time>2026-04-26T10:31:43Z</time></trkpt><trkpt lat="43.187839013771416" lon="12.915645683827474"><ele>469.66666666666663</ele><time>2026-04-26T10:31:44Z</time></trkpt><trkpt lat="43.18764583242018" lon="12.915693040918407"><ele>467.0</ele><time>2026-04-26T10:31:45Z</time></trkpt><trkpt lat="43.18746050965936" lon="12.915752508683868"><ele>466.3333333333333</ele><time>2026-04-26T10:31:46Z</time></trkpt><trkpt lat="43.187288646078514" lon="12.91583346786659"><ele>465.66666666666663</ele><time>2026-04-26T10:31:47Z</time></trkpt><trkpt lat="43.18712976874405" lon="12.915947700546768"><ele>465.0</ele><time>2026-04-26T10:31:47.999Z</time></trkpt><trkpt lat="43.18698773445632" lon="12.916094071745155"><ele>465.0</ele><time>2026-04-26T10:31:48.999Z</time></trkpt><trkpt lat="43.18686370841088" lon="12.916266585610565"><ele>465.0</ele><time>2026-04-26T10:31:49.999Z</time></trkpt><trkpt lat="43.186739891559505" lon="12.916443159088416"><ele>465.0</ele><time>2026-04-26T10:31:50.999Z</time></trkpt><trkpt lat="43.18661241725468" lon="12.916606300133356"><ele>463.66666666666663</ele><time>2026-04-26T10:31:51.999Z</time></trkpt><trkpt lat="43.186478320395096" lon="12.916764046397219"><ele>462.3333333333333</ele><time>2026-04-26T10:31:52.999Z</time></trkpt><trkpt lat="43.18634502599551" lon="12.91692407733166"><ele>461.0</ele><time>2026-04-26T10:31:53.999Z</time></trkpt><trkpt lat="43.18621374640365" lon="12.917088371162855"><ele>461.0</ele><time>2026-04-26T10:31:54.999Z</time></trkpt><trkpt lat="43.18608609767921" lon="12.917264332157945"><ele>461.0</ele><time>2026-04-26T10:31:55.999Z</time></trkpt><trkpt lat="43.18596672933884" lon="12.91745350744695"><ele>461.0</ele><time>2026-04-26T10:31:56.999Z</time></trkpt><trkpt lat="43.18585128170295" lon="12.91765180640576"><ele>460.3333333333333</ele><time>2026-04-26T10:31:57.999Z</time></trkpt><trkpt lat="43.185740497428625" lon="12.917857491151487"><ele>459.66666666666663</ele><time>2026-04-26T10:31:58.999Z</time></trkpt><trkpt lat="43.185642903097296" lon="12.918080652972558"><ele>459.0</ele><time>2026-04-26T10:31:59.999Z</time></trkpt><trkpt lat="43.185561778528225" lon="12.91831833305997"><ele>459.0</ele><time>2026-04-26T10:32:00.999Z</time></trkpt><trkpt lat="43.1854803362202" lon="12.918559631118715"><ele>459.0</ele><time>2026-04-26T10:32:01.999Z</time></trkpt><trkpt lat="43.185396400009154" lon="12.918800376358242"><ele>459.0</ele><time>2026-04-26T10:32:02.999Z</time></trkpt><trkpt lat="43.1853178322465" lon="12.919047635139739"><ele>460.0</ele><time>2026-04-26T10:32:03.999Z</time></trkpt><trkpt lat="43.18525356351293" lon="12.919307265410035"><ele>461.0</ele><time>2026-04-26T10:32:04.999Z</time></trkpt><trkpt lat="43.18521044007165" lon="12.919577056008746"><ele>462.0</ele><time>2026-04-26T10:32:05.999Z</time></trkpt><trkpt lat="43.185178833411776" lon="12.919850504761266"><ele>463.66666666666663</ele><time>2026-04-26T10:32:06.999Z</time></trkpt><trkpt lat="43.18514256991428" lon="12.920125929451636"><ele>465.3333333333333</ele><time>2026-04-26T10:32:07.999Z</time></trkpt><trkpt lat="43.18508822012637" lon="12.920397147329615"><ele>467.0</ele><time>2026-04-26T10:32:08.999Z</time></trkpt><trkpt lat="43.185009771354565" lon="12.920657949734622"><ele>469.3333333333333</ele><time>2026-04-26T10:32:09.999Z</time></trkpt><trkpt lat="43.184915746442165" lon="12.920900461201333"><ele>471.66666666666663</ele><time>2026-04-26T10:32:10.999Z</time></trkpt><trkpt lat="43.18482526122103" lon="12.921131681702665"><ele>474.0</ele><time>2026-04-26T10:32:11.999Z</time></trkpt><trkpt lat="43.18474288643741" lon="12.921349307900543"><ele>469.33333333333337</ele><time>2026-04-26T10:32:12.999Z</time></trkpt><trkpt lat="43.18465998261897" lon="12.921552761247684"><ele>464.6666666666667</ele><time>2026-04-26T10:32:13.999Z</time></trkpt><trkpt lat="43.184577030236134" lon="12.92174150396798"><ele>460.0</ele><time>2026-04-26T10:32:14.999Z</time></trkpt><trkpt lat="43.18450250643662" lon="12.921922964903994"><ele>460.0</ele><time>2026-04-26T10:32:15.999Z</time></trkpt><trkpt lat="43.18443797820224" lon="12.922099379167502"><ele>460.0</ele><time>2026-04-26T10:32:16.999Z</time></trkpt><trkpt lat="43.184382961422045" lon="12.922267270141637"><ele>460.0</ele><time>2026-04-26T10:32:17.999Z</time></trkpt><trkpt lat="43.18433378564466" lon="12.922427293333778"><ele>460.0</ele><time>2026-04-26T10:32:18.999Z</time></trkpt><trkpt lat="43.184294282545984" lon="12.92258174057476"><ele>460.0</ele><time>2026-04-26T10:32:19.999Z</time></trkpt><trkpt lat="43.18425707966211" lon="12.922734097731345"><ele>460.0</ele><time>2026-04-26T10:32:20.999Z</time></trkpt><trkpt lat="43.18421983675185" lon="12.92288712367281"><ele>460.0</ele><time>2026-04-26T10:32:21.999Z</time></trkpt><trkpt lat="43.18418135680153" lon="12.923038913687588"><ele>460.0</ele><time>2026-04-26T10:32:22.999Z</time></trkpt><trkpt lat="43.18414699471597" lon="12.92319146916813"><ele>460.0</ele><time>2026-04-26T10:32:23.999Z</time></trkpt><trkpt lat="43.184112890967626" lon="12.923347761174321"><ele>460.0</ele><time>2026-04-26T10:32:24.999Z</time></trkpt><trkpt lat="43.184080881941014" lon="12.923501009983282"><ele>460.0</ele><time>2026-04-26T10:32:25.999Z</time></trkpt><trkpt lat="43.184054675039" lon="12.92364596795484"><ele>460.0</ele><time>2026-04-26T10:32:26.999Z</time></trkpt><trkpt lat="43.184028036446016" lon="12.923784205594082"><ele>460.0</ele><time>2026-04-26T10:32:27.999Z</time></trkpt><trkpt lat="43.184000130882126" lon="12.923914455966093"><ele>459.1666666666667</ele><time>2026-04-26T10:32:28.999Z</time></trkpt><trkpt lat="43.18397560783585" lon="12.924035488412828"><ele>458.33333333333337</ele><time>2026-04-26T10:32:29.999Z</time></trkpt><trkpt lat="43.18395601744457" lon="12.924159393688942"><ele>457.5</ele><time>2026-04-26T10:32:30.999Z</time></trkpt><trkpt lat="43.18394247909235" lon="12.924271546918085"><ele>456.66666666666663</ele><time>2026-04-26T10:32:31.999Z</time></trkpt><trkpt lat="43.18392800097204" lon="12.924384320626466"><ele>455.8333333333333</ele><time>2026-04-26T10:32:32.999Z</time></trkpt><trkpt lat="43.18391308231825" lon="12.92449578172024"><ele>455.0</ele><time>2026-04-26T10:32:33.999Z</time></trkpt><trkpt lat="43.183904180294455" lon="12.924616547727496"><ele>455.0</ele><time>2026-04-26T10:32:34.999Z</time></trkpt><trkpt lat="43.18389798750861" lon="12.924742957394033"><ele>455.0</ele><time>2026-04-26T10:32:35.999Z</time></trkpt><trkpt lat="43.18389533303594" lon="12.92487637207543"><ele>455.0</ele><time>2026-04-26T10:32:36.999Z</time></trkpt><trkpt lat="43.183896664387476" lon="12.925018563790772"><ele>455.0</ele><time>2026-04-26T10:32:37.999Z</time></trkpt><trkpt lat="43.183900998808305" lon="12.92517075924461"><ele>455.0</ele><time>2026-04-26T10:32:38.999Z</time></trkpt><trkpt lat="43.18391195584345" lon="12.925330216746369"><ele>454.75</ele><time>2026-04-26T10:32:39.999Z</time></trkpt><trkpt lat="43.18393026548263" lon="12.925502894869034"><ele>454.5</ele><time>2026-04-26T10:32:40.999Z</time></trkpt><trkpt lat="43.18395090203243" lon="12.925679948872158"><ele>454.25</ele><time>2026-04-26T10:32:41.999Z</time></trkpt><trkpt lat="43.18397102517855" lon="12.92586415862082"><ele>454.0</ele><time>2026-04-26T10:32:42.999Z</time></trkpt><trkpt lat="43.183996117425075" lon="12.92605267001975"><ele>453.25</ele><time>2026-04-26T10:32:43.999Z</time></trkpt><trkpt lat="43.18401921246932" lon="12.926240854862646"><ele>452.5</ele><time>2026-04-26T10:32:44.999Z</time></trkpt><trkpt lat="43.18403793925887" lon="12.92643719267766"><ele>451.75</ele><time>2026-04-26T10:32:45.999Z</time></trkpt><trkpt lat="43.184057439063636" lon="12.926632904767741"><ele>451.0</ele><time>2026-04-26T10:32:46.999Z</time></trkpt><trkpt lat="43.18407950744577" lon="12.926833681316552"><ele>451.0</ele><time>2026-04-26T10:32:47.999Z</time></trkpt><trkpt lat="43.184105230238806" lon="12.927039529777621"><ele>451.0</ele><time>2026-04-26T10:32:48.999Z</time></trkpt><trkpt lat="43.1841327105571" lon="12.927248228849479"><ele>451.0</ele><time>2026-04-26T10:32:49.999Z</time></trkpt><trkpt lat="43.18415849581856" lon="12.927459655586594"><ele>451.0</ele><time>2026-04-26T10:32:50.999Z</time></trkpt><trkpt lat="43.18418262255496" lon="12.927674312720441"><ele>451.0</ele><time>2026-04-26T10:32:51.999Z</time></trkpt><trkpt lat="43.18420555130197" lon="12.927892578659476"><ele>451.0</ele><time>2026-04-26T10:32:52.999Z</time></trkpt><trkpt lat="43.18423119117061" lon="12.928114072201359"><ele>451.0</ele><time>2026-04-26T10:32:53.998Z</time></trkpt><trkpt lat="43.18425869187172" lon="12.928333413551139"><ele>451.0</ele><time>2026-04-26T10:32:54.998Z</time></trkpt><trkpt lat="43.184286158052785" lon="12.92855498227392"><ele>451.0</ele><time>2026-04-26T10:32:55.998Z</time></trkpt><trkpt lat="43.18430911867604" lon="12.92877966505982"><ele>451.0</ele><time>2026-04-26T10:32:56.998Z</time></trkpt><trkpt lat="43.184331254094175" lon="12.929006648487391"><ele>451.0</ele><time>2026-04-26T10:32:57.998Z</time></trkpt><trkpt lat="43.18435601145317" lon="12.929235051124508"><ele>451.0</ele><time>2026-04-26T10:32:58.998Z</time></trkpt><trkpt lat="43.18438392606094" lon="12.929462544745192"><ele>451.33333333333337</ele><time>2026-04-26T10:32:59.998Z</time></trkpt><trkpt lat="43.184410146293274" lon="12.929680783674094"><ele>451.66666666666663</ele><time>2026-04-26T10:33:00.998Z</time></trkpt><trkpt lat="43.18443261916322" lon="12.929885645941939"><ele>452.0</ele><time>2026-04-26T10:33:01.998Z</time></trkpt><trkpt lat="43.18445337689045" lon="12.930078355522399"><ele>452.0</ele><time>2026-04-26T10:33:02.998Z</time></trkpt><trkpt lat="43.18447472209534" lon="12.930262299585827"><ele>452.0</ele><time>2026-04-26T10:33:03.998Z</time></trkpt><trkpt lat="43.18449437225428" lon="12.930437737636222"><ele>452.0</ele><time>2026-04-26T10:33:04.998Z</time></trkpt><trkpt lat="43.184513361079865" lon="12.930612885299961"><ele>452.0</ele><time>2026-04-26T10:33:05.998Z</time></trkpt><trkpt lat="43.184532073304304" lon="12.930792064306553"><ele>451.5</ele><time>2026-04-26T10:33:06.998Z</time></trkpt><trkpt lat="43.184551833809955" lon="12.930972691650668"><ele>451.0</ele><time>2026-04-26T10:33:07.998Z</time></trkpt><trkpt lat="43.18456948067337" lon="12.931135863458051"><ele>450.5</ele><time>2026-04-26T10:33:08.998Z</time></trkpt><trkpt lat="43.18458744324499" lon="12.93128953231079"><ele>450.0</ele><time>2026-04-26T10:33:09.998Z</time></trkpt><trkpt lat="43.18460613493557" lon="12.931439766538356"><ele>450.0</ele><time>2026-04-26T10:33:10.998Z</time></trkpt><trkpt lat="43.184623441842675" lon="12.931581683811567"><ele>450.0</ele><time>2026-04-26T10:33:11.998Z</time></trkpt><trkpt lat="43.18463679999373" lon="12.93171234928916"><ele>450.0</ele><time>2026-04-26T10:33:12.998Z</time></trkpt><trkpt lat="43.18464672769554" lon="12.931818346817423"><ele>450.0</ele><time>2026-04-26T10:33:13.998Z</time></trkpt><trkpt lat="43.1846570811617" lon="12.931954048070834"><ele>450.0</ele><time>2026-04-26T10:33:15.998Z</time></trkpt><trkpt lat="43.18467093301014" lon="12.932081188463128"><ele>450.0</ele><time>2026-04-26T10:33:17.998Z</time></trkpt><trkpt lat="43.18469638415095" lon="12.93224425720293"><ele>450.0</ele><time>2026-04-26T10:33:19.998Z</time></trkpt><trkpt lat="43.18471052149203" lon="12.932350444128593"><ele>450.0</ele><time>2026-04-26T10:33:20.998Z</time></trkpt><trkpt lat="43.18472295675548" lon="12.9324605059882"><ele>450.0</ele><time>2026-04-26T10:33:21.998Z</time></trkpt><trkpt lat="43.18473729508146" lon="12.932584901082384"><ele>450.0</ele><time>2026-04-26T10:33:22.998Z</time></trkpt><trkpt lat="43.18475368634065" lon="12.93272020890848"><ele>450.2</ele><time>2026-04-26T10:33:23.998Z</time></trkpt><trkpt lat="43.184774093293946" lon="12.932863068542536"><ele>450.4</ele><time>2026-04-26T10:33:24.998Z</time></trkpt><trkpt lat="43.184792542000054" lon="12.932999492230355"><ele>450.6</ele><time>2026-04-26T10:33:25.998Z</time></trkpt><trkpt lat="43.18480009072593" lon="12.933120378968205"><ele>450.8</ele><time>2026-04-26T10:33:26.998Z</time></trkpt><trkpt lat="43.184797727591146" lon="12.933222844019344"><ele>451.0</ele><time>2026-04-26T10:33:28Z</time></trkpt><trkpt lat="43.18479135669224" lon="12.933367021084052"><ele>451.0</ele><time>2026-04-26T10:33:30Z</time></trkpt><trkpt lat="43.18479305537633" lon="12.933460207731681"><ele>451.0</ele><time>2026-04-26T10:33:34Z</time></trkpt><trkpt lat="43.18484053652863" lon="12.933557568638431"><ele>451.0</ele><time>2026-04-26T10:34:36.999Z</time></trkpt><trkpt lat="43.18490353305488" lon="12.933580766301626"><ele>451.0</ele><time>2026-04-26T10:34:37.999Z</time></trkpt><trkpt lat="43.184967641132715" lon="12.933557307733935"><ele>451.0</ele><time>2026-04-26T10:34:38.999Z</time></trkpt><trkpt lat="43.18503801639765" lon="12.933562530659765"><ele>451.0</ele><time>2026-04-26T10:34:39.999Z</time></trkpt><trkpt lat="43.18511231519401" lon="12.933531201174187"><ele>451.0</ele><time>2026-04-26T10:34:40.999Z</time></trkpt><trkpt lat="43.1851876890265" lon="12.933488576753177"><ele>450.6</ele><time>2026-04-26T10:34:41.999Z</time></trkpt><trkpt lat="43.18526561324663" lon="12.933445809276922"><ele>450.20000000000005</ele><time>2026-04-26T10:34:42.999Z</time></trkpt><trkpt lat="43.185350971261826" lon="12.933402084574345"><ele>449.79999999999995</ele><time>2026-04-26T10:34:43.999Z</time></trkpt><trkpt lat="43.18543637863459" lon="12.933358357887519"><ele>449.4</ele><time>2026-04-26T10:34:44.999Z</time></trkpt><trkpt lat="43.18553106660018" lon="12.93331127731462"><ele>449.0</ele><time>2026-04-26T10:34:45.999Z</time></trkpt><trkpt lat="43.18562475456152" lon="12.933265889583483"><ele>449.2</ele><time>2026-04-26T10:34:46.999Z</time></trkpt><trkpt lat="43.18572218683745" lon="12.933222881257514"><ele>449.4</ele><time>2026-04-26T10:34:47.999Z</time></trkpt><trkpt lat="43.18582961050162" lon="12.933180584730463"><ele>449.6</ele><time>2026-04-26T10:34:48.999Z</time></trkpt><trkpt lat="43.18594172203175" lon="12.933138700386795"><ele>449.8</ele><time>2026-04-26T10:34:49.999Z</time></trkpt><trkpt lat="43.186054731500946" lon="12.933096807238057"><ele>450.0</ele><time>2026-04-26T10:34:50.999Z</time></trkpt><trkpt lat="43.18616685312298" lon="12.93306019693409"><ele>450.0</ele><time>2026-04-26T10:34:51.999Z</time></trkpt><trkpt lat="43.18627992205709" lon="12.933029223485171"><ele>450.0</ele><time>2026-04-26T10:34:52.999Z</time></trkpt><trkpt lat="43.186391839719086" lon="12.932999640689813"><ele>450.0</ele><time>2026-04-26T10:34:53.999Z</time></trkpt><trkpt lat="43.18649359861583" lon="12.93296955910464"><ele>450.0</ele><time>2026-04-26T10:34:54.999Z</time></trkpt><trkpt lat="43.1865847808017" lon="12.932941912731772"><ele>450.0</ele><time>2026-04-26T10:34:55.999Z</time></trkpt><trkpt lat="43.186666895783766" lon="12.932914051676638"><ele>450.2</ele><time>2026-04-26T10:34:56.999Z</time></trkpt><trkpt lat="43.18673526450346" lon="12.932884441664953"><ele>450.4</ele><time>2026-04-26T10:34:57.999Z</time></trkpt><trkpt lat="43.18682629264761" lon="12.932834435109378"><ele>450.6</ele><time>2026-04-26T10:34:59.999Z</time></trkpt><trkpt lat="43.186925599138284" lon="12.932919510723568"><ele>450.8</ele><time>2026-04-26T10:35:02.999Z</time></trkpt><trkpt lat="43.18700081139261" lon="12.93304406369906"><ele>451.0</ele><time>2026-04-26T10:35:04.998Z</time></trkpt><trkpt lat="43.18704269779049" lon="12.93316810027138"><ele>451.00000000000006</ele><time>2026-04-26T10:35:06.998Z</time></trkpt><trkpt lat="43.187086990152224" lon="12.933258571972624"><ele>451.0</ele><time>2026-04-26T10:35:09.998Z</time></trkpt><trkpt lat="43.18719176567803" lon="12.933189426509877"><ele>451.0</ele><time>2026-04-26T10:35:10.998Z</time></trkpt><trkpt lat="43.187242431904885" lon="12.933132345497995"><ele>451.0</ele><time>2026-04-26T10:35:11.998Z</time></trkpt><trkpt lat="43.187312748960935" lon="12.93308434588968"><ele>451.00000000000006</ele><time>2026-04-26T10:35:12.998Z</time></trkpt><trkpt lat="43.18738706557693" lon="12.933050037184474"><ele>451.0</ele><time>2026-04-26T10:35:13.998Z</time></trkpt><trkpt lat="43.18747987514201" lon="12.933023884138803"><ele>450.4</ele><time>2026-04-26T10:35:14.998Z</time></trkpt><trkpt lat="43.18757955650893" lon="12.93299992026164"><ele>449.8</ele><time>2026-04-26T10:35:15.998Z</time></trkpt><trkpt lat="43.18768448014255" lon="12.932981694149946"><ele>449.19999999999993</ele><time>2026-04-26T10:35:16.998Z</time></trkpt><trkpt lat="43.18779416320555" lon="12.932968886708405"><ele>448.59999999999997</ele><time>2026-04-26T10:35:17.998Z</time></trkpt><trkpt lat="43.18790886741715" lon="12.932962542833708"><ele>448.0</ele><time>2026-04-26T10:35:18.998Z</time></trkpt><trkpt lat="43.188029986519304" lon="12.932958683630009"><ele>448.0</ele><time>2026-04-26T10:35:19.998Z</time></trkpt><trkpt lat="43.188154880711785" lon="12.932950765217457"><ele>448.0</ele><time>2026-04-26T10:35:20.998Z</time></trkpt><trkpt lat="43.18828720942329" lon="12.932940808910967"><ele>448.0</ele><time>2026-04-26T10:35:21.998Z</time></trkpt><trkpt lat="43.18842647718703" lon="12.932932159406125"><ele>448.0</ele><time>2026-04-26T10:35:22.998Z</time></trkpt><trkpt lat="43.18857251266306" lon="12.932925577248662"><ele>449.33333333333337</ele><time>2026-04-26T10:35:23.998Z</time></trkpt><trkpt lat="43.18872630295194" lon="12.932922499368132"><ele>450.66666666666663</ele><time>2026-04-26T10:35:24.998Z</time></trkpt><trkpt lat="43.18888694491011" lon="12.932916308806972"><ele>452.0</ele><time>2026-04-26T10:35:25.998Z</time></trkpt><trkpt lat="43.189048718475156" lon="12.93291694447845"><ele>452.0</ele><time>2026-04-26T10:35:26.998Z</time></trkpt><trkpt lat="43.189215144868236" lon="12.932930915679155"><ele>452.0</ele><time>2026-04-26T10:35:27.998Z</time></trkpt><trkpt lat="43.189379351908066" lon="12.93294310660829"><ele>452.0</ele><time>2026-04-26T10:35:28.998Z</time></trkpt><trkpt lat="43.18954352262298" lon="12.932951311901801"><ele>452.0</ele><time>2026-04-26T10:35:29.998Z</time></trkpt><trkpt lat="43.18969498242811" lon="12.932957895443774"><ele>452.0</ele><time>2026-04-26T10:35:30.998Z</time></trkpt><trkpt lat="43.18983487440057" lon="12.932965738295843"><ele>452.0</ele><time>2026-04-26T10:35:31.998Z</time></trkpt><trkpt lat="43.18996204512941" lon="12.932971566245044"><ele>452.0</ele><time>2026-04-26T10:35:32.998Z</time></trkpt><trkpt lat="43.190074462042276" lon="12.932977508783269"><ele>452.25</ele><time>2026-04-26T10:35:34Z</time></trkpt><trkpt lat="43.190154174574744" lon="12.932973539606314"><ele>452.5</ele><time>2026-04-26T10:35:35Z</time></trkpt><trkpt lat="43.19025282283734" lon="12.932967166275949"><ele>452.75</ele><time>2026-04-26T10:35:37Z</time></trkpt><trkpt lat="43.1902765545549" lon="12.932763226495645"><ele>453.0</ele><time>2026-04-26T10:35:38Z</time></trkpt><trkpt lat="43.1903509098225" lon="12.93263032680518"><ele>453.0</ele><time>2026-04-26T10:35:40Z</time></trkpt><trkpt lat="43.19040406470452" lon="12.93258247726902"><ele>452.99999999999994</ele><time>2026-04-26T10:35:42Z</time></trkpt><trkpt lat="43.190473888834184" lon="12.932680663451233"><ele>452.99999999999994</ele><time>2026-04-26T10:35:44Z</time></trkpt><trkpt lat="43.19055086086564" lon="12.932812326356476"><ele>453.0</ele><time>2026-04-26T10:35:46Z</time></trkpt><trkpt lat="43.190608973691454" lon="12.932950242075798"><ele>453.0</ele><time>2026-04-26T10:35:48Z</time></trkpt><trkpt lat="43.19066481886496" lon="12.933035160793256"><ele>454.0</ele><time>2026-04-26T10:35:50Z</time></trkpt><trkpt lat="43.190832593320934" lon="12.93292652782206"><ele>455.0</ele><time>2026-04-26T10:35:51Z</time></trkpt><trkpt lat="43.190918018792736" lon="12.932898635440086"><ele>456.0</ele><time>2026-04-26T10:35:52Z</time></trkpt><trkpt lat="43.19101443527537" lon="12.932866865483255"><ele>457.0</ele><time>2026-04-26T10:35:53Z</time></trkpt><trkpt lat="43.19112109491617" lon="12.9328341747812"><ele>457.0</ele><time>2026-04-26T10:35:54Z</time></trkpt><trkpt lat="43.19124098981414" lon="12.932798586040933"><ele>457.0</ele><time>2026-04-26T10:35:55Z</time></trkpt><trkpt lat="43.19137385217259" lon="12.932758648754362"><ele>457.0</ele><time>2026-04-26T10:35:56Z</time></trkpt><trkpt lat="43.191504002714936" lon="12.932706385238705"><ele>457.0</ele><time>2026-04-26T10:35:57Z</time></trkpt><trkpt lat="43.191642066814666" lon="12.932636579541782"><ele>457.33333333333337</ele><time>2026-04-26T10:35:58Z</time></trkpt><trkpt lat="43.19179106712658" lon="12.932571678133202"><ele>457.66666666666663</ele><time>2026-04-26T10:35:59Z</time></trkpt><trkpt lat="43.19193547699692" lon="12.932471050595113"><ele>458.0</ele><time>2026-04-26T10:36:00Z</time></trkpt><trkpt lat="43.19207732088348" lon="12.932350526224349"><ele>458.0</ele><time>2026-04-26T10:36:01Z</time></trkpt><trkpt lat="43.192228442783026" lon="12.932271613473024"><ele>458.0</ele><time>2026-04-26T10:36:01.999Z</time></trkpt><trkpt lat="43.19238743846161" lon="12.93224479229937"><ele>458.0</ele><time>2026-04-26T10:36:02.999Z</time></trkpt><trkpt lat="43.192538258585834" lon="12.932305040463694"><ele>459.0</ele><time>2026-04-26T10:36:03.999Z</time></trkpt><trkpt lat="43.19268845690405" lon="12.932366382997278"><ele>460.0</ele><time>2026-04-26T10:36:04.999Z</time></trkpt><trkpt lat="43.19282946444471" lon="12.932465388518272"><ele>461.0</ele><time>2026-04-26T10:36:05.999Z</time></trkpt><trkpt lat="43.192972607791106" lon="12.93256149418388"><ele>464.3333333333333</ele><time>2026-04-26T10:36:06.999Z</time></trkpt><trkpt lat="43.19312618964064" lon="12.932631636826278"><ele>467.66666666666663</ele><time>2026-04-26T10:36:07.999Z</time></trkpt><trkpt lat="43.193289777740425" lon="12.932671249357332"><ele>471.0</ele><time>2026-04-26T10:36:08.999Z</time></trkpt><trkpt lat="43.1934576901886" lon="12.932705151239178"><ele>472.33333333333337</ele><time>2026-04-26T10:36:09.999Z</time></trkpt><trkpt lat="43.19363278014602" lon="12.932675104105524"><ele>473.6666666666667</ele><time>2026-04-26T10:36:10.999Z</time></trkpt><trkpt lat="43.19381278614937" lon="12.932658814177467"><ele>475.0</ele><time>2026-04-26T10:36:11.999Z</time></trkpt><trkpt lat="43.19399599649463" lon="12.932641617704336"><ele>475.6666666666667</ele><time>2026-04-26T10:36:12.999Z</time></trkpt><trkpt lat="43.1941827014245" lon="12.93262151887122"><ele>476.33333333333337</ele><time>2026-04-26T10:36:13.999Z</time></trkpt><trkpt lat="43.194375165499814" lon="12.932601387951413"><ele>477.0</ele><time>2026-04-26T10:36:14.999Z</time></trkpt><trkpt lat="43.19455634324662" lon="12.932571479898572"><ele>475.33333333333337</ele><time>2026-04-26T10:36:15.999Z</time></trkpt><trkpt lat="43.19472204042701" lon="12.932515842085902"><ele>473.6666666666667</ele><time>2026-04-26T10:36:16.999Z</time></trkpt><trkpt lat="43.19486800922474" lon="12.932436602019896"><ele>472.0</ele><time>2026-04-26T10:36:17.999Z</time></trkpt><trkpt lat="43.19499638807848" lon="12.932352907529472"><ele>472.0</ele><time>2026-04-26T10:36:18.999Z</time></trkpt><trkpt lat="43.19511835603214" lon="12.932275780905453"><ele>472.0</ele><time>2026-04-26T10:36:19.999Z</time></trkpt><trkpt lat="43.195231877059086" lon="12.932207907493185"><ele>472.0</ele><time>2026-04-26T10:36:20.999Z</time></trkpt><trkpt lat="43.1953422147757" lon="12.93214294883913"><ele>472.0</ele><time>2026-04-26T10:36:21.999Z</time></trkpt><trkpt lat="43.195461890564516" lon="12.932076324458366"><ele>472.0</ele><time>2026-04-26T10:36:22.999Z</time></trkpt><trkpt lat="43.19560411947627" lon="12.932045054506885"><ele>472.0</ele><time>2026-04-26T10:36:23.999Z</time></trkpt><trkpt lat="43.19576288608505" lon="12.932016375740139"><ele>472.0</ele><time>2026-04-26T10:36:24.999Z</time></trkpt><trkpt lat="43.19594392858682" lon="12.931985013541182"><ele>477.0</ele><time>2026-04-26T10:36:25.999Z</time></trkpt><trkpt lat="43.19613454629968" lon="12.931936601174625"><ele>482.0</ele><time>2026-04-26T10:36:26.999Z</time></trkpt><trkpt lat="43.19631204131905" lon="12.931855451795993"><ele>487.0</ele><time>2026-04-26T10:36:27.999Z</time></trkpt><trkpt lat="43.19648177480163" lon="12.931749221323347"><ele>486.6666666666667</ele><time>2026-04-26T10:36:28.999Z</time></trkpt><trkpt lat="43.196638974876066" lon="12.931629651714756"><ele>486.33333333333337</ele><time>2026-04-26T10:36:29.999Z</time></trkpt><trkpt lat="43.19680078750176" lon="12.931547642740968"><ele>486.0</ele><time>2026-04-26T10:36:30.999Z</time></trkpt><trkpt lat="43.196967505757364" lon="12.931514531269015"><ele>486.0</ele><time>2026-04-26T10:36:31.999Z</time></trkpt><trkpt lat="43.19713254130518" lon="12.931454759627865"><ele>486.0</ele><time>2026-04-26T10:36:32.999Z</time></trkpt><trkpt lat="43.19729965563236" lon="12.931415014841752"><ele>486.0</ele><time>2026-04-26T10:36:33.999Z</time></trkpt><trkpt lat="43.19746669847443" lon="12.931354283275786"><ele>491.66666666666663</ele><time>2026-04-26T10:36:34.999Z</time></trkpt><trkpt lat="43.197630565960644" lon="12.931275024809807"><ele>497.3333333333333</ele><time>2026-04-26T10:36:35.999Z</time></trkpt><trkpt lat="43.197794308582466" lon="12.93119254358252"><ele>503.0</ele><time>2026-04-26T10:36:36.999Z</time></trkpt><trkpt lat="43.197956810532425" lon="12.931103801704307"><ele>503.0</ele><time>2026-04-26T10:36:37.999Z</time></trkpt><trkpt lat="43.19810954430355" lon="12.930985474529406"><ele>503.0</ele><time>2026-04-26T10:36:38.999Z</time></trkpt><trkpt lat="43.1982605518211" lon="12.93085623468264"><ele>503.0</ele><time>2026-04-26T10:36:39.999Z</time></trkpt><trkpt lat="43.198373451218025" lon="12.930678502055247"><ele>503.3333333333333</ele><time>2026-04-26T10:36:40.999Z</time></trkpt><trkpt lat="43.198450095490685" lon="12.930477696594584"><ele>503.66666666666663</ele><time>2026-04-26T10:36:41.999Z</time></trkpt><trkpt lat="43.19852248831125" lon="12.930309161453915"><ele>504.0</ele><time>2026-04-26T10:36:42.999Z</time></trkpt><trkpt lat="43.19861239271899" lon="12.930123586025305"><ele>500.33333333333337</ele><time>2026-04-26T10:36:43.999Z</time></trkpt><trkpt lat="43.19872632981636" lon="12.929984182022958"><ele>496.6666666666667</ele><time>2026-04-26T10:36:44.999Z</time></trkpt><trkpt lat="43.198852021919414" lon="12.929860494455454"><ele>493.0</ele><time>2026-04-26T10:36:45.999Z</time></trkpt><trkpt lat="43.19897703834483" lon="12.92973162405427"><ele>495.6666666666667</ele><time>2026-04-26T10:36:46.999Z</time></trkpt><trkpt lat="43.19909806668145" lon="12.929598028437761"><ele>498.33333333333337</ele><time>2026-04-26T10:36:47.999Z</time></trkpt><trkpt lat="43.19922243602907" lon="12.92946650682383"><ele>501.0</ele><time>2026-04-26T10:36:48.999Z</time></trkpt><trkpt lat="43.19933638921363" lon="12.929345453238849"><ele>501.0</ele><time>2026-04-26T10:36:49.999Z</time></trkpt><trkpt lat="43.19943637335116" lon="12.929221204342289"><ele>501.0</ele><time>2026-04-26T10:36:50.999Z</time></trkpt><trkpt lat="43.19950983112113" lon="12.929112060978243"><ele>501.0</ele><time>2026-04-26T10:36:51.999Z</time></trkpt><trkpt lat="43.19954905787478" lon="12.92902823118217"><ele>501.0</ele><time>2026-04-26T10:36:52.999Z</time></trkpt><trkpt lat="43.199606295601875" lon="12.928937422002631"><ele>501.0</ele><time>2026-04-26T10:36:54.999Z</time></trkpt><trkpt lat="43.199648328548754" lon="12.928807932418074"><ele>501.0</ele><time>2026-04-26T10:36:56.999Z</time></trkpt><trkpt lat="43.1997135157581" lon="12.928687614653535"><ele>501.0</ele><time>2026-04-26T10:36:58.999Z</time></trkpt><trkpt lat="43.199815992965746" lon="12.928572415937346"><ele>501.0</ele><time>2026-04-26T10:37:00.999Z</time></trkpt><trkpt lat="43.19987389972024" lon="12.9285010546211"><ele>501.0</ele><time>2026-04-26T10:37:01.999Z</time></trkpt><trkpt lat="43.19994039244743" lon="12.928429737126514"><ele>501.0</ele><time>2026-04-26T10:37:02.998Z</time></trkpt><trkpt lat="43.20000346623913" lon="12.928372728464566"><ele>501.5</ele><time>2026-04-26T10:37:03.998Z</time></trkpt><trkpt lat="43.200058452894815" lon="12.928324163813262"><ele>502.0</ele><time>2026-04-26T10:37:04.998Z</time></trkpt><trkpt lat="43.20014906568188" lon="12.928242622283886"><ele>502.5</ele><time>2026-04-26T10:37:06.998Z</time></trkpt><trkpt lat="43.20020252353646" lon="12.92819482716872"><ele>503.0</ele><time>2026-04-26T10:37:07.998Z</time></trkpt><trkpt lat="43.200263144705715" lon="12.928152952791184"><ele>503.5</ele><time>2026-04-26T10:37:08.998Z</time></trkpt><trkpt lat="43.20032887463106" lon="12.928130773152652"><ele>504.0</ele><time>2026-04-26T10:37:09.998Z</time></trkpt><trkpt lat="43.20040682031082" lon="12.928126240880792"><ele>504.0</ele><time>2026-04-26T10:37:10.998Z</time></trkpt><trkpt lat="43.20048422916679" lon="12.928138071396441"><ele>504.0</ele><time>2026-04-26T10:37:11.998Z</time></trkpt><trkpt lat="43.20056727209178" lon="12.928164673690851"><ele>504.0</ele><time>2026-04-26T10:37:12.998Z</time></trkpt><trkpt lat="43.20065864799726" lon="12.928198823999072"><ele>504.0</ele><time>2026-04-26T10:37:13.998Z</time></trkpt><trkpt lat="43.20075692861379" lon="12.928233938484416"><ele>504.0</ele><time>2026-04-26T10:37:14.998Z</time></trkpt><trkpt lat="43.20085553613794" lon="12.928268033940697"><ele>505.25</ele><time>2026-04-26T10:37:15.998Z</time></trkpt><trkpt lat="43.20095842807312" lon="12.928317505103754"><ele>506.5</ele><time>2026-04-26T10:37:16.998Z</time></trkpt><trkpt lat="43.20106763593169" lon="12.928368119752493"><ele>507.75</ele><time>2026-04-26T10:37:17.998Z</time></trkpt><trkpt lat="43.20117530381953" lon="12.928421211944901"><ele>509.0</ele><time>2026-04-26T10:37:18.998Z</time></trkpt><trkpt lat="43.201288903891786" lon="12.928466905421221"><ele>510.5</ele><time>2026-04-26T10:37:19.998Z</time></trkpt><trkpt lat="43.20141117454621" lon="12.92851554086065"><ele>512.0</ele><time>2026-04-26T10:37:20.998Z</time></trkpt><trkpt lat="43.2015419137813" lon="12.928568402212711"><ele>513.5</ele><time>2026-04-26T10:37:21.998Z</time></trkpt><trkpt lat="43.201680757797966" lon="12.928622430732895"><ele>515.0</ele><time>2026-04-26T10:37:22.998Z</time></trkpt><trkpt lat="43.2018315942861" lon="12.928677763765716"><ele>517.6666666666666</ele><time>2026-04-26T10:37:23.998Z</time></trkpt><trkpt lat="43.20199479740022" lon="12.928720415501301"><ele>520.3333333333334</ele><time>2026-04-26T10:37:24.998Z</time></trkpt><trkpt lat="43.202157014500294" lon="12.928755443931113"><ele>523.0</ele><time>2026-04-26T10:37:25.998Z</time></trkpt><trkpt lat="43.202320048831645" lon="12.928788286838186"><ele>524.6666666666667</ele><time>2026-04-26T10:37:26.998Z</time></trkpt><trkpt lat="43.202487379522665" lon="12.928826335533437"><ele>526.3333333333334</ele><time>2026-04-26T10:37:27.998Z</time></trkpt><trkpt lat="43.202656219360755" lon="12.92886143983194"><ele>528.0</ele><time>2026-04-26T10:37:28.998Z</time></trkpt><trkpt lat="43.202826286422884" lon="12.928892020531107"><ele>528.0</ele><time>2026-04-26T10:37:29.998Z</time></trkpt><trkpt lat="43.20297867673919" lon="12.928916464931708"><ele>528.0</ele><time>2026-04-26T10:37:30.998Z</time></trkpt><trkpt lat="43.20310867523107" lon="12.928945565795683"><ele>528.0</ele><time>2026-04-26T10:37:31.998Z</time></trkpt><trkpt lat="43.203218605709715" lon="12.928995090334205"><ele>528.0</ele><time>2026-04-26T10:37:32.998Z</time></trkpt><trkpt lat="43.203312852528256" lon="12.929077287685875"><ele>529.75</ele><time>2026-04-26T10:37:33.998Z</time></trkpt><trkpt lat="43.2033799208422" lon="12.929191509812371"><ele>531.5</ele><time>2026-04-26T10:37:34.998Z</time></trkpt><trkpt lat="43.20341923612227" lon="12.929338144984895"><ele>533.25</ele><time>2026-04-26T10:37:35.998Z</time></trkpt><trkpt lat="43.203440837015314" lon="12.92949870006685"><ele>535.0</ele><time>2026-04-26T10:37:36.998Z</time></trkpt><trkpt lat="43.20346080920788" lon="12.92966341764944"><ele>537.25</ele><time>2026-04-26T10:37:37.998Z</time></trkpt><trkpt lat="43.20348798501563" lon="12.929829386808091"><ele>539.5</ele><time>2026-04-26T10:37:38.998Z</time></trkpt><trkpt lat="43.2035203780375" lon="12.930002459013744"><ele>541.75</ele><time>2026-04-26T10:37:40Z</time></trkpt><trkpt lat="43.203549709128986" lon="12.930181059927866"><ele>544.0</ele><time>2026-04-26T10:37:41Z</time></trkpt><trkpt lat="43.20358048307284" lon="12.930363575449405"><ele>546.2</ele><time>2026-04-26T10:37:42Z</time></trkpt><trkpt lat="43.20361740037034" lon="12.930527602391901"><ele>548.4</ele><time>2026-04-26T10:37:43Z</time></trkpt><trkpt lat="43.20366099480371" lon="12.930675142200977"><ele>550.6</ele><time>2026-04-26T10:37:44Z</time></trkpt><trkpt lat="43.20369294667806" lon="12.93080830113978"><ele>552.8</ele><time>2026-04-26T10:37:45Z</time></trkpt><trkpt lat="43.20368484273396" lon="12.930923945014051"><ele>555.0</ele><time>2026-04-26T10:37:46Z</time></trkpt><trkpt lat="43.203626493916246" lon="12.931005291217625"><ele>555.0</ele><time>2026-04-26T10:37:47Z</time></trkpt><trkpt lat="43.20344023089843" lon="12.931040221467367"><ele>555.0</ele><time>2026-04-26T10:37:49Z</time></trkpt><trkpt lat="43.20334454497218" lon="12.931033176413505"><ele>555.0</ele><time>2026-04-26T10:37:50Z</time></trkpt><trkpt lat="43.20326461502323" lon="12.930956647492883"><ele>555.0</ele><time>2026-04-26T10:37:51Z</time></trkpt><trkpt lat="43.20319416866455" lon="12.930862067641161"><ele>556.4</ele><time>2026-04-26T10:37:52Z</time></trkpt><trkpt lat="43.20311528580904" lon="12.930766498019915"><ele>557.8</ele><time>2026-04-26T10:37:53Z</time></trkpt><trkpt lat="43.20305007903256" lon="12.93064765994903"><ele>559.2</ele><time>2026-04-26T10:37:54Z</time></trkpt><trkpt lat="43.202975271235026" lon="12.930531454320455"><ele>560.6</ele><time>2026-04-26T10:37:55Z</time></trkpt><trkpt lat="43.20289729340926" lon="12.93044587784195"><ele>562.0</ele><time>2026-04-26T10:37:56Z</time></trkpt><trkpt lat="43.20279972303194" lon="12.930395491362699"><ele>562.0</ele><time>2026-04-26T10:37:57Z</time></trkpt><trkpt lat="43.20268508949453" lon="12.930385165501935"><ele>562.0</ele><time>2026-04-26T10:37:58Z</time></trkpt><trkpt lat="43.20256256323457" lon="12.930403174597412"><ele>562.0</ele><time>2026-04-26T10:37:59Z</time></trkpt><trkpt lat="43.20243628237855" lon="12.930422508140499"><ele>562.0</ele><time>2026-04-26T10:38:00Z</time></trkpt><trkpt lat="43.20229794510272" lon="12.930437797397952"><ele>564.0</ele><time>2026-04-26T10:38:01Z</time></trkpt><trkpt lat="43.2021512941435" lon="12.930451376468236"><ele>566.0</ele><time>2026-04-26T10:38:02Z</time></trkpt><trkpt lat="43.20200164754606" lon="12.93046221845779"><ele>568.0</ele><time>2026-04-26T10:38:03Z</time></trkpt><trkpt lat="43.201842449435894" lon="12.930473769135276"><ele>568.0</ele><time>2026-04-26T10:38:03.999Z</time></trkpt><trkpt lat="43.20168440723157" lon="12.930486514902652"><ele>568.0</ele><time>2026-04-26T10:38:04.999Z</time></trkpt><trkpt lat="43.201525912156036" lon="12.930507393223557"><ele>568.0</ele><time>2026-04-26T10:38:05.999Z</time></trkpt><trkpt lat="43.20137130430535" lon="12.93055110704887"><ele>567.0</ele><time>2026-04-26T10:38:06.999Z</time></trkpt><trkpt lat="43.20122439709113" lon="12.930627626939687"><ele>566.0</ele><time>2026-04-26T10:38:07.999Z</time></trkpt><trkpt lat="43.20107790105517" lon="12.930713655437932"><ele>565.0</ele><time>2026-04-26T10:38:08.999Z</time></trkpt><trkpt lat="43.2009282035872" lon="12.930795128957401"><ele>565.0</ele><time>2026-04-26T10:38:09.999Z</time></trkpt><trkpt lat="43.200776553946596" lon="12.930876152215049"><ele>565.0</ele><time>2026-04-26T10:38:10.999Z</time></trkpt><trkpt lat="43.20062755135281" lon="12.930965371363051"><ele>565.0</ele><time>2026-04-26T10:38:11.999Z</time></trkpt><trkpt lat="43.20048513305783" lon="12.931078622102177"><ele>569.6666666666667</ele><time>2026-04-26T10:38:12.999Z</time></trkpt><trkpt lat="43.20034695196197" lon="12.931205500834933"><ele>574.3333333333334</ele><time>2026-04-26T10:38:13.999Z</time></trkpt><trkpt lat="43.20021143479924" lon="12.931336646053213"><ele>579.0</ele><time>2026-04-26T10:38:14.999Z</time></trkpt><trkpt lat="43.20007353056925" lon="12.931472933334598"><ele>579.0</ele><time>2026-04-26T10:38:15.999Z</time></trkpt><trkpt lat="43.19993504154381" lon="12.931612358537548"><ele>579.0</ele><time>2026-04-26T10:38:16.999Z</time></trkpt><trkpt lat="43.199797519759485" lon="12.931756822431188"><ele>579.0</ele><time>2026-04-26T10:38:17.999Z</time></trkpt><trkpt lat="43.19965851964731" lon="12.931917580143779"><ele>579.3333333333334</ele><time>2026-04-26T10:38:18.999Z</time></trkpt><trkpt lat="43.19951819398461" lon="12.93208798974938"><ele>579.6666666666667</ele><time>2026-04-26T10:38:19.999Z</time></trkpt><trkpt lat="43.199374066210645" lon="12.932268472050165"><ele>580.0</ele><time>2026-04-26T10:38:20.999Z</time></trkpt><trkpt lat="43.199233136359524" lon="12.932450700097935"><ele>581.3333333333334</ele><time>2026-04-26T10:38:21.999Z</time></trkpt><trkpt lat="43.199089132133814" lon="12.932639099223886"><ele>582.6666666666666</ele><time>2026-04-26T10:38:22.999Z</time></trkpt><trkpt lat="43.19893916210562" lon="12.93283053153035"><ele>584.0</ele><time>2026-04-26T10:38:23.999Z</time></trkpt><trkpt lat="43.19878418817095" lon="12.933017847340825"><ele>584.0</ele><time>2026-04-26T10:38:24.999Z</time></trkpt><trkpt lat="43.198621943759036" lon="12.933192308121239"><ele>584.0</ele><time>2026-04-26T10:38:25.999Z</time></trkpt><trkpt lat="43.198455499933615" lon="12.933359322418651"><ele>584.0</ele><time>2026-04-26T10:38:26.999Z</time></trkpt><trkpt lat="43.198307434474586" lon="12.933509865916642"><ele>584.0</ele><time>2026-04-26T10:38:27.999Z</time></trkpt><trkpt lat="43.19818437729881" lon="12.93363895948779"><ele>584.0</ele><time>2026-04-26T10:38:28.999Z</time></trkpt><trkpt lat="43.198076052606865" lon="12.933753158138925"><ele>584.0</ele><time>2026-04-26T10:38:29.999Z</time></trkpt><trkpt lat="43.197976064376945" lon="12.93384896441375"><ele>584.0</ele><time>2026-04-26T10:38:30.999Z</time></trkpt><trkpt lat="43.19789423162839" lon="12.933924944670807"><ele>584.0</ele><time>2026-04-26T10:38:31.999Z</time></trkpt><trkpt lat="43.1976966833044" lon="12.934119003266153"><ele>584.0</ele><time>2026-04-26T10:38:32.999Z</time></trkpt><trkpt lat="43.19762010795306" lon="12.934178840420183"><ele>584.0</ele><time>2026-04-26T10:38:33.999Z</time></trkpt><trkpt lat="43.19754540074878" lon="12.934219645132123"><ele>584.0</ele><time>2026-04-26T10:38:34.999Z</time></trkpt><trkpt lat="43.197486291177036" lon="12.934253489507098"><ele>584.0</ele><time>2026-04-26T10:38:35.999Z</time></trkpt><trkpt lat="43.19746563545582" lon="12.93436307244271"><ele>584.0</ele><time>2026-04-26T10:38:37.999Z</time></trkpt><trkpt lat="43.19754415577175" lon="12.934451345702037"><ele>584.0</ele><time>2026-04-26T10:38:39.999Z</time></trkpt><trkpt lat="43.1976088051468" lon="12.934456176060815"><ele>584.0</ele><time>2026-04-26T10:38:40.999Z</time></trkpt><trkpt lat="43.19768345588857" lon="12.934406177760888"><ele>584.0</ele><time>2026-04-26T10:38:41.999Z</time></trkpt><trkpt lat="43.197754870405426" lon="12.934315024679956"><ele>584.0</ele><time>2026-04-26T10:38:42.999Z</time></trkpt><trkpt lat="43.19782679430245" lon="12.934208999458413"><ele>584.0</ele><time>2026-04-26T10:38:43.999Z</time></trkpt><trkpt lat="43.19791574911635" lon="12.934132531814651"><ele>584.0</ele><time>2026-04-26T10:38:44.999Z</time></trkpt><trkpt lat="43.1980276778869" lon="12.934115056008022"><ele>584.0</ele><time>2026-04-26T10:38:45.999Z</time></trkpt><trkpt lat="43.198128781671755" lon="12.93405831394507"><ele>584.0</ele><time>2026-04-26T10:38:46.999Z</time></trkpt><trkpt lat="43.198239994990125" lon="12.934016885332804"><ele>584.0</ele><time>2026-04-26T10:38:47.999Z</time></trkpt><trkpt lat="43.19835234887898" lon="12.933957321813422"><ele>592.0</ele><time>2026-04-26T10:38:48.999Z</time></trkpt><trkpt lat="43.198470230543876" lon="12.933903706955903"><ele>600.0</ele><time>2026-04-26T10:38:49.999Z</time></trkpt><trkpt lat="43.198593182327336" lon="12.93385402791475"><ele>608.0</ele><time>2026-04-26T10:38:50.999Z</time></trkpt><trkpt lat="43.19872916175532" lon="12.933795431739608"><ele>616.0</ele><time>2026-04-26T10:38:51.999Z</time></trkpt><trkpt lat="43.198873535687554" lon="12.93375571018334"><ele>623.6666666666667</ele><time>2026-04-26T10:38:52.999Z</time></trkpt><trkpt lat="43.199020850977604" lon="12.933691677367076"><ele>631.3333333333334</ele><time>2026-04-26T10:38:53.999Z</time></trkpt><trkpt lat="43.1991662840042" lon="12.933605500303678"><ele>639.0</ele><time>2026-04-26T10:38:54.999Z</time></trkpt><trkpt lat="43.199318000653726" lon="12.933538350167645"><ele>639.0</ele><time>2026-04-26T10:38:55.999Z</time></trkpt><trkpt lat="43.19947413919156" lon="12.933467311780854"><ele>639.0</ele><time>2026-04-26T10:38:56.999Z</time></trkpt><trkpt lat="43.1996165902821" lon="12.933378224740887"><ele>639.0</ele><time>2026-04-26T10:38:57.999Z</time></trkpt><trkpt lat="43.199761032558094" lon="12.933282704585238"><ele>636.0</ele><time>2026-04-26T10:38:58.999Z</time></trkpt><trkpt lat="43.19990827368022" lon="12.933189442930102"><ele>633.0</ele><time>2026-04-26T10:38:59.999Z</time></trkpt><trkpt lat="43.20005351466515" lon="12.933106375846512"><ele>630.0</ele><time>2026-04-26T10:39:00.999Z</time></trkpt><trkpt lat="43.20019280950389" lon="12.933022233901928"><ele>630.0</ele><time>2026-04-26T10:39:01.999Z</time></trkpt><trkpt lat="43.20033451554896" lon="12.932973535772664"><ele>630.0</ele><time>2026-04-26T10:39:02.998Z</time></trkpt><trkpt lat="43.20047511881632" lon="12.932922438013563"><ele>630.0</ele><time>2026-04-26T10:39:03.998Z</time></trkpt><trkpt lat="43.20062120362318" lon="12.93288553578454"><ele>630.0</ele><time>2026-04-26T10:39:04.998Z</time></trkpt><trkpt lat="43.200773229625185" lon="12.93285494014227"><ele>633.75</ele><time>2026-04-26T10:39:05.998Z</time></trkpt><trkpt lat="43.20090706863257" lon="12.9328429636413"><ele>637.5</ele><time>2026-04-26T10:39:06.998Z</time></trkpt><trkpt lat="43.20103141407505" lon="12.93285419685951"><ele>641.25</ele><time>2026-04-26T10:39:07.998Z</time></trkpt><trkpt lat="43.20115406034542" lon="12.932903957842646"><ele>645.0</ele><time>2026-04-26T10:39:08.998Z</time></trkpt><trkpt lat="43.20127706482123" lon="12.932982142205821"><ele>645.0</ele><time>2026-04-26T10:39:09.998Z</time></trkpt><trkpt lat="43.2014007254459" lon="12.933059471698481"><ele>645.0</ele><time>2026-04-26T10:39:10.998Z</time></trkpt><trkpt lat="43.20150302169612" lon="12.933175585469462"><ele>645.0</ele><time>2026-04-26T10:39:11.998Z</time></trkpt><trkpt lat="43.201585561509944" lon="12.933311151256992"><ele>645.0</ele><time>2026-04-26T10:39:12.998Z</time></trkpt><trkpt lat="43.201649182877766" lon="12.933462550311493"><ele>647.75</ele><time>2026-04-26T10:39:13.998Z</time></trkpt><trkpt lat="43.20169668950374" lon="12.933621300651764"><ele>650.5</ele><time>2026-04-26T10:39:14.999Z</time></trkpt><trkpt lat="43.20173826205537" lon="12.933788525634595"><ele>653.25</ele><time>2026-04-26T10:39:15.999Z</time></trkpt><trkpt lat="43.201772377333" lon="12.933963678785585"><ele>656.0</ele><time>2026-04-26T10:39:16.999Z</time></trkpt><trkpt lat="43.201797247942956" lon="12.93413978172526"><ele>658.0</ele><time>2026-04-26T10:39:17.999Z</time></trkpt><trkpt lat="43.20182367986789" lon="12.934300552326109"><ele>660.0</ele><time>2026-04-26T10:39:18.999Z</time></trkpt><trkpt lat="43.20184909820031" lon="12.934438105298856"><ele>662.0</ele><time>2026-04-26T10:39:19.999Z</time></trkpt><trkpt lat="43.201862274873754" lon="12.934563331344297"><ele>664.0</ele><time>2026-04-26T10:39:20.999Z</time></trkpt><trkpt lat="43.201855240918924" lon="12.934697034289401"><ele>666.0</ele><time>2026-04-26T10:39:21.999Z</time></trkpt><trkpt lat="43.201815819716465" lon="12.934828587729259"><ele>666.0</ele><time>2026-04-26T10:39:22.999Z</time></trkpt><trkpt lat="43.20177150581053" lon="12.934965322386622"><ele>666.0</ele><time>2026-04-26T10:39:23.999Z</time></trkpt><trkpt lat="43.20171510081462" lon="12.935099093117463"><ele>666.0</ele><time>2026-04-26T10:39:24.999Z</time></trkpt><trkpt lat="43.20163592735413" lon="12.935220417549743"><ele>666.0</ele><time>2026-04-26T10:39:25.999Z</time></trkpt><trkpt lat="43.201563787685544" lon="12.935352509636528"><ele>667.5</ele><time>2026-04-26T10:39:26.999Z</time></trkpt><trkpt lat="43.201518199438" lon="12.935504076030584"><ele>669.0</ele><time>2026-04-26T10:39:27.999Z</time></trkpt><trkpt lat="43.20152248977833" lon="12.935669825976559"><ele>670.5</ele><time>2026-04-26T10:39:28.999Z</time></trkpt><trkpt lat="43.201573772815706" lon="12.93583019384638"><ele>672.0</ele><time>2026-04-26T10:39:29.999Z</time></trkpt><trkpt lat="43.201642796401906" lon="12.935984346163472"><ele>677.3333333333334</ele><time>2026-04-26T10:39:30.999Z</time></trkpt><trkpt lat="43.201710544860426" lon="12.936153210270165"><ele>682.6666666666667</ele><time>2026-04-26T10:39:31.999Z</time></trkpt><trkpt lat="43.20177715037716" lon="12.936344349134078"><ele>688.0</ele><time>2026-04-26T10:39:32.999Z</time></trkpt><trkpt lat="43.2018349926244" lon="12.936542121568207"><ele>696.3333333333334</ele><time>2026-04-26T10:39:33.999Z</time></trkpt><trkpt lat="43.2019045142674" lon="12.936741074426731"><ele>704.6666666666666</ele><time>2026-04-26T10:39:34.999Z</time></trkpt><trkpt lat="43.20199737067897" lon="12.936926796480469"><ele>713.0</ele><time>2026-04-26T10:39:35.999Z</time></trkpt><trkpt lat="43.202098312146205" lon="12.937104458896314"><ele>713.0</ele><time>2026-04-26T10:39:36.999Z</time></trkpt><trkpt lat="43.202207518848496" lon="12.937280277124792"><ele>713.0</ele><time>2026-04-26T10:39:37.999Z</time></trkpt><trkpt lat="43.20232334408337" lon="12.937446858760879"><ele>713.0</ele><time>2026-04-26T10:39:38.999Z</time></trkpt><trkpt lat="43.20245374541329" lon="12.937600752669498"><ele>711.0</ele><time>2026-04-26T10:39:39.999Z</time></trkpt><trkpt lat="43.20259433363958" lon="12.93773645304694"><ele>709.0</ele><time>2026-04-26T10:39:40.999Z</time></trkpt><trkpt lat="43.202741919781126" lon="12.937851183096894"><ele>707.0</ele><time>2026-04-26T10:39:41.999Z</time></trkpt><trkpt lat="43.202892659834006" lon="12.937952979925525"><ele>707.0</ele><time>2026-04-26T10:39:42.999Z</time></trkpt><trkpt lat="43.20304425560914" lon="12.938056960464408"><ele>707.0</ele><time>2026-04-26T10:39:43.999Z</time></trkpt><trkpt lat="43.20318553304353" lon="12.938160826247362"><ele>707.0</ele><time>2026-04-26T10:39:45.001Z</time></trkpt><trkpt lat="43.2033069418841" lon="12.938246759867175"><ele>703.25</ele><time>2026-04-26T10:39:46.001Z</time></trkpt><trkpt lat="43.20341952878752" lon="12.938310596578768"><ele>699.5</ele><time>2026-04-26T10:39:47.001Z</time></trkpt><trkpt lat="43.203529627289946" lon="12.938338245731"><ele>695.75</ele><time>2026-04-26T10:39:48.001Z</time></trkpt><trkpt lat="43.203640151502675" lon="12.938307483087883"><ele>692.0</ele><time>2026-04-26T10:39:49.001Z</time></trkpt><trkpt lat="43.20374745430498" lon="12.938247116685114"><ele>692.0</ele><time>2026-04-26T10:39:50.001Z</time></trkpt><trkpt lat="43.20385061321473" lon="12.938184951419405"><ele>692.0</ele><time>2026-04-26T10:39:51.001Z</time></trkpt><trkpt lat="43.20394937381109" lon="12.93811351437152"><ele>692.0</ele><time>2026-04-26T10:39:52.001Z</time></trkpt><trkpt lat="43.20404083613801" lon="12.938025807144928"><ele>692.0</ele><time>2026-04-26T10:39:53.001Z</time></trkpt><trkpt lat="43.20412411677527" lon="12.937917688211945"><ele>690.75</ele><time>2026-04-26T10:39:54.001Z</time></trkpt><trkpt lat="43.20419314901689" lon="12.937783750280204"><ele>689.5</ele><time>2026-04-26T10:39:55.001Z</time></trkpt><trkpt lat="43.20427394068038" lon="12.93765553317059"><ele>688.25</ele><time>2026-04-26T10:39:56.001Z</time></trkpt><trkpt lat="43.20435428269745" lon="12.937523391100802"><ele>687.0</ele><time>2026-04-26T10:39:57.001Z</time></trkpt><trkpt lat="43.20444936701944" lon="12.93740687304873"><ele>687.0</ele><time>2026-04-26T10:39:58.001Z</time></trkpt><trkpt lat="43.20454087560772" lon="12.937274950703678"><ele>687.0</ele><time>2026-04-26T10:39:59.001Z</time></trkpt><trkpt lat="43.20465022860458" lon="12.93717668135124"><ele>687.0</ele><time>2026-04-26T10:40:00.001Z</time></trkpt><trkpt lat="43.20474518399455" lon="12.937065255164196"><ele>687.0</ele><time>2026-04-26T10:40:01Z</time></trkpt><trkpt lat="43.204838696544066" lon="12.936964485983575"><ele>689.5</ele><time>2026-04-26T10:40:02Z</time></trkpt><trkpt lat="43.204934414965194" lon="12.93687551322723"><ele>692.0</ele><time>2026-04-26T10:40:03Z</time></trkpt><trkpt lat="43.20503208590216" lon="12.936790415907387"><ele>694.5</ele><time>2026-04-26T10:40:04Z</time></trkpt><trkpt lat="43.205133632905536" lon="12.93670927346331"><ele>697.0</ele><time>2026-04-26T10:40:05Z</time></trkpt><trkpt lat="43.20523907335184" lon="12.936638148435057"><ele>697.0</ele><time>2026-04-26T10:40:06Z</time></trkpt><trkpt lat="43.2053479210794" lon="12.936578648532713"><ele>697.0</ele><time>2026-04-26T10:40:07Z</time></trkpt><trkpt lat="43.205453940878286" lon="12.93653405483927"><ele>697.0</ele><time>2026-04-26T10:40:08Z</time></trkpt><trkpt lat="43.20556215152762" lon="12.936493818719297"><ele>697.0</ele><time>2026-04-26T10:40:09Z</time></trkpt><trkpt lat="43.2056703951833" lon="12.93650229836046"><ele>697.0</ele><time>2026-04-26T10:40:10Z</time></trkpt><trkpt lat="43.20576344652465" lon="12.936473028128676"><ele>699.4000000000001</ele><time>2026-04-26T10:40:11Z</time></trkpt><trkpt lat="43.205846415049685" lon="12.936405541007177"><ele>701.8000000000001</ele><time>2026-04-26T10:40:12Z</time></trkpt><trkpt lat="43.20586106540824" lon="12.93624266226781"><ele>704.2</ele><time>2026-04-26T10:40:13Z</time></trkpt><trkpt lat="43.205855580400076" lon="12.936101815650115"><ele>706.6</ele><time>2026-04-26T10:40:14Z</time></trkpt><trkpt lat="43.20587439277237" lon="12.93596692164964"><ele>709.0</ele><time>2026-04-26T10:40:15Z</time></trkpt><trkpt lat="43.205898439125725" lon="12.935841634261498"><ele>709.0</ele><time>2026-04-26T10:40:16Z</time></trkpt><trkpt lat="43.205946563707556" lon="12.935727793898572"><ele>709.0</ele><time>2026-04-26T10:40:17Z</time></trkpt><trkpt lat="43.20601203683123" lon="12.935628380634263"><ele>709.0</ele><time>2026-04-26T10:40:18Z</time></trkpt><trkpt lat="43.20609556876645" lon="12.93555666673453"><ele>709.0</ele><time>2026-04-26T10:40:19Z</time></trkpt><trkpt lat="43.2061921838216" lon="12.935512522808686"><ele>709.0</ele><time>2026-04-26T10:40:20Z</time></trkpt><trkpt lat="43.20628721968768" lon="12.935469762063148"><ele>709.0</ele><time>2026-04-26T10:40:21Z</time></trkpt><trkpt lat="43.20638189474227" lon="12.935412931921194"><ele>709.0</ele><time>2026-04-26T10:40:22Z</time></trkpt><trkpt lat="43.20648116295886" lon="12.935368205534356"><ele>709.0</ele><time>2026-04-26T10:40:23Z</time></trkpt><trkpt lat="43.206578504076546" lon="12.935329044103732"><ele>709.0</ele><time>2026-04-26T10:40:24Z</time></trkpt><trkpt lat="43.20667794366201" lon="12.935303514249478"><ele>709.0</ele><time>2026-04-26T10:40:25Z</time></trkpt><trkpt lat="43.20677422522113" lon="12.935286626715586"><ele>715.4000000000001</ele><time>2026-04-26T10:40:26Z</time></trkpt><trkpt lat="43.2068755543147" lon="12.935275353549972"><ele>721.8</ele><time>2026-04-26T10:40:27Z</time></trkpt><trkpt lat="43.20698646397554" lon="12.935278710025907"><ele>728.2</ele><time>2026-04-26T10:40:28Z</time></trkpt><trkpt lat="43.20710294899288" lon="12.935273893016017"><ele>734.5999999999999</ele><time>2026-04-26T10:40:29Z</time></trkpt><trkpt lat="43.20722329799486" lon="12.935275792327218"><ele>741.0</ele><time>2026-04-26T10:40:30Z</time></trkpt><trkpt lat="43.207335737452894" lon="12.935271472688042"><ele>742.8</ele><time>2026-04-26T10:40:31Z</time></trkpt><trkpt lat="43.20743769656567" lon="12.9352585164007"><ele>744.5999999999999</ele><time>2026-04-26T10:40:32Z</time></trkpt><trkpt lat="43.207536509702564" lon="12.935274667331655"><ele>746.4</ele><time>2026-04-26T10:40:32.999Z</time></trkpt><trkpt lat="43.20762706821422" lon="12.935268021550291"><ele>748.2</ele><time>2026-04-26T10:40:33.999Z</time></trkpt><trkpt lat="43.20771903973181" lon="12.93524973729509"><ele>750.0</ele><time>2026-04-26T10:40:34.999Z</time></trkpt><trkpt lat="43.207807769791565" lon="12.935239772449226"><ele>750.0</ele><time>2026-04-26T10:40:35.999Z</time></trkpt><trkpt lat="43.20789049086608" lon="12.935234594994636"><ele>750.0</ele><time>2026-04-26T10:40:36.999Z</time></trkpt><trkpt lat="43.20796898496139" lon="12.935234562287325"><ele>750.0</ele><time>2026-04-26T10:40:37.999Z</time></trkpt><trkpt lat="43.20804373409053" lon="12.935237652797792"><ele>750.0</ele><time>2026-04-26T10:40:38.999Z</time></trkpt><trkpt lat="43.2081287522448" lon="12.93524831435173"><ele>750.0</ele><time>2026-04-26T10:40:39.999Z</time></trkpt><trkpt lat="43.20822222577005" lon="12.935257978827362"><ele>750.0</ele><time>2026-04-26T10:40:40.999Z</time></trkpt><trkpt lat="43.20833233551209" lon="12.935263837769776"><ele>749.8</ele><time>2026-04-26T10:40:41.999Z</time></trkpt><trkpt lat="43.20844959567066" lon="12.935270706748696"><ele>749.6</ele><time>2026-04-26T10:40:42.999Z</time></trkpt><trkpt lat="43.2085564726837" lon="12.935302534267505"><ele>749.4000000000001</ele><time>2026-04-26T10:40:43.999Z</time></trkpt><trkpt lat="43.20866056530306" lon="12.935298559091063"><ele>749.2</ele><time>2026-04-26T10:40:44.999Z</time></trkpt><trkpt lat="43.20876073758658" lon="12.935315196013297"><ele>749.0</ele><time>2026-04-26T10:40:45.999Z</time></trkpt><trkpt lat="43.208856492268595" lon="12.935332636937147"><ele>749.0</ele><time>2026-04-26T10:40:46.999Z</time></trkpt><trkpt lat="43.20895167462623" lon="12.935355646978955"><ele>749.0</ele><time>2026-04-26T10:40:47.999Z</time></trkpt><trkpt lat="43.20904354865326" lon="12.935382917952602"><ele>749.0</ele><time>2026-04-26T10:40:48.999Z</time></trkpt><trkpt lat="43.209136889275015" lon="12.935406847354498"><ele>749.0</ele><time>2026-04-26T10:40:49.999Z</time></trkpt><trkpt lat="43.209232199556595" lon="12.935429516110213"><ele>749.0</ele><time>2026-04-26T10:40:50.999Z</time></trkpt><trkpt lat="43.209335764187934" lon="12.935457045794667"><ele>747.0</ele><time>2026-04-26T10:40:51.999Z</time></trkpt><trkpt lat="43.2094506737428" lon="12.935497841538554"><ele>745.0</ele><time>2026-04-26T10:40:52.999Z</time></trkpt><trkpt lat="43.20956497739255" lon="12.935554574861499"><ele>743.0</ele><time>2026-04-26T10:40:53.999Z</time></trkpt><trkpt lat="43.20968545341547" lon="12.935625954274217"><ele>741.0</ele><time>2026-04-26T10:40:54.999Z</time></trkpt><trkpt lat="43.20980924849562" lon="12.935693591099737"><ele>736.75</ele><time>2026-04-26T10:40:55.999Z</time></trkpt><trkpt lat="43.2099331759324" lon="12.935754429486456"><ele>732.5</ele><time>2026-04-26T10:40:56.999Z</time></trkpt><trkpt lat="43.210060360968356" lon="12.935800216575029"><ele>728.25</ele><time>2026-04-26T10:40:57.999Z</time></trkpt><trkpt lat="43.210187512777374" lon="12.935840287316411"><ele>724.0</ele><time>2026-04-26T10:40:58.999Z</time></trkpt><trkpt lat="43.2103103115861" lon="12.935886453873024"><ele>722.25</ele><time>2026-04-26T10:40:59.999Z</time></trkpt><trkpt lat="43.210434089459355" lon="12.935964841502262"><ele>720.5</ele><time>2026-04-26T10:41:00.999Z</time></trkpt><trkpt lat="43.21056089555282" lon="12.93605521848749"><ele>718.75</ele><time>2026-04-26T10:41:01.999Z</time></trkpt><trkpt lat="43.21069177307475" lon="12.9361478892167"><ele>717.0</ele><time>2026-04-26T10:41:02.999Z</time></trkpt><trkpt lat="43.21082355455364" lon="12.936235189027744"><ele>717.0</ele><time>2026-04-26T10:41:03.999Z</time></trkpt><trkpt lat="43.21094637715868" lon="12.936320336702485"><ele>717.0</ele><time>2026-04-26T10:41:04.999Z</time></trkpt><trkpt lat="43.21106060158042" lon="12.93640074592715"><ele>717.0</ele><time>2026-04-26T10:41:05.999Z</time></trkpt><trkpt lat="43.2111610407561" lon="12.936492878149702"><ele>717.0</ele><time>2026-04-26T10:41:06.999Z</time></trkpt><trkpt lat="43.211238304154904" lon="12.936594774450207"><ele>717.0</ele><time>2026-04-26T10:41:07.999Z</time></trkpt><trkpt lat="43.21127735465324" lon="12.936710546340704"><ele>717.0</ele><time>2026-04-26T10:41:08.999Z</time></trkpt><trkpt lat="43.2112774453786" lon="12.936837773502697"><ele>717.0</ele><time>2026-04-26T10:41:09.999Z</time></trkpt><trkpt lat="43.21125525274802" lon="12.936965986094076"><ele>717.0</ele><time>2026-04-26T10:41:10.999Z</time></trkpt><trkpt lat="43.21123315875007" lon="12.93711266550217"><ele>717.0</ele><time>2026-04-26T10:41:11.999Z</time></trkpt><trkpt lat="43.2112188057783" lon="12.937277834035829"><ele>719.25</ele><time>2026-04-26T10:41:12.999Z</time></trkpt><trkpt lat="43.21120803774246" lon="12.93745285072706"><ele>721.5</ele><time>2026-04-26T10:41:13.999Z</time></trkpt><trkpt lat="43.211195697604154" lon="12.937629456955927"><ele>723.75</ele><time>2026-04-26T10:41:14.999Z</time></trkpt><trkpt lat="43.21116665391962" lon="12.937819148895931"><ele>726.0</ele><time>2026-04-26T10:41:15.999Z</time></trkpt><trkpt lat="43.21113771225375" lon="12.938019279419171"><ele>726.0</ele><time>2026-04-26T10:41:16.999Z</time></trkpt><trkpt lat="43.2111097950378" lon="12.938229195957119"><ele>726.0</ele><time>2026-04-26T10:41:17.999Z</time></trkpt><trkpt lat="43.21108681170798" lon="12.938451940442642"><ele>726.0</ele><time>2026-04-26T10:41:18.999Z</time></trkpt><trkpt lat="43.21106385622805" lon="12.938690004815982"><ele>724.0</ele><time>2026-04-26T10:41:19.999Z</time></trkpt><trkpt lat="43.211044896985584" lon="12.938933478873322"><ele>722.0</ele><time>2026-04-26T10:41:20.999Z</time></trkpt><trkpt lat="43.21103963749909" lon="12.939170308666055"><ele>720.0</ele><time>2026-04-26T10:41:21.999Z</time></trkpt><trkpt lat="43.21103922947096" lon="12.939393852103"><ele>719.25</ele><time>2026-04-26T10:41:22.999Z</time></trkpt><trkpt lat="43.211047450156855" lon="12.939613111970445"><ele>718.5</ele><time>2026-04-26T10:41:23.999Z</time></trkpt><trkpt lat="43.211063783099355" lon="12.939817772570885"><ele>717.75</ele><time>2026-04-26T10:41:24.999Z</time></trkpt><trkpt lat="43.211086190059085" lon="12.939995600207885"><ele>717.0</ele><time>2026-04-26T10:41:25.999Z</time></trkpt><trkpt lat="43.21112099800227" lon="12.940146401861002"><ele>718.2</ele><time>2026-04-26T10:41:26.999Z</time></trkpt><trkpt lat="43.21117906517393" lon="12.940263557076369"><ele>719.4000000000001</ele><time>2026-04-26T10:41:27.999Z</time></trkpt><trkpt lat="43.211257474310436" lon="12.940344226564306"><ele>720.5999999999999</ele><time>2026-04-26T10:41:28.998Z</time></trkpt><trkpt lat="43.21135823407836" lon="12.940397709822367"><ele>721.8</ele><time>2026-04-26T10:41:29.998Z</time></trkpt><trkpt lat="43.211468459329176" lon="12.940452926801232"><ele>723.0</ele><time>2026-04-26T10:41:30.998Z</time></trkpt><trkpt lat="43.211579650709226" lon="12.940491565945955"><ele>717.4</ele><time>2026-04-26T10:41:31.998Z</time></trkpt><trkpt lat="43.21169291845716" lon="12.940501986597646"><ele>711.8</ele><time>2026-04-26T10:41:32.998Z</time></trkpt><trkpt lat="43.211796713765395" lon="12.940464825645142"><ele>706.2</ele><time>2026-04-26T10:41:33.998Z</time></trkpt><trkpt lat="43.21187770484264" lon="12.940370833295493"><ele>700.6</ele><time>2026-04-26T10:41:34.998Z</time></trkpt><trkpt lat="43.21193143763086" lon="12.940232767051741"><ele>695.0</ele><time>2026-04-26T10:41:35.998Z</time></trkpt><trkpt lat="43.21199794955305" lon="12.940105640729644"><ele>692.25</ele><time>2026-04-26T10:41:36.998Z</time></trkpt><trkpt lat="43.212050494399506" lon="12.939960412958696"><ele>689.5</ele><time>2026-04-26T10:41:37.998Z</time></trkpt><trkpt lat="43.21210902344101" lon="12.939796940156016"><ele>686.75</ele><time>2026-04-26T10:41:38.998Z</time></trkpt><trkpt lat="43.212166142138294" lon="12.93963994652995"><ele>684.0</ele><time>2026-04-26T10:41:39.998Z</time></trkpt><trkpt lat="43.21223232752453" lon="12.939417806123929"><ele>684.0</ele><time>2026-04-26T10:41:40.998Z</time></trkpt><trkpt lat="43.21231663079252" lon="12.939231059468872"><ele>684.0</ele><time>2026-04-26T10:41:41.998Z</time></trkpt><trkpt lat="43.21239262698599" lon="12.939025695255227"><ele>684.0</ele><time>2026-04-26T10:41:42.998Z</time></trkpt><trkpt lat="43.21247142747051" lon="12.938810125332099"><ele>684.6666666666666</ele><time>2026-04-26T10:41:43.998Z</time></trkpt><trkpt lat="43.21256993270777" lon="12.938592760486234"><ele>685.3333333333333</ele><time>2026-04-26T10:41:44.998Z</time></trkpt><trkpt lat="43.21266240559068" lon="12.93836310378327"><ele>686.0</ele><time>2026-04-26T10:41:45.998Z</time></trkpt><trkpt lat="43.21276239892123" lon="12.938127180780718"><ele>680.6666666666666</ele><time>2026-04-26T10:41:46.998Z</time></trkpt><trkpt lat="43.21285554184759" lon="12.937873820903706"><ele>675.3333333333334</ele><time>2026-04-26T10:41:47.998Z</time></trkpt><trkpt lat="43.21298280607513" lon="12.937639976898877"><ele>670.0</ele><time>2026-04-26T10:41:48.998Z</time></trkpt><trkpt lat="43.21309861676083" lon="12.9373922191862"><ele>672.3333333333334</ele><time>2026-04-26T10:41:49.998Z</time></trkpt><trkpt lat="43.21320773699491" lon="12.93714862274062"><ele>674.6666666666666</ele><time>2026-04-26T10:41:51Z</time></trkpt><trkpt lat="43.21330789599152" lon="12.936921976743958"><ele>677.0</ele><time>2026-04-26T10:41:52Z</time></trkpt><trkpt lat="43.213403700162445" lon="12.936705185116962"><ele>670.6666666666666</ele><time>2026-04-26T10:41:53Z</time></trkpt><trkpt lat="43.21347306900714" lon="12.936473586510447"><ele>664.3333333333334</ele><time>2026-04-26T10:41:54Z</time></trkpt><trkpt lat="43.213556987339906" lon="12.936269350439527"><ele>658.0</ele><time>2026-04-26T10:41:55Z</time></trkpt><trkpt lat="43.21364105884758" lon="12.93608608239437"><ele>658.0</ele><time>2026-04-26T10:41:56Z</time></trkpt><trkpt lat="43.21371148982682" lon="12.935922928493325"><ele>658.0</ele><time>2026-04-26T10:41:57Z</time></trkpt><trkpt lat="43.213791513089326" lon="12.935789303158625"><ele>658.0</ele><time>2026-04-26T10:41:58Z</time></trkpt><trkpt lat="43.213894940388194" lon="12.93570494834629"><ele>658.0</ele><time>2026-04-26T10:41:59Z</time></trkpt><trkpt lat="43.21401788793843" lon="12.935666102992274"><ele>657.0</ele><time>2026-04-26T10:42:00Z</time></trkpt><trkpt lat="43.214157068754915" lon="12.935644787990475"><ele>656.0</ele><time>2026-04-26T10:42:01Z</time></trkpt><trkpt lat="43.21430035877874" lon="12.935631223362186"><ele>655.0</ele><time>2026-04-26T10:42:02Z</time></trkpt><trkpt lat="43.21444264847132" lon="12.935646199022278"><ele>654.0</ele><time>2026-04-26T10:42:03Z</time></trkpt><trkpt lat="43.21458447386833" lon="12.93563271467257"><ele>654.0</ele><time>2026-04-26T10:42:04Z</time></trkpt><trkpt lat="43.21473218183094" lon="12.935627238781779"><ele>654.0</ele><time>2026-04-26T10:42:05Z</time></trkpt><trkpt lat="43.21489178260044" lon="12.935623954510602"><ele>654.0</ele><time>2026-04-26T10:42:06Z</time></trkpt><trkpt lat="43.21506327308292" lon="12.935634583882669"><ele>653.0</ele><time>2026-04-26T10:42:07Z</time></trkpt><trkpt lat="43.21523660005444" lon="12.93565776311633"><ele>652.0</ele><time>2026-04-26T10:42:08Z</time></trkpt><trkpt lat="43.21541566096961" lon="12.935661334390552"><ele>651.0</ele><time>2026-04-26T10:42:09Z</time></trkpt><trkpt lat="43.21559964404983" lon="12.935645616198096"><ele>648.6666666666666</ele><time>2026-04-26T10:42:10Z</time></trkpt><trkpt lat="43.215793434396595" lon="12.935640703460939"><ele>646.3333333333333</ele><time>2026-04-26T10:42:11Z</time></trkpt><trkpt lat="43.21599094941242" lon="12.935630170556568"><ele>644.0</ele><time>2026-04-26T10:42:12Z</time></trkpt><trkpt lat="43.21618635276406" lon="12.935608366988303"><ele>644.0</ele><time>2026-04-26T10:42:13Z</time></trkpt><trkpt lat="43.21636684278289" lon="12.935603651222175"><ele>644.0</ele><time>2026-04-26T10:42:14Z</time></trkpt><trkpt lat="43.21654068475334" lon="12.935588352438666"><ele>644.0</ele><time>2026-04-26T10:42:15Z</time></trkpt><trkpt lat="43.216697480792575" lon="12.935579030563682"><ele>643.8000000000001</ele><time>2026-04-26T10:42:16Z</time></trkpt><trkpt lat="43.216820511013076" lon="12.935539803803408"><ele>643.6</ele><time>2026-04-26T10:42:17Z</time></trkpt><trkpt lat="43.21692785340793" lon="12.935518562018164"><ele>643.4</ele><time>2026-04-26T10:42:18Z</time></trkpt><trkpt lat="43.21704403287284" lon="12.935519071361664"><ele>643.2</ele><time>2026-04-26T10:42:19Z</time></trkpt><trkpt lat="43.2171343404547" lon="12.93554249372637"><ele>643.0</ele><time>2026-04-26T10:42:20Z</time></trkpt><trkpt lat="43.217434451920994" lon="12.935554574176955"><ele>641.3333333333334</ele><time>2026-04-26T10:42:21Z</time></trkpt><trkpt lat="43.21758684322197" lon="12.935521786966593"><ele>639.6666666666666</ele><time>2026-04-26T10:42:22Z</time></trkpt><trkpt lat="43.21774411103625" lon="12.935449306067895"><ele>638.0</ele><time>2026-04-26T10:42:23Z</time></trkpt><trkpt lat="43.21790443402275" lon="12.935363889276612"><ele>638.0</ele><time>2026-04-26T10:42:24Z</time></trkpt><trkpt lat="43.21806370647935" lon="12.935280665857407"><ele>638.0</ele><time>2026-04-26T10:42:25Z</time></trkpt><trkpt lat="43.218229273542086" lon="12.935188102197353"><ele>638.0</ele><time>2026-04-26T10:42:26Z</time></trkpt><trkpt lat="43.218397935142924" lon="12.935085891970633"><ele>627.3333333333333</ele><time>2026-04-26T10:42:27Z</time></trkpt><trkpt lat="43.21856971867491" lon="12.934967711089532"><ele>616.6666666666666</ele><time>2026-04-26T10:42:28Z</time></trkpt><trkpt lat="43.21873677415816" lon="12.934830230657223"><ele>606.0</ele><time>2026-04-26T10:42:29Z</time></trkpt><trkpt lat="43.21889879036494" lon="12.934673620515934"><ele>603.0</ele><time>2026-04-26T10:42:30Z</time></trkpt><trkpt lat="43.21904086358552" lon="12.934484590855202"><ele>600.0</ele><time>2026-04-26T10:42:31Z</time></trkpt><trkpt lat="43.21917354386277" lon="12.934280138326613"><ele>597.0</ele><time>2026-04-26T10:42:32Z</time></trkpt><trkpt lat="43.21932936091882" lon="12.934133939681711"><ele>597.0</ele><time>2026-04-26T10:42:33Z</time></trkpt><trkpt lat="43.21947505477265" lon="12.933988502322004"><ele>597.0</ele><time>2026-04-26T10:42:34Z</time></trkpt><trkpt lat="43.219615347589865" lon="12.933845407585984"><ele>597.0</ele><time>2026-04-26T10:42:35Z</time></trkpt><trkpt lat="43.21975224055037" lon="12.933707032903746"><ele>594.5</ele><time>2026-04-26T10:42:36Z</time></trkpt><trkpt lat="43.21988885041985" lon="12.9336080922874"><ele>592.0</ele><time>2026-04-26T10:42:37Z</time></trkpt><trkpt lat="43.220031709413206" lon="12.933524863844273"><ele>589.5</ele><time>2026-04-26T10:42:38Z</time></trkpt><trkpt lat="43.22014989669569" lon="12.933433371886048"><ele>587.0</ele><time>2026-04-26T10:42:39Z</time></trkpt><trkpt lat="43.22023654764471" lon="12.933323290963754"><ele>587.0</ele><time>2026-04-26T10:42:40Z</time></trkpt><trkpt lat="43.2202951469839" lon="12.933184453849298"><ele>587.0</ele><time>2026-04-26T10:42:41Z</time></trkpt><trkpt lat="43.220318440732115" lon="12.933011930165737"><ele>587.0</ele><time>2026-04-26T10:42:42Z</time></trkpt><trkpt lat="43.22033651265111" lon="12.932825390702368"><ele>587.0</ele><time>2026-04-26T10:42:43Z</time></trkpt><trkpt lat="43.22036416234314" lon="12.932636211135371"><ele>585.25</ele><time>2026-04-26T10:42:44Z</time></trkpt><trkpt lat="43.22038960385085" lon="12.93245218041862"><ele>583.5</ele><time>2026-04-26T10:42:45Z</time></trkpt><trkpt lat="43.220411243862934" lon="12.932272436434406"><ele>581.75</ele><time>2026-04-26T10:42:46Z</time></trkpt><trkpt lat="43.220437957488734" lon="12.93209588852309"><ele>580.0</ele><time>2026-04-26T10:42:47Z</time></trkpt><trkpt lat="43.22048284368804" lon="12.931926788283075"><ele>580.0</ele><time>2026-04-26T10:42:48Z</time></trkpt><trkpt lat="43.220562580081925" lon="12.931782922522464"><ele>580.0</ele><time>2026-04-26T10:42:49Z</time></trkpt><trkpt lat="43.22066909767233" lon="12.931676647460232"><ele>580.0</ele><time>2026-04-26T10:42:50Z</time></trkpt><trkpt lat="43.22078624312989" lon="12.931601169223487"><ele>580.0</ele><time>2026-04-26T10:42:51Z</time></trkpt><trkpt lat="43.220913472207215" lon="12.931527996094593"><ele>577.5</ele><time>2026-04-26T10:42:52Z</time></trkpt><trkpt lat="43.22104533893596" lon="12.931458517669522"><ele>575.0</ele><time>2026-04-26T10:42:53Z</time></trkpt><trkpt lat="43.22117294954173" lon="12.931399295228482"><ele>572.5</ele><time>2026-04-26T10:42:54Z</time></trkpt><trkpt lat="43.221299362314156" lon="12.931334166218825"><ele>570.0</ele><time>2026-04-26T10:42:55Z</time></trkpt><trkpt lat="43.221417339040194" lon="12.93125416970352"><ele>571.25</ele><time>2026-04-26T10:42:56Z</time></trkpt><trkpt lat="43.2215130306921" lon="12.931135731502465"><ele>572.5</ele><time>2026-04-26T10:42:57Z</time></trkpt><trkpt lat="43.22158309483463" lon="12.930990841977406"><ele>573.75</ele><time>2026-04-26T10:42:58Z</time></trkpt><trkpt lat="43.22164259477078" lon="12.930841460399833"><ele>575.0</ele><time>2026-04-26T10:42:59Z</time></trkpt><trkpt lat="43.22170942426858" lon="12.93070359787335"><ele>571.6</ele><time>2026-04-26T10:43:00Z</time></trkpt><trkpt lat="43.221789977947424" lon="12.930593015590237"><ele>568.2</ele><time>2026-04-26T10:43:01Z</time></trkpt><trkpt lat="43.221887687996144" lon="12.930523172639415"><ele>564.8</ele><time>2026-04-26T10:43:01.999Z</time></trkpt><trkpt lat="43.221995562782254" lon="12.930516441883189"><ele>561.4</ele><time>2026-04-26T10:43:02.999Z</time></trkpt><trkpt lat="43.22210288736318" lon="12.93056593562952"><ele>558.0</ele><time>2026-04-26T10:43:03.999Z</time></trkpt><trkpt lat="43.222209980269334" lon="12.930640853503638"><ele>557.25</ele><time>2026-04-26T10:43:04.999Z</time></trkpt><trkpt lat="43.22232270959043" lon="12.930716411485216"><ele>556.5</ele><time>2026-04-26T10:43:05.999Z</time></trkpt><trkpt lat="43.22244577442747" lon="12.930787246445794"><ele>555.75</ele><time>2026-04-26T10:43:06.999Z</time></trkpt><trkpt lat="43.222578264985536" lon="12.930848676097767"><ele>555.0</ele><time>2026-04-26T10:43:07.999Z</time></trkpt><trkpt lat="43.22271310407288" lon="12.930879025118191"><ele>555.0</ele><time>2026-04-26T10:43:08.999Z</time></trkpt><trkpt lat="43.222847289487795" lon="12.930878837758247"><ele>555.0</ele><time>2026-04-26T10:43:09.999Z</time></trkpt><trkpt lat="43.22297605767553" lon="12.930843448791343"><ele>555.0</ele><time>2026-04-26T10:43:10.999Z</time></trkpt><trkpt lat="43.22309942387171" lon="12.930783788288737"><ele>555.0</ele><time>2026-04-26T10:43:11.999Z</time></trkpt><trkpt lat="43.22322553519942" lon="12.93073050791437"><ele>554.25</ele><time>2026-04-26T10:43:12.999Z</time></trkpt><trkpt lat="43.223357217679755" lon="12.93068731973566"><ele>553.5</ele><time>2026-04-26T10:43:13.999Z</time></trkpt><trkpt lat="43.22349642383704" lon="12.930647576094096"><ele>552.75</ele><time>2026-04-26T10:43:14.999Z</time></trkpt><trkpt lat="43.223631087261566" lon="12.930602937499485"><ele>552.0</ele><time>2026-04-26T10:43:15.999Z</time></trkpt><trkpt lat="43.22376372911349" lon="12.93058030832844"><ele>552.0</ele><time>2026-04-26T10:43:16.999Z</time></trkpt><trkpt lat="43.223895482709565" lon="12.930583517410955"><ele>552.0</ele><time>2026-04-26T10:43:17.999Z</time></trkpt><trkpt lat="43.22402048171415" lon="12.930602197575318"><ele>552.0</ele><time>2026-04-26T10:43:18.999Z</time></trkpt><trkpt lat="43.224125379544574" lon="12.930622898115912"><ele>552.0</ele><time>2026-04-26T10:43:19.999Z</time></trkpt><trkpt lat="43.224216489649024" lon="12.930639512968096"><ele>551.0</ele><time>2026-04-26T10:43:20.999Z</time></trkpt><trkpt lat="43.22429491041913" lon="12.930646406461044"><ele>550.0</ele><time>2026-04-26T10:43:21.999Z</time></trkpt><trkpt lat="43.22436507247965" lon="12.930654948042328"><ele>549.0</ele><time>2026-04-26T10:43:22.999Z</time></trkpt><trkpt lat="43.22447025239532" lon="12.930654169931731"><ele>548.0</ele><time>2026-04-26T10:43:24.999Z</time></trkpt><trkpt lat="43.22453200457255" lon="12.930617923330484"><ele>547.0</ele><time>2026-04-26T10:43:26.999Z</time></trkpt><trkpt lat="43.22459472373872" lon="12.930579260333491"><ele>546.0</ele><time>2026-04-26T10:43:29.999Z</time></trkpt><trkpt lat="43.224668684957294" lon="12.930594514608437"><ele>546.0</ele><time>2026-04-26T10:44:57Z</time></trkpt><trkpt lat="43.22475204660156" lon="12.930663325320232"><ele>546.0</ele><time>2026-04-26T10:44:59Z</time></trkpt><trkpt lat="43.22481637194816" lon="12.930715421569431"><ele>546.0</ele><time>2026-04-26T10:45:00Z</time></trkpt><trkpt lat="43.2248868956176" lon="12.930777157343"><ele>546.0</ele><time>2026-04-26T10:45:01Z</time></trkpt><trkpt lat="43.22496887368712" lon="12.930848002386695"><ele>546.0</ele><time>2026-04-26T10:45:01.999Z</time></trkpt><trkpt lat="43.22505769748578" lon="12.930931302481794"><ele>544.25</ele><time>2026-04-26T10:45:02.999Z</time></trkpt><trkpt lat="43.22514730437971" lon="12.931031107231581"><ele>542.5</ele><time>2026-04-26T10:45:03.999Z</time></trkpt><trkpt lat="43.22523647665687" lon="12.931145549191879"><ele>540.75</ele><time>2026-04-26T10:45:04.999Z</time></trkpt><trkpt lat="43.22531967957936" lon="12.93127987486804"><ele>539.0</ele><time>2026-04-26T10:45:05.999Z</time></trkpt><trkpt lat="43.22540033311374" lon="12.931439809498833"><ele>539.0</ele><time>2026-04-26T10:45:06.999Z</time></trkpt><trkpt lat="43.225468904021426" lon="12.931613627975056"><ele>539.0</ele><time>2026-04-26T10:45:07.999Z</time></trkpt><trkpt lat="43.225541152183155" lon="12.931793723051271"><ele>539.0</ele><time>2026-04-26T10:45:08.999Z</time></trkpt><trkpt lat="43.22563254094436" lon="12.931982078129447"><ele>538.0</ele><time>2026-04-26T10:45:09.999Z</time></trkpt><trkpt lat="43.2257277989584" lon="12.932159087721427"><ele>537.0</ele><time>2026-04-26T10:45:10.999Z</time></trkpt><trkpt lat="43.22582152167712" lon="12.932340876114155"><ele>536.0</ele><time>2026-04-26T10:45:11.999Z</time></trkpt><trkpt lat="43.225917071495864" lon="12.932538206782265"><ele>536.0</ele><time>2026-04-26T10:45:12.999Z</time></trkpt><trkpt lat="43.226002453312354" lon="12.932750142202584"><ele>536.0</ele><time>2026-04-26T10:45:13.999Z</time></trkpt><trkpt lat="43.22609400860044" lon="12.932961830912909"><ele>536.0</ele><time>2026-04-26T10:45:14.999Z</time></trkpt><trkpt lat="43.22619022465798" lon="12.933164188306966"><ele>536.0</ele><time>2026-04-26T10:45:15.999Z</time></trkpt><trkpt lat="43.22628245140312" lon="12.933347512646435"><ele>536.0</ele><time>2026-04-26T10:45:16.999Z</time></trkpt><trkpt lat="43.22636139428969" lon="12.933516561822458"><ele>536.0</ele><time>2026-04-26T10:45:17.999Z</time></trkpt><trkpt lat="43.22641609091927" lon="12.93368472698912"><ele>536.0</ele><time>2026-04-26T10:45:18.999Z</time></trkpt><trkpt lat="43.22643692872886" lon="12.933854075292306"><ele>535.75</ele><time>2026-04-26T10:45:19.999Z</time></trkpt><trkpt lat="43.226440311585456" lon="12.934022011984977"><ele>535.5</ele><time>2026-04-26T10:45:20.999Z</time></trkpt><trkpt lat="43.226446923506984" lon="12.934176553570282"><ele>535.25</ele><time>2026-04-26T10:45:21.999Z</time></trkpt><trkpt lat="43.22649487424006" lon="12.93430789628982"><ele>535.0</ele><time>2026-04-26T10:45:22.999Z</time></trkpt><trkpt lat="43.22658176112999" lon="12.934403686457086"><ele>534.75</ele><time>2026-04-26T10:45:23.999Z</time></trkpt><trkpt lat="43.226689466573795" lon="12.93447944860169"><ele>534.5</ele><time>2026-04-26T10:45:24.999Z</time></trkpt><trkpt lat="43.22680775400341" lon="12.93454236882465"><ele>534.25</ele><time>2026-04-26T10:45:25.999Z</time></trkpt><trkpt lat="43.22693539195561" lon="12.934606854384105"><ele>534.0</ele><time>2026-04-26T10:45:26.999Z</time></trkpt><trkpt lat="43.22707090221036" lon="12.934677113708634"><ele>534.0</ele><time>2026-04-26T10:45:27.999Z</time></trkpt><trkpt lat="43.227217797131864" lon="12.93476066805249"><ele>534.0</ele><time>2026-04-26T10:45:28.999Z</time></trkpt><trkpt lat="43.22736443067012" lon="12.9348569337131"><ele>534.0</ele><time>2026-04-26T10:45:29.999Z</time></trkpt><trkpt lat="43.22750471160428" lon="12.934978307268818"><ele>535.0</ele><time>2026-04-26T10:45:30.999Z</time></trkpt><trkpt lat="43.2276441421838" lon="12.93511509177798"><ele>536.0</ele><time>2026-04-26T10:45:31.999Z</time></trkpt><trkpt lat="43.22778020605859" lon="12.935264855040908"><ele>537.0</ele><time>2026-04-26T10:45:32.999Z</time></trkpt><trkpt lat="43.227918856213826" lon="12.9354258932791"><ele>537.0</ele><time>2026-04-26T10:45:33.999Z</time></trkpt><trkpt lat="43.22805615421902" lon="12.935601854871498"><ele>537.0</ele><time>2026-04-26T10:45:34.999Z</time></trkpt><trkpt lat="43.22818424724325" lon="12.93579228118759"><ele>537.0</ele><time>2026-04-26T10:45:35.999Z</time></trkpt><trkpt lat="43.228300527925356" lon="12.935969943982437"><ele>537.0</ele><time>2026-04-26T10:45:36.999Z</time></trkpt><trkpt lat="43.22841377308572" lon="12.936117300371471"><ele>537.0</ele><time>2026-04-26T10:45:37.999Z</time></trkpt><trkpt lat="43.2285421236019" lon="12.936232869012017"><ele>537.0</ele><time>2026-04-26T10:45:38.999Z</time></trkpt><trkpt lat="43.22868381189644" lon="12.936329339074602"><ele>537.0</ele><time>2026-04-26T10:45:39.999Z</time></trkpt><trkpt lat="43.228824545505326" lon="12.936442125874693"><ele>537.0</ele><time>2026-04-26T10:45:40.999Z</time></trkpt><trkpt lat="43.228961871921946" lon="12.936563074969166"><ele>537.0</ele><time>2026-04-26T10:45:41.999Z</time></trkpt><trkpt lat="43.229084734492325" lon="12.936675840828881"><ele>533.3333333333334</ele><time>2026-04-26T10:45:42.999Z</time></trkpt><trkpt lat="43.22920113149523" lon="12.936801824899728"><ele>529.6666666666667</ele><time>2026-04-26T10:45:43.999Z</time></trkpt><trkpt lat="43.22930784883754" lon="12.936957446966149"><ele>526.0</ele><time>2026-04-26T10:45:44.999Z</time></trkpt><trkpt lat="43.22940775088957" lon="12.937133162357755"><ele>526.0</ele><time>2026-04-26T10:45:45.999Z</time></trkpt><trkpt lat="43.229502042409024" lon="12.937322416614418"><ele>526.0</ele><time>2026-04-26T10:45:46.999Z</time></trkpt><trkpt lat="43.229589363593696" lon="12.937523821535741"><ele>526.0</ele><time>2026-04-26T10:45:47.999Z</time></trkpt><trkpt lat="43.2296859985519" lon="12.937722598899782"><ele>525.0</ele><time>2026-04-26T10:45:48.999Z</time></trkpt><trkpt lat="43.229804312258985" lon="12.93792230215522"><ele>524.0</ele><time>2026-04-26T10:45:49.999Z</time></trkpt><trkpt lat="43.22992963154861" lon="12.93811824124669"><ele>523.0</ele><time>2026-04-26T10:45:50.999Z</time></trkpt><trkpt lat="43.23004486535846" lon="12.938319361605725"><ele>520.6666666666667</ele><time>2026-04-26T10:45:51.999Z</time></trkpt><trkpt lat="43.230144715872505" lon="12.938545961750641"><ele>518.3333333333334</ele><time>2026-04-26T10:45:52.999Z</time></trkpt><trkpt lat="43.23022560040676" lon="12.938782802954538"><ele>516.0</ele><time>2026-04-26T10:45:53.999Z</time></trkpt><trkpt lat="43.23030238277042" lon="12.939028777289426"><ele>518.3333333333334</ele><time>2026-04-26T10:45:54.999Z</time></trkpt><trkpt lat="43.230375613387025" lon="12.939279550853577"><ele>520.6666666666667</ele><time>2026-04-26T10:45:55.999Z</time></trkpt><trkpt lat="43.23043391046919" lon="12.939536506299735"><ele>523.0</ele><time>2026-04-26T10:45:56.999Z</time></trkpt><trkpt lat="43.230487635172295" lon="12.93979830188185"><ele>524.6666666666667</ele><time>2026-04-26T10:45:57.999Z</time></trkpt><trkpt lat="43.23054506814109" lon="12.94005704401541"><ele>526.3333333333334</ele><time>2026-04-26T10:45:58.999Z</time></trkpt><trkpt lat="43.230607530685894" lon="12.940320749980737"><ele>528.0</ele><time>2026-04-26T10:45:59.999Z</time></trkpt><trkpt lat="43.23065591981133" lon="12.940589300280486"><ele>528.0</ele><time>2026-04-26T10:46:00.999Z</time></trkpt><trkpt lat="43.23069494819687" lon="12.940858045993359"><ele>528.0</ele><time>2026-04-26T10:46:01.998Z</time></trkpt><trkpt lat="43.23073396515268" lon="12.941125595975041"><ele>528.0</ele><time>2026-04-26T10:46:03Z</time></trkpt><trkpt lat="43.23077414096242" lon="12.941373321098073"><ele>526.0</ele><time>2026-04-26T10:46:04Z</time></trkpt><trkpt lat="43.23081108521316" lon="12.941603507902983"><ele>524.0</ele><time>2026-04-26T10:46:05Z</time></trkpt><trkpt lat="43.23083657861739" lon="12.941811617269805"><ele>522.0</ele><time>2026-04-26T10:46:06Z</time></trkpt><trkpt lat="43.23086772238574" lon="12.942000569957154"><ele>520.0</ele><time>2026-04-26T10:46:07Z</time></trkpt><trkpt lat="43.23092412964877" lon="12.942165936647086"><ele>518.0</ele><time>2026-04-26T10:46:08Z</time></trkpt><trkpt lat="43.231006818433734" lon="12.942287325681955"><ele>516.0</ele><time>2026-04-26T10:46:09Z</time></trkpt><trkpt lat="43.23109512657744" lon="12.942378864451774"><ele>514.0</ele><time>2026-04-26T10:46:10Z</time></trkpt><trkpt lat="43.23119449312864" lon="12.942439310192933"><ele>514.0</ele><time>2026-04-26T10:46:11Z</time></trkpt><trkpt lat="43.231300375597776" lon="12.94250426680338"><ele>514.0</ele><time>2026-04-26T10:46:12Z</time></trkpt><trkpt lat="43.23140974750984" lon="12.942592546874593"><ele>514.0</ele><time>2026-04-26T10:46:13Z</time></trkpt><trkpt lat="43.23150899825886" lon="12.942718950892228"><ele>514.0</ele><time>2026-04-26T10:46:14Z</time></trkpt><trkpt lat="43.231591777307166" lon="12.942867185631878"><ele>514.75</ele><time>2026-04-26T10:46:15Z</time></trkpt><trkpt lat="43.23166112309673" lon="12.94303126089752"><ele>515.5</ele><time>2026-04-26T10:46:16Z</time></trkpt><trkpt lat="43.23173369504541" lon="12.943199442087712"><ele>516.25</ele><time>2026-04-26T10:46:17Z</time></trkpt><trkpt lat="43.2318096965871" lon="12.943375240386525"><ele>517.0</ele><time>2026-04-26T10:46:18Z</time></trkpt><trkpt lat="43.23187981623008" lon="12.94355823567433"><ele>516.5</ele><time>2026-04-26T10:46:19Z</time></trkpt><trkpt lat="43.23194544736359" lon="12.943733421772025"><ele>516.0</ele><time>2026-04-26T10:46:20Z</time></trkpt><trkpt lat="43.23201108042612" lon="12.943907148421797"><ele>515.5</ele><time>2026-04-26T10:46:21Z</time></trkpt><trkpt lat="43.23208839944555" lon="12.944067265367469"><ele>515.0</ele><time>2026-04-26T10:46:22Z</time></trkpt><trkpt lat="43.2321696398867" lon="12.944220679820882"><ele>515.0</ele><time>2026-04-26T10:46:23Z</time></trkpt><trkpt lat="43.232254873426704" lon="12.94436514435478"><ele>515.0</ele><time>2026-04-26T10:46:24Z</time></trkpt><trkpt lat="43.232359751311044" lon="12.944480971288176"><ele>515.0</ele><time>2026-04-26T10:46:25Z</time></trkpt><trkpt lat="43.23247995390613" lon="12.944565262123266"><ele>515.0</ele><time>2026-04-26T10:46:26Z</time></trkpt><trkpt lat="43.23260972744153" lon="12.944632846723573"><ele>511.25</ele><time>2026-04-26T10:46:27Z</time></trkpt><trkpt lat="43.23273127444102" lon="12.94472196299658"><ele>507.5</ele><time>2026-04-26T10:46:28Z</time></trkpt><trkpt lat="43.23282741166439" lon="12.944856761414504"><ele>503.75</ele><time>2026-04-26T10:46:29Z</time></trkpt><trkpt lat="43.23288287458261" lon="12.945033363511037"><ele>500.0</ele><time>2026-04-26T10:46:29.999Z</time></trkpt><trkpt lat="43.2328946544653" lon="12.945216336257369"><ele>499.75</ele><time>2026-04-26T10:46:30.999Z</time></trkpt><trkpt lat="43.23289138031383" lon="12.945390144715569"><ele>499.5</ele><time>2026-04-26T10:46:31.999Z</time></trkpt><trkpt lat="43.232900952114456" lon="12.94556338059965"><ele>499.25</ele><time>2026-04-26T10:46:32.999Z</time></trkpt><trkpt lat="43.23293722383527" lon="12.945753193862872"><ele>499.0</ele><time>2026-04-26T10:46:33.999Z</time></trkpt><trkpt lat="43.232997658782956" lon="12.945961894125704"><ele>499.0</ele><time>2026-04-26T10:46:34.999Z</time></trkpt><trkpt lat="43.233072916526005" lon="12.946176281559108"><ele>499.0</ele><time>2026-04-26T10:46:35.999Z</time></trkpt><trkpt lat="43.233153513096646" lon="12.946399323041941"><ele>499.0</ele><time>2026-04-26T10:46:36.999Z</time></trkpt><trkpt lat="43.23322027014886" lon="12.946636735101473"><ele>496.6666666666667</ele><time>2026-04-26T10:46:37.999Z</time></trkpt><trkpt lat="43.23327881051475" lon="12.946883179784303"><ele>494.33333333333337</ele><time>2026-04-26T10:46:38.999Z</time></trkpt><trkpt lat="43.23333382382594" lon="12.947134736452211"><ele>492.0</ele><time>2026-04-26T10:46:39.999Z</time></trkpt><trkpt lat="43.23338615935871" lon="12.94738151635828"><ele>491.0</ele><time>2026-04-26T10:46:40.999Z</time></trkpt><trkpt lat="43.2334249353268" lon="12.947627640975893"><ele>490.0</ele><time>2026-04-26T10:46:41.999Z</time></trkpt><trkpt lat="43.23345326083949" lon="12.947872628644573"><ele>489.0</ele><time>2026-04-26T10:46:42.999Z</time></trkpt><trkpt lat="43.2334705751869" lon="12.948111288287155"><ele>489.0</ele><time>2026-04-26T10:46:43.999Z</time></trkpt><trkpt lat="43.23350625688233" lon="12.948341828875904"><ele>489.0</ele><time>2026-04-26T10:46:44.999Z</time></trkpt><trkpt lat="43.233574024881754" lon="12.948560586493004"><ele>489.0</ele><time>2026-04-26T10:46:45.999Z</time></trkpt><trkpt lat="43.23366009139251" lon="12.948773696550436"><ele>488.66666666666663</ele><time>2026-04-26T10:46:46.999Z</time></trkpt><trkpt lat="43.2337400555712" lon="12.948985235444425"><ele>488.3333333333333</ele><time>2026-04-26T10:46:47.999Z</time></trkpt><trkpt lat="43.23380519000183" lon="12.949203141883036"><ele>488.0</ele><time>2026-04-26T10:46:48.999Z</time></trkpt><trkpt lat="43.23385645105568" lon="12.949405906923836"><ele>489.75</ele><time>2026-04-26T10:46:49.999Z</time></trkpt><trkpt lat="43.23388838692651" lon="12.949598996133101"><ele>491.5</ele><time>2026-04-26T10:46:50.999Z</time></trkpt><trkpt lat="43.23388740580811" lon="12.949776293000273"><ele>493.25</ele><time>2026-04-26T10:46:51.999Z</time></trkpt><trkpt lat="43.23384598652389" lon="12.949923414840004"><ele>495.0</ele><time>2026-04-26T10:46:52.999Z</time></trkpt><trkpt lat="43.233766138472085" lon="12.95004113683677"><ele>496.2</ele><time>2026-04-26T10:46:53.999Z</time></trkpt><trkpt lat="43.23367481009196" lon="12.950138156550036"><ele>497.4</ele><time>2026-04-26T10:46:54.999Z</time></trkpt><trkpt lat="43.23361289439992" lon="12.950253963837289"><ele>498.6</ele><time>2026-04-26T10:46:55.999Z</time></trkpt><trkpt lat="43.23359798125368" lon="12.950397883546756"><ele>499.8</ele><time>2026-04-26T10:46:56.999Z</time></trkpt><trkpt lat="43.23363179232055" lon="12.950536072931513"><ele>501.0</ele><time>2026-04-26T10:46:57.999Z</time></trkpt><trkpt lat="43.233697238436775" lon="12.95066309854785"><ele>501.0</ele><time>2026-04-26T10:46:58.999Z</time></trkpt><trkpt lat="43.23376560195467" lon="12.950795475761058"><ele>501.0</ele><time>2026-04-26T10:46:59.999Z</time></trkpt><trkpt lat="43.23384113907565" lon="12.950932656924778"><ele>501.0</ele><time>2026-04-26T10:47:00.999Z</time></trkpt><trkpt lat="43.2339170632698" lon="12.951083269183794"><ele>501.0</ele><time>2026-04-26T10:47:01.999Z</time></trkpt><trkpt lat="43.234006018541216" lon="12.951233967004656"><ele>493.25</ele><time>2026-04-26T10:47:02.999Z</time></trkpt><trkpt lat="43.23411543352292" lon="12.951368566567593"><ele>485.5</ele><time>2026-04-26T10:47:03.999Z</time></trkpt><trkpt lat="43.23423352633505" lon="12.951497758271191"><ele>477.75</ele><time>2026-04-26T10:47:04.999Z</time></trkpt><trkpt lat="43.23434616470409" lon="12.951617609688691"><ele>470.0</ele><time>2026-04-26T10:47:05.999Z</time></trkpt><trkpt lat="43.234455705513525" lon="12.951705955156173"><ele>471.0</ele><time>2026-04-26T10:47:06.999Z</time></trkpt><trkpt lat="43.234574716310156" lon="12.951749202767397"><ele>472.0</ele><time>2026-04-26T10:47:07.999Z</time></trkpt><trkpt lat="43.23469320428123" lon="12.951754735268391"><ele>473.0</ele><time>2026-04-26T10:47:08.999Z</time></trkpt><trkpt lat="43.23479972634195" lon="12.951793057714726"><ele>474.0</ele><time>2026-04-26T10:47:09.999Z</time></trkpt><trkpt lat="43.23488674841623" lon="12.95184818329558"><ele>475.0</ele><time>2026-04-26T10:47:10.999Z</time></trkpt><trkpt lat="43.23493768509369" lon="12.951958207587532"><ele>475.0</ele><time>2026-04-26T10:47:11.999Z</time></trkpt><trkpt lat="43.23500799035702" lon="12.952064612531476"><ele>475.0</ele><time>2026-04-26T10:47:12.999Z</time></trkpt><trkpt lat="43.235050775003785" lon="12.952205290663622"><ele>475.0</ele><time>2026-04-26T10:47:13.999Z</time></trkpt><trkpt lat="43.23509024736947" lon="12.952359374746598"><ele>475.0</ele><time>2026-04-26T10:47:14.999Z</time></trkpt><trkpt lat="43.23512138600048" lon="12.952522433924212"><ele>473.0</ele><time>2026-04-26T10:47:15.999Z</time></trkpt><trkpt lat="43.23514210067567" lon="12.952693448007206"><ele>471.0</ele><time>2026-04-26T10:47:16.999Z</time></trkpt><trkpt lat="43.23516340600228" lon="12.952875250282961"><ele>469.0</ele><time>2026-04-26T10:47:17.999Z</time></trkpt><trkpt lat="43.235201051762736" lon="12.95306538907881"><ele>467.0</ele><time>2026-04-26T10:47:18.999Z</time></trkpt><trkpt lat="43.23524368575951" lon="12.953270686284558"><ele>465.0</ele><time>2026-04-26T10:47:19.998Z</time></trkpt><trkpt lat="43.23528532833953" lon="12.953488281913138"><ele>463.0</ele><time>2026-04-26T10:47:20.998Z</time></trkpt><trkpt lat="43.23531807312685" lon="12.953716611114409"><ele>461.0</ele><time>2026-04-26T10:47:21.998Z</time></trkpt><trkpt lat="43.235342855812696" lon="12.953953710309294"><ele>461.0</ele><time>2026-04-26T10:47:22.998Z</time></trkpt><trkpt lat="43.235360128620236" lon="12.954185046816109"><ele>461.0</ele><time>2026-04-26T10:47:23.998Z</time></trkpt><trkpt lat="43.23538260760669" lon="12.95441012893522"><ele>461.0</ele><time>2026-04-26T10:47:24.998Z</time></trkpt><trkpt lat="43.235408038758656" lon="12.954637410695833"><ele>460.0</ele><time>2026-04-26T10:47:25.998Z</time></trkpt><trkpt lat="43.23544002369459" lon="12.954865600216822"><ele>459.0</ele><time>2026-04-26T10:47:26.998Z</time></trkpt><trkpt lat="43.23548113428631" lon="12.955092370065573"><ele>458.0</ele><time>2026-04-26T10:47:27.998Z</time></trkpt><trkpt lat="43.235533076092366" lon="12.955321577865586"><ele>457.66666666666663</ele><time>2026-04-26T10:47:28.998Z</time></trkpt><trkpt lat="43.235587224742794" lon="12.955549863568033"><ele>457.33333333333337</ele><time>2026-04-26T10:47:29.998Z</time></trkpt><trkpt lat="43.235632102522096" lon="12.955771067223395"><ele>457.0</ele><time>2026-04-26T10:47:30.998Z</time></trkpt><trkpt lat="43.23566819969704" lon="12.955987853212436"><ele>457.6666666666667</ele><time>2026-04-26T10:47:31.998Z</time></trkpt><trkpt lat="43.235705107002346" lon="12.956200586380916"><ele>458.33333333333337</ele><time>2026-04-26T10:47:32.998Z</time></trkpt><trkpt lat="43.2357437089737" lon="12.9564057802138"><ele>459.0</ele><time>2026-04-26T10:47:33.998Z</time></trkpt><trkpt lat="43.235791792913055" lon="12.956584424219887"><ele>457.25</ele><time>2026-04-26T10:47:34.998Z</time></trkpt><trkpt lat="43.235860859895936" lon="12.956723232980327"><ele>455.5</ele><time>2026-04-26T10:47:35.998Z</time></trkpt><trkpt lat="43.235957169466545" lon="12.956805200930392"><ele>453.75</ele><time>2026-04-26T10:47:36.998Z</time></trkpt><trkpt lat="43.23607177319374" lon="12.956845326233125"><ele>452.0</ele><time>2026-04-26T10:47:37.998Z</time></trkpt><trkpt lat="43.23619477892855" lon="12.956889790941158"><ele>452.0</ele><time>2026-04-26T10:47:38.998Z</time></trkpt><trkpt lat="43.23632013371145" lon="12.956945630820899"><ele>452.0</ele><time>2026-04-26T10:47:39.998Z</time></trkpt><trkpt lat="43.23645236255559" lon="12.957008472538634"><ele>452.0</ele><time>2026-04-26T10:47:40.998Z</time></trkpt><trkpt lat="43.23658998239911" lon="12.957076064427646"><ele>452.0</ele><time>2026-04-26T10:47:41.998Z</time></trkpt><trkpt lat="43.236725465475914" lon="12.957150968567884"><ele>454.0</ele><time>2026-04-26T10:47:42.998Z</time></trkpt><trkpt lat="43.236862124306164" lon="12.957235903282522"><ele>456.0</ele><time>2026-04-26T10:47:43.998Z</time></trkpt><trkpt lat="43.236994802538284" lon="12.957315671359263"><ele>458.0</ele><time>2026-04-26T10:47:44.998Z</time></trkpt><trkpt lat="43.23713026335589" lon="12.957378213821716"><ele>460.0</ele><time>2026-04-26T10:47:45.998Z</time></trkpt><trkpt lat="43.23725128442587" lon="12.9574632294284"><ele>459.25</ele><time>2026-04-26T10:47:46.998Z</time></trkpt><trkpt lat="43.2373677617792" lon="12.95755841179761"><ele>458.5</ele><time>2026-04-26T10:47:47.998Z</time></trkpt><trkpt lat="43.23749084677445" lon="12.957655064896903"><ele>457.75</ele><time>2026-04-26T10:47:48.998Z</time></trkpt><trkpt lat="43.23761145963773" lon="12.957755890154427"><ele>457.0</ele><time>2026-04-26T10:47:49.998Z</time></trkpt><trkpt lat="43.237723788827935" lon="12.957855259000992"><ele>457.0</ele><time>2026-04-26T10:47:50.998Z</time></trkpt><trkpt lat="43.23783074421113" lon="12.957957159812935"><ele>457.0</ele><time>2026-04-26T10:47:51.998Z</time></trkpt><trkpt lat="43.23792908388887" lon="12.958050144168142"><ele>457.0</ele><time>2026-04-26T10:47:52.998Z</time></trkpt><trkpt lat="43.23801796596675" lon="12.958128627437013"><ele>457.0</ele><time>2026-04-26T10:47:53.998Z</time></trkpt><trkpt lat="43.2381085451694" lon="12.95819684582636"><ele>455.6</ele><time>2026-04-26T10:47:54.998Z</time></trkpt><trkpt lat="43.238195921914894" lon="12.95825832328408"><ele>454.20000000000005</ele><time>2026-04-26T10:47:55.998Z</time></trkpt><trkpt lat="43.238287246016014" lon="12.958306967277707"><ele>452.8</ele><time>2026-04-26T10:47:56.998Z</time></trkpt><trkpt lat="43.23839713203742" lon="12.958355069635358"><ele>451.4</ele><time>2026-04-26T10:47:57.998Z</time></trkpt><trkpt lat="43.23851748356247" lon="12.958413653088803"><ele>450.0</ele><time>2026-04-26T10:47:58.998Z</time></trkpt><trkpt lat="43.23864199400707" lon="12.9584919712064"><ele>450.0</ele><time>2026-04-26T10:47:59.998Z</time></trkpt><trkpt lat="43.238766386350655" lon="12.958588044897253"><ele>450.0</ele><time>2026-04-26T10:48:00.998Z</time></trkpt><trkpt lat="43.238885960607426" lon="12.95868466402107"><ele>450.0</ele><time>2026-04-26T10:48:01.998Z</time></trkpt><trkpt lat="43.2389957147573" lon="12.958786934417112"><ele>450.0</ele><time>2026-04-26T10:48:02.998Z</time></trkpt><trkpt lat="43.23910237221391" lon="12.958881875802552"><ele>449.0</ele><time>2026-04-26T10:48:03.998Z</time></trkpt><trkpt lat="43.23920791155022" lon="12.958972430246126"><ele>448.0</ele><time>2026-04-26T10:48:04.998Z</time></trkpt><trkpt lat="43.23931532383918" lon="12.959057810503351"><ele>447.0</ele><time>2026-04-26T10:48:05.998Z</time></trkpt><trkpt lat="43.23942008094623" lon="12.959143776825982"><ele>446.0</ele><time>2026-04-26T10:48:06.998Z</time></trkpt><trkpt lat="43.239519402679186" lon="12.959227879258846"><ele>446.0</ele><time>2026-04-26T10:48:08Z</time></trkpt><trkpt lat="43.23960921585956" lon="12.959329759435734"><ele>446.0</ele><time>2026-04-26T10:48:09Z</time></trkpt><trkpt lat="43.23968457544304" lon="12.959431959885173"><ele>446.0</ele><time>2026-04-26T10:48:10Z</time></trkpt><trkpt lat="43.239748360591875" lon="12.959536936336843"><ele>446.0</ele><time>2026-04-26T10:48:11Z</time></trkpt><trkpt lat="43.239803233456335" lon="12.959639383489419"><ele>446.0</ele><time>2026-04-26T10:48:12Z</time></trkpt><trkpt lat="43.23984418438547" lon="12.959714345349825"><ele>447.66666666666663</ele><time>2026-04-26T10:48:13Z</time></trkpt><trkpt lat="43.23990347138907" lon="12.95977164797795"><ele>449.3333333333333</ele><time>2026-04-26T10:48:16Z</time></trkpt><trkpt lat="43.23998476399572" lon="12.959830887856029"><ele>451.0</ele><time>2026-04-26T10:49:16.999Z</time></trkpt><trkpt lat="43.24005131426236" lon="12.959861548675635"><ele>452.66666666666663</ele><time>2026-04-26T10:49:17.999Z</time></trkpt><trkpt lat="43.24012634628542" lon="12.959867623926655"><ele>454.3333333333333</ele><time>2026-04-26T10:49:18.999Z</time></trkpt><trkpt lat="43.24019305936023" lon="12.959852793327402"><ele>456.0</ele><time>2026-04-26T10:49:19.999Z</time></trkpt><trkpt lat="43.24030475544058" lon="12.959780526580719"><ele>456.0</ele><time>2026-04-26T10:49:21.999Z</time></trkpt><trkpt lat="43.240360381001025" lon="12.95973364670318"><ele>456.0</ele><time>2026-04-26T10:49:22.999Z</time></trkpt><trkpt lat="43.24041384543446" lon="12.959680605346747"><ele>456.0</ele><time>2026-04-26T10:49:23.999Z</time></trkpt><trkpt lat="43.24049962910093" lon="12.959574774962013"><ele>456.0</ele><time>2026-04-26T10:49:25.999Z</time></trkpt><trkpt lat="43.24054712242336" lon="12.959508401549897"><ele>456.0</ele><time>2026-04-26T10:49:26.999Z</time></trkpt><trkpt lat="43.240592601358095" lon="12.959437629080764"><ele>456.0</ele><time>2026-04-26T10:49:27.999Z</time></trkpt><trkpt lat="43.24064808492476" lon="12.959355941284493"><ele>457.0</ele><time>2026-04-26T10:49:28.999Z</time></trkpt><trkpt lat="43.240707377842796" lon="12.959269496255441"><ele>458.0</ele><time>2026-04-26T10:49:29.999Z</time></trkpt><trkpt lat="43.24076935811338" lon="12.959174411196216"><ele>459.0</ele><time>2026-04-26T10:49:30.999Z</time></trkpt><trkpt lat="43.240829338597756" lon="12.959087945866127"><ele>460.0</ele><time>2026-04-26T10:49:31.999Z</time></trkpt><trkpt lat="43.24088975325349" lon="12.959014387793195"><ele>461.0</ele><time>2026-04-26T10:49:32.999Z</time></trkpt><trkpt lat="43.24094930484905" lon="12.958951693457026"><ele>462.0</ele><time>2026-04-26T10:49:33.999Z</time></trkpt><trkpt lat="43.241009112630145" lon="12.958904930174926"><ele>461.6666666666667</ele><time>2026-04-26T10:49:34.999Z</time></trkpt><trkpt lat="43.24107453911117" lon="12.95887046191405"><ele>461.33333333333337</ele><time>2026-04-26T10:49:35.999Z</time></trkpt><trkpt lat="43.241142047565894" lon="12.958875235736777"><ele>461.0</ele><time>2026-04-26T10:49:36.999Z</time></trkpt><trkpt lat="43.24126284800161" lon="12.95888813161063"><ele>460.6666666666667</ele><time>2026-04-26T10:49:38.999Z</time></trkpt><trkpt lat="43.24133376796957" lon="12.958885890143643"><ele>460.33333333333337</ele><time>2026-04-26T10:49:39.999Z</time></trkpt><trkpt lat="43.2414149230328" lon="12.958906238531242"><ele>460.0</ele><time>2026-04-26T10:49:40.999Z</time></trkpt><trkpt lat="43.24149879663892" lon="12.95891505037966"><ele>460.0</ele><time>2026-04-26T10:49:41.999Z</time></trkpt><trkpt lat="43.241581624747994" lon="12.958919633944303"><ele>460.0</ele><time>2026-04-26T10:49:42.999Z</time></trkpt><trkpt lat="43.24166462903087" lon="12.958916386094872"><ele>460.0</ele><time>2026-04-26T10:49:43.999Z</time></trkpt><trkpt lat="43.24173836160529" lon="12.958898539309361"><ele>460.0</ele><time>2026-04-26T10:49:44.999Z</time></trkpt><trkpt lat="43.241846684164926" lon="12.958849753949103"><ele>460.0</ele><time>2026-04-26T10:49:46.999Z</time></trkpt><trkpt lat="43.24195630376528" lon="12.95876919303017"><ele>460.00000000000006</ele><time>2026-04-26T10:49:48.999Z</time></trkpt><trkpt lat="43.24201265939923" lon="12.958723893158693"><ele>460.0</ele><time>2026-04-26T10:49:49.999Z</time></trkpt><trkpt lat="43.2420747246458" lon="12.958670518346665"><ele>460.0</ele><time>2026-04-26T10:49:50.999Z</time></trkpt><trkpt lat="43.24213871325956" lon="12.958610946520253"><ele>460.0</ele><time>2026-04-26T10:49:51.999Z</time></trkpt><trkpt lat="43.242198827917115" lon="12.958551453476632"><ele>460.00000000000006</ele><time>2026-04-26T10:49:52.999Z</time></trkpt><trkpt lat="43.242249230648575" lon="12.958491209896804"><ele>460.0</ele><time>2026-04-26T10:49:53.999Z</time></trkpt><trkpt lat="43.24234190233173" lon="12.958399675628543"><ele>459.4</ele><time>2026-04-26T10:49:55.999Z</time></trkpt><trkpt lat="43.24242067945234" lon="12.958345898421323"><ele>458.8</ele><time>2026-04-26T10:49:57.999Z</time></trkpt><trkpt lat="43.24248808630612" lon="12.958327017395215"><ele>458.20000000000005</ele><time>2026-04-26T10:49:59.999Z</time></trkpt><trkpt lat="43.24236725321527" lon="12.958206330762057"><ele>457.6</ele><time>2026-04-26T10:50:06.999Z</time></trkpt><trkpt lat="43.242243281693035" lon="12.958287275847196"><ele>457.0</ele><time>2026-04-26T10:50:08.999Z</time></trkpt><trkpt lat="43.242019863839225" lon="12.958232807139924"><ele>457.0</ele><time>2026-04-26T10:50:10.999Z</time></trkpt><trkpt lat="43.241935039912306" lon="12.95829981908375"><ele>457.00000000000006</ele><time>2026-04-26T10:50:11.999Z</time></trkpt><trkpt lat="43.241804284039546" lon="12.958401474356553"><ele>457.00000000000006</ele><time>2026-04-26T10:50:12.998Z</time></trkpt><trkpt lat="43.24174514961875" lon="12.958517897102109"><ele>457.0</ele><time>2026-04-26T10:50:14Z</time></trkpt><trkpt lat="43.24168036451675" lon="12.958574445003862"><ele>457.0</ele><time>2026-04-26T10:50:15Z</time></trkpt><trkpt lat="43.241585954858806" lon="12.958642973869958"><ele>457.75</ele><time>2026-04-26T10:50:16Z</time></trkpt><trkpt lat="43.24149859503669" lon="12.958706385452787"><ele>458.5</ele><time>2026-04-26T10:50:17Z</time></trkpt><trkpt lat="43.241459056599474" lon="12.958882771840234"><ele>459.25</ele><time>2026-04-26T10:50:18Z</time></trkpt><trkpt lat="43.241338650791846" lon="12.958864331099107"><ele>460.0</ele><time>2026-04-26T10:50:19Z</time></trkpt><trkpt lat="43.24121737730261" lon="12.958842907018173"><ele>461.25</ele><time>2026-04-26T10:50:20Z</time></trkpt><trkpt lat="43.24109289366603" lon="12.95884413033859"><ele>462.5</ele><time>2026-04-26T10:50:21Z</time></trkpt><trkpt lat="43.240974826537474" lon="12.958894483107365"><ele>463.75</ele><time>2026-04-26T10:50:22Z</time></trkpt><trkpt lat="43.24087494279739" lon="12.958995944598064"><ele>465.0</ele><time>2026-04-26T10:50:23Z</time></trkpt><trkpt lat="43.24078105598058" lon="12.959123637560522"><ele>464.25</ele><time>2026-04-26T10:50:24Z</time></trkpt><trkpt lat="43.240689715483526" lon="12.959255507756227"><ele>463.5</ele><time>2026-04-26T10:50:25Z</time></trkpt><trkpt lat="43.24060160723397" lon="12.959378435985194"><ele>462.75</ele><time>2026-04-26T10:50:26Z</time></trkpt><trkpt lat="43.24051791435908" lon="12.95949168891004"><ele>462.0</ele><time>2026-04-26T10:50:27Z</time></trkpt><trkpt lat="43.240439783721385" lon="12.959599388164717"><ele>460.8</ele><time>2026-04-26T10:50:28Z</time></trkpt><trkpt lat="43.240358523338834" lon="12.959696462694977"><ele>459.6</ele><time>2026-04-26T10:50:29Z</time></trkpt><trkpt lat="43.24027400550553" lon="12.959773707831083"><ele>458.40000000000003</ele><time>2026-04-26T10:50:30Z</time></trkpt><trkpt lat="43.24020280193979" lon="12.959819329719565"><ele>457.20000000000005</ele><time>2026-04-26T10:50:31Z</time></trkpt><trkpt lat="43.240112410097076" lon="12.959858871743315"><ele>456.0</ele><time>2026-04-26T10:50:33Z</time></trkpt><trkpt lat="43.240098964287526" lon="12.960008266127323"><ele>454.20000000000005</ele><time>2026-04-26T10:50:36Z</time></trkpt><trkpt lat="43.24011591285107" lon="12.960098785143552"><ele>452.40000000000003</ele><time>2026-04-26T10:50:37Z</time></trkpt><trkpt lat="43.24014616009819" lon="12.960201050630438"><ele>450.6</ele><time>2026-04-26T10:50:38Z</time></trkpt><trkpt lat="43.240189548403706" lon="12.960307320144977"><ele>448.8</ele><time>2026-04-26T10:50:39Z</time></trkpt><trkpt lat="43.24025399144074" lon="12.960422455360105"><ele>447.0</ele><time>2026-04-26T10:50:40Z</time></trkpt><trkpt lat="43.24033166066024" lon="12.9605404888987"><ele>447.0</ele><time>2026-04-26T10:50:41Z</time></trkpt><trkpt lat="43.24041312919849" lon="12.960647210479406"><ele>447.00000000000006</ele><time>2026-04-26T10:50:42Z</time></trkpt><trkpt lat="43.24049583458912" lon="12.96072407948031"><ele>447.00000000000006</ele><time>2026-04-26T10:50:43Z</time></trkpt><trkpt lat="43.240579004954206" lon="12.96077155531438"><ele>447.0</ele><time>2026-04-26T10:50:44Z</time></trkpt><trkpt lat="43.24066319389843" lon="12.960821146847206"><ele>447.0</ele><time>2026-04-26T10:50:45Z</time></trkpt><trkpt lat="43.240748573577" lon="12.960890387781916"><ele>446.40000000000003</ele><time>2026-04-26T10:50:46Z</time></trkpt><trkpt lat="43.24083500404295" lon="12.96097624991722"><ele>445.80000000000007</ele><time>2026-04-26T10:50:47Z</time></trkpt><trkpt lat="43.240921567930066" lon="12.961071630402255"><ele>445.2</ele><time>2026-04-26T10:50:48Z</time></trkpt><trkpt lat="43.24099537898926" lon="12.961153976101771"><ele>444.6</ele><time>2026-04-26T10:50:49Z</time></trkpt><trkpt lat="43.24106587956504" lon="12.961217607882563"><ele>444.0</ele><time>2026-04-26T10:50:50Z</time></trkpt><trkpt lat="43.24113664350693" lon="12.961286548145708"><ele>444.0</ele><time>2026-04-26T10:50:51Z</time></trkpt><trkpt lat="43.241202895079454" lon="12.961357589293563"><ele>444.0</ele><time>2026-04-26T10:50:52Z</time></trkpt><trkpt lat="43.24126261887733" lon="12.9614229992479"><ele>444.0</ele><time>2026-04-26T10:50:53Z</time></trkpt><trkpt lat="43.24132696982346" lon="12.961475447346757"><ele>444.0</ele><time>2026-04-26T10:50:54Z</time></trkpt><trkpt lat="43.24139189946098" lon="12.961530472134912"><ele>444.0</ele><time>2026-04-26T10:50:55Z</time></trkpt><trkpt lat="43.241450657685235" lon="12.96157930213163"><ele>444.0</ele><time>2026-04-26T10:50:56Z</time></trkpt><trkpt lat="43.24156333557171" lon="12.961673501412701"><ele>443.0</ele><time>2026-04-26T10:50:58Z</time></trkpt><trkpt lat="43.241627870868854" lon="12.961731313827139"><ele>442.0</ele><time>2026-04-26T10:50:59Z</time></trkpt><trkpt lat="43.241694306383025" lon="12.961804519348457"><ele>441.0</ele><time>2026-04-26T10:51:00Z</time></trkpt><trkpt lat="43.24175997866974" lon="12.96189062647031"><ele>440.0</ele><time>2026-04-26T10:51:01Z</time></trkpt><trkpt lat="43.2418264146895" lon="12.961978894353306"><ele>439.0</ele><time>2026-04-26T10:51:02Z</time></trkpt><trkpt lat="43.24189518070019" lon="12.962068727210912"><ele>438.0</ele><time>2026-04-26T10:51:03Z</time></trkpt><trkpt lat="43.24196407628958" lon="12.962152426906883"><ele>438.0</ele><time>2026-04-26T10:51:04Z</time></trkpt><trkpt lat="43.24203817215889" lon="12.962228101190542"><ele>437.99999999999994</ele><time>2026-04-26T10:51:05Z</time></trkpt><trkpt lat="43.24212047447921" lon="12.962281603915537"><ele>437.99999999999994</ele><time>2026-04-26T10:51:06Z</time></trkpt><trkpt lat="43.24221344603634" lon="12.96230209961556"><ele>438.0</ele><time>2026-04-26T10:51:07Z</time></trkpt><trkpt lat="43.24230820353437" lon="12.962297129586563"><ele>438.0</ele><time>2026-04-26T10:51:08Z</time></trkpt><trkpt lat="43.24240050923544" lon="12.962286648817852"><ele>439.0</ele><time>2026-04-26T10:51:09Z</time></trkpt><trkpt lat="43.24249132851533" lon="12.962276468054744"><ele>439.99999999999994</ele><time>2026-04-26T10:51:10Z</time></trkpt><trkpt lat="43.24259636118169" lon="12.962266494420009"><ele>440.99999999999994</ele><time>2026-04-26T10:51:11Z</time></trkpt><trkpt lat="43.24270257480481" lon="12.962256202292654"><ele>442.0</ele><time>2026-04-26T10:51:12Z</time></trkpt><trkpt lat="43.24280820304925" lon="12.962236210451099"><ele>443.0</ele><time>2026-04-26T10:51:12.999Z</time></trkpt><trkpt lat="43.24290598077717" lon="12.962202178610532"><ele>443.0</ele><time>2026-04-26T10:51:13.999Z</time></trkpt><trkpt lat="43.24299469707376" lon="12.962162098758103"><ele>442.99999999999994</ele><time>2026-04-26T10:51:14.999Z</time></trkpt><trkpt lat="43.24307231894763" lon="12.962113111088673"><ele>442.99999999999994</ele><time>2026-04-26T10:51:15.999Z</time></trkpt><trkpt lat="43.2431487300094" lon="12.962057170907219"><ele>443.0</ele><time>2026-04-26T10:51:16.999Z</time></trkpt><trkpt lat="43.24322563918831" lon="12.961990696874228"><ele>443.0</ele><time>2026-04-26T10:51:17.999Z</time></trkpt><trkpt lat="43.243294376757426" lon="12.961895789828809"><ele>444.25</ele><time>2026-04-26T10:51:18.999Z</time></trkpt><trkpt lat="43.24334826880137" lon="12.961779996757379"><ele>445.5</ele><time>2026-04-26T10:51:19.999Z</time></trkpt><trkpt lat="43.24340386309003" lon="12.96164694726999"><ele>446.75</ele><time>2026-04-26T10:51:20.999Z</time></trkpt><trkpt lat="43.243466973733604" lon="12.961508895639419"><ele>448.0</ele><time>2026-04-26T10:51:21.999Z</time></trkpt><trkpt lat="43.24353868936301" lon="12.96136972975868"><ele>448.5</ele><time>2026-04-26T10:51:22.999Z</time></trkpt><trkpt lat="43.24362554284629" lon="12.9612543147252"><ele>449.0</ele><time>2026-04-26T10:51:23.999Z</time></trkpt><trkpt lat="43.24370835761242" lon="12.961134526852103"><ele>449.5</ele><time>2026-04-26T10:51:24.999Z</time></trkpt><trkpt lat="43.24378401248553" lon="12.961000472776922"><ele>450.0</ele><time>2026-04-26T10:51:25.999Z</time></trkpt><trkpt lat="43.243875228665985" lon="12.960889007862283"><ele>448.0</ele><time>2026-04-26T10:51:26.999Z</time></trkpt><trkpt lat="43.243964808861875" lon="12.960771514819122"><ele>446.0</ele><time>2026-04-26T10:51:27.999Z</time></trkpt><trkpt lat="43.244064333195674" lon="12.960691398426675"><ele>444.0</ele><time>2026-04-26T10:51:28.999Z</time></trkpt><trkpt lat="43.24416248365201" lon="12.960644194055948"><ele>442.0</ele><time>2026-04-26T10:51:29.999Z</time></trkpt><trkpt lat="43.24425937499429" lon="12.960583510346375"><ele>442.0</ele><time>2026-04-26T10:51:30.999Z</time></trkpt><trkpt lat="43.24436274789982" lon="12.96055402021585"><ele>442.00000000000006</ele><time>2026-04-26T10:51:31.999Z</time></trkpt><trkpt lat="43.244456938994084" lon="12.960516378717694"><ele>442.00000000000006</ele><time>2026-04-26T10:51:32.999Z</time></trkpt><trkpt lat="43.24455145619728" lon="12.960474005456359"><ele>442.0</ele><time>2026-04-26T10:51:33.999Z</time></trkpt><trkpt lat="43.244644048817115" lon="12.960431838917408"><ele>442.0</ele><time>2026-04-26T10:51:34.999Z</time></trkpt><trkpt lat="43.24473064695069" lon="12.960387897742985"><ele>440.40000000000003</ele><time>2026-04-26T10:51:35.999Z</time></trkpt><trkpt lat="43.244810627743625" lon="12.960343068582029"><ele>438.80000000000007</ele><time>2026-04-26T10:51:36.999Z</time></trkpt><trkpt lat="43.24488947122526" lon="12.960287171511723"><ele>437.2</ele><time>2026-04-26T10:51:37.999Z</time></trkpt><trkpt lat="43.24496903459434" lon="12.960228313181565"><ele>435.6</ele><time>2026-04-26T10:51:38.999Z</time></trkpt><trkpt lat="43.24505116656518" lon="12.960159040165747"><ele>434.0</ele><time>2026-04-26T10:51:39.999Z</time></trkpt><trkpt lat="43.24513201200512" lon="12.96008414638803"><ele>434.49999999999994</ele><time>2026-04-26T10:51:40.999Z</time></trkpt><trkpt lat="43.24520955518544" lon="12.96000756350659"><ele>435.0</ele><time>2026-04-26T10:51:41.999Z</time></trkpt><trkpt lat="43.24528144657895" lon="12.959936344045023"><ele>435.5</ele><time>2026-04-26T10:51:42.999Z</time></trkpt><trkpt lat="43.24534944324223" lon="12.959868444348114"><ele>436.0</ele><time>2026-04-26T10:51:43.999Z</time></trkpt><trkpt lat="43.245403311639464" lon="12.95980282672854"><ele>436.49999999999994</ele><time>2026-04-26T10:51:44.999Z</time></trkpt><trkpt lat="43.24545366156134" lon="12.959727676305986"><ele>437.0</ele><time>2026-04-26T10:51:45.999Z</time></trkpt><trkpt lat="43.245499627416606" lon="12.959656354251056"><ele>437.0</ele><time>2026-04-26T10:51:46.999Z</time></trkpt><trkpt lat="43.24557334728905" lon="12.959551199486118"><ele>437.00000000000006</ele><time>2026-04-26T10:51:48.999Z</time></trkpt><trkpt lat="43.24567294050372" lon="12.959446090656723"><ele>437.00000000000006</ele><time>2026-04-26T10:51:50.999Z</time></trkpt><trkpt lat="43.245741736542946" lon="12.959395002771844"><ele>437.0</ele><time>2026-04-26T10:51:51.999Z</time></trkpt><trkpt lat="43.245822805384705" lon="12.959359260847197"><ele>437.0</ele><time>2026-04-26T10:51:52.999Z</time></trkpt><trkpt lat="43.245908775585704" lon="12.9593418962715"><ele>435.8</ele><time>2026-04-26T10:51:53.999Z</time></trkpt><trkpt lat="43.24600575848244" lon="12.959340611050257"><ele>434.6</ele><time>2026-04-26T10:51:54.999Z</time></trkpt><trkpt lat="43.246110479683004" lon="12.959340889146286"><ele>433.40000000000003</ele><time>2026-04-26T10:51:55.999Z</time></trkpt><trkpt lat="43.2462242563675" lon="12.959340917598963"><ele>432.20000000000005</ele><time>2026-04-26T10:51:56.999Z</time></trkpt><trkpt lat="43.24633533488707" lon="12.959341987144127"><ele>431.0</ele><time>2026-04-26T10:51:57.999Z</time></trkpt><trkpt lat="43.24645002292987" lon="12.95934254793553"><ele>430.8</ele><time>2026-04-26T10:51:58.999Z</time></trkpt><trkpt lat="43.24656608056834" lon="12.959344068452477"><ele>430.6</ele><time>2026-04-26T10:51:59.999Z</time></trkpt><trkpt lat="43.24667553891335" lon="12.959345074840481"><ele>430.4</ele><time>2026-04-26T10:52:00.999Z</time></trkpt><trkpt lat="43.24678639454355" lon="12.959339495128097"><ele>430.2</ele><time>2026-04-26T10:52:01.999Z</time></trkpt><trkpt lat="43.24689150719726" lon="12.959311273535372"><ele>430.0</ele><time>2026-04-26T10:52:02.999Z</time></trkpt><trkpt lat="43.24699823630196" lon="12.959271242486873"><ele>430.0</ele><time>2026-04-26T10:52:03.999Z</time></trkpt><trkpt lat="43.24711129998298" lon="12.959227872944608"><ele>430.0</ele><time>2026-04-26T10:52:04.999Z</time></trkpt><trkpt lat="43.247231920030885" lon="12.959181309156852"><ele>430.0</ele><time>2026-04-26T10:52:05.999Z</time></trkpt><trkpt lat="43.24735875196239" lon="12.95912479182227"><ele>430.0</ele><time>2026-04-26T10:52:06.999Z</time></trkpt><trkpt lat="43.247492205216545" lon="12.95906111354012"><ele>430.25</ele><time>2026-04-26T10:52:07.999Z</time></trkpt><trkpt lat="43.247631458851764" lon="12.959000550730412"><ele>430.5</ele><time>2026-04-26T10:52:08.999Z</time></trkpt><trkpt lat="43.24777677031799" lon="12.958940223584293"><ele>430.75</ele><time>2026-04-26T10:52:09.999Z</time></trkpt><trkpt lat="43.247921188123776" lon="12.958879817568695"><ele>431.0</ele><time>2026-04-26T10:52:10.999Z</time></trkpt><trkpt lat="43.24806245408204" lon="12.958813748260381"><ele>429.3333333333333</ele><time>2026-04-26T10:52:11.999Z</time></trkpt><trkpt lat="43.24819742371944" lon="12.958717526367256"><ele>427.66666666666663</ele><time>2026-04-26T10:52:12.999Z</time></trkpt><trkpt lat="43.24832646787052" lon="12.958591577686231"><ele>426.0</ele><time>2026-04-26T10:52:13.999Z</time></trkpt><trkpt lat="43.248457053174455" lon="12.958461011426953"><ele>426.66666666666663</ele><time>2026-04-26T10:52:14.998Z</time></trkpt><trkpt lat="43.24859632589123" lon="12.958347632843124"><ele>427.3333333333333</ele><time>2026-04-26T10:52:15.998Z</time></trkpt><trkpt lat="43.24874082668427" lon="12.958248342434468"><ele>428.0</ele><time>2026-04-26T10:52:16.998Z</time></trkpt><trkpt lat="43.24888545520777" lon="12.958144115808876"><ele>427.3333333333333</ele><time>2026-04-26T10:52:17.998Z</time></trkpt><trkpt lat="43.249027485334075" lon="12.95802649311277"><ele>426.66666666666663</ele><time>2026-04-26T10:52:18.998Z</time></trkpt><trkpt lat="43.24916934566614" lon="12.957900660667201"><ele>426.0</ele><time>2026-04-26T10:52:20Z</time></trkpt><trkpt lat="43.24931188357661" lon="12.957771313096817"><ele>426.0</ele><time>2026-04-26T10:52:21Z</time></trkpt><trkpt lat="43.24945402558182" lon="12.957632670129541"><ele>426.0</ele><time>2026-04-26T10:52:22Z</time></trkpt><trkpt lat="43.24959544707861" lon="12.957491441767816"><ele>426.0</ele><time>2026-04-26T10:52:23Z</time></trkpt><trkpt lat="43.249743741963336" lon="12.957357567693931"><ele>426.66666666666663</ele><time>2026-04-26T10:52:24Z</time></trkpt><trkpt lat="43.249891439309856" lon="12.957227146060955"><ele>427.3333333333333</ele><time>2026-04-26T10:52:25Z</time></trkpt><trkpt lat="43.25003738151028" lon="12.957088376453413"><ele>428.0</ele><time>2026-04-26T10:52:26Z</time></trkpt><trkpt lat="43.250178267568764" lon="12.956943882391656"><ele>428.0</ele><time>2026-04-26T10:52:27Z</time></trkpt><trkpt lat="43.250313750671246" lon="12.956800171871885"><ele>428.0</ele><time>2026-04-26T10:52:28Z</time></trkpt><trkpt lat="43.25044499994172" lon="12.956661540528145"><ele>428.0</ele><time>2026-04-26T10:52:29Z</time></trkpt><trkpt lat="43.25056840385879" lon="12.956531371044875"><ele>428.0</ele><time>2026-04-26T10:52:30Z</time></trkpt><trkpt lat="43.250685659861276" lon="12.956408791068617"><ele>428.0</ele><time>2026-04-26T10:52:31Z</time></trkpt><trkpt lat="43.2508043792881" lon="12.956302588421615"><ele>428.0</ele><time>2026-04-26T10:52:32Z</time></trkpt><trkpt lat="43.250918420852564" lon="12.956213454066773"><ele>428.0</ele><time>2026-04-26T10:52:33Z</time></trkpt><trkpt lat="43.251023316204694" lon="12.956132495750307"><ele>428.0</ele><time>2026-04-26T10:52:34Z</time></trkpt><trkpt lat="43.25110700811857" lon="12.956039815535926"><ele>427.99999999999994</ele><time>2026-04-26T10:52:35Z</time></trkpt><trkpt lat="43.25117663906805" lon="12.955933138152833"><ele>427.99999999999994</ele><time>2026-04-26T10:52:36Z</time></trkpt><trkpt lat="43.251198626356896" lon="12.955803722680448"><ele>428.0</ele><time>2026-04-26T10:52:37Z</time></trkpt><trkpt lat="43.2511970634308" lon="12.955657260285822"><ele>428.0</ele><time>2026-04-26T10:52:38Z</time></trkpt><trkpt lat="43.25114768110752" lon="12.9555190658773"><ele>428.5</ele><time>2026-04-26T10:52:39Z</time></trkpt><trkpt lat="43.25108504375491" lon="12.955379919189085"><ele>429.0</ele><time>2026-04-26T10:52:40Z</time></trkpt><trkpt lat="43.25103546396551" lon="12.95523403457567"><ele>429.5</ele><time>2026-04-26T10:52:41Z</time></trkpt><trkpt lat="43.251031243115364" lon="12.955079897516471"><ele>430.0</ele><time>2026-04-26T10:52:42Z</time></trkpt><trkpt lat="43.251066738960404" lon="12.954922782096876"><ele>430.25</ele><time>2026-04-26T10:52:43Z</time></trkpt><trkpt lat="43.251088956435765" lon="12.954746919563974"><ele>430.5</ele><time>2026-04-26T10:52:44Z</time></trkpt><trkpt lat="43.25113686130142" lon="12.954570956368075"><ele>430.75</ele><time>2026-04-26T10:52:45Z</time></trkpt><trkpt lat="43.25112401490338" lon="12.954376167021737"><ele>431.0</ele><time>2026-04-26T10:52:46Z</time></trkpt><trkpt lat="43.25110454478953" lon="12.954184755923896"><ele>431.25</ele><time>2026-04-26T10:52:47Z</time></trkpt><trkpt lat="43.2510914322722" lon="12.953988326205296"><ele>431.5</ele><time>2026-04-26T10:52:48Z</time></trkpt><trkpt lat="43.25105275762109" lon="12.953793626971658"><ele>431.75</ele><time>2026-04-26T10:52:49Z</time></trkpt><trkpt lat="43.251004890969796" lon="12.95361008221117"><ele>432.0</ele><time>2026-04-26T10:52:50Z</time></trkpt><trkpt lat="43.25093309903695" lon="12.953462552832201"><ele>432.40000000000003</ele><time>2026-04-26T10:52:51Z</time></trkpt><trkpt lat="43.25088523282294" lon="12.953321149808833"><ele>432.80000000000007</ele><time>2026-04-26T10:52:52Z</time></trkpt><trkpt lat="43.250855236363435" lon="12.95318271147631"><ele>433.2</ele><time>2026-04-26T10:52:53Z</time></trkpt><trkpt lat="43.25085678203153" lon="12.953052286829012"><ele>433.6</ele><time>2026-04-26T10:52:54Z</time></trkpt><trkpt lat="43.25087303858258" lon="12.952909519117776"><ele>434.0</ele><time>2026-04-26T10:52:55Z</time></trkpt><trkpt lat="43.25089554801833" lon="12.952761316875751"><ele>434.0</ele><time>2026-04-26T10:52:56Z</time></trkpt><trkpt lat="43.25091832064522" lon="12.952604296109312"><ele>434.0</ele><time>2026-04-26T10:52:57Z</time></trkpt><trkpt lat="43.25095739960471" lon="12.952438451376926"><ele>434.0</ele><time>2026-04-26T10:52:58Z</time></trkpt><trkpt lat="43.25098057208895" lon="12.95225749536591"><ele>434.0</ele><time>2026-04-26T10:52:59Z</time></trkpt><trkpt lat="43.251001071874384" lon="12.952062955042285"><ele>435.0</ele><time>2026-04-26T10:53:00Z</time></trkpt><trkpt lat="43.25100829343818" lon="12.951859697236298"><ele>436.0</ele><time>2026-04-26T10:53:01Z</time></trkpt><trkpt lat="43.2510329122305" lon="12.951666930646248"><ele>437.0</ele><time>2026-04-26T10:53:02Z</time></trkpt><trkpt lat="43.251053970259775" lon="12.951487667776828"><ele>438.0</ele><time>2026-04-26T10:53:03Z</time></trkpt><trkpt lat="43.25107438697686" lon="12.9513212427947"><ele>438.5</ele><time>2026-04-26T10:53:04Z</time></trkpt><trkpt lat="43.251094704199495" lon="12.95115791318899"><ele>439.0</ele><time>2026-04-26T10:53:05Z</time></trkpt><trkpt lat="43.25113809756257" lon="12.95100137725823"><ele>439.5</ele><time>2026-04-26T10:53:06Z</time></trkpt><trkpt lat="43.251148638259295" lon="12.950831475004165"><ele>440.0</ele><time>2026-04-26T10:53:07Z</time></trkpt><trkpt lat="43.25117725846178" lon="12.950673997892203"><ele>440.5</ele><time>2026-04-26T10:53:08Z</time></trkpt><trkpt lat="43.25119405055388" lon="12.950516888475969"><ele>441.0</ele><time>2026-04-26T10:53:09Z</time></trkpt><trkpt lat="43.2511938610453" lon="12.950358406284783"><ele>441.5</ele><time>2026-04-26T10:53:10Z</time></trkpt><trkpt lat="43.25118493410811" lon="12.950202197083575"><ele>442.0</ele><time>2026-04-26T10:53:11Z</time></trkpt><trkpt lat="43.25119343881945" lon="12.95005114389143"><ele>441.8</ele><time>2026-04-26T10:53:12Z</time></trkpt><trkpt lat="43.25117792415478" lon="12.949913415144763"><ele>441.6</ele><time>2026-04-26T10:53:13Z</time></trkpt><trkpt lat="43.25120165113781" lon="12.949790970806111"><ele>441.40000000000003</ele><time>2026-04-26T10:53:14Z</time></trkpt><trkpt lat="43.25125818582101" lon="12.949690224512647"><ele>441.20000000000005</ele><time>2026-04-26T10:53:15Z</time></trkpt><trkpt lat="43.25133156656411" lon="12.949629337148108"><ele>441.0</ele><time>2026-04-26T10:53:16Z</time></trkpt><trkpt lat="43.25140443881606" lon="12.94959138223165"><ele>440.0</ele><time>2026-04-26T10:53:17Z</time></trkpt><trkpt lat="43.25147948260085" lon="12.94956073526532"><ele>439.0</ele><time>2026-04-26T10:53:17.999Z</time></trkpt><trkpt lat="43.25156530753488" lon="12.949558623993383"><ele>438.0</ele><time>2026-04-26T10:53:18.999Z</time></trkpt><trkpt lat="43.25165655713071" lon="12.94959010101088"><ele>437.0</ele><time>2026-04-26T10:53:19.999Z</time></trkpt><trkpt lat="43.251753382138006" lon="12.949634718989854"><ele>436.0</ele><time>2026-04-26T10:53:20.999Z</time></trkpt><trkpt lat="43.25184372533047" lon="12.949686055907463"><ele>436.0</ele><time>2026-04-26T10:53:21.999Z</time></trkpt><trkpt lat="43.251930291535466" lon="12.949747974409844"><ele>436.0</ele><time>2026-04-26T10:53:22.999Z</time></trkpt><trkpt lat="43.252020914349" lon="12.949797433380237"><ele>436.0</ele><time>2026-04-26T10:53:23.999Z</time></trkpt><trkpt lat="43.25211563616626" lon="12.949810064339673"><ele>436.0</ele><time>2026-04-26T10:53:24.999Z</time></trkpt><trkpt lat="43.25220170368259" lon="12.949781693100352"><ele>436.0</ele><time>2026-04-26T10:53:25.999Z</time></trkpt><trkpt lat="43.25227645323937" lon="12.94973955049604"><ele>436.6666666666667</ele><time>2026-04-26T10:53:26.999Z</time></trkpt><trkpt lat="43.2523443867487" lon="12.949716289990356"><ele>437.33333333333337</ele><time>2026-04-26T10:53:27.999Z</time></trkpt><trkpt lat="43.25241906372083" lon="12.949688038467038"><ele>438.0</ele><time>2026-04-26T10:53:29.999Z</time></trkpt><trkpt lat="43.25250802892201" lon="12.94966845787197"><ele>438.66666666666663</ele><time>2026-04-26T10:53:32.999Z</time></trkpt><trkpt lat="43.252621331073094" lon="12.949613774129304"><ele>439.3333333333333</ele><time>2026-04-26T10:53:34.999Z</time></trkpt><trkpt lat="43.252686681218535" lon="12.949588552012436"><ele>440.0</ele><time>2026-04-26T10:53:35.999Z</time></trkpt><trkpt lat="43.25274886267794" lon="12.949568516373704"><ele>440.0</ele><time>2026-04-26T10:53:36.999Z</time></trkpt><trkpt lat="43.25287247654288" lon="12.949528161014092"><ele>440.0</ele><time>2026-04-26T10:53:38.999Z</time></trkpt><trkpt lat="43.252937458553994" lon="12.949587964731727"><ele>440.0</ele><time>2026-04-26T10:53:42.999Z</time></trkpt><trkpt lat="43.25297122056884" lon="12.949783006037174"><ele>440.0</ele><time>2026-04-26T10:53:45.999Z</time></trkpt><trkpt lat="43.25300389117257" lon="12.94988544664905"><ele>440.0</ele><time>2026-04-26T10:53:47.999Z</time></trkpt><trkpt lat="43.25303646483779" lon="12.949979056277778"><ele>440.16666666666663</ele><time>2026-04-26T10:53:49.999Z</time></trkpt><trkpt lat="43.253065476868144" lon="12.950076405996066"><ele>440.3333333333333</ele><time>2026-04-26T10:53:51.999Z</time></trkpt><trkpt lat="43.25309071869054" lon="12.950167646204612"><ele>440.5</ele><time>2026-04-26T10:53:53.999Z</time></trkpt><trkpt lat="43.253112245766275" lon="12.9502645480021"><ele>440.66666666666663</ele><time>2026-04-26T10:53:57.999Z</time></trkpt><trkpt lat="43.25319410845941" lon="12.950253906120874"><ele>440.8333333333333</ele><time>2026-04-26T10:53:59.999Z</time></trkpt><trkpt lat="43.253284214572496" lon="12.950229707553776"><ele>441.0</ele><time>2026-04-26T10:54:01.999Z</time></trkpt><trkpt lat="43.253337888402946" lon="12.950172324320905"><ele>441.0</ele><time>2026-04-26T10:54:04.999Z</time></trkpt><trkpt lat="43.25332757761898" lon="12.950082410052309"><ele>441.0</ele><time>2026-04-26T10:54:05.999Z</time></trkpt><trkpt lat="43.253275188331536" lon="12.949942070185584"><ele>441.0</ele><time>2026-04-26T10:54:07.999Z</time></trkpt><trkpt lat="43.25324543364809" lon="12.949857008204836"><ele>441.0</ele><time>2026-04-26T10:54:08.999Z</time></trkpt><trkpt lat="43.253202474478506" lon="12.949707367682004"><ele>441.0</ele><time>2026-04-26T10:54:10.999Z</time></trkpt><trkpt lat="43.25317773107568" lon="12.9495794513459"><ele>440.8333333333333</ele><time>2026-04-26T10:54:12.999Z</time></trkpt><trkpt lat="43.25316355533038" lon="12.949495211426976"><ele>440.66666666666663</ele><time>2026-04-26T10:54:14.999Z</time></trkpt><trkpt lat="43.25313202679255" lon="12.94940433682631"><ele>440.5</ele><time>2026-04-26T10:54:27Z</time></trkpt><trkpt lat="43.25301933522971" lon="12.949427600099977"><ele>440.3333333333333</ele><time>2026-04-26T10:54:30Z</time></trkpt><trkpt lat="43.25292363934655" lon="12.949502361147927"><ele>440.16666666666663</ele><time>2026-04-26T10:54:32Z</time></trkpt><trkpt lat="43.25285918995277" lon="12.94951949569014"><ele>440.0</ele><time>2026-04-26T10:54:33Z</time></trkpt><trkpt lat="43.25278900886342" lon="12.949535502392564"><ele>440.0</ele><time>2026-04-26T10:54:34Z</time></trkpt><trkpt lat="43.252723991734236" lon="12.949553549540019"><ele>440.0</ele><time>2026-04-26T10:54:35Z</time></trkpt><trkpt lat="43.25262986239996" lon="12.94958945760076"><ele>440.0</ele><time>2026-04-26T10:54:37Z</time></trkpt><trkpt lat="43.25255927281566" lon="12.94960560492263"><ele>440.0</ele><time>2026-04-26T10:54:40Z</time></trkpt><trkpt lat="43.25246976057214" lon="12.949647328312626"><ele>440.0</ele><time>2026-04-26T10:54:44Z</time></trkpt><trkpt lat="43.25232613800002" lon="12.949530885121819"><ele>439.2</ele><time>2026-04-26T10:54:46Z</time></trkpt><trkpt lat="43.2522529075322" lon="12.949709847649853"><ele>438.4</ele><time>2026-04-26T10:54:47Z</time></trkpt><trkpt lat="43.25216637753311" lon="12.949742019914897"><ele>437.6</ele><time>2026-04-26T10:54:48Z</time></trkpt><trkpt lat="43.25208690846789" lon="12.949763195066316"><ele>436.8</ele><time>2026-04-26T10:54:49Z</time></trkpt><trkpt lat="43.25200780405222" lon="12.949756165681489"><ele>436.0</ele><time>2026-04-26T10:54:50Z</time></trkpt><trkpt lat="43.251938918462336" lon="12.949713291465745"><ele>436.00000000000006</ele><time>2026-04-26T10:54:51Z</time></trkpt><trkpt lat="43.251876252940804" lon="12.94965845182782"><ele>436.0</ele><time>2026-04-26T10:54:52Z</time></trkpt><trkpt lat="43.25179328457147" lon="12.949609809646105"><ele>436.0</ele><time>2026-04-26T10:54:53Z</time></trkpt><trkpt lat="43.25170350362472" lon="12.94957000156369"><ele>436.0</ele><time>2026-04-26T10:54:54Z</time></trkpt><trkpt lat="43.25160966931922" lon="12.949541775319307"><ele>436.00000000000006</ele><time>2026-04-26T10:54:55Z</time></trkpt><trkpt lat="43.25152247943237" lon="12.949526269071272"><ele>436.0</ele><time>2026-04-26T10:54:56Z</time></trkpt><trkpt lat="43.25144792910331" lon="12.949534450739009"><ele>436.83333333333337</ele><time>2026-04-26T10:54:57Z</time></trkpt><trkpt lat="43.251382346658744" lon="12.949563417344141"><ele>437.6666666666667</ele><time>2026-04-26T10:54:58Z</time></trkpt><trkpt lat="43.25132438510038" lon="12.949599136833644"><ele>438.5</ele><time>2026-04-26T10:54:59Z</time></trkpt><trkpt lat="43.25126701702616" lon="12.949636800353913"><ele>439.33333333333337</ele><time>2026-04-26T10:55:00Z</time></trkpt><trkpt lat="43.251216971553134" lon="12.949695224693725"><ele>440.1666666666667</ele><time>2026-04-26T10:55:01Z</time></trkpt><trkpt lat="43.25115759946298" lon="12.949835400762153"><ele>441.0</ele><time>2026-04-26T10:55:03Z</time></trkpt><trkpt lat="43.25115406208326" lon="12.949972094591507"><ele>441.1666666666667</ele><time>2026-04-26T10:55:05Z</time></trkpt><trkpt lat="43.25116370279689" lon="12.950108918193466"><ele>441.33333333333337</ele><time>2026-04-26T10:55:07Z</time></trkpt><trkpt lat="43.25116802352669" lon="12.95019748822472"><ele>441.5</ele><time>2026-04-26T10:55:08Z</time></trkpt><trkpt lat="43.251172865639674" lon="12.950293841114428"><ele>441.6666666666667</ele><time>2026-04-26T10:55:09Z</time></trkpt><trkpt lat="43.25117412661514" lon="12.950405621919447"><ele>441.83333333333337</ele><time>2026-04-26T10:55:10Z</time></trkpt><trkpt lat="43.251171210360454" lon="12.950513404999246"><ele>442.0</ele><time>2026-04-26T10:55:11Z</time></trkpt><trkpt lat="43.25116305377428" lon="12.95063275109328"><ele>442.00000000000006</ele><time>2026-04-26T10:55:12Z</time></trkpt><trkpt lat="43.2511457523927" lon="12.950751102165823"><ele>442.0</ele><time>2026-04-26T10:55:13Z</time></trkpt><trkpt lat="43.25112598709308" lon="12.950860348922712"><ele>442.0</ele><time>2026-04-26T10:55:14Z</time></trkpt><trkpt lat="43.251107038593354" lon="12.950972611053544"><ele>442.0</ele><time>2026-04-26T10:55:15Z</time></trkpt><trkpt lat="43.25108911470574" lon="12.951091530778735"><ele>442.00000000000006</ele><time>2026-04-26T10:55:16Z</time></trkpt><trkpt lat="43.25107139813792" lon="12.951214508853784"><ele>442.0</ele><time>2026-04-26T10:55:16.999Z</time></trkpt><trkpt lat="43.25105196284635" lon="12.951334108959768"><ele>441.6</ele><time>2026-04-26T10:55:17.999Z</time></trkpt><trkpt lat="43.25103277088654" lon="12.951455516619674"><ele>441.20000000000005</ele><time>2026-04-26T10:55:18.999Z</time></trkpt><trkpt lat="43.2510186763238" lon="12.951584423842592"><ele>440.8</ele><time>2026-04-26T10:55:19.999Z</time></trkpt><trkpt lat="43.25100638107872" lon="12.951727505508874"><ele>440.4</ele><time>2026-04-26T10:55:20.999Z</time></trkpt><trkpt lat="43.25099448551159" lon="12.951874164921229"><ele>440.0</ele><time>2026-04-26T10:55:21.999Z</time></trkpt><trkpt lat="43.250976888890406" lon="12.952030896642453"><ele>439.5</ele><time>2026-04-26T10:55:22.999Z</time></trkpt><trkpt lat="43.250955059323985" lon="12.952198356117695"><ele>439.0</ele><time>2026-04-26T10:55:23.999Z</time></trkpt><trkpt lat="43.250929474009276" lon="12.952374823405977"><ele>438.5</ele><time>2026-04-26T10:55:24.999Z</time></trkpt><trkpt lat="43.25089930154348" lon="12.952553677662888"><ele>438.0</ele><time>2026-04-26T10:55:25.999Z</time></trkpt><trkpt lat="43.25086953297251" lon="12.95273441023553"><ele>437.0</ele><time>2026-04-26T10:55:26.999Z</time></trkpt><trkpt lat="43.25084398451514" lon="12.952909650859434"><ele>436.0</ele><time>2026-04-26T10:55:27.999Z</time></trkpt><trkpt lat="43.25083487026113" lon="12.953080346845635"><ele>435.0</ele><time>2026-04-26T10:55:28.999Z</time></trkpt><trkpt lat="43.250844518678974" lon="12.95324759745044"><ele>434.0</ele><time>2026-04-26T10:55:29.999Z</time></trkpt><trkpt lat="43.25088598191094" lon="12.953388083094334"><ele>433.5</ele><time>2026-04-26T10:55:30.999Z</time></trkpt><trkpt lat="43.250938103398234" lon="12.953526360823016"><ele>433.0</ele><time>2026-04-26T10:55:31.999Z</time></trkpt><trkpt lat="43.25098708877664" lon="12.953659418219075"><ele>432.5</ele><time>2026-04-26T10:55:32.999Z</time></trkpt><trkpt lat="43.25102550121739" lon="12.953806746955786"><ele>432.0</ele><time>2026-04-26T10:55:33.999Z</time></trkpt><trkpt lat="43.251051250744396" lon="12.953961974529133"><ele>432.0</ele><time>2026-04-26T10:55:34.999Z</time></trkpt><trkpt lat="43.251076117301174" lon="12.954123188448966"><ele>432.0</ele><time>2026-04-26T10:55:35.999Z</time></trkpt><trkpt lat="43.25109524075702" lon="12.954289676697835"><ele>432.0</ele><time>2026-04-26T10:55:36.999Z</time></trkpt><trkpt lat="43.251105617963006" lon="12.95445304380728"><ele>432.0</ele><time>2026-04-26T10:55:37.999Z</time></trkpt><trkpt lat="43.25110052614202" lon="12.954611763846705"><ele>431.8</ele><time>2026-04-26T10:55:38.999Z</time></trkpt><trkpt lat="43.25107002395494" lon="12.954760936890864"><ele>431.6</ele><time>2026-04-26T10:55:39.999Z</time></trkpt><trkpt lat="43.2510333955881" lon="12.954903419581852"><ele>431.40000000000003</ele><time>2026-04-26T10:55:40.999Z</time></trkpt><trkpt lat="43.25100446976576" lon="12.955048478778483"><ele>431.20000000000005</ele><time>2026-04-26T10:55:41.999Z</time></trkpt><trkpt lat="43.25099932387966" lon="12.955191049855808"><ele>431.0</ele><time>2026-04-26T10:55:42.999Z</time></trkpt><trkpt lat="43.25102774278295" lon="12.955326140181185"><ele>430.8</ele><time>2026-04-26T10:55:43.999Z</time></trkpt><trkpt lat="43.25107924937172" lon="12.955449907655005"><ele>430.6</ele><time>2026-04-26T10:55:44.999Z</time></trkpt><trkpt lat="43.251132342725676" lon="12.955570755208804"><ele>430.4</ele><time>2026-04-26T10:55:45.999Z</time></trkpt><trkpt lat="43.251170675465055" lon="12.955700788373429"><ele>430.2</ele><time>2026-04-26T10:55:46.999Z</time></trkpt><trkpt lat="43.2511826318053" lon="12.955836279132445"><ele>430.0</ele><time>2026-04-26T10:55:47.999Z</time></trkpt><trkpt lat="43.25114946047448" lon="12.955958839626337"><ele>429.6</ele><time>2026-04-26T10:55:48.999Z</time></trkpt><trkpt lat="43.25107594958569" lon="12.956051030430444"><ele>429.2</ele><time>2026-04-26T10:55:49.999Z</time></trkpt><trkpt lat="43.250984310916884" lon="12.956121430144776"><ele>428.79999999999995</ele><time>2026-04-26T10:55:50.999Z</time></trkpt><trkpt lat="43.25088771466376" lon="12.956192604352722"><ele>428.4</ele><time>2026-04-26T10:55:51.999Z</time></trkpt><trkpt lat="43.25078956758542" lon="12.95628121861038"><ele>428.0</ele><time>2026-04-26T10:55:52.999Z</time></trkpt><trkpt lat="43.250681280530564" lon="12.95637831527696"><ele>428.0</ele><time>2026-04-26T10:55:53.999Z</time></trkpt><trkpt lat="43.2505719352072" lon="12.956484880670354"><ele>428.0</ele><time>2026-04-26T10:55:54.999Z</time></trkpt><trkpt lat="43.25046651200175" lon="12.956594975200376"><ele>428.0</ele><time>2026-04-26T10:55:55.999Z</time></trkpt><trkpt lat="43.25036316563871" lon="12.956713371891581"><ele>428.0</ele><time>2026-04-26T10:55:56.999Z</time></trkpt><trkpt lat="43.25025818781493" lon="12.956830428809404"><ele>428.0</ele><time>2026-04-26T10:55:57.999Z</time></trkpt><trkpt lat="43.25014875312726" lon="12.956942494672296"><ele>428.0</ele><time>2026-04-26T10:55:58.999Z</time></trkpt><trkpt lat="43.25003976861793" lon="12.957050818260663"><ele>428.0</ele><time>2026-04-26T10:55:59.999Z</time></trkpt><trkpt lat="43.24993144232034" lon="12.957150143117438"><ele>428.0</ele><time>2026-04-26T10:56:00.999Z</time></trkpt><trkpt lat="43.2498237435241" lon="12.957248269195661"><ele>427.5</ele><time>2026-04-26T10:56:01.999Z</time></trkpt><trkpt lat="43.24971684622535" lon="12.957344772401498"><ele>427.0</ele><time>2026-04-26T10:56:02.999Z</time></trkpt><trkpt lat="43.249612995817586" lon="12.957439403039709"><ele>426.5</ele><time>2026-04-26T10:56:03.999Z</time></trkpt><trkpt lat="43.249509639201335" lon="12.957531707398745"><ele>426.0</ele><time>2026-04-26T10:56:04.999Z</time></trkpt><trkpt lat="43.249412511747394" lon="12.957622424612113"><ele>426.0</ele><time>2026-04-26T10:56:05.999Z</time></trkpt><trkpt lat="43.24931787681473" lon="12.957716007002288"><ele>426.0</ele><time>2026-04-26T10:56:06.999Z</time></trkpt><trkpt lat="43.24922612579859" lon="12.95781129018018"><ele>426.0</ele><time>2026-04-26T10:56:07.999Z</time></trkpt><trkpt lat="43.24913344730637" lon="12.957907954706226"><ele>426.0</ele><time>2026-04-26T10:56:08.999Z</time></trkpt><trkpt lat="43.24904524701367" lon="12.957993705579382"><ele>426.0</ele><time>2026-04-26T10:56:09.999Z</time></trkpt><trkpt lat="43.248959981324695" lon="12.958059240318454"><ele>426.0</ele><time>2026-04-26T10:56:10.999Z</time></trkpt><trkpt lat="43.24887420261333" lon="12.958112365865821"><ele>426.0</ele><time>2026-04-26T10:56:11.999Z</time></trkpt><trkpt lat="43.24878837067151" lon="12.958166078209162"><ele>426.0</ele><time>2026-04-26T10:56:12.999Z</time></trkpt><trkpt lat="43.24870130852434" lon="12.958235206840781"><ele>426.0</ele><time>2026-04-26T10:56:13.999Z</time></trkpt><trkpt lat="43.248609406104684" lon="12.958305121862148"><ele>426.0</ele><time>2026-04-26T10:56:14.999Z</time></trkpt><trkpt lat="43.24852103865532" lon="12.958375786254296"><ele>426.0</ele><time>2026-04-26T10:56:15.999Z</time></trkpt><trkpt lat="43.248432322605204" lon="12.958456678776992"><ele>426.0</ele><time>2026-04-26T10:56:16.999Z</time></trkpt><trkpt lat="43.24833923511637" lon="12.95854887101821"><ele>426.0</ele><time>2026-04-26T10:56:17.999Z</time></trkpt><trkpt lat="43.24823987557623" lon="12.958645196521902"><ele>426.0</ele><time>2026-04-26T10:56:18.998Z</time></trkpt><trkpt lat="43.24813110022203" lon="12.958725892988594"><ele>427.25</ele><time>2026-04-26T10:56:19.998Z</time></trkpt><trkpt lat="43.248012613546976" lon="12.958797021041997"><ele>428.5</ele><time>2026-04-26T10:56:20.998Z</time></trkpt><trkpt lat="43.24788621905663" lon="12.958860358474745"><ele>429.75</ele><time>2026-04-26T10:56:21.998Z</time></trkpt><trkpt lat="43.24775489342957" lon="12.958921036359383"><ele>431.0</ele><time>2026-04-26T10:56:22.998Z</time></trkpt><trkpt lat="43.24761829119627" lon="12.958984199229677"><ele>431.0</ele><time>2026-04-26T10:56:23.998Z</time></trkpt><trkpt lat="43.24747681715189" lon="12.959046380019322"><ele>431.0</ele><time>2026-04-26T10:56:24.998Z</time></trkpt><trkpt lat="43.247336442127505" lon="12.959105194456525"><ele>431.0</ele><time>2026-04-26T10:56:25.998Z</time></trkpt><trkpt lat="43.247191601268334" lon="12.959161122925314"><ele>431.0</ele><time>2026-04-26T10:56:26.998Z</time></trkpt><trkpt lat="43.24705695125713" lon="12.95921978165024"><ele>430.75</ele><time>2026-04-26T10:56:27.998Z</time></trkpt><trkpt lat="43.24693648485192" lon="12.959264065452691"><ele>430.5</ele><time>2026-04-26T10:56:28.998Z</time></trkpt><trkpt lat="43.24682186840251" lon="12.959295721129381"><ele>430.25</ele><time>2026-04-26T10:56:29.998Z</time></trkpt><trkpt lat="43.24670860188978" lon="12.95930513310227"><ele>430.0</ele><time>2026-04-26T10:56:30.998Z</time></trkpt><trkpt lat="43.246595782938584" lon="12.959307255222422"><ele>430.0</ele><time>2026-04-26T10:56:32Z</time></trkpt><trkpt lat="43.24647911703761" lon="12.95930591951565"><ele>430.0</ele><time>2026-04-26T10:56:33Z</time></trkpt><trkpt lat="43.24636229261233" lon="12.959306506476448"><ele>430.0</ele><time>2026-04-26T10:56:34Z</time></trkpt><trkpt lat="43.24624145798866" lon="12.959305810718318"><ele>430.0</ele><time>2026-04-26T10:56:35Z</time></trkpt><trkpt lat="43.24612259172018" lon="12.959306593918704"><ele>430.2</ele><time>2026-04-26T10:56:36Z</time></trkpt><trkpt lat="43.24601133002152" lon="12.959308953525788"><ele>430.4</ele><time>2026-04-26T10:56:37Z</time></trkpt><trkpt lat="43.24590543895863" lon="12.959308376500104"><ele>430.6</ele><time>2026-04-26T10:56:38Z</time></trkpt><trkpt lat="43.245809881772686" lon="12.959314571527747"><ele>430.8</ele><time>2026-04-26T10:56:39Z</time></trkpt><trkpt lat="43.24572978144805" lon="12.959336251807686"><ele>431.0</ele><time>2026-04-26T10:56:40Z</time></trkpt><trkpt lat="43.24566103920932" lon="12.959317644331911"><ele>430.99999999999994</ele><time>2026-04-26T10:56:41Z</time></trkpt><trkpt lat="43.245640582529944" lon="12.95940848475218"><ele>431.0</ele><time>2026-04-26T10:56:42Z</time></trkpt><trkpt lat="43.24561503501444" lon="12.959530892414639"><ele>431.0</ele><time>2026-04-26T10:56:45Z</time></trkpt><trkpt lat="43.245654730622455" lon="12.959602650464822"><ele>431.0</ele><time>2026-04-26T10:56:46Z</time></trkpt><trkpt lat="43.245721073552225" lon="12.959656199108455"><ele>430.99999999999994</ele><time>2026-04-26T10:56:47Z</time></trkpt><trkpt lat="43.24578251010017" lon="12.95970989027553"><ele>431.0</ele><time>2026-04-26T10:56:48Z</time></trkpt><trkpt lat="43.245850109090775" lon="12.95976927808056"><ele>431.0</ele><time>2026-04-26T10:56:49Z</time></trkpt><trkpt lat="43.24592379432315" lon="12.95983596389553"><ele>431.0</ele><time>2026-04-26T10:56:50Z</time></trkpt><trkpt lat="43.24600451028969" lon="12.959911640655172"><ele>431.0</ele><time>2026-04-26T10:56:51Z</time></trkpt><trkpt lat="43.24609701911668" lon="12.959993188559832"><ele>431.0</ele><time>2026-04-26T10:56:52Z</time></trkpt><trkpt lat="43.24619266559248" lon="12.960086268666126"><ele>431.0</ele><time>2026-04-26T10:56:53Z</time></trkpt><trkpt lat="43.246292871376596" lon="12.960183326698898"><ele>431.0</ele><time>2026-04-26T10:56:54Z</time></trkpt><trkpt lat="43.24640387097913" lon="12.960288459195892"><ele>431.0</ele><time>2026-04-26T10:56:55Z</time></trkpt><trkpt lat="43.24651742277916" lon="12.960390003017258"><ele>431.0</ele><time>2026-04-26T10:56:56Z</time></trkpt><trkpt lat="43.246624743656675" lon="12.96048732618007"><ele>431.0</ele><time>2026-04-26T10:56:57Z</time></trkpt><trkpt lat="43.24673190190172" lon="12.960587236319926"><ele>429.75</ele><time>2026-04-26T10:56:58Z</time></trkpt><trkpt lat="43.24684295161869" lon="12.960694512596852"><ele>428.5</ele><time>2026-04-26T10:56:59Z</time></trkpt><trkpt lat="43.24695877361367" lon="12.96080872028926"><ele>427.25</ele><time>2026-04-26T10:57:00Z</time></trkpt><trkpt lat="43.24708002634144" lon="12.960929801049401"><ele>426.0</ele><time>2026-04-26T10:57:01Z</time></trkpt><trkpt lat="43.24720499012851" lon="12.961056837720687"><ele>425.0</ele><time>2026-04-26T10:57:02Z</time></trkpt><trkpt lat="43.24733245438725" lon="12.961184226080148"><ele>424.0</ele><time>2026-04-26T10:57:03Z</time></trkpt><trkpt lat="43.24746792160919" lon="12.961316646957448"><ele>423.0</ele><time>2026-04-26T10:57:04Z</time></trkpt><trkpt lat="43.24760919589921" lon="12.96145408062661"><ele>423.0</ele><time>2026-04-26T10:57:05Z</time></trkpt><trkpt lat="43.24775555004429" lon="12.961597206866251"><ele>423.0</ele><time>2026-04-26T10:57:06Z</time></trkpt><trkpt lat="43.24790280800546" lon="12.961746598160499"><ele>423.0</ele><time>2026-04-26T10:57:07Z</time></trkpt><trkpt lat="43.24804906925658" lon="12.961895636078996"><ele>421.33333333333337</ele><time>2026-04-26T10:57:08Z</time></trkpt><trkpt lat="43.24819460143389" lon="12.962039057531001"><ele>419.6666666666667</ele><time>2026-04-26T10:57:09Z</time></trkpt><trkpt lat="43.24833554508775" lon="12.962181020091919"><ele>418.0</ele><time>2026-04-26T10:57:10Z</time></trkpt><trkpt lat="43.2484699408188" lon="12.962320562001729"><ele>418.0</ele><time>2026-04-26T10:57:11Z</time></trkpt><trkpt lat="43.2486006776289" lon="12.962455667528697"><ele>418.0</ele><time>2026-04-26T10:57:12Z</time></trkpt><trkpt lat="43.248726345851914" lon="12.962586557127349"><ele>418.0</ele><time>2026-04-26T10:57:13Z</time></trkpt><trkpt lat="43.24883573576301" lon="12.962739095172227"><ele>418.0</ele><time>2026-04-26T10:57:14Z</time></trkpt><trkpt lat="43.24894597144017" lon="12.962880138959052"><ele>418.0</ele><time>2026-04-26T10:57:15Z</time></trkpt><trkpt lat="43.24906575228804" lon="12.963018378697909"><ele>418.0</ele><time>2026-04-26T10:57:16Z</time></trkpt><trkpt lat="43.24916772657113" lon="12.963184134248761"><ele>417.6666666666667</ele><time>2026-04-26T10:57:17Z</time></trkpt><trkpt lat="43.24927040113451" lon="12.963357481702168"><ele>417.33333333333337</ele><time>2026-04-26T10:57:17.999Z</time></trkpt><trkpt lat="43.24937557876131" lon="12.96353529959172"><ele>417.0</ele><time>2026-04-26T10:57:18.999Z</time></trkpt><trkpt lat="43.24947719803341" lon="12.96370905440114"><ele>416.5</ele><time>2026-04-26T10:57:19.999Z</time></trkpt><trkpt lat="43.24957267118296" lon="12.963875508771531"><ele>416.0</ele><time>2026-04-26T10:57:20.999Z</time></trkpt><trkpt lat="43.249653966809554" lon="12.964026998477884"><ele>415.5</ele><time>2026-04-26T10:57:21.999Z</time></trkpt><trkpt lat="43.249727200308534" lon="12.964175012673756"><ele>415.0</ele><time>2026-04-26T10:57:22.999Z</time></trkpt><trkpt lat="43.249789245989476" lon="12.964322156799927"><ele>414.6</ele><time>2026-04-26T10:57:23.999Z</time></trkpt><trkpt lat="43.24984245657217" lon="12.964467041415588"><ele>414.2</ele><time>2026-04-26T10:57:24.999Z</time></trkpt><trkpt lat="43.249896597189256" lon="12.964605031680351"><ele>413.79999999999995</ele><time>2026-04-26T10:57:25.999Z</time></trkpt><trkpt lat="43.2499534688861" lon="12.964735055555067"><ele>413.4</ele><time>2026-04-26T10:57:26.999Z</time></trkpt><trkpt lat="43.25000721387" lon="12.964859831887603"><ele>413.0</ele><time>2026-04-26T10:57:27.999Z</time></trkpt><trkpt lat="43.25004908453363" lon="12.964961972036402"><ele>413.0</ele><time>2026-04-26T10:57:28.999Z</time></trkpt><trkpt lat="43.25008394163207" lon="12.965064017011422"><ele>413.0</ele><time>2026-04-26T10:57:30.999Z</time></trkpt><trkpt lat="43.25023052560884" lon="12.965021366363601"><ele>413.0</ele><time>2026-04-26T10:57:33.999Z</time></trkpt><trkpt lat="43.250342170236316" lon="12.964974510276301"><ele>413.0</ele><time>2026-04-26T10:57:35.999Z</time></trkpt><trkpt lat="43.25040424638119" lon="12.96493375588778"><ele>413.0</ele><time>2026-04-26T10:57:36.999Z</time></trkpt><trkpt lat="43.25046324415806" lon="12.964880309294989"><ele>413.0</ele><time>2026-04-26T10:57:37.999Z</time></trkpt><trkpt lat="43.250511430841534" lon="12.964816920656693"><ele>413.0</ele><time>2026-04-26T10:57:38.999Z</time></trkpt><trkpt lat="43.25054899126775" lon="12.96474547897763"><ele>413.0</ele><time>2026-04-26T10:57:39.999Z</time></trkpt><trkpt lat="43.25057971720755" lon="12.964667340317028"><ele>413.0</ele><time>2026-04-26T10:57:40.999Z</time></trkpt><trkpt lat="43.25059999121665" lon="12.964580524752359"><ele>413.0</ele><time>2026-04-26T10:57:41.999Z</time></trkpt><trkpt lat="43.25061079536331" lon="12.964488875551215"><ele>413.0</ele><time>2026-04-26T10:57:42.999Z</time></trkpt><trkpt lat="43.25062583713815" lon="12.96439694408991"><ele>413.0</ele><time>2026-04-26T10:57:43.999Z</time></trkpt><trkpt lat="43.25067917006059" lon="12.964253006761016"><ele>413.16666666666663</ele><time>2026-04-26T10:57:45.999Z</time></trkpt><trkpt lat="43.250732268398146" lon="12.964172998863855"><ele>413.3333333333333</ele><time>2026-04-26T10:57:47.999Z</time></trkpt><trkpt lat="43.25078145205893" lon="12.964107708701041"><ele>413.5</ele><time>2026-04-26T10:57:49.999Z</time></trkpt><trkpt lat="43.25083835071096" lon="12.964045406907246"><ele>413.66666666666663</ele><time>2026-04-26T10:57:52.999Z</time></trkpt><trkpt lat="43.250892799267184" lon="12.963991435577878"><ele>413.8333333333333</ele><time>2026-04-26T10:57:57.999Z</time></trkpt><trkpt lat="43.250899088634036" lon="12.963836206451141"><ele>414.0</ele><time>2026-04-26T10:58:06.999Z</time></trkpt><trkpt lat="43.250938815657946" lon="12.963734652249729"><ele>414.0</ele><time>2026-04-26T10:58:08.999Z</time></trkpt><trkpt lat="43.2509394387927" lon="12.963637171813328"><ele>414.0</ele><time>2026-04-26T10:58:11.999Z</time></trkpt><trkpt lat="43.250897810111155" lon="12.963746398813559"><ele>414.0</ele><time>2026-04-26T10:58:18.999Z</time></trkpt><trkpt lat="43.250868248658335" lon="12.963912001208332"><ele>414.0</ele><time>2026-04-26T10:58:20.998Z</time></trkpt><trkpt lat="43.25083499978827" lon="12.963994935815075"><ele>414.0</ele><time>2026-04-26T10:58:21.998Z</time></trkpt><trkpt lat="43.25079235637749" lon="12.96406669603109"><ele>414.0</ele><time>2026-04-26T10:58:22.998Z</time></trkpt><trkpt lat="43.2507480610697" lon="12.964133352320797"><ele>413.8571428571429</ele><time>2026-04-26T10:58:23.998Z</time></trkpt><trkpt lat="43.25070059034799" lon="12.964203259016244"><ele>413.7142857142857</ele><time>2026-04-26T10:58:24.998Z</time></trkpt><trkpt lat="43.25065159438963" lon="12.964283173875927"><ele>413.57142857142856</ele><time>2026-04-26T10:58:25.998Z</time></trkpt><trkpt lat="43.2506142160532" lon="12.964378245034872"><ele>413.42857142857144</ele><time>2026-04-26T10:58:26.998Z</time></trkpt><trkpt lat="43.2505932001374" lon="12.964477727043155"><ele>413.2857142857143</ele><time>2026-04-26T10:58:27.998Z</time></trkpt><trkpt lat="43.25058094076879" lon="12.96457873076862"><ele>413.14285714285717</ele><time>2026-04-26T10:58:28.998Z</time></trkpt><trkpt lat="43.2505625252382" lon="12.964668219663915"><ele>413.0</ele><time>2026-04-26T10:58:29.998Z</time></trkpt><trkpt lat="43.25053360195627" lon="12.964748143407455"><ele>413.0</ele><time>2026-04-26T10:58:30.998Z</time></trkpt><trkpt lat="43.250495083986664" lon="12.964818070745165"><ele>413.0</ele><time>2026-04-26T10:58:31.998Z</time></trkpt><trkpt lat="43.250408015738735" lon="12.964921148553294"><ele>413.0</ele><time>2026-04-26T10:58:33.998Z</time></trkpt><trkpt lat="43.25030788281075" lon="12.964978729825884"><ele>413.0</ele><time>2026-04-26T10:58:35.998Z</time></trkpt><trkpt lat="43.2502020783879" lon="12.965003854736807"><ele>413.0</ele><time>2026-04-26T10:58:38Z</time></trkpt><trkpt lat="43.25013565582787" lon="12.965014858152962"><ele>413.2</ele><time>2026-04-26T10:58:40Z</time></trkpt><trkpt lat="43.250099609911395" lon="12.965141891675872"><ele>413.4</ele><time>2026-04-26T10:58:43Z</time></trkpt><trkpt lat="43.250126646343226" lon="12.965241872447638"><ele>413.59999999999997</ele><time>2026-04-26T10:58:44Z</time></trkpt><trkpt lat="43.25016808313791" lon="12.965344729904603"><ele>413.79999999999995</ele><time>2026-04-26T10:58:45Z</time></trkpt><trkpt lat="43.250215820668295" lon="12.965464347599875"><ele>414.0</ele><time>2026-04-26T10:58:46Z</time></trkpt><trkpt lat="43.25026472374648" lon="12.965608812706954"><ele>414.0</ele><time>2026-04-26T10:58:47Z</time></trkpt><trkpt lat="43.25030587270405" lon="12.965764075577436"><ele>414.0</ele><time>2026-04-26T10:58:48Z</time></trkpt><trkpt lat="43.250338977443924" lon="12.965911705369637"><ele>414.0</ele><time>2026-04-26T10:58:49Z</time></trkpt><trkpt lat="43.250376693746475" lon="12.966066309392257"><ele>414.0</ele><time>2026-04-26T10:58:50Z</time></trkpt><trkpt lat="43.25042326916224" lon="12.966232297100898"><ele>412.75</ele><time>2026-04-26T10:58:51Z</time></trkpt><trkpt lat="43.250472366421924" lon="12.96641152508327"><ele>411.5</ele><time>2026-04-26T10:58:52Z</time></trkpt><trkpt lat="43.250518940565335" lon="12.966600729217912"><ele>410.25</ele><time>2026-04-26T10:58:53Z</time></trkpt><trkpt lat="43.25056502462031" lon="12.966785224503274"><ele>409.0</ele><time>2026-04-26T10:58:54Z</time></trkpt><trkpt lat="43.250611896139674" lon="12.966957612974152"><ele>409.25</ele><time>2026-04-26T10:58:55Z</time></trkpt><trkpt lat="43.25065528499294" lon="12.967123923793874"><ele>409.5</ele><time>2026-04-26T10:58:56Z</time></trkpt><trkpt lat="43.25069597728369" lon="12.96728687762776"><ele>409.75</ele><time>2026-04-26T10:58:57Z</time></trkpt><trkpt lat="43.25073342390275" lon="12.967433288468566"><ele>410.0</ele><time>2026-04-26T10:58:58Z</time></trkpt><trkpt lat="43.25076963225047" lon="12.967570389413659"><ele>410.5</ele><time>2026-04-26T10:58:59Z</time></trkpt><trkpt lat="43.25077474442888" lon="12.967702262268945"><ele>411.0</ele><time>2026-04-26T10:59:00Z</time></trkpt><trkpt lat="43.250788002918284" lon="12.967813818197012"><ele>411.5</ele><time>2026-04-26T10:59:01Z</time></trkpt><trkpt lat="43.25079949187358" lon="12.967957348502827"><ele>412.0</ele><time>2026-04-26T10:59:03Z</time></trkpt><trkpt lat="43.250994553864594" lon="12.967905150884505"><ele>412.0</ele><time>2026-04-26T10:59:05Z</time></trkpt><trkpt lat="43.2510975763713" lon="12.967806165387778"><ele>412.0</ele><time>2026-04-26T10:59:07Z</time></trkpt><trkpt lat="43.25115860692395" lon="12.967718148795097"><ele>412.0</ele><time>2026-04-26T10:59:08Z</time></trkpt><trkpt lat="43.25120778332521" lon="12.967581400319718"><ele>412.0</ele><time>2026-04-26T10:59:09Z</time></trkpt><trkpt lat="43.25126783596495" lon="12.96742505832385"><ele>411.5</ele><time>2026-04-26T10:59:10Z</time></trkpt><trkpt lat="43.251334091436995" lon="12.967263654671893"><ele>411.0</ele><time>2026-04-26T10:59:11Z</time></trkpt><trkpt lat="43.25139829959189" lon="12.967097304213903"><ele>410.5</ele><time>2026-04-26T10:59:12Z</time></trkpt><trkpt lat="43.251465340461614" lon="12.966919282469409"><ele>410.0</ele><time>2026-04-26T10:59:13Z</time></trkpt><trkpt lat="43.25153723953148" lon="12.966732505552836"><ele>411.0</ele><time>2026-04-26T10:59:14Z</time></trkpt><trkpt lat="43.25161278916226" lon="12.966537897302645"><ele>412.0</ele><time>2026-04-26T10:59:15Z</time></trkpt><trkpt lat="43.25169321903095" lon="12.966331303957116"><ele>413.0</ele><time>2026-04-26T10:59:16Z</time></trkpt><trkpt lat="43.25177472285261" lon="12.96612389946568"><ele>413.0</ele><time>2026-04-26T10:59:17Z</time></trkpt><trkpt lat="43.25185742307311" lon="12.965912222681943"><ele>413.0</ele><time>2026-04-26T10:59:18Z</time></trkpt><trkpt lat="43.251946092063406" lon="12.965696244357465"><ele>413.0</ele><time>2026-04-26T10:59:19Z</time></trkpt><trkpt lat="43.25203963310413" lon="12.965464274822452"><ele>413.3333333333333</ele><time>2026-04-26T10:59:20Z</time></trkpt><trkpt lat="43.252133332056296" lon="12.965239240588842"><ele>413.66666666666663</ele><time>2026-04-26T10:59:21Z</time></trkpt><trkpt lat="43.25222637555209" lon="12.965001138458211"><ele>414.0</ele><time>2026-04-26T10:59:22Z</time></trkpt><trkpt lat="43.25231872139114" lon="12.964766747088603"><ele>415.33333333333337</ele><time>2026-04-26T10:59:22.999Z</time></trkpt><trkpt lat="43.25241324091312" lon="12.964532433254229"><ele>416.6666666666667</ele><time>2026-04-26T10:59:23.999Z</time></trkpt><trkpt lat="43.252507513345435" lon="12.964296909933724"><ele>418.0</ele><time>2026-04-26T10:59:24.999Z</time></trkpt><trkpt lat="43.25259316880556" lon="12.964065214507345"><ele>418.0</ele><time>2026-04-26T10:59:25.999Z</time></trkpt><trkpt lat="43.25266077283203" lon="12.963841921900404"><ele>418.0</ele><time>2026-04-26T10:59:26.999Z</time></trkpt><trkpt lat="43.25268500400797" lon="12.9636229167224"><ele>418.0</ele><time>2026-04-26T10:59:27.999Z</time></trkpt><trkpt lat="43.25270532457072" lon="12.96340951268445"><ele>417.6666666666667</ele><time>2026-04-26T10:59:28.999Z</time></trkpt><trkpt lat="43.252709454600634" lon="12.963195829656021"><ele>417.33333333333337</ele><time>2026-04-26T10:59:29.999Z</time></trkpt><trkpt lat="43.252714335816655" lon="12.962986296454886"><ele>417.0</ele><time>2026-04-26T10:59:30.999Z</time></trkpt><trkpt lat="43.25270523362522" lon="12.96276953584326"><ele>417.0</ele><time>2026-04-26T10:59:31.999Z</time></trkpt><trkpt lat="43.25271256250005" lon="12.962586927736869"><ele>417.0</ele><time>2026-04-26T10:59:32.999Z</time></trkpt><trkpt lat="43.252716646270244" lon="12.962464772862393"><ele>417.0</ele><time>2026-04-26T10:59:33.999Z</time></trkpt><trkpt lat="43.25273154063891" lon="12.96236993798151"><ele>417.0</ele><time>2026-04-26T10:59:34.999Z</time></trkpt><trkpt lat="43.25276098060045" lon="12.962264476735482"><ele>417.0</ele><time>2026-04-26T10:59:36.999Z</time></trkpt><trkpt lat="43.25284831637591" lon="12.962250744091675"><ele>417.2857142857143</ele><time>2026-04-26T10:59:38.999Z</time></trkpt><trkpt lat="43.25293608987469" lon="12.962280253759497"><ele>417.57142857142856</ele><time>2026-04-26T10:59:40.999Z</time></trkpt><trkpt lat="43.252999122578686" lon="12.962291357158772"><ele>417.85714285714283</ele><time>2026-04-26T10:59:41.999Z</time></trkpt><trkpt lat="43.25306279130689" lon="12.962308882469863"><ele>418.1428571428571</ele><time>2026-04-26T10:59:42.999Z</time></trkpt><trkpt lat="43.253125220675216" lon="12.96232817386236"><ele>418.42857142857144</ele><time>2026-04-26T10:59:43.999Z</time></trkpt><trkpt lat="43.25318995112952" lon="12.962350470762845"><ele>418.71428571428567</ele><time>2026-04-26T10:59:44.999Z</time></trkpt><trkpt lat="43.253254059158685" lon="12.962374201049661"><ele>419.0</ele><time>2026-04-26T10:59:45.999Z</time></trkpt><trkpt lat="43.25331879296792" lon="12.962395530779066"><ele>419.71428571428567</ele><time>2026-04-26T10:59:46.999Z</time></trkpt><trkpt lat="43.253383834981975" lon="12.962412317654675"><ele>420.42857142857144</ele><time>2026-04-26T10:59:47.999Z</time></trkpt><trkpt lat="43.25344936579027" lon="12.962425456947463"><ele>421.1428571428571</ele><time>2026-04-26T10:59:48.999Z</time></trkpt><trkpt lat="43.25351717021706" lon="12.962440339276878"><ele>421.85714285714283</ele><time>2026-04-26T10:59:49.999Z</time></trkpt><trkpt lat="43.25358900754981" lon="12.962457556795131"><ele>422.57142857142856</ele><time>2026-04-26T10:59:50.999Z</time></trkpt><trkpt lat="43.25365715801218" lon="12.962474651506534"><ele>423.2857142857143</ele><time>2026-04-26T10:59:51.999Z</time></trkpt><trkpt lat="43.253723848390464" lon="12.962488450404477"><ele>424.0</ele><time>2026-04-26T10:59:52.999Z</time></trkpt><trkpt lat="43.25378725284352" lon="12.962503818628047"><ele>424.00000000000006</ele><time>2026-04-26T10:59:53.999Z</time></trkpt><trkpt lat="43.25384845563047" lon="12.962525318201045"><ele>424.0</ele><time>2026-04-26T10:59:54.999Z</time></trkpt><trkpt lat="43.25390796594268" lon="12.962562249549979"><ele>424.0</ele><time>2026-04-26T10:59:55.999Z</time></trkpt><trkpt lat="43.25397511072435" lon="12.962692365771396"><ele>424.0</ele><time>2026-04-26T10:59:57.999Z</time></trkpt><trkpt lat="43.25399611001538" lon="12.962777887655763"><ele>424.00000000000006</ele><time>2026-04-26T10:59:58.999Z</time></trkpt><trkpt lat="43.25402565870054" lon="12.962868598124574"><ele>424.0</ele><time>2026-04-26T10:59:59.999Z</time></trkpt><trkpt lat="43.25406394562987" lon="12.962966993564287"><ele>426.33333333333337</ele><time>2026-04-26T11:00:00.999Z</time></trkpt><trkpt lat="43.254109897057994" lon="12.963069000690494"><ele>428.6666666666667</ele><time>2026-04-26T11:00:01.999Z</time></trkpt><trkpt lat="43.25415687976871" lon="12.963178934969037"><ele>431.0</ele><time>2026-04-26T11:00:02.999Z</time></trkpt><trkpt lat="43.25419756007864" lon="12.963292673015534"><ele>433.33333333333337</ele><time>2026-04-26T11:00:03.999Z</time></trkpt><trkpt lat="43.254217946564495" lon="12.963412211177646"><ele>435.6666666666667</ele><time>2026-04-26T11:00:04.999Z</time></trkpt><trkpt lat="43.254197786871224" lon="12.963528331027"><ele>438.0</ele><time>2026-04-26T11:00:05.999Z</time></trkpt><trkpt lat="43.254217844717616" lon="12.963643718229967"><ele>439.0</ele><time>2026-04-26T11:00:06.999Z</time></trkpt><trkpt lat="43.25422146300132" lon="12.9637542819577"><ele>440.0</ele><time>2026-04-26T11:00:07.999Z</time></trkpt><trkpt lat="43.254223413047846" lon="12.963859925092104"><ele>441.0</ele><time>2026-04-26T11:00:08.999Z</time></trkpt><trkpt lat="43.25422950510993" lon="12.963958844419292"><ele>442.0</ele><time>2026-04-26T11:00:09.999Z</time></trkpt><trkpt lat="43.25425953636147" lon="12.96405208706148"><ele>443.0</ele><time>2026-04-26T11:00:10.999Z</time></trkpt><trkpt lat="43.254291117874374" lon="12.96413183394565"><ele>444.0</ele><time>2026-04-26T11:00:11.999Z</time></trkpt><trkpt lat="43.254336130909884" lon="12.964216808120513"><ele>445.0</ele><time>2026-04-26T11:00:12.999Z</time></trkpt><trkpt lat="43.25439133592575" lon="12.96428414466505"><ele>445.00000000000006</ele><time>2026-04-26T11:00:13.999Z</time></trkpt><trkpt lat="43.25444910979439" lon="12.964335032247119"><ele>445.0</ele><time>2026-04-26T11:00:14.999Z</time></trkpt><trkpt lat="43.25450200769946" lon="12.964419233308016"><ele>445.0</ele><time>2026-04-26T11:00:15.999Z</time></trkpt><trkpt lat="43.25458057210628" lon="12.964499931465896"><ele>445.0</ele><time>2026-04-26T11:00:16.999Z</time></trkpt><trkpt lat="43.254665584155624" lon="12.964571188351892"><ele>445.00000000000006</ele><time>2026-04-26T11:00:17.999Z</time></trkpt><trkpt lat="43.25474461355229" lon="12.964657486189328"><ele>445.0</ele><time>2026-04-26T11:00:18.999Z</time></trkpt><trkpt lat="43.25482088129748" lon="12.964743385100299"><ele>445.33333333333337</ele><time>2026-04-26T11:00:19.999Z</time></trkpt><trkpt lat="43.25489062060687" lon="12.964819232264212"><ele>445.6666666666667</ele><time>2026-04-26T11:00:20.999Z</time></trkpt><trkpt lat="43.25495438800966" lon="12.964887928181565"><ele>446.0</ele><time>2026-04-26T11:00:21.999Z</time></trkpt><trkpt lat="43.25501315603608" lon="12.964960089535985"><ele>446.33333333333337</ele><time>2026-04-26T11:00:22.999Z</time></trkpt><trkpt lat="43.25506813088825" lon="12.96504462284318"><ele>446.6666666666667</ele><time>2026-04-26T11:00:23.998Z</time></trkpt><trkpt lat="43.25513188509769" lon="12.96512891616671"><ele>447.0</ele><time>2026-04-26T11:00:24.998Z</time></trkpt><trkpt lat="43.255194626257946" lon="12.965221996467681"><ele>446.3333333333333</ele><time>2026-04-26T11:00:25.998Z</time></trkpt><trkpt lat="43.25525340058891" lon="12.96531016478818"><ele>445.66666666666663</ele><time>2026-04-26T11:00:26.998Z</time></trkpt><trkpt lat="43.25530213916338" lon="12.965387075824173"><ele>445.0</ele><time>2026-04-26T11:00:27.998Z</time></trkpt><trkpt lat="43.25534847743674" lon="12.965461059383241"><ele>444.3333333333333</ele><time>2026-04-26T11:00:28.998Z</time></trkpt><trkpt lat="43.255392286008124" lon="12.965526035770225"><ele>443.66666666666663</ele><time>2026-04-26T11:00:29.998Z</time></trkpt><trkpt lat="43.25547316396598" lon="12.965622350064038"><ele>443.0</ele><time>2026-04-26T11:00:31.998Z</time></trkpt><trkpt lat="43.25554410079049" lon="12.965735493919738"><ele>442.4</ele><time>2026-04-26T11:00:33.998Z</time></trkpt><trkpt lat="43.25565783079128" lon="12.965777032081718"><ele>441.79999999999995</ele><time>2026-04-26T11:00:35.998Z</time></trkpt><trkpt lat="43.25577625381269" lon="12.965754775905335"><ele>441.2</ele><time>2026-04-26T11:00:37.998Z</time></trkpt><trkpt lat="43.25583895463792" lon="12.96576485960722"><ele>440.6</ele><time>2026-04-26T11:00:38.998Z</time></trkpt><trkpt lat="43.25596437002908" lon="12.965735742357012"><ele>440.0</ele><time>2026-04-26T11:00:40.998Z</time></trkpt><trkpt lat="43.25603251216268" lon="12.965712770081884"><ele>439.99999999999994</ele><time>2026-04-26T11:00:41.998Z</time></trkpt><trkpt lat="43.256095178904125" lon="12.96568789874543"><ele>440.0</ele><time>2026-04-26T11:00:42.998Z</time></trkpt><trkpt lat="43.25616164886367" lon="12.965663103714085"><ele>440.0</ele><time>2026-04-26T11:00:44Z</time></trkpt><trkpt lat="43.25622318229402" lon="12.965642365646572"><ele>440.0</ele><time>2026-04-26T11:00:45Z</time></trkpt><trkpt lat="43.25628534597354" lon="12.965615692609601"><ele>439.99999999999994</ele><time>2026-04-26T11:00:46Z</time></trkpt><trkpt lat="43.25640394206113" lon="12.965590237197226"><ele>440.0</ele><time>2026-04-26T11:00:48Z</time></trkpt><trkpt lat="43.25651116897371" lon="12.965636639235914"><ele>439.4</ele><time>2026-04-26T11:00:50Z</time></trkpt><trkpt lat="43.25660867641786" lon="12.965741445728995"><ele>438.8</ele><time>2026-04-26T11:00:52Z</time></trkpt><trkpt lat="43.25667336847229" lon="12.965807924370996"><ele>438.20000000000005</ele><time>2026-04-26T11:00:53Z</time></trkpt><trkpt lat="43.25675061204386" lon="12.965864942485076"><ele>437.6</ele><time>2026-04-26T11:00:54Z</time></trkpt><trkpt lat="43.256841869878166" lon="12.96590539126579"><ele>437.0</ele><time>2026-04-26T11:00:55Z</time></trkpt><trkpt lat="43.2569445393399" lon="12.965938048771008"><ele>436.99999999999994</ele><time>2026-04-26T11:00:56Z</time></trkpt><trkpt lat="43.25704733812201" lon="12.965978938668428"><ele>437.0</ele><time>2026-04-26T11:00:57Z</time></trkpt><trkpt lat="43.25713954963453" lon="12.966027816218558"><ele>437.0</ele><time>2026-04-26T11:00:58Z</time></trkpt><trkpt lat="43.257214677188664" lon="12.966077081276323"><ele>437.0</ele><time>2026-04-26T11:00:59Z</time></trkpt><trkpt lat="43.25725135606539" lon="12.966156621489318"><ele>436.99999999999994</ele><time>2026-04-26T11:01:00Z</time></trkpt><trkpt lat="43.25730580732552" lon="12.966209139430152"><ele>437.0</ele><time>2026-04-26T11:01:01Z</time></trkpt><trkpt lat="43.2573480485105" lon="12.966301337993254"><ele>438.16666666666663</ele><time>2026-04-26T11:01:02Z</time></trkpt><trkpt lat="43.25740381979274" lon="12.966395480642923"><ele>439.3333333333333</ele><time>2026-04-26T11:01:03Z</time></trkpt><trkpt lat="43.25748042502199" lon="12.966485776893377"><ele>440.5</ele><time>2026-04-26T11:01:04Z</time></trkpt><trkpt lat="43.257558315341264" lon="12.966571454487156"><ele>441.66666666666663</ele><time>2026-04-26T11:01:05Z</time></trkpt><trkpt lat="43.2576112582469" lon="12.966655471918186"><ele>442.8333333333333</ele><time>2026-04-26T11:01:06Z</time></trkpt><trkpt lat="43.25765978749664" lon="12.966729700452495"><ele>444.0</ele><time>2026-04-26T11:01:07Z</time></trkpt><trkpt lat="43.25771110018661" lon="12.966808376662078"><ele>444.79999999999995</ele><time>2026-04-26T11:01:08Z</time></trkpt><trkpt lat="43.257775893905865" lon="12.96688486137905"><ele>445.59999999999997</ele><time>2026-04-26T11:01:09Z</time></trkpt><trkpt lat="43.257861470655534" lon="12.966939919668327"><ele>446.4</ele><time>2026-04-26T11:01:10Z</time></trkpt><trkpt lat="43.25795018434503" lon="12.967005903228284"><ele>447.2</ele><time>2026-04-26T11:01:11Z</time></trkpt><trkpt lat="43.25804738470673" lon="12.967080427838383"><ele>448.0</ele><time>2026-04-26T11:01:12Z</time></trkpt><trkpt lat="43.25814733829601" lon="12.967147367203712"><ele>450.4</ele><time>2026-04-26T11:01:13Z</time></trkpt><trkpt lat="43.25824548775287" lon="12.967223573279895"><ele>452.79999999999995</ele><time>2026-04-26T11:01:14Z</time></trkpt><trkpt lat="43.25834403239447" lon="12.967306437188329"><ele>455.2</ele><time>2026-04-26T11:01:15Z</time></trkpt><trkpt lat="43.2584465508066" lon="12.967364188908748"><ele>457.6</ele><time>2026-04-26T11:01:16Z</time></trkpt><trkpt lat="43.25855207288488" lon="12.967396150724234"><ele>460.0</ele><time>2026-04-26T11:01:17Z</time></trkpt><trkpt lat="43.258633326490624" lon="12.967443739746502"><ele>460.00000000000006</ele><time>2026-04-26T11:01:18Z</time></trkpt><trkpt lat="43.25870377081797" lon="12.967480489045977"><ele>460.0</ele><time>2026-04-26T11:01:19Z</time></trkpt><trkpt lat="43.25879121261392" lon="12.967517697277396"><ele>460.0</ele><time>2026-04-26T11:01:21Z</time></trkpt><trkpt lat="43.25886162343263" lon="12.967554841769083"><ele>460.0</ele><time>2026-04-26T11:01:23Z</time></trkpt><trkpt lat="43.25898039956254" lon="12.967616418958231"><ele>460.00000000000006</ele><time>2026-04-26T11:01:25Z</time></trkpt><trkpt lat="43.25904097426004" lon="12.967660078648878"><ele>460.0</ele><time>2026-04-26T11:01:26Z</time></trkpt><trkpt lat="43.259102616638486" lon="12.967697929393037"><ele>461.1666666666667</ele><time>2026-04-26T11:01:26.999Z</time></trkpt><trkpt lat="43.25916729437362" lon="12.967735822660135"><ele>462.33333333333337</ele><time>2026-04-26T11:01:27.999Z</time></trkpt><trkpt lat="43.259239720624315" lon="12.96777697055632"><ele>463.5</ele><time>2026-04-26T11:01:28.999Z</time></trkpt><trkpt lat="43.25930540231317" lon="12.967851949317712"><ele>464.66666666666663</ele><time>2026-04-26T11:01:29.999Z</time></trkpt><trkpt lat="43.259383290320244" lon="12.967888556255179"><ele>465.8333333333333</ele><time>2026-04-26T11:01:30.999Z</time></trkpt><trkpt lat="43.25945037824255" lon="12.967949632089635"><ele>467.0</ele><time>2026-04-26T11:01:31.999Z</time></trkpt><trkpt lat="43.25951001431537" lon="12.968004420355411"><ele>467.0</ele><time>2026-04-26T11:01:32.999Z</time></trkpt><trkpt lat="43.25961047504422" lon="12.968089539740346"><ele>467.00000000000006</ele><time>2026-04-26T11:01:34.999Z</time></trkpt><trkpt lat="43.259677781350284" lon="12.968157348335058"><ele>467.00000000000006</ele><time>2026-04-26T11:01:36.999Z</time></trkpt><trkpt lat="43.259698715531385" lon="12.96829585857924"><ele>467.0</ele><time>2026-04-26T11:01:39.999Z</time></trkpt><trkpt lat="43.25964887578398" lon="12.96844926925638"><ele>467.0</ele><time>2026-04-26T11:01:41.999Z</time></trkpt><trkpt lat="43.25963460045715" lon="12.968550851939497"><ele>466.71428571428567</ele><time>2026-04-26T11:01:42.999Z</time></trkpt><trkpt lat="43.25960135606484" lon="12.968628929362684"><ele>466.42857142857144</ele><time>2026-04-26T11:01:43.999Z</time></trkpt><trkpt lat="43.25957510681614" lon="12.968714143196603"><ele>466.1428571428571</ele><time>2026-04-26T11:01:44.999Z</time></trkpt><trkpt lat="43.259550064430584" lon="12.968803670328349"><ele>465.85714285714283</ele><time>2026-04-26T11:01:45.999Z</time></trkpt><trkpt lat="43.25952391884966" lon="12.968894418304178"><ele>465.57142857142856</ele><time>2026-04-26T11:01:46.999Z</time></trkpt><trkpt lat="43.25949075925806" lon="12.968979146833066"><ele>465.2857142857143</ele><time>2026-04-26T11:01:47.999Z</time></trkpt><trkpt lat="43.25946009955085" lon="12.96906661167024"><ele>465.0</ele><time>2026-04-26T11:01:48.999Z</time></trkpt><trkpt lat="43.259424399866646" lon="12.969150564338175"><ele>464.3333333333333</ele><time>2026-04-26T11:01:49.999Z</time></trkpt><trkpt lat="43.25939330663573" lon="12.969232134560785"><ele>463.66666666666663</ele><time>2026-04-26T11:01:50.999Z</time></trkpt><trkpt lat="43.25933941940913" lon="12.969369024249467"><ele>463.0</ele><time>2026-04-26T11:01:52.999Z</time></trkpt><trkpt lat="43.25931040094318" lon="12.969452914292399"><ele>462.3333333333333</ele><time>2026-04-26T11:01:53.999Z</time></trkpt><trkpt lat="43.25927906522909" lon="12.969549727575755"><ele>461.66666666666663</ele><time>2026-04-26T11:01:54.999Z</time></trkpt><trkpt lat="43.25924311509601" lon="12.96965448188161"><ele>461.0</ele><time>2026-04-26T11:01:55.999Z</time></trkpt><trkpt lat="43.25919960488759" lon="12.969767569519346"><ele>460.99999999999994</ele><time>2026-04-26T11:01:56.999Z</time></trkpt><trkpt lat="43.25915201711542" lon="12.969876024956461"><ele>461.0</ele><time>2026-04-26T11:01:57.999Z</time></trkpt><trkpt lat="43.25910498159684" lon="12.96997592316025"><ele>461.0</ele><time>2026-04-26T11:01:58.999Z</time></trkpt><trkpt lat="43.25906925041759" lon="12.970085461024048"><ele>461.0</ele><time>2026-04-26T11:01:59.999Z</time></trkpt><trkpt lat="43.25900993606151" lon="12.970163421956073"><ele>460.99999999999994</ele><time>2026-04-26T11:02:00.999Z</time></trkpt><trkpt lat="43.258961068908825" lon="12.97024274841193"><ele>461.0</ele><time>2026-04-26T11:02:01.999Z</time></trkpt><trkpt lat="43.25891030037155" lon="12.970310398236279"><ele>460.66666666666663</ele><time>2026-04-26T11:02:02.999Z</time></trkpt><trkpt lat="43.258865384460336" lon="12.970386742517311"><ele>460.3333333333333</ele><time>2026-04-26T11:02:03.999Z</time></trkpt><trkpt lat="43.25880800820034" lon="12.970442989532334"><ele>460.0</ele><time>2026-04-26T11:02:04.999Z</time></trkpt><trkpt lat="43.258759962353" lon="12.970502885180336"><ele>459.66666666666663</ele><time>2026-04-26T11:02:05.999Z</time></trkpt><trkpt lat="43.25871050399483" lon="12.970623872286321"><ele>459.3333333333333</ele><time>2026-04-26T11:02:07.999Z</time></trkpt><trkpt lat="43.258728117332545" lon="12.970760332864993"><ele>459.0</ele><time>2026-04-26T11:02:09.999Z</time></trkpt><trkpt lat="43.25882095434602" lon="12.97087353722976"><ele>459.0</ele><time>2026-04-26T11:02:11.999Z</time></trkpt><trkpt lat="43.2588829457547" lon="12.97092657251227"><ele>459.0</ele><time>2026-04-26T11:02:12.999Z</time></trkpt><trkpt lat="43.25894940881533" lon="12.97098834392242"><ele>459.0</ele><time>2026-04-26T11:02:13.999Z</time></trkpt><trkpt lat="43.25901881177742" lon="12.971054701249859"><ele>459.0</ele><time>2026-04-26T11:02:14.999Z</time></trkpt><trkpt lat="43.25908374634718" lon="12.971122401052959"><ele>459.0</ele><time>2026-04-26T11:02:15.999Z</time></trkpt><trkpt lat="43.259140472212984" lon="12.971195530089707"><ele>459.0</ele><time>2026-04-26T11:02:16.999Z</time></trkpt><trkpt lat="43.259187858571465" lon="12.971274193906016"><ele>458.3333333333333</ele><time>2026-04-26T11:02:17.999Z</time></trkpt><trkpt lat="43.259220630763195" lon="12.97135692612585"><ele>457.66666666666663</ele><time>2026-04-26T11:02:18.999Z</time></trkpt><trkpt lat="43.25924088427562" lon="12.97144446262496"><ele>457.0</ele><time>2026-04-26T11:02:19.999Z</time></trkpt><trkpt lat="43.259258154619985" lon="12.971543750045"><ele>456.3333333333333</ele><time>2026-04-26T11:02:20.999Z</time></trkpt><trkpt lat="43.259273140677216" lon="12.971655349341914"><ele>455.66666666666663</ele><time>2026-04-26T11:02:21.999Z</time></trkpt><trkpt lat="43.25927363743514" lon="12.97178633959409"><ele>455.0</ele><time>2026-04-26T11:02:22.999Z</time></trkpt><trkpt lat="43.25928553608854" lon="12.97190875085319"><ele>454.99999999999994</ele><time>2026-04-26T11:02:23.999Z</time></trkpt><trkpt lat="43.259295927258904" lon="12.97202833130305"><ele>455.0</ele><time>2026-04-26T11:02:24.999Z</time></trkpt><trkpt lat="43.25931768427162" lon="12.97214133194131"><ele>455.0</ele><time>2026-04-26T11:02:25.999Z</time></trkpt><trkpt lat="43.25932835076632" lon="12.972246389538524"><ele>455.0</ele><time>2026-04-26T11:02:26.999Z</time></trkpt><trkpt lat="43.25933534551034" lon="12.972341369806518"><ele>454.99999999999994</ele><time>2026-04-26T11:02:27.998Z</time></trkpt><trkpt lat="43.259320959906475" lon="12.972502558940779"><ele>455.0</ele><time>2026-04-26T11:02:29.998Z</time></trkpt><trkpt lat="43.259319362539216" lon="12.972672656511604"><ele>453.8333333333333</ele><time>2026-04-26T11:02:31.998Z</time></trkpt><trkpt lat="43.25930889535438" lon="12.972762911060494"><ele>452.66666666666663</ele><time>2026-04-26T11:02:32.998Z</time></trkpt><trkpt lat="43.259282806327" lon="12.972849033887465"><ele>451.5</ele><time>2026-04-26T11:02:33.998Z</time></trkpt><trkpt lat="43.259291209960296" lon="12.972949648435149"><ele>450.33333333333337</ele><time>2026-04-26T11:02:34.998Z</time></trkpt><trkpt lat="43.25929797670544" lon="12.973098161436424"><ele>449.1666666666667</ele><time>2026-04-26T11:02:36.998Z</time></trkpt><trkpt lat="43.25937050876203" lon="12.973225655282299"><ele>448.0</ele><time>2026-04-26T11:02:38.998Z</time></trkpt><trkpt lat="43.25945042528453" lon="12.973314289659452"><ele>445.4</ele><time>2026-04-26T11:02:40.998Z</time></trkpt><trkpt lat="43.25951633194895" lon="12.973387892316637"><ele>442.79999999999995</ele><time>2026-04-26T11:02:42.998Z</time></trkpt><trkpt lat="43.259569685378814" lon="12.973458872064194"><ele>440.2</ele><time>2026-04-26T11:02:46.998Z</time></trkpt><trkpt lat="43.25963128770312" lon="12.973521621065105"><ele>437.6</ele><time>2026-04-26T11:02:50Z</time></trkpt><trkpt lat="43.25968983342521" lon="12.973554158741184"><ele>435.0</ele><time>2026-04-26T11:02:52Z</time></trkpt><trkpt lat="43.25982221664177" lon="12.973377225051088"><ele>435.4</ele><time>2026-04-26T11:02:53Z</time></trkpt><trkpt lat="43.259910247416634" lon="12.973330587626123"><ele>435.8</ele><time>2026-04-26T11:02:55Z</time></trkpt><trkpt lat="43.25999176658626" lon="12.973313966497543"><ele>436.20000000000005</ele><time>2026-04-26T11:02:57Z</time></trkpt><trkpt lat="43.260057449194726" lon="12.97337823299054"><ele>436.6</ele><time>2026-04-26T11:02:59Z</time></trkpt><trkpt lat="43.260098967348796" lon="12.973489281855446"><ele>437.0</ele><time>2026-04-26T11:03:01Z</time></trkpt><trkpt lat="43.260138290475766" lon="12.973629684744276"><ele>436.20000000000005</ele><time>2026-04-26T11:03:03Z</time></trkpt><trkpt lat="43.260185355981776" lon="12.973767394008211"><ele>435.40000000000003</ele><time>2026-04-26T11:03:05Z</time></trkpt><trkpt lat="43.260227729659064" lon="12.9739098382343"><ele>434.59999999999997</ele><time>2026-04-26T11:03:07Z</time></trkpt><trkpt lat="43.26024439505047" lon="12.974045266536736"><ele>433.79999999999995</ele><time>2026-04-26T11:03:09Z</time></trkpt><trkpt lat="43.26025390900344" lon="12.974202536786061"><ele>433.0</ele><time>2026-04-26T11:03:11Z</time></trkpt><trkpt lat="43.260259787973666" lon="12.974358750216453"><ele>431.1666666666667</ele><time>2026-04-26T11:03:13Z</time></trkpt><trkpt lat="43.26028125935948" lon="12.974525335840234"><ele>429.33333333333337</ele><time>2026-04-26T11:03:15Z</time></trkpt><trkpt lat="43.26029867595107" lon="12.974696440356228"><ele>427.5</ele><time>2026-04-26T11:03:17Z</time></trkpt><trkpt lat="43.26031119377466" lon="12.974787868381398"><ele>425.66666666666663</ele><time>2026-04-26T11:03:18Z</time></trkpt><trkpt lat="43.26032315508411" lon="12.974878724309942"><ele>423.8333333333333</ele><time>2026-04-26T11:03:19Z</time></trkpt><trkpt lat="43.260331631547245" lon="12.974965546228464"><ele>422.0</ele><time>2026-04-26T11:03:20Z</time></trkpt><trkpt lat="43.26034024979294" lon="12.975133681886449"><ele>420.66666666666663</ele><time>2026-04-26T11:03:22Z</time></trkpt><trkpt lat="43.26034589189878" lon="12.975306999268234"><ele>419.3333333333333</ele><time>2026-04-26T11:03:24Z</time></trkpt><trkpt lat="43.260356347097755" lon="12.975395218716528"><ele>418.0</ele><time>2026-04-26T11:03:25Z</time></trkpt><trkpt lat="43.260369486802496" lon="12.975479948370682"><ele>416.66666666666663</ele><time>2026-04-26T11:03:26Z</time></trkpt><trkpt lat="43.26041442359726" lon="12.975638213525333"><ele>415.3333333333333</ele><time>2026-04-26T11:03:28Z</time></trkpt><trkpt lat="43.26044208453809" lon="12.975718497483301"><ele>414.0</ele><time>2026-04-26T11:03:29Z</time></trkpt><trkpt lat="43.26046961007915" lon="12.975796878969193"><ele>414.6666666666667</ele><time>2026-04-26T11:03:30Z</time></trkpt><trkpt lat="43.260514335900154" lon="12.975944754315137"><ele>415.33333333333337</ele><time>2026-04-26T11:03:31.999Z</time></trkpt><trkpt lat="43.26056684051843" lon="12.976062764217701"><ele>416.0</ele><time>2026-04-26T11:03:33.999Z</time></trkpt><trkpt lat="43.2606364384407" lon="12.976138350389284"><ele>416.6666666666667</ele><time>2026-04-26T11:03:35.999Z</time></trkpt><trkpt lat="43.26070148967421" lon="12.976160546518404"><ele>417.33333333333337</ele><time>2026-04-26T11:03:37.999Z</time></trkpt><trkpt lat="43.26076558151356" lon="12.97618888365794"><ele>418.0</ele><time>2026-04-26T11:03:39.999Z</time></trkpt><trkpt lat="43.26083635421777" lon="12.976245843261776"><ele>418.0</ele><time>2026-04-26T11:03:41.999Z</time></trkpt><trkpt lat="43.260891288420595" lon="12.97632185392357"><ele>418.0</ele><time>2026-04-26T11:03:43.999Z</time></trkpt><trkpt lat="43.26093384508535" lon="12.976394629635895"><ele>418.0</ele><time>2026-04-26T11:03:45.999Z</time></trkpt><trkpt lat="43.26097705923097" lon="12.976473958474946"><ele>418.0</ele><time>2026-04-26T11:03:47.999Z</time></trkpt><trkpt lat="43.26101793406268" lon="12.97655620698662"><ele>418.0</ele><time>2026-04-26T11:03:49.999Z</time></trkpt><trkpt lat="43.26104926853979" lon="12.976643739810088"><ele>418.0</ele><time>2026-04-26T11:03:51.999Z</time></trkpt><trkpt lat="43.261083414589" lon="12.976754539988054"><ele>418.0</ele><time>2026-04-26T11:03:53.999Z</time></trkpt><trkpt lat="43.261118451077145" lon="12.976862535218538"><ele>417.0</ele><time>2026-04-26T11:03:55.999Z</time></trkpt><trkpt lat="43.2611561561709" lon="12.976992104761914"><ele>416.0</ele><time>2026-04-26T11:03:57.999Z</time></trkpt><trkpt lat="43.261192841247265" lon="12.977127376564075"><ele>415.0</ele><time>2026-04-26T11:03:59.999Z</time></trkpt><trkpt lat="43.26123523456909" lon="12.977239221661886"><ele>414.0</ele><time>2026-04-26T11:04:01.999Z</time></trkpt><trkpt lat="43.261271465451635" lon="12.977358515333277"><ele>413.0</ele><time>2026-04-26T11:04:03.999Z</time></trkpt><trkpt lat="43.26130016816935" lon="12.977479932079579"><ele>412.99999999999994</ele><time>2026-04-26T11:04:05.999Z</time></trkpt><trkpt lat="43.26132976197192" lon="12.977595160292745"><ele>413.0</ele><time>2026-04-26T11:04:08.999Z</time></trkpt><trkpt lat="43.26129770795057" lon="12.9774980767802"><ele>413.0</ele><time>2026-04-26T11:09:22.999Z</time></trkpt><trkpt lat="43.26127745351501" lon="12.977388162057098"><ele>413.0</ele><time>2026-04-26T11:09:24.999Z</time></trkpt><trkpt lat="43.2612505690139" lon="12.977291759754051"><ele>412.99999999999994</ele><time>2026-04-26T11:09:26.999Z</time></trkpt><trkpt lat="43.26121589269189" lon="12.977181065344745"><ele>413.0</ele><time>2026-04-26T11:09:29.999Z</time></trkpt><trkpt lat="43.26118614961766" lon="12.977098456098213"><ele>412.99999999999994</ele><time>2026-04-26T11:09:31.999Z</time></trkpt><trkpt lat="43.261148725678986" lon="12.97697121391425"><ele>413.0</ele><time>2026-04-26T11:09:33.999Z</time></trkpt><trkpt lat="43.26111161065908" lon="12.976838514203365"><ele>413.0</ele><time>2026-04-26T11:09:35.999Z</time></trkpt><trkpt lat="43.26108415535656" lon="12.97671731953132"><ele>413.0</ele><time>2026-04-26T11:09:37.999Z</time></trkpt><trkpt lat="43.26105539441488" lon="12.976613395163808"><ele>412.99999999999994</ele><time>2026-04-26T11:09:39.999Z</time></trkpt><trkpt lat="43.261028111535786" lon="12.976532593232449"><ele>413.0</ele><time>2026-04-26T11:09:41.999Z</time></trkpt><trkpt lat="43.2609707899167" lon="12.9764366512744"><ele>413.8333333333333</ele><time>2026-04-26T11:09:43.999Z</time></trkpt><trkpt lat="43.260914247483065" lon="12.976340082638663"><ele>414.66666666666663</ele><time>2026-04-26T11:09:45.999Z</time></trkpt><trkpt lat="43.26084943391079" lon="12.976249877153663"><ele>415.5</ele><time>2026-04-26T11:09:47.999Z</time></trkpt><trkpt lat="43.2607761892226" lon="12.97618553699294"><ele>416.33333333333337</ele><time>2026-04-26T11:09:49.999Z</time></trkpt><trkpt lat="43.260691952875064" lon="12.97615252595173"><ele>417.1666666666667</ele><time>2026-04-26T11:09:51.999Z</time></trkpt><trkpt lat="43.26060712097384" lon="12.97610553847566"><ele>418.0</ele><time>2026-04-26T11:09:53.999Z</time></trkpt><trkpt lat="43.260539895387716" lon="12.976005143767598"><ele>417.33333333333337</ele><time>2026-04-26T11:09:55.999Z</time></trkpt><trkpt lat="43.26048180530318" lon="12.975869720513973"><ele>416.6666666666667</ele><time>2026-04-26T11:09:57.999Z</time></trkpt><trkpt lat="43.26043947629894" lon="12.975720021256297"><ele>416.0</ele><time>2026-04-26T11:09:59.999Z</time></trkpt><trkpt lat="43.26041285527753" lon="12.975638429421108"><ele>415.33333333333337</ele><time>2026-04-26T11:10:00.999Z</time></trkpt><trkpt lat="43.26038867621855" lon="12.975552370122342"><ele>414.6666666666667</ele><time>2026-04-26T11:10:01.999Z</time></trkpt><trkpt lat="43.26036827309427" lon="12.975466989709838"><ele>414.0</ele><time>2026-04-26T11:10:02.999Z</time></trkpt><trkpt lat="43.26035211260212" lon="12.975383438004053"><ele>414.0</ele><time>2026-04-26T11:10:03.999Z</time></trkpt><trkpt lat="43.260342245454666" lon="12.975293410508586"><ele>414.0</ele><time>2026-04-26T11:10:04.999Z</time></trkpt><trkpt lat="43.260339080807036" lon="12.97520014947098"><ele>414.0</ele><time>2026-04-26T11:10:05.999Z</time></trkpt><trkpt lat="43.2603363576507" lon="12.975105270032586"><ele>414.0</ele><time>2026-04-26T11:10:06.999Z</time></trkpt><trkpt lat="43.26033302580466" lon="12.975009027435911"><ele>414.0</ele><time>2026-04-26T11:10:07.999Z</time></trkpt><trkpt lat="43.260327167176925" lon="12.974920738437289"><ele>414.0</ele><time>2026-04-26T11:10:08.999Z</time></trkpt><trkpt lat="43.260303108173936" lon="12.974754102916751"><ele>415.6</ele><time>2026-04-26T11:10:10.999Z</time></trkpt><trkpt lat="43.26029054129244" lon="12.974664080538437"><ele>417.2</ele><time>2026-04-26T11:10:11.999Z</time></trkpt><trkpt lat="43.260282478365255" lon="12.974576182996739"><ele>418.8</ele><time>2026-04-26T11:10:12.999Z</time></trkpt><trkpt lat="43.26026519632391" lon="12.974411664489745"><ele>420.40000000000003</ele><time>2026-04-26T11:10:14.999Z</time></trkpt><trkpt lat="43.26025205544351" lon="12.974241002573674"><ele>422.0</ele><time>2026-04-26T11:10:16.999Z</time></trkpt><trkpt lat="43.2602449326083" lon="12.974070050977183"><ele>424.75</ele><time>2026-04-26T11:10:18.999Z</time></trkpt><trkpt lat="43.26023194400781" lon="12.973912769451411"><ele>427.5</ele><time>2026-04-26T11:10:20.999Z</time></trkpt><trkpt lat="43.26019567564977" lon="12.973761459079823"><ele>430.25</ele><time>2026-04-26T11:10:22.999Z</time></trkpt><trkpt lat="43.26014620391561" lon="12.973615019807896"><ele>433.0</ele><time>2026-04-26T11:10:24.998Z</time></trkpt><trkpt lat="43.260102540474776" lon="12.973488678350225"><ele>433.0</ele><time>2026-04-26T11:10:26.998Z</time></trkpt><trkpt lat="43.26005962096899" lon="12.97335934465854"><ele>432.99999999999994</ele><time>2026-04-26T11:10:28.998Z</time></trkpt><trkpt lat="43.25998193806762" lon="12.973316614583117"><ele>432.99999999999994</ele><time>2026-04-26T11:10:30.998Z</time></trkpt><trkpt lat="43.25986148278911" lon="12.973347165165794"><ele>433.0</ele><time>2026-04-26T11:10:32.998Z</time></trkpt><trkpt lat="43.25979278857465" lon="12.973389031658199"><ele>433.0</ele><time>2026-04-26T11:10:33.998Z</time></trkpt><trkpt lat="43.25972496956194" lon="12.973418986113321"><ele>433.4</ele><time>2026-04-26T11:10:34.998Z</time></trkpt><trkpt lat="43.25966139136677" lon="12.973440685206052"><ele>433.79999999999995</ele><time>2026-04-26T11:10:35.998Z</time></trkpt><trkpt lat="43.25955331379799" lon="12.973423228309702"><ele>434.2</ele><time>2026-04-26T11:10:37.998Z</time></trkpt><trkpt lat="43.2594825349942" lon="12.973313294298352"><ele>434.6</ele><time>2026-04-26T11:10:39.998Z</time></trkpt><trkpt lat="43.25943378938696" lon="12.973254800465869"><ele>435.0</ele><time>2026-04-26T11:10:40.998Z</time></trkpt><trkpt lat="43.25934984745812" lon="12.973126312912656"><ele>437.6</ele><time>2026-04-26T11:10:42.998Z</time></trkpt><trkpt lat="43.25928769826578" lon="12.972987807827867"><ele>440.2</ele><time>2026-04-26T11:10:44.998Z</time></trkpt><trkpt lat="43.25931930889837" lon="12.972819697693167"><ele>442.79999999999995</ele><time>2026-04-26T11:10:46.998Z</time></trkpt><trkpt lat="43.2593183761182" lon="12.972724988965497"><ele>445.4</ele><time>2026-04-26T11:10:47.998Z</time></trkpt><trkpt lat="43.259334777237186" lon="12.972630903305868"><ele>448.0</ele><time>2026-04-26T11:10:48.998Z</time></trkpt><trkpt lat="43.2593439441328" lon="12.972528614803151"><ele>449.1666666666667</ele><time>2026-04-26T11:10:49.998Z</time></trkpt><trkpt lat="43.25935071683554" lon="12.972422884182235"><ele>450.33333333333337</ele><time>2026-04-26T11:10:50.998Z</time></trkpt><trkpt lat="43.25934973823657" lon="12.972317126190115"><ele>451.5</ele><time>2026-04-26T11:10:51.998Z</time></trkpt><trkpt lat="43.2593374976591" lon="12.972208510070137"><ele>452.66666666666663</ele><time>2026-04-26T11:10:52.998Z</time></trkpt><trkpt lat="43.259325433567284" lon="12.972095200432525"><ele>453.8333333333333</ele><time>2026-04-26T11:10:53.998Z</time></trkpt><trkpt lat="43.25931597394268" lon="12.971982807543815"><ele>455.0</ele><time>2026-04-26T11:10:54.998Z</time></trkpt><trkpt lat="43.259304335264" lon="12.971867119166717"><ele>454.99999999999994</ele><time>2026-04-26T11:10:55.998Z</time></trkpt><trkpt lat="43.25928760830284" lon="12.971748325432113"><ele>455.0</ele><time>2026-04-26T11:10:56.998Z</time></trkpt><trkpt lat="43.25927746724736" lon="12.971635940987971"><ele>455.0</ele><time>2026-04-26T11:10:57.998Z</time></trkpt><trkpt lat="43.25926570031999" lon="12.971520239064196"><ele>455.0</ele><time>2026-04-26T11:10:58.998Z</time></trkpt><trkpt lat="43.25923934886846" lon="12.971412603184632"><ele>454.99999999999994</ele><time>2026-04-26T11:10:59.998Z</time></trkpt><trkpt lat="43.25920919943512" lon="12.97131138843846"><ele>455.0</ele><time>2026-04-26T11:11:00.998Z</time></trkpt><trkpt lat="43.25917110981412" lon="12.971216933873485"><ele>454.99999999999994</ele><time>2026-04-26T11:11:01.998Z</time></trkpt><trkpt lat="43.25911805756868" lon="12.97113980934312"><ele>455.0</ele><time>2026-04-26T11:11:02.998Z</time></trkpt><trkpt lat="43.259055829938106" lon="12.971066815901171"><ele>455.0</ele><time>2026-04-26T11:11:03.998Z</time></trkpt><trkpt lat="43.25898514807738" lon="12.971000379762192"><ele>455.0</ele><time>2026-04-26T11:11:04.998Z</time></trkpt><trkpt lat="43.25891644301663" lon="12.970914632614056"><ele>454.99999999999994</ele><time>2026-04-26T11:11:05.998Z</time></trkpt><trkpt lat="43.25884414868447" lon="12.97084749175151"><ele>455.0</ele><time>2026-04-26T11:11:06.998Z</time></trkpt><trkpt lat="43.258784207273656" lon="12.970788197608366"><ele>455.2</ele><time>2026-04-26T11:11:07.998Z</time></trkpt><trkpt lat="43.258712645031316" lon="12.97068595306894"><ele>455.4</ele><time>2026-04-26T11:11:09.998Z</time></trkpt><trkpt lat="43.25874818041751" lon="12.970578807874952"><ele>455.6</ele><time>2026-04-26T11:11:11.999Z</time></trkpt><trkpt lat="43.2588052823638" lon="12.970479597487653"><ele>455.8</ele><time>2026-04-26T11:11:13.999Z</time></trkpt><trkpt lat="43.25890204898884" lon="12.970360014151895"><ele>456.0</ele><time>2026-04-26T11:11:15.999Z</time></trkpt><trkpt lat="43.25896013706297" lon="12.970298364879723"><ele>456.0</ele><time>2026-04-26T11:11:16.999Z</time></trkpt><trkpt lat="43.259014447742" lon="12.970223922349234"><ele>456.0</ele><time>2026-04-26T11:11:17.999Z</time></trkpt><trkpt lat="43.25906505250609" lon="12.970133493731225"><ele>456.0</ele><time>2026-04-26T11:11:18.999Z</time></trkpt><trkpt lat="43.259106647267316" lon="12.970033702780132"><ele>456.0</ele><time>2026-04-26T11:11:19.999Z</time></trkpt><trkpt lat="43.259151932542665" lon="12.969933285240534"><ele>456.0</ele><time>2026-04-26T11:11:20.999Z</time></trkpt><trkpt lat="43.25919552667647" lon="12.9698420355642"><ele>456.0</ele><time>2026-04-26T11:11:21.999Z</time></trkpt><trkpt lat="43.25923775380384" lon="12.969743478282671"><ele>456.8333333333333</ele><time>2026-04-26T11:11:22.999Z</time></trkpt><trkpt lat="43.25927733688418" lon="12.969641125921125"><ele>457.66666666666663</ele><time>2026-04-26T11:11:23.999Z</time></trkpt><trkpt lat="43.259310114216625" lon="12.969534536299044"><ele>458.5</ele><time>2026-04-26T11:11:24.999Z</time></trkpt><trkpt lat="43.25934245422106" lon="12.969431106615751"><ele>459.3333333333333</ele><time>2026-04-26T11:11:25.999Z</time></trkpt><trkpt lat="43.25937504088114" lon="12.969320140025564"><ele>460.16666666666663</ele><time>2026-04-26T11:11:26.999Z</time></trkpt><trkpt lat="43.25942630756455" lon="12.96922418425428"><ele>461.0</ele><time>2026-04-26T11:11:27.999Z</time></trkpt><trkpt lat="43.25946457624858" lon="12.969115515157005"><ele>461.8</ele><time>2026-04-26T11:11:28.999Z</time></trkpt><trkpt lat="43.25950476987099" lon="12.969005136947914"><ele>462.6</ele><time>2026-04-26T11:11:29.999Z</time></trkpt><trkpt lat="43.259545636828406" lon="12.968892909672196"><ele>463.4</ele><time>2026-04-26T11:11:30.999Z</time></trkpt><trkpt lat="43.25958615400486" lon="12.968772460134854"><ele>464.2</ele><time>2026-04-26T11:11:31.999Z</time></trkpt><trkpt lat="43.25960901500268" lon="12.968646745944893"><ele>465.0</ele><time>2026-04-26T11:11:32.999Z</time></trkpt><trkpt lat="43.2596467312587" lon="12.968537418435993"><ele>465.0</ele><time>2026-04-26T11:11:33.999Z</time></trkpt><trkpt lat="43.25969203106241" lon="12.968437102310048"><ele>465.0</ele><time>2026-04-26T11:11:34.999Z</time></trkpt><trkpt lat="43.25971253499223" lon="12.96834522896674"><ele>465.0</ele><time>2026-04-26T11:11:35.999Z</time></trkpt><trkpt lat="43.25970969756559" lon="12.96819316934314"><ele>465.0</ele><time>2026-04-26T11:11:37.999Z</time></trkpt><trkpt lat="43.25962986362174" lon="12.96806616962641"><ele>465.0</ele><time>2026-04-26T11:11:39.999Z</time></trkpt><trkpt lat="43.25957405018254" lon="12.96801828582598"><ele>465.3333333333333</ele><time>2026-04-26T11:11:40.999Z</time></trkpt><trkpt lat="43.259513808083874" lon="12.967976766050807"><ele>465.66666666666663</ele><time>2026-04-26T11:11:41.999Z</time></trkpt><trkpt lat="43.25944701613353" lon="12.967927322827345"><ele>466.0</ele><time>2026-04-26T11:11:42.999Z</time></trkpt><trkpt lat="43.259376550877136" lon="12.967866842445664"><ele>466.3333333333333</ele><time>2026-04-26T11:11:43.999Z</time></trkpt><trkpt lat="43.25930228764679" lon="12.96781124227946"><ele>466.66666666666663</ele><time>2026-04-26T11:11:44.999Z</time></trkpt><trkpt lat="43.25923027767663" lon="12.967756905042782"><ele>467.0</ele><time>2026-04-26T11:11:45.999Z</time></trkpt><trkpt lat="43.259158322944494" lon="12.96770321792155"><ele>466.99999999999994</ele><time>2026-04-26T11:11:46.999Z</time></trkpt><trkpt lat="43.25908479976185" lon="12.967662346518743"><ele>467.0</ele><time>2026-04-26T11:11:47.999Z</time></trkpt><trkpt lat="43.2590177274801" lon="12.967621349755522"><ele>467.0</ele><time>2026-04-26T11:11:48.999Z</time></trkpt><trkpt lat="43.25895272626072" lon="12.967587449734035"><ele>467.0</ele><time>2026-04-26T11:11:49.999Z</time></trkpt><trkpt lat="43.258895383455474" lon="12.967535951706465"><ele>466.99999999999994</ele><time>2026-04-26T11:11:50.999Z</time></trkpt><trkpt lat="43.25878339943325" lon="12.967476685062385"><ele>467.0</ele><time>2026-04-26T11:11:52.999Z</time></trkpt><trkpt lat="43.25871152165208" lon="12.967465168232064"><ele>465.6</ele><time>2026-04-26T11:11:53.999Z</time></trkpt><trkpt lat="43.25863439613186" lon="12.967420993587087"><ele>464.20000000000005</ele><time>2026-04-26T11:11:54.999Z</time></trkpt><trkpt lat="43.25854475399674" lon="12.967371762332274"><ele>462.8</ele><time>2026-04-26T11:11:55.999Z</time></trkpt><trkpt lat="43.25844957192276" lon="12.967315342661893"><ele>461.4</ele><time>2026-04-26T11:11:56.999Z</time></trkpt><trkpt lat="43.25835070538861" lon="12.96725968894814"><ele>460.0</ele><time>2026-04-26T11:11:57.999Z</time></trkpt><trkpt lat="43.258249658749605" lon="12.967195398093326"><ele>460.0</ele><time>2026-04-26T11:11:58.999Z</time></trkpt><trkpt lat="43.258151405234706" lon="12.9671270058034"><ele>460.0</ele><time>2026-04-26T11:11:59.999Z</time></trkpt><trkpt lat="43.25805375566369" lon="12.967063120179827"><ele>460.0</ele><time>2026-04-26T11:12:00.999Z</time></trkpt><trkpt lat="43.257961204592306" lon="12.966993724842988"><ele>460.0</ele><time>2026-04-26T11:12:01.999Z</time></trkpt><trkpt lat="43.257870565401326" lon="12.96692714721932"><ele>460.0</ele><time>2026-04-26T11:12:02.999Z</time></trkpt><trkpt lat="43.25779611242046" lon="12.966865155033943"><ele>458.00000000000006</ele><time>2026-04-26T11:12:03.999Z</time></trkpt><trkpt lat="43.257739066520045" lon="12.966784539044495"><ele>456.0</ele><time>2026-04-26T11:12:04.999Z</time></trkpt><trkpt lat="43.25767854609942" lon="12.966734686229342"><ele>454.0</ele><time>2026-04-26T11:12:05.998Z</time></trkpt><trkpt lat="43.25763070491897" lon="12.966656248344266"><ele>452.0</ele><time>2026-04-26T11:12:06.998Z</time></trkpt><trkpt lat="43.25757798644731" lon="12.966578333285845"><ele>450.00000000000006</ele><time>2026-04-26T11:12:07.998Z</time></trkpt><trkpt lat="43.25751245930637" lon="12.966501253988385"><ele>448.0</ele><time>2026-04-26T11:12:08.998Z</time></trkpt><trkpt lat="43.25744713469878" lon="12.966421270013047"><ele>447.33333333333337</ele><time>2026-04-26T11:12:09.998Z</time></trkpt><trkpt lat="43.257389973919466" lon="12.96633502273472"><ele>446.6666666666667</ele><time>2026-04-26T11:12:10.998Z</time></trkpt><trkpt lat="43.257339907825624" lon="12.96623840245077"><ele>446.0</ele><time>2026-04-26T11:12:11.998Z</time></trkpt><trkpt lat="43.25728682410953" lon="12.966146953758944"><ele>445.33333333333337</ele><time>2026-04-26T11:12:12.998Z</time></trkpt><trkpt lat="43.25722438500197" lon="12.9660765626292"><ele>444.6666666666667</ele><time>2026-04-26T11:12:13.998Z</time></trkpt><trkpt lat="43.25715823514486" lon="12.9660250611721"><ele>444.0</ele><time>2026-04-26T11:12:14.998Z</time></trkpt><trkpt lat="43.257089356632534" lon="12.965962765504699"><ele>442.6</ele><time>2026-04-26T11:12:15.998Z</time></trkpt><trkpt lat="43.25699994121659" lon="12.965919113637929"><ele>441.2</ele><time>2026-04-26T11:12:16.998Z</time></trkpt><trkpt lat="43.25689808556278" lon="12.965901235080745"><ele>439.80000000000007</ele><time>2026-04-26T11:12:17.998Z</time></trkpt><trkpt lat="43.25679556560645" lon="12.9658521914296"><ele>438.40000000000003</ele><time>2026-04-26T11:12:18.998Z</time></trkpt><trkpt lat="43.25669493225608" lon="12.96578744438583"><ele>437.0</ele><time>2026-04-26T11:12:19.998Z</time></trkpt><trkpt lat="43.256611692913644" lon="12.965701623884698"><ele>436.8333333333333</ele><time>2026-04-26T11:12:20.998Z</time></trkpt><trkpt lat="43.25653479968663" lon="12.965630569402851"><ele>436.66666666666663</ele><time>2026-04-26T11:12:21.998Z</time></trkpt><trkpt lat="43.25647039257685" lon="12.965559383798128"><ele>436.5</ele><time>2026-04-26T11:12:22.998Z</time></trkpt><trkpt lat="43.25638957460626" lon="12.965542820604814"><ele>436.33333333333337</ele><time>2026-04-26T11:12:23.998Z</time></trkpt><trkpt lat="43.256313796566126" lon="12.965555922751497"><ele>436.1666666666667</ele><time>2026-04-26T11:12:24.998Z</time></trkpt><trkpt lat="43.25624418563208" lon="12.965579180878493"><ele>436.0</ele><time>2026-04-26T11:12:25.998Z</time></trkpt><trkpt lat="43.25617851774128" lon="12.965605740455143"><ele>436.6666666666667</ele><time>2026-04-26T11:12:26.998Z</time></trkpt><trkpt lat="43.256106206790825" lon="12.965635026933528"><ele>437.33333333333337</ele><time>2026-04-26T11:12:27.998Z</time></trkpt><trkpt lat="43.25603719218714" lon="12.965658825100094"><ele>438.0</ele><time>2026-04-26T11:12:28.998Z</time></trkpt><trkpt lat="43.25592267198526" lon="12.965696343198204"><ele>438.66666666666663</ele><time>2026-04-26T11:12:30.998Z</time></trkpt><trkpt lat="43.25586070041497" lon="12.965713496030567"><ele>439.3333333333333</ele><time>2026-04-26T11:12:31.998Z</time></trkpt><trkpt lat="43.25579836584196" lon="12.965726267100408"><ele>440.0</ele><time>2026-04-26T11:12:32.998Z</time></trkpt><trkpt lat="43.255733335831486" lon="12.965731905994875"><ele>440.0</ele><time>2026-04-26T11:12:33.998Z</time></trkpt><trkpt lat="43.2556685813024" lon="12.965734914668245"><ele>440.0</ele><time>2026-04-26T11:12:34.998Z</time></trkpt><trkpt lat="43.255559330207994" lon="12.965668508523366"><ele>440.0</ele><time>2026-04-26T11:12:36.998Z</time></trkpt><trkpt lat="43.25546955249502" lon="12.965569661492195"><ele>440.0</ele><time>2026-04-26T11:12:38.998Z</time></trkpt><trkpt lat="43.255403210552416" lon="12.965510285549797"><ele>440.0</ele><time>2026-04-26T11:12:39.998Z</time></trkpt><trkpt lat="43.25534460445107" lon="12.965417952693947"><ele>440.6</ele><time>2026-04-26T11:12:40.998Z</time></trkpt><trkpt lat="43.25528699401654" lon="12.965328219085988"><ele>441.2</ele><time>2026-04-26T11:12:41.998Z</time></trkpt><trkpt lat="43.25522816157349" lon="12.96523127290243"><ele>441.79999999999995</ele><time>2026-04-26T11:12:42.998Z</time></trkpt><trkpt lat="43.25516261379296" lon="12.96513378514683"><ele>442.4</ele><time>2026-04-26T11:12:43.998Z</time></trkpt><trkpt lat="43.255087486601255" lon="12.965037747037442"><ele>443.0</ele><time>2026-04-26T11:12:44.998Z</time></trkpt><trkpt lat="43.25501074313821" lon="12.964943135375268"><ele>443.4</ele><time>2026-04-26T11:12:45.998Z</time></trkpt><trkpt lat="43.25493092546946" lon="12.96484980836054"><ele>443.79999999999995</ele><time>2026-04-26T11:12:46.998Z</time></trkpt><trkpt lat="43.254857358944065" lon="12.96475462998842"><ele>444.2</ele><time>2026-04-26T11:12:47.998Z</time></trkpt><trkpt lat="43.25477672650165" lon="12.96466392266331"><ele>444.6</ele><time>2026-04-26T11:12:48.998Z</time></trkpt><trkpt lat="43.254703118173744" lon="12.964585106836612"><ele>445.0</ele><time>2026-04-26T11:12:49.998Z</time></trkpt><trkpt lat="43.254636687255434" lon="12.964511607050875"><ele>445.00000000000006</ele><time>2026-04-26T11:12:50.998Z</time></trkpt><trkpt lat="43.25457194558776" lon="12.964442957721463"><ele>445.0</ele><time>2026-04-26T11:12:51.998Z</time></trkpt><trkpt lat="43.25450584720654" lon="12.964375648059114"><ele>445.0</ele><time>2026-04-26T11:12:52.998Z</time></trkpt><trkpt lat="43.25444227446731" lon="12.964309757230856"><ele>445.0</ele><time>2026-04-26T11:12:53.998Z</time></trkpt><trkpt lat="43.254379929190144" lon="12.96424041133469"><ele>445.00000000000006</ele><time>2026-04-26T11:12:54.998Z</time></trkpt><trkpt lat="43.25433108699262" lon="12.964178307306716"><ele>445.0</ele><time>2026-04-26T11:12:55.998Z</time></trkpt><trkpt lat="43.254269903545634" lon="12.964013228998773"><ele>445.00000000000006</ele><time>2026-04-26T11:12:57.998Z</time></trkpt><trkpt lat="43.25425185070951" lon="12.963921035903969"><ele>445.0</ele><time>2026-04-26T11:12:58.998Z</time></trkpt><trkpt lat="43.25424993136791" lon="12.963821579436436"><ele>445.0</ele><time>2026-04-26T11:12:59.998Z</time></trkpt><trkpt lat="43.25424403765604" lon="12.963735291881799"><ele>445.0</ele><time>2026-04-26T11:13:00.998Z</time></trkpt><trkpt lat="43.25423512059473" lon="12.9636286538208"><ele>445.00000000000006</ele><time>2026-04-26T11:13:01.998Z</time></trkpt><trkpt lat="43.25423537084531" lon="12.963498856462566"><ele>445.0</ele><time>2026-04-26T11:13:02.998Z</time></trkpt><trkpt lat="43.254233518084796" lon="12.963375247137762"><ele>443.6</ele><time>2026-04-26T11:13:03.998Z</time></trkpt><trkpt lat="43.25420910955222" lon="12.963238280260049"><ele>442.2</ele><time>2026-04-26T11:13:04.998Z</time></trkpt><trkpt lat="43.25415103539457" lon="12.96310133601345"><ele>440.79999999999995</ele><time>2026-04-26T11:13:05.998Z</time></trkpt><trkpt lat="43.25410296064006" lon="12.962953869095314"><ele>439.4</ele><time>2026-04-26T11:13:06.998Z</time></trkpt><trkpt lat="43.2540512700484" lon="12.962829050053914"><ele>438.0</ele><time>2026-04-26T11:13:07.998Z</time></trkpt><trkpt lat="43.2539913878711" lon="12.962721833080954"><ele>438.0</ele><time>2026-04-26T11:13:08.998Z</time></trkpt><trkpt lat="43.25396222043692" lon="12.962622706644526"><ele>437.99999999999994</ele><time>2026-04-26T11:13:09.998Z</time></trkpt><trkpt lat="43.253922091888896" lon="12.962530632767722"><ele>437.99999999999994</ele><time>2026-04-26T11:13:10.998Z</time></trkpt><trkpt lat="43.2538412675744" lon="12.96247194325957"><ele>438.0</ele><time>2026-04-26T11:13:11.998Z</time></trkpt><trkpt lat="43.253733824530734" lon="12.962476735939124"><ele>438.0</ele><time>2026-04-26T11:13:12.998Z</time></trkpt><trkpt lat="43.253624240623104" lon="12.962439668585562"><ele>435.2</ele><time>2026-04-26T11:13:13.997Z</time></trkpt><trkpt lat="43.25350967158605" lon="12.96240520737059"><ele>432.4</ele><time>2026-04-26T11:13:14.997Z</time></trkpt><trkpt lat="43.253402227824175" lon="12.962378627542504"><ele>429.59999999999997</ele><time>2026-04-26T11:13:15.997Z</time></trkpt><trkpt lat="43.253300290929985" lon="12.962354592819752"><ele>426.79999999999995</ele><time>2026-04-26T11:13:16.999Z</time></trkpt><trkpt lat="43.25320741700886" lon="12.962303553645553"><ele>424.0</ele><time>2026-04-26T11:13:17.999Z</time></trkpt><trkpt lat="43.253117748458294" lon="12.962278674784967"><ele>423.1666666666667</ele><time>2026-04-26T11:13:18.999Z</time></trkpt><trkpt lat="43.25303055573064" lon="12.962254482839919"><ele>422.33333333333337</ele><time>2026-04-26T11:13:19.999Z</time></trkpt><trkpt lat="43.25294749625737" lon="12.962235231557694"><ele>421.5</ele><time>2026-04-26T11:13:20.999Z</time></trkpt><trkpt lat="43.25286857995662" lon="12.962239919056806"><ele>420.66666666666663</ele><time>2026-04-26T11:13:21.999Z</time></trkpt><trkpt lat="43.25280398851669" lon="12.96221501404623"><ele>419.8333333333333</ele><time>2026-04-26T11:13:22.999Z</time></trkpt><trkpt lat="43.25273915906416" lon="12.962192850738344"><ele>419.0</ele><time>2026-04-26T11:13:25.999Z</time></trkpt><trkpt lat="43.25267139484047" lon="12.962234713505286"><ele>419.0</ele><time>2026-04-26T11:13:28.999Z</time></trkpt><trkpt lat="43.25267681086657" lon="12.96238038578906"><ele>419.0</ele><time>2026-04-26T11:13:29.999Z</time></trkpt><trkpt lat="43.2526830205757" lon="12.96249971243957"><ele>419.0</ele><time>2026-04-26T11:13:30.999Z</time></trkpt><trkpt lat="43.25268807982572" lon="12.962621512285223"><ele>419.0</ele><time>2026-04-26T11:13:31.999Z</time></trkpt><trkpt lat="43.25268764233414" lon="12.962761442289256"><ele>419.0</ele><time>2026-04-26T11:13:32.999Z</time></trkpt><trkpt lat="43.25268600383075" lon="12.962907542254545"><ele>418.75</ele><time>2026-04-26T11:13:33.999Z</time></trkpt><trkpt lat="43.25268157112468" lon="12.963072213385614"><ele>418.5</ele><time>2026-04-26T11:13:34.999Z</time></trkpt><trkpt lat="43.252674431176395" lon="12.963244209582475"><ele>418.25</ele><time>2026-04-26T11:13:35.999Z</time></trkpt><trkpt lat="43.252667797975555" lon="12.963424156512568"><ele>418.0</ele><time>2026-04-26T11:13:36.999Z</time></trkpt><trkpt lat="43.25265584112333" lon="12.963613293261506"><ele>418.0</ele><time>2026-04-26T11:13:37.999Z</time></trkpt><trkpt lat="43.252631642025456" lon="12.963806084411251"><ele>418.0</ele><time>2026-04-26T11:13:38.999Z</time></trkpt><trkpt lat="43.25258402268781" lon="12.963996627713682"><ele>418.0</ele><time>2026-04-26T11:13:39.999Z</time></trkpt><trkpt lat="43.25251738986895" lon="12.964189064136727"><ele>418.0</ele><time>2026-04-26T11:13:40.999Z</time></trkpt><trkpt lat="43.252443349098385" lon="12.96437886336673"><ele>418.6666666666667</ele><time>2026-04-26T11:13:41.999Z</time></trkpt><trkpt lat="43.25236110672638" lon="12.964579364886832"><ele>419.33333333333337</ele><time>2026-04-26T11:13:42.999Z</time></trkpt><trkpt lat="43.252282768272885" lon="12.964785517000381"><ele>420.0</ele><time>2026-04-26T11:13:43.999Z</time></trkpt><trkpt lat="43.25220587323221" lon="12.96498703248664"><ele>418.0</ele><time>2026-04-26T11:13:44.999Z</time></trkpt><trkpt lat="43.252134158830344" lon="12.96517818169916"><ele>416.0</ele><time>2026-04-26T11:13:45.999Z</time></trkpt><trkpt lat="43.25206517837778" lon="12.965361428967002"><ele>414.0</ele><time>2026-04-26T11:13:46.999Z</time></trkpt><trkpt lat="43.25199575237733" lon="12.965540069457102"><ele>414.0</ele><time>2026-04-26T11:13:47.999Z</time></trkpt><trkpt lat="43.25191778454214" lon="12.96572774630428"><ele>414.0</ele><time>2026-04-26T11:13:48.999Z</time></trkpt><trkpt lat="43.25183623905156" lon="12.965919548871291"><ele>414.0</ele><time>2026-04-26T11:13:49.999Z</time></trkpt><trkpt lat="43.251757816376454" lon="12.966106161602944"><ele>413.75</ele><time>2026-04-26T11:13:50.999Z</time></trkpt><trkpt lat="43.25168659814721" lon="12.966286250316555"><ele>413.5</ele><time>2026-04-26T11:13:51.999Z</time></trkpt><trkpt lat="43.251618906143655" lon="12.966459978316369"><ele>413.25</ele><time>2026-04-26T11:13:52.999Z</time></trkpt><trkpt lat="43.25155405396297" lon="12.966623814885617"><ele>413.0</ele><time>2026-04-26T11:13:53.999Z</time></trkpt><trkpt lat="43.25148921254158" lon="12.966788642652759"><ele>412.25</ele><time>2026-04-26T11:13:54.999Z</time></trkpt><trkpt lat="43.25142574518244" lon="12.966952513142989"><ele>411.5</ele><time>2026-04-26T11:13:55.999Z</time></trkpt><trkpt lat="43.25136168677047" lon="12.967115310878393"><ele>410.75</ele><time>2026-04-26T11:13:56.999Z</time></trkpt><trkpt lat="43.251300632267885" lon="12.967268155377358"><ele>410.0</ele><time>2026-04-26T11:13:57.999Z</time></trkpt><trkpt lat="43.25124321930277" lon="12.967407783133643"><ele>410.4</ele><time>2026-04-26T11:13:58.999Z</time></trkpt><trkpt lat="43.25118137955683" lon="12.967531268608164"><ele>410.8</ele><time>2026-04-26T11:13:59.999Z</time></trkpt><trkpt lat="43.25111087708803" lon="12.967635803069"><ele>411.20000000000005</ele><time>2026-04-26T11:14:00.999Z</time></trkpt><trkpt lat="43.2510489262027" lon="12.967743456773318"><ele>411.6</ele><time>2026-04-26T11:14:01.999Z</time></trkpt><trkpt lat="43.25096969521116" lon="12.967820620880639"><ele>412.0</ele><time>2026-04-26T11:14:02.999Z</time></trkpt><trkpt lat="43.25089278620312" lon="12.967876341753339"><ele>412.0</ele><time>2026-04-26T11:14:03.999Z</time></trkpt><trkpt lat="43.250834482992225" lon="12.967923701488665"><ele>412.0</ele><time>2026-04-26T11:14:04.999Z</time></trkpt><trkpt lat="43.25081724854337" lon="12.968091976032023"><ele>412.0</ele><time>2026-04-26T11:14:05.999Z</time></trkpt><trkpt lat="43.250791666328546" lon="12.96822620198608"><ele>412.0</ele><time>2026-04-26T11:14:06.999Z</time></trkpt><trkpt lat="43.25077150182543" lon="12.968374889228691"><ele>412.0</ele><time>2026-04-26T11:14:07.999Z</time></trkpt><trkpt lat="43.250749234511936" lon="12.9685335696494"><ele>412.5</ele><time>2026-04-26T11:14:08.999Z</time></trkpt><trkpt lat="43.25071501430784" lon="12.968701136962787"><ele>413.0</ele><time>2026-04-26T11:14:09.999Z</time></trkpt><trkpt lat="43.25066480768407" lon="12.968881010823504"><ele>413.5</ele><time>2026-04-26T11:14:10.999Z</time></trkpt><trkpt lat="43.25060120090958" lon="12.96906573482552"><ele>414.0</ele><time>2026-04-26T11:14:11.999Z</time></trkpt><trkpt lat="43.25052616614267" lon="12.96925311907397"><ele>412.0</ele><time>2026-04-26T11:14:12.999Z</time></trkpt><trkpt lat="43.250444974463505" lon="12.96944476136514"><ele>410.0</ele><time>2026-04-26T11:14:13.999Z</time></trkpt><trkpt lat="43.25036831423998" lon="12.969640789423885"><ele>408.0</ele><time>2026-04-26T11:14:14.999Z</time></trkpt><trkpt lat="43.25028902077732" lon="12.969850290139597"><ele>408.0</ele><time>2026-04-26T11:14:15.999Z</time></trkpt><trkpt lat="43.250207766628016" lon="12.970059160982581"><ele>408.0</ele><time>2026-04-26T11:14:16.999Z</time></trkpt><trkpt lat="43.25012456541527" lon="12.97026908426548"><ele>408.0</ele><time>2026-04-26T11:14:17.999Z</time></trkpt><trkpt lat="43.2500404595963" lon="12.970488433502295"><ele>408.0</ele><time>2026-04-26T11:14:18.999Z</time></trkpt><trkpt lat="43.249952901437304" lon="12.970713191729622"><ele>408.0</ele><time>2026-04-26T11:14:19.999Z</time></trkpt><trkpt lat="43.249864689724724" lon="12.970935924027733"><ele>408.0</ele><time>2026-04-26T11:14:20.999Z</time></trkpt><trkpt lat="43.24977472662606" lon="12.97115790740295"><ele>408.0</ele><time>2026-04-26T11:14:21.999Z</time></trkpt><trkpt lat="43.249684607488184" lon="12.971386648202337"><ele>408.0</ele><time>2026-04-26T11:14:22.999Z</time></trkpt><trkpt lat="43.249595940737194" lon="12.971623288311825"><ele>408.0</ele><time>2026-04-26T11:14:23.999Z</time></trkpt><trkpt lat="43.249503390845774" lon="12.971862208922184"><ele>408.0</ele><time>2026-04-26T11:14:24.999Z</time></trkpt><trkpt lat="43.249406896481354" lon="12.972101511100103"><ele>408.0</ele><time>2026-04-26T11:14:25.999Z</time></trkpt><trkpt lat="43.24930954347091" lon="12.972344958044339"><ele>408.0</ele><time>2026-04-26T11:14:26.999Z</time></trkpt><trkpt lat="43.24921365330125" lon="12.972595045963452"><ele>408.0</ele><time>2026-04-26T11:14:27.999Z</time></trkpt><trkpt lat="43.24911688820414" lon="12.972849033887377"><ele>408.0</ele><time>2026-04-26T11:14:28.999Z</time></trkpt><trkpt lat="43.24901607077587" lon="12.973105766418424"><ele>408.0</ele><time>2026-04-26T11:14:29.998Z</time></trkpt><trkpt lat="43.24891114466234" lon="12.973359690612115"><ele>404.66666666666663</ele><time>2026-04-26T11:14:30.998Z</time></trkpt><trkpt lat="43.248807421390644" lon="12.973617973402689"><ele>401.3333333333333</ele><time>2026-04-26T11:14:31.998Z</time></trkpt><trkpt lat="43.24870553366334" lon="12.973880534077582"><ele>398.0</ele><time>2026-04-26T11:14:32.998Z</time></trkpt><trkpt lat="43.248603914422674" lon="12.974145960182701"><ele>398.0</ele><time>2026-04-26T11:14:33.998Z</time></trkpt><trkpt lat="43.248499758489295" lon="12.974411030649858"><ele>398.0</ele><time>2026-04-26T11:14:34.998Z</time></trkpt><trkpt lat="43.24839517071026" lon="12.974676897380863"><ele>398.0</ele><time>2026-04-26T11:14:35.998Z</time></trkpt><trkpt lat="43.24828894263416" lon="12.974945549893391"><ele>398.0</ele><time>2026-04-26T11:14:36.998Z</time></trkpt><trkpt lat="43.24818367041261" lon="12.975212359972"><ele>398.0</ele><time>2026-04-26T11:14:37.998Z</time></trkpt><trkpt lat="43.24807840983771" lon="12.975477649440428"><ele>398.0</ele><time>2026-04-26T11:14:38.998Z</time></trkpt><trkpt lat="43.24797257654381" lon="12.975743423690389"><ele>397.66666666666663</ele><time>2026-04-26T11:14:39.998Z</time></trkpt><trkpt lat="43.24786809283282" lon="12.976009725612364"><ele>397.33333333333337</ele><time>2026-04-26T11:14:40.998Z</time></trkpt><trkpt lat="43.247772717258925" lon="12.976275122636931"><ele>397.0</ele><time>2026-04-26T11:14:41.998Z</time></trkpt><trkpt lat="43.247689697635714" lon="12.976536739790287"><ele>396.33333333333337</ele><time>2026-04-26T11:14:42.998Z</time></trkpt><trkpt lat="43.24763029555502" lon="12.97679969266326"><ele>395.66666666666663</ele><time>2026-04-26T11:14:43.998Z</time></trkpt><trkpt lat="43.24759551834139" lon="12.97706992786669"><ele>395.0</ele><time>2026-04-26T11:14:44.998Z</time></trkpt><trkpt lat="43.24759784194974" lon="12.97733553046197"><ele>393.3333333333333</ele><time>2026-04-26T11:14:45.998Z</time></trkpt><trkpt lat="43.24761142465277" lon="12.97759486924872"><ele>391.66666666666663</ele><time>2026-04-26T11:14:46.998Z</time></trkpt><trkpt lat="43.24762632295033" lon="12.977846056897496"><ele>390.0</ele><time>2026-04-26T11:14:47.998Z</time></trkpt><trkpt lat="43.24763334230864" lon="12.978089479440897"><ele>390.0</ele><time>2026-04-26T11:14:48.998Z</time></trkpt><trkpt lat="43.24763532053789" lon="12.978318618044874"><ele>390.0</ele><time>2026-04-26T11:14:49.998Z</time></trkpt><trkpt lat="43.24763799164053" lon="12.978538119805252"><ele>390.0</ele><time>2026-04-26T11:14:50.998Z</time></trkpt><trkpt lat="43.24764064812446" lon="12.978753042551752"><ele>388.25</ele><time>2026-04-26T11:14:51.998Z</time></trkpt><trkpt lat="43.24764505387484" lon="12.978953294512666"><ele>386.5</ele><time>2026-04-26T11:14:52.998Z</time></trkpt><trkpt lat="43.24765022275959" lon="12.979141628185696"><ele>384.75</ele><time>2026-04-26T11:14:53.998Z</time></trkpt><trkpt lat="43.24765146017932" lon="12.979308468266279"><ele>383.0</ele><time>2026-04-26T11:14:54.998Z</time></trkpt><trkpt lat="43.2476419689993" lon="12.979395938144227"><ele>382.83333333333337</ele><time>2026-04-26T11:14:55.998Z</time></trkpt><trkpt lat="43.24764197435106" lon="12.979515480975572"><ele>382.6666666666667</ele><time>2026-04-26T11:14:57.998Z</time></trkpt><trkpt lat="43.24764735598941" lon="12.979607994477064"><ele>382.5</ele><time>2026-04-26T11:15:51.999Z</time></trkpt><trkpt lat="43.24765911034807" lon="12.979742182766628"><ele>382.3333333333333</ele><time>2026-04-26T11:15:53.999Z</time></trkpt><trkpt lat="43.2476636346421" lon="12.979844601468082"><ele>382.16666666666663</ele><time>2026-04-26T11:15:54.999Z</time></trkpt><trkpt lat="43.24766680740205" lon="12.979958751671411"><ele>382.0</ele><time>2026-04-26T11:15:55.999Z</time></trkpt><trkpt lat="43.24766678058514" lon="12.980087811474734"><ele>382.6</ele><time>2026-04-26T11:15:56.999Z</time></trkpt><trkpt lat="43.247664824528464" lon="12.980206603567972"><ele>383.20000000000005</ele><time>2026-04-26T11:15:57.999Z</time></trkpt><trkpt lat="43.247663245396936" lon="12.98031114952429"><ele>383.8</ele><time>2026-04-26T11:15:58.999Z</time></trkpt><trkpt lat="43.247657550058136" lon="12.980450864697882"><ele>384.4</ele><time>2026-04-26T11:16:00.999Z</time></trkpt><trkpt lat="43.24780165468135" lon="12.980487823750526"><ele>385.0</ele><time>2026-04-26T11:16:05.999Z</time></trkpt><trkpt lat="43.24790531425894" lon="12.980436685958814"><ele>385.00000000000006</ele><time>2026-04-26T11:16:07.999Z</time></trkpt><trkpt lat="43.248029839907346" lon="12.980399415576649"><ele>385.0</ele><time>2026-04-26T11:16:09.999Z</time></trkpt><trkpt lat="43.248098332140295" lon="12.980376594130203"><ele>385.0</ele><time>2026-04-26T11:16:10.999Z</time></trkpt><trkpt lat="43.248169695706025" lon="12.980360123753206"><ele>385.0</ele><time>2026-04-26T11:16:11.999Z</time></trkpt><trkpt lat="43.248237482939665" lon="12.980342487987972"><ele>385.00000000000006</ele><time>2026-04-26T11:16:12.999Z</time></trkpt><trkpt lat="43.248300355894656" lon="12.98032343449909"><ele>385.0</ele><time>2026-04-26T11:16:13.999Z</time></trkpt><trkpt lat="43.24840594241896" lon="12.980274690854351"><ele>386.4</ele><time>2026-04-26T11:16:15.999Z</time></trkpt><trkpt lat="43.24849857357934" lon="12.980190042656638"><ele>387.8</ele><time>2026-04-26T11:16:17.999Z</time></trkpt><trkpt lat="43.24854737611511" lon="12.980133863526905"><ele>389.20000000000005</ele><time>2026-04-26T11:16:18.999Z</time></trkpt><trkpt lat="43.24864955014885" lon="12.980042705333085"><ele>390.6</ele><time>2026-04-26T11:16:20.999Z</time></trkpt><trkpt lat="43.248737080626015" lon="12.97990042874454"><ele>392.0</ele><time>2026-04-26T11:16:22.999Z</time></trkpt><trkpt lat="43.24877277492438" lon="12.979817911013166"><ele>391.99999999999994</ele><time>2026-04-26T11:16:23.999Z</time></trkpt><trkpt lat="43.24881329178947" lon="12.979744490865448"><ele>392.0</ele><time>2026-04-26T11:16:24.999Z</time></trkpt><trkpt lat="43.24884923768294" lon="12.979668218437812"><ele>392.0</ele><time>2026-04-26T11:16:25.999Z</time></trkpt><trkpt lat="43.248894908648246" lon="12.979594193619945"><ele>392.0</ele><time>2026-04-26T11:16:26.999Z</time></trkpt><trkpt lat="43.24893477216747" lon="12.979519062415184"><ele>391.99999999999994</ele><time>2026-04-26T11:16:27.999Z</time></trkpt><trkpt lat="43.24897710375209" lon="12.979450827168902"><ele>392.0</ele><time>2026-04-26T11:16:28.999Z</time></trkpt><trkpt lat="43.24905900081732" lon="12.979338142310667"><ele>393.0</ele><time>2026-04-26T11:16:30.999Z</time></trkpt><trkpt lat="43.24911836097886" lon="12.979250395368547"><ele>394.0</ele><time>2026-04-26T11:16:32.999Z</time></trkpt><trkpt lat="43.24920086185293" lon="12.979174029080472"><ele>395.0</ele><time>2026-04-26T11:16:34.999Z</time></trkpt><trkpt lat="43.249302434288296" lon="12.979148439949803"><ele>396.0</ele><time>2026-04-26T11:16:36.999Z</time></trkpt><trkpt lat="43.24941387066189" lon="12.979153322909749"><ele>397.0</ele><time>2026-04-26T11:16:38.999Z</time></trkpt><trkpt lat="43.24953276103503" lon="12.979151464050032"><ele>397.0</ele><time>2026-04-26T11:16:40.999Z</time></trkpt><trkpt lat="43.24964310282713" lon="12.979116655175671"><ele>397.0</ele><time>2026-04-26T11:16:42.999Z</time></trkpt><trkpt lat="43.2497366252193" lon="12.979021987479266"><ele>397.0</ele><time>2026-04-26T11:16:44.999Z</time></trkpt><trkpt lat="43.24979880021711" lon="12.978985322807231"><ele>397.0</ele><time>2026-04-26T11:16:45.999Z</time></trkpt><trkpt lat="43.249902181823614" lon="12.97889071981055"><ele>397.0</ele><time>2026-04-26T11:16:47.999Z</time></trkpt><trkpt lat="43.25000227678233" lon="12.978810581340626"><ele>399.40000000000003</ele><time>2026-04-26T11:16:49.999Z</time></trkpt><trkpt lat="43.25008957561191" lon="12.978744819416837"><ele>401.8</ele><time>2026-04-26T11:16:51.998Z</time></trkpt><trkpt lat="43.25017923869775" lon="12.97868478407527"><ele>404.2</ele><time>2026-04-26T11:16:53.998Z</time></trkpt><trkpt lat="43.25027065145641" lon="12.978617754306493"><ele>406.6</ele><time>2026-04-26T11:16:55.998Z</time></trkpt><trkpt lat="43.250369069056624" lon="12.978577107978072"><ele>409.0</ele><time>2026-04-26T11:16:57.998Z</time></trkpt><trkpt lat="43.25046810050767" lon="12.978541232919346"><ele>409.0</ele><time>2026-04-26T11:16:59.998Z</time></trkpt><trkpt lat="43.250583511682294" lon="12.97847294153647"><ele>409.0</ele><time>2026-04-26T11:17:01.998Z</time></trkpt><trkpt lat="43.250671338420155" lon="12.97842143184666"><ele>409.0</ele><time>2026-04-26T11:17:03.998Z</time></trkpt><trkpt lat="43.25076011837794" lon="12.978381275441803"><ele>409.0</ele><time>2026-04-26T11:17:05.998Z</time></trkpt><trkpt lat="43.25084851949391" lon="12.978338959766372"><ele>409.0</ele><time>2026-04-26T11:17:07.998Z</time></trkpt><trkpt lat="43.25094858208463" lon="12.978311011602392"><ele>411.2</ele><time>2026-04-26T11:17:09.998Z</time></trkpt><trkpt lat="43.251046740408924" lon="12.978302421915405"><ele>413.4</ele><time>2026-04-26T11:17:11.998Z</time></trkpt><trkpt lat="43.25116091148544" lon="12.9783134908392"><ele>415.6</ele><time>2026-04-26T11:17:13.998Z</time></trkpt><trkpt lat="43.251224855368086" lon="12.978319915106452"><ele>417.8</ele><time>2026-04-26T11:17:14.998Z</time></trkpt><trkpt lat="43.25135019096301" lon="12.97832368030457"><ele>420.0</ele><time>2026-04-26T11:17:16.998Z</time></trkpt><trkpt lat="43.25147034862279" lon="12.978294891837791"><ele>422.4</ele><time>2026-04-26T11:17:18.998Z</time></trkpt><trkpt lat="43.251532100653066" lon="12.978261514961465"><ele>424.8</ele><time>2026-04-26T11:17:19.998Z</time></trkpt><trkpt lat="43.25162593540788" lon="12.978206721437614"><ele>427.20000000000005</ele><time>2026-04-26T11:17:20.998Z</time></trkpt><trkpt lat="43.25172339387191" lon="12.978158118317227"><ele>429.6</ele><time>2026-04-26T11:17:21.998Z</time></trkpt><trkpt lat="43.251835363611036" lon="12.978117974039897"><ele>432.0</ele><time>2026-04-26T11:17:22.998Z</time></trkpt><trkpt lat="43.25196036997145" lon="12.978084848411633"><ele>432.0</ele><time>2026-04-26T11:17:23.998Z</time></trkpt><trkpt lat="43.252089235481215" lon="12.978061946214293"><ele>432.0</ele><time>2026-04-26T11:17:24.998Z</time></trkpt><trkpt lat="43.252213267563405" lon="12.978040541562358"><ele>432.0</ele><time>2026-04-26T11:17:25.998Z</time></trkpt><trkpt lat="43.25232236811393" lon="12.97801899184706"><ele>432.0</ele><time>2026-04-26T11:17:26.998Z</time></trkpt><trkpt lat="43.252420224731004" lon="12.97799513895775"><ele>434.0</ele><time>2026-04-26T11:17:27.998Z</time></trkpt><trkpt lat="43.25250688745893" lon="12.977971290328131"><ele>436.0</ele><time>2026-04-26T11:17:29Z</time></trkpt><trkpt lat="43.25258421911858" lon="12.977950641174486"><ele>438.0</ele><time>2026-04-26T11:17:30Z</time></trkpt><trkpt lat="43.2526537703565" lon="12.977938529067814"><ele>440.0</ele><time>2026-04-26T11:17:31Z</time></trkpt><trkpt lat="43.25271977572776" lon="12.97792095402423"><ele>442.0</ele><time>2026-04-26T11:17:32Z</time></trkpt><trkpt lat="43.25278277379283" lon="12.977897647748403"><ele>444.0</ele><time>2026-04-26T11:17:33Z</time></trkpt><trkpt lat="43.252896988664666" lon="12.977828369954722"><ele>444.0</ele><time>2026-04-26T11:17:35Z</time></trkpt><trkpt lat="43.252958355904376" lon="12.977782047405928"><ele>444.0</ele><time>2026-04-26T11:17:36Z</time></trkpt><trkpt lat="43.253019265618796" lon="12.977727189601094"><ele>444.0</ele><time>2026-04-26T11:17:37Z</time></trkpt><trkpt lat="43.253086091021316" lon="12.977671569706562"><ele>444.0</ele><time>2026-04-26T11:17:38Z</time></trkpt><trkpt lat="43.253151815126984" lon="12.977619969954981"><ele>444.0</ele><time>2026-04-26T11:17:39Z</time></trkpt><trkpt lat="43.25321530114014" lon="12.977568728862272"><ele>444.0</ele><time>2026-04-26T11:17:40Z</time></trkpt><trkpt lat="43.253280779432615" lon="12.97751494442639"><ele>444.0</ele><time>2026-04-26T11:17:41Z</time></trkpt><trkpt lat="43.25334081911793" lon="12.977462936026805"><ele>444.2</ele><time>2026-04-26T11:17:42Z</time></trkpt><trkpt lat="43.25343841473052" lon="12.977376213442058"><ele>444.4</ele><time>2026-04-26T11:17:44Z</time></trkpt><trkpt lat="43.25351053598984" lon="12.9773174678555"><ele>444.6</ele><time>2026-04-26T11:17:46Z</time></trkpt><trkpt lat="43.253581777646694" lon="12.97731438801577"><ele>444.8</ele><time>2026-04-26T11:17:50.999Z</time></trkpt><trkpt lat="43.25360663044838" lon="12.9774817187204"><ele>445.0</ele><time>2026-04-26T11:17:52.999Z</time></trkpt><trkpt lat="43.25365643787737" lon="12.97762872770065"><ele>445.50000000000006</ele><time>2026-04-26T11:17:54.999Z</time></trkpt><trkpt lat="43.25372229121642" lon="12.977777373007658"><ele>446.0</ele><time>2026-04-26T11:17:56.999Z</time></trkpt><trkpt lat="43.25376529688025" lon="12.97784383587592"><ele>446.5</ele><time>2026-04-26T11:17:57.999Z</time></trkpt><trkpt lat="43.2538163971067" lon="12.977926100303806"><ele>447.0</ele><time>2026-04-26T11:17:58.999Z</time></trkpt><trkpt lat="43.25387339809508" lon="12.97801615359933"><ele>447.50000000000006</ele><time>2026-04-26T11:17:59.999Z</time></trkpt><trkpt lat="43.25393338479542" lon="12.97810419575849"><ele>448.0</ele><time>2026-04-26T11:18:00.999Z</time></trkpt><trkpt lat="43.25399563388416" lon="12.97819225138905"><ele>446.83333333333337</ele><time>2026-04-26T11:18:02Z</time></trkpt><trkpt lat="43.254055591508845" lon="12.978280075823582"><ele>445.6666666666667</ele><time>2026-04-26T11:18:03Z</time></trkpt><trkpt lat="43.25411036559884" lon="12.97836554060186"><ele>444.5</ele><time>2026-04-26T11:18:04Z</time></trkpt><trkpt lat="43.25415190211924" lon="12.978459091695624"><ele>443.33333333333337</ele><time>2026-04-26T11:18:05Z</time></trkpt><trkpt lat="43.25416565551262" lon="12.978568617103782"><ele>442.1666666666667</ele><time>2026-04-26T11:18:06Z</time></trkpt><trkpt lat="43.25418786066817" lon="12.978669056479697"><ele>441.0</ele><time>2026-04-26T11:18:07Z</time></trkpt><trkpt lat="43.25422225893899" lon="12.978759127953241"><ele>441.0</ele><time>2026-04-26T11:18:08Z</time></trkpt><trkpt lat="43.254245543472166" lon="12.978849765396703"><ele>441.0</ele><time>2026-04-26T11:18:09Z</time></trkpt><trkpt lat="43.2542728089975" lon="12.978939136828041"><ele>441.0</ele><time>2026-04-26T11:18:10Z</time></trkpt><trkpt lat="43.2543083599252" lon="12.979032820501967"><ele>441.0</ele><time>2026-04-26T11:18:11Z</time></trkpt><trkpt lat="43.25434542696772" lon="12.979122999579365"><ele>441.0</ele><time>2026-04-26T11:18:12Z</time></trkpt><trkpt lat="43.25438315701991" lon="12.979208511829158"><ele>441.0</ele><time>2026-04-26T11:18:13Z</time></trkpt><trkpt lat="43.25442031960521" lon="12.979290933858753"><ele>441.0</ele><time>2026-04-26T11:18:14Z</time></trkpt><trkpt lat="43.25446079467362" lon="12.979367056600282"><ele>440.1666666666667</ele><time>2026-04-26T11:18:15Z</time></trkpt><trkpt lat="43.2545107621161" lon="12.97943358642081"><ele>439.33333333333337</ele><time>2026-04-26T11:18:16Z</time></trkpt><trkpt lat="43.254563917695606" lon="12.979484055418633"><ele>438.5</ele><time>2026-04-26T11:18:17Z</time></trkpt><trkpt lat="43.2546396413918" lon="12.979565893604422"><ele>437.6666666666667</ele><time>2026-04-26T11:18:19Z</time></trkpt><trkpt lat="43.25472318374228" lon="12.979642384720156"><ele>436.83333333333337</ele><time>2026-04-26T11:18:21Z</time></trkpt><trkpt lat="43.25476921964529" lon="12.979703459917953"><ele>436.0</ele><time>2026-04-26T11:18:22Z</time></trkpt><trkpt lat="43.25482265553642" lon="12.979773892862907"><ele>436.00000000000006</ele><time>2026-04-26T11:18:23Z</time></trkpt><trkpt lat="43.25487886177127" lon="12.979838812941294"><ele>436.0</ele><time>2026-04-26T11:18:24Z</time></trkpt><trkpt lat="43.25494068956725" lon="12.979905734093768"><ele>436.0</ele><time>2026-04-26T11:18:25Z</time></trkpt><trkpt lat="43.25500394439796" lon="12.97995997845647"><ele>436.0</ele><time>2026-04-26T11:18:26Z</time></trkpt><trkpt lat="43.255068348451566" lon="12.979998514880297"><ele>436.00000000000006</ele><time>2026-04-26T11:18:27Z</time></trkpt><trkpt lat="43.2551303444358" lon="12.980022197531103"><ele>436.0</ele><time>2026-04-26T11:18:28Z</time></trkpt><trkpt lat="43.2552268866793" lon="12.980087822823338"><ele>434.20000000000005</ele><time>2026-04-26T11:18:30Z</time></trkpt><trkpt lat="43.25534732726769" lon="12.980133103013728"><ele>432.40000000000003</ele><time>2026-04-26T11:18:32Z</time></trkpt><trkpt lat="43.255445098681676" lon="12.980193928879931"><ele>430.6</ele><time>2026-04-26T11:18:34Z</time></trkpt><trkpt lat="43.25552842089314" lon="12.98025444937506"><ele>428.8</ele><time>2026-04-26T11:18:36Z</time></trkpt><trkpt lat="43.25562396438575" lon="12.98033533342376"><ele>427.0</ele><time>2026-04-26T11:18:37.999Z</time></trkpt><trkpt lat="43.25570935268949" lon="12.980452003953532"><ele>427.0</ele><time>2026-04-26T11:18:39.999Z</time></trkpt><trkpt lat="43.255757725027955" lon="12.980592883302497"><ele>427.00000000000006</ele><time>2026-04-26T11:18:41.999Z</time></trkpt><trkpt lat="43.255783234785405" lon="12.980736663851909"><ele>427.00000000000006</ele><time>2026-04-26T11:18:43.999Z</time></trkpt><trkpt lat="43.255778886704306" lon="12.980858046517067"><ele>427.0</ele><time>2026-04-26T11:18:45.999Z</time></trkpt><trkpt lat="43.25579339697818" lon="12.980995480566584"><ele>427.0</ele><time>2026-04-26T11:18:47.999Z</time></trkpt><trkpt lat="43.2558158202253" lon="12.981078438532041"><ele>428.0</ele><time>2026-04-26T11:18:48.999Z</time></trkpt><trkpt lat="43.255887926761694" lon="12.98122432948126"><ele>429.0</ele><time>2026-04-26T11:18:50.999Z</time></trkpt><trkpt lat="43.2559420820599" lon="12.981375071383658"><ele>430.0</ele><time>2026-04-26T11:18:52.999Z</time></trkpt><trkpt lat="43.25600622624419" lon="12.981497133908569"><ele>431.0</ele><time>2026-04-26T11:18:54.999Z</time></trkpt><trkpt lat="43.25602260819729" lon="12.981652581011133"><ele>432.6</ele><time>2026-04-26T11:18:56.999Z</time></trkpt><trkpt lat="43.256003320015616" lon="12.981810811630696"><ele>434.20000000000005</ele><time>2026-04-26T11:18:58.999Z</time></trkpt><trkpt lat="43.25598408629262" lon="12.981960541706927"><ele>435.79999999999995</ele><time>2026-04-26T11:19:00.999Z</time></trkpt><trkpt lat="43.25602552024411" lon="12.982082906655839"><ele>437.4</ele><time>2026-04-26T11:19:02.999Z</time></trkpt><trkpt lat="43.25612506206465" lon="12.982118623146492"><ele>439.0</ele><time>2026-04-26T11:19:04.999Z</time></trkpt><trkpt lat="43.256189270153385" lon="12.982144551827535"><ele>439.00000000000006</ele><time>2026-04-26T11:19:05.999Z</time></trkpt><trkpt lat="43.25625998803578" lon="12.98216478276029"><ele>439.0</ele><time>2026-04-26T11:19:06.999Z</time></trkpt><trkpt lat="43.256334580023555" lon="12.982189143358525"><ele>439.0</ele><time>2026-04-26T11:19:07.999Z</time></trkpt><trkpt lat="43.2564067487957" lon="12.982211099390739"><ele>439.0</ele><time>2026-04-26T11:19:08.999Z</time></trkpt><trkpt lat="43.25648236032796" lon="12.982220136670016"><ele>439.00000000000006</ele><time>2026-04-26T11:19:09.999Z</time></trkpt><trkpt lat="43.25655453591792" lon="12.982225748529638"><ele>439.0</ele><time>2026-04-26T11:19:10.999Z</time></trkpt><trkpt lat="43.25667467458263" lon="12.982239483973615"><ele>438.0</ele><time>2026-04-26T11:19:12.999Z</time></trkpt><trkpt lat="43.25679325435416" lon="12.982241342841053"><ele>437.0</ele><time>2026-04-26T11:19:14.999Z</time></trkpt><trkpt lat="43.25688306547851" lon="12.982214217830121"><ele>436.0</ele><time>2026-04-26T11:19:16.999Z</time></trkpt><trkpt lat="43.256970039901255" lon="12.982208971263772"><ele>435.0</ele><time>2026-04-26T11:19:20.999Z</time></trkpt><trkpt lat="43.257060123145365" lon="12.982197266178419"><ele>434.0</ele><time>2026-04-26T11:19:22.999Z</time></trkpt><trkpt lat="43.25716367053778" lon="12.982159597966335"><ele>434.0</ele><time>2026-04-26T11:19:24.999Z</time></trkpt><trkpt lat="43.257224325865515" lon="12.9821835922528"><ele>434.0</ele><time>2026-04-26T11:19:25.999Z</time></trkpt><trkpt lat="43.25731566606335" lon="12.98228807065148"><ele>434.0</ele><time>2026-04-26T11:19:27.999Z</time></trkpt><trkpt lat="43.25737907131934" lon="12.982405404941428"><ele>434.0</ele><time>2026-04-26T11:19:29.999Z</time></trkpt><trkpt lat="43.25742349404297" lon="12.982546165938915"><ele>434.0</ele><time>2026-04-26T11:19:31.999Z</time></trkpt><trkpt lat="43.25744635391005" lon="12.982631256322824"><ele>432.7142857142857</ele><time>2026-04-26T11:19:32.999Z</time></trkpt><trkpt lat="43.25746994612227" lon="12.982720075607721"><ele>431.42857142857144</ele><time>2026-04-26T11:19:33.999Z</time></trkpt><trkpt lat="43.257488001886436" lon="12.982810124403995"><ele>430.1428571428571</ele><time>2026-04-26T11:19:35Z</time></trkpt><trkpt lat="43.257508575545245" lon="12.982902447027657"><ele>428.8571428571429</ele><time>2026-04-26T11:19:36Z</time></trkpt><trkpt lat="43.25752654252037" lon="12.982990337800473"><ele>427.57142857142856</ele><time>2026-04-26T11:19:37Z</time></trkpt><trkpt lat="43.25754498826897" lon="12.983078782171926"><ele>426.2857142857143</ele><time>2026-04-26T11:19:38Z</time></trkpt><trkpt lat="43.25756739325728" lon="12.98317500110361"><ele>425.0</ele><time>2026-04-26T11:19:39Z</time></trkpt><trkpt lat="43.257599208952634" lon="12.983280606226714"><ele>426.3333333333333</ele><time>2026-04-26T11:19:40.001Z</time></trkpt><trkpt lat="43.25763884569376" lon="12.983370441512413"><ele>427.66666666666663</ele><time>2026-04-26T11:19:41.001Z</time></trkpt><trkpt lat="43.25767707653878" lon="12.983446305106815"><ele>429.0</ele><time>2026-04-26T11:19:42.001Z</time></trkpt><trkpt lat="43.25776176139744" lon="12.983541207358082"><ele>430.33333333333337</ele><time>2026-04-26T11:19:44.001Z</time></trkpt><trkpt lat="43.25784271727906" lon="12.983632864321022"><ele>431.6666666666667</ele><time>2026-04-26T11:19:46.001Z</time></trkpt><trkpt lat="43.25792074504545" lon="12.983656630056888"><ele>433.0</ele><time>2026-04-26T11:19:48.001Z</time></trkpt><trkpt lat="43.258014037609385" lon="12.983710650415933"><ele>433.0</ele><time>2026-04-26T11:19:50.001Z</time></trkpt><trkpt lat="43.25811723738284" lon="12.983790878888433"><ele>432.99999999999994</ele><time>2026-04-26T11:19:52.001Z</time></trkpt><trkpt lat="43.25818639414137" lon="12.983812166385352"><ele>432.99999999999994</ele><time>2026-04-26T11:19:53.001Z</time></trkpt><trkpt lat="43.25829139898689" lon="12.983894030174984"><ele>433.0</ele><time>2026-04-26T11:19:55Z</time></trkpt><trkpt lat="43.258393082154505" lon="12.983983830646896"><ele>433.0</ele><time>2026-04-26T11:19:57Z</time></trkpt><trkpt lat="43.2584474706585" lon="12.984051613642093"><ele>430.83333333333337</ele><time>2026-04-26T11:19:59Z</time></trkpt><trkpt lat="43.258520639112696" lon="12.984154366162429"><ele>428.6666666666667</ele><time>2026-04-26T11:20:18Z</time></trkpt><trkpt lat="43.258579687528226" lon="12.984298302650844"><ele>426.5</ele><time>2026-04-26T11:20:20Z</time></trkpt><trkpt lat="43.25861061678157" lon="12.984380645916438"><ele>424.33333333333337</ele><time>2026-04-26T11:20:21Z</time></trkpt><trkpt lat="43.25864024149732" lon="12.984463066643048"><ele>422.1666666666667</ele><time>2026-04-26T11:20:22Z</time></trkpt><trkpt lat="43.25866312561811" lon="12.98454486104814"><ele>420.0</ele><time>2026-04-26T11:20:23Z</time></trkpt><trkpt lat="43.25869708731683" lon="12.984698336862289"><ele>420.0</ele><time>2026-04-26T11:20:25Z</time></trkpt><trkpt lat="43.25871068619772" lon="12.984869398987374"><ele>420.0</ele><time>2026-04-26T11:20:27Z</time></trkpt><trkpt lat="43.25870285078666" lon="12.98497814963075"><ele>420.0</ele><time>2026-04-26T11:20:28Z</time></trkpt><trkpt lat="43.25869172276301" lon="12.98509437276545"><ele>420.0</ele><time>2026-04-26T11:20:29Z</time></trkpt><trkpt lat="43.25869207790174" lon="12.985221424981068"><ele>420.0</ele><time>2026-04-26T11:20:30Z</time></trkpt><trkpt lat="43.258681052836785" lon="12.985338711549566"><ele>419.3333333333333</ele><time>2026-04-26T11:20:31Z</time></trkpt><trkpt lat="43.25868073749956" lon="12.985459562693903"><ele>418.66666666666663</ele><time>2026-04-26T11:20:32Z</time></trkpt><trkpt lat="43.25868068588376" lon="12.985576987968026"><ele>418.0</ele><time>2026-04-26T11:20:33Z</time></trkpt><trkpt lat="43.25868604395306" lon="12.985691763388425"><ele>417.3333333333333</ele><time>2026-04-26T11:20:34Z</time></trkpt><trkpt lat="43.258670217203495" lon="12.985800948137843"><ele>416.66666666666663</ele><time>2026-04-26T11:20:35Z</time></trkpt><trkpt lat="43.258667837817164" lon="12.98590748205252"><ele>416.0</ele><time>2026-04-26T11:20:36Z</time></trkpt><trkpt lat="43.258663798452524" lon="12.986017269607638"><ele>415.3333333333333</ele><time>2026-04-26T11:20:37Z</time></trkpt><trkpt lat="43.25865915496306" lon="12.986121059832328"><ele>414.66666666666663</ele><time>2026-04-26T11:20:38Z</time></trkpt><trkpt lat="43.25865393107768" lon="12.986224764745751"><ele>414.0</ele><time>2026-04-26T11:20:39Z</time></trkpt><trkpt lat="43.258646971692876" lon="12.986335710505738"><ele>413.33333333333337</ele><time>2026-04-26T11:20:40Z</time></trkpt><trkpt lat="43.25863792842438" lon="12.986443869795897"><ele>412.6666666666667</ele><time>2026-04-26T11:20:41Z</time></trkpt><trkpt lat="43.25862343784688" lon="12.98655099042728"><ele>412.0</ele><time>2026-04-26T11:20:42Z</time></trkpt><trkpt lat="43.258607132540796" lon="12.986654097007607"><ele>411.20000000000005</ele><time>2026-04-26T11:20:43Z</time></trkpt><trkpt lat="43.258602396487355" lon="12.986755037800055"><ele>410.4</ele><time>2026-04-26T11:20:44Z</time></trkpt><trkpt lat="43.25856526050563" lon="12.986836557863354"><ele>409.6</ele><time>2026-04-26T11:20:45Z</time></trkpt><trkpt lat="43.25851141143452" lon="12.986989349891278"><ele>408.79999999999995</ele><time>2026-04-26T11:20:47Z</time></trkpt><trkpt lat="43.258486132717735" lon="12.987133435199912"><ele>408.0</ele><time>2026-04-26T11:20:49Z</time></trkpt><trkpt lat="43.258493142637114" lon="12.987272465463997"><ele>408.0</ele><time>2026-04-26T11:20:51Z</time></trkpt><trkpt lat="43.258525747808534" lon="12.987440844099636"><ele>408.0</ele><time>2026-04-26T11:20:53Z</time></trkpt><trkpt lat="43.25854397137151" lon="12.987523656429703"><ele>408.0</ele><time>2026-04-26T11:20:54Z</time></trkpt><trkpt lat="43.25859268526364" lon="12.98767934768058"><ele>408.0</ele><time>2026-04-26T11:20:56Z</time></trkpt><trkpt lat="43.25864038927793" lon="12.987818175677534"><ele>408.0</ele><time>2026-04-26T11:20:58Z</time></trkpt><trkpt lat="43.2586863128534" lon="12.987947521374329"><ele>408.0</ele><time>2026-04-26T11:21:00Z</time></trkpt><trkpt lat="43.258733215368" lon="12.98808898068883"><ele>408.0</ele><time>2026-04-26T11:21:02Z</time></trkpt><trkpt lat="43.25878752745285" lon="12.988211844337178"><ele>408.0</ele><time>2026-04-26T11:21:04Z</time></trkpt><trkpt lat="43.25887188339816" lon="12.98830509629362"><ele>408.0</ele><time>2026-04-26T11:21:06Z</time></trkpt><trkpt lat="43.2589350435564" lon="12.988308834357069"><ele>408.0</ele><time>2026-04-26T11:21:07Z</time></trkpt><trkpt lat="43.25901807782791" lon="12.98839101872562"><ele>405.8333333333333</ele><time>2026-04-26T11:21:08.999Z</time></trkpt><trkpt lat="43.259057165466444" lon="12.988552454258752"><ele>403.66666666666663</ele><time>2026-04-26T11:21:10.999Z</time></trkpt><trkpt lat="43.259100525083056" lon="12.988628249125851"><ele>401.5</ele><time>2026-04-26T11:21:11.999Z</time></trkpt><trkpt lat="43.2591263102077" lon="12.988717676408061"><ele>399.3333333333333</ele><time>2026-04-26T11:21:12.999Z</time></trkpt><trkpt lat="43.25914582458635" lon="12.988811870269986"><ele>397.16666666666663</ele><time>2026-04-26T11:21:13.999Z</time></trkpt><trkpt lat="43.25915658817438" lon="12.988903384576332"><ele>395.0</ele><time>2026-04-26T11:21:14.999Z</time></trkpt><trkpt lat="43.25913363657384" lon="12.988999276942884"><ele>394.99999999999994</ele><time>2026-04-26T11:21:15.999Z</time></trkpt><trkpt lat="43.25910765127531" lon="12.989088655190034"><ele>395.0</ele><time>2026-04-26T11:21:16.999Z</time></trkpt><trkpt lat="43.25910847148615" lon="12.989243353674357"><ele>395.0</ele><time>2026-04-26T11:21:18.999Z</time></trkpt><trkpt lat="43.25915604078639" lon="12.989311378741075"><ele>395.0</ele><time>2026-04-26T11:21:19.999Z</time></trkpt><trkpt lat="43.25918475422594" lon="12.989392530776609"><ele>394.99999999999994</ele><time>2026-04-26T11:21:20.999Z</time></trkpt><trkpt lat="43.259196966708146" lon="12.989488512769796"><ele>395.0</ele><time>2026-04-26T11:21:21.999Z</time></trkpt><trkpt lat="43.25922523322752" lon="12.989580113431302"><ele>396.0</ele><time>2026-04-26T11:21:22.999Z</time></trkpt><trkpt lat="43.25925346055403" lon="12.98966643888912"><ele>397.0</ele><time>2026-04-26T11:21:23.999Z</time></trkpt><trkpt lat="43.25934403796198" lon="12.989783724191417"><ele>398.0</ele><time>2026-04-26T11:21:25.999Z</time></trkpt><trkpt lat="43.25936833807665" lon="12.98992324720841"><ele>399.0</ele><time>2026-04-26T11:21:27.999Z</time></trkpt><trkpt lat="43.25938953897008" lon="12.990058365188997"><ele>400.0</ele><time>2026-04-26T11:21:29.999Z</time></trkpt><trkpt lat="43.25941116194002" lon="12.990202100677347"><ele>400.83333333333337</ele><time>2026-04-26T11:21:31.999Z</time></trkpt><trkpt lat="43.25944785249096" lon="12.99036245573477"><ele>401.6666666666667</ele><time>2026-04-26T11:21:33.999Z</time></trkpt><trkpt lat="43.25948130350127" lon="12.990454800726674"><ele>402.5</ele><time>2026-04-26T11:21:34.999Z</time></trkpt><trkpt lat="43.259520597118545" lon="12.990533648073034"><ele>403.33333333333337</ele><time>2026-04-26T11:21:35.999Z</time></trkpt><trkpt lat="43.259567508396614" lon="12.9906093525618"><ele>404.1666666666667</ele><time>2026-04-26T11:21:36.999Z</time></trkpt><trkpt lat="43.25960043810849" lon="12.990697172800227"><ele>405.0</ele><time>2026-04-26T11:21:37.999Z</time></trkpt><trkpt lat="43.259639706668445" lon="12.990776563574254"><ele>404.99999999999994</ele><time>2026-04-26T11:21:38.999Z</time></trkpt><trkpt lat="43.25967667679989" lon="12.990851307564766"><ele>405.0</ele><time>2026-04-26T11:21:40.001Z</time></trkpt><trkpt lat="43.25972536336164" lon="12.990910577531361"><ele>405.0</ele><time>2026-04-26T11:21:41.001Z</time></trkpt><trkpt lat="43.259754729879674" lon="12.990992132822605"><ele>405.0</ele><time>2026-04-26T11:21:42.001Z</time></trkpt><trkpt lat="43.25979297300345" lon="12.99108474463153"><ele>405.0</ele><time>2026-04-26T11:21:43.001Z</time></trkpt><trkpt lat="43.25983732389228" lon="12.991179250691978"><ele>404.99999999999994</ele><time>2026-04-26T11:21:44.001Z</time></trkpt><trkpt lat="43.25989083293978" lon="12.99125951000775"><ele>405.0</ele><time>2026-04-26T11:21:45.001Z</time></trkpt><trkpt lat="43.25994988388064" lon="12.99133656597111"><ele>405.0</ele><time>2026-04-26T11:21:46.001Z</time></trkpt><trkpt lat="43.26001957552151" lon="12.991420463087389"><ele>405.0</ele><time>2026-04-26T11:21:47.001Z</time></trkpt><trkpt lat="43.26008805457181" lon="12.991515041376699"><ele>405.0</ele><time>2026-04-26T11:21:48.001Z</time></trkpt><trkpt lat="43.260154250540054" lon="12.991603507392977"><ele>405.0</ele><time>2026-04-26T11:21:49.001Z</time></trkpt><trkpt lat="43.26020622402768" lon="12.991681407289995"><ele>405.0</ele><time>2026-04-26T11:21:50.001Z</time></trkpt><trkpt lat="43.26027141369128" lon="12.991806646097544"><ele>405.0</ele><time>2026-04-26T11:21:52.001Z</time></trkpt><trkpt lat="43.26029450219726" lon="12.99194851042909"><ele>405.0</ele><time>2026-04-26T11:21:54.001Z</time></trkpt><trkpt lat="43.26024945346978" lon="12.992055871548581"><ele>405.0</ele><time>2026-04-26T11:21:56.001Z</time></trkpt><trkpt lat="43.26015169121483" lon="12.99212966602101"><ele>405.0</ele><time>2026-04-26T11:21:58.001Z</time></trkpt><trkpt lat="43.26004258511483" lon="12.992207342932188"><ele>405.0</ele><time>2026-04-26T11:22:00Z</time></trkpt><trkpt lat="43.25993541005646" lon="12.992277198874648"><ele>405.0</ele><time>2026-04-26T11:22:02Z</time></trkpt><trkpt lat="43.259836886402105" lon="12.992357068754846"><ele>405.0</ele><time>2026-04-26T11:22:04Z</time></trkpt><trkpt lat="43.2597900190163" lon="12.992423975514022"><ele>405.0</ele><time>2026-04-26T11:22:05Z</time></trkpt><trkpt lat="43.25975587377276" lon="12.992504662680448"><ele>405.0</ele><time>2026-04-26T11:22:06Z</time></trkpt><trkpt lat="43.259732378175734" lon="12.992592726729944"><ele>405.0</ele><time>2026-04-26T11:22:07Z</time></trkpt><trkpt lat="43.259716733765345" lon="12.992680592401225"><ele>405.0</ele><time>2026-04-26T11:22:08Z</time></trkpt><trkpt lat="43.2596808390338" lon="12.992840455266307"><ele>405.1666666666667</ele><time>2026-04-26T11:22:10Z</time></trkpt><trkpt lat="43.259579977036374" lon="12.99294840404326"><ele>405.33333333333337</ele><time>2026-04-26T11:22:12Z</time></trkpt><trkpt lat="43.259532946815476" lon="12.993017524239438"><ele>405.5</ele><time>2026-04-26T11:22:13Z</time></trkpt><trkpt lat="43.259485038547055" lon="12.993087934559984"><ele>405.6666666666667</ele><time>2026-04-26T11:22:14Z</time></trkpt><trkpt lat="43.25944813788551" lon="12.99317366318547"><ele>405.83333333333337</ele><time>2026-04-26T11:22:15Z</time></trkpt><trkpt lat="43.25939707567551" lon="12.993241550643363"><ele>406.0</ele><time>2026-04-26T11:22:16Z</time></trkpt><trkpt lat="43.259348703074835" lon="12.993310507625619"><ele>405.6666666666667</ele><time>2026-04-26T11:22:17Z</time></trkpt><trkpt lat="43.25930213505194" lon="12.993373919115378"><ele>405.33333333333337</ele><time>2026-04-26T11:22:18Z</time></trkpt><trkpt lat="43.25925490620219" lon="12.993434560227842"><ele>405.0</ele><time>2026-04-26T11:22:19Z</time></trkpt><trkpt lat="43.25917116355747" lon="12.993525930103875"><ele>404.66666666666663</ele><time>2026-04-26T11:22:21Z</time></trkpt><trkpt lat="43.25911472312151" lon="12.993580387343938"><ele>404.3333333333333</ele><time>2026-04-26T11:22:23Z</time></trkpt><trkpt lat="43.25905662832002" lon="12.993627809493345"><ele>404.0</ele><time>2026-04-26T11:22:25Z</time></trkpt><trkpt lat="43.258991499050516" lon="12.99368955384708"><ele>404.0</ele><time>2026-04-26T11:22:38Z</time></trkpt><trkpt lat="43.25900618549624" lon="12.993838088238716"><ele>404.0</ele><time>2026-04-26T11:22:41Z</time></trkpt><trkpt lat="43.2590590912232" lon="12.993971703402499"><ele>404.0</ele><time>2026-04-26T11:22:43Z</time></trkpt><trkpt lat="43.25908542798387" lon="12.99406015387058"><ele>404.0</ele><time>2026-04-26T11:22:44Z</time></trkpt><trkpt lat="43.259117193574035" lon="12.994160704638631"><ele>404.0</ele><time>2026-04-26T11:22:45Z</time></trkpt><trkpt lat="43.25914787545988" lon="12.994280998274617"><ele>402.16666666666663</ele><time>2026-04-26T11:22:46Z</time></trkpt><trkpt lat="43.259176537854145" lon="12.994396767592685"><ele>400.3333333333333</ele><time>2026-04-26T11:22:47Z</time></trkpt><trkpt lat="43.259198672639" lon="12.994507239981468"><ele>398.5</ele><time>2026-04-26T11:22:48Z</time></trkpt><trkpt lat="43.259211206533415" lon="12.994612085059076"><ele>396.66666666666663</ele><time>2026-04-26T11:22:49Z</time></trkpt><trkpt lat="43.25922150194245" lon="12.99470579337872"><ele>394.8333333333333</ele><time>2026-04-26T11:22:50Z</time></trkpt><trkpt lat="43.259229423848225" lon="12.994795601921146"><ele>393.0</ele><time>2026-04-26T11:22:51Z</time></trkpt><trkpt lat="43.2592276040766" lon="12.994887093468995"><ele>393.00000000000006</ele><time>2026-04-26T11:22:52Z</time></trkpt><trkpt lat="43.25922084337085" lon="12.994978662609379"><ele>393.0</ele><time>2026-04-26T11:22:53Z</time></trkpt><trkpt lat="43.259218108110055" lon="12.995075691910479"><ele>393.0</ele><time>2026-04-26T11:22:54Z</time></trkpt><trkpt lat="43.259215948994076" lon="12.995172805712798"><ele>393.0</ele><time>2026-04-26T11:22:55Z</time></trkpt><trkpt lat="43.25921006924338" lon="12.995272921617365"><ele>393.0</ele><time>2026-04-26T11:22:56Z</time></trkpt><trkpt lat="43.25919831535755" lon="12.995371029501555"><ele>393.00000000000006</ele><time>2026-04-26T11:22:57Z</time></trkpt><trkpt lat="43.25918504804003" lon="12.995468931401192"><ele>393.0</ele><time>2026-04-26T11:22:58Z</time></trkpt><trkpt lat="43.259171606659955" lon="12.995566267833329"><ele>392.0</ele><time>2026-04-26T11:22:59Z</time></trkpt><trkpt lat="43.25915911906246" lon="12.995662489893006"><ele>391.0</ele><time>2026-04-26T11:23:00Z</time></trkpt><trkpt lat="43.259148395948905" lon="12.99576090975976"><ele>390.0</ele><time>2026-04-26T11:23:00.999Z</time></trkpt><trkpt lat="43.25914450406746" lon="12.995859345600758"><ele>389.0</ele><time>2026-04-26T11:23:01.999Z</time></trkpt><trkpt lat="43.25915228321788" lon="12.995963157068292"><ele>388.0</ele><time>2026-04-26T11:23:02.999Z</time></trkpt><trkpt lat="43.25917149572636" lon="12.996079009418027"><ele>387.0</ele><time>2026-04-26T11:23:03.999Z</time></trkpt><trkpt lat="43.259198813771384" lon="12.996204326955677"><ele>386.3333333333333</ele><time>2026-04-26T11:23:04.999Z</time></trkpt><trkpt lat="43.25924051482121" lon="12.99632389078379"><ele>385.6666666666667</ele><time>2026-04-26T11:23:05.999Z</time></trkpt><trkpt lat="43.259293106618976" lon="12.996427215578198"><ele>385.0</ele><time>2026-04-26T11:23:06.999Z</time></trkpt><trkpt lat="43.259351563092665" lon="12.996516289983893"><ele>384.33333333333337</ele><time>2026-04-26T11:23:07.999Z</time></trkpt><trkpt lat="43.259404155210206" lon="12.996592443981015"><ele>383.6666666666667</ele><time>2026-04-26T11:23:08.999Z</time></trkpt><trkpt lat="43.25945903638051" lon="12.996657872352488"><ele>383.0</ele><time>2026-04-26T11:23:09.999Z</time></trkpt><trkpt lat="43.259523780489715" lon="12.996709354035948"><ele>382.6666666666667</ele><time>2026-04-26T11:23:10.999Z</time></trkpt><trkpt lat="43.25958683462879" lon="12.996758011301608"><ele>382.33333333333337</ele><time>2026-04-26T11:23:11.999Z</time></trkpt><trkpt lat="43.25965180357937" lon="12.996806427602374"><ele>382.0</ele><time>2026-04-26T11:23:12.999Z</time></trkpt><trkpt lat="43.25971849561597" lon="12.996849496779395"><ele>381.6666666666667</ele><time>2026-04-26T11:23:13.999Z</time></trkpt><trkpt lat="43.25977834600151" lon="12.99691627528141"><ele>381.3333333333333</ele><time>2026-04-26T11:23:14.999Z</time></trkpt><trkpt lat="43.259846445867986" lon="12.996962143184364"><ele>381.0</ele><time>2026-04-26T11:23:15.999Z</time></trkpt><trkpt lat="43.25992359247687" lon="12.997010840003735"><ele>378.4</ele><time>2026-04-26T11:23:16.999Z</time></trkpt><trkpt lat="43.26001282957977" lon="12.997067168759092"><ele>375.8</ele><time>2026-04-26T11:23:17.999Z</time></trkpt><trkpt lat="43.260114607655666" lon="12.997131413632639"><ele>373.2</ele><time>2026-04-26T11:23:18.999Z</time></trkpt><trkpt lat="43.260220003160335" lon="12.997188473468595"><ele>370.59999999999997</ele><time>2026-04-26T11:23:19.999Z</time></trkpt><trkpt lat="43.26031691697239" lon="12.997254548223149"><ele>368.0</ele><time>2026-04-26T11:23:20.999Z</time></trkpt><trkpt lat="43.26040467551682" lon="12.997327245554226"><ele>368.0</ele><time>2026-04-26T11:23:21.999Z</time></trkpt><trkpt lat="43.26047209505487" lon="12.997405213883228"><ele>368.0</ele><time>2026-04-26T11:23:22.999Z</time></trkpt><trkpt lat="43.260514803739845" lon="12.997490431325243"><ele>368.0</ele><time>2026-04-26T11:23:23.999Z</time></trkpt><trkpt lat="43.26053222173394" lon="12.99758126169641"><ele>368.0</ele><time>2026-04-26T11:23:24.999Z</time></trkpt><trkpt lat="43.260520806282905" lon="12.997671678450242"><ele>368.0</ele><time>2026-04-26T11:23:25.999Z</time></trkpt><trkpt lat="43.260513393400785" lon="12.997757535834749"><ele>368.0</ele><time>2026-04-26T11:23:26.999Z</time></trkpt><trkpt lat="43.26049669692441" lon="12.997848069607336"><ele>368.0</ele><time>2026-04-26T11:23:27.999Z</time></trkpt><trkpt lat="43.26047621974116" lon="12.997952024339835"><ele>368.33333333333337</ele><time>2026-04-26T11:23:28.999Z</time></trkpt><trkpt lat="43.260462849131486" lon="12.998056854167862"><ele>368.6666666666667</ele><time>2026-04-26T11:23:29.999Z</time></trkpt><trkpt lat="43.26046116186021" lon="12.998162859807058"><ele>369.0</ele><time>2026-04-26T11:23:30.999Z</time></trkpt><trkpt lat="43.2604771737641" lon="12.998264404693394"><ele>369.3333333333333</ele><time>2026-04-26T11:23:31.999Z</time></trkpt><trkpt lat="43.26050344467676" lon="12.998365971309994"><ele>369.66666666666663</ele><time>2026-04-26T11:23:32.999Z</time></trkpt><trkpt lat="43.260529155508095" lon="12.998466912009368"><ele>370.0</ele><time>2026-04-26T11:23:33.999Z</time></trkpt><trkpt lat="43.2605478242039" lon="12.998576443892798"><ele>370.2</ele><time>2026-04-26T11:23:34.999Z</time></trkpt><trkpt lat="43.260560706491724" lon="12.998692137513883"><ele>370.4</ele><time>2026-04-26T11:23:35.999Z</time></trkpt><trkpt lat="43.26056567031457" lon="12.998813822054306"><ele>370.6</ele><time>2026-04-26T11:23:36.999Z</time></trkpt><trkpt lat="43.2605651945124" lon="12.998939648646012"><ele>370.8</ele><time>2026-04-26T11:23:37.999Z</time></trkpt><trkpt lat="43.26057268377301" lon="12.999066760487032"><ele>371.0</ele><time>2026-04-26T11:23:38.999Z</time></trkpt><trkpt lat="43.26057077205012" lon="12.999195428621801"><ele>371.0</ele><time>2026-04-26T11:23:39.999Z</time></trkpt><trkpt lat="43.2605990973177" lon="12.999316270148087"><ele>371.0</ele><time>2026-04-26T11:23:40.999Z</time></trkpt><trkpt lat="43.26066246715143" lon="12.9994245727843"><ele>371.0</ele><time>2026-04-26T11:23:41.999Z</time></trkpt><trkpt lat="43.2607241639698" lon="12.999540592216453"><ele>371.0</ele><time>2026-04-26T11:23:42.999Z</time></trkpt><trkpt lat="43.26078248453121" lon="12.999670296435143"><ele>371.0</ele><time>2026-04-26T11:23:43.999Z</time></trkpt><trkpt lat="43.260826883099945" lon="12.999813336084436"><ele>367.75</ele><time>2026-04-26T11:23:45.001Z</time></trkpt><trkpt lat="43.26084259711614" lon="12.999971754225434"><ele>364.5</ele><time>2026-04-26T11:23:46.001Z</time></trkpt><trkpt lat="43.260853681675215" lon="13.000124928939684"><ele>361.25</ele><time>2026-04-26T11:23:47.001Z</time></trkpt><trkpt lat="43.26088053338697" lon="13.000286052959238"><ele>358.0</ele><time>2026-04-26T11:23:48.001Z</time></trkpt><trkpt lat="43.26089933775159" lon="13.000446413655608"><ele>358.0</ele><time>2026-04-26T11:23:49.001Z</time></trkpt><trkpt lat="43.26093350826891" lon="13.000604669926046"><ele>358.0</ele><time>2026-04-26T11:23:50.001Z</time></trkpt><trkpt lat="43.26098139567822" lon="13.000755534824217"><ele>358.0</ele><time>2026-04-26T11:23:51.001Z</time></trkpt><trkpt lat="43.26103225903515" lon="13.000902064834998"><ele>358.0</ele><time>2026-04-26T11:23:52.001Z</time></trkpt><trkpt lat="43.26106213878855" lon="13.001062615534781"><ele>359.75</ele><time>2026-04-26T11:23:53.001Z</time></trkpt><trkpt lat="43.261117512953035" lon="13.001211400832211"><ele>361.5</ele><time>2026-04-26T11:23:54.001Z</time></trkpt><trkpt lat="43.26114069859448" lon="13.001372486155384"><ele>363.25</ele><time>2026-04-26T11:23:55.001Z</time></trkpt><trkpt lat="43.261162817597295" lon="13.001527111237031"><ele>365.0</ele><time>2026-04-26T11:23:56Z</time></trkpt><trkpt lat="43.26119484808364" lon="13.001675788816723"><ele>366.25</ele><time>2026-04-26T11:23:57Z</time></trkpt><trkpt lat="43.26121804776054" lon="13.001824023340278"><ele>367.5</ele><time>2026-04-26T11:23:58Z</time></trkpt><trkpt lat="43.26124222808071" lon="13.001971940029952"><ele>368.75</ele><time>2026-04-26T11:23:59Z</time></trkpt><trkpt lat="43.261272339492415" lon="13.002126433505186"><ele>370.0</ele><time>2026-04-26T11:24:00Z</time></trkpt><trkpt lat="43.26130129004602" lon="13.002290922987864"><ele>370.0</ele><time>2026-04-26T11:24:01Z</time></trkpt><trkpt lat="43.2613323631605" lon="13.002466350660816"><ele>370.0</ele><time>2026-04-26T11:24:02Z</time></trkpt><trkpt lat="43.26136399200107" lon="13.002644429629257"><ele>370.0</ele><time>2026-04-26T11:24:03Z</time></trkpt><trkpt lat="43.261392650419324" lon="13.002830510410835"><ele>370.0</ele><time>2026-04-26T11:24:04Z</time></trkpt><trkpt lat="43.261411687296665" lon="13.003020476079158"><ele>365.5</ele><time>2026-04-26T11:24:05Z</time></trkpt><trkpt lat="43.26145660525748" lon="13.003193076939366"><ele>361.0</ele><time>2026-04-26T11:24:06Z</time></trkpt><trkpt lat="43.2614806594703" lon="13.003373592260356"><ele>356.5</ele><time>2026-04-26T11:24:07Z</time></trkpt><trkpt lat="43.261513907991855" lon="13.003549369603315"><ele>352.0</ele><time>2026-04-26T11:24:08Z</time></trkpt><trkpt lat="43.261541658396325" lon="13.003723825933454"><ele>351.20000000000005</ele><time>2026-04-26T11:24:09Z</time></trkpt><trkpt lat="43.261564798742356" lon="13.00389301030605"><ele>350.4</ele><time>2026-04-26T11:24:10Z</time></trkpt><trkpt lat="43.26158375971414" lon="13.004032504767277"><ele>349.6</ele><time>2026-04-26T11:24:11Z</time></trkpt><trkpt lat="43.26160121094835" lon="13.004146919695925"><ele>348.79999999999995</ele><time>2026-04-26T11:24:12Z</time></trkpt><trkpt lat="43.26161630342395" lon="13.004242983384549"><ele>348.0</ele><time>2026-04-26T11:24:13Z</time></trkpt><trkpt lat="43.261637388136975" lon="13.004390129667637"><ele>348.3333333333333</ele><time>2026-04-26T11:24:15Z</time></trkpt><trkpt lat="43.26165811538285" lon="13.00447946177507"><ele>348.6666666666667</ele><time>2026-04-26T11:24:17Z</time></trkpt><trkpt lat="43.261630677811276" lon="13.004598274259372"><ele>349.0</ele><time>2026-04-26T11:24:20Z</time></trkpt><trkpt lat="43.26158929599697" lon="13.00466752025683"><ele>349.33333333333337</ele><time>2026-04-26T11:24:21Z</time></trkpt><trkpt lat="43.26153111825942" lon="13.004744312767992"><ele>349.6666666666667</ele><time>2026-04-26T11:24:22Z</time></trkpt><trkpt lat="43.26146282581159" lon="13.004818516414847"><ele>350.0</ele><time>2026-04-26T11:24:23Z</time></trkpt><trkpt lat="43.261385735885575" lon="13.004895153558133"><ele>350.0</ele><time>2026-04-26T11:24:24Z</time></trkpt><trkpt lat="43.261300952402415" lon="13.004982225413626"><ele>350.0</ele><time>2026-04-26T11:24:25Z</time></trkpt><trkpt lat="43.26120544539908" lon="13.0050775458324"><ele>350.0</ele><time>2026-04-26T11:24:26Z</time></trkpt><trkpt lat="43.261102759464485" lon="13.005175197166393"><ele>350.0</ele><time>2026-04-26T11:24:27Z</time></trkpt><trkpt lat="43.26099386548671" lon="13.005260470956781"><ele>349.75</ele><time>2026-04-26T11:24:28Z</time></trkpt><trkpt lat="43.26088336928513" lon="13.005337536930774"><ele>349.5</ele><time>2026-04-26T11:24:29Z</time></trkpt><trkpt lat="43.26077039059774" lon="13.005410447214425"><ele>349.25</ele><time>2026-04-26T11:24:30Z</time></trkpt><trkpt lat="43.26065895412249" lon="13.005485515690266"><ele>349.0</ele><time>2026-04-26T11:24:31Z</time></trkpt><trkpt lat="43.26054446044953" lon="13.005561438946295"><ele>350.25</ele><time>2026-04-26T11:24:32Z</time></trkpt><trkpt lat="43.260425673539984" lon="13.005640153938375"><ele>351.5</ele><time>2026-04-26T11:24:33Z</time></trkpt><trkpt lat="43.26030298274097" lon="13.005719128585907"><ele>352.75</ele><time>2026-04-26T11:24:34Z</time></trkpt><trkpt lat="43.260175798545475" lon="13.005797261784497"><ele>354.0</ele><time>2026-04-26T11:24:35Z</time></trkpt><trkpt lat="43.26004753916121" lon="13.005879693720066"><ele>352.25</ele><time>2026-04-26T11:24:36Z</time></trkpt><trkpt lat="43.25991825031093" lon="13.005973476469011"><ele>350.5</ele><time>2026-04-26T11:24:37Z</time></trkpt><trkpt lat="43.25978643061538" lon="13.006076723991113"><ele>348.75</ele><time>2026-04-26T11:24:38Z</time></trkpt><trkpt lat="43.259663259015674" lon="13.006179693192415"><ele>347.0</ele><time>2026-04-26T11:24:39Z</time></trkpt><trkpt lat="43.25955198732526" lon="13.00628590642758"><ele>347.0</ele><time>2026-04-26T11:24:40Z</time></trkpt><trkpt lat="43.259450963536686" lon="13.006383512155557"><ele>347.0</ele><time>2026-04-26T11:24:41Z</time></trkpt><trkpt lat="43.25937287740978" lon="13.006446777482632"><ele>347.0</ele><time>2026-04-26T11:24:42Z</time></trkpt><trkpt lat="43.259319158176105" lon="13.006521795731445"><ele>347.0</ele><time>2026-04-26T11:24:44Z</time></trkpt><trkpt lat="43.259363005363575" lon="13.006612561433764"><ele>347.0</ele><time>2026-04-26T11:24:46Z</time></trkpt><trkpt lat="43.25946871553793" lon="13.006632567701091"><ele>347.0</ele><time>2026-04-26T11:24:48Z</time></trkpt><trkpt lat="43.25955154252269" lon="13.006616876311556"><ele>347.0</ele><time>2026-04-26T11:24:49Z</time></trkpt><trkpt lat="43.25964547972208" lon="13.006603283773407"><ele>347.0</ele><time>2026-04-26T11:24:50Z</time></trkpt><trkpt lat="43.25975221755746" lon="13.006618310854346"><ele>347.0</ele><time>2026-04-26T11:24:51Z</time></trkpt><trkpt lat="43.25986253234076" lon="13.006613165534603"><ele>347.0</ele><time>2026-04-26T11:24:52Z</time></trkpt><trkpt lat="43.259978295782425" lon="13.006602143115343"><ele>346.40000000000003</ele><time>2026-04-26T11:24:53Z</time></trkpt><trkpt lat="43.26009574876126" lon="13.006599349589195"><ele>345.8</ele><time>2026-04-26T11:24:54Z</time></trkpt><trkpt lat="43.2601996192996" lon="13.006590429362056"><ele>345.2</ele><time>2026-04-26T11:24:55Z</time></trkpt><trkpt lat="43.260298818602216" lon="13.006582667500066"><ele>344.6</ele><time>2026-04-26T11:24:56Z</time></trkpt><trkpt lat="43.26039320943711" lon="13.006567204797761"><ele>344.0</ele><time>2026-04-26T11:24:57Z</time></trkpt><trkpt lat="43.26048616918116" lon="13.006552652290724"><ele>344.0</ele><time>2026-04-26T11:24:57.999Z</time></trkpt><trkpt lat="43.26057406744329" lon="13.006550592767852"><ele>344.0</ele><time>2026-04-26T11:24:58.999Z</time></trkpt><trkpt lat="43.260656091407235" lon="13.006554339975342"><ele>344.0</ele><time>2026-04-26T11:24:59.999Z</time></trkpt><trkpt lat="43.260732966919136" lon="13.006558718611625"><ele>344.0</ele><time>2026-04-26T11:25:00.999Z</time></trkpt><trkpt lat="43.260807845371275" lon="13.00655122018185"><ele>344.0</ele><time>2026-04-26T11:25:01.999Z</time></trkpt><trkpt lat="43.26088145304332" lon="13.006542613486094"><ele>344.0</ele><time>2026-04-26T11:25:02.999Z</time></trkpt><trkpt lat="43.26095326297173" lon="13.006535306027365"><ele>343.1666666666667</ele><time>2026-04-26T11:25:03.999Z</time></trkpt><trkpt lat="43.26102369191339" lon="13.006549157551877"><ele>342.33333333333337</ele><time>2026-04-26T11:25:04.999Z</time></trkpt><trkpt lat="43.26109661740855" lon="13.006518598694853"><ele>341.5</ele><time>2026-04-26T11:25:05.999Z</time></trkpt><trkpt lat="43.26116857910609" lon="13.006522614532454"><ele>340.6666666666667</ele><time>2026-04-26T11:25:06.999Z</time></trkpt><trkpt lat="43.261265803711474" lon="13.00658331615266"><ele>339.8333333333333</ele><time>2026-04-26T11:25:08.999Z</time></trkpt><trkpt lat="43.26128288895854" lon="13.006742812465603"><ele>339.0</ele><time>2026-04-26T11:25:10.999Z</time></trkpt><trkpt lat="43.26125605209121" lon="13.006841298608471"><ele>337.85714285714283</ele><time>2026-04-26T11:25:11.999Z</time></trkpt><trkpt lat="43.26122821042307" lon="13.006933871714198"><ele>336.7142857142857</ele><time>2026-04-26T11:25:12.999Z</time></trkpt><trkpt lat="43.26121408008305" lon="13.007028530340133"><ele>335.57142857142856</ele><time>2026-04-26T11:25:13.999Z</time></trkpt><trkpt lat="43.26120319928776" lon="13.007122531390168"><ele>334.42857142857144</ele><time>2026-04-26T11:25:14.999Z</time></trkpt><trkpt lat="43.26120203531144" lon="13.00721902325558"><ele>333.2857142857143</ele><time>2026-04-26T11:25:15.999Z</time></trkpt><trkpt lat="43.26122261887892" lon="13.007314305706373"><ele>332.14285714285717</ele><time>2026-04-26T11:25:16.999Z</time></trkpt><trkpt lat="43.26124922797235" lon="13.00740624709365"><ele>331.0</ele><time>2026-04-26T11:25:17.999Z</time></trkpt><trkpt lat="43.261278930695134" lon="13.007495719961188"><ele>331.0</ele><time>2026-04-26T11:25:18.999Z</time></trkpt><trkpt lat="43.26130779508284" lon="13.007582171264476"><ele>331.0</ele><time>2026-04-26T11:25:19.999Z</time></trkpt><trkpt lat="43.261329143283156" lon="13.007666275518792"><ele>331.0</ele><time>2026-04-26T11:25:20.999Z</time></trkpt><trkpt lat="43.261346369011" lon="13.007786933402619"><ele>331.0</ele><time>2026-04-26T11:25:22.999Z</time></trkpt><trkpt lat="43.26149785065669" lon="13.007848391634395"><ele>331.0</ele><time>2026-04-26T11:25:25.999Z</time></trkpt><trkpt lat="43.26158810820494" lon="13.007846874840926"><ele>330.4</ele><time>2026-04-26T11:25:26.999Z</time></trkpt><trkpt lat="43.26169649728682" lon="13.007836701616695"><ele>329.8</ele><time>2026-04-26T11:25:27.999Z</time></trkpt><trkpt lat="43.26181172315873" lon="13.007831845053436"><ele>329.2</ele><time>2026-04-26T11:25:28.999Z</time></trkpt><trkpt lat="43.26192354349564" lon="13.007835445324282"><ele>328.59999999999997</ele><time>2026-04-26T11:25:29.999Z</time></trkpt><trkpt lat="43.26202932696221" lon="13.007846120036845"><ele>328.0</ele><time>2026-04-26T11:25:30.999Z</time></trkpt><trkpt lat="43.26211545232145" lon="13.007881477122087"><ele>328.0</ele><time>2026-04-26T11:25:31.999Z</time></trkpt><trkpt lat="43.26217029951236" lon="13.007946702414003"><ele>328.0</ele><time>2026-04-26T11:25:32.999Z</time></trkpt><trkpt lat="43.26218580801918" lon="13.008032218171435"><ele>328.0</ele><time>2026-04-26T11:25:33.999Z</time></trkpt><trkpt lat="43.26217565486821" lon="13.008127231540586"><ele>328.0</ele><time>2026-04-26T11:25:34.999Z</time></trkpt><trkpt lat="43.26214946559129" lon="13.008224223566359"><ele>328.0</ele><time>2026-04-26T11:25:35.999Z</time></trkpt><trkpt lat="43.262067691924315" lon="13.00829504124862"><ele>328.0</ele><time>2026-04-26T11:25:36.999Z</time></trkpt><trkpt lat="43.261979391337306" lon="13.008319762491288"><ele>328.0</ele><time>2026-04-26T11:25:37.999Z</time></trkpt><trkpt lat="43.26187838952239" lon="13.008324282556947"><ele>328.0</ele><time>2026-04-26T11:25:38.999Z</time></trkpt><trkpt lat="43.26177006762524" lon="13.008324294522192"><ele>328.0</ele><time>2026-04-26T11:25:39.999Z</time></trkpt><trkpt lat="43.26164265388443" lon="13.008325329350166"><ele>328.0</ele><time>2026-04-26T11:25:40.999Z</time></trkpt><trkpt lat="43.26151424851876" lon="13.008334318185018"><ele>329.25</ele><time>2026-04-26T11:25:41.999Z</time></trkpt><trkpt lat="43.261376918729646" lon="13.008350342237778"><ele>330.5</ele><time>2026-04-26T11:25:42.999Z</time></trkpt><trkpt lat="43.261230495085904" lon="13.00835775067747"><ele>331.75</ele><time>2026-04-26T11:25:43.999Z</time></trkpt><trkpt lat="43.26107333327619" lon="13.008362972421503"><ele>333.0</ele><time>2026-04-26T11:25:44.999Z</time></trkpt><trkpt lat="43.26091314289365" lon="13.008372346027476"><ele>333.0</ele><time>2026-04-26T11:25:45.999Z</time></trkpt><trkpt lat="43.26074819602597" lon="13.008382288052307"><ele>333.0</ele><time>2026-04-26T11:25:46.999Z</time></trkpt><trkpt lat="43.26059154712029" lon="13.008402358272424"><ele>333.0</ele><time>2026-04-26T11:25:47.999Z</time></trkpt><trkpt lat="43.26045098093397" lon="13.008441173915399"><ele>333.5</ele><time>2026-04-26T11:25:48.999Z</time></trkpt><trkpt lat="43.26032217721647" lon="13.00850076167401"><ele>334.0</ele><time>2026-04-26T11:25:50Z</time></trkpt><trkpt lat="43.26020238996969" lon="13.008587877216824"><ele>334.5</ele><time>2026-04-26T11:25:51Z</time></trkpt><trkpt lat="43.26009495046432" lon="13.00870088891739"><ele>335.0</ele><time>2026-04-26T11:25:52Z</time></trkpt><trkpt lat="43.25999226681564" lon="13.00882616737065"><ele>335.0</ele><time>2026-04-26T11:25:53Z</time></trkpt><trkpt lat="43.259884807462875" lon="13.0089524016048"><ele>335.0</ele><time>2026-04-26T11:25:54Z</time></trkpt><trkpt lat="43.25977992467629" lon="13.009087418311909"><ele>335.0</ele><time>2026-04-26T11:25:55Z</time></trkpt><trkpt lat="43.259672051825525" lon="13.009224639059678"><ele>335.0</ele><time>2026-04-26T11:25:56Z</time></trkpt><trkpt lat="43.259567531260025" lon="13.00935859610643"><ele>336.5</ele><time>2026-04-26T11:25:57Z</time></trkpt><trkpt lat="43.259469374538305" lon="13.009480892450345"><ele>338.0</ele><time>2026-04-26T11:25:58Z</time></trkpt><trkpt lat="43.25938033449096" lon="13.009592434833507"><ele>339.5</ele><time>2026-04-26T11:25:59Z</time></trkpt><trkpt lat="43.25930322913598" lon="13.009693914069688"><ele>341.0</ele><time>2026-04-26T11:26:00Z</time></trkpt><trkpt lat="43.25924125759642" lon="13.009796456517678"><ele>341.0</ele><time>2026-04-26T11:26:01Z</time></trkpt><trkpt lat="43.25920017276433" lon="13.00990104747432"><ele>341.0</ele><time>2026-04-26T11:26:02Z</time></trkpt><trkpt lat="43.259192333064036" lon="13.010014644867866"><ele>341.0</ele><time>2026-04-26T11:26:03Z</time></trkpt><trkpt lat="43.25921020631598" lon="13.010137004647387"><ele>341.0</ele><time>2026-04-26T11:26:04Z</time></trkpt><trkpt lat="43.259237468208866" lon="13.010267442506425"><ele>341.0</ele><time>2026-04-26T11:26:05Z</time></trkpt><trkpt lat="43.25925851212206" lon="13.010405823385616"><ele>340.6</ele><time>2026-04-26T11:26:06Z</time></trkpt><trkpt lat="43.25928172179307" lon="13.010535508764999"><ele>340.20000000000005</ele><time>2026-04-26T11:26:07Z</time></trkpt><trkpt lat="43.25930381208216" lon="13.01065222158036"><ele>339.79999999999995</ele><time>2026-04-26T11:26:08Z</time></trkpt><trkpt lat="43.259315325655486" lon="13.010766674211006"><ele>339.4</ele><time>2026-04-26T11:26:09Z</time></trkpt><trkpt lat="43.25929618555922" lon="13.010885925385924"><ele>339.0</ele><time>2026-04-26T11:26:10Z</time></trkpt><trkpt lat="43.259248793612265" lon="13.010997684991944"><ele>339.0</ele><time>2026-04-26T11:26:11Z</time></trkpt><trkpt lat="43.25917510517908" lon="13.01108130887593"><ele>339.0</ele><time>2026-04-26T11:26:12Z</time></trkpt><trkpt lat="43.259091213868686" lon="13.011148252789736"><ele>339.0</ele><time>2026-04-26T11:26:13Z</time></trkpt><trkpt lat="43.25900529678773" lon="13.011212069315848"><ele>339.0</ele><time>2026-04-26T11:26:14Z</time></trkpt><trkpt lat="43.25892927252116" lon="13.011279419384097"><ele>339.0</ele><time>2026-04-26T11:26:15Z</time></trkpt><trkpt lat="43.2588611238675" lon="13.01134024871828"><ele>339.3333333333333</ele><time>2026-04-26T11:26:16Z</time></trkpt><trkpt lat="43.25880402004573" lon="13.011393851194368"><ele>339.6666666666667</ele><time>2026-04-26T11:26:17Z</time></trkpt><trkpt lat="43.25875136708783" lon="13.011443206587881"><ele>340.0</ele><time>2026-04-26T11:26:18Z</time></trkpt><trkpt lat="43.25863683365795" lon="13.011544125380057"><ele>340.33333333333337</ele><time>2026-04-26T11:26:20Z</time></trkpt><trkpt lat="43.25857017175259" lon="13.011618740164035"><ele>340.6666666666667</ele><time>2026-04-26T11:26:21Z</time></trkpt><trkpt lat="43.25851038216322" lon="13.011685757496972"><ele>341.0</ele><time>2026-04-26T11:26:22Z</time></trkpt><trkpt lat="43.25844930281438" lon="13.011737450246953"><ele>341.0</ele><time>2026-04-26T11:26:23Z</time></trkpt><trkpt lat="43.25837875835505" lon="13.011850660517927"><ele>341.0</ele><time>2026-04-26T11:26:25Z</time></trkpt><trkpt lat="43.25822660097066" lon="13.011859103743877"><ele>341.0</ele><time>2026-04-26T11:26:27Z</time></trkpt><trkpt lat="43.25813335527344" lon="13.01186764876255"><ele>341.0</ele><time>2026-04-26T11:26:28Z</time></trkpt><trkpt lat="43.258035622398815" lon="13.011871233288483"><ele>341.0</ele><time>2026-04-26T11:26:29Z</time></trkpt><trkpt lat="43.25792481984593" lon="13.011874708929257"><ele>341.0</ele><time>2026-04-26T11:26:30Z</time></trkpt><trkpt lat="43.257806849373644" lon="13.011877804031911"><ele>341.0</ele><time>2026-04-26T11:26:31Z</time></trkpt><trkpt lat="43.25767708459911" lon="13.01187659394053"><ele>341.0</ele><time>2026-04-26T11:26:32Z</time></trkpt><trkpt lat="43.25755030142548" lon="13.011849766524913"><ele>341.0</ele><time>2026-04-26T11:26:33Z</time></trkpt><trkpt lat="43.25742717328968" lon="13.011791512389246"><ele>341.0</ele><time>2026-04-26T11:26:34Z</time></trkpt><trkpt lat="43.2573097117069" lon="13.01168423942825"><ele>341.0</ele><time>2026-04-26T11:26:35Z</time></trkpt><trkpt lat="43.257189604660034" lon="13.01158364358186"><ele>341.0</ele><time>2026-04-26T11:26:36Z</time></trkpt><trkpt lat="43.25706600617573" lon="13.011478922699988"><ele>342.33333333333337</ele><time>2026-04-26T11:26:37Z</time></trkpt><trkpt lat="43.25694147527949" lon="13.011374327809792"><ele>343.6666666666667</ele><time>2026-04-26T11:26:38Z</time></trkpt><trkpt lat="43.256815093764274" lon="13.011263049341357"><ele>345.0</ele><time>2026-04-26T11:26:39Z</time></trkpt><trkpt lat="43.25668729361656" lon="13.011145480175172"><ele>345.0</ele><time>2026-04-26T11:26:40Z</time></trkpt><trkpt lat="43.25656377028303" lon="13.011022451198903"><ele>345.0</ele><time>2026-04-26T11:26:41Z</time></trkpt><trkpt lat="43.25644319460695" lon="13.0108916996839"><ele>345.0</ele><time>2026-04-26T11:26:42Z</time></trkpt><trkpt lat="43.25632422042875" lon="13.010757165659957"><ele>346.0</ele><time>2026-04-26T11:26:43Z</time></trkpt><trkpt lat="43.256201732380404" lon="13.010618663417686"><ele>347.0</ele><time>2026-04-26T11:26:44Z</time></trkpt><trkpt lat="43.256082025684115" lon="13.010480369738925"><ele>348.0</ele><time>2026-04-26T11:26:45Z</time></trkpt><trkpt lat="43.25595983669343" lon="13.010346854245398"><ele>348.0</ele><time>2026-04-26T11:26:46Z</time></trkpt><trkpt lat="43.25583716834214" lon="13.010212887447578"><ele>348.0</ele><time>2026-04-26T11:26:47Z</time></trkpt><trkpt lat="43.255714021433874" lon="13.010078018386546"><ele>348.0</ele><time>2026-04-26T11:26:48Z</time></trkpt><trkpt lat="43.25559491971126" lon="13.0099495147865"><ele>349.5</ele><time>2026-04-26T11:26:49Z</time></trkpt><trkpt lat="43.25547723315336" lon="13.009839275954844"><ele>351.0</ele><time>2026-04-26T11:26:50Z</time></trkpt><trkpt lat="43.25535722924149" lon="13.009738847511505"><ele>352.5</ele><time>2026-04-26T11:26:51Z</time></trkpt><trkpt lat="43.255235633334244" lon="13.009663628371555"><ele>354.0</ele><time>2026-04-26T11:26:52Z</time></trkpt><trkpt lat="43.25510512823322" lon="13.009621963726136"><ele>354.0</ele><time>2026-04-26T11:26:53Z</time></trkpt><trkpt lat="43.25496319228278" lon="13.009612371868078"><ele>354.0</ele><time>2026-04-26T11:26:53.999Z</time></trkpt><trkpt lat="43.25482171115183" lon="13.009625701814599"><ele>354.0</ele><time>2026-04-26T11:26:54.999Z</time></trkpt><trkpt lat="43.25467663945752" lon="13.009641392809904"><ele>354.0</ele><time>2026-04-26T11:26:55.999Z</time></trkpt><trkpt lat="43.254530035604034" lon="13.009660343770753"><ele>354.0</ele><time>2026-04-26T11:26:56.999Z</time></trkpt><trkpt lat="43.254381846323625" lon="13.009680664199896"><ele>354.0</ele><time>2026-04-26T11:26:57.999Z</time></trkpt><trkpt lat="43.254243713674875" lon="13.009693732368797"><ele>354.0</ele><time>2026-04-26T11:26:58.999Z</time></trkpt><trkpt lat="43.25411376759232" lon="13.009698611937552"><ele>354.0</ele><time>2026-04-26T11:26:59.999Z</time></trkpt><trkpt lat="43.25399040704699" lon="13.009697266075833"><ele>353.75</ele><time>2026-04-26T11:27:00.999Z</time></trkpt><trkpt lat="43.253864585070524" lon="13.009683382344672"><ele>353.5</ele><time>2026-04-26T11:27:01.999Z</time></trkpt><trkpt lat="43.25373865147036" lon="13.009647992952127"><ele>353.25</ele><time>2026-04-26T11:27:02.999Z</time></trkpt><trkpt lat="43.25362193831444" lon="13.009602582294422"><ele>353.0</ele><time>2026-04-26T11:27:03.999Z</time></trkpt><trkpt lat="43.25350461209753" lon="13.009548140661693"><ele>353.0</ele><time>2026-04-26T11:27:04.999Z</time></trkpt><trkpt lat="43.25338377426064" lon="13.009494066439242"><ele>353.0</ele><time>2026-04-26T11:27:05.999Z</time></trkpt><trkpt lat="43.253259607076" lon="13.009443338290533"><ele>353.0</ele><time>2026-04-26T11:27:06.999Z</time></trkpt><trkpt lat="43.25313345578907" lon="13.009391266825483"><ele>353.0</ele><time>2026-04-26T11:27:07.999Z</time></trkpt><trkpt lat="43.25300674590849" lon="13.00934355814311"><ele>353.75</ele><time>2026-04-26T11:27:08.999Z</time></trkpt><trkpt lat="43.25287541249349" lon="13.009312290146372"><ele>354.5</ele><time>2026-04-26T11:27:09.999Z</time></trkpt><trkpt lat="43.25274386809379" lon="13.009291544903549"><ele>355.25</ele><time>2026-04-26T11:27:10.999Z</time></trkpt><trkpt lat="43.25261185794338" lon="13.00927214099524"><ele>356.0</ele><time>2026-04-26T11:27:11.999Z</time></trkpt><trkpt lat="43.25248582663531" lon="13.00925945472059"><ele>356.0</ele><time>2026-04-26T11:27:12.999Z</time></trkpt><trkpt lat="43.25236322918672" lon="13.009252676743573"><ele>356.0</ele><time>2026-04-26T11:27:13.999Z</time></trkpt><trkpt lat="43.25224343662481" lon="13.00924991802409"><ele>356.0</ele><time>2026-04-26T11:27:14.999Z</time></trkpt><trkpt lat="43.252133299983" lon="13.009248404673968"><ele>356.0</ele><time>2026-04-26T11:27:15.999Z</time></trkpt><trkpt lat="43.252032877209935" lon="13.009247967626932"><ele>356.33333333333337</ele><time>2026-04-26T11:27:16.999Z</time></trkpt><trkpt lat="43.25193958687446" lon="13.009247807829114"><ele>356.6666666666667</ele><time>2026-04-26T11:27:17.999Z</time></trkpt><trkpt lat="43.25185986990477" lon="13.009239584432864"><ele>357.0</ele><time>2026-04-26T11:27:18.999Z</time></trkpt><trkpt lat="43.2517886767293" lon="13.00923436318112"><ele>357.3333333333333</ele><time>2026-04-26T11:27:19.999Z</time></trkpt><trkpt lat="43.25172548908753" lon="13.00923098299072"><ele>357.66666666666663</ele><time>2026-04-26T11:27:20.999Z</time></trkpt><trkpt lat="43.251652758477135" lon="13.009230323239755"><ele>358.0</ele><time>2026-04-26T11:27:22.999Z</time></trkpt><trkpt lat="43.25154879141128" lon="13.00922226356821"><ele>358.0</ele><time>2026-04-26T11:27:24.999Z</time></trkpt><trkpt lat="43.25147821844403" lon="13.009212884026127"><ele>358.0</ele><time>2026-04-26T11:27:25.999Z</time></trkpt><trkpt lat="43.25140112724211" lon="13.00920076763965"><ele>358.0</ele><time>2026-04-26T11:27:26.999Z</time></trkpt><trkpt lat="43.2513291111633" lon="13.009185816864521"><ele>358.0</ele><time>2026-04-26T11:27:27.999Z</time></trkpt><trkpt lat="43.25125288663432" lon="13.009167596452686"><ele>358.0</ele><time>2026-04-26T11:27:28.999Z</time></trkpt><trkpt lat="43.251164415627684" lon="13.009155949928159"><ele>358.0</ele><time>2026-04-26T11:27:29.999Z</time></trkpt><trkpt lat="43.25106360526591" lon="13.009158070205801"><ele>358.5</ele><time>2026-04-26T11:27:30.999Z</time></trkpt><trkpt lat="43.25095533984842" lon="13.00919434467236"><ele>359.0</ele><time>2026-04-26T11:27:31.999Z</time></trkpt><trkpt lat="43.25084379374789" lon="13.00924075719082"><ele>359.5</ele><time>2026-04-26T11:27:32.999Z</time></trkpt><trkpt lat="43.25073707230849" lon="13.009292634407634"><ele>360.0</ele><time>2026-04-26T11:27:33.999Z</time></trkpt><trkpt lat="43.25062523114937" lon="13.009350217081328"><ele>360.25</ele><time>2026-04-26T11:27:34.999Z</time></trkpt><trkpt lat="43.250509481643526" lon="13.009409367661984"><ele>360.5</ele><time>2026-04-26T11:27:35.999Z</time></trkpt><trkpt lat="43.25039440306894" lon="13.009467579041727"><ele>360.75</ele><time>2026-04-26T11:27:36.999Z</time></trkpt><trkpt lat="43.250279399790664" lon="13.009528788743172"><ele>361.0</ele><time>2026-04-26T11:27:37.999Z</time></trkpt><trkpt lat="43.2501624129606" lon="13.009588101767491"><ele>361.0</ele><time>2026-04-26T11:27:38.999Z</time></trkpt><trkpt lat="43.250040231171575" lon="13.009645096324578"><ele>361.0</ele><time>2026-04-26T11:27:39.999Z</time></trkpt><trkpt lat="43.249915478523214" lon="13.009699519912568"><ele>361.0</ele><time>2026-04-26T11:27:40.999Z</time></trkpt><trkpt lat="43.24979235005598" lon="13.009754359898556"><ele>361.0</ele><time>2026-04-26T11:27:41.999Z</time></trkpt><trkpt lat="43.249671341286785" lon="13.009812549920339"><ele>361.0</ele><time>2026-04-26T11:27:42.999Z</time></trkpt><trkpt lat="43.24955327186534" lon="13.00986905835211"><ele>361.0</ele><time>2026-04-26T11:27:43.999Z</time></trkpt><trkpt lat="43.24943949713781" lon="13.009923567329892"><ele>361.0</ele><time>2026-04-26T11:27:44.999Z</time></trkpt><trkpt lat="43.249330659255214" lon="13.00997917658332"><ele>361.0</ele><time>2026-04-26T11:27:45.999Z</time></trkpt><trkpt lat="43.24922301362681" lon="13.010033156303106"><ele>361.0</ele><time>2026-04-26T11:27:46.999Z</time></trkpt><trkpt lat="43.24911577411269" lon="13.010083416474078"><ele>361.0</ele><time>2026-04-26T11:27:47.999Z</time></trkpt><trkpt lat="43.24900881050421" lon="13.010135276303524"><ele>361.0</ele><time>2026-04-26T11:27:48.999Z</time></trkpt><trkpt lat="43.248909192192016" lon="13.010182673762047"><ele>361.0</ele><time>2026-04-26T11:27:49.999Z</time></trkpt><trkpt lat="43.24881593331103" lon="13.010225729413365"><ele>361.0</ele><time>2026-04-26T11:27:50.999Z</time></trkpt><trkpt lat="43.24872625352047" lon="13.010264304437877"><ele>361.0</ele><time>2026-04-26T11:27:51.999Z</time></trkpt><trkpt lat="43.24863884881013" lon="13.010303746425018"><ele>361.0</ele><time>2026-04-26T11:27:52.999Z</time></trkpt><trkpt lat="43.24855860166653" lon="13.010344841817446"><ele>361.0</ele><time>2026-04-26T11:27:53.999Z</time></trkpt><trkpt lat="43.248484667647475" lon="13.010381486602935"><ele>361.0</ele><time>2026-04-26T11:27:54.999Z</time></trkpt><trkpt lat="43.2484184378609" lon="13.010401708635149"><ele>361.0</ele><time>2026-04-26T11:27:56Z</time></trkpt><trkpt lat="43.248310188778525" lon="13.010399425309313"><ele>361.0</ele><time>2026-04-26T11:27:58Z</time></trkpt><trkpt lat="43.248221823022206" lon="13.010366019546519"><ele>361.0</ele><time>2026-04-26T11:28:00Z</time></trkpt><trkpt lat="43.24813198579847" lon="13.010364857370424"><ele>361.0</ele><time>2026-04-26T11:28:02Z</time></trkpt><trkpt lat="43.248059430414294" lon="13.010488158382428"><ele>361.0</ele><time>2026-04-26T11:28:04Z</time></trkpt><trkpt lat="43.24802350962197" lon="13.010565462572252"><ele>361.0</ele><time>2026-04-26T11:28:05Z</time></trkpt><trkpt lat="43.24797825612411" lon="13.010635270054351"><ele>361.0</ele><time>2026-04-26T11:28:06Z</time></trkpt><trkpt lat="43.24792508558183" lon="13.010697467408372"><ele>361.0</ele><time>2026-04-26T11:28:07Z</time></trkpt><trkpt lat="43.24785682247526" lon="13.010760460110792"><ele>362.0</ele><time>2026-04-26T11:28:08Z</time></trkpt><trkpt lat="43.24777557423685" lon="13.010827633245519"><ele>363.0</ele><time>2026-04-26T11:28:09Z</time></trkpt><trkpt lat="43.24768195669428" lon="13.010897292862364"><ele>364.0</ele><time>2026-04-26T11:28:10Z</time></trkpt><trkpt lat="43.24758410922026" lon="13.010974488682532"><ele>365.0</ele><time>2026-04-26T11:28:11Z</time></trkpt><trkpt lat="43.247492880689336" lon="13.011050279833723"><ele>366.0</ele><time>2026-04-26T11:28:12Z</time></trkpt><trkpt lat="43.24739744753639" lon="13.011137829412764"><ele>366.0</ele><time>2026-04-26T11:28:13Z</time></trkpt><trkpt lat="43.2473030774192" lon="13.011235274035457"><ele>366.0</ele><time>2026-04-26T11:28:14Z</time></trkpt><trkpt lat="43.24720763778223" lon="13.011337868456044"><ele>366.0</ele><time>2026-04-26T11:28:15Z</time></trkpt><trkpt lat="43.24711091463802" lon="13.01144246806744"><ele>366.0</ele><time>2026-04-26T11:28:16Z</time></trkpt><trkpt lat="43.24701312077398" lon="13.011555759064096"><ele>366.25</ele><time>2026-04-26T11:28:17Z</time></trkpt><trkpt lat="43.246916959629125" lon="13.011675419236486"><ele>366.5</ele><time>2026-04-26T11:28:18Z</time></trkpt><trkpt lat="43.24681807280578" lon="13.01179677590686"><ele>366.75</ele><time>2026-04-26T11:28:19Z</time></trkpt><trkpt lat="43.24671490690052" lon="13.011919759329635"><ele>367.0</ele><time>2026-04-26T11:28:20Z</time></trkpt><trkpt lat="43.24661410317118" lon="13.012037832491153"><ele>367.0</ele><time>2026-04-26T11:28:21Z</time></trkpt><trkpt lat="43.24651704038684" lon="13.01215150060389"><ele>367.0</ele><time>2026-04-26T11:28:22Z</time></trkpt><trkpt lat="43.2464243107704" lon="13.012262643873264"><ele>367.0</ele><time>2026-04-26T11:28:23Z</time></trkpt><trkpt lat="43.24633268194663" lon="13.012372838288211"><ele>367.0</ele><time>2026-04-26T11:28:24Z</time></trkpt><trkpt lat="43.24623923609915" lon="13.012486583487574"><ele>366.25</ele><time>2026-04-26T11:28:25Z</time></trkpt><trkpt lat="43.246145251022675" lon="13.012596494625889"><ele>365.5</ele><time>2026-04-26T11:28:26Z</time></trkpt><trkpt lat="43.246051984726414" lon="13.012698221205357"><ele>364.75</ele><time>2026-04-26T11:28:27Z</time></trkpt><trkpt lat="43.24595767905512" lon="13.012785341682298"><ele>364.0</ele><time>2026-04-26T11:28:28Z</time></trkpt><trkpt lat="43.24586271107685" lon="13.012863646825567"><ele>364.0</ele><time>2026-04-26T11:28:29Z</time></trkpt><trkpt lat="43.24576648573369" lon="13.012935199358234"><ele>364.0</ele><time>2026-04-26T11:28:30Z</time></trkpt><trkpt lat="43.24566471879915" lon="13.013002350285777"><ele>364.0</ele><time>2026-04-26T11:28:31Z</time></trkpt><trkpt lat="43.24555503386249" lon="13.01306707292444"><ele>364.0</ele><time>2026-04-26T11:28:32Z</time></trkpt><trkpt lat="43.24543787547915" lon="13.013138404182245"><ele>364.5</ele><time>2026-04-26T11:28:33Z</time></trkpt><trkpt lat="43.24531691732785" lon="13.013210819925298"><ele>365.0</ele><time>2026-04-26T11:28:34Z</time></trkpt><trkpt lat="43.24518876071727" lon="13.013288417544521"><ele>365.5</ele><time>2026-04-26T11:28:35Z</time></trkpt><trkpt lat="43.245055469373476" lon="13.01336841579338"><ele>366.0</ele><time>2026-04-26T11:28:36Z</time></trkpt><trkpt lat="43.24491746966893" lon="13.013448935196912"><ele>368.3333333333333</ele><time>2026-04-26T11:28:37Z</time></trkpt><trkpt lat="43.24477682357244" lon="13.013531099214662"><ele>370.66666666666663</ele><time>2026-04-26T11:28:38Z</time></trkpt><trkpt lat="43.24463022431958" lon="13.013615794607002"><ele>373.0</ele><time>2026-04-26T11:28:39Z</time></trkpt><trkpt lat="43.2444817006038" lon="13.013700914516743"><ele>373.0</ele><time>2026-04-26T11:28:40Z</time></trkpt><trkpt lat="43.24432353912662" lon="13.013789095786452"><ele>373.0</ele><time>2026-04-26T11:28:41Z</time></trkpt><trkpt lat="43.2441606679223" lon="13.013880760017788"><ele>373.0</ele><time>2026-04-26T11:28:42Z</time></trkpt><trkpt lat="43.24399840462191" lon="13.013969111187818"><ele>373.66666666666663</ele><time>2026-04-26T11:28:43Z</time></trkpt><trkpt lat="43.24383991980459" lon="13.014058050316883"><ele>374.3333333333333</ele><time>2026-04-26T11:28:44Z</time></trkpt><trkpt lat="43.24368703784369" lon="13.014150798459442"><ele>375.0</ele><time>2026-04-26T11:28:45Z</time></trkpt><trkpt lat="43.24354447134587" lon="13.0142572955913"><ele>375.0</ele><time>2026-04-26T11:28:46Z</time></trkpt><trkpt lat="43.24341223118995" lon="13.01438174913032"><ele>375.0</ele><time>2026-04-26T11:28:47Z</time></trkpt><trkpt lat="43.243284277067005" lon="13.014513532237604"><ele>375.0</ele><time>2026-04-26T11:28:48Z</time></trkpt><trkpt lat="43.24315512895002" lon="13.014649007911485"><ele>375.3333333333333</ele><time>2026-04-26T11:28:49Z</time></trkpt><trkpt lat="43.243026008323504" lon="13.01478924862791"><ele>375.66666666666663</ele><time>2026-04-26T11:28:50Z</time></trkpt><trkpt lat="43.24289531981914" lon="13.014929738448226"><ele>376.0</ele><time>2026-04-26T11:28:51Z</time></trkpt><trkpt lat="43.242764828897485" lon="13.015066978987148"><ele>376.3333333333333</ele><time>2026-04-26T11:28:52Z</time></trkpt><trkpt lat="43.24263201395431" lon="13.015204848703915"><ele>376.6666666666667</ele><time>2026-04-26T11:28:53Z</time></trkpt><trkpt lat="43.242500130669754" lon="13.015345582569614"><ele>377.0</ele><time>2026-04-26T11:28:54Z</time></trkpt><trkpt lat="43.24236753341775" lon="13.01548759071939"><ele>377.33333333333337</ele><time>2026-04-26T11:28:54.999Z</time></trkpt><trkpt lat="43.24223378311415" lon="13.015629684226253"><ele>377.6666666666667</ele><time>2026-04-26T11:28:55.999Z</time></trkpt><trkpt lat="43.24209732222988" lon="13.015773072307717"><ele>378.0</ele><time>2026-04-26T11:28:56.999Z</time></trkpt><trkpt lat="43.241962480230455" lon="13.01591640326922"><ele>378.0</ele><time>2026-04-26T11:28:57.999Z</time></trkpt><trkpt lat="43.24183112225047" lon="13.016067383848883"><ele>378.0</ele><time>2026-04-26T11:28:58.999Z</time></trkpt><trkpt lat="43.2416992975412" lon="13.016218766699351"><ele>378.0</ele><time>2026-04-26T11:28:59.999Z</time></trkpt><trkpt lat="43.24156439503719" lon="13.016369420242567"><ele>378.6666666666667</ele><time>2026-04-26T11:29:00.999Z</time></trkpt><trkpt lat="43.24142614315151" lon="13.016521820450475"><ele>379.33333333333337</ele><time>2026-04-26T11:29:01.999Z</time></trkpt><trkpt lat="43.24128274159806" lon="13.0166710638616"><ele>380.0</ele><time>2026-04-26T11:29:02.999Z</time></trkpt><trkpt lat="43.24113385740264" lon="13.016821952465078"><ele>378.6666666666667</ele><time>2026-04-26T11:29:03.999Z</time></trkpt><trkpt lat="43.240982014346216" lon="13.016970114930752"><ele>377.3333333333333</ele><time>2026-04-26T11:29:04.999Z</time></trkpt><trkpt lat="43.24082568491073" lon="13.01711864689479"><ele>376.0</ele><time>2026-04-26T11:29:05.999Z</time></trkpt><trkpt lat="43.240663931547445" lon="13.01726092587762"><ele>376.0</ele><time>2026-04-26T11:29:06.999Z</time></trkpt><trkpt lat="43.240499901113026" lon="13.017402346672755"><ele>376.0</ele><time>2026-04-26T11:29:07.999Z</time></trkpt><trkpt lat="43.2403363797615" lon="13.01754862284061"><ele>376.0</ele><time>2026-04-26T11:29:08.999Z</time></trkpt><trkpt lat="43.240171966599114" lon="13.017692722550185"><ele>376.0</ele><time>2026-04-26T11:29:09.999Z</time></trkpt><trkpt lat="43.24000894097531" lon="13.017829151202312"><ele>376.0</ele><time>2026-04-26T11:29:10.999Z</time></trkpt><trkpt lat="43.23985112370045" lon="13.01796065431576"><ele>376.0</ele><time>2026-04-26T11:29:11.999Z</time></trkpt><trkpt lat="43.23969059388962" lon="13.01808376590303"><ele>377.66666666666663</ele><time>2026-04-26T11:29:12.999Z</time></trkpt><trkpt lat="43.23952026209607" lon="13.018179898983417"><ele>379.3333333333333</ele><time>2026-04-26T11:29:13.999Z</time></trkpt><trkpt lat="43.23934510296422" lon="13.018249675764556"><ele>381.0</ele><time>2026-04-26T11:29:14.999Z</time></trkpt><trkpt lat="43.23916623847206" lon="13.018296209505216"><ele>380.0</ele><time>2026-04-26T11:29:15.999Z</time></trkpt><trkpt lat="43.23898699470652" lon="13.018332363797299"><ele>379.0</ele><time>2026-04-26T11:29:16.999Z</time></trkpt><trkpt lat="43.23880782840632" lon="13.018366594978618"><ele>378.0</ele><time>2026-04-26T11:29:17.999Z</time></trkpt><trkpt lat="43.238631406429555" lon="13.018402608114064"><ele>378.0</ele><time>2026-04-26T11:29:18.999Z</time></trkpt><trkpt lat="43.23845611091795" lon="13.018434063065824"><ele>378.0</ele><time>2026-04-26T11:29:19.999Z</time></trkpt><trkpt lat="43.23828220880624" lon="13.018463001511506"><ele>378.0</ele><time>2026-04-26T11:29:20.999Z</time></trkpt><trkpt lat="43.238108114711" lon="13.018493153273827"><ele>378.3333333333333</ele><time>2026-04-26T11:29:21.999Z</time></trkpt><trkpt lat="43.237929273182495" lon="13.018525966819846"><ele>378.66666666666663</ele><time>2026-04-26T11:29:22.999Z</time></trkpt><trkpt lat="43.23774685197547" lon="13.018560540521824"><ele>379.0</ele><time>2026-04-26T11:29:23.999Z</time></trkpt><trkpt lat="43.23755774142999" lon="13.018594032934102"><ele>379.0</ele><time>2026-04-26T11:29:24.999Z</time></trkpt><trkpt lat="43.23736583447069" lon="13.018626045892717"><ele>379.0</ele><time>2026-04-26T11:29:25.999Z</time></trkpt><trkpt lat="43.237170637769154" lon="13.01865960309045"><ele>379.0</ele><time>2026-04-26T11:29:26.999Z</time></trkpt><trkpt lat="43.23697125806319" lon="13.018694212111216"><ele>380.66666666666663</ele><time>2026-04-26T11:29:27.999Z</time></trkpt><trkpt lat="43.236770015507965" lon="13.01873075098211"><ele>382.3333333333333</ele><time>2026-04-26T11:29:28.999Z</time></trkpt><trkpt lat="43.23656191077996" lon="13.01877653461866"><ele>384.0</ele><time>2026-04-26T11:29:29.999Z</time></trkpt><trkpt lat="43.23635598650707" lon="13.018830471353937"><ele>384.33333333333337</ele><time>2026-04-26T11:29:30.999Z</time></trkpt><trkpt lat="43.23614685757816" lon="13.018903027049406"><ele>384.6666666666667</ele><time>2026-04-26T11:29:31.999Z</time></trkpt><trkpt lat="43.235942031917865" lon="13.018998404692622"><ele>385.0</ele><time>2026-04-26T11:29:32.999Z</time></trkpt><trkpt lat="43.23574526024748" lon="13.019125139804277"><ele>384.6666666666667</ele><time>2026-04-26T11:29:33.999Z</time></trkpt><trkpt lat="43.235554350877955" lon="13.019276204937409"><ele>384.33333333333337</ele><time>2026-04-26T11:29:34.999Z</time></trkpt><trkpt lat="43.235369364507946" lon="13.01944097422015"><ele>384.0</ele><time>2026-04-26T11:29:35.999Z</time></trkpt><trkpt lat="43.23518186665924" lon="13.0196071587992"><ele>384.0</ele><time>2026-04-26T11:29:36.999Z</time></trkpt><trkpt lat="43.234995507562964" lon="13.019783896806139"><ele>384.0</ele><time>2026-04-26T11:29:37.999Z</time></trkpt><trkpt lat="43.23481188776359" lon="13.019958036652381"><ele>386.0</ele><time>2026-04-26T11:29:38.999Z</time></trkpt><trkpt lat="43.234625061892025" lon="13.020137203568325"><ele>388.0</ele><time>2026-04-26T11:29:39.999Z</time></trkpt><trkpt lat="43.23444336331433" lon="13.020315884262667"><ele>388.0</ele><time>2026-04-26T11:29:40.999Z</time></trkpt><trkpt lat="43.23426132121768" lon="13.020500406108692"><ele>388.0</ele><time>2026-04-26T11:29:41.999Z</time></trkpt><trkpt lat="43.23408032440856" lon="13.020691014186937"><ele>389.0</ele><time>2026-04-26T11:29:42.999Z</time></trkpt><trkpt lat="43.23390206442465" lon="13.020884577948138"><ele>390.0</ele><time>2026-04-26T11:29:43.999Z</time></trkpt><trkpt lat="43.233732358986" lon="13.02108109131147"><ele>391.0</ele><time>2026-04-26T11:29:44.999Z</time></trkpt><trkpt lat="43.23358619919517" lon="13.021280632016618"><ele>391.0</ele><time>2026-04-26T11:29:45.999Z</time></trkpt><trkpt lat="43.23344314655019" lon="13.021488263397332"><ele>391.0</ele><time>2026-04-26T11:29:46.999Z</time></trkpt><trkpt lat="43.233305409730185" lon="13.021690963792524"><ele>391.0</ele><time>2026-04-26T11:29:47.999Z</time></trkpt><trkpt lat="43.23317275471531" lon="13.021902654746727"><ele>389.33333333333337</ele><time>2026-04-26T11:29:48.999Z</time></trkpt><trkpt lat="43.23303948296272" lon="13.022117433291235"><ele>387.66666666666663</ele><time>2026-04-26T11:29:49.999Z</time></trkpt><trkpt lat="43.23290511128592" lon="13.022335404764975"><ele>386.0</ele><time>2026-04-26T11:29:50.999Z</time></trkpt><trkpt lat="43.23276990307641" lon="13.022557912510877"><ele>384.3333333333333</ele><time>2026-04-26T11:29:51.999Z</time></trkpt><trkpt lat="43.23263289055867" lon="13.022779904590216"><ele>382.66666666666663</ele><time>2026-04-26T11:29:52.999Z</time></trkpt><trkpt lat="43.23249623125021" lon="13.023000480243473"><ele>381.0</ele><time>2026-04-26T11:29:53.999Z</time></trkpt><trkpt lat="43.232347249178034" lon="13.02324081784074"><ele>377.3333333333333</ele><time>2026-04-26T11:29:54.999Z</time></trkpt><trkpt lat="43.23220498528729" lon="13.023472013393615"><ele>373.66666666666663</ele><time>2026-04-26T11:29:55.999Z</time></trkpt><trkpt lat="43.232061762733686" lon="13.02370795400931"><ele>370.0</ele><time>2026-04-26T11:29:56.999Z</time></trkpt><trkpt lat="43.231920812641334" lon="13.02393963391578"><ele>372.0</ele><time>2026-04-26T11:29:57.999Z</time></trkpt><trkpt lat="43.231783467744194" lon="13.024168183910312"><ele>374.0</ele><time>2026-04-26T11:29:58.999Z</time></trkpt><trkpt lat="43.231644966647735" lon="13.024392342150207"><ele>376.0</ele><time>2026-04-26T11:29:59.998Z</time></trkpt><trkpt lat="43.231506878021456" lon="13.024609952362484"><ele>375.3333333333333</ele><time>2026-04-26T11:30:00.998Z</time></trkpt><trkpt lat="43.231371198562556" lon="13.024831869491116"><ele>374.6666666666667</ele><time>2026-04-26T11:30:02Z</time></trkpt><trkpt lat="43.23123742549231" lon="13.025055807796395"><ele>374.0</ele><time>2026-04-26T11:30:03Z</time></trkpt><trkpt lat="43.23110491702124" lon="13.0252750570425"><ele>374.0</ele><time>2026-04-26T11:30:04Z</time></trkpt><trkpt lat="43.23096705349612" lon="13.025498982274764"><ele>374.0</ele><time>2026-04-26T11:30:05Z</time></trkpt><trkpt lat="43.23082847067501" lon="13.025725791759022"><ele>374.0</ele><time>2026-04-26T11:30:06Z</time></trkpt><trkpt lat="43.230691935596475" lon="13.02595844862226"><ele>371.0</ele><time>2026-04-26T11:30:07Z</time></trkpt><trkpt lat="43.230582399762255" lon="13.026143500799336"><ele>368.0</ele><time>2026-04-26T11:30:08Z</time></trkpt><trkpt lat="43.230456716870755" lon="13.026339941676753"><ele>365.0</ele><time>2026-04-26T11:30:09Z</time></trkpt><trkpt lat="43.23039537066748" lon="13.026562811470672"><ele>363.75</ele><time>2026-04-26T11:30:10Z</time></trkpt><trkpt lat="43.23035693122709" lon="13.026753753987787"><ele>362.5</ele><time>2026-04-26T11:30:11Z</time></trkpt><trkpt lat="43.2303516919547" lon="13.026954693554153"><ele>361.25</ele><time>2026-04-26T11:30:12Z</time></trkpt><trkpt lat="43.23037423621864" lon="13.027157868817376"><ele>360.0</ele><time>2026-04-26T11:30:13Z</time></trkpt><trkpt lat="43.23040662044831" lon="13.027364074530963"><ele>358.6666666666667</ele><time>2026-04-26T11:30:14Z</time></trkpt><trkpt lat="43.23044065349212" lon="13.027575954604647"><ele>357.33333333333337</ele><time>2026-04-26T11:30:15Z</time></trkpt><trkpt lat="43.230486419797636" lon="13.02778803337178"><ele>356.0</ele><time>2026-04-26T11:30:16Z</time></trkpt><trkpt lat="43.2305480636915" lon="13.028000300268856"><ele>356.0</ele><time>2026-04-26T11:30:17Z</time></trkpt><trkpt lat="43.23061916494584" lon="13.028215092814179"><ele>356.0</ele><time>2026-04-26T11:30:18Z</time></trkpt><trkpt lat="43.23069253889111" lon="13.028421143941904"><ele>356.0</ele><time>2026-04-26T11:30:19Z</time></trkpt><trkpt lat="43.230761655310594" lon="13.028612767871639"><ele>356.33333333333337</ele><time>2026-04-26T11:30:20Z</time></trkpt><trkpt lat="43.23082649010387" lon="13.02880493888841"><ele>356.6666666666667</ele><time>2026-04-26T11:30:21Z</time></trkpt><trkpt lat="43.230887016716004" lon="13.028995646072875"><ele>357.0</ele><time>2026-04-26T11:30:22Z</time></trkpt><trkpt lat="43.230923050555965" lon="13.029193189791775"><ele>355.75</ele><time>2026-04-26T11:30:23Z</time></trkpt><trkpt lat="43.230925925692596" lon="13.029383855456095"><ele>354.5</ele><time>2026-04-26T11:30:24Z</time></trkpt><trkpt lat="43.23089701565621" lon="13.029548866375288"><ele>353.25</ele><time>2026-04-26T11:30:25Z</time></trkpt><trkpt lat="43.230835686403374" lon="13.029671175896363"><ele>352.0</ele><time>2026-04-26T11:30:26Z</time></trkpt><trkpt lat="43.230745218672084" lon="13.02974489104865"><ele>352.0</ele><time>2026-04-26T11:30:27Z</time></trkpt><trkpt lat="43.23064246687989" lon="13.029748975507546"><ele>352.0</ele><time>2026-04-26T11:30:28Z</time></trkpt><trkpt lat="43.23052866995294" lon="13.029696365716473"><ele>352.0</ele><time>2026-04-26T11:30:29Z</time></trkpt><trkpt lat="43.23041323822625" lon="13.029680240230107"><ele>352.0</ele><time>2026-04-26T11:30:30Z</time></trkpt><trkpt lat="43.23027993190475" lon="13.029571072675955"><ele>351.0</ele><time>2026-04-26T11:30:31Z</time></trkpt><trkpt lat="43.23014206165085" lon="13.029453092404355"><ele>350.0</ele><time>2026-04-26T11:30:32Z</time></trkpt><trkpt lat="43.230002427675345" lon="13.029347058735818"><ele>349.0</ele><time>2026-04-26T11:30:33Z</time></trkpt><trkpt lat="43.22986711175034" lon="13.029270886680742"><ele>347.75</ele><time>2026-04-26T11:30:34Z</time></trkpt><trkpt lat="43.22972024102651" lon="13.029262740441395"><ele>346.5</ele><time>2026-04-26T11:30:35Z</time></trkpt><trkpt lat="43.229577717036136" lon="13.029304901345498"><ele>345.25</ele><time>2026-04-26T11:30:36Z</time></trkpt><trkpt lat="43.22946120702717" lon="13.029409886889445"><ele>344.0</ele><time>2026-04-26T11:30:37Z</time></trkpt><trkpt lat="43.2293830390166" lon="13.0295667787149"><ele>344.0</ele><time>2026-04-26T11:30:38Z</time></trkpt><trkpt lat="43.2293404318733" lon="13.029759473603054"><ele>344.0</ele><time>2026-04-26T11:30:39Z</time></trkpt><trkpt lat="43.229322650168484" lon="13.029969597166657"><ele>344.0</ele><time>2026-04-26T11:30:40Z</time></trkpt><trkpt lat="43.22931008501776" lon="13.030162105698581"><ele>344.0</ele><time>2026-04-26T11:30:41Z</time></trkpt><trkpt lat="43.229304295850866" lon="13.030338596831259"><ele>343.75</ele><time>2026-04-26T11:30:42Z</time></trkpt><trkpt lat="43.22928658211454" lon="13.030506882158587"><ele>343.5</ele><time>2026-04-26T11:30:43Z</time></trkpt><trkpt lat="43.22924980375968" lon="13.030687197044008"><ele>343.25</ele><time>2026-04-26T11:30:44Z</time></trkpt><trkpt lat="43.22919802223931" lon="13.030869104414114"><ele>343.0</ele><time>2026-04-26T11:30:45Z</time></trkpt><trkpt lat="43.22913056230758" lon="13.03105745617924"><ele>343.0</ele><time>2026-04-26T11:30:46Z</time></trkpt><trkpt lat="43.22905460716421" lon="13.031245701800067"><ele>343.0</ele><time>2026-04-26T11:30:47Z</time></trkpt><trkpt lat="43.2289693385573" lon="13.031434889403425"><ele>343.0</ele><time>2026-04-26T11:30:48Z</time></trkpt><trkpt lat="43.22889039925605" lon="13.031626702859894"><ele>342.3333333333333</ele><time>2026-04-26T11:30:49Z</time></trkpt><trkpt lat="43.228809931883184" lon="13.031829972276674"><ele>341.6666666666667</ele><time>2026-04-26T11:30:50Z</time></trkpt><trkpt lat="43.22872916749047" lon="13.032034494274995"><ele>341.0</ele><time>2026-04-26T11:30:51Z</time></trkpt><trkpt lat="43.2286485385136" lon="13.032253971557996"><ele>340.6666666666667</ele><time>2026-04-26T11:30:52Z</time></trkpt><trkpt lat="43.22858924053224" lon="13.03249154856309"><ele>340.3333333333333</ele><time>2026-04-26T11:30:53Z</time></trkpt><trkpt lat="43.22854639741983" lon="13.032728005723623"><ele>340.0</ele><time>2026-04-26T11:30:54Z</time></trkpt><trkpt lat="43.22850205763703" lon="13.032952767199381"><ele>340.0</ele><time>2026-04-26T11:30:55Z</time></trkpt><trkpt lat="43.228437370033674" lon="13.033154148462085"><ele>340.0</ele><time>2026-04-26T11:30:56Z</time></trkpt><trkpt lat="43.228347600023255" lon="13.033344971925601"><ele>340.0</ele><time>2026-04-26T11:30:57Z</time></trkpt><trkpt lat="43.228232251633706" lon="13.033529853940149"><ele>338.66666666666663</ele><time>2026-04-26T11:30:58Z</time></trkpt><trkpt lat="43.228105028980906" lon="13.033709743248503"><ele>337.3333333333333</ele><time>2026-04-26T11:30:59Z</time></trkpt><trkpt lat="43.2279750045132" lon="13.03389506182248"><ele>336.0</ele><time>2026-04-26T11:31:00Z</time></trkpt><trkpt lat="43.22783768404133" lon="13.034079605016906"><ele>335.3333333333333</ele><time>2026-04-26T11:31:01Z</time></trkpt><trkpt lat="43.22769823645101" lon="13.03427180733401"><ele>334.66666666666663</ele><time>2026-04-26T11:31:02Z</time></trkpt><trkpt lat="43.22757507685178" lon="13.034459329015366"><ele>334.0</ele><time>2026-04-26T11:31:02.999Z</time></trkpt><trkpt lat="43.22746734572757" lon="13.034647662734262"><ele>334.0</ele><time>2026-04-26T11:31:03.999Z</time></trkpt><trkpt lat="43.227390638260374" lon="13.03484595068152"><ele>334.0</ele><time>2026-04-26T11:31:04.999Z</time></trkpt><trkpt lat="43.227356223831165" lon="13.035059715043422"><ele>334.0</ele><time>2026-04-26T11:31:05.999Z</time></trkpt><trkpt lat="43.227358771807744" lon="13.035286668391645"><ele>334.0</ele><time>2026-04-26T11:31:06.999Z</time></trkpt><trkpt lat="43.22737926246342" lon="13.035511956588834"><ele>334.0</ele><time>2026-04-26T11:31:07.999Z</time></trkpt><trkpt lat="43.227406486639445" lon="13.03573423803842"><ele>334.0</ele><time>2026-04-26T11:31:08.999Z</time></trkpt><trkpt lat="43.22743261923622" lon="13.035952111634797"><ele>334.0</ele><time>2026-04-26T11:31:09.999Z</time></trkpt><trkpt lat="43.227454726017136" lon="13.0361627613569"><ele>334.0</ele><time>2026-04-26T11:31:10.999Z</time></trkpt><trkpt lat="43.22746819195445" lon="13.036354006519305"><ele>334.0</ele><time>2026-04-26T11:31:11.999Z</time></trkpt><trkpt lat="43.22747758879825" lon="13.036534585172076"><ele>334.0</ele><time>2026-04-26T11:31:12.999Z</time></trkpt><trkpt lat="43.227485231939326" lon="13.036704354228846"><ele>333.79999999999995</ele><time>2026-04-26T11:31:13.999Z</time></trkpt><trkpt lat="43.227483200736124" lon="13.036866078378704"><ele>333.59999999999997</ele><time>2026-04-26T11:31:14.999Z</time></trkpt><trkpt lat="43.227464168160886" lon="13.03700880622975"><ele>333.4</ele><time>2026-04-26T11:31:15.999Z</time></trkpt><trkpt lat="43.227418834683526" lon="13.037120056581067"><ele>333.2</ele><time>2026-04-26T11:31:16.999Z</time></trkpt><trkpt lat="43.22735889519413" lon="13.03720166503859"><ele>333.0</ele><time>2026-04-26T11:31:17.999Z</time></trkpt><trkpt lat="43.227292492699526" lon="13.03724235824857"><ele>332.7142857142857</ele><time>2026-04-26T11:31:18.999Z</time></trkpt><trkpt lat="43.227223652349146" lon="13.037259624878027"><ele>332.4285714285714</ele><time>2026-04-26T11:31:19.999Z</time></trkpt><trkpt lat="43.227156378887635" lon="13.037286491374607"><ele>332.1428571428571</ele><time>2026-04-26T11:31:20.999Z</time></trkpt><trkpt lat="43.2270927840733" lon="13.03734123724909"><ele>331.8571428571429</ele><time>2026-04-26T11:31:21.999Z</time></trkpt><trkpt lat="43.22705262152584" lon="13.037434144371915"><ele>331.57142857142856</ele><time>2026-04-26T11:31:22.999Z</time></trkpt><trkpt lat="43.227034866359965" lon="13.037536997961633"><ele>331.2857142857143</ele><time>2026-04-26T11:31:23.999Z</time></trkpt><trkpt lat="43.22703061502958" lon="13.037635585157533"><ele>331.0</ele><time>2026-04-26T11:31:24.999Z</time></trkpt><trkpt lat="43.22706655845249" lon="13.037772921881562"><ele>331.0</ele><time>2026-04-26T11:31:26.999Z</time></trkpt><trkpt lat="43.227085386624424" lon="13.037858032941008"><ele>331.0</ele><time>2026-04-26T11:31:28.999Z</time></trkpt><trkpt lat="43.226977136250326" lon="13.037967632313174"><ele>331.0</ele><time>2026-04-26T11:31:30.999Z</time></trkpt><trkpt lat="43.226916946710695" lon="13.038014916199828"><ele>331.0</ele><time>2026-04-26T11:31:31.999Z</time></trkpt><trkpt lat="43.226847069103364" lon="13.038080596491591"><ele>331.0</ele><time>2026-04-26T11:31:32.999Z</time></trkpt><trkpt lat="43.22676516131523" lon="13.038151827317916"><ele>331.0</ele><time>2026-04-26T11:31:33.999Z</time></trkpt><trkpt lat="43.226664427735265" lon="13.038204490437908"><ele>331.0</ele><time>2026-04-26T11:31:34.999Z</time></trkpt><trkpt lat="43.226551478929565" lon="13.038259984496415"><ele>331.0</ele><time>2026-04-26T11:31:35.999Z</time></trkpt><trkpt lat="43.22642785252717" lon="13.038309209643181"><ele>331.0</ele><time>2026-04-26T11:31:36.999Z</time></trkpt><trkpt lat="43.22629823735072" lon="13.038352757737908"><ele>330.75</ele><time>2026-04-26T11:31:37.999Z</time></trkpt><trkpt lat="43.22616084851868" lon="13.038391947338381"><ele>330.5</ele><time>2026-04-26T11:31:38.999Z</time></trkpt><trkpt lat="43.22601422895817" lon="13.038430448475024"><ele>330.25</ele><time>2026-04-26T11:31:39.999Z</time></trkpt><trkpt lat="43.22585982762585" lon="13.038468514386588"><ele>330.0</ele><time>2026-04-26T11:31:40.999Z</time></trkpt><trkpt lat="43.22570143923192" lon="13.03850776092009"><ele>329.3333333333333</ele><time>2026-04-26T11:31:41.999Z</time></trkpt><trkpt lat="43.225542612514246" lon="13.038550746459961"><ele>328.66666666666663</ele><time>2026-04-26T11:31:42.999Z</time></trkpt><trkpt lat="43.22538091643953" lon="13.038599582292955"><ele>328.0</ele><time>2026-04-26T11:31:43.999Z</time></trkpt><trkpt lat="43.22522087396437" lon="13.038649689989068"><ele>328.0</ele><time>2026-04-26T11:31:44.999Z</time></trkpt><trkpt lat="43.22507909132641" lon="13.038695711087009"><ele>328.0</ele><time>2026-04-26T11:31:45.999Z</time></trkpt><trkpt lat="43.224950829569906" lon="13.038746917008229"><ele>328.0</ele><time>2026-04-26T11:31:46.999Z</time></trkpt><trkpt lat="43.224827991713255" lon="13.038805079025046"><ele>328.0</ele><time>2026-04-26T11:31:47.999Z</time></trkpt><trkpt lat="43.22471576628645" lon="13.038877498760058"><ele>328.25</ele><time>2026-04-26T11:31:48.999Z</time></trkpt><trkpt lat="43.22460028688505" lon="13.038955469455297"><ele>328.5</ele><time>2026-04-26T11:31:49.999Z</time></trkpt><trkpt lat="43.22449069587752" lon="13.039044482496095"><ele>328.75</ele><time>2026-04-26T11:31:50.999Z</time></trkpt><trkpt lat="43.22438560138692" lon="13.03914277770572"><ele>329.0</ele><time>2026-04-26T11:31:51.999Z</time></trkpt><trkpt lat="43.22429211293689" lon="13.039242528448922"><ele>329.0</ele><time>2026-04-26T11:31:52.999Z</time></trkpt><trkpt lat="43.22421070957713" lon="13.039337433146382"><ele>329.0</ele><time>2026-04-26T11:31:53.999Z</time></trkpt><trkpt lat="43.224136736712225" lon="13.039427400895963"><ele>329.0</ele><time>2026-04-26T11:31:54.999Z</time></trkpt><trkpt lat="43.22407556736636" lon="13.039508607989644"><ele>329.0</ele><time>2026-04-26T11:31:55.999Z</time></trkpt><trkpt lat="43.22402612544783" lon="13.039576755523228"><ele>329.0</ele><time>2026-04-26T11:31:56.999Z</time></trkpt><trkpt lat="43.22396598222585" lon="13.039663963791922"><ele>329.0</ele><time>2026-04-26T11:31:58.999Z</time></trkpt><trkpt lat="43.22407765398156" lon="13.039792482322392"><ele>329.0</ele><time>2026-04-26T11:32:00.999Z</time></trkpt><trkpt lat="43.22413697185952" lon="13.0398372481806"><ele>329.0</ele><time>2026-04-26T11:32:01.999Z</time></trkpt><trkpt lat="43.224200214847045" lon="13.039900980387246"><ele>329.0</ele><time>2026-04-26T11:32:02.999Z</time></trkpt><trkpt lat="43.22426632147178" lon="13.0399885252688"><ele>329.0</ele><time>2026-04-26T11:32:03.999Z</time></trkpt><trkpt lat="43.224335380187846" lon="13.040095701812117"><ele>329.0</ele><time>2026-04-26T11:32:04.999Z</time></trkpt><trkpt lat="43.22440747461482" lon="13.04020230711621"><ele>329.0</ele><time>2026-04-26T11:32:05.999Z</time></trkpt><trkpt lat="43.22448935311974" lon="13.040320641204874"><ele>330.25</ele><time>2026-04-26T11:32:06.998Z</time></trkpt><trkpt lat="43.22458186070432" lon="13.040447966000375"><ele>331.5</ele><time>2026-04-26T11:32:08Z</time></trkpt><trkpt lat="43.22467995992674" lon="13.040582758259434"><ele>332.75</ele><time>2026-04-26T11:32:09Z</time></trkpt><trkpt lat="43.22478592235593" lon="13.040729298700521"><ele>334.0</ele><time>2026-04-26T11:32:10Z</time></trkpt><trkpt lat="43.22489085667367" lon="13.040870597469533"><ele>336.75</ele><time>2026-04-26T11:32:11Z</time></trkpt><trkpt lat="43.22499941099763" lon="13.041017044810395"><ele>339.5</ele><time>2026-04-26T11:32:12Z</time></trkpt><trkpt lat="43.22510057500968" lon="13.041156470803841"><ele>342.25</ele><time>2026-04-26T11:32:13Z</time></trkpt><trkpt lat="43.22518514704266" lon="13.041280154948533"><ele>345.0</ele><time>2026-04-26T11:32:14Z</time></trkpt><trkpt lat="43.225259458175564" lon="13.041392837437849"><ele>345.0</ele><time>2026-04-26T11:32:15Z</time></trkpt><trkpt lat="43.22532743550383" lon="13.041487279306514"><ele>345.0</ele><time>2026-04-26T11:32:16Z</time></trkpt><trkpt lat="43.2253994427845" lon="13.04155545865629"><ele>345.0</ele><time>2026-04-26T11:32:17Z</time></trkpt><trkpt lat="43.22547538291633" lon="13.041581462146056"><ele>345.0</ele><time>2026-04-26T11:32:18Z</time></trkpt><trkpt lat="43.225544219330054" lon="13.041574790094204"><ele>345.0</ele><time>2026-04-26T11:32:19Z</time></trkpt><trkpt lat="43.22564399050833" lon="13.041555064651094"><ele>345.0</ele><time>2026-04-26T11:32:21Z</time></trkpt><trkpt lat="43.22573177811845" lon="13.041576433798793"><ele>347.6</ele><time>2026-04-26T11:32:23Z</time></trkpt><trkpt lat="43.225853282762046" lon="13.04162908321576"><ele>350.2</ele><time>2026-04-26T11:32:25Z</time></trkpt><trkpt lat="43.225924901925985" lon="13.041659710142428"><ele>352.79999999999995</ele><time>2026-04-26T11:32:26Z</time></trkpt><trkpt lat="43.22600302388052" lon="13.04168431197633"><ele>355.4</ele><time>2026-04-26T11:32:27Z</time></trkpt><trkpt lat="43.22607926753781" lon="13.041735314566118"><ele>358.0</ele><time>2026-04-26T11:32:28Z</time></trkpt><trkpt lat="43.22616245954076" lon="13.041769963776382"><ele>358.0</ele><time>2026-04-26T11:32:29Z</time></trkpt><trkpt lat="43.22624964893154" lon="13.041796233021708"><ele>358.0</ele><time>2026-04-26T11:32:30Z</time></trkpt><trkpt lat="43.2263343556456" lon="13.041839337016281"><ele>358.0</ele><time>2026-04-26T11:32:31Z</time></trkpt><trkpt lat="43.22641699870312" lon="13.041875618292412"><ele>358.0</ele><time>2026-04-26T11:32:32Z</time></trkpt><trkpt lat="43.22649824366424" lon="13.041907576077637"><ele>358.0</ele><time>2026-04-26T11:32:33Z</time></trkpt><trkpt lat="43.22657542652227" lon="13.041936788886973"><ele>358.0</ele><time>2026-04-26T11:32:34Z</time></trkpt><trkpt lat="43.226643530372925" lon="13.04196963016296"><ele>359.79999999999995</ele><time>2026-04-26T11:32:35Z</time></trkpt><trkpt lat="43.22669927965292" lon="13.042024866933833"><ele>361.6</ele><time>2026-04-26T11:32:36Z</time></trkpt><trkpt lat="43.226751860206285" lon="13.042104535018957"><ele>363.4</ele><time>2026-04-26T11:32:37Z</time></trkpt><trkpt lat="43.22679608498457" lon="13.042212862562529"><ele>365.20000000000005</ele><time>2026-04-26T11:32:38Z</time></trkpt><trkpt lat="43.22683307659375" lon="13.04235273469309"><ele>367.0</ele><time>2026-04-26T11:32:39Z</time></trkpt><trkpt lat="43.22685985822597" lon="13.042514852512994"><ele>368.0</ele><time>2026-04-26T11:32:40Z</time></trkpt><trkpt lat="43.22687625689191" lon="13.04269407200717"><ele>369.0</ele><time>2026-04-26T11:32:41Z</time></trkpt><trkpt lat="43.22689332910426" lon="13.04289997049425"><ele>370.0</ele><time>2026-04-26T11:32:42Z</time></trkpt><trkpt lat="43.22691625209983" lon="13.043124306000983"><ele>371.0</ele><time>2026-04-26T11:32:43Z</time></trkpt><trkpt lat="43.22694048110887" lon="13.043344835518313"><ele>373.0</ele><time>2026-04-26T11:32:44Z</time></trkpt><trkpt lat="43.22696278200047" lon="13.04357250545851"><ele>375.0</ele><time>2026-04-26T11:32:45Z</time></trkpt><trkpt lat="43.2269864096668" lon="13.043796218781722"><ele>377.0</ele><time>2026-04-26T11:32:46Z</time></trkpt><trkpt lat="43.22702068911978" lon="13.043989862361135"><ele>377.5</ele><time>2026-04-26T11:32:47Z</time></trkpt><trkpt lat="43.22706714643801" lon="13.044151167334858"><ele>378.0</ele><time>2026-04-26T11:32:48Z</time></trkpt><trkpt lat="43.22711819603543" lon="13.044295488470828"><ele>378.5</ele><time>2026-04-26T11:32:49Z</time></trkpt><trkpt lat="43.22717019283703" lon="13.044427726320947"><ele>379.0</ele><time>2026-04-26T11:32:50Z</time></trkpt><trkpt lat="43.227219602650926" lon="13.044565214976453"><ele>379.0</ele><time>2026-04-26T11:32:51Z</time></trkpt><trkpt lat="43.22726861907956" lon="13.044707707761571"><ele>379.0</ele><time>2026-04-26T11:32:52Z</time></trkpt><trkpt lat="43.22732079324342" lon="13.04485426493014"><ele>379.0</ele><time>2026-04-26T11:32:53Z</time></trkpt><trkpt lat="43.227373671885694" lon="13.045006673327654"><ele>379.0</ele><time>2026-04-26T11:32:54Z</time></trkpt><trkpt lat="43.227424484882214" lon="13.045167086712798"><ele>380.75</ele><time>2026-04-26T11:32:55Z</time></trkpt><trkpt lat="43.227466197355525" lon="13.045336634064746"><ele>382.5</ele><time>2026-04-26T11:32:56Z</time></trkpt><trkpt lat="43.227503677874594" lon="13.045511632174033"><ele>384.25</ele><time>2026-04-26T11:32:57Z</time></trkpt><trkpt lat="43.2275451309168" lon="13.045689429355267"><ele>386.0</ele><time>2026-04-26T11:32:58Z</time></trkpt><trkpt lat="43.227588747867976" lon="13.045868356054626"><ele>387.0</ele><time>2026-04-26T11:32:59Z</time></trkpt><trkpt lat="43.22763573787961" lon="13.046049944130568"><ele>388.0</ele><time>2026-04-26T11:33:00Z</time></trkpt><trkpt lat="43.227683770659205" lon="13.046232944266285"><ele>389.0</ele><time>2026-04-26T11:33:01Z</time></trkpt><trkpt lat="43.227733304160225" lon="13.04641758852192"><ele>390.0</ele><time>2026-04-26T11:33:02Z</time></trkpt><trkpt lat="43.22778048381403" lon="13.04660293863474"><ele>390.75</ele><time>2026-04-26T11:33:03Z</time></trkpt><trkpt lat="43.22782998973888" lon="13.04678702496931"><ele>391.5</ele><time>2026-04-26T11:33:04Z</time></trkpt><trkpt lat="43.22787791633251" lon="13.046972206443312"><ele>392.25</ele><time>2026-04-26T11:33:05Z</time></trkpt><trkpt lat="43.22792142807803" lon="13.047153153075538"><ele>393.0</ele><time>2026-04-26T11:33:06Z</time></trkpt><trkpt lat="43.22796231943761" lon="13.047330982118694"><ele>393.75</ele><time>2026-04-26T11:33:06.999Z</time></trkpt><trkpt lat="43.227999338549445" lon="13.047503596474"><ele>394.5</ele><time>2026-04-26T11:33:07.999Z</time></trkpt><trkpt lat="43.22803350410138" lon="13.047673445169536"><ele>395.25</ele><time>2026-04-26T11:33:08.999Z</time></trkpt><trkpt lat="43.22807261282672" lon="13.047840807217598"><ele>396.0</ele><time>2026-04-26T11:33:09.999Z</time></trkpt><trkpt lat="43.22811886687821" lon="13.048006940009257"><ele>396.5</ele><time>2026-04-26T11:33:10.999Z</time></trkpt><trkpt lat="43.22817972256634" lon="13.04816855151509"><ele>397.0</ele><time>2026-04-26T11:33:11.999Z</time></trkpt><trkpt lat="43.228241297621196" lon="13.048332854474712"><ele>397.5</ele><time>2026-04-26T11:33:12.999Z</time></trkpt><trkpt lat="43.22830546422244" lon="13.048496395945095"><ele>398.0</ele><time>2026-04-26T11:33:13.999Z</time></trkpt><trkpt lat="43.22836238197761" lon="13.048662253064572"><ele>399.25</ele><time>2026-04-26T11:33:14.999Z</time></trkpt><trkpt lat="43.22840207679867" lon="13.048841218635587"><ele>400.5</ele><time>2026-04-26T11:33:15.999Z</time></trkpt><trkpt lat="43.22842260438588" lon="13.049029464783464"><ele>401.75</ele><time>2026-04-26T11:33:16.999Z</time></trkpt><trkpt lat="43.22844161418388" lon="13.049220933280937"><ele>403.0</ele><time>2026-04-26T11:33:17.999Z</time></trkpt><trkpt lat="43.22846598364747" lon="13.049422286744386"><ele>405.0</ele><time>2026-04-26T11:33:18.999Z</time></trkpt><trkpt lat="43.22849736346914" lon="13.049620970861797"><ele>407.0</ele><time>2026-04-26T11:33:19.999Z</time></trkpt><trkpt lat="43.228536354833054" lon="13.049820183222991"><ele>409.0</ele><time>2026-04-26T11:33:20.999Z</time></trkpt><trkpt lat="43.22857941528405" lon="13.050020370963079"><ele>409.33333333333337</ele><time>2026-04-26T11:33:21.999Z</time></trkpt><trkpt lat="43.228625400585535" lon="13.050225048763"><ele>409.66666666666663</ele><time>2026-04-26T11:33:22.999Z</time></trkpt><trkpt lat="43.228667361390556" lon="13.05043150190779"><ele>410.0</ele><time>2026-04-26T11:33:23.999Z</time></trkpt><trkpt lat="43.22870531240948" lon="13.05064515095461"><ele>410.0</ele><time>2026-04-26T11:33:24.999Z</time></trkpt><trkpt lat="43.22873566422644" lon="13.050850636567668"><ele>410.0</ele><time>2026-04-26T11:33:25.999Z</time></trkpt><trkpt lat="43.22876208470527" lon="13.051052791457021"><ele>410.0</ele><time>2026-04-26T11:33:26.999Z</time></trkpt><trkpt lat="43.228788094971975" lon="13.051247675284385"><ele>410.0</ele><time>2026-04-26T11:33:27.999Z</time></trkpt><trkpt lat="43.22881496647383" lon="13.051429241320163"><ele>410.0</ele><time>2026-04-26T11:33:28.999Z</time></trkpt><trkpt lat="43.22884028991363" lon="13.05159457557552"><ele>410.0</ele><time>2026-04-26T11:33:29.999Z</time></trkpt><trkpt lat="43.228863015568855" lon="13.051732716189214"><ele>410.0</ele><time>2026-04-26T11:33:30.999Z</time></trkpt><trkpt lat="43.22888335968041" lon="13.051856443031772"><ele>410.0</ele><time>2026-04-26T11:33:31.999Z</time></trkpt><trkpt lat="43.2289003938186" lon="13.051967151658044"><ele>410.0</ele><time>2026-04-26T11:33:32.999Z</time></trkpt><trkpt lat="43.228915315136334" lon="13.052069246821862"><ele>409.4</ele><time>2026-04-26T11:33:33.999Z</time></trkpt><trkpt lat="43.22892582810637" lon="13.05215880316749"><ele>408.8</ele><time>2026-04-26T11:33:34.999Z</time></trkpt><trkpt lat="43.228925224088414" lon="13.05228940287103"><ele>408.20000000000005</ele><time>2026-04-26T11:33:36.999Z</time></trkpt><trkpt lat="43.22887209983334" lon="13.052390888231756"><ele>407.6</ele><time>2026-04-26T11:33:38.999Z</time></trkpt><trkpt lat="43.22875451236583" lon="13.052467446936864"><ele>407.0</ele><time>2026-04-26T11:33:40.999Z</time></trkpt><trkpt lat="43.22868397777868" lon="13.052510909681374"><ele>406.20000000000005</ele><time>2026-04-26T11:33:41.999Z</time></trkpt><trkpt lat="43.22860594213106" lon="13.052560495206091"><ele>405.4</ele><time>2026-04-26T11:33:42.999Z</time></trkpt><trkpt lat="43.22851733211648" lon="13.052612364589898"><ele>404.6</ele><time>2026-04-26T11:33:43.999Z</time></trkpt><trkpt lat="43.22841865134646" lon="13.052668185955243"><ele>403.79999999999995</ele><time>2026-04-26T11:33:44.999Z</time></trkpt><trkpt lat="43.22831585926034" lon="13.05272834928472"><ele>403.0</ele><time>2026-04-26T11:33:45.999Z</time></trkpt><trkpt lat="43.22820669605786" lon="13.05279264140133"><ele>403.0</ele><time>2026-04-26T11:33:46.999Z</time></trkpt><trkpt lat="43.22809117993045" lon="13.05286108142084"><ele>403.0</ele><time>2026-04-26T11:33:47.999Z</time></trkpt><trkpt lat="43.22797366546552" lon="13.052934633980659"><ele>403.0</ele><time>2026-04-26T11:33:48.999Z</time></trkpt><trkpt lat="43.227841582770786" lon="13.052991467042885"><ele>403.0</ele><time>2026-04-26T11:33:49.999Z</time></trkpt><trkpt lat="43.227715629677334" lon="13.053072551283034"><ele>403.0</ele><time>2026-04-26T11:33:50.999Z</time></trkpt><trkpt lat="43.22758994633412" lon="13.053157754037233"><ele>403.0</ele><time>2026-04-26T11:33:51.999Z</time></trkpt><trkpt lat="43.22747146230047" lon="13.053269156965808"><ele>403.0</ele><time>2026-04-26T11:33:52.999Z</time></trkpt><trkpt lat="43.22734635020303" lon="13.053365074746967"><ele>403.0</ele><time>2026-04-26T11:33:53.999Z</time></trkpt><trkpt lat="43.22722347049768" lon="13.053464319721048"><ele>402.0</ele><time>2026-04-26T11:33:54.999Z</time></trkpt><trkpt lat="43.22710558508027" lon="13.053570086866822"><ele>401.0</ele><time>2026-04-26T11:33:55.999Z</time></trkpt><trkpt lat="43.226991767512786" lon="13.05367893584911"><ele>400.0</ele><time>2026-04-26T11:33:56.999Z</time></trkpt><trkpt lat="43.22688755432" lon="13.053783656053222"><ele>399.0</ele><time>2026-04-26T11:33:57.999Z</time></trkpt><trkpt lat="43.226794576195495" lon="13.053877816590914"><ele>399.0</ele><time>2026-04-26T11:33:58.999Z</time></trkpt><trkpt lat="43.22671094746118" lon="13.053963609254698"><ele>399.0</ele><time>2026-04-26T11:33:59.999Z</time></trkpt><trkpt lat="43.22662990175771" lon="13.054042808116508"><ele>399.0</ele><time>2026-04-26T11:34:00.999Z</time></trkpt><trkpt lat="43.22654981486484" lon="13.054111350631327"><ele>399.0</ele><time>2026-04-26T11:34:01.999Z</time></trkpt><trkpt lat="43.226467838772344" lon="13.054177827643457"><ele>399.0</ele><time>2026-04-26T11:34:02.999Z</time></trkpt><trkpt lat="43.22637701535759" lon="13.054246068777339"><ele>397.75</ele><time>2026-04-26T11:34:03.999Z</time></trkpt><trkpt lat="43.22627860207396" lon="13.054324574357203"><ele>396.5</ele><time>2026-04-26T11:34:04.999Z</time></trkpt><trkpt lat="43.226180865588724" lon="13.054411216962926"><ele>395.25</ele><time>2026-04-26T11:34:05.999Z</time></trkpt><trkpt lat="43.22607898045899" lon="13.054493628753221"><ele>394.0</ele><time>2026-04-26T11:34:06.999Z</time></trkpt><trkpt lat="43.22597050750305" lon="13.054572539775567"><ele>394.0</ele><time>2026-04-26T11:34:07.999Z</time></trkpt><trkpt lat="43.225859401047096" lon="13.054657389992013"><ele>394.0</ele><time>2026-04-26T11:34:08.998Z</time></trkpt><trkpt lat="43.22575060211187" lon="13.054737502289111"><ele>394.0</ele><time>2026-04-26T11:34:09.998Z</time></trkpt><trkpt lat="43.22563893052954" lon="13.054814779406838"><ele>394.0</ele><time>2026-04-26T11:34:10.998Z</time></trkpt><trkpt lat="43.225530859684696" lon="13.054898109471596"><ele>394.0</ele><time>2026-04-26T11:34:11.998Z</time></trkpt><trkpt lat="43.225424950299235" lon="13.054980280705486"><ele>394.0</ele><time>2026-04-26T11:34:12.998Z</time></trkpt><trkpt lat="43.22531610307698" lon="13.055061340440275"><ele>394.0</ele><time>2026-04-26T11:34:14Z</time></trkpt><trkpt lat="43.22520811515806" lon="13.055129843989082"><ele>394.0</ele><time>2026-04-26T11:34:15Z</time></trkpt><trkpt lat="43.225107343077845" lon="13.055193667713299"><ele>394.0</ele><time>2026-04-26T11:34:16Z</time></trkpt><trkpt lat="43.22501883197018" lon="13.05526742785183"><ele>394.0</ele><time>2026-04-26T11:34:17Z</time></trkpt><trkpt lat="43.22493936004996" lon="13.055351766928005"><ele>394.0</ele><time>2026-04-26T11:34:18Z</time></trkpt><trkpt lat="43.224870217416395" lon="13.055440030652589"><ele>394.0</ele><time>2026-04-26T11:34:19Z</time></trkpt><trkpt lat="43.2248049571814" lon="13.055535711591562"><ele>394.0</ele><time>2026-04-26T11:34:20Z</time></trkpt><trkpt lat="43.2247347987891" lon="13.055635100120107"><ele>392.25</ele><time>2026-04-26T11:34:21Z</time></trkpt><trkpt lat="43.22465592175503" lon="13.05574291206396"><ele>390.5</ele><time>2026-04-26T11:34:22Z</time></trkpt><trkpt lat="43.22456742594364" lon="13.055861603866877"><ele>388.75</ele><time>2026-04-26T11:34:23Z</time></trkpt><trkpt lat="43.224475296873834" lon="13.05598036063047"><ele>387.0</ele><time>2026-04-26T11:34:24Z</time></trkpt><trkpt lat="43.224382581878984" lon="13.056098621785024"><ele>387.0</ele><time>2026-04-26T11:34:25Z</time></trkpt><trkpt lat="43.224293747407174" lon="13.056218269025083"><ele>387.0</ele><time>2026-04-26T11:34:26Z</time></trkpt><trkpt lat="43.224207962695836" lon="13.056331196582182"><ele>387.0</ele><time>2026-04-26T11:34:27Z</time></trkpt><trkpt lat="43.22412577257526" lon="13.056440907724662"><ele>387.0</ele><time>2026-04-26T11:34:28Z</time></trkpt><trkpt lat="43.2240467539538" lon="13.056544850437408"><ele>385.8</ele><time>2026-04-26T11:34:29Z</time></trkpt><trkpt lat="43.22396796421663" lon="13.056641488111987"><ele>384.6</ele><time>2026-04-26T11:34:30Z</time></trkpt><trkpt lat="43.22389011652853" lon="13.056735889055009"><ele>383.40000000000003</ele><time>2026-04-26T11:34:31Z</time></trkpt><trkpt lat="43.22381192230387" lon="13.056830280160634"><ele>382.20000000000005</ele><time>2026-04-26T11:34:32Z</time></trkpt><trkpt lat="43.223733604698" lon="13.056930200125722"><ele>381.0</ele><time>2026-04-26T11:34:33Z</time></trkpt><trkpt lat="43.2236545165394" lon="13.057035223042213"><ele>381.0</ele><time>2026-04-26T11:34:34Z</time></trkpt><trkpt lat="43.22357482387823" lon="13.05714349480512"><ele>381.0</ele><time>2026-04-26T11:34:35Z</time></trkpt><trkpt lat="43.22349453082214" lon="13.05724827416577"><ele>381.0</ele><time>2026-04-26T11:34:36Z</time></trkpt><trkpt lat="43.22341392131876" lon="13.05735031203606"><ele>381.0</ele><time>2026-04-26T11:34:37Z</time></trkpt><trkpt lat="43.22333312353377" lon="13.057444523108382"><ele>381.0</ele><time>2026-04-26T11:34:38Z</time></trkpt><trkpt lat="43.223251214085046" lon="13.057534106999572"><ele>379.6</ele><time>2026-04-26T11:34:39Z</time></trkpt><trkpt lat="43.22317041709981" lon="13.057610497534002"><ele>378.20000000000005</ele><time>2026-04-26T11:34:40Z</time></trkpt><trkpt lat="43.22308380086927" lon="13.057672492871493"><ele>376.79999999999995</ele><time>2026-04-26T11:34:41Z</time></trkpt><trkpt lat="43.22300122081059" lon="13.057724317659169"><ele>375.4</ele><time>2026-04-26T11:34:42Z</time></trkpt><trkpt lat="43.22291911858945" lon="13.057779572674898"><ele>374.0</ele><time>2026-04-26T11:34:43Z</time></trkpt><trkpt lat="43.222834237886154" lon="13.057839843366482"><ele>374.0</ele><time>2026-04-26T11:34:44Z</time></trkpt><trkpt lat="43.222734626485384" lon="13.05790883149099"><ele>374.0</ele><time>2026-04-26T11:34:45Z</time></trkpt><trkpt lat="43.22262399458071" lon="13.05797350770617"><ele>374.0</ele><time>2026-04-26T11:34:46Z</time></trkpt><trkpt lat="43.22250293944005" lon="13.058042348603074"><ele>374.0</ele><time>2026-04-26T11:34:47Z</time></trkpt><trkpt lat="43.22238603678272" lon="13.058108155735848"><ele>371.25</ele><time>2026-04-26T11:34:48Z</time></trkpt><trkpt lat="43.22227120221671" lon="13.058172319660619"><ele>368.5</ele><time>2026-04-26T11:34:49Z</time></trkpt><trkpt lat="43.22215809993088" lon="13.058234749268799"><ele>365.75</ele><time>2026-04-26T11:34:50Z</time></trkpt><trkpt lat="43.22204499584247" lon="13.058296970713391"><ele>363.0</ele><time>2026-04-26T11:34:51Z</time></trkpt><trkpt lat="43.22193621346933" lon="13.058357993260994"><ele>362.5</ele><time>2026-04-26T11:34:52Z</time></trkpt><trkpt lat="43.221841503972605" lon="13.058409620313425"><ele>362.0</ele><time>2026-04-26T11:34:53Z</time></trkpt><trkpt lat="43.22176647470953" lon="13.058448908916747"><ele>361.5</ele><time>2026-04-26T11:34:54Z</time></trkpt><trkpt lat="43.22170351974349" lon="13.058483505111372"><ele>361.0</ele><time>2026-04-26T11:34:56Z</time></trkpt><trkpt lat="43.22169162270192" lon="13.05861022973051"><ele>360.5</ele><time>2026-04-26T11:35:00Z</time></trkpt><trkpt lat="43.221715155369736" lon="13.058695489138632"><ele>360.0</ele><time>2026-04-26T11:35:01Z</time></trkpt><trkpt lat="43.22174606058603" lon="13.058781836294873"><ele>360.0</ele><time>2026-04-26T11:35:02Z</time></trkpt><trkpt lat="43.2217811543334" lon="13.058877648566153"><ele>360.0</ele><time>2026-04-26T11:35:03Z</time></trkpt><trkpt lat="43.221814018388415" lon="13.058980107512026"><ele>360.0</ele><time>2026-04-26T11:35:04Z</time></trkpt><trkpt lat="43.22184523486092" lon="13.059075999656047"><ele>360.0</ele><time>2026-04-26T11:35:04.999Z</time></trkpt><trkpt lat="43.22187803630344" lon="13.059173660076915"><ele>360.0</ele><time>2026-04-26T11:35:05.999Z</time></trkpt><trkpt lat="43.22190995278986" lon="13.059271950275841"><ele>360.0</ele><time>2026-04-26T11:35:06.999Z</time></trkpt><trkpt lat="43.22194221669923" lon="13.059366940677815"><ele>358.8333333333333</ele><time>2026-04-26T11:35:07.999Z</time></trkpt><trkpt lat="43.22197533998015" lon="13.059458722254742"><ele>357.6666666666667</ele><time>2026-04-26T11:35:08.999Z</time></trkpt><trkpt lat="43.22200519063643" lon="13.059549930879925"><ele>356.5</ele><time>2026-04-26T11:35:09.999Z</time></trkpt><trkpt lat="43.222034424078366" lon="13.05964290209232"><ele>355.33333333333337</ele><time>2026-04-26T11:35:10.999Z</time></trkpt><trkpt lat="43.22205781922742" lon="13.059735504337354"><ele>354.1666666666667</ele><time>2026-04-26T11:35:11.999Z</time></trkpt><trkpt lat="43.22206190257291" lon="13.05982264476704"><ele>353.0</ele><time>2026-04-26T11:35:12.999Z</time></trkpt><trkpt lat="43.22201976976254" lon="13.059990413818117"><ele>351.79999999999995</ele><time>2026-04-26T11:35:14.999Z</time></trkpt><trkpt lat="43.22197186095209" lon="13.060075741563665"><ele>350.6</ele><time>2026-04-26T11:35:15.999Z</time></trkpt><trkpt lat="43.221907862796435" lon="13.060172329579798"><ele>349.4</ele><time>2026-04-26T11:35:16.999Z</time></trkpt><trkpt lat="43.22183904996016" lon="13.060278707834996"><ele>348.20000000000005</ele><time>2026-04-26T11:35:17.999Z</time></trkpt><trkpt lat="43.22176557098631" lon="13.060400682058386"><ele>347.0</ele><time>2026-04-26T11:35:18.999Z</time></trkpt><trkpt lat="43.22169986611674" lon="13.060524092491796"><ele>347.0</ele><time>2026-04-26T11:35:19.999Z</time></trkpt><trkpt lat="43.221637420129" lon="13.060641213469598"><ele>347.0</ele><time>2026-04-26T11:35:20.999Z</time></trkpt><trkpt lat="43.22157114889214" lon="13.06075199902808"><ele>347.0</ele><time>2026-04-26T11:35:21.999Z</time></trkpt><trkpt lat="43.22151323287886" lon="13.06086068921973"><ele>347.0</ele><time>2026-04-26T11:35:22.999Z</time></trkpt><trkpt lat="43.221468086646084" lon="13.060972622643202"><ele>347.0</ele><time>2026-04-26T11:35:23.999Z</time></trkpt><trkpt lat="43.221424691503714" lon="13.06108550564665"><ele>346.8</ele><time>2026-04-26T11:35:24.999Z</time></trkpt><trkpt lat="43.22138321717871" lon="13.061199083509452"><ele>346.6</ele><time>2026-04-26T11:35:25.999Z</time></trkpt><trkpt lat="43.22134690004143" lon="13.06131181753141"><ele>346.40000000000003</ele><time>2026-04-26T11:35:26.999Z</time></trkpt><trkpt lat="43.22130749977769" lon="13.061426180734374"><ele>346.20000000000005</ele><time>2026-04-26T11:35:27.999Z</time></trkpt><trkpt lat="43.221265485651394" lon="13.061540817924726"><ele>346.0</ele><time>2026-04-26T11:35:28.999Z</time></trkpt><trkpt lat="43.221223439101024" lon="13.061656310196266"><ele>345.4</ele><time>2026-04-26T11:35:29.999Z</time></trkpt><trkpt lat="43.22118421152399" lon="13.061775026584533"><ele>344.8</ele><time>2026-04-26T11:35:30.999Z</time></trkpt><trkpt lat="43.22114609815075" lon="13.061893818609272"><ele>344.2</ele><time>2026-04-26T11:35:31.999Z</time></trkpt><trkpt lat="43.22111535492318" lon="13.06201307050331"><ele>343.59999999999997</ele><time>2026-04-26T11:35:32.999Z</time></trkpt><trkpt lat="43.221084980257665" lon="13.062133231847534"><ele>343.0</ele><time>2026-04-26T11:35:33.999Z</time></trkpt><trkpt lat="43.221054722427304" lon="13.062252966338347"><ele>343.0</ele><time>2026-04-26T11:35:34.999Z</time></trkpt><trkpt lat="43.22102735012893" lon="13.062383476805895"><ele>343.0</ele><time>2026-04-26T11:35:35.999Z</time></trkpt><trkpt lat="43.22098911978799" lon="13.06251274916418"><ele>343.0</ele><time>2026-04-26T11:35:36.999Z</time></trkpt><trkpt lat="43.22096636137383" lon="13.062635214836263"><ele>343.0</ele><time>2026-04-26T11:35:37.999Z</time></trkpt><trkpt lat="43.22094105239969" lon="13.06275561109182"><ele>343.0</ele><time>2026-04-26T11:35:38.999Z</time></trkpt><trkpt lat="43.22092304228281" lon="13.062864394217465"><ele>342.2857142857143</ele><time>2026-04-26T11:35:39.999Z</time></trkpt><trkpt lat="43.22090493261401" lon="13.062956443413633"><ele>341.57142857142856</ele><time>2026-04-26T11:35:40.999Z</time></trkpt><trkpt lat="43.22088768592108" lon="13.063041520776178"><ele>340.8571428571429</ele><time>2026-04-26T11:35:41.999Z</time></trkpt><trkpt lat="43.22086304344516" lon="13.063129592206252"><ele>340.1428571428571</ele><time>2026-04-26T11:35:42.999Z</time></trkpt><trkpt lat="43.220835113189274" lon="13.063221076442431"><ele>339.42857142857144</ele><time>2026-04-26T11:35:43.999Z</time></trkpt><trkpt lat="43.22081891728765" lon="13.06330974082244"><ele>338.7142857142857</ele><time>2026-04-26T11:35:44.999Z</time></trkpt><trkpt lat="43.220810702949464" lon="13.063395656837777"><ele>338.0</ele><time>2026-04-26T11:35:45.999Z</time></trkpt><trkpt lat="43.22079183439378" lon="13.063582788437566"><ele>336.0</ele><time>2026-04-26T11:35:47.999Z</time></trkpt><trkpt lat="43.22076783571666" lon="13.063683703907431"><ele>334.0</ele><time>2026-04-26T11:35:48.999Z</time></trkpt><trkpt lat="43.220743428292444" lon="13.063780455639451"><ele>332.0</ele><time>2026-04-26T11:35:49.999Z</time></trkpt><trkpt lat="43.220718267822285" lon="13.063878438951885"><ele>330.0</ele><time>2026-04-26T11:35:50.999Z</time></trkpt><trkpt lat="43.22068676134011" lon="13.06397630180492"><ele>328.0</ele><time>2026-04-26T11:35:51.999Z</time></trkpt><trkpt lat="43.220653449376805" lon="13.064074557840275"><ele>326.0</ele><time>2026-04-26T11:35:52.999Z</time></trkpt><trkpt lat="43.2206079960314" lon="13.064182514790275"><ele>324.33333333333337</ele><time>2026-04-26T11:35:53.999Z</time></trkpt><trkpt lat="43.22055717552293" lon="13.064284755308805"><ele>322.6666666666667</ele><time>2026-04-26T11:35:54.999Z</time></trkpt><trkpt lat="43.2205126304431" lon="13.06439116101533"><ele>321.0</ele><time>2026-04-26T11:35:55.999Z</time></trkpt><trkpt lat="43.220470867017106" lon="13.064495753493555"><ele>319.3333333333333</ele><time>2026-04-26T11:35:56.999Z</time></trkpt><trkpt lat="43.220430117020165" lon="13.064603892255791"><ele>317.66666666666663</ele><time>2026-04-26T11:35:57.999Z</time></trkpt><trkpt lat="43.22038716125739" lon="13.0647127276036"><ele>316.0</ele><time>2026-04-26T11:35:58.999Z</time></trkpt><trkpt lat="43.22034997837743" lon="13.064823318698208"><ele>316.0</ele><time>2026-04-26T11:35:59.999Z</time></trkpt><trkpt lat="43.220323970705486" lon="13.064936719476323"><ele>316.0</ele><time>2026-04-26T11:36:00.999Z</time></trkpt><trkpt lat="43.220306240232695" lon="13.065057914971602"><ele>316.0</ele><time>2026-04-26T11:36:01.999Z</time></trkpt><trkpt lat="43.22029043792416" lon="13.065187161700766"><ele>316.0</ele><time>2026-04-26T11:36:02.999Z</time></trkpt><trkpt lat="43.22026952827005" lon="13.065312075987116"><ele>316.0</ele><time>2026-04-26T11:36:03.999Z</time></trkpt><trkpt lat="43.220245521165914" lon="13.065431803501939"><ele>314.16666666666663</ele><time>2026-04-26T11:36:04.999Z</time></trkpt><trkpt lat="43.22022115968279" lon="13.065546826123178"><ele>312.3333333333333</ele><time>2026-04-26T11:36:05.999Z</time></trkpt><trkpt lat="43.22020033101742" lon="13.06565844853423"><ele>310.5</ele><time>2026-04-26T11:36:06.999Z</time></trkpt><trkpt lat="43.22018350488852" lon="13.065761972913167"><ele>308.6666666666667</ele><time>2026-04-26T11:36:07.998Z</time></trkpt><trkpt lat="43.22016913501578" lon="13.065867268361206"><ele>306.83333333333337</ele><time>2026-04-26T11:36:08.998Z</time></trkpt><trkpt lat="43.22015667393613" lon="13.065963909510529"><ele>305.0</ele><time>2026-04-26T11:36:09.998Z</time></trkpt><trkpt lat="43.22015825570072" lon="13.066104836713563"><ele>303.83333333333337</ele><time>2026-04-26T11:36:11.998Z</time></trkpt><trkpt lat="43.22020340119426" lon="13.066208087783842"><ele>302.6666666666667</ele><time>2026-04-26T11:36:13.998Z</time></trkpt><trkpt lat="43.22026208821472" lon="13.066305120257969"><ele>301.5</ele><time>2026-04-26T11:36:15.998Z</time></trkpt><trkpt lat="43.22029263670626" lon="13.066429707985169"><ele>300.3333333333333</ele><time>2026-04-26T11:36:17.998Z</time></trkpt><trkpt lat="43.22026512029389" lon="13.066510170642811"><ele>299.16666666666663</ele><time>2026-04-26T11:36:20Z</time></trkpt><trkpt lat="43.22018788022478" lon="13.06657208818151"><ele>298.0</ele><time>2026-04-26T11:36:23Z</time></trkpt><trkpt lat="43.22011475457603" lon="13.066602673966695"><ele>297.6</ele><time>2026-04-26T11:36:24Z</time></trkpt><trkpt lat="43.22005297472545" lon="13.066690787982516"><ele>297.20000000000005</ele><time>2026-04-26T11:36:26Z</time></trkpt><trkpt lat="43.219981950288364" lon="13.066791007759212"><ele>296.8</ele><time>2026-04-26T11:36:28Z</time></trkpt><trkpt lat="43.219960818805234" lon="13.066923076874334"><ele>296.40000000000003</ele><time>2026-04-26T11:36:30Z</time></trkpt><trkpt lat="43.21990668872506" lon="13.067023453487584"><ele>296.0</ele><time>2026-04-26T11:36:32Z</time></trkpt><trkpt lat="43.219872901756915" lon="13.067122486544468"><ele>296.0</ele><time>2026-04-26T11:36:33Z</time></trkpt><trkpt lat="43.219830989621855" lon="13.067272928866146"><ele>296.0</ele><time>2026-04-26T11:36:35Z</time></trkpt><trkpt lat="43.219794505644636" lon="13.06735333679656"><ele>296.0</ele><time>2026-04-26T11:36:36Z</time></trkpt><trkpt lat="43.21976253692157" lon="13.067430283077517"><ele>296.0</ele><time>2026-04-26T11:36:37Z</time></trkpt><trkpt lat="43.219722433339534" lon="13.067505858480192"><ele>296.0</ele><time>2026-04-26T11:36:38Z</time></trkpt><trkpt lat="43.21968765680033" lon="13.067578883128627"><ele>296.0</ele><time>2026-04-26T11:36:39Z</time></trkpt><trkpt lat="43.21962840597754" lon="13.067699127489915"><ele>295.1666666666667</ele><time>2026-04-26T11:36:41Z</time></trkpt><trkpt lat="43.2195630990763" lon="13.067777483489682"><ele>294.33333333333337</ele><time>2026-04-26T11:36:46Z</time></trkpt><trkpt lat="43.2195374445733" lon="13.067915149616546"><ele>293.5</ele><time>2026-04-26T11:36:48Z</time></trkpt><trkpt lat="43.21945662689374" lon="13.067952673396181"><ele>292.6666666666667</ele><time>2026-04-26T11:36:49Z</time></trkpt><trkpt lat="43.21940605318302" lon="13.068004292950908"><ele>291.8333333333333</ele><time>2026-04-26T11:36:50Z</time></trkpt><trkpt lat="43.21932412688174" lon="13.06806120831716"><ele>291.0</ele><time>2026-04-26T11:36:52Z</time></trkpt><trkpt lat="43.2192618432277" lon="13.06809567377097"><ele>291.0</ele><time>2026-04-26T11:37:17.999Z</time></trkpt><trkpt lat="43.21918662726672" lon="13.068133797785288"><ele>291.0</ele><time>2026-04-26T11:37:19.999Z</time></trkpt><trkpt lat="43.21914759824887" lon="13.06831218166653"><ele>291.0</ele><time>2026-04-26T11:37:21.999Z</time></trkpt><trkpt lat="43.219148745573634" lon="13.068400418206316"><ele>291.0</ele><time>2026-04-26T11:37:22.999Z</time></trkpt><trkpt lat="43.21915058170742" lon="13.0685120661701"><ele>291.0</ele><time>2026-04-26T11:37:23.999Z</time></trkpt><trkpt lat="43.21914545415168" lon="13.068635258548744"><ele>290.75</ele><time>2026-04-26T11:37:24.999Z</time></trkpt><trkpt lat="43.21913200913268" lon="13.06877231534011"><ele>290.5</ele><time>2026-04-26T11:37:25.999Z</time></trkpt><trkpt lat="43.21910927826351" lon="13.068931201416646"><ele>290.25</ele><time>2026-04-26T11:37:26.999Z</time></trkpt><trkpt lat="43.21909160053686" lon="13.069095691320591"><ele>290.0</ele><time>2026-04-26T11:37:27.999Z</time></trkpt><trkpt lat="43.21908011010883" lon="13.069274071396258"><ele>290.0</ele><time>2026-04-26T11:37:28.999Z</time></trkpt><trkpt lat="43.21907280787011" lon="13.069458866225462"><ele>290.0</ele><time>2026-04-26T11:37:29.999Z</time></trkpt><trkpt lat="43.219069029786226" lon="13.069653937789504"><ele>290.0</ele><time>2026-04-26T11:37:30.999Z</time></trkpt><trkpt lat="43.219068350320406" lon="13.069861100451915"><ele>290.0</ele><time>2026-04-26T11:37:31.999Z</time></trkpt><trkpt lat="43.21906895288935" lon="13.070072395264805"><ele>290.0</ele><time>2026-04-26T11:37:32.999Z</time></trkpt><trkpt lat="43.21907268866801" lon="13.07028553448079"><ele>290.0</ele><time>2026-04-26T11:37:33.999Z</time></trkpt><trkpt lat="43.219080766178394" lon="13.070506691839745"><ele>290.0</ele><time>2026-04-26T11:37:34.999Z</time></trkpt><trkpt lat="43.21909007435226" lon="13.07073618359653"><ele>289.6666666666667</ele><time>2026-04-26T11:37:35.999Z</time></trkpt><trkpt lat="43.21909649003773" lon="13.070973198352458"><ele>289.3333333333333</ele><time>2026-04-26T11:37:36.999Z</time></trkpt><trkpt lat="43.219097111355836" lon="13.071216750143988"><ele>289.0</ele><time>2026-04-26T11:37:37.999Z</time></trkpt><trkpt lat="43.219094294102774" lon="13.071455682645304"><ele>289.0</ele><time>2026-04-26T11:37:38.999Z</time></trkpt><trkpt lat="43.21909280279686" lon="13.071694739326391"><ele>289.0</ele><time>2026-04-26T11:37:39.999Z</time></trkpt><trkpt lat="43.21909496827049" lon="13.07191666052182"><ele>289.0</ele><time>2026-04-26T11:37:40.999Z</time></trkpt><trkpt lat="43.21909905792361" lon="13.07213396129353"><ele>289.0</ele><time>2026-04-26T11:37:41.999Z</time></trkpt><trkpt lat="43.21910086933008" lon="13.072359821044783"><ele>289.0</ele><time>2026-04-26T11:37:42.999Z</time></trkpt><trkpt lat="43.21910683201833" lon="13.072570932885819"><ele>289.0</ele><time>2026-04-26T11:37:43.999Z</time></trkpt><trkpt lat="43.21911415625899" lon="13.072955102397925"><ele>289.0</ele><time>2026-04-26T11:37:44.999Z</time></trkpt><trkpt lat="43.21914384383176" lon="13.07319860503339"><ele>289.0</ele><time>2026-04-26T11:37:45.999Z</time></trkpt><trkpt lat="43.21918137833252" lon="13.073435561650996"><ele>289.0</ele><time>2026-04-26T11:37:46.999Z</time></trkpt><trkpt lat="43.21922074617291" lon="13.073672409574872"><ele>289.0</ele><time>2026-04-26T11:37:47.999Z</time></trkpt><trkpt lat="43.21926331780748" lon="13.073902764673516"><ele>289.0</ele><time>2026-04-26T11:37:48.999Z</time></trkpt><trkpt lat="43.21931449442104" lon="13.07413526327267"><ele>289.0</ele><time>2026-04-26T11:37:49.999Z</time></trkpt><trkpt lat="43.21936564113935" lon="13.07436628092566"><ele>288.3333333333333</ele><time>2026-04-26T11:37:50.999Z</time></trkpt><trkpt lat="43.219416412614166" lon="13.074596119711925"><ele>287.6666666666667</ele><time>2026-04-26T11:37:51.999Z</time></trkpt><trkpt lat="43.21946214231833" lon="13.074824364946839"><ele>287.0</ele><time>2026-04-26T11:37:52.999Z</time></trkpt><trkpt lat="43.21950683733835" lon="13.075048071315825"><ele>287.0</ele><time>2026-04-26T11:37:53.999Z</time></trkpt><trkpt lat="43.21955148963743" lon="13.075276424100524"><ele>287.0</ele><time>2026-04-26T11:37:54.999Z</time></trkpt><trkpt lat="43.21959636775903" lon="13.075502454281404"><ele>287.0</ele><time>2026-04-26T11:37:55.999Z</time></trkpt><trkpt lat="43.21965010033417" lon="13.075731445178178"><ele>286.33333333333337</ele><time>2026-04-26T11:37:56.999Z</time></trkpt><trkpt lat="43.21970315303122" lon="13.075959971074589"><ele>285.6666666666667</ele><time>2026-04-26T11:37:57.999Z</time></trkpt><trkpt lat="43.21974179045563" lon="13.07618907246227"><ele>285.0</ele><time>2026-04-26T11:37:58.999Z</time></trkpt><trkpt lat="43.21978557185905" lon="13.076426545754313"><ele>287.0</ele><time>2026-04-26T11:37:59.999Z</time></trkpt><trkpt lat="43.219836052078584" lon="13.076663581348427"><ele>289.0</ele><time>2026-04-26T11:38:00.999Z</time></trkpt><trkpt lat="43.21988961060597" lon="13.076910141917757"><ele>291.0</ele><time>2026-04-26T11:38:01.999Z</time></trkpt><trkpt lat="43.219940810733206" lon="13.07716083632802"><ele>291.0</ele><time>2026-04-26T11:38:02.999Z</time></trkpt><trkpt lat="43.21998445844214" lon="13.077416537067645"><ele>291.0</ele><time>2026-04-26T11:38:03.999Z</time></trkpt><trkpt lat="43.220022077409546" lon="13.077678842351219"><ele>291.0</ele><time>2026-04-26T11:38:04.998Z</time></trkpt><trkpt lat="43.220052665440754" lon="13.077946204799202"><ele>290.6666666666667</ele><time>2026-04-26T11:38:05.998Z</time></trkpt><trkpt lat="43.22009250443232" lon="13.07821629237977"><ele>290.33333333333337</ele><time>2026-04-26T11:38:06.998Z</time></trkpt><trkpt lat="43.22014555019839" lon="13.07848281310809"><ele>290.0</ele><time>2026-04-26T11:38:07.998Z</time></trkpt><trkpt lat="43.22020760232515" lon="13.078750999932474"><ele>289.0</ele><time>2026-04-26T11:38:08.998Z</time></trkpt><trkpt lat="43.22026656452794" lon="13.07902216278756"><ele>288.0</ele><time>2026-04-26T11:38:09.998Z</time></trkpt><trkpt lat="43.2203259035568" lon="13.079277435343668"><ele>287.0</ele><time>2026-04-26T11:38:10.998Z</time></trkpt><trkpt lat="43.22037803226589" lon="13.079524659367095"><ele>286.0</ele><time>2026-04-26T11:38:11.998Z</time></trkpt><trkpt lat="43.2204137368244" lon="13.079772747804505"><ele>285.0</ele><time>2026-04-26T11:38:12.998Z</time></trkpt><trkpt lat="43.220438093590786" lon="13.080018719706754"><ele>284.0</ele><time>2026-04-26T11:38:13.998Z</time></trkpt><trkpt lat="43.220452743915295" lon="13.080263958906247"><ele>283.0</ele><time>2026-04-26T11:38:14.998Z</time></trkpt><trkpt lat="43.220468528934596" lon="13.080514751155752"><ele>282.0</ele><time>2026-04-26T11:38:15.998Z</time></trkpt><trkpt lat="43.22049036256777" lon="13.080769455836602"><ele>281.0</ele><time>2026-04-26T11:38:16.998Z</time></trkpt><trkpt lat="43.22051841652726" lon="13.081023062401995"><ele>279.6666666666667</ele><time>2026-04-26T11:38:17.998Z</time></trkpt><trkpt lat="43.220550788987374" lon="13.081276947630172"><ele>278.3333333333333</ele><time>2026-04-26T11:38:18.998Z</time></trkpt><trkpt lat="43.220589474324065" lon="13.08153496751761"><ele>277.0</ele><time>2026-04-26T11:38:19.998Z</time></trkpt><trkpt lat="43.22063068226932" lon="13.081797789367078"><ele>277.66666666666663</ele><time>2026-04-26T11:38:20.998Z</time></trkpt><trkpt lat="43.22067313311196" lon="13.08206835384954"><ele>278.3333333333333</ele><time>2026-04-26T11:38:21.998Z</time></trkpt><trkpt lat="43.2207099613854" lon="13.08234440202719"><ele>279.0</ele><time>2026-04-26T11:38:22.998Z</time></trkpt><trkpt lat="43.22074084658858" lon="13.082621788568247"><ele>277.6666666666667</ele><time>2026-04-26T11:38:24Z</time></trkpt><trkpt lat="43.22076904499024" lon="13.082900914837499"><ele>276.33333333333337</ele><time>2026-04-26T11:38:25Z</time></trkpt><trkpt lat="43.2207929542304" lon="13.083177975553458"><ele>275.0</ele><time>2026-04-26T11:38:26Z</time></trkpt><trkpt lat="43.220818513036214" lon="13.083456590193414"><ele>275.0</ele><time>2026-04-26T11:38:27Z</time></trkpt><trkpt lat="43.22084425042242" lon="13.083733753069357"><ele>275.0</ele><time>2026-04-26T11:38:28Z</time></trkpt><trkpt lat="43.22087065401909" lon="13.084010767463118"><ele>275.0</ele><time>2026-04-26T11:38:29Z</time></trkpt><trkpt lat="43.22089530400328" lon="13.084285163689215"><ele>275.0</ele><time>2026-04-26T11:38:30Z</time></trkpt><trkpt lat="43.22091912621482" lon="13.084558309264663"><ele>275.0</ele><time>2026-04-26T11:38:31Z</time></trkpt><trkpt lat="43.22094646543914" lon="13.084831845636128"><ele>275.0</ele><time>2026-04-26T11:38:32Z</time></trkpt><trkpt lat="43.220972026465866" lon="13.085102060048971"><ele>275.0</ele><time>2026-04-26T11:38:33Z</time></trkpt><trkpt lat="43.22099551451801" lon="13.085373169299446"><ele>275.0</ele><time>2026-04-26T11:38:34Z</time></trkpt><trkpt lat="43.22101959382438" lon="13.085644167479744"><ele>275.0</ele><time>2026-04-26T11:38:35Z</time></trkpt><trkpt lat="43.221043810385204" lon="13.085915868321573"><ele>275.0</ele><time>2026-04-26T11:38:36Z</time></trkpt><trkpt lat="43.22106849390348" lon="13.086182797067357"><ele>275.0</ele><time>2026-04-26T11:38:37Z</time></trkpt><trkpt lat="43.221095648523395" lon="13.086451811189265"><ele>275.0</ele><time>2026-04-26T11:38:38Z</time></trkpt><trkpt lat="43.22112804017719" lon="13.08671841582124"><ele>274.6666666666667</ele><time>2026-04-26T11:38:39Z</time></trkpt><trkpt lat="43.22116058024374" lon="13.086985470868617"><ele>274.3333333333333</ele><time>2026-04-26T11:38:40Z</time></trkpt><trkpt lat="43.22119169396527" lon="13.087242844433108"><ele>274.0</ele><time>2026-04-26T11:38:41Z</time></trkpt><trkpt lat="43.22121292879954" lon="13.087483123441112"><ele>274.0</ele><time>2026-04-26T11:38:42Z</time></trkpt><trkpt lat="43.2212199998891" lon="13.087714378756013"><ele>274.0</ele><time>2026-04-26T11:38:43Z</time></trkpt><trkpt lat="43.22121361818433" lon="13.087940711709912"><ele>274.0</ele><time>2026-04-26T11:38:44Z</time></trkpt><trkpt lat="43.22118297659905" lon="13.08814601464971"><ele>274.75</ele><time>2026-04-26T11:38:45Z</time></trkpt><trkpt lat="43.22111708424529" lon="13.088322455463125"><ele>275.5</ele><time>2026-04-26T11:38:46Z</time></trkpt><trkpt lat="43.22103318503817" lon="13.08846828749536"><ele>276.25</ele><time>2026-04-26T11:38:47Z</time></trkpt><trkpt lat="43.22093262865135" lon="13.088593296933658"><ele>277.0</ele><time>2026-04-26T11:38:48Z</time></trkpt><trkpt lat="43.22082338581304" lon="13.088699554669121"><ele>277.0</ele><time>2026-04-26T11:38:49Z</time></trkpt><trkpt lat="43.22070875080233" lon="13.088794042492905"><ele>277.0</ele><time>2026-04-26T11:38:50Z</time></trkpt><trkpt lat="43.22059137111263" lon="13.088896209909965"><ele>277.0</ele><time>2026-04-26T11:38:51Z</time></trkpt><trkpt lat="43.2204777740033" lon="13.089026747300885"><ele>277.0</ele><time>2026-04-26T11:38:52Z</time></trkpt><trkpt lat="43.22037620528044" lon="13.089195584557725"><ele>276.0</ele><time>2026-04-26T11:38:53Z</time></trkpt><trkpt lat="43.22029869249841" lon="13.089409889715462"><ele>275.0</ele><time>2026-04-26T11:38:54Z</time></trkpt><trkpt lat="43.22025063707644" lon="13.089650183309754"><ele>274.0</ele><time>2026-04-26T11:38:55Z</time></trkpt><trkpt lat="43.220241258353504" lon="13.089899210683358"><ele>274.0</ele><time>2026-04-26T11:38:56Z</time></trkpt><trkpt lat="43.220275925183216" lon="13.0901581785243"><ele>274.0</ele><time>2026-04-26T11:38:57Z</time></trkpt><trkpt lat="43.22031408005918" lon="13.090418633597913"><ele>274.0</ele><time>2026-04-26T11:38:58Z</time></trkpt><trkpt lat="43.2203585614679" lon="13.090680479290151"><ele>273.66666666666663</ele><time>2026-04-26T11:38:59Z</time></trkpt><trkpt lat="43.220410616680674" lon="13.0909446397463"><ele>273.3333333333333</ele><time>2026-04-26T11:38:59.999Z</time></trkpt><trkpt lat="43.22047094673594" lon="13.091211917375738"><ele>273.0</ele><time>2026-04-26T11:39:00.999Z</time></trkpt><trkpt lat="43.220528877787864" lon="13.091484902166151"><ele>271.3333333333333</ele><time>2026-04-26T11:39:01.999Z</time></trkpt><trkpt lat="43.220587224083644" lon="13.091757995674572"><ele>269.66666666666663</ele><time>2026-04-26T11:39:02.999Z</time></trkpt><trkpt lat="43.22064632657135" lon="13.092024535965832"><ele>268.0</ele><time>2026-04-26T11:39:03.999Z</time></trkpt><trkpt lat="43.22070403246659" lon="13.092289168226271"><ele>272.0</ele><time>2026-04-26T11:39:04.999Z</time></trkpt><trkpt lat="43.220752624481946" lon="13.09255795638996"><ele>276.0</ele><time>2026-04-26T11:39:05.999Z</time></trkpt><trkpt lat="43.22078091779069" lon="13.092833309376433"><ele>280.0</ele><time>2026-04-26T11:39:06.999Z</time></trkpt><trkpt lat="43.22079315439542" lon="13.093113226877778"><ele>279.3333333333333</ele><time>2026-04-26T11:39:07.999Z</time></trkpt><trkpt lat="43.220802280288986" lon="13.093394884353554"><ele>278.6666666666667</ele><time>2026-04-26T11:39:08.999Z</time></trkpt><trkpt lat="43.22081518557191" lon="13.093678307316239"><ele>278.0</ele><time>2026-04-26T11:39:09.999Z</time></trkpt><trkpt lat="43.22083396349715" lon="13.09396315205143"><ele>277.33333333333337</ele><time>2026-04-26T11:39:10.999Z</time></trkpt><trkpt lat="43.22085578009331" lon="13.094249829335707"><ele>276.6666666666667</ele><time>2026-04-26T11:39:11.999Z</time></trkpt><trkpt lat="43.22088080918714" lon="13.094536094757824"><ele>276.0</ele><time>2026-04-26T11:39:12.999Z</time></trkpt><trkpt lat="43.22091005612403" lon="13.094818914413521"><ele>276.0</ele><time>2026-04-26T11:39:13.999Z</time></trkpt><trkpt lat="43.22093835239444" lon="13.095101753528315"><ele>276.0</ele><time>2026-04-26T11:39:14.999Z</time></trkpt><trkpt lat="43.22095920584757" lon="13.095375605988766"><ele>276.0</ele><time>2026-04-26T11:39:15.999Z</time></trkpt><trkpt lat="43.22096340475383" lon="13.095642779903478"><ele>275.6666666666667</ele><time>2026-04-26T11:39:16.999Z</time></trkpt><trkpt lat="43.22094366151806" lon="13.09590874183655"><ele>275.33333333333337</ele><time>2026-04-26T11:39:17.999Z</time></trkpt><trkpt lat="43.2209026601775" lon="13.096170980050372"><ele>275.0</ele><time>2026-04-26T11:39:18.999Z</time></trkpt><trkpt lat="43.220857341352406" lon="13.096441463762797"><ele>275.33333333333337</ele><time>2026-04-26T11:39:19.999Z</time></trkpt><trkpt lat="43.22081017714095" lon="13.096712758652979"><ele>275.6666666666667</ele><time>2026-04-26T11:39:20.999Z</time></trkpt><trkpt lat="43.220754846205736" lon="13.09698626006046"><ele>276.0</ele><time>2026-04-26T11:39:21.999Z</time></trkpt><trkpt lat="43.22069370995459" lon="13.097251300666619"><ele>273.6666666666667</ele><time>2026-04-26T11:39:22.999Z</time></trkpt><trkpt lat="43.22063808133629" lon="13.097519062480531"><ele>271.33333333333337</ele><time>2026-04-26T11:39:23.999Z</time></trkpt><trkpt lat="43.220598124693744" lon="13.097791808332069"><ele>269.0</ele><time>2026-04-26T11:39:24.999Z</time></trkpt><trkpt lat="43.22057073386877" lon="13.098071322070288"><ele>270.0</ele><time>2026-04-26T11:39:25.999Z</time></trkpt><trkpt lat="43.22054611747562" lon="13.09834376082016"><ele>271.0</ele><time>2026-04-26T11:39:26.999Z</time></trkpt><trkpt lat="43.220529230685095" lon="13.098612985294741"><ele>272.0</ele><time>2026-04-26T11:39:27.999Z</time></trkpt><trkpt lat="43.22052567698977" lon="13.098873369723298"><ele>271.6666666666667</ele><time>2026-04-26T11:39:28.999Z</time></trkpt><trkpt lat="43.220542869690384" lon="13.099119330248934"><ele>271.3333333333333</ele><time>2026-04-26T11:39:29.999Z</time></trkpt><trkpt lat="43.22059398347022" lon="13.099354100863744"><ele>271.0</ele><time>2026-04-26T11:39:30.999Z</time></trkpt><trkpt lat="43.22065713071069" lon="13.09958236165626"><ele>272.3333333333333</ele><time>2026-04-26T11:39:31.999Z</time></trkpt><trkpt lat="43.22071595381643" lon="13.099815040437022"><ele>273.6666666666667</ele><time>2026-04-26T11:39:32.999Z</time></trkpt><trkpt lat="43.22076721919007" lon="13.10003242854304"><ele>275.0</ele><time>2026-04-26T11:39:33.999Z</time></trkpt><trkpt lat="43.220818511331736" lon="13.100240439504395"><ele>275.0</ele><time>2026-04-26T11:39:34.999Z</time></trkpt><trkpt lat="43.22088691551207" lon="13.100420104145442"><ele>275.0</ele><time>2026-04-26T11:39:35.999Z</time></trkpt><trkpt lat="43.220984322168796" lon="13.100571244617505"><ele>275.0</ele><time>2026-04-26T11:39:36.999Z</time></trkpt><trkpt lat="43.22111485512" lon="13.100673173414814"><ele>275.0</ele><time>2026-04-26T11:39:37.999Z</time></trkpt><trkpt lat="43.2212617777905" lon="13.100741353024732"><ele>274.33333333333337</ele><time>2026-04-26T11:39:38.999Z</time></trkpt><trkpt lat="43.22141345343897" lon="13.100784124191552"><ele>273.6666666666667</ele><time>2026-04-26T11:39:39.999Z</time></trkpt><trkpt lat="43.22156497997075" lon="13.100823430812467"><ele>273.0</ele><time>2026-04-26T11:39:40.999Z</time></trkpt><trkpt lat="43.221722167180964" lon="13.100874474264447"><ele>275.3333333333333</ele><time>2026-04-26T11:39:41.999Z</time></trkpt><trkpt lat="43.22188450336724" lon="13.100942326942539"><ele>277.66666666666663</ele><time>2026-04-26T11:39:42.999Z</time></trkpt><trkpt lat="43.222051095674175" lon="13.10102171599628"><ele>280.0</ele><time>2026-04-26T11:39:43.999Z</time></trkpt><trkpt lat="43.222220712575044" lon="13.101119704049394"><ele>279.3333333333333</ele><time>2026-04-26T11:39:44.999Z</time></trkpt><trkpt lat="43.22238202397408" lon="13.101249175315957"><ele>278.6666666666667</ele><time>2026-04-26T11:39:45.999Z</time></trkpt><trkpt lat="43.22252185677353" lon="13.101420832682091"><ele>278.0</ele><time>2026-04-26T11:39:46.999Z</time></trkpt><trkpt lat="43.222642246624154" lon="13.10162455665384"><ele>278.0</ele><time>2026-04-26T11:39:47.999Z</time></trkpt><trkpt lat="43.22274829522283" lon="13.101845171950837"><ele>278.0</ele><time>2026-04-26T11:39:48.999Z</time></trkpt><trkpt lat="43.222829586465956" lon="13.102080643222854"><ele>278.0</ele><time>2026-04-26T11:39:49.999Z</time></trkpt><trkpt lat="43.22286548518276" lon="13.10234106978394"><ele>274.6666666666667</ele><time>2026-04-26T11:39:50.999Z</time></trkpt><trkpt lat="43.22289727371123" lon="13.102597168370467"><ele>271.3333333333333</ele><time>2026-04-26T11:39:51.999Z</time></trkpt><trkpt lat="43.22289341300603" lon="13.102861128227813"><ele>268.0</ele><time>2026-04-26T11:39:52.999Z</time></trkpt><trkpt lat="43.222862709401774" lon="13.103129432083096"><ele>267.0</ele><time>2026-04-26T11:39:53.999Z</time></trkpt><trkpt lat="43.222820823299315" lon="13.103409265810985"><ele>266.0</ele><time>2026-04-26T11:39:54.999Z</time></trkpt><trkpt lat="43.22279072813312" lon="13.10370263758889"><ele>265.0</ele><time>2026-04-26T11:39:55.999Z</time></trkpt><trkpt lat="43.222777170875965" lon="13.104006292194649"><ele>267.5</ele><time>2026-04-26T11:39:56.999Z</time></trkpt><trkpt lat="43.2227333742365" lon="13.104318384231856"><ele>270.0</ele><time>2026-04-26T11:39:57.999Z</time></trkpt><trkpt lat="43.222733202519464" lon="13.104643659637382"><ele>270.5</ele><time>2026-04-26T11:39:58.999Z</time></trkpt><trkpt lat="43.22271269549575" lon="13.104975518536342"><ele>271.0</ele><time>2026-04-26T11:39:59.999Z</time></trkpt><trkpt lat="43.222703291990015" lon="13.105318573740407"><ele>271.0</ele><time>2026-04-26T11:40:00.999Z</time></trkpt><trkpt lat="43.222698507843994" lon="13.105662864740692"><ele>271.0</ele><time>2026-04-26T11:40:01.999Z</time></trkpt><trkpt lat="43.222695948877835" lon="13.10600751965714"><ele>271.0</ele><time>2026-04-26T11:40:02.999Z</time></trkpt><trkpt lat="43.222694789513476" lon="13.106349415359238"><ele>271.0</ele><time>2026-04-26T11:40:03.999Z</time></trkpt><trkpt lat="43.22269465808507" lon="13.106693064752179"><ele>271.0</ele><time>2026-04-26T11:40:04.998Z</time></trkpt><trkpt lat="43.22269682312118" lon="13.107038773898157"><ele>271.0</ele><time>2026-04-26T11:40:05.998Z</time></trkpt><trkpt lat="43.222708793545095" lon="13.107385687256293"><ele>269.0</ele><time>2026-04-26T11:40:06.998Z</time></trkpt><trkpt lat="43.222730142736935" lon="13.107736231169431"><ele>267.0</ele><time>2026-04-26T11:40:07.998Z</time></trkpt><trkpt lat="43.222758506617026" lon="13.108092401236446"><ele>266.0</ele><time>2026-04-26T11:40:08.998Z</time></trkpt><trkpt lat="43.22279595607199" lon="13.108449358816044"><ele>265.0</ele><time>2026-04-26T11:40:09.998Z</time></trkpt><trkpt lat="43.22284736756749" lon="13.108811654427853"><ele>263.0</ele><time>2026-04-26T11:40:10.998Z</time></trkpt><trkpt lat="43.22289964493663" lon="13.109175804069388"><ele>261.0</ele><time>2026-04-26T11:40:11.998Z</time></trkpt><trkpt lat="43.22295869615755" lon="13.10954015430966"><ele>261.0</ele><time>2026-04-26T11:40:12.998Z</time></trkpt><trkpt lat="43.22302969144236" lon="13.109904071831089"><ele>261.0</ele><time>2026-04-26T11:40:13.998Z</time></trkpt><trkpt lat="43.22310678739498" lon="13.110267488296099"><ele>266.5</ele><time>2026-04-26T11:40:14.998Z</time></trkpt><trkpt lat="43.22319005699135" lon="13.110631552922218"><ele>272.0</ele><time>2026-04-26T11:40:15.998Z</time></trkpt><trkpt lat="43.22327663365274" lon="13.110992398953863"><ele>272.0</ele><time>2026-04-26T11:40:16.998Z</time></trkpt><trkpt lat="43.22336173945413" lon="13.111353068667622"><ele>272.0</ele><time>2026-04-26T11:40:17.998Z</time></trkpt><trkpt lat="43.22344668950922" lon="13.111712466877007"><ele>271.0</ele><time>2026-04-26T11:40:18.998Z</time></trkpt><trkpt lat="43.22352913264545" lon="13.112074680260944"><ele>270.0</ele><time>2026-04-26T11:40:19.998Z</time></trkpt><trkpt lat="43.22361094130189" lon="13.112435726044712"><ele>267.0</ele><time>2026-04-26T11:40:20.998Z</time></trkpt><trkpt lat="43.22369511753309" lon="13.112788393412753"><ele>264.0</ele><time>2026-04-26T11:40:21.998Z</time></trkpt><trkpt lat="43.22379314762956" lon="13.113141796934592"><ele>264.0</ele><time>2026-04-26T11:40:22.998Z</time></trkpt><trkpt lat="43.22390791002669" lon="13.113478833239549"><ele>264.0</ele><time>2026-04-26T11:40:23.998Z</time></trkpt><trkpt lat="43.224030867899934" lon="13.11379918834207"><ele>270.5</ele><time>2026-04-26T11:40:24.998Z</time></trkpt><trkpt lat="43.22414630680782" lon="13.114106168950064"><ele>277.0</ele><time>2026-04-26T11:40:25.998Z</time></trkpt><trkpt lat="43.2242498263998" lon="13.11441256147993"><ele>277.0</ele><time>2026-04-26T11:40:26.998Z</time></trkpt><trkpt lat="43.224338403425065" lon="13.114721563654909"><ele>277.0</ele><time>2026-04-26T11:40:27.998Z</time></trkpt><trkpt lat="43.224411726145114" lon="13.115037368910409"><ele>271.5</ele><time>2026-04-26T11:40:28.998Z</time></trkpt><trkpt lat="43.224464756401254" lon="13.115358653939516"><ele>266.0</ele><time>2026-04-26T11:40:30Z</time></trkpt><trkpt lat="43.224489754532485" lon="13.1156842572974"><ele>263.5</ele><time>2026-04-26T11:40:31Z</time></trkpt><trkpt lat="43.22448949628865" lon="13.116004092321296"><ele>261.0</ele><time>2026-04-26T11:40:32Z</time></trkpt><trkpt lat="43.2244761022975" lon="13.116321656007155"><ele>261.5</ele><time>2026-04-26T11:40:33Z</time></trkpt><trkpt lat="43.2244501344976" lon="13.116645040868503"><ele>262.0</ele><time>2026-04-26T11:40:34Z</time></trkpt><trkpt lat="43.22441332520951" lon="13.11696668188534"><ele>262.0</ele><time>2026-04-26T11:40:35Z</time></trkpt><trkpt lat="43.22437310243354" lon="13.117288666152904"><ele>262.0</ele><time>2026-04-26T11:40:36Z</time></trkpt><trkpt lat="43.22432376057308" lon="13.117631313180885"><ele>262.5</ele><time>2026-04-26T11:40:37Z</time></trkpt><trkpt lat="43.22427215154009" lon="13.117980622977685"><ele>263.0</ele><time>2026-04-26T11:40:38Z</time></trkpt><trkpt lat="43.22426699109695" lon="13.118253550763576"><ele>264.5</ele><time>2026-04-26T11:40:39Z</time></trkpt><trkpt lat="43.22422881360251" lon="13.118580149238253"><ele>266.0</ele><time>2026-04-26T11:40:40Z</time></trkpt><trkpt lat="43.22418996614183" lon="13.11891384694336"><ele>268.5</ele><time>2026-04-26T11:40:41Z</time></trkpt><trkpt lat="43.22415356335185" lon="13.119251630903817"><ele>271.0</ele><time>2026-04-26T11:40:42Z</time></trkpt><trkpt lat="43.22411684751725" lon="13.119583691768643"><ele>272.5</ele><time>2026-04-26T11:40:43Z</time></trkpt><trkpt lat="43.22408027275442" lon="13.119916153140467"><ele>274.0</ele><time>2026-04-26T11:40:44Z</time></trkpt><trkpt lat="43.2240454316829" lon="13.120253151679956"><ele>274.0</ele><time>2026-04-26T11:40:45Z</time></trkpt><trkpt lat="43.2240253825485" lon="13.120594523274539"><ele>274.0</ele><time>2026-04-26T11:40:46Z</time></trkpt><trkpt lat="43.22401502223417" lon="13.120935305476207"><ele>275.5</ele><time>2026-04-26T11:40:47Z</time></trkpt><trkpt lat="43.22401427161322" lon="13.121280586165055"><ele>277.0</ele><time>2026-04-26T11:40:48Z</time></trkpt><trkpt lat="43.22402909511978" lon="13.12163109423874"><ele>277.5</ele><time>2026-04-26T11:40:49Z</time></trkpt><trkpt lat="43.22403542724219" lon="13.12198260906064"><ele>278.0</ele><time>2026-04-26T11:40:50Z</time></trkpt><trkpt lat="43.22402243827013" lon="13.122332445057044"><ele>279.0</ele><time>2026-04-26T11:40:51Z</time></trkpt><trkpt lat="43.22398866662907" lon="13.12268741168756"><ele>280.0</ele><time>2026-04-26T11:40:52Z</time></trkpt><trkpt lat="43.22393796661415" lon="13.12303080984414"><ele>268.0</ele><time>2026-04-26T11:40:53Z</time></trkpt><trkpt lat="43.22388728088006" lon="13.123380370249453"><ele>256.0</ele><time>2026-04-26T11:40:54Z</time></trkpt><trkpt lat="43.22384708602064" lon="13.123731090623929"><ele>255.5</ele><time>2026-04-26T11:40:55Z</time></trkpt><trkpt lat="43.22381932026675" lon="13.124082176567443"><ele>255.0</ele><time>2026-04-26T11:40:56Z</time></trkpt><trkpt lat="43.22380180658799" lon="13.12443562606505"><ele>255.0</ele><time>2026-04-26T11:40:57Z</time></trkpt><trkpt lat="43.22379172966716" lon="13.124792658663514"><ele>255.0</ele><time>2026-04-26T11:40:58Z</time></trkpt><trkpt lat="43.22379089989529" lon="13.125150029742759"><ele>254.5</ele><time>2026-04-26T11:40:59Z</time></trkpt><trkpt lat="43.22380826384422" lon="13.125506561459167"><ele>254.0</ele><time>2026-04-26T11:41:00Z</time></trkpt><trkpt lat="43.22383803845031" lon="13.125857508072452"><ele>255.0</ele><time>2026-04-26T11:41:01Z</time></trkpt><trkpt lat="43.223874510098774" lon="13.126208055067881"><ele>256.0</ele><time>2026-04-26T11:41:02Z</time></trkpt><trkpt lat="43.22392187483306" lon="13.126553924818944"><ele>254.0</ele><time>2026-04-26T11:41:03Z</time></trkpt><trkpt lat="43.223969406459" lon="13.12689961985232"><ele>252.0</ele><time>2026-04-26T11:41:04Z</time></trkpt><trkpt lat="43.224015687390384" lon="13.1272434270666"><ele>265.0</ele><time>2026-04-26T11:41:05Z</time></trkpt><trkpt lat="43.224057843902614" lon="13.127587355957035"><ele>278.0</ele><time>2026-04-26T11:41:06Z</time></trkpt><trkpt lat="43.2240894509647" lon="13.127931222732103"><ele>277.0</ele><time>2026-04-26T11:41:06.999Z</time></trkpt><trkpt lat="43.224105329036895" lon="13.128273965727832"><ele>276.0</ele><time>2026-04-26T11:41:07.999Z</time></trkpt><trkpt lat="43.22409937243185" lon="13.12862485563077"><ele>276.0</ele><time>2026-04-26T11:41:08.999Z</time></trkpt><trkpt lat="43.22405778048344" lon="13.128975844949467"><ele>276.0</ele><time>2026-04-26T11:41:09.999Z</time></trkpt><trkpt lat="43.22398701760548" lon="13.129314479962611"><ele>264.5</ele><time>2026-04-26T11:41:10.999Z</time></trkpt><trkpt lat="43.223898648776355" lon="13.129641136860997"><ele>253.0</ele><time>2026-04-26T11:41:11.999Z</time></trkpt><trkpt lat="43.22379435760836" lon="13.129959982847918"><ele>253.0</ele><time>2026-04-26T11:41:12.999Z</time></trkpt><trkpt lat="43.22368314450138" lon="13.130278903924944"><ele>253.0</ele><time>2026-04-26T11:41:13.999Z</time></trkpt><trkpt lat="43.22357580578052" lon="13.130601452131586"><ele>256.5</ele><time>2026-04-26T11:41:14.999Z</time></trkpt><trkpt lat="43.22347160400831" lon="13.1309211731175"><ele>260.0</ele><time>2026-04-26T11:41:15.999Z</time></trkpt><trkpt lat="43.223361185239284" lon="13.131237155150204"><ele>262.5</ele><time>2026-04-26T11:41:16.999Z</time></trkpt><trkpt lat="43.223262032131565" lon="13.131559591697085"><ele>265.0</ele><time>2026-04-26T11:41:17.999Z</time></trkpt><trkpt lat="43.22316799088463" lon="13.131873807368216"><ele>260.0</ele><time>2026-04-26T11:41:18.999Z</time></trkpt><trkpt lat="43.2230967713921" lon="13.13218058743858"><ele>255.0</ele><time>2026-04-26T11:41:19.999Z</time></trkpt><trkpt lat="43.223062126737155" lon="13.132488262108339"><ele>255.0</ele><time>2026-04-26T11:41:20.999Z</time></trkpt><trkpt lat="43.223048045223806" lon="13.132787158203499"><ele>255.0</ele><time>2026-04-26T11:41:21.999Z</time></trkpt><trkpt lat="43.22303625705433" lon="13.133084878462657"><ele>255.0</ele><time>2026-04-26T11:41:22.999Z</time></trkpt><trkpt lat="43.2230319279438" lon="13.133382888120613"><ele>255.0</ele><time>2026-04-26T11:41:23.999Z</time></trkpt><trkpt lat="43.223044239624826" lon="13.133676103731025"><ele>255.0</ele><time>2026-04-26T11:41:24.999Z</time></trkpt><trkpt lat="43.22308152168181" lon="13.133960043805669"><ele>255.0</ele><time>2026-04-26T11:41:25.999Z</time></trkpt><trkpt lat="43.223132104491214" lon="13.134238117941678"><ele>257.3333333333333</ele><time>2026-04-26T11:41:26.999Z</time></trkpt><trkpt lat="43.22318576988068" lon="13.134518593280495"><ele>259.66666666666663</ele><time>2026-04-26T11:41:27.999Z</time></trkpt><trkpt lat="43.223239765240656" lon="13.13479747488961"><ele>262.0</ele><time>2026-04-26T11:41:28.999Z</time></trkpt><trkpt lat="43.223293712609085" lon="13.1350778564815"><ele>262.0</ele><time>2026-04-26T11:41:29.999Z</time></trkpt><trkpt lat="43.22334909094082" lon="13.135357401963285"><ele>262.0</ele><time>2026-04-26T11:41:30.999Z</time></trkpt><trkpt lat="43.22341589203409" lon="13.135634343248599"><ele>262.0</ele><time>2026-04-26T11:41:31.999Z</time></trkpt><trkpt lat="43.223504204506746" lon="13.13590153418599"><ele>260.3333333333333</ele><time>2026-04-26T11:41:32.999Z</time></trkpt><trkpt lat="43.223614320278855" lon="13.136153613959674"><ele>258.6666666666667</ele><time>2026-04-26T11:41:33.999Z</time></trkpt><trkpt lat="43.22374806442487" lon="13.136394922959454"><ele>257.0</ele><time>2026-04-26T11:41:34.999Z</time></trkpt><trkpt lat="43.223899124619976" lon="13.136618915436452"><ele>258.33333333333337</ele><time>2026-04-26T11:41:35.999Z</time></trkpt><trkpt lat="43.224059678337376" lon="13.136830743240681"><ele>259.6666666666667</ele><time>2026-04-26T11:41:36.999Z</time></trkpt><trkpt lat="43.22422913998185" lon="13.137037398489028"><ele>261.0</ele><time>2026-04-26T11:41:37.999Z</time></trkpt><trkpt lat="43.22440161452853" lon="13.137245983728256"><ele>257.0</ele><time>2026-04-26T11:41:38.999Z</time></trkpt><trkpt lat="43.22458108896016" lon="13.137448595547573"><ele>253.0</ele><time>2026-04-26T11:41:39.999Z</time></trkpt><trkpt lat="43.22476766848325" lon="13.137645911720218"><ele>257.5</ele><time>2026-04-26T11:41:40.999Z</time></trkpt><trkpt lat="43.22495368946381" lon="13.13784707508985"><ele>262.0</ele><time>2026-04-26T11:41:41.999Z</time></trkpt><trkpt lat="43.22514068747312" lon="13.13804697287522"><ele>257.0</ele><time>2026-04-26T11:41:42.999Z</time></trkpt><trkpt lat="43.225329728734216" lon="13.138248736013974"><ele>252.0</ele><time>2026-04-26T11:41:43.999Z</time></trkpt><trkpt lat="43.225517449384185" lon="13.138447783201313"><ele>261.0</ele><time>2026-04-26T11:41:44.999Z</time></trkpt><trkpt lat="43.22570364811687" lon="13.138644377155092"><ele>270.0</ele><time>2026-04-26T11:41:45.999Z</time></trkpt><trkpt lat="43.22588694952655" lon="13.138842883335402"><ele>270.0</ele><time>2026-04-26T11:41:46.999Z</time></trkpt><trkpt lat="43.22606463469486" lon="13.139047185185138"><ele>270.0</ele><time>2026-04-26T11:41:47.999Z</time></trkpt><trkpt lat="43.22623820605999" lon="13.139259146603353"><ele>274.0</ele><time>2026-04-26T11:41:48.999Z</time></trkpt><trkpt lat="43.226404781401214" lon="13.139479838333612"><ele>278.0</ele><time>2026-04-26T11:41:49.999Z</time></trkpt><trkpt lat="43.22656503922158" lon="13.13971413026073"><ele>271.5</ele><time>2026-04-26T11:41:50.999Z</time></trkpt><trkpt lat="43.226703707079494" lon="13.139976414144796"><ele>265.0</ele><time>2026-04-26T11:41:51.999Z</time></trkpt><trkpt lat="43.226860895127594" lon="13.140221313295129"><ele>265.0</ele><time>2026-04-26T11:41:52.999Z</time></trkpt><trkpt lat="43.226995889469144" lon="13.140473994053476"><ele>265.0</ele><time>2026-04-26T11:41:53.999Z</time></trkpt><trkpt lat="43.227127757349976" lon="13.140710044478098"><ele>265.0</ele><time>2026-04-26T11:41:54.999Z</time></trkpt><trkpt lat="43.22725116810603" lon="13.140936496460208"><ele>263.3333333333333</ele><time>2026-04-26T11:41:55.999Z</time></trkpt><trkpt lat="43.227352938361875" lon="13.14116877874798"><ele>261.6666666666667</ele><time>2026-04-26T11:41:56.999Z</time></trkpt><trkpt lat="43.22742493126039" lon="13.141413812284037"><ele>260.0</ele><time>2026-04-26T11:41:57.999Z</time></trkpt><trkpt lat="43.22747316302571" lon="13.141670481705034"><ele>260.0</ele><time>2026-04-26T11:41:58.999Z</time></trkpt><trkpt lat="43.22750874653217" lon="13.141942768126448"><ele>260.0</ele><time>2026-04-26T11:41:59.999Z</time></trkpt><trkpt lat="43.22753353768452" lon="13.14221796492489"><ele>260.0</ele><time>2026-04-26T11:42:00.999Z</time></trkpt><trkpt lat="43.22753992397687" lon="13.14249879403138"><ele>259.33333333333337</ele><time>2026-04-26T11:42:01.999Z</time></trkpt><trkpt lat="43.227528619260084" lon="13.142775831693793"><ele>258.6666666666667</ele><time>2026-04-26T11:42:02.999Z</time></trkpt><trkpt lat="43.22752249723478" lon="13.143058394829287"><ele>258.0</ele><time>2026-04-26T11:42:03.999Z</time></trkpt><trkpt lat="43.22752781321268" lon="13.14334088519772"><ele>259.3333333333333</ele><time>2026-04-26T11:42:04.999Z</time></trkpt><trkpt lat="43.22753483077886" lon="13.143622648438159"><ele>260.66666666666663</ele><time>2026-04-26T11:42:05.999Z</time></trkpt><trkpt lat="43.22754213222267" lon="13.143910219196968"><ele>262.0</ele><time>2026-04-26T11:42:06.999Z</time></trkpt><trkpt lat="43.22755034934956" lon="13.144194558160377"><ele>262.0</ele><time>2026-04-26T11:42:07.999Z</time></trkpt><trkpt lat="43.22755778543925" lon="13.144489068023194"><ele>262.0</ele><time>2026-04-26T11:42:08.999Z</time></trkpt><trkpt lat="43.22756582200119" lon="13.144778455617125"><ele>262.0</ele><time>2026-04-26T11:42:09.999Z</time></trkpt><trkpt lat="43.227558192171955" lon="13.145073913580898"><ele>261.0</ele><time>2026-04-26T11:42:10.999Z</time></trkpt><trkpt lat="43.22752792938304" lon="13.145370060183039"><ele>260.0</ele><time>2026-04-26T11:42:11.998Z</time></trkpt><trkpt lat="43.22748276707919" lon="13.145664842200535"><ele>259.0</ele><time>2026-04-26T11:42:12.998Z</time></trkpt><trkpt lat="43.2274098133711" lon="13.145956271460147"><ele>258.3333333333333</ele><time>2026-04-26T11:42:13.998Z</time></trkpt><trkpt lat="43.22732343198125" lon="13.146238263502406"><ele>257.6666666666667</ele><time>2026-04-26T11:42:14.998Z</time></trkpt><trkpt lat="43.22723225068279" lon="13.146499074745943"><ele>257.0</ele><time>2026-04-26T11:42:15.998Z</time></trkpt><trkpt lat="43.22715010983822" lon="13.146745249704184"><ele>254.66666666666669</ele><time>2026-04-26T11:42:16.998Z</time></trkpt><trkpt lat="43.2270753227935" lon="13.146979031330972"><ele>252.33333333333331</ele><time>2026-04-26T11:42:17.998Z</time></trkpt><trkpt lat="43.22700833815177" lon="13.14721402008431"><ele>250.0</ele><time>2026-04-26T11:42:18.998Z</time></trkpt><trkpt lat="43.226959043460596" lon="13.147449609022823"><ele>250.0</ele><time>2026-04-26T11:42:19.998Z</time></trkpt><trkpt lat="43.226931722008366" lon="13.147695047888657"><ele>250.0</ele><time>2026-04-26T11:42:20.998Z</time></trkpt><trkpt lat="43.22692210159601" lon="13.147940236887216"><ele>250.0</ele><time>2026-04-26T11:42:21.998Z</time></trkpt><trkpt lat="43.22692585345082" lon="13.148186322708433"><ele>250.0</ele><time>2026-04-26T11:42:22.998Z</time></trkpt><trkpt lat="43.22694710176426" lon="13.148427598997888"><ele>250.0</ele><time>2026-04-26T11:42:23.998Z</time></trkpt><trkpt lat="43.226981473055375" lon="13.148673290628116"><ele>250.0</ele><time>2026-04-26T11:42:24.998Z</time></trkpt><trkpt lat="43.22702780390047" lon="13.148911088245502"><ele>250.33333333333331</ele><time>2026-04-26T11:42:25.998Z</time></trkpt><trkpt lat="43.227073416186826" lon="13.149153401779548"><ele>250.66666666666669</ele><time>2026-04-26T11:42:26.998Z</time></trkpt><trkpt lat="43.227128160638834" lon="13.149394990908363"><ele>251.0</ele><time>2026-04-26T11:42:27.998Z</time></trkpt><trkpt lat="43.2271994302203" lon="13.149625389158142"><ele>251.0</ele><time>2026-04-26T11:42:28.998Z</time></trkpt><trkpt lat="43.22728696205516" lon="13.149848880561793"><ele>251.0</ele><time>2026-04-26T11:42:29.998Z</time></trkpt><trkpt lat="43.22737971968777" lon="13.150067649263846"><ele>251.0</ele><time>2026-04-26T11:42:30.998Z</time></trkpt><trkpt lat="43.22746937246386" lon="13.150288117757599"><ele>250.0</ele><time>2026-04-26T11:42:31.998Z</time></trkpt><trkpt lat="43.22756529246817" lon="13.15050937287667"><ele>249.0</ele><time>2026-04-26T11:42:32.998Z</time></trkpt><trkpt lat="43.22765801816716" lon="13.150735998403817"><ele>248.0</ele><time>2026-04-26T11:42:33.998Z</time></trkpt><trkpt lat="43.227750699808304" lon="13.150966931993759"><ele>248.0</ele><time>2026-04-26T11:42:34.998Z</time></trkpt><trkpt lat="43.227842984825045" lon="13.151196018969179"><ele>248.0</ele><time>2026-04-26T11:42:36Z</time></trkpt><trkpt lat="43.22793076198254" lon="13.15141842337798"><ele>248.0</ele><time>2026-04-26T11:42:37Z</time></trkpt><trkpt lat="43.228013581831945" lon="13.15162242519584"><ele>247.0</ele><time>2026-04-26T11:42:38Z</time></trkpt><trkpt lat="43.22809482000375" lon="13.151822726619491"><ele>246.0</ele><time>2026-04-26T11:42:39Z</time></trkpt><trkpt lat="43.22817299199064" lon="13.152025023595177"><ele>245.0</ele><time>2026-04-26T11:42:40Z</time></trkpt><trkpt lat="43.228251914572795" lon="13.152216700781585"><ele>247.66666666666669</ele><time>2026-04-26T11:42:41Z</time></trkpt><trkpt lat="43.22832672931775" lon="13.152404371603602"><ele>250.33333333333331</ele><time>2026-04-26T11:42:42Z</time></trkpt><trkpt lat="43.22839718656382" lon="13.15257980852556"><ele>253.0</ele><time>2026-04-26T11:42:43Z</time></trkpt><trkpt lat="43.22846788931691" lon="13.152764771436399"><ele>253.0</ele><time>2026-04-26T11:42:44Z</time></trkpt><trkpt lat="43.2285439950716" lon="13.152956227570092"><ele>253.0</ele><time>2026-04-26T11:42:45Z</time></trkpt><trkpt lat="43.22862345016187" lon="13.153152232851891"><ele>253.0</ele><time>2026-04-26T11:42:46Z</time></trkpt><trkpt lat="43.22870595770456" lon="13.153348756650514"><ele>253.0</ele><time>2026-04-26T11:42:47Z</time></trkpt><trkpt lat="43.228784374605084" lon="13.153539885252824"><ele>253.0</ele><time>2026-04-26T11:42:48Z</time></trkpt><trkpt lat="43.22885184825305" lon="13.153722382187146"><ele>253.0</ele><time>2026-04-26T11:42:49Z</time></trkpt><trkpt lat="43.22891852882175" lon="13.153889429395889"><ele>253.0</ele><time>2026-04-26T11:42:50Z</time></trkpt><trkpt lat="43.22898364384366" lon="13.154054308462944"><ele>253.0</ele><time>2026-04-26T11:42:51Z</time></trkpt><trkpt lat="43.229048065651774" lon="13.154203177561799"><ele>253.0</ele><time>2026-04-26T11:42:52Z</time></trkpt><trkpt lat="43.22910925221652" lon="13.15434888219379"><ele>253.0</ele><time>2026-04-26T11:42:53Z</time></trkpt><trkpt lat="43.22916720540873" lon="13.154486367173343"><ele>253.0</ele><time>2026-04-26T11:42:54Z</time></trkpt><trkpt lat="43.229216948101794" lon="13.154620480862553"><ele>253.0</ele><time>2026-04-26T11:42:55Z</time></trkpt><trkpt lat="43.22926421483722" lon="13.154750017569517"><ele>253.0</ele><time>2026-04-26T11:42:56Z</time></trkpt><trkpt lat="43.229313688409256" lon="13.154868286005952"><ele>253.0</ele><time>2026-04-26T11:42:57Z</time></trkpt><trkpt lat="43.22936443312628" lon="13.15498434920035"><ele>253.0</ele><time>2026-04-26T11:42:58Z</time></trkpt><trkpt lat="43.22941451622941" lon="13.155105685586927"><ele>253.0</ele><time>2026-04-26T11:42:59Z</time></trkpt><trkpt lat="43.229465338810215" lon="13.155226732000763"><ele>250.5</ele><time>2026-04-26T11:43:00Z</time></trkpt><trkpt lat="43.22951666956566" lon="13.155357353575635"><ele>248.0</ele><time>2026-04-26T11:43:01Z</time></trkpt><trkpt lat="43.229573562723246" lon="13.15550476732446"><ele>245.5</ele><time>2026-04-26T11:43:02Z</time></trkpt><trkpt lat="43.22963531142052" lon="13.155662248490632"><ele>243.0</ele><time>2026-04-26T11:43:03Z</time></trkpt><trkpt lat="43.22970063643444" lon="13.155827232102324"><ele>242.33333333333331</ele><time>2026-04-26T11:43:04Z</time></trkpt><trkpt lat="43.229773203133696" lon="13.156005303392691"><ele>241.66666666666666</ele><time>2026-04-26T11:43:05Z</time></trkpt><trkpt lat="43.22984827168284" lon="13.15619285715613"><ele>241.0</ele><time>2026-04-26T11:43:06Z</time></trkpt><trkpt lat="43.22992250618399" lon="13.156382136187464"><ele>245.0</ele><time>2026-04-26T11:43:06.999Z</time></trkpt><trkpt lat="43.23000154725985" lon="13.156579684541875"><ele>249.0</ele><time>2026-04-26T11:43:07.999Z</time></trkpt><trkpt lat="43.23008291940215" lon="13.156785117493014"><ele>253.0</ele><time>2026-04-26T11:43:08.999Z</time></trkpt><trkpt lat="43.23016689042425" lon="13.15700148253284"><ele>253.0</ele><time>2026-04-26T11:43:09.999Z</time></trkpt><trkpt lat="43.23025235709268" lon="13.157216659971601"><ele>253.0</ele><time>2026-04-26T11:43:10.999Z</time></trkpt><trkpt lat="43.23033843320578" lon="13.157433629460403"><ele>253.0</ele><time>2026-04-26T11:43:11.999Z</time></trkpt><trkpt lat="43.230420539548646" lon="13.157649596273366"><ele>250.33333333333331</ele><time>2026-04-26T11:43:12.999Z</time></trkpt><trkpt lat="43.230499328177345" lon="13.157868493776114"><ele>247.66666666666669</ele><time>2026-04-26T11:43:13.999Z</time></trkpt><trkpt lat="43.23056744608586" lon="13.158092058482366"><ele>245.0</ele><time>2026-04-26T11:43:14.999Z</time></trkpt><trkpt lat="43.23061978636089" lon="13.15831689983679"><ele>252.66666666666669</ele><time>2026-04-26T11:43:15.999Z</time></trkpt><trkpt lat="43.230667127621864" lon="13.158554967591606"><ele>260.3333333333333</ele><time>2026-04-26T11:43:16.999Z</time></trkpt><trkpt lat="43.230710061326505" lon="13.1587912000473"><ele>268.0</ele><time>2026-04-26T11:43:17.999Z</time></trkpt><trkpt lat="43.23074929645452" lon="13.15902823319345"><ele>266.0</ele><time>2026-04-26T11:43:18.999Z</time></trkpt><trkpt lat="43.23077734923504" lon="13.159267125404424"><ele>264.0</ele><time>2026-04-26T11:43:19.999Z</time></trkpt><trkpt lat="43.23079484514162" lon="13.159508074359502"><ele>262.0</ele><time>2026-04-26T11:43:20.999Z</time></trkpt><trkpt lat="43.230804153939474" lon="13.159758771719998"><ele>260.66666666666663</ele><time>2026-04-26T11:43:21.999Z</time></trkpt><trkpt lat="43.23081649111347" lon="13.160008767953276"><ele>259.3333333333333</ele><time>2026-04-26T11:43:22.999Z</time></trkpt><trkpt lat="43.23083169730548" lon="13.160269235516285"><ele>258.0</ele><time>2026-04-26T11:43:23.999Z</time></trkpt><trkpt lat="43.23084939336695" lon="13.160536834578483"><ele>258.0</ele><time>2026-04-26T11:43:24.999Z</time></trkpt><trkpt lat="43.230866110404556" lon="13.16079907360065"><ele>258.0</ele><time>2026-04-26T11:43:25.999Z</time></trkpt><trkpt lat="43.23088180778877" lon="13.16104824265517"><ele>258.0</ele><time>2026-04-26T11:43:26.999Z</time></trkpt><trkpt lat="43.230893866122805" lon="13.161307012867647"><ele>258.0</ele><time>2026-04-26T11:43:27.999Z</time></trkpt><trkpt lat="43.23090562831283" lon="13.161570829740253"><ele>258.0</ele><time>2026-04-26T11:43:28.999Z</time></trkpt><trkpt lat="43.23091517354643" lon="13.161840768160262"><ele>258.0</ele><time>2026-04-26T11:43:29.999Z</time></trkpt><trkpt lat="43.23092281725773" lon="13.162116709851606"><ele>259.0</ele><time>2026-04-26T11:43:30.999Z</time></trkpt><trkpt lat="43.23092980453814" lon="13.162399308434269"><ele>260.0</ele><time>2026-04-26T11:43:31.999Z</time></trkpt><trkpt lat="43.230936510085996" lon="13.162683712876388"><ele>261.0</ele><time>2026-04-26T11:43:32.999Z</time></trkpt><trkpt lat="43.230941227002035" lon="13.162971421156113"><ele>261.6666666666667</ele><time>2026-04-26T11:43:33.999Z</time></trkpt><trkpt lat="43.23093865710725" lon="13.163264949099403"><ele>262.33333333333337</ele><time>2026-04-26T11:43:34.999Z</time></trkpt><trkpt lat="43.230940034893926" lon="13.163559052928326"><ele>263.0</ele><time>2026-04-26T11:43:35.999Z</time></trkpt><trkpt lat="43.230952982583005" lon="13.163857291763739"><ele>262.0</ele><time>2026-04-26T11:43:36.999Z</time></trkpt><trkpt lat="43.23098320328912" lon="13.164153968679203"><ele>261.0</ele><time>2026-04-26T11:43:37.999Z</time></trkpt><trkpt lat="43.2310343653266" lon="13.164445812380551"><ele>260.0</ele><time>2026-04-26T11:43:38.999Z</time></trkpt><trkpt lat="43.23110705216513" lon="13.164727298588097"><ele>256.6666666666667</ele><time>2026-04-26T11:43:39.999Z</time></trkpt><trkpt lat="43.23119790370819" lon="13.164997599008482"><ele>253.33333333333331</ele><time>2026-04-26T11:43:40.999Z</time></trkpt><trkpt lat="43.231300503542705" lon="13.16525802127131"><ele>250.0</ele><time>2026-04-26T11:43:41.999Z</time></trkpt><trkpt lat="43.231413364391614" lon="13.16551713386393"><ele>250.66666666666666</ele><time>2026-04-26T11:43:42.999Z</time></trkpt><trkpt lat="43.23153216660489" lon="13.16576968191822"><ele>251.33333333333331</ele><time>2026-04-26T11:43:43.999Z</time></trkpt><trkpt lat="43.23165533479176" lon="13.166023542738523"><ele>252.0</ele><time>2026-04-26T11:43:44.999Z</time></trkpt><trkpt lat="43.23177810009476" lon="13.166280942305075"><ele>247.0</ele><time>2026-04-26T11:43:45.999Z</time></trkpt><trkpt lat="43.231901694342646" lon="13.166540884176008"><ele>242.0</ele><time>2026-04-26T11:43:46.999Z</time></trkpt><trkpt lat="43.23202474384995" lon="13.166803840116568"><ele>242.0</ele><time>2026-04-26T11:43:47.999Z</time></trkpt><trkpt lat="43.23214680747761" lon="13.167069981050929"><ele>242.0</ele><time>2026-04-26T11:43:48.999Z</time></trkpt><trkpt lat="43.23226509661907" lon="13.167336939841707"><ele>244.5</ele><time>2026-04-26T11:43:49.999Z</time></trkpt><trkpt lat="43.23238153525546" lon="13.16760765154464"><ele>247.0</ele><time>2026-04-26T11:43:50.999Z</time></trkpt><trkpt lat="43.23248269368363" lon="13.167885144737866"><ele>247.0</ele><time>2026-04-26T11:43:51.999Z</time></trkpt><trkpt lat="43.232568040559165" lon="13.168174466703634"><ele>247.0</ele><time>2026-04-26T11:43:52.999Z</time></trkpt><trkpt lat="43.23263894417903" lon="13.168470410576534"><ele>247.33333333333331</ele><time>2026-04-26T11:43:53.999Z</time></trkpt><trkpt lat="43.23269612156613" lon="13.168768123602327"><ele>247.66666666666669</ele><time>2026-04-26T11:43:54.999Z</time></trkpt><trkpt lat="43.23275597382312" lon="13.169060836232877"><ele>248.0</ele><time>2026-04-26T11:43:55.999Z</time></trkpt><trkpt lat="43.23281392672656" lon="13.169351943209984"><ele>248.0</ele><time>2026-04-26T11:43:56.999Z</time></trkpt><trkpt lat="43.23287422031864" lon="13.169638855450659"><ele>248.0</ele><time>2026-04-26T11:43:57.999Z</time></trkpt><trkpt lat="43.23293423234985" lon="13.16992589703092"><ele>248.0</ele><time>2026-04-26T11:43:58.999Z</time></trkpt><trkpt lat="43.23299271767705" lon="13.170212288512996"><ele>246.66666666666669</ele><time>2026-04-26T11:43:59.999Z</time></trkpt><trkpt lat="43.233050966882445" lon="13.17049861590957"><ele>245.33333333333331</ele><time>2026-04-26T11:44:00.999Z</time></trkpt><trkpt lat="43.233105444949935" lon="13.170782446126879"><ele>244.0</ele><time>2026-04-26T11:44:01.999Z</time></trkpt><trkpt lat="43.23315862505714" lon="13.171067024610796"><ele>249.33333333333331</ele><time>2026-04-26T11:44:02.999Z</time></trkpt><trkpt lat="43.23321388166111" lon="13.171349325009878"><ele>254.66666666666669</ele><time>2026-04-26T11:44:03.999Z</time></trkpt><trkpt lat="43.2332708862992" lon="13.17163114640612"><ele>260.0</ele><time>2026-04-26T11:44:04.999Z</time></trkpt><trkpt lat="43.23332809531964" lon="13.17191490314861"><ele>260.0</ele><time>2026-04-26T11:44:05.999Z</time></trkpt><trkpt lat="43.233384199301334" lon="13.172198874993148"><ele>260.0</ele><time>2026-04-26T11:44:06.999Z</time></trkpt><trkpt lat="43.23343813984246" lon="13.172483556358074"><ele>260.0</ele><time>2026-04-26T11:44:07.999Z</time></trkpt><trkpt lat="43.23349605369699" lon="13.17276964870213"><ele>257.6666666666667</ele><time>2026-04-26T11:44:08.999Z</time></trkpt><trkpt lat="43.233555807533605" lon="13.173054118682511"><ele>255.33333333333331</ele><time>2026-04-26T11:44:09.999Z</time></trkpt><trkpt lat="43.233612220248176" lon="13.173341492848936"><ele>253.0</ele><time>2026-04-26T11:44:10.999Z</time></trkpt><trkpt lat="43.233656446107624" lon="13.173635988822225"><ele>252.0</ele><time>2026-04-26T11:44:11.999Z</time></trkpt><trkpt lat="43.23368431790492" lon="13.173937990353206"><ele>251.0</ele><time>2026-04-26T11:44:12.999Z</time></trkpt><trkpt lat="43.23368863179279" lon="13.174241510079066"><ele>250.0</ele><time>2026-04-26T11:44:13.999Z</time></trkpt><trkpt lat="43.23368215816306" lon="13.174548799639227"><ele>250.0</ele><time>2026-04-26T11:44:14.999Z</time></trkpt><trkpt lat="43.23367509883" lon="13.174848449575599"><ele>250.0</ele><time>2026-04-26T11:44:15.998Z</time></trkpt><trkpt lat="43.23367215211137" lon="13.175148388541265"><ele>250.0</ele><time>2026-04-26T11:44:16.998Z</time></trkpt><trkpt lat="43.233670810735276" lon="13.175451913707652"><ele>250.0</ele><time>2026-04-26T11:44:17.998Z</time></trkpt><trkpt lat="43.233673454300266" lon="13.175754962761914"><ele>250.0</ele><time>2026-04-26T11:44:18.998Z</time></trkpt><trkpt lat="43.23367408128793" lon="13.176060629662441"><ele>250.0</ele><time>2026-04-26T11:44:19.998Z</time></trkpt><trkpt lat="43.23367421562317" lon="13.176368290591961"><ele>248.66666666666666</ele><time>2026-04-26T11:44:20.998Z</time></trkpt><trkpt lat="43.23367378938108" lon="13.176676895619215"><ele>247.33333333333331</ele><time>2026-04-26T11:44:21.998Z</time></trkpt><trkpt lat="43.233673137248545" lon="13.176985013686144"><ele>246.0</ele><time>2026-04-26T11:44:22.998Z</time></trkpt><trkpt lat="43.23367217293165" lon="13.177296430260158"><ele>245.66666666666669</ele><time>2026-04-26T11:44:23.998Z</time></trkpt><trkpt lat="43.233662430997505" lon="13.177606354320602"><ele>245.33333333333334</ele><time>2026-04-26T11:44:24.998Z</time></trkpt><trkpt lat="43.23364071774877" lon="13.177908859894103"><ele>245.0</ele><time>2026-04-26T11:44:25.998Z</time></trkpt><trkpt lat="43.233606147144" lon="13.178214974802039"><ele>244.66666666666669</ele><time>2026-04-26T11:44:26.998Z</time></trkpt><trkpt lat="43.23357610526373" lon="13.17851420964861"><ele>244.33333333333331</ele><time>2026-04-26T11:44:27.998Z</time></trkpt><trkpt lat="43.233563990087134" lon="13.178807225815223"><ele>244.0</ele><time>2026-04-26T11:44:28.998Z</time></trkpt><trkpt lat="43.23356992759698" lon="13.179092860434233"><ele>243.33333333333331</ele><time>2026-04-26T11:44:29.998Z</time></trkpt><trkpt lat="43.23359066899813" lon="13.179376749438662"><ele>242.66666666666669</ele><time>2026-04-26T11:44:30.998Z</time></trkpt><trkpt lat="43.23363008948474" lon="13.17965477914973"><ele>242.0</ele><time>2026-04-26T11:44:31.998Z</time></trkpt><trkpt lat="43.233681573241775" lon="13.1799308848626"><ele>241.33333333333334</ele><time>2026-04-26T11:44:32.998Z</time></trkpt><trkpt lat="43.23374136825347" lon="13.180204723881912"><ele>240.66666666666669</ele><time>2026-04-26T11:44:33.998Z</time></trkpt><trkpt lat="43.23380287087448" lon="13.180479779726337"><ele>240.0</ele><time>2026-04-26T11:44:34.998Z</time></trkpt><trkpt lat="43.233862075140266" lon="13.18075414988782"><ele>240.0</ele><time>2026-04-26T11:44:35.998Z</time></trkpt><trkpt lat="43.233919398646826" lon="13.181025914251428"><ele>240.0</ele><time>2026-04-26T11:44:36.998Z</time></trkpt><trkpt lat="43.233975748214554" lon="13.181286245686088"><ele>240.0</ele><time>2026-04-26T11:44:37.998Z</time></trkpt><trkpt lat="43.23402968662245" lon="13.18153633151739"><ele>240.0</ele><time>2026-04-26T11:44:38.998Z</time></trkpt><trkpt lat="43.23408184449448" lon="13.181784311825783"><ele>240.0</ele><time>2026-04-26T11:44:39.998Z</time></trkpt><trkpt lat="43.23413216499002" lon="13.182031505139445"><ele>240.0</ele><time>2026-04-26T11:44:40.998Z</time></trkpt><trkpt lat="43.234180708910316" lon="13.182278486906096"><ele>239.66666666666669</ele><time>2026-04-26T11:44:42Z</time></trkpt><trkpt lat="43.234225449985786" lon="13.182522274139439"><ele>239.33333333333334</ele><time>2026-04-26T11:44:43Z</time></trkpt><trkpt lat="43.234266625629175" lon="13.182762318241132"><ele>239.0</ele><time>2026-04-26T11:44:44Z</time></trkpt><trkpt lat="43.23430340465538" lon="13.18300070489809"><ele>238.66666666666669</ele><time>2026-04-26T11:44:45Z</time></trkpt><trkpt lat="43.234329499767824" lon="13.183230233398264"><ele>238.33333333333331</ele><time>2026-04-26T11:44:46Z</time></trkpt><trkpt lat="43.23433917879998" lon="13.183448868803664"><ele>238.0</ele><time>2026-04-26T11:44:47Z</time></trkpt><trkpt lat="43.23433158780379" lon="13.18366372911417"><ele>238.0</ele><time>2026-04-26T11:44:48Z</time></trkpt><trkpt lat="43.23430700665092" lon="13.183871251180307"><ele>238.0</ele><time>2026-04-26T11:44:49Z</time></trkpt><trkpt lat="43.23427810751553" lon="13.184074231277764"><ele>238.0</ele><time>2026-04-26T11:44:50Z</time></trkpt><trkpt lat="43.2342600633882" lon="13.184267993235885"><ele>238.0</ele><time>2026-04-26T11:44:51Z</time></trkpt><trkpt lat="43.23425447297715" lon="13.184456086674363"><ele>237.0</ele><time>2026-04-26T11:44:52Z</time></trkpt><trkpt lat="43.23425995622643" lon="13.184638721384898"><ele>236.0</ele><time>2026-04-26T11:44:53Z</time></trkpt><trkpt lat="43.23428343910261" lon="13.184812174105007"><ele>235.0</ele><time>2026-04-26T11:44:54Z</time></trkpt><trkpt lat="43.23431944747996" lon="13.18496979495703"><ele>234.0</ele><time>2026-04-26T11:44:55Z</time></trkpt><trkpt lat="43.23435349567487" lon="13.185122138116641"><ele>233.83333333333334</ele><time>2026-04-26T11:44:56Z</time></trkpt><trkpt lat="43.234378937222786" lon="13.185253903287729"><ele>233.66666666666669</ele><time>2026-04-26T11:44:57Z</time></trkpt><trkpt lat="43.234387870941504" lon="13.185361146572934"><ele>233.5</ele><time>2026-04-26T11:44:58Z</time></trkpt><trkpt lat="43.2343732615615" lon="13.18545560807418"><ele>233.33333333333334</ele><time>2026-04-26T11:44:59Z</time></trkpt><trkpt lat="43.23433181413123" lon="13.18553471699853"><ele>233.16666666666669</ele><time>2026-04-26T11:45:00Z</time></trkpt><trkpt lat="43.23427907477956" lon="13.185584472491044"><ele>233.0</ele><time>2026-04-26T11:45:00.999Z</time></trkpt><trkpt lat="43.234236407883316" lon="13.185655032027512"><ele>233.00000000000003</ele><time>2026-04-26T11:45:01.999Z</time></trkpt><trkpt lat="43.23423812942023" lon="13.185750278263708"><ele>233.0</ele><time>2026-04-26T11:45:02.999Z</time></trkpt><trkpt lat="43.234283066001396" lon="13.185833957563245"><ele>233.0</ele><time>2026-04-26T11:45:03.999Z</time></trkpt><trkpt lat="43.23435261966985" lon="13.185870363725442"><ele>233.0</ele><time>2026-04-26T11:45:04.999Z</time></trkpt><trkpt lat="43.23442487286746" lon="13.185840556178395"><ele>233.00000000000003</ele><time>2026-04-26T11:45:05.999Z</time></trkpt><trkpt lat="43.23448104864293" lon="13.185762235116416"><ele>233.0</ele><time>2026-04-26T11:45:06.999Z</time></trkpt><trkpt lat="43.234529519131414" lon="13.18567050482608"><ele>233.0</ele><time>2026-04-26T11:45:07.999Z</time></trkpt><trkpt lat="43.23459935787034" lon="13.185613538883418"><ele>233.0</ele><time>2026-04-26T11:45:08.999Z</time></trkpt><trkpt lat="43.2346964133999" lon="13.185626352888066"><ele>233.0</ele><time>2026-04-26T11:45:09.999Z</time></trkpt><trkpt lat="43.23480120259412" lon="13.185663654341237"><ele>233.0</ele><time>2026-04-26T11:45:10.999Z</time></trkpt><trkpt lat="43.23491843254716" lon="13.18570048091925"><ele>233.0</ele><time>2026-04-26T11:45:11.999Z</time></trkpt><trkpt lat="43.23503714879072" lon="13.185729114443724"><ele>233.25</ele><time>2026-04-26T11:45:12.999Z</time></trkpt><trkpt lat="43.23516007592274" lon="13.185753372163623"><ele>233.5</ele><time>2026-04-26T11:45:13.999Z</time></trkpt><trkpt lat="43.23529145518539" lon="13.185775858108226"><ele>233.75</ele><time>2026-04-26T11:45:14.999Z</time></trkpt><trkpt lat="43.23543378839173" lon="13.185803083915856"><ele>234.0</ele><time>2026-04-26T11:45:15.999Z</time></trkpt><trkpt lat="43.235582592428045" lon="13.185830270672502"><ele>236.66666666666669</ele><time>2026-04-26T11:45:16.999Z</time></trkpt><trkpt lat="43.23573903159948" lon="13.185857513884233"><ele>239.33333333333334</ele><time>2026-04-26T11:45:17.999Z</time></trkpt><trkpt lat="43.23588925598954" lon="13.185885022564038"><ele>242.0</ele><time>2026-04-26T11:45:18.999Z</time></trkpt><trkpt lat="43.23603340602521" lon="13.185913175129347"><ele>242.0</ele><time>2026-04-26T11:45:19.999Z</time></trkpt><trkpt lat="43.23616141932135" lon="13.1859421199649"><ele>242.0</ele><time>2026-04-26T11:45:20.999Z</time></trkpt><trkpt lat="43.236278225754496" lon="13.185965270844594"><ele>242.0</ele><time>2026-04-26T11:45:21.999Z</time></trkpt><trkpt lat="43.23638162679867" lon="13.18599630739585"><ele>242.0</ele><time>2026-04-26T11:45:22.999Z</time></trkpt><trkpt lat="43.23646636756922" lon="13.186056148357169"><ele>242.0</ele><time>2026-04-26T11:45:23.999Z</time></trkpt><trkpt lat="43.23651756765625" lon="13.186154857294321"><ele>243.39999999999998</ele><time>2026-04-26T11:45:24.999Z</time></trkpt><trkpt lat="43.23655430334489" lon="13.186277500606947"><ele>244.79999999999998</ele><time>2026-04-26T11:45:25.999Z</time></trkpt><trkpt lat="43.23660753727853" lon="13.186386938612783"><ele>246.2</ele><time>2026-04-26T11:45:26.999Z</time></trkpt><trkpt lat="43.236617749108206" lon="13.186541817440494"><ele>247.6</ele><time>2026-04-26T11:45:27.999Z</time></trkpt><trkpt lat="43.236647698289275" lon="13.186685282471437"><ele>249.0</ele><time>2026-04-26T11:45:28.999Z</time></trkpt><trkpt lat="43.23667954694972" lon="13.186854707115137"><ele>249.0</ele><time>2026-04-26T11:45:29.999Z</time></trkpt><trkpt lat="43.23670995579074" lon="13.18703254047354"><ele>249.0</ele><time>2026-04-26T11:45:30.999Z</time></trkpt><trkpt lat="43.23674539339943" lon="13.187218018996786"><ele>249.0</ele><time>2026-04-26T11:45:31.999Z</time></trkpt><trkpt lat="43.23678590948931" lon="13.18740871977798"><ele>249.0</ele><time>2026-04-26T11:45:32.999Z</time></trkpt><trkpt lat="43.2368304254046" lon="13.187610109637893"><ele>247.66666666666669</ele><time>2026-04-26T11:45:33.999Z</time></trkpt><trkpt lat="43.2368734287153" lon="13.187815163093205"><ele>246.33333333333334</ele><time>2026-04-26T11:45:34.999Z</time></trkpt><trkpt lat="43.23691578156151" lon="13.188022153621171"><ele>245.0</ele><time>2026-04-26T11:45:35.999Z</time></trkpt><trkpt lat="43.236966481710986" lon="13.188228778620864"><ele>244.5</ele><time>2026-04-26T11:45:36.999Z</time></trkpt><trkpt lat="43.23704050489607" lon="13.188416115719303"><ele>244.0</ele><time>2026-04-26T11:45:37.999Z</time></trkpt><trkpt lat="43.2371160544848" lon="13.18859429198791"><ele>243.5</ele><time>2026-04-26T11:45:38.999Z</time></trkpt><trkpt lat="43.23718143340927" lon="13.188755231505368"><ele>243.0</ele><time>2026-04-26T11:45:39.999Z</time></trkpt><trkpt lat="43.23722537401098" lon="13.188910838451033"><ele>243.0</ele><time>2026-04-26T11:45:40.999Z</time></trkpt><trkpt lat="43.23724709980257" lon="13.189051849047631"><ele>243.0</ele><time>2026-04-26T11:45:41.999Z</time></trkpt><trkpt lat="43.23724786473392" lon="13.189179350221115"><ele>243.0</ele><time>2026-04-26T11:45:42.999Z</time></trkpt><trkpt lat="43.23720987229423" lon="13.189279937851193"><ele>243.0</ele><time>2026-04-26T11:45:43.999Z</time></trkpt><trkpt lat="43.237174393031204" lon="13.189371467593396"><ele>243.0</ele><time>2026-04-26T11:45:44.999Z</time></trkpt><trkpt lat="43.23717268707922" lon="13.189485699320025"><ele>243.0</ele><time>2026-04-26T11:45:45.999Z</time></trkpt><trkpt lat="43.23721711290468" lon="13.189578240103348"><ele>243.0</ele><time>2026-04-26T11:45:46.999Z</time></trkpt><trkpt lat="43.23728719232684" lon="13.189617112237954"><ele>243.0</ele><time>2026-04-26T11:45:47.999Z</time></trkpt><trkpt lat="43.23737358228898" lon="13.189613684321634"><ele>243.0</ele><time>2026-04-26T11:45:48.999Z</time></trkpt><trkpt lat="43.237471077968436" lon="13.189600038348292"><ele>243.0</ele><time>2026-04-26T11:45:49.999Z</time></trkpt><trkpt lat="43.237583761408786" lon="13.189606479116414"><ele>243.0</ele><time>2026-04-26T11:45:50.999Z</time></trkpt><trkpt lat="43.23771524603422" lon="13.189617556512344"><ele>244.0</ele><time>2026-04-26T11:45:51.999Z</time></trkpt><trkpt lat="43.23784679397801" lon="13.189608295166837"><ele>245.0</ele><time>2026-04-26T11:45:52.999Z</time></trkpt><trkpt lat="43.23798758154553" lon="13.189580868015515"><ele>246.0</ele><time>2026-04-26T11:45:53.999Z</time></trkpt><trkpt lat="43.23813397363238" lon="13.18952739938055"><ele>247.0</ele><time>2026-04-26T11:45:54.999Z</time></trkpt><trkpt lat="43.238278715029864" lon="13.189443754894585"><ele>249.33333333333331</ele><time>2026-04-26T11:45:55.999Z</time></trkpt><trkpt lat="43.238416181712175" lon="13.18933415706205"><ele>251.66666666666669</ele><time>2026-04-26T11:45:56.999Z</time></trkpt><trkpt lat="43.23854455100321" lon="13.189210118710909"><ele>254.0</ele><time>2026-04-26T11:45:57.999Z</time></trkpt><trkpt lat="43.23866404879217" lon="13.189080714984105"><ele>254.75</ele><time>2026-04-26T11:45:58.999Z</time></trkpt><trkpt lat="43.23877928256373" lon="13.188954285492537"><ele>255.5</ele><time>2026-04-26T11:45:59.999Z</time></trkpt><trkpt lat="43.23889221666641" lon="13.18883099267272"><ele>256.25</ele><time>2026-04-26T11:46:00.999Z</time></trkpt><trkpt lat="43.23900199442181" lon="13.188708714767662"><ele>257.0</ele><time>2026-04-26T11:46:01.999Z</time></trkpt><trkpt lat="43.239104922274365" lon="13.188593174485538"><ele>257.0</ele><time>2026-04-26T11:46:02.999Z</time></trkpt><trkpt lat="43.23920376402216" lon="13.188484258391057"><ele>257.0</ele><time>2026-04-26T11:46:03.999Z</time></trkpt><trkpt lat="43.23933213867758" lon="13.188347820678388"><ele>257.0</ele><time>2026-04-26T11:46:04.999Z</time></trkpt><trkpt lat="43.239440054459315" lon="13.18823050190833"><ele>257.0</ele><time>2026-04-26T11:46:05.999Z</time></trkpt><trkpt lat="43.239538684800365" lon="13.188122925266619"><ele>256.25</ele><time>2026-04-26T11:46:06.999Z</time></trkpt><trkpt lat="43.23963940049714" lon="13.188014962045745"><ele>255.5</ele><time>2026-04-26T11:46:07.999Z</time></trkpt><trkpt lat="43.23974297201729" lon="13.187904191569507"><ele>254.75</ele><time>2026-04-26T11:46:08.999Z</time></trkpt><trkpt lat="43.2398436761265" lon="13.187795264922155"><ele>254.0</ele><time>2026-04-26T11:46:09.999Z</time></trkpt><trkpt lat="43.239947651947865" lon="13.187686419785397"><ele>255.75</ele><time>2026-04-26T11:46:10.999Z</time></trkpt><trkpt lat="43.24006353157415" lon="13.187612149266364"><ele>257.5</ele><time>2026-04-26T11:46:11.999Z</time></trkpt><trkpt lat="43.240182264795074" lon="13.187528772666194"><ele>259.25</ele><time>2026-04-26T11:46:12.999Z</time></trkpt><trkpt lat="43.24031286974977" lon="13.1874491964862"><ele>261.0</ele><time>2026-04-26T11:46:13.999Z</time></trkpt><trkpt lat="43.24044954101516" lon="13.187384187491507"><ele>260.6666666666667</ele><time>2026-04-26T11:46:14.998Z</time></trkpt><trkpt lat="43.24059534290424" lon="13.18732939188566"><ele>260.33333333333337</ele><time>2026-04-26T11:46:15.998Z</time></trkpt><trkpt lat="43.240746661128526" lon="13.187281881375624"><ele>260.0</ele><time>2026-04-26T11:46:16.998Z</time></trkpt><trkpt lat="43.2409061140248" lon="13.187235088295736"><ele>262.33333333333337</ele><time>2026-04-26T11:46:17.998Z</time></trkpt><trkpt lat="43.24106587200659" lon="13.187171934047605"><ele>264.6666666666667</ele><time>2026-04-26T11:46:18.998Z</time></trkpt><trkpt lat="43.24122963464298" lon="13.187135080823918"><ele>267.0</ele><time>2026-04-26T11:46:19.998Z</time></trkpt><trkpt lat="43.241389830519516" lon="13.187092618703982"><ele>267.3333333333333</ele><time>2026-04-26T11:46:20.998Z</time></trkpt><trkpt lat="43.24155456081094" lon="13.18705320979909"><ele>267.66666666666663</ele><time>2026-04-26T11:46:21.998Z</time></trkpt><trkpt lat="43.24172222520752" lon="13.187011577772926"><ele>268.0</ele><time>2026-04-26T11:46:22.998Z</time></trkpt><trkpt lat="43.24189325976683" lon="13.186971518075877"><ele>268.0</ele><time>2026-04-26T11:46:23.998Z</time></trkpt><trkpt lat="43.24207067065056" lon="13.186922297794043"><ele>268.0</ele><time>2026-04-26T11:46:24.998Z</time></trkpt><trkpt lat="43.2422438775802" lon="13.186881414045025"><ele>268.0</ele><time>2026-04-26T11:46:25.998Z</time></trkpt><trkpt lat="43.24240852627541" lon="13.186851409482323"><ele>267.5</ele><time>2026-04-26T11:46:26.998Z</time></trkpt><trkpt lat="43.24255340077489" lon="13.186832660504106"><ele>267.0</ele><time>2026-04-26T11:46:27.998Z</time></trkpt><trkpt lat="43.24270706516238" lon="13.186837544245032"><ele>266.5</ele><time>2026-04-26T11:46:28.998Z</time></trkpt><trkpt lat="43.24285533467579" lon="13.186861229131633"><ele>266.0</ele><time>2026-04-26T11:46:29.998Z</time></trkpt><trkpt lat="43.24300299661642" lon="13.186901363523683"><ele>266.6666666666667</ele><time>2026-04-26T11:46:30.998Z</time></trkpt><trkpt lat="43.2431536485111" lon="13.186951928652125"><ele>267.3333333333333</ele><time>2026-04-26T11:46:31.998Z</time></trkpt><trkpt lat="43.243312500510704" lon="13.187019488974519"><ele>268.0</ele><time>2026-04-26T11:46:32.998Z</time></trkpt><trkpt lat="43.24347943734635" lon="13.187097851767204"><ele>268.0</ele><time>2026-04-26T11:46:33.998Z</time></trkpt><trkpt lat="43.24364599885425" lon="13.187204721159839"><ele>268.0</ele><time>2026-04-26T11:46:34.998Z</time></trkpt><trkpt lat="43.24382754700579" lon="13.187297782623991"><ele>268.0</ele><time>2026-04-26T11:46:35.998Z</time></trkpt><trkpt lat="43.244016525234436" lon="13.18739720009136"><ele>267.0</ele><time>2026-04-26T11:46:36.998Z</time></trkpt><trkpt lat="43.244208149101546" lon="13.187498009405294"><ele>266.0</ele><time>2026-04-26T11:46:37.998Z</time></trkpt><trkpt lat="43.24440808437942" lon="13.187603191184822"><ele>265.0</ele><time>2026-04-26T11:46:38.998Z</time></trkpt><trkpt lat="43.24460682496287" lon="13.187709286235563"><ele>265.3333333333333</ele><time>2026-04-26T11:46:39.998Z</time></trkpt><trkpt lat="43.24481213587036" lon="13.187798526670274"><ele>265.6666666666667</ele><time>2026-04-26T11:46:40.998Z</time></trkpt><trkpt lat="43.24501422386028" lon="13.187918561294257"><ele>266.0</ele><time>2026-04-26T11:46:41.998Z</time></trkpt><trkpt lat="43.24522167120268" lon="13.18803450526505"><ele>266.0</ele><time>2026-04-26T11:46:42.998Z</time></trkpt><trkpt lat="43.24543391454526" lon="13.188141819159824"><ele>266.0</ele><time>2026-04-26T11:46:43.998Z</time></trkpt><trkpt lat="43.24564654340585" lon="13.188253415786297"><ele>262.0</ele><time>2026-04-26T11:46:44.998Z</time></trkpt><trkpt lat="43.245861518970074" lon="13.188369453489388"><ele>258.0</ele><time>2026-04-26T11:46:45.998Z</time></trkpt><trkpt lat="43.24607471671202" lon="13.188482654683975"><ele>258.0</ele><time>2026-04-26T11:46:46.998Z</time></trkpt><trkpt lat="43.24628546001866" lon="13.188592689942464"><ele>258.0</ele><time>2026-04-26T11:46:47.999Z</time></trkpt><trkpt lat="43.24649454371288" lon="13.188702681830286"><ele>258.0</ele><time>2026-04-26T11:46:48.999Z</time></trkpt><trkpt lat="43.24670313132679" lon="13.188815182656844"><ele>257.3333333333333</ele><time>2026-04-26T11:46:49.999Z</time></trkpt><trkpt lat="43.24691280646782" lon="13.188928966635316"><ele>256.66666666666663</ele><time>2026-04-26T11:46:50.999Z</time></trkpt><trkpt lat="43.24712109416206" lon="13.18903879349106"><ele>256.0</ele><time>2026-04-26T11:46:51.999Z</time></trkpt><trkpt lat="43.247328169046156" lon="13.189145515088748"><ele>256.0</ele><time>2026-04-26T11:46:52.999Z</time></trkpt><trkpt lat="43.24753425508906" lon="13.189248912517483"><ele>256.0</ele><time>2026-04-26T11:46:53.999Z</time></trkpt><trkpt lat="43.24773516229062" lon="13.189375688289555"><ele>256.0</ele><time>2026-04-26T11:46:54.999Z</time></trkpt><trkpt lat="43.24793608287935" lon="13.189481945388476"><ele>255.33333333333331</ele><time>2026-04-26T11:46:55.999Z</time></trkpt><trkpt lat="43.24813674583184" lon="13.189587457994335"><ele>254.66666666666669</ele><time>2026-04-26T11:46:56.999Z</time></trkpt><trkpt lat="43.24834088360984" lon="13.189671394732114"><ele>254.0</ele><time>2026-04-26T11:46:57.999Z</time></trkpt><trkpt lat="43.248541687672066" lon="13.189779793704988"><ele>254.0</ele><time>2026-04-26T11:46:58.999Z</time></trkpt><trkpt lat="43.248740694301" lon="13.189881414454593"><ele>254.0</ele><time>2026-04-26T11:46:59.999Z</time></trkpt><trkpt lat="43.24893419335488" lon="13.190006892921959"><ele>254.0</ele><time>2026-04-26T11:47:00.999Z</time></trkpt><trkpt lat="43.249135036434716" lon="13.190089756279196"><ele>254.0</ele><time>2026-04-26T11:47:01.999Z</time></trkpt><trkpt lat="43.24933231233079" lon="13.190194130398135"><ele>254.0</ele><time>2026-04-26T11:47:02.999Z</time></trkpt><trkpt lat="43.24952804277792" lon="13.190299983751167"><ele>254.0</ele><time>2026-04-26T11:47:03.999Z</time></trkpt><trkpt lat="43.24972118849488" lon="13.190406455194845"><ele>254.0</ele><time>2026-04-26T11:47:04.999Z</time></trkpt><trkpt lat="43.24991175992438" lon="13.190511856905443"><ele>254.0</ele><time>2026-04-26T11:47:05.999Z</time></trkpt><trkpt lat="43.250104909401834" lon="13.190612095352035"><ele>254.0</ele><time>2026-04-26T11:47:06.999Z</time></trkpt><trkpt lat="43.2502975188692" lon="13.190710596264715"><ele>253.66666666666669</ele><time>2026-04-26T11:47:07.999Z</time></trkpt><trkpt lat="43.25048748979702" lon="13.190809801967834"><ele>253.33333333333331</ele><time>2026-04-26T11:47:08.999Z</time></trkpt><trkpt lat="43.25067631303997" lon="13.19091015988886"><ele>253.0</ele><time>2026-04-26T11:47:09.999Z</time></trkpt><trkpt lat="43.250864870641074" lon="13.191009643286447"><ele>254.0</ele><time>2026-04-26T11:47:10.999Z</time></trkpt><trkpt lat="43.251054059036264" lon="13.19111071910124"><ele>255.0</ele><time>2026-04-26T11:47:11.999Z</time></trkpt><trkpt lat="43.25124236750784" lon="13.191212399619113"><ele>256.0</ele><time>2026-04-26T11:47:12.999Z</time></trkpt><trkpt lat="43.25143152073293" lon="13.191310866608156"><ele>256.0</ele><time>2026-04-26T11:47:13.999Z</time></trkpt><trkpt lat="43.25161852512585" lon="13.19141227516826"><ele>256.0</ele><time>2026-04-26T11:47:14.999Z</time></trkpt><trkpt lat="43.251807294150666" lon="13.191512119249849"><ele>256.0</ele><time>2026-04-26T11:47:15.999Z</time></trkpt><trkpt lat="43.251996161668245" lon="13.191614387837479"><ele>256.0</ele><time>2026-04-26T11:47:16.999Z</time></trkpt><trkpt lat="43.25218456775331" lon="13.191716047232955"><ele>256.0</ele><time>2026-04-26T11:47:17.999Z</time></trkpt><trkpt lat="43.252376687789784" lon="13.191813814567602"><ele>256.0</ele><time>2026-04-26T11:47:18.999Z</time></trkpt><trkpt lat="43.25256971591437" lon="13.191912852236609"><ele>256.0</ele><time>2026-04-26T11:47:19.999Z</time></trkpt><trkpt lat="43.2527589653377" lon="13.192013311558357"><ele>256.0</ele><time>2026-04-26T11:47:20.999Z</time></trkpt><trkpt lat="43.25295014028212" lon="13.192115551042304"><ele>256.0</ele><time>2026-04-26T11:47:21.999Z</time></trkpt><trkpt lat="43.25314463637591" lon="13.192215167982491"><ele>256.0</ele><time>2026-04-26T11:47:22.999Z</time></trkpt><trkpt lat="43.25334009154591" lon="13.192318620091537"><ele>256.0</ele><time>2026-04-26T11:47:23.999Z</time></trkpt><trkpt lat="43.25352686685827" lon="13.19244119162682"><ele>256.0</ele><time>2026-04-26T11:47:24.999Z</time></trkpt><trkpt lat="43.253719399552814" lon="13.192543949454338"><ele>256.3333333333333</ele><time>2026-04-26T11:47:25.999Z</time></trkpt><trkpt lat="43.25390028318406" lon="13.192639196758458"><ele>256.6666666666667</ele><time>2026-04-26T11:47:26.999Z</time></trkpt><trkpt lat="43.25407850230055" lon="13.192710170180645"><ele>257.0</ele><time>2026-04-26T11:47:27.999Z</time></trkpt><trkpt lat="43.254242475147926" lon="13.192799286458715"><ele>257.0</ele><time>2026-04-26T11:47:28.999Z</time></trkpt><trkpt lat="43.25440754373576" lon="13.19289010656776"><ele>257.0</ele><time>2026-04-26T11:47:29.999Z</time></trkpt><trkpt lat="43.254571191512426" lon="13.192975825623224"><ele>257.0</ele><time>2026-04-26T11:47:30.999Z</time></trkpt><trkpt lat="43.2547354628308" lon="13.19306018589023"><ele>257.0</ele><time>2026-04-26T11:47:31.999Z</time></trkpt><trkpt lat="43.25489541776325" lon="13.193146672664994"><ele>257.0</ele><time>2026-04-26T11:47:32.999Z</time></trkpt><trkpt lat="43.25506118406816" lon="13.193235446786247"><ele>257.0</ele><time>2026-04-26T11:47:33.999Z</time></trkpt><trkpt lat="43.25522295369361" lon="13.193319974764586"><ele>257.0</ele><time>2026-04-26T11:47:34.999Z</time></trkpt><trkpt lat="43.25538788105852" lon="13.193406767901331"><ele>257.0</ele><time>2026-04-26T11:47:35.999Z</time></trkpt><trkpt lat="43.255557383450636" lon="13.193499577391593"><ele>257.0</ele><time>2026-04-26T11:47:36.999Z</time></trkpt><trkpt lat="43.25571721048645" lon="13.193581616861842"><ele>257.0</ele><time>2026-04-26T11:47:37.999Z</time></trkpt><trkpt lat="43.255868523486654" lon="13.19365943334272"><ele>257.0</ele><time>2026-04-26T11:47:38.999Z</time></trkpt><trkpt lat="43.256012332136656" lon="13.193728917540707"><ele>257.0</ele><time>2026-04-26T11:47:39.999Z</time></trkpt><trkpt lat="43.256154897862224" lon="13.19380557906969"><ele>257.0</ele><time>2026-04-26T11:47:40.999Z</time></trkpt><trkpt lat="43.25629884409944" lon="13.193880549886806"><ele>257.0</ele><time>2026-04-26T11:47:41.999Z</time></trkpt><trkpt lat="43.25644383651829" lon="13.193957399097988"><ele>257.0</ele><time>2026-04-26T11:47:42.999Z</time></trkpt><trkpt lat="43.25658608459369" lon="13.194030817966278"><ele>256.75</ele><time>2026-04-26T11:47:43.999Z</time></trkpt><trkpt lat="43.25672587305171" lon="13.194109370070041"><ele>256.5</ele><time>2026-04-26T11:47:44.999Z</time></trkpt><trkpt lat="43.256858530424644" lon="13.194177318768062"><ele>256.25</ele><time>2026-04-26T11:47:45.999Z</time></trkpt><trkpt lat="43.25698998584643" lon="13.194247969400857"><ele>256.0</ele><time>2026-04-26T11:47:46.999Z</time></trkpt><trkpt lat="43.25712384765254" lon="13.194317910466765"><ele>256.0</ele><time>2026-04-26T11:47:47.999Z</time></trkpt><trkpt lat="43.25726190771646" lon="13.194389372410754"><ele>256.0</ele><time>2026-04-26T11:47:48.999Z</time></trkpt><trkpt lat="43.25740397400942" lon="13.194461627434874"><ele>256.0</ele><time>2026-04-26T11:47:49.999Z</time></trkpt><trkpt lat="43.25755891555138" lon="13.19451489060272"><ele>257.3333333333333</ele><time>2026-04-26T11:47:50.999Z</time></trkpt><trkpt lat="43.257706061371806" lon="13.19456837652729"><ele>258.6666666666667</ele><time>2026-04-26T11:47:51.999Z</time></trkpt><trkpt lat="43.25786659572604" lon="13.194593668449324"><ele>260.0</ele><time>2026-04-26T11:47:52.999Z</time></trkpt><trkpt lat="43.258033352923555" lon="13.194603091826002"><ele>260.33333333333337</ele><time>2026-04-26T11:47:53.999Z</time></trkpt><trkpt lat="43.258204419161316" lon="13.19462327955205"><ele>260.6666666666667</ele><time>2026-04-26T11:47:54.999Z</time></trkpt><trkpt lat="43.25837852274803" lon="13.194649794072127"><ele>261.0</ele><time>2026-04-26T11:47:55.999Z</time></trkpt><trkpt lat="43.2585502427336" lon="13.194675842950002"><ele>261.0</ele><time>2026-04-26T11:47:56.999Z</time></trkpt><trkpt lat="43.25873306899916" lon="13.194699358792807"><ele>261.0</ele><time>2026-04-26T11:47:57.999Z</time></trkpt><trkpt lat="43.25891708934747" lon="13.194720519284537"><ele>261.0</ele><time>2026-04-26T11:47:58.999Z</time></trkpt><trkpt lat="43.25910477970508" lon="13.194748289005888"><ele>260.0</ele><time>2026-04-26T11:47:59.999Z</time></trkpt><trkpt lat="43.25929471211993" lon="13.19477962339836"><ele>259.0</ele><time>2026-04-26T11:48:00.999Z</time></trkpt><trkpt lat="43.25947771034779" lon="13.194808870243133"><ele>258.0</ele><time>2026-04-26T11:48:01.999Z</time></trkpt><trkpt lat="43.259656037599974" lon="13.194811243085844"><ele>257.3333333333333</ele><time>2026-04-26T11:48:02.999Z</time></trkpt><trkpt lat="43.259827124210226" lon="13.194767746413707"><ele>256.66666666666663</ele><time>2026-04-26T11:48:03.999Z</time></trkpt><trkpt lat="43.2599875614722" lon="13.194686439722929"><ele>256.0</ele><time>2026-04-26T11:48:04.999Z</time></trkpt><trkpt lat="43.260140188286805" lon="13.194604007384093"><ele>256.0</ele><time>2026-04-26T11:48:05.999Z</time></trkpt><trkpt lat="43.260289735631225" lon="13.194528457436713"><ele>256.0</ele><time>2026-04-26T11:48:06.999Z</time></trkpt><trkpt lat="43.2604344151719" lon="13.194457054388089"><ele>256.0</ele><time>2026-04-26T11:48:07.999Z</time></trkpt><trkpt lat="43.26057581739849" lon="13.194388825673606"><ele>256.5</ele><time>2026-04-26T11:48:08.999Z</time></trkpt><trkpt lat="43.2607130879353" lon="13.194323640101238"><ele>257.0</ele><time>2026-04-26T11:48:09.999Z</time></trkpt><trkpt lat="43.26084397908055" lon="13.19426509810681"><ele>257.5</ele><time>2026-04-26T11:48:10.998Z</time></trkpt><trkpt lat="43.26097131003696" lon="13.194208838150065"><ele>258.0</ele><time>2026-04-26T11:48:11.998Z</time></trkpt><trkpt lat="43.26109956130899" lon="13.19415211800603"><ele>258.0</ele><time>2026-04-26T11:48:12.998Z</time></trkpt><trkpt lat="43.261229887277096" lon="13.19409163787212"><ele>258.0</ele><time>2026-04-26T11:48:13.998Z</time></trkpt><trkpt lat="43.261362350894" lon="13.194034558307928"><ele>258.0</ele><time>2026-04-26T11:48:14.998Z</time></trkpt><trkpt lat="43.2614984242522" lon="13.193986584758438"><ele>258.0</ele><time>2026-04-26T11:48:15.998Z</time></trkpt><trkpt lat="43.26163973530207" lon="13.193949231966622"><ele>261.3333333333333</ele><time>2026-04-26T11:48:16.998Z</time></trkpt><trkpt lat="43.26178737967588" lon="13.19392314971704"><ele>264.66666666666663</ele><time>2026-04-26T11:48:17.998Z</time></trkpt><trkpt lat="43.2619434946789" lon="13.193899540594034"><ele>268.0</ele><time>2026-04-26T11:48:18.998Z</time></trkpt><trkpt lat="43.26210149088865" lon="13.193870856905953"><ele>268.0</ele><time>2026-04-26T11:48:19.998Z</time></trkpt><trkpt lat="43.26226614876352" lon="13.193843227236924"><ele>268.0</ele><time>2026-04-26T11:48:20.998Z</time></trkpt><trkpt lat="43.26243460394545" lon="13.19381735369066"><ele>268.0</ele><time>2026-04-26T11:48:21.998Z</time></trkpt><trkpt lat="43.26259747846456" lon="13.193797124599172"><ele>267.0</ele><time>2026-04-26T11:48:22.998Z</time></trkpt><trkpt lat="43.2627536963407" lon="13.193776693184882"><ele>266.0</ele><time>2026-04-26T11:48:23.998Z</time></trkpt><trkpt lat="43.262900526109966" lon="13.193752568520587"><ele>265.0</ele><time>2026-04-26T11:48:24.998Z</time></trkpt><trkpt lat="43.26304321335877" lon="13.193729389603893"><ele>264.0</ele><time>2026-04-26T11:48:25.998Z</time></trkpt><trkpt lat="43.263185425789" lon="13.1936911268632"><ele>261.6666666666667</ele><time>2026-04-26T11:48:26.998Z</time></trkpt><trkpt lat="43.263322584378805" lon="13.193618143196863"><ele>259.33333333333337</ele><time>2026-04-26T11:48:27.998Z</time></trkpt><trkpt lat="43.26345579687985" lon="13.193501105170588"><ele>257.0</ele><time>2026-04-26T11:48:28.998Z</time></trkpt><trkpt lat="43.2635847857151" lon="13.193361781072594"><ele>257.0</ele><time>2026-04-26T11:48:29.998Z</time></trkpt><trkpt lat="43.263717627199604" lon="13.193220729995328"><ele>257.0</ele><time>2026-04-26T11:48:30.998Z</time></trkpt><trkpt lat="43.26385063414127" lon="13.193081041934738"><ele>257.0</ele><time>2026-04-26T11:48:31.998Z</time></trkpt><trkpt lat="43.26398640215178" lon="13.19294157367705"><ele>256.33333333333337</ele><time>2026-04-26T11:48:32.998Z</time></trkpt><trkpt lat="43.264118759941816" lon="13.19281370029613"><ele>255.66666666666669</ele><time>2026-04-26T11:48:33.998Z</time></trkpt><trkpt lat="43.26424910017343" lon="13.19268793080961"><ele>255.0</ele><time>2026-04-26T11:48:34.998Z</time></trkpt><trkpt lat="43.26437472152077" lon="13.192575104831786"><ele>255.0</ele><time>2026-04-26T11:48:35.998Z</time></trkpt><trkpt lat="43.26450568299705" lon="13.19247423078511"><ele>255.0</ele><time>2026-04-26T11:48:36.998Z</time></trkpt><trkpt lat="43.264650452149894" lon="13.19239380628505"><ele>255.0</ele><time>2026-04-26T11:48:37.998Z</time></trkpt><trkpt lat="43.26479521427872" lon="13.192317530679336"><ele>255.66666666666669</ele><time>2026-04-26T11:48:38.998Z</time></trkpt><trkpt lat="43.26494356732409" lon="13.192233065743565"><ele>256.33333333333337</ele><time>2026-04-26T11:48:39.998Z</time></trkpt><trkpt lat="43.265088466136994" lon="13.192141949167759"><ele>257.0</ele><time>2026-04-26T11:48:40.998Z</time></trkpt><trkpt lat="43.26523014112769" lon="13.19205182458018"><ele>257.0</ele><time>2026-04-26T11:48:41.998Z</time></trkpt><trkpt lat="43.26536286260535" lon="13.191976921384757"><ele>257.0</ele><time>2026-04-26T11:48:42.998Z</time></trkpt><trkpt lat="43.265496484258826" lon="13.191903839444363"><ele>257.0</ele><time>2026-04-26T11:48:43.998Z</time></trkpt><trkpt lat="43.26563081070453" lon="13.191824091615965"><ele>257.0</ele><time>2026-04-26T11:48:44.998Z</time></trkpt><trkpt lat="43.26576571706935" lon="13.191736807044332"><ele>258.33333333333337</ele><time>2026-04-26T11:48:45.998Z</time></trkpt><trkpt lat="43.26590075154095" lon="13.191648175428048"><ele>259.6666666666667</ele><time>2026-04-26T11:48:46.998Z</time></trkpt><trkpt lat="43.266038570011354" lon="13.191558953473068"><ele>261.0</ele><time>2026-04-26T11:48:47.998Z</time></trkpt><trkpt lat="43.26617995609908" lon="13.19147157939668"><ele>265.0</ele><time>2026-04-26T11:48:48.998Z</time></trkpt><trkpt lat="43.26631844556169" lon="13.19138256368084"><ele>269.0</ele><time>2026-04-26T11:48:49.998Z</time></trkpt><trkpt lat="43.266461726279594" lon="13.191288127278124"><ele>273.0</ele><time>2026-04-26T11:48:50.998Z</time></trkpt><trkpt lat="43.26660197705118" lon="13.191186146491585"><ele>274.0</ele><time>2026-04-26T11:48:51.998Z</time></trkpt><trkpt lat="43.266739424538486" lon="13.191072541713705"><ele>275.0</ele><time>2026-04-26T11:48:52.998Z</time></trkpt><trkpt lat="43.266874874348574" lon="13.190949156456105"><ele>276.0</ele><time>2026-04-26T11:48:53.999Z</time></trkpt><trkpt lat="43.26700933114307" lon="13.19082198208275"><ele>276.0</ele><time>2026-04-26T11:48:55Z</time></trkpt><trkpt lat="43.267145584546405" lon="13.190701141826795"><ele>276.0</ele><time>2026-04-26T11:48:55.999Z</time></trkpt><trkpt lat="43.26728175113247" lon="13.190569130944382"><ele>276.0</ele><time>2026-04-26T11:48:57Z</time></trkpt><trkpt lat="43.2674101338353" lon="13.190428762739323"><ele>279.0</ele><time>2026-04-26T11:48:58Z</time></trkpt><trkpt lat="43.2675209877813" lon="13.190283908792367"><ele>282.0</ele><time>2026-04-26T11:48:59Z</time></trkpt><trkpt lat="43.26762348006564" lon="13.19014092759687"><ele>285.0</ele><time>2026-04-26T11:49:00Z</time></trkpt><trkpt lat="43.26772853464811" lon="13.190006858380448"><ele>288.0</ele><time>2026-04-26T11:49:01Z</time></trkpt><trkpt lat="43.26784391353516" lon="13.189901125322061"><ele>285.0</ele><time>2026-04-26T11:49:02Z</time></trkpt><trkpt lat="43.267979143101485" lon="13.18984097192655"><ele>282.0</ele><time>2026-04-26T11:49:03Z</time></trkpt><trkpt lat="43.268121125786216" lon="13.189814787047613"><ele>279.0</ele><time>2026-04-26T11:49:04Z</time></trkpt><trkpt lat="43.268261609877904" lon="13.189821560905722"><ele>276.0</ele><time>2026-04-26T11:49:05Z</time></trkpt><trkpt lat="43.2684014656999" lon="13.189860855639465"><ele>276.0</ele><time>2026-04-26T11:49:06Z</time></trkpt><trkpt lat="43.268538414051925" lon="13.189922728804047"><ele>276.0</ele><time>2026-04-26T11:49:07Z</time></trkpt><trkpt lat="43.268671677434774" lon="13.189981324900206"><ele>276.0</ele><time>2026-04-26T11:49:08Z</time></trkpt><trkpt lat="43.268800113966925" lon="13.190000728015141"><ele>276.0</ele><time>2026-04-26T11:49:09Z</time></trkpt><trkpt lat="43.26893683779343" lon="13.189991505277685"><ele>276.25</ele><time>2026-04-26T11:49:10Z</time></trkpt><trkpt lat="43.269072477008756" lon="13.189955777715276"><ele>276.5</ele><time>2026-04-26T11:49:11Z</time></trkpt><trkpt lat="43.26920589046827" lon="13.189903989481412"><ele>276.75</ele><time>2026-04-26T11:49:12Z</time></trkpt><trkpt lat="43.269333723918876" lon="13.189834363789823"><ele>277.0</ele><time>2026-04-26T11:49:13Z</time></trkpt><trkpt lat="43.26945990734842" lon="13.189752569706853"><ele>280.25</ele><time>2026-04-26T11:49:14Z</time></trkpt><trkpt lat="43.26958456303618" lon="13.189668138213678"><ele>283.5</ele><time>2026-04-26T11:49:15Z</time></trkpt><trkpt lat="43.26971010829509" lon="13.189579595660362"><ele>286.75</ele><time>2026-04-26T11:49:15.999Z</time></trkpt><trkpt lat="43.26983549263134" lon="13.189483711800513"><ele>290.0</ele><time>2026-04-26T11:49:16.999Z</time></trkpt><trkpt lat="43.269957662037484" lon="13.189373332542344"><ele>290.0</ele><time>2026-04-26T11:49:17.999Z</time></trkpt><trkpt lat="43.270079617660905" lon="13.18925491539558"><ele>290.0</ele><time>2026-04-26T11:49:18.999Z</time></trkpt><trkpt lat="43.2701987688041" lon="13.189133357868858"><ele>290.0</ele><time>2026-04-26T11:49:19.999Z</time></trkpt><trkpt lat="43.27031137072433" lon="13.189010263478766"><ele>290.0</ele><time>2026-04-26T11:49:20.999Z</time></trkpt><trkpt lat="43.270417351859244" lon="13.18887705545315"><ele>289.5</ele><time>2026-04-26T11:49:21.999Z</time></trkpt><trkpt lat="43.270511421098" lon="13.188728529938848"><ele>289.0</ele><time>2026-04-26T11:49:22.999Z</time></trkpt><trkpt lat="43.27058819358971" lon="13.188569627272598"><ele>288.5</ele><time>2026-04-26T11:49:23.999Z</time></trkpt><trkpt lat="43.270659839956636" lon="13.18841408545238"><ele>288.0</ele><time>2026-04-26T11:49:24.999Z</time></trkpt><trkpt lat="43.27074252866671" lon="13.188279017473285"><ele>292.0</ele><time>2026-04-26T11:49:25.999Z</time></trkpt><trkpt lat="43.270840797554065" lon="13.188174112741999"><ele>296.0</ele><time>2026-04-26T11:49:26.999Z</time></trkpt><trkpt lat="43.27095403848038" lon="13.188083578118054"><ele>300.0</ele><time>2026-04-26T11:49:27.999Z</time></trkpt><trkpt lat="43.27107552041936" lon="13.188007914159005"><ele>304.0</ele><time>2026-04-26T11:49:28.999Z</time></trkpt><trkpt lat="43.27120314164057" lon="13.187941111517377"><ele>304.0</ele><time>2026-04-26T11:49:29.999Z</time></trkpt><trkpt lat="43.271337223565915" lon="13.18788079744318"><ele>304.0</ele><time>2026-04-26T11:49:30.999Z</time></trkpt><trkpt lat="43.27147412166341" lon="13.187817818526637"><ele>304.0</ele><time>2026-04-26T11:49:31.999Z</time></trkpt><trkpt lat="43.27161285479083" lon="13.187750205149392"><ele>304.0</ele><time>2026-04-26T11:49:32.999Z</time></trkpt><trkpt lat="43.271758089002454" lon="13.187678958489238"><ele>300.0</ele><time>2026-04-26T11:49:33.999Z</time></trkpt><trkpt lat="43.271904972297044" lon="13.187604826633308"><ele>296.0</ele><time>2026-04-26T11:49:34.999Z</time></trkpt><trkpt lat="43.27205390928218" lon="13.187529642358346"><ele>292.0</ele><time>2026-04-26T11:49:35.999Z</time></trkpt><trkpt lat="43.27220176471627" lon="13.187453545367394"><ele>290.66666666666663</ele><time>2026-04-26T11:49:36.999Z</time></trkpt><trkpt lat="43.27234352645352" lon="13.187361684550442"><ele>289.3333333333333</ele><time>2026-04-26T11:49:37.999Z</time></trkpt><trkpt lat="43.27248132578802" lon="13.18725276575656"><ele>288.0</ele><time>2026-04-26T11:49:38.999Z</time></trkpt><trkpt lat="43.27261550771804" lon="13.187128582119179"><ele>291.6666666666667</ele><time>2026-04-26T11:49:39.999Z</time></trkpt><trkpt lat="43.27275257152443" lon="13.187009333946968"><ele>295.33333333333337</ele><time>2026-04-26T11:49:40.999Z</time></trkpt><trkpt lat="43.272887632402494" lon="13.186894545843204"><ele>299.0</ele><time>2026-04-26T11:49:41.999Z</time></trkpt><trkpt lat="43.273020556494934" lon="13.18678220037361"><ele>297.0</ele><time>2026-04-26T11:49:42.999Z</time></trkpt><trkpt lat="43.27315374444632" lon="13.186672357723698"><ele>295.0</ele><time>2026-04-26T11:49:43.999Z</time></trkpt><trkpt lat="43.2732942730175" lon="13.186562888579765"><ele>293.0</ele><time>2026-04-26T11:49:44.999Z</time></trkpt><trkpt lat="43.27343389959046" lon="13.18645006999044"><ele>299.0</ele><time>2026-04-26T11:49:45.999Z</time></trkpt><trkpt lat="43.27357502892551" lon="13.186331830632266"><ele>305.0</ele><time>2026-04-26T11:49:46.999Z</time></trkpt><trkpt lat="43.273719211081456" lon="13.186209795794587"><ele>311.0</ele><time>2026-04-26T11:49:47.999Z</time></trkpt><trkpt lat="43.27386509487472" lon="13.186087192897661"><ele>306.6666666666667</ele><time>2026-04-26T11:49:48.999Z</time></trkpt><trkpt lat="43.27401216123172" lon="13.185962362221897"><ele>302.3333333333333</ele><time>2026-04-26T11:49:49.999Z</time></trkpt><trkpt lat="43.274157253614405" lon="13.185839454776753"><ele>298.0</ele><time>2026-04-26T11:49:50.999Z</time></trkpt><trkpt lat="43.27429166909526" lon="13.185726128939026"><ele>299.5</ele><time>2026-04-26T11:49:51.999Z</time></trkpt><trkpt lat="43.274414821099256" lon="13.185624192341619"><ele>301.0</ele><time>2026-04-26T11:49:52.999Z</time></trkpt><trkpt lat="43.274534731573766" lon="13.185525752833321"><ele>302.5</ele><time>2026-04-26T11:49:53.999Z</time></trkpt><trkpt lat="43.2746518717612" lon="13.185432818651108"><ele>304.0</ele><time>2026-04-26T11:49:54.999Z</time></trkpt><trkpt lat="43.274769822470205" lon="13.185337825590311"><ele>303.0</ele><time>2026-04-26T11:49:55.999Z</time></trkpt><trkpt lat="43.27489256882073" lon="13.185239919931021"><ele>302.0</ele><time>2026-04-26T11:49:56.999Z</time></trkpt><trkpt lat="43.275016170122754" lon="13.185137507435737"><ele>301.0</ele><time>2026-04-26T11:49:57.999Z</time></trkpt><trkpt lat="43.27514096968693" lon="13.185034667724771"><ele>300.0</ele><time>2026-04-26T11:49:58.999Z</time></trkpt><trkpt lat="43.27526584853661" lon="13.184935153355044"><ele>301.0</ele><time>2026-04-26T11:49:59.999Z</time></trkpt><trkpt lat="43.27539233457713" lon="13.184834650577475"><ele>302.0</ele><time>2026-04-26T11:50:00.999Z</time></trkpt><trkpt lat="43.275513877144995" lon="13.184735139902685"><ele>303.0</ele><time>2026-04-26T11:50:01.999Z</time></trkpt><trkpt lat="43.275628302381904" lon="13.184646504582304"><ele>304.0</ele><time>2026-04-26T11:50:02.999Z</time></trkpt><trkpt lat="43.27574420689322" lon="13.184569138981557"><ele>304.4</ele><time>2026-04-26T11:50:03.999Z</time></trkpt><trkpt lat="43.27586046649306" lon="13.18451537944808"><ele>304.79999999999995</ele><time>2026-04-26T11:50:04.999Z</time></trkpt><trkpt lat="43.27596970691157" lon="13.18450684994724"><ele>305.20000000000005</ele><time>2026-04-26T11:50:05.999Z</time></trkpt><trkpt lat="43.27607071102967" lon="13.184540814062778"><ele>305.6</ele><time>2026-04-26T11:50:06.999Z</time></trkpt><trkpt lat="43.27616336586057" lon="13.184592152331593"><ele>306.0</ele><time>2026-04-26T11:50:07.999Z</time></trkpt><trkpt lat="43.27625915462581" lon="13.184640246558402"><ele>306.0</ele><time>2026-04-26T11:50:08.999Z</time></trkpt><trkpt lat="43.27636062407438" lon="13.184684578622639"><ele>306.0</ele><time>2026-04-26T11:50:09.999Z</time></trkpt><trkpt lat="43.276476262484195" lon="13.184732742220167"><ele>306.0</ele><time>2026-04-26T11:50:10.999Z</time></trkpt><trkpt lat="43.276601069731214" lon="13.184781567012674"><ele>306.0</ele><time>2026-04-26T11:50:11.999Z</time></trkpt><trkpt lat="43.27673092429644" lon="13.18482902199737"><ele>305.0</ele><time>2026-04-26T11:50:12.999Z</time></trkpt><trkpt lat="43.27686727636019" lon="13.18487823588122"><ele>304.0</ele><time>2026-04-26T11:50:13.999Z</time></trkpt><trkpt lat="43.277011353733556" lon="13.184925057061744"><ele>303.0</ele><time>2026-04-26T11:50:14.999Z</time></trkpt><trkpt lat="43.27716190948416" lon="13.184965559634968"><ele>302.0</ele><time>2026-04-26T11:50:15.999Z</time></trkpt><trkpt lat="43.277313702519216" lon="13.184995043739512"><ele>302.0</ele><time>2026-04-26T11:50:16.999Z</time></trkpt><trkpt lat="43.27746388631408" lon="13.185012027015285"><ele>302.0</ele><time>2026-04-26T11:50:17.999Z</time></trkpt><trkpt lat="43.277614131101224" lon="13.185019723357357"><ele>302.0</ele><time>2026-04-26T11:50:18.999Z</time></trkpt><trkpt lat="43.27776617453954" lon="13.185019999925514"><ele>302.0</ele><time>2026-04-26T11:50:19.999Z</time></trkpt><trkpt lat="43.27791759345005" lon="13.185019141223073"><ele>302.0</ele><time>2026-04-26T11:50:20.999Z</time></trkpt><trkpt lat="43.278065606558684" lon="13.185016018069108"><ele>302.0</ele><time>2026-04-26T11:50:21.999Z</time></trkpt><trkpt lat="43.27821217101628" lon="13.184999579121815"><ele>302.0</ele><time>2026-04-26T11:50:22.999Z</time></trkpt><trkpt lat="43.27835476424937" lon="13.184951584503994"><ele>300.5</ele><time>2026-04-26T11:50:23.999Z</time></trkpt><trkpt lat="43.278492500870875" lon="13.184887643092573"><ele>299.0</ele><time>2026-04-26T11:50:24.999Z</time></trkpt><trkpt lat="43.27862780091326" lon="13.18482180245786"><ele>297.5</ele><time>2026-04-26T11:50:25.999Z</time></trkpt><trkpt lat="43.27876216684752" lon="13.184756002342079"><ele>296.0</ele><time>2026-04-26T11:50:26.999Z</time></trkpt><trkpt lat="43.27888994689165" lon="13.184692770125999"><ele>297.2</ele><time>2026-04-26T11:50:27.999Z</time></trkpt><trkpt lat="43.27900966399583" lon="13.18463828890183"><ele>298.40000000000003</ele><time>2026-04-26T11:50:28.999Z</time></trkpt><trkpt lat="43.279115523570766" lon="13.184588680179791"><ele>299.6</ele><time>2026-04-26T11:50:29.999Z</time></trkpt><trkpt lat="43.27921066049428" lon="13.184555335770119"><ele>300.8</ele><time>2026-04-26T11:50:30.998Z</time></trkpt><trkpt lat="43.27930438404299" lon="13.18455856592909"><ele>302.0</ele><time>2026-04-26T11:50:31.998Z</time></trkpt><trkpt lat="43.27939195771801" lon="13.184596024480308"><ele>302.0</ele><time>2026-04-26T11:50:32.998Z</time></trkpt><trkpt lat="43.279479520991075" lon="13.184647124332205"><ele>302.0</ele><time>2026-04-26T11:50:33.998Z</time></trkpt><trkpt lat="43.279575173123476" lon="13.184693566125988"><ele>302.0</ele><time>2026-04-26T11:50:34.998Z</time></trkpt><trkpt lat="43.279656994996486" lon="13.18472750344823"><ele>302.0</ele><time>2026-04-26T11:50:35.998Z</time></trkpt><trkpt lat="43.27972000064893" lon="13.184768427230997"><ele>302.0</ele><time>2026-04-26T11:50:36.998Z</time></trkpt><trkpt lat="43.279765631476835" lon="13.184832205322843"><ele>302.0</ele><time>2026-04-26T11:50:37.998Z</time></trkpt><trkpt lat="43.27977766593874" lon="13.184984024459668"><ele>299.83333333333337</ele><time>2026-04-26T11:50:39.998Z</time></trkpt><trkpt lat="43.27976057795314" lon="13.18508747311268"><ele>297.6666666666667</ele><time>2026-04-26T11:50:40.998Z</time></trkpt><trkpt lat="43.27974310567231" lon="13.18520472951869"><ele>295.5</ele><time>2026-04-26T11:50:41.998Z</time></trkpt><trkpt lat="43.27974253291585" lon="13.185319435831506"><ele>293.3333333333333</ele><time>2026-04-26T11:50:42.998Z</time></trkpt><trkpt lat="43.27976246993016" lon="13.18542319367715"><ele>291.16666666666663</ele><time>2026-04-26T11:50:43.998Z</time></trkpt><trkpt lat="43.27980416500562" lon="13.185509083237434"><ele>289.0</ele><time>2026-04-26T11:50:44.998Z</time></trkpt><trkpt lat="43.27987060373584" lon="13.185567877398759"><ele>289.0</ele><time>2026-04-26T11:50:45.998Z</time></trkpt><trkpt lat="43.2799494450056" lon="13.185604873105355"><ele>289.0</ele><time>2026-04-26T11:50:46.998Z</time></trkpt><trkpt lat="43.280035492386055" lon="13.185641761392482"><ele>289.0</ele><time>2026-04-26T11:50:47.998Z</time></trkpt><trkpt lat="43.280111337607366" lon="13.185719437639824"><ele>289.0</ele><time>2026-04-26T11:50:48.998Z</time></trkpt><trkpt lat="43.28016952961718" lon="13.185833560649654"><ele>289.0</ele><time>2026-04-26T11:50:49.998Z</time></trkpt><trkpt lat="43.280223791375114" lon="13.18595887491905"><ele>287.75</ele><time>2026-04-26T11:50:50.998Z</time></trkpt><trkpt lat="43.28028197147735" lon="13.186085137271085"><ele>286.5</ele><time>2026-04-26T11:50:51.998Z</time></trkpt><trkpt lat="43.28034962192781" lon="13.18620357175105"><ele>285.25</ele><time>2026-04-26T11:50:52.998Z</time></trkpt><trkpt lat="43.280435166451355" lon="13.186313164115456"><ele>284.0</ele><time>2026-04-26T11:50:53.998Z</time></trkpt><trkpt lat="43.280535110823536" lon="13.18641193428673"><ele>284.5</ele><time>2026-04-26T11:50:54.998Z</time></trkpt><trkpt lat="43.28063947174023" lon="13.186486147461954"><ele>285.0</ele><time>2026-04-26T11:50:55.998Z</time></trkpt><trkpt lat="43.28075466955831" lon="13.186538804937037"><ele>285.5</ele><time>2026-04-26T11:50:56.998Z</time></trkpt><trkpt lat="43.28087427096587" lon="13.186581385242217"><ele>286.0</ele><time>2026-04-26T11:50:57.998Z</time></trkpt><trkpt lat="43.28098874321154" lon="13.186625087082401"><ele>287.0</ele><time>2026-04-26T11:50:58.998Z</time></trkpt><trkpt lat="43.28108612743369" lon="13.186674959486915"><ele>288.0</ele><time>2026-04-26T11:51:00Z</time></trkpt><trkpt lat="43.281180979238215" lon="13.186726000851598"><ele>289.0</ele><time>2026-04-26T11:51:01Z</time></trkpt><trkpt lat="43.281274422060804" lon="13.186784467253332"><ele>290.0</ele><time>2026-04-26T11:51:02Z</time></trkpt><trkpt lat="43.28136665418212" lon="13.186856415389126"><ele>291.0</ele><time>2026-04-26T11:51:03Z</time></trkpt><trkpt lat="43.281461285549234" lon="13.186936517152605"><ele>291.0</ele><time>2026-04-26T11:51:04Z</time></trkpt><trkpt lat="43.28156177779942" lon="13.187013648387564"><ele>291.0</ele><time>2026-04-26T11:51:05Z</time></trkpt><trkpt lat="43.28166402649813" lon="13.187094472212095"><ele>291.0</ele><time>2026-04-26T11:51:06Z</time></trkpt><trkpt lat="43.2817617303878" lon="13.187179897039247"><ele>291.0</ele><time>2026-04-26T11:51:07Z</time></trkpt><trkpt lat="43.281841231903684" lon="13.18727764871009"><ele>293.1666666666667</ele><time>2026-04-26T11:51:08Z</time></trkpt><trkpt lat="43.28189475166189" lon="13.187391292370505"><ele>295.3333333333333</ele><time>2026-04-26T11:51:09Z</time></trkpt><trkpt lat="43.28191760773458" lon="13.18750842307191"><ele>297.5</ele><time>2026-04-26T11:51:10Z</time></trkpt><trkpt lat="43.281903716200766" lon="13.187615444061766"><ele>299.66666666666663</ele><time>2026-04-26T11:51:11Z</time></trkpt><trkpt lat="43.2818305887773" lon="13.187702942345778"><ele>301.8333333333333</ele><time>2026-04-26T11:51:12Z</time></trkpt><trkpt lat="43.281766475783" lon="13.187776341074445"><ele>304.0</ele><time>2026-04-26T11:51:13Z</time></trkpt><trkpt lat="43.28169990868698" lon="13.187859224291383"><ele>304.0</ele><time>2026-04-26T11:51:14Z</time></trkpt><trkpt lat="43.28164360077973" lon="13.187966836711364"><ele>304.0</ele><time>2026-04-26T11:51:15Z</time></trkpt><trkpt lat="43.28159684763493" lon="13.18808955427864"><ele>304.0</ele><time>2026-04-26T11:51:16Z</time></trkpt><trkpt lat="43.28156042203067" lon="13.188221232525649"><ele>304.0</ele><time>2026-04-26T11:51:17Z</time></trkpt><trkpt lat="43.28154722421583" lon="13.188354843052151"><ele>304.0</ele><time>2026-04-26T11:51:18Z</time></trkpt><trkpt lat="43.28155400842702" lon="13.188481315688266"><ele>305.59999999999997</ele><time>2026-04-26T11:51:19Z</time></trkpt><trkpt lat="43.28157628577671" lon="13.188605812836006"><ele>307.2</ele><time>2026-04-26T11:51:20Z</time></trkpt><trkpt lat="43.281620031788194" lon="13.18871914898506"><ele>308.79999999999995</ele><time>2026-04-26T11:51:21Z</time></trkpt><trkpt lat="43.28167959826273" lon="13.188819513447893"><ele>310.4</ele><time>2026-04-26T11:51:22Z</time></trkpt><trkpt lat="43.28175077619819" lon="13.188916633222941"><ele>312.0</ele><time>2026-04-26T11:51:23Z</time></trkpt><trkpt lat="43.28182696222878" lon="13.18901515352449"><ele>312.5</ele><time>2026-04-26T11:51:24Z</time></trkpt><trkpt lat="43.28190744323502" lon="13.189115593903887"><ele>313.0</ele><time>2026-04-26T11:51:25Z</time></trkpt><trkpt lat="43.28199170152115" lon="13.18921920605796"><ele>313.5</ele><time>2026-04-26T11:51:26Z</time></trkpt><trkpt lat="43.28207635472311" lon="13.189326734435568"><ele>314.0</ele><time>2026-04-26T11:51:27Z</time></trkpt><trkpt lat="43.28216828391722" lon="13.189441182592612"><ele>318.0</ele><time>2026-04-26T11:51:28Z</time></trkpt><trkpt lat="43.28227034537944" lon="13.189566625967638"><ele>322.0</ele><time>2026-04-26T11:51:29Z</time></trkpt><trkpt lat="43.28236894102387" lon="13.189685532175696"><ele>326.0</ele><time>2026-04-26T11:51:30Z</time></trkpt><trkpt lat="43.28247030663589" lon="13.189810343666279"><ele>330.0</ele><time>2026-04-26T11:51:31Z</time></trkpt><trkpt lat="43.28257542865594" lon="13.189942190327228"><ele>330.0</ele><time>2026-04-26T11:51:32Z</time></trkpt><trkpt lat="43.28268131609076" lon="13.190076992751987"><ele>330.0</ele><time>2026-04-26T11:51:33Z</time></trkpt><trkpt lat="43.28278532517126" lon="13.190212750253549"><ele>330.0</ele><time>2026-04-26T11:51:34Z</time></trkpt><trkpt lat="43.282884619926605" lon="13.190348867211052"><ele>330.0</ele><time>2026-04-26T11:51:34.999Z</time></trkpt><trkpt lat="43.282977579163045" lon="13.190490232218943"><ele>330.0</ele><time>2026-04-26T11:51:35.999Z</time></trkpt><trkpt lat="43.28306601465073" lon="13.19063523376469"><ele>330.0</ele><time>2026-04-26T11:51:36.999Z</time></trkpt><trkpt lat="43.28315188188946" lon="13.190777514336364"><ele>330.0</ele><time>2026-04-26T11:51:37.999Z</time></trkpt><trkpt lat="43.28323279725121" lon="13.190918411530841"><ele>330.0</ele><time>2026-04-26T11:51:38.999Z</time></trkpt><trkpt lat="43.28331019256468" lon="13.191055215886102"><ele>333.5</ele><time>2026-04-26T11:51:39.999Z</time></trkpt><trkpt lat="43.28339231000163" lon="13.191192902978969"><ele>337.0</ele><time>2026-04-26T11:51:40.999Z</time></trkpt><trkpt lat="43.28346119467734" lon="13.19133552828301"><ele>340.5</ele><time>2026-04-26T11:51:41.999Z</time></trkpt><trkpt lat="43.283534028064025" lon="13.19146607792194"><ele>344.0</ele><time>2026-04-26T11:51:42.999Z</time></trkpt><trkpt lat="43.2836082561283" lon="13.191581936361487"><ele>344.0</ele><time>2026-04-26T11:51:43.999Z</time></trkpt><trkpt lat="43.28366809359163" lon="13.191708048098743"><ele>344.0</ele><time>2026-04-26T11:51:44.999Z</time></trkpt><trkpt lat="43.2837314005528" lon="13.191830945177905"><ele>344.0</ele><time>2026-04-26T11:51:45.999Z</time></trkpt><trkpt lat="43.28379657649013" lon="13.191937704027161"><ele>344.0</ele><time>2026-04-26T11:51:46.999Z</time></trkpt><trkpt lat="43.28385364126526" lon="13.19203827550351"><ele>344.0</ele><time>2026-04-26T11:51:47.999Z</time></trkpt><trkpt lat="43.28391718995568" lon="13.192138777728129"><ele>347.1666666666667</ele><time>2026-04-26T11:51:48.999Z</time></trkpt><trkpt lat="43.28397921948154" lon="13.192222680380143"><ele>350.33333333333337</ele><time>2026-04-26T11:51:49.999Z</time></trkpt><trkpt lat="43.284038323901" lon="13.192283852478118"><ele>353.5</ele><time>2026-04-26T11:51:50.999Z</time></trkpt><trkpt lat="43.284100019025814" lon="13.192344672739452"><ele>356.6666666666667</ele><time>2026-04-26T11:51:51.999Z</time></trkpt><trkpt lat="43.28416823762718" lon="13.19240733863945"><ele>359.8333333333333</ele><time>2026-04-26T11:51:52.999Z</time></trkpt><trkpt lat="43.284243444419204" lon="13.192486431632119"><ele>363.0</ele><time>2026-04-26T11:51:53.999Z</time></trkpt><trkpt lat="43.28432695798816" lon="13.192567406211834"><ele>363.0</ele><time>2026-04-26T11:51:54.999Z</time></trkpt><trkpt lat="43.28440839715797" lon="13.19266404760833"><ele>363.0</ele><time>2026-04-26T11:51:55.999Z</time></trkpt><trkpt lat="43.28449924850414" lon="13.19274968694895"><ele>363.0</ele><time>2026-04-26T11:51:56.999Z</time></trkpt><trkpt lat="43.28459265751532" lon="13.192835253455598"><ele>363.0</ele><time>2026-04-26T11:51:57.999Z</time></trkpt><trkpt lat="43.28468646840015" lon="13.192918339058885"><ele>363.0</ele><time>2026-04-26T11:51:58.999Z</time></trkpt><trkpt lat="43.284787783540324" lon="13.192986563537994"><ele>365.25</ele><time>2026-04-26T11:51:59.999Z</time></trkpt><trkpt lat="43.28487824231469" lon="13.193085254369716"><ele>367.5</ele><time>2026-04-26T11:52:00.999Z</time></trkpt><trkpt lat="43.28497166366295" lon="13.193183556653155"><ele>369.75</ele><time>2026-04-26T11:52:01.999Z</time></trkpt><trkpt lat="43.285061199515475" lon="13.193272485075818"><ele>372.0</ele><time>2026-04-26T11:52:02.999Z</time></trkpt><trkpt lat="43.28515124157519" lon="13.193355339009377"><ele>372.0</ele><time>2026-04-26T11:52:03.999Z</time></trkpt><trkpt lat="43.285237407426926" lon="13.193434448451805"><ele>372.0</ele><time>2026-04-26T11:52:04.999Z</time></trkpt><trkpt lat="43.285318577402926" lon="13.19351673520405"><ele>372.0</ele><time>2026-04-26T11:52:05.999Z</time></trkpt><trkpt lat="43.28539050040066" lon="13.193601894091774"><ele>372.0</ele><time>2026-04-26T11:52:06.999Z</time></trkpt><trkpt lat="43.285450607035365" lon="13.19369410893802"><ele>372.0</ele><time>2026-04-26T11:52:07.999Z</time></trkpt><trkpt lat="43.285504485078505" lon="13.193788987422625"><ele>372.0</ele><time>2026-04-26T11:52:08.999Z</time></trkpt><trkpt lat="43.28555190039462" lon="13.193891077051527"><ele>372.0</ele><time>2026-04-26T11:52:09.999Z</time></trkpt><trkpt lat="43.28559451047745" lon="13.1939949036003"><ele>372.0</ele><time>2026-04-26T11:52:10.999Z</time></trkpt><trkpt lat="43.28564607225866" lon="13.194093709962557"><ele>372.0</ele><time>2026-04-26T11:52:11.999Z</time></trkpt><trkpt lat="43.28571094616719" lon="13.194187537596514"><ele>372.0</ele><time>2026-04-26T11:52:12.999Z</time></trkpt><trkpt lat="43.28578233363835" lon="13.194279264478984"><ele>375.0</ele><time>2026-04-26T11:52:13.999Z</time></trkpt><trkpt lat="43.28586144571264" lon="13.194369657540834"><ele>378.0</ele><time>2026-04-26T11:52:14.999Z</time></trkpt><trkpt lat="43.28593092057426" lon="13.194476682163607"><ele>381.0</ele><time>2026-04-26T11:52:15.999Z</time></trkpt><trkpt lat="43.28601106719841" lon="13.19459114094049"><ele>384.0</ele><time>2026-04-26T11:52:16.999Z</time></trkpt><trkpt lat="43.28609015094073" lon="13.194711091938467"><ele>387.0</ele><time>2026-04-26T11:52:17.999Z</time></trkpt><trkpt lat="43.286173088286425" lon="13.19483719105874"><ele>384.25</ele><time>2026-04-26T11:52:18.999Z</time></trkpt><trkpt lat="43.28625800892652" lon="13.19496032951102"><ele>381.5</ele><time>2026-04-26T11:52:19.999Z</time></trkpt><trkpt lat="43.28635711318182" lon="13.195071148971078"><ele>378.75</ele><time>2026-04-26T11:52:20.999Z</time></trkpt><trkpt lat="43.2864380417777" lon="13.195202102670445"><ele>376.0</ele><time>2026-04-26T11:52:21.999Z</time></trkpt><trkpt lat="43.286515847384514" lon="13.195331209447064"><ele>379.6</ele><time>2026-04-26T11:52:22.999Z</time></trkpt><trkpt lat="43.28659509445201" lon="13.195453803137125"><ele>383.20000000000005</ele><time>2026-04-26T11:52:23.999Z</time></trkpt><trkpt lat="43.28667556151924" lon="13.195560793495812"><ele>386.79999999999995</ele><time>2026-04-26T11:52:24.999Z</time></trkpt><trkpt lat="43.2867629378624" lon="13.19563078295354"><ele>390.4</ele><time>2026-04-26T11:52:25.999Z</time></trkpt><trkpt lat="43.28684512057308" lon="13.195665302554014"><ele>394.0</ele><time>2026-04-26T11:52:26.999Z</time></trkpt><trkpt lat="43.28692499293983" lon="13.195687543143329"><ele>394.00000000000006</ele><time>2026-04-26T11:52:27.999Z</time></trkpt><trkpt lat="43.28700930356627" lon="13.19571462633267"><ele>394.0</ele><time>2026-04-26T11:52:28.999Z</time></trkpt><trkpt lat="43.2871004312925" lon="13.19574518097061"><ele>394.0</ele><time>2026-04-26T11:52:29.999Z</time></trkpt><trkpt lat="43.2871884368222" lon="13.195778835896583"><ele>394.0</ele><time>2026-04-26T11:52:30.999Z</time></trkpt><trkpt lat="43.287251054115465" lon="13.195850028969723"><ele>394.00000000000006</ele><time>2026-04-26T11:52:31.999Z</time></trkpt><trkpt lat="43.28731023606373" lon="13.19589658569936"><ele>394.0</ele><time>2026-04-26T11:52:32.999Z</time></trkpt><trkpt lat="43.28736577336647" lon="13.195940708832815"><ele>398.2</ele><time>2026-04-26T11:52:33.999Z</time></trkpt><trkpt lat="43.28744011831025" lon="13.195987383141357"><ele>402.4</ele><time>2026-04-26T11:52:35.999Z</time></trkpt><trkpt lat="43.287494811231674" lon="13.196044578201763"><ele>406.6</ele><time>2026-04-26T11:52:37.999Z</time></trkpt><trkpt lat="43.287618334962815" lon="13.196119969229226"><ele>410.8</ele><time>2026-04-26T11:52:39.999Z</time></trkpt><trkpt lat="43.28767150351095" lon="13.196231304623815"><ele>415.0</ele><time>2026-04-26T11:52:40.999Z</time></trkpt><trkpt lat="43.287754678823624" lon="13.196311079873938"><ele>415.0</ele><time>2026-04-26T11:52:41.999Z</time></trkpt><trkpt lat="43.28782779568773" lon="13.196414793071217"><ele>415.0</ele><time>2026-04-26T11:52:42.999Z</time></trkpt><trkpt lat="43.28789755132195" lon="13.196525425196752"><ele>415.0</ele><time>2026-04-26T11:52:43.999Z</time></trkpt><trkpt lat="43.287966543119204" lon="13.196630535976128"><ele>415.0</ele><time>2026-04-26T11:52:44.999Z</time></trkpt><trkpt lat="43.28803581114674" lon="13.19673519821029"><ele>415.0</ele><time>2026-04-26T11:52:45.999Z</time></trkpt><trkpt lat="43.28810680189399" lon="13.19682360506703"><ele>415.1666666666667</ele><time>2026-04-26T11:52:46.998Z</time></trkpt><trkpt lat="43.288178207159895" lon="13.19689888515214"><ele>415.33333333333337</ele><time>2026-04-26T11:52:47.998Z</time></trkpt><trkpt lat="43.28823947255523" lon="13.196952573014096"><ele>415.5</ele><time>2026-04-26T11:52:48.998Z</time></trkpt><trkpt lat="43.28831539594598" lon="13.197062853728"><ele>415.66666666666663</ele><time>2026-04-26T11:52:50.998Z</time></trkpt><trkpt lat="43.288365536748394" lon="13.197120174665391"><ele>415.8333333333333</ele><time>2026-04-26T11:52:51.998Z</time></trkpt><trkpt lat="43.28841808335897" lon="13.197184455701668"><ele>416.0</ele><time>2026-04-26T11:52:52.998Z</time></trkpt><trkpt lat="43.28847927480445" lon="13.197259850794984"><ele>414.49999999999994</ele><time>2026-04-26T11:52:53.998Z</time></trkpt><trkpt lat="43.28854499113476" lon="13.197342946377589"><ele>413.0</ele><time>2026-04-26T11:52:54.998Z</time></trkpt><trkpt lat="43.288606526187685" lon="13.197424961450615"><ele>411.5</ele><time>2026-04-26T11:52:55.998Z</time></trkpt><trkpt lat="43.28867762113014" lon="13.197502357853468"><ele>410.0</ele><time>2026-04-26T11:52:56.998Z</time></trkpt><trkpt lat="43.288733246901444" lon="13.197607003089368"><ele>408.49999999999994</ele><time>2026-04-26T11:52:57.998Z</time></trkpt><trkpt lat="43.28878086769923" lon="13.197705526600515"><ele>407.0</ele><time>2026-04-26T11:52:58.998Z</time></trkpt><trkpt lat="43.28881686600085" lon="13.19780059570466"><ele>406.99999999999994</ele><time>2026-04-26T11:52:59.998Z</time></trkpt><trkpt lat="43.28884658286011" lon="13.197894607217773"><ele>407.0</ele><time>2026-04-26T11:53:00.998Z</time></trkpt><trkpt lat="43.288868736030565" lon="13.19799508118689"><ele>407.0</ele><time>2026-04-26T11:53:01.998Z</time></trkpt><trkpt lat="43.28888917869013" lon="13.198107612485966"><ele>407.0</ele><time>2026-04-26T11:53:02.998Z</time></trkpt><trkpt lat="43.2889076509612" lon="13.198226948858576"><ele>406.99999999999994</ele><time>2026-04-26T11:53:03.998Z</time></trkpt><trkpt lat="43.28892866038569" lon="13.198347703372725"><ele>407.0</ele><time>2026-04-26T11:53:04.998Z</time></trkpt><trkpt lat="43.28894239958495" lon="13.198440196509024"><ele>409.8</ele><time>2026-04-26T11:53:06Z</time></trkpt><trkpt lat="43.28896551991095" lon="13.198587241206523"><ele>412.6</ele><time>2026-04-26T11:53:08Z</time></trkpt><trkpt lat="43.28904022776284" lon="13.198679873117173"><ele>415.40000000000003</ele><time>2026-04-26T11:53:10Z</time></trkpt><trkpt lat="43.28916698436681" lon="13.198729323003866"><ele>418.20000000000005</ele><time>2026-04-26T11:53:12Z</time></trkpt><trkpt lat="43.28923987111083" lon="13.198714798394409"><ele>421.0</ele><time>2026-04-26T11:53:13Z</time></trkpt><trkpt lat="43.28930878647596" lon="13.198643636809429"><ele>421.0</ele><time>2026-04-26T11:53:15Z</time></trkpt><trkpt lat="43.28939224515577" lon="13.198614888037516"><ele>421.0</ele><time>2026-04-26T11:53:17Z</time></trkpt><trkpt lat="43.28946100048403" lon="13.198680553800184"><ele>421.0</ele><time>2026-04-26T11:53:18Z</time></trkpt><trkpt lat="43.28955528834709" lon="13.198641515942407"><ele>421.0</ele><time>2026-04-26T11:53:20Z</time></trkpt><trkpt lat="43.289652592357456" lon="13.1986063562064"><ele>421.0</ele><time>2026-04-26T11:53:22Z</time></trkpt><trkpt lat="43.28976089927783" lon="13.198547313585085"><ele>431.0</ele><time>2026-04-26T11:53:24Z</time></trkpt><trkpt lat="43.289820257250334" lon="13.198510281421674"><ele>431.0</ele><time>2026-04-26T11:53:25Z</time></trkpt><trkpt lat="43.28991838091371" lon="13.1984347260261"><ele>431.0</ele><time>2026-04-26T11:53:27Z</time></trkpt><trkpt lat="43.28996950538838" lon="13.198378300267619"><ele>431.0</ele><time>2026-04-26T11:53:29Z</time></trkpt><trkpt lat="43.29002282133541" lon="13.198319772371384"><ele>431.0</ele><time>2026-04-26T11:53:33Z</time></trkpt></trkseg><trkseg><trkpt lat="43.29013083606344" lon="13.198321597807887"><ele>430.99999999999994</ele><time>2026-04-26T12:19:01.999Z</time></trkpt><trkpt lat="43.29021994871573" lon="13.198334041332018"><ele>431.0</ele><time>2026-04-26T12:19:03.999Z</time></trkpt><trkpt lat="43.29030927302584" lon="13.198349754017373"><ele>431.0</ele><time>2026-04-26T12:19:05.999Z</time></trkpt><trkpt lat="43.29037206630588" lon="13.198357484404212"><ele>431.0</ele><time>2026-04-26T12:19:06.999Z</time></trkpt><trkpt lat="43.29043949692992" lon="13.19836647912981"><ele>430.99999999999994</ele><time>2026-04-26T12:19:07.999Z</time></trkpt><trkpt lat="43.290552470142394" lon="13.198425529069121"><ele>431.0</ele><time>2026-04-26T12:19:09.999Z</time></trkpt><trkpt lat="43.29065758729467" lon="13.198451419162655"><ele>431.20000000000005</ele><time>2026-04-26T12:19:11.999Z</time></trkpt><trkpt lat="43.29075900112289" lon="13.198510884231451"><ele>431.40000000000003</ele><time>2026-04-26T12:19:13.999Z</time></trkpt><trkpt lat="43.29086485295192" lon="13.198570938529548"><ele>431.6</ele><time>2026-04-26T12:19:15.999Z</time></trkpt><trkpt lat="43.29096939996022" lon="13.19863366488661"><ele>431.8</ele><time>2026-04-26T12:19:17.999Z</time></trkpt><trkpt lat="43.2910358866845" lon="13.198657607022286"><ele>432.0</ele><time>2026-04-26T12:19:18.999Z</time></trkpt><trkpt lat="43.29110714162368" lon="13.198675341142447"><ele>432.0</ele><time>2026-04-26T12:19:19.999Z</time></trkpt><trkpt lat="43.291188879373834" lon="13.198688419077708"><ele>432.00000000000006</ele><time>2026-04-26T12:19:20.999Z</time></trkpt><trkpt lat="43.29127105109156" lon="13.198697469876874"><ele>432.00000000000006</ele><time>2026-04-26T12:19:21.999Z</time></trkpt><trkpt lat="43.29136766565876" lon="13.19870811148628"><ele>432.0</ele><time>2026-04-26T12:19:22.999Z</time></trkpt><trkpt lat="43.29146564613114" lon="13.198724499184484"><ele>432.0</ele><time>2026-04-26T12:19:23.999Z</time></trkpt><trkpt lat="43.29155354965525" lon="13.198748903425479"><ele>431.6666666666667</ele><time>2026-04-26T12:19:24.999Z</time></trkpt><trkpt lat="43.291638472167435" lon="13.198775710292573"><ele>431.33333333333337</ele><time>2026-04-26T12:19:25.999Z</time></trkpt><trkpt lat="43.29172263208458" lon="13.198778153642259"><ele>431.0</ele><time>2026-04-26T12:19:26.999Z</time></trkpt><trkpt lat="43.291796723651125" lon="13.19881389704936"><ele>430.6666666666667</ele><time>2026-04-26T12:19:27.999Z</time></trkpt><trkpt lat="43.29186512880518" lon="13.198840425229298"><ele>430.33333333333337</ele><time>2026-04-26T12:19:28.999Z</time></trkpt><trkpt lat="43.29193782890087" lon="13.19885182273763"><ele>430.0</ele><time>2026-04-26T12:19:29.999Z</time></trkpt><trkpt lat="43.29201342163108" lon="13.198850858778275"><ele>430.0</ele><time>2026-04-26T12:19:30.999Z</time></trkpt><trkpt lat="43.29210165476653" lon="13.198840318057636"><ele>430.0</ele><time>2026-04-26T12:19:31.999Z</time></trkpt><trkpt lat="43.292191279473954" lon="13.19881096515528"><ele>430.0</ele><time>2026-04-26T12:19:32.999Z</time></trkpt><trkpt lat="43.292281581930474" lon="13.19877913112129"><ele>430.0</ele><time>2026-04-26T12:19:33.999Z</time></trkpt><trkpt lat="43.2923772645456" lon="13.198768617834753"><ele>430.0</ele><time>2026-04-26T12:19:34.999Z</time></trkpt><trkpt lat="43.29247183257846" lon="13.198725466419722"><ele>428.2</ele><time>2026-04-26T12:19:35.999Z</time></trkpt><trkpt lat="43.29256856036433" lon="13.198707210279547"><ele>426.4</ele><time>2026-04-26T12:19:36.999Z</time></trkpt><trkpt lat="43.292666974520586" lon="13.19870225403709"><ele>424.6</ele><time>2026-04-26T12:19:37.999Z</time></trkpt><trkpt lat="43.29276391415937" lon="13.198700918309582"><ele>422.8</ele><time>2026-04-26T12:19:38.999Z</time></trkpt><trkpt lat="43.292859059659676" lon="13.198702188615817"><ele>421.0</ele><time>2026-04-26T12:19:39.999Z</time></trkpt><trkpt lat="43.29294917420583" lon="13.198707656694046"><ele>421.00000000000006</ele><time>2026-04-26T12:19:40.999Z</time></trkpt><trkpt lat="43.29303610615636" lon="13.198710856834818"><ele>421.0</ele><time>2026-04-26T12:19:41.999Z</time></trkpt><trkpt lat="43.29312266965776" lon="13.198722369544026"><ele>421.0</ele><time>2026-04-26T12:19:42.999Z</time></trkpt><trkpt lat="43.29319883579993" lon="13.198769062885898"><ele>421.0</ele><time>2026-04-26T12:19:43.999Z</time></trkpt><trkpt lat="43.2932834030441" lon="13.19878954009429"><ele>421.00000000000006</ele><time>2026-04-26T12:19:44.999Z</time></trkpt><trkpt lat="43.29336635978154" lon="13.198847060289284"><ele>421.0</ele><time>2026-04-26T12:19:45.999Z</time></trkpt><trkpt lat="43.293452531599776" lon="13.198909412465936"><ele>421.83333333333337</ele><time>2026-04-26T12:19:46.999Z</time></trkpt><trkpt lat="43.293530863608716" lon="13.198983191497119"><ele>422.6666666666667</ele><time>2026-04-26T12:19:47.999Z</time></trkpt><trkpt lat="43.293595616695455" lon="13.199063570427857"><ele>423.5</ele><time>2026-04-26T12:19:48.998Z</time></trkpt><trkpt lat="43.29365315595028" lon="13.1991407330734"><ele>424.33333333333337</ele><time>2026-04-26T12:19:49.998Z</time></trkpt><trkpt lat="43.29372284469081" lon="13.199201664819073"><ele>425.1666666666667</ele><time>2026-04-26T12:19:50.998Z</time></trkpt><trkpt lat="43.293802631866" lon="13.199238908427244"><ele>426.0</ele><time>2026-04-26T12:19:51.998Z</time></trkpt><trkpt lat="43.2938862450548" lon="13.199267776830421"><ele>425.5</ele><time>2026-04-26T12:19:52.998Z</time></trkpt><trkpt lat="43.293964314020954" lon="13.199301825849231"><ele>425.0</ele><time>2026-04-26T12:19:53.998Z</time></trkpt><trkpt lat="43.294030155204524" lon="13.19935067782205"><ele>424.5</ele><time>2026-04-26T12:19:54.998Z</time></trkpt><trkpt lat="43.294086648833" lon="13.199407570417927"><ele>424.0</ele><time>2026-04-26T12:19:55.998Z</time></trkpt><trkpt lat="43.29413859552325" lon="13.199486731834194"><ele>423.5</ele><time>2026-04-26T12:19:56.998Z</time></trkpt><trkpt lat="43.294193190584444" lon="13.199578046886097"><ele>423.0</ele><time>2026-04-26T12:19:57.998Z</time></trkpt><trkpt lat="43.294254039945905" lon="13.199674731153932"><ele>423.0</ele><time>2026-04-26T12:19:58.998Z</time></trkpt><trkpt lat="43.29430813054292" lon="13.199774332677233"><ele>423.0</ele><time>2026-04-26T12:19:59.998Z</time></trkpt><trkpt lat="43.29434094217453" lon="13.199878093940978"><ele>423.0</ele><time>2026-04-26T12:20:00.998Z</time></trkpt><trkpt lat="43.29434828026172" lon="13.19998847119739"><ele>423.0</ele><time>2026-04-26T12:20:01.998Z</time></trkpt><trkpt lat="43.29435447711526" lon="13.200092146479191"><ele>423.0</ele><time>2026-04-26T12:20:02.998Z</time></trkpt><trkpt lat="43.29436639474427" lon="13.200181353519847"><ele>423.0</ele><time>2026-04-26T12:20:03.998Z</time></trkpt><trkpt lat="43.294435939214154" lon="13.20025507390691"><ele>423.1666666666667</ele><time>2026-04-26T12:20:05.998Z</time></trkpt><trkpt lat="43.29452432505522" lon="13.200329369942748"><ele>423.33333333333337</ele><time>2026-04-26T12:20:07.998Z</time></trkpt><trkpt lat="43.29459778756128" lon="13.200335739058744"><ele>423.5</ele><time>2026-04-26T12:20:08.998Z</time></trkpt><trkpt lat="43.294668402631366" lon="13.200345325483553"><ele>423.6666666666667</ele><time>2026-04-26T12:20:09.998Z</time></trkpt><trkpt lat="43.29474845509467" lon="13.200350459864831"><ele>423.83333333333337</ele><time>2026-04-26T12:20:10.998Z</time></trkpt><trkpt lat="43.29483407339921" lon="13.200354686808009"><ele>424.0</ele><time>2026-04-26T12:20:11.998Z</time></trkpt><trkpt lat="43.29492025883865" lon="13.200364451215654"><ele>424.00000000000006</ele><time>2026-04-26T12:20:12.998Z</time></trkpt><trkpt lat="43.29500357508746" lon="13.200411202026704"><ele>424.0</ele><time>2026-04-26T12:20:13.998Z</time></trkpt><trkpt lat="43.29508211485668" lon="13.200445650018459"><ele>424.0</ele><time>2026-04-26T12:20:14.998Z</time></trkpt><trkpt lat="43.29515959098645" lon="13.200467732380751"><ele>424.0</ele><time>2026-04-26T12:20:15.998Z</time></trkpt><trkpt lat="43.29523158455449" lon="13.200508040239244"><ele>424.00000000000006</ele><time>2026-04-26T12:20:16.998Z</time></trkpt><trkpt lat="43.29529169866701" lon="13.200544139744757"><ele>424.0</ele><time>2026-04-26T12:20:17.998Z</time></trkpt><trkpt lat="43.29535329278458" lon="13.200588664556843"><ele>424.0</ele><time>2026-04-26T12:20:18.998Z</time></trkpt><trkpt lat="43.295406196238645" lon="13.200638532268313"><ele>424.0</ele><time>2026-04-26T12:20:19.998Z</time></trkpt><trkpt lat="43.29548113366858" lon="13.200757587155195"><ele>424.0</ele><time>2026-04-26T12:20:21.999Z</time></trkpt><trkpt lat="43.29549505632932" lon="13.200884245702063"><ele>424.0</ele><time>2026-04-26T12:20:23.999Z</time></trkpt><trkpt lat="43.29546210059211" lon="13.201008357138724"><ele>424.0</ele><time>2026-04-26T12:20:25.999Z</time></trkpt><trkpt lat="43.295391886625346" lon="13.201121393546495"><ele>422.00000000000006</ele><time>2026-04-26T12:20:27.999Z</time></trkpt><trkpt lat="43.29530624824055" lon="13.20123679229137"><ele>420.0</ele><time>2026-04-26T12:20:29.999Z</time></trkpt><trkpt lat="43.29522317730343" lon="13.201327397978027"><ele>418.0</ele><time>2026-04-26T12:20:31.999Z</time></trkpt><trkpt lat="43.29517926967903" lon="13.201394282226623"><ele>416.0</ele><time>2026-04-26T12:20:34.999Z</time></trkpt><trkpt lat="43.29522464626041" lon="13.201490807642921"><ele>414.00000000000006</ele><time>2026-04-26T12:20:35.999Z</time></trkpt><trkpt lat="43.29526196143993" lon="13.201573119409566"><ele>412.0</ele><time>2026-04-26T12:20:37.999Z</time></trkpt><trkpt lat="43.2953262956165" lon="13.201610215409495"><ele>411.57142857142856</ele><time>2026-04-26T12:20:39.999Z</time></trkpt><trkpt lat="43.295377347043186" lon="13.201676072121042"><ele>411.1428571428571</ele><time>2026-04-26T12:20:43.999Z</time></trkpt><trkpt lat="43.295399553683765" lon="13.201768560000524"><ele>410.71428571428567</ele><time>2026-04-26T12:20:53.999Z</time></trkpt><trkpt lat="43.295359405121246" lon="13.201885770492579"><ele>410.2857142857143</ele><time>2026-04-26T12:21:33.999Z</time></trkpt><trkpt lat="43.295331626561726" lon="13.2019748093267"><ele>409.8571428571429</ele><time>2026-04-26T12:21:37.999Z</time></trkpt><trkpt lat="43.29534664334109" lon="13.201886207452151"><ele>409.4285714285714</ele><time>2026-04-26T12:21:58.998Z</time></trkpt><trkpt lat="43.295366745648856" lon="13.201792264077126"><ele>409.0</ele><time>2026-04-26T12:22:01.998Z</time></trkpt><trkpt lat="43.29537236148308" lon="13.201692763771476"><ele>409.0</ele><time>2026-04-26T12:22:05.998Z</time></trkpt><trkpt lat="43.29534377301971" lon="13.201576074643263"><ele>409.0</ele><time>2026-04-26T12:22:09.998Z</time></trkpt><trkpt lat="43.29526101234828" lon="13.201553206838746"><ele>409.0</ele><time>2026-04-26T12:22:11.998Z</time></trkpt><trkpt lat="43.29517417901351" lon="13.201429094349258"><ele>409.0</ele><time>2026-04-26T12:23:12.999Z</time></trkpt><trkpt lat="43.29525272827305" lon="13.201503639810344"><ele>409.0</ele><time>2026-04-26T12:23:22.999Z</time></trkpt><trkpt lat="43.29530813216007" lon="13.201566869417833"><ele>409.0</ele><time>2026-04-26T12:23:24.999Z</time></trkpt><trkpt lat="43.29538314661538" lon="13.201535805386882"><ele>409.0</ele><time>2026-04-26T12:23:25.999Z</time></trkpt><trkpt lat="43.295474732051424" lon="13.201535659066725"><ele>409.0</ele><time>2026-04-26T12:23:27.999Z</time></trkpt><trkpt lat="43.295568853895695" lon="13.201520040618185"><ele>409.0</ele><time>2026-04-26T12:23:29.999Z</time></trkpt><trkpt lat="43.29566607324223" lon="13.20149389675479"><ele>409.0</ele><time>2026-04-26T12:23:31.999Z</time></trkpt><trkpt lat="43.29576186181083" lon="13.201464410330802"><ele>410.6666666666667</ele><time>2026-04-26T12:23:33.999Z</time></trkpt><trkpt lat="43.2958500569353" lon="13.201433692269974"><ele>412.33333333333337</ele><time>2026-04-26T12:23:35.999Z</time></trkpt><trkpt lat="43.29593559007163" lon="13.201394599475517"><ele>414.0</ele><time>2026-04-26T12:23:37.999Z</time></trkpt><trkpt lat="43.29601440497058" lon="13.201374739218092"><ele>415.66666666666663</ele><time>2026-04-26T12:23:39.999Z</time></trkpt><trkpt lat="43.29610085172229" lon="13.201399375608757"><ele>417.3333333333333</ele><time>2026-04-26T12:23:41.999Z</time></trkpt><trkpt lat="43.29617812093447" lon="13.201451248014376"><ele>419.0</ele><time>2026-04-26T12:23:43.999Z</time></trkpt><trkpt lat="43.296255335790114" lon="13.20149256087751"><ele>419.0</ele><time>2026-04-26T12:23:45.999Z</time></trkpt><trkpt lat="43.29633383503388" lon="13.201545484135577"><ele>419.0</ele><time>2026-04-26T12:23:47.999Z</time></trkpt><trkpt lat="43.296411684712695" lon="13.201602254021184"><ele>419.0</ele><time>2026-04-26T12:23:49.999Z</time></trkpt><trkpt lat="43.29649178605311" lon="13.201662574335641"><ele>419.0</ele><time>2026-04-26T12:23:51.999Z</time></trkpt><trkpt lat="43.29658090457536" lon="13.201710914705403"><ele>419.0</ele><time>2026-04-26T12:23:53.999Z</time></trkpt><trkpt lat="43.29667697031631" lon="13.20176378148161"><ele>421.6</ele><time>2026-04-26T12:23:55.999Z</time></trkpt><trkpt lat="43.29677063468948" lon="13.201797173784469"><ele>424.2</ele><time>2026-04-26T12:23:57.999Z</time></trkpt><trkpt lat="43.296869386556914" lon="13.201813199219343"><ele>426.80000000000007</ele><time>2026-04-26T12:23:59.999Z</time></trkpt><trkpt lat="43.296966674155726" lon="13.201825688320875"><ele>429.40000000000003</ele><time>2026-04-26T12:24:01.999Z</time></trkpt><trkpt lat="43.297062859488186" lon="13.201845724019524"><ele>432.0</ele><time>2026-04-26T12:24:03.999Z</time></trkpt><trkpt lat="43.297170635841965" lon="13.201860783714972"><ele>436.0</ele><time>2026-04-26T12:24:05.999Z</time></trkpt><trkpt lat="43.2972815125929" lon="13.201873048595177"><ele>440.00000000000006</ele><time>2026-04-26T12:24:07.999Z</time></trkpt><trkpt lat="43.297388703347785" lon="13.201879900623789"><ele>444.00000000000006</ele><time>2026-04-26T12:24:09.999Z</time></trkpt><trkpt lat="43.29749367898012" lon="13.201886099245812"><ele>448.0</ele><time>2026-04-26T12:24:11.999Z</time></trkpt><trkpt lat="43.2976032285264" lon="13.201882378211563"><ele>452.0</ele><time>2026-04-26T12:24:13.999Z</time></trkpt><trkpt lat="43.29770137164081" lon="13.201887699709667"><ele>451.99999999999994</ele><time>2026-04-26T12:24:15.999Z</time></trkpt><trkpt lat="43.297794404815384" lon="13.20189214800292"><ele>452.0</ele><time>2026-04-26T12:24:17.999Z</time></trkpt><trkpt lat="43.29788168482334" lon="13.201889138088518"><ele>452.0</ele><time>2026-04-26T12:24:19.999Z</time></trkpt><trkpt lat="43.297951913188314" lon="13.201885862549867"><ele>452.0</ele><time>2026-04-26T12:24:22.999Z</time></trkpt><trkpt lat="43.29788740993669" lon="13.201903017703739"><ele>451.99999999999994</ele><time>2026-04-26T12:25:16.999Z</time></trkpt><trkpt lat="43.29782151276566" lon="13.20190516760043"><ele>452.0</ele><time>2026-04-26T12:25:18.999Z</time></trkpt><trkpt lat="43.297745517993825" lon="13.201905494130314"><ele>451.99999999999994</ele><time>2026-04-26T12:25:20.999Z</time></trkpt><trkpt lat="43.29766994264571" lon="13.201903357729046"><ele>452.0</ele><time>2026-04-26T12:25:22.999Z</time></trkpt><trkpt lat="43.297588334137615" lon="13.20189949191128"><ele>452.0</ele><time>2026-04-26T12:25:24.999Z</time></trkpt><trkpt lat="43.297500863797175" lon="13.201893289977685"><ele>452.0</ele><time>2026-04-26T12:25:26.999Z</time></trkpt><trkpt lat="43.29740489933612" lon="13.201886385177295"><ele>451.99999999999994</ele><time>2026-04-26T12:25:28.999Z</time></trkpt><trkpt lat="43.29730066511893" lon="13.201878637019783"><ele>452.0</ele><time>2026-04-26T12:25:30.999Z</time></trkpt><trkpt lat="43.29719193870052" lon="13.201870554917756"><ele>448.66666666666663</ele><time>2026-04-26T12:25:32.999Z</time></trkpt><trkpt lat="43.297089523816986" lon="13.201860410030266"><ele>445.3333333333333</ele><time>2026-04-26T12:25:34.999Z</time></trkpt><trkpt lat="43.29701391070241" lon="13.201852204607647"><ele>442.0</ele><time>2026-04-26T12:25:35.999Z</time></trkpt><trkpt lat="43.296942678222" lon="13.201839744235341"><ele>438.66666666666663</ele><time>2026-04-26T12:25:36.999Z</time></trkpt><trkpt lat="43.29684250658201" lon="13.201818743476892"><ele>435.3333333333333</ele><time>2026-04-26T12:25:38.999Z</time></trkpt><trkpt lat="43.29675333270843" lon="13.201794784650636"><ele>432.0</ele><time>2026-04-26T12:25:40.999Z</time></trkpt><trkpt lat="43.29667207263178" lon="13.20174477337592"><ele>432.0</ele><time>2026-04-26T12:25:42.999Z</time></trkpt><trkpt lat="43.29658986980816" lon="13.20172942137731"><ele>432.00000000000006</ele><time>2026-04-26T12:25:44.999Z</time></trkpt><trkpt lat="43.29650944378059" lon="13.201686459299875"><ele>432.00000000000006</ele><time>2026-04-26T12:25:46.999Z</time></trkpt><trkpt lat="43.29642696998249" lon="13.20163407743352"><ele>432.0</ele><time>2026-04-26T12:25:48.999Z</time></trkpt><trkpt lat="43.29633677181209" lon="13.201569960922624"><ele>432.0</ele><time>2026-04-26T12:25:50.999Z</time></trkpt><trkpt lat="43.29624145970519" lon="13.20149824065014"><ele>429.8333333333333</ele><time>2026-04-26T12:25:52.999Z</time></trkpt><trkpt lat="43.296147592492055" lon="13.201431034929497"><ele>427.66666666666663</ele><time>2026-04-26T12:25:54.999Z</time></trkpt><trkpt lat="43.29606368895802" lon="13.201385010849485"><ele>425.5</ele><time>2026-04-26T12:25:56.999Z</time></trkpt><trkpt lat="43.2959865429271" lon="13.201372926044954"><ele>423.3333333333333</ele><time>2026-04-26T12:25:58.999Z</time></trkpt><trkpt lat="43.295923966126395" lon="13.201399913818774"><ele>421.16666666666663</ele><time>2026-04-26T12:26:00.999Z</time></trkpt><trkpt lat="43.29584743261392" lon="13.201434893353508"><ele>419.0</ele><time>2026-04-26T12:26:02.999Z</time></trkpt><trkpt lat="43.29580450728532" lon="13.201259674381827"><ele>419.0</ele><time>2026-04-26T12:26:04.999Z</time></trkpt><trkpt lat="43.29570581319915" lon="13.201437596699936"><ele>419.0</ele><time>2026-04-26T12:26:05.999Z</time></trkpt><trkpt lat="43.29560980042937" lon="13.201467235794015"><ele>419.0</ele><time>2026-04-26T12:26:07.999Z</time></trkpt><trkpt lat="43.29550993562431" lon="13.201492907348758"><ele>419.0</ele><time>2026-04-26T12:26:09.999Z</time></trkpt><trkpt lat="43.29542579028118" lon="13.201493631760513"><ele>419.0</ele><time>2026-04-26T12:26:11.999Z</time></trkpt><trkpt lat="43.29535647147981" lon="13.201485357461232"><ele>417.8333333333333</ele><time>2026-04-26T12:26:13.999Z</time></trkpt><trkpt lat="43.295281644889634" lon="13.201478061926583"><ele>416.66666666666663</ele><time>2026-04-26T12:26:16.999Z</time></trkpt><trkpt lat="43.29522666821129" lon="13.201415689321845"><ele>415.5</ele><time>2026-04-26T12:26:19.999Z</time></trkpt><trkpt lat="43.29532180505824" lon="13.201302453879835"><ele>414.33333333333337</ele><time>2026-04-26T12:26:23.999Z</time></trkpt><trkpt lat="43.295380480810294" lon="13.20123481945458"><ele>413.1666666666667</ele><time>2026-04-26T12:26:26.999Z</time></trkpt><trkpt lat="43.29543376361842" lon="13.20115196305671"><ele>412.0</ele><time>2026-04-26T12:27:17.999Z</time></trkpt><trkpt lat="43.29548040555649" lon="13.201062670256217"><ele>412.00000000000006</ele><time>2026-04-26T12:27:20.999Z</time></trkpt><trkpt lat="43.29553323663319" lon="13.200971456824634"><ele>412.0</ele><time>2026-04-26T12:27:24.999Z</time></trkpt><trkpt lat="43.29557316072005" lon="13.200878051102594"><ele>412.0</ele><time>2026-04-26T12:27:28.999Z</time></trkpt><trkpt lat="43.295539891698425" lon="13.200956497408011"><ele>412.0</ele><time>2026-04-26T12:27:39.999Z</time></trkpt><trkpt lat="43.29548723656826" lon="13.201016862059296"><ele>412.00000000000006</ele><time>2026-04-26T12:27:42.999Z</time></trkpt><trkpt lat="43.2954603943626" lon="13.201104906270995"><ele>412.0</ele><time>2026-04-26T12:27:44.999Z</time></trkpt><trkpt lat="43.295400542427394" lon="13.2012078731508"><ele>412.0</ele><time>2026-04-26T12:27:46.999Z</time></trkpt><trkpt lat="43.295307477854074" lon="13.201325817689735"><ele>412.0</ele><time>2026-04-26T12:27:48.999Z</time></trkpt><trkpt lat="43.29521878699941" lon="13.201402388287843"><ele>412.0</ele><time>2026-04-26T12:27:50.999Z</time></trkpt><trkpt lat="43.295121639132056" lon="13.201433250963614"><ele>412.0</ele><time>2026-04-26T12:27:52.999Z</time></trkpt><trkpt lat="43.29502614991485" lon="13.201481739397302"><ele>412.0</ele><time>2026-04-26T12:27:54.999Z</time></trkpt><trkpt lat="43.29491180067824" lon="13.201539804755258"><ele>411.40000000000003</ele><time>2026-04-26T12:27:56.999Z</time></trkpt><trkpt lat="43.29480039558155" lon="13.201596375065737"><ele>410.8</ele><time>2026-04-26T12:27:58.999Z</time></trkpt><trkpt lat="43.29471794461193" lon="13.20151059975844"><ele>410.2</ele><time>2026-04-26T12:27:59.999Z</time></trkpt><trkpt lat="43.29463422429927" lon="13.201596173010277"><ele>409.6</ele><time>2026-04-26T12:28:01.999Z</time></trkpt><trkpt lat="43.294567109104555" lon="13.201688999371735"><ele>409.0</ele><time>2026-04-26T12:28:03.999Z</time></trkpt><trkpt lat="43.2945063215209" lon="13.201799524405544"><ele>407.50000000000006</ele><time>2026-04-26T12:28:05.999Z</time></trkpt><trkpt lat="43.29441698112443" lon="13.20191978020705"><ele>406.0</ele><time>2026-04-26T12:28:07.999Z</time></trkpt><trkpt lat="43.29435799832405" lon="13.20197554540492"><ele>404.5</ele><time>2026-04-26T12:28:08.999Z</time></trkpt><trkpt lat="43.29430223898587" lon="13.202033105509516"><ele>403.0</ele><time>2026-04-26T12:28:09.999Z</time></trkpt><trkpt lat="43.294238009918296" lon="13.202095166082902"><ele>401.50000000000006</ele><time>2026-04-26T12:28:10.999Z</time></trkpt><trkpt lat="43.29416477869576" lon="13.202158655403748"><ele>400.0</ele><time>2026-04-26T12:28:11.999Z</time></trkpt><trkpt lat="43.29409224812353" lon="13.202222904072412"><ele>400.00000000000006</ele><time>2026-04-26T12:28:12.999Z</time></trkpt><trkpt lat="43.29402019675169" lon="13.202284022108115"><ele>400.0</ele><time>2026-04-26T12:28:13.999Z</time></trkpt><trkpt lat="43.29394838861592" lon="13.202341705251957"><ele>400.0</ele><time>2026-04-26T12:28:14.999Z</time></trkpt><trkpt lat="43.2938708436976" lon="13.202395951060472"><ele>400.0</ele><time>2026-04-26T12:28:15.999Z</time></trkpt><trkpt lat="43.29379516574167" lon="13.202451769371653"><ele>400.00000000000006</ele><time>2026-04-26T12:28:16.999Z</time></trkpt><trkpt lat="43.293714127882176" lon="13.20250794018196"><ele>400.0</ele><time>2026-04-26T12:28:17.999Z</time></trkpt><trkpt lat="43.293626063510786" lon="13.202557513664795"><ele>401.4</ele><time>2026-04-26T12:28:18.999Z</time></trkpt><trkpt lat="43.29353186891233" lon="13.202599320080743"><ele>402.8</ele><time>2026-04-26T12:28:19.999Z</time></trkpt><trkpt lat="43.29343080860401" lon="13.2026283867637"><ele>404.20000000000005</ele><time>2026-04-26T12:28:20.999Z</time></trkpt><trkpt lat="43.2933333408471" lon="13.202644066590086"><ele>405.6</ele><time>2026-04-26T12:28:21.999Z</time></trkpt><trkpt lat="43.29323650773788" lon="13.20265256124843"><ele>407.0</ele><time>2026-04-26T12:28:22.999Z</time></trkpt><trkpt lat="43.29313960930301" lon="13.20265228546146"><ele>406.3333333333333</ele><time>2026-04-26T12:28:23.999Z</time></trkpt><trkpt lat="43.29304774598998" lon="13.202656153780886"><ele>405.66666666666663</ele><time>2026-04-26T12:28:24.999Z</time></trkpt><trkpt lat="43.292953894101736" lon="13.202665874497635"><ele>405.0</ele><time>2026-04-26T12:28:25.999Z</time></trkpt><trkpt lat="43.29286076938377" lon="13.202687278275002"><ele>404.33333333333337</ele><time>2026-04-26T12:28:26.999Z</time></trkpt><trkpt lat="43.29277641391463" lon="13.202719887509005"><ele>403.6666666666667</ele><time>2026-04-26T12:28:27.999Z</time></trkpt><trkpt lat="43.29270298577273" lon="13.20276226835125"><ele>403.0</ele><time>2026-04-26T12:28:28.999Z</time></trkpt><trkpt lat="43.29262593135837" lon="13.202803067653244"><ele>403.0</ele><time>2026-04-26T12:28:29.999Z</time></trkpt><trkpt lat="43.29255337238493" lon="13.202859303669516"><ele>403.0</ele><time>2026-04-26T12:28:30.999Z</time></trkpt><trkpt lat="43.29248324213556" lon="13.202930064178172"><ele>403.0</ele><time>2026-04-26T12:28:31.999Z</time></trkpt><trkpt lat="43.292413105802304" lon="13.203015219554114"><ele>403.0</ele><time>2026-04-26T12:28:32.999Z</time></trkpt><trkpt lat="43.29234516002453" lon="13.203101348214464"><ele>403.0</ele><time>2026-04-26T12:28:33.999Z</time></trkpt><trkpt lat="43.292270144291926" lon="13.20318687777343"><ele>404.79999999999995</ele><time>2026-04-26T12:28:34.999Z</time></trkpt><trkpt lat="43.29219042043258" lon="13.203273208184498"><ele>406.6</ele><time>2026-04-26T12:28:35.999Z</time></trkpt><trkpt lat="43.29210979355658" lon="13.203366389296605"><ele>408.4</ele><time>2026-04-26T12:28:36.999Z</time></trkpt><trkpt lat="43.292027170493476" lon="13.203469699523064"><ele>410.20000000000005</ele><time>2026-04-26T12:28:37.999Z</time></trkpt><trkpt lat="43.29194826821762" lon="13.203582413811041"><ele>412.0</ele><time>2026-04-26T12:28:38.999Z</time></trkpt><trkpt lat="43.291878412406504" lon="13.203702017040426"><ele>412.0</ele><time>2026-04-26T12:28:39.999Z</time></trkpt><trkpt lat="43.29181009218894" lon="13.203826225848355"><ele>412.0</ele><time>2026-04-26T12:28:40.999Z</time></trkpt><trkpt lat="43.291743336941124" lon="13.203952845603947"><ele>412.0</ele><time>2026-04-26T12:28:41.999Z</time></trkpt><trkpt lat="43.29167758834604" lon="13.204086164682288"><ele>412.0</ele><time>2026-04-26T12:28:42.999Z</time></trkpt><trkpt lat="43.29161049301144" lon="13.204223297455847"><ele>413.0</ele><time>2026-04-26T12:28:43.999Z</time></trkpt><trkpt lat="43.2915584142915" lon="13.204360148220184"><ele>414.0</ele><time>2026-04-26T12:28:44.999Z</time></trkpt><trkpt lat="43.29150623354145" lon="13.204482063903281"><ele>415.0</ele><time>2026-04-26T12:28:45.999Z</time></trkpt><trkpt lat="43.29145747233297" lon="13.204605018277295"><ele>416.0</ele><time>2026-04-26T12:28:46.999Z</time></trkpt><trkpt lat="43.2914165207279" lon="13.204723141378"><ele>417.0</ele><time>2026-04-26T12:28:47.999Z</time></trkpt><trkpt lat="43.29139165970146" lon="13.204824945430008"><ele>418.3333333333333</ele><time>2026-04-26T12:28:48.999Z</time></trkpt><trkpt lat="43.29137871003783" lon="13.204929374226209"><ele>419.66666666666663</ele><time>2026-04-26T12:28:49.999Z</time></trkpt><trkpt lat="43.29137379724375" lon="13.205041799385292"><ele>421.0</ele><time>2026-04-26T12:28:50.999Z</time></trkpt><trkpt lat="43.29136797485878" lon="13.205165232439722"><ele>422.3333333333333</ele><time>2026-04-26T12:28:51.999Z</time></trkpt><trkpt lat="43.291346656895804" lon="13.205287511688669"><ele>423.66666666666663</ele><time>2026-04-26T12:28:52.999Z</time></trkpt><trkpt lat="43.29130122950378" lon="13.205395883105767"><ele>425.0</ele><time>2026-04-26T12:28:53.999Z</time></trkpt><trkpt lat="43.291232068474315" lon="13.205460744704324"><ele>425.0</ele><time>2026-04-26T12:28:54.999Z</time></trkpt><trkpt lat="43.291177587360934" lon="13.205507648700484"><ele>425.0</ele><time>2026-04-26T12:28:55.999Z</time></trkpt><trkpt lat="43.29107475919327" lon="13.205555150784477"><ele>425.0</ele><time>2026-04-26T12:28:57.999Z</time></trkpt><trkpt lat="43.290966910596744" lon="13.2055128645413"><ele>425.0</ele><time>2026-04-26T12:28:59.999Z</time></trkpt><trkpt lat="43.29085849568701" lon="13.205490602404613"><ele>425.0</ele><time>2026-04-26T12:29:01.999Z</time></trkpt><trkpt lat="43.29073580576078" lon="13.20551913328706"><ele>424.99999999999994</ele><time>2026-04-26T12:29:03.999Z</time></trkpt><trkpt lat="43.29066551737632" lon="13.205544094353348"><ele>425.0</ele><time>2026-04-26T12:29:04.999Z</time></trkpt><trkpt lat="43.29059610191762" lon="13.205574893935438"><ele>425.0</ele><time>2026-04-26T12:29:05.999Z</time></trkpt><trkpt lat="43.29051803771308" lon="13.205607066107035"><ele>425.0</ele><time>2026-04-26T12:29:06.999Z</time></trkpt><trkpt lat="43.29043918526451" lon="13.20563617897624"><ele>424.99999999999994</ele><time>2026-04-26T12:29:07.999Z</time></trkpt><trkpt lat="43.29035930473335" lon="13.205654023747966"><ele>425.0</ele><time>2026-04-26T12:29:08.999Z</time></trkpt><trkpt lat="43.2902831478861" lon="13.205650065283852"><ele>425.49999999999994</ele><time>2026-04-26T12:29:09.999Z</time></trkpt><trkpt lat="43.29021054593252" lon="13.205640392905876"><ele>426.0</ele><time>2026-04-26T12:29:10.999Z</time></trkpt><trkpt lat="43.290140382544614" lon="13.205635664593816"><ele>426.5</ele><time>2026-04-26T12:29:11.999Z</time></trkpt><trkpt lat="43.29006878166728" lon="13.205622143691702"><ele>427.0</ele><time>2026-04-26T12:29:12.999Z</time></trkpt><trkpt lat="43.28999364584864" lon="13.205594284393129"><ele>427.49999999999994</ele><time>2026-04-26T12:29:13.999Z</time></trkpt><trkpt lat="43.28991490308539" lon="13.205551670685526"><ele>428.0</ele><time>2026-04-26T12:29:14.999Z</time></trkpt><trkpt lat="43.28985089361589" lon="13.205495462626693"><ele>427.99999999999994</ele><time>2026-04-26T12:29:15.999Z</time></trkpt><trkpt lat="43.28980412633645" lon="13.205432661929178"><ele>428.0</ele><time>2026-04-26T12:29:16.999Z</time></trkpt><trkpt lat="43.2897407996934" lon="13.205323224208676"><ele>428.0</ele><time>2026-04-26T12:29:18.999Z</time></trkpt><trkpt lat="43.289690651293526" lon="13.205245681829515"><ele>428.0</ele><time>2026-04-26T12:29:20.999Z</time></trkpt><trkpt lat="43.28965193458211" lon="13.20516840758642"><ele>427.99999999999994</ele><time>2026-04-26T12:29:22.999Z</time></trkpt><trkpt lat="43.28960562490364" lon="13.205106156908553"><ele>428.0</ele><time>2026-04-26T12:29:24.999Z</time></trkpt><trkpt lat="43.28949422981515" lon="13.205014659788317"><ele>428.99999999999994</ele><time>2026-04-26T12:29:26.999Z</time></trkpt><trkpt lat="43.28942967650377" lon="13.204944548586099"><ele>430.0</ele><time>2026-04-26T12:29:27.999Z</time></trkpt><trkpt lat="43.28937352738019" lon="13.204867169965935"><ele>431.0</ele><time>2026-04-26T12:29:28.999Z</time></trkpt><trkpt lat="43.289321679324246" lon="13.204773644003804"><ele>432.0</ele><time>2026-04-26T12:29:29.999Z</time></trkpt><trkpt lat="43.289278813324046" lon="13.204680520299727"><ele>432.99999999999994</ele><time>2026-04-26T12:29:30.999Z</time></trkpt><trkpt lat="43.28924414900613" lon="13.204572223235388"><ele>434.0</ele><time>2026-04-26T12:29:31.999Z</time></trkpt><trkpt lat="43.28921093581384" lon="13.204451788236911"><ele>431.8333333333333</ele><time>2026-04-26T12:29:32.999Z</time></trkpt><trkpt lat="43.28918554305489" lon="13.20432783708086"><ele>429.66666666666663</ele><time>2026-04-26T12:29:33.999Z</time></trkpt><trkpt lat="43.28916482840812" lon="13.20421588650595"><ele>427.5</ele><time>2026-04-26T12:29:34.999Z</time></trkpt><trkpt lat="43.28913748602184" lon="13.204118513412002"><ele>425.33333333333337</ele><time>2026-04-26T12:29:35.999Z</time></trkpt><trkpt lat="43.28911604923646" lon="13.2040371208559"><ele>423.1666666666667</ele><time>2026-04-26T12:29:36.999Z</time></trkpt><trkpt lat="43.28908552313126" lon="13.203957129592517"><ele>421.0</ele><time>2026-04-26T12:29:37.999Z</time></trkpt><trkpt lat="43.289064520614964" lon="13.203864107903808"><ele>418.83333333333337</ele><time>2026-04-26T12:29:38.999Z</time></trkpt><trkpt lat="43.28902045909566" lon="13.203786874233142"><ele>416.6666666666667</ele><time>2026-04-26T12:29:39.999Z</time></trkpt><trkpt lat="43.2889684521637" lon="13.203730823540695"><ele>414.5</ele><time>2026-04-26T12:29:40.999Z</time></trkpt><trkpt lat="43.288894624204886" lon="13.203734626574562"><ele>412.33333333333337</ele><time>2026-04-26T12:29:41.999Z</time></trkpt><trkpt lat="43.28876854423311" lon="13.203779095541824"><ele>410.1666666666667</ele><time>2026-04-26T12:29:43.999Z</time></trkpt><trkpt lat="43.288689434160965" lon="13.20381477641044"><ele>408.0</ele><time>2026-04-26T12:29:44.999Z</time></trkpt><trkpt lat="43.28857727278466" lon="13.203869582436525"><ele>407.5</ele><time>2026-04-26T12:29:46.999Z</time></trkpt><trkpt lat="43.288510982742245" lon="13.203901435920917"><ele>407.0</ele><time>2026-04-26T12:29:47.999Z</time></trkpt><trkpt lat="43.28843820733841" lon="13.203951866372426"><ele>406.5</ele><time>2026-04-26T12:29:48.999Z</time></trkpt><trkpt lat="43.28836802710562" lon="13.20402145004553"><ele>406.0</ele><time>2026-04-26T12:29:49.999Z</time></trkpt><trkpt lat="43.28831059493673" lon="13.204104718492827"><ele>405.5</ele><time>2026-04-26T12:29:50.999Z</time></trkpt><trkpt lat="43.28826555214742" lon="13.20420158648378"><ele>405.0</ele><time>2026-04-26T12:29:51.999Z</time></trkpt><trkpt lat="43.28823534561094" lon="13.204302684242611"><ele>405.5</ele><time>2026-04-26T12:29:52.999Z</time></trkpt><trkpt lat="43.28820593480622" lon="13.204395481945637"><ele>406.0</ele><time>2026-04-26T12:29:53.999Z</time></trkpt><trkpt lat="43.28816912413808" lon="13.204491444845928"><ele>406.5</ele><time>2026-04-26T12:29:54.999Z</time></trkpt><trkpt lat="43.28812909309659" lon="13.20459652336577"><ele>407.0</ele><time>2026-04-26T12:29:55.999Z</time></trkpt><trkpt lat="43.28808260416199" lon="13.204715520652599"><ele>407.5</ele><time>2026-04-26T12:29:56.999Z</time></trkpt><trkpt lat="43.28803609217721" lon="13.204834883999"><ele>408.0</ele><time>2026-04-26T12:29:57.999Z</time></trkpt><trkpt lat="43.28798318083476" lon="13.204952864465005"><ele>408.0</ele><time>2026-04-26T12:29:58.999Z</time></trkpt><trkpt lat="43.28792407345634" lon="13.205054576476009"><ele>408.0</ele><time>2026-04-26T12:29:59.999Z</time></trkpt><trkpt lat="43.28784932698794" lon="13.205164259377087"><ele>408.0</ele><time>2026-04-26T12:30:00.999Z</time></trkpt><trkpt lat="43.287765268046044" lon="13.205250487987612"><ele>408.0</ele><time>2026-04-26T12:30:01.999Z</time></trkpt><trkpt lat="43.287668494586875" lon="13.205289169321608"><ele>408.0</ele><time>2026-04-26T12:30:02.999Z</time></trkpt><trkpt lat="43.28756833025676" lon="13.205343237885717"><ele>408.0</ele><time>2026-04-26T12:30:03.999Z</time></trkpt><trkpt lat="43.28748296075281" lon="13.205432071687923"><ele>408.0</ele><time>2026-04-26T12:30:04.999Z</time></trkpt><trkpt lat="43.28740440836109" lon="13.205511448861873"><ele>408.0</ele><time>2026-04-26T12:30:05.999Z</time></trkpt><trkpt lat="43.28733643542936" lon="13.20559412562193"><ele>408.0</ele><time>2026-04-26T12:30:06.999Z</time></trkpt><trkpt lat="43.28725914334299" lon="13.205669983071237"><ele>408.0</ele><time>2026-04-26T12:30:07.999Z</time></trkpt><trkpt lat="43.2871702418603" lon="13.205728981594705"><ele>408.79999999999995</ele><time>2026-04-26T12:30:08.999Z</time></trkpt><trkpt lat="43.28707323425388" lon="13.205781073468575"><ele>409.6</ele><time>2026-04-26T12:30:09.999Z</time></trkpt><trkpt lat="43.286982203327945" lon="13.205837735932594"><ele>410.4</ele><time>2026-04-26T12:30:10.999Z</time></trkpt><trkpt lat="43.28689071970851" lon="13.205890460459281"><ele>411.20000000000005</ele><time>2026-04-26T12:30:11.999Z</time></trkpt><trkpt lat="43.28679449816335" lon="13.205940176511769"><ele>412.0</ele><time>2026-04-26T12:30:12.999Z</time></trkpt><trkpt lat="43.28670332923829" lon="13.20598479253626"><ele>412.00000000000006</ele><time>2026-04-26T12:30:13.999Z</time></trkpt><trkpt lat="43.286626953945415" lon="13.206036880439793"><ele>412.0</ele><time>2026-04-26T12:30:14.999Z</time></trkpt><trkpt lat="43.28656089304699" lon="13.206099360230661"><ele>412.0</ele><time>2026-04-26T12:30:15.999Z</time></trkpt><trkpt lat="43.28651567591661" lon="13.206193341385228"><ele>412.0</ele><time>2026-04-26T12:30:16.999Z</time></trkpt><trkpt lat="43.28647914929655" lon="13.206305498060898"><ele>412.00000000000006</ele><time>2026-04-26T12:30:17.999Z</time></trkpt><trkpt lat="43.286442066565705" lon="13.206424311632077"><ele>412.0</ele><time>2026-04-26T12:30:18.999Z</time></trkpt><trkpt lat="43.286400236295194" lon="13.206540530323032"><ele>413.0</ele><time>2026-04-26T12:30:19.999Z</time></trkpt><trkpt lat="43.2863441325616" lon="13.206646464733181"><ele>414.0</ele><time>2026-04-26T12:30:20.999Z</time></trkpt><trkpt lat="43.28627855113701" lon="13.20673609726536"><ele>415.0</ele><time>2026-04-26T12:30:21.999Z</time></trkpt><trkpt lat="43.286204188075146" lon="13.206815210823269"><ele>416.0</ele><time>2026-04-26T12:30:22.999Z</time></trkpt><trkpt lat="43.28611657331148" lon="13.206875619948677"><ele>417.0</ele><time>2026-04-26T12:30:23.999Z</time></trkpt><trkpt lat="43.28602340063561" lon="13.206918387243238"><ele>417.0</ele><time>2026-04-26T12:30:24.999Z</time></trkpt><trkpt lat="43.28592872489743" lon="13.206959677561764"><ele>417.0</ele><time>2026-04-26T12:30:25.999Z</time></trkpt><trkpt lat="43.28583733006265" lon="13.20700810546053"><ele>417.0</ele><time>2026-04-26T12:30:26.999Z</time></trkpt><trkpt lat="43.28574627051295" lon="13.207051986927267"><ele>417.0</ele><time>2026-04-26T12:30:27.999Z</time></trkpt><trkpt lat="43.28564949811457" lon="13.207090905512223"><ele>417.0</ele><time>2026-04-26T12:30:28.999Z</time></trkpt><trkpt lat="43.285551840775696" lon="13.207129878869791"><ele>418.6</ele><time>2026-04-26T12:30:29.999Z</time></trkpt><trkpt lat="43.285452551699194" lon="13.207165697811027"><ele>420.20000000000005</ele><time>2026-04-26T12:30:30.999Z</time></trkpt><trkpt lat="43.28535291611917" lon="13.207194454200119"><ele>421.8</ele><time>2026-04-26T12:30:31.999Z</time></trkpt><trkpt lat="43.28525390518731" lon="13.20720874165952"><ele>423.4</ele><time>2026-04-26T12:30:32.999Z</time></trkpt><trkpt lat="43.28516095229562" lon="13.207217281562881"><ele>425.0</ele><time>2026-04-26T12:30:33.999Z</time></trkpt><trkpt lat="43.28507325532041" lon="13.207226959653756"><ele>425.0</ele><time>2026-04-26T12:30:34.999Z</time></trkpt><trkpt lat="43.28498454443049" lon="13.207227083293674"><ele>425.0</ele><time>2026-04-26T12:30:35.999Z</time></trkpt><trkpt lat="43.28489539881132" lon="13.207216347725991"><ele>425.0</ele><time>2026-04-26T12:30:36.999Z</time></trkpt><trkpt lat="43.284802221689475" lon="13.207196627400688"><ele>425.0</ele><time>2026-04-26T12:30:37.999Z</time></trkpt><trkpt lat="43.28470781168069" lon="13.207173420390546"><ele>425.0</ele><time>2026-04-26T12:30:38.999Z</time></trkpt><trkpt lat="43.28462762552161" lon="13.207150515202397"><ele>425.8</ele><time>2026-04-26T12:30:39.999Z</time></trkpt><trkpt lat="43.284518356776296" lon="13.207122768625116"><ele>426.6</ele><time>2026-04-26T12:30:41.999Z</time></trkpt><trkpt lat="43.28440340758101" lon="13.20719161631532"><ele>427.4</ele><time>2026-04-26T12:30:43.999Z</time></trkpt><trkpt lat="43.28432278887374" lon="13.207253187635379"><ele>428.2</ele><time>2026-04-26T12:30:44.999Z</time></trkpt><trkpt lat="43.28423764950194" lon="13.207322135762308"><ele>429.0</ele><time>2026-04-26T12:30:45.999Z</time></trkpt><trkpt lat="43.2841397535777" lon="13.20739028960494"><ele>429.1666666666667</ele><time>2026-04-26T12:30:46.999Z</time></trkpt><trkpt lat="43.28403507400649" lon="13.20745157025994"><ele>429.33333333333337</ele><time>2026-04-26T12:30:47.999Z</time></trkpt><trkpt lat="43.2839415146498" lon="13.207507742038405"><ele>429.5</ele><time>2026-04-26T12:30:49Z</time></trkpt><trkpt lat="43.283863269784796" lon="13.207554483749094"><ele>429.6666666666667</ele><time>2026-04-26T12:30:50Z</time></trkpt><trkpt lat="43.283795969277854" lon="13.207596672402813"><ele>429.83333333333337</ele><time>2026-04-26T12:30:51Z</time></trkpt><trkpt lat="43.28374998439041" lon="13.207658387586353"><ele>430.0</ele><time>2026-04-26T12:30:52Z</time></trkpt><trkpt lat="43.283712418951716" lon="13.207819551361313"><ele>430.0</ele><time>2026-04-26T12:30:54Z</time></trkpt><trkpt lat="43.283714513507945" lon="13.207923376532362"><ele>430.0</ele><time>2026-04-26T12:30:55Z</time></trkpt><trkpt lat="43.283730645727076" lon="13.208028381361405"><ele>430.0</ele><time>2026-04-26T12:30:56Z</time></trkpt><trkpt lat="43.283754107058265" lon="13.208127966752501"><ele>430.0</ele><time>2026-04-26T12:30:57Z</time></trkpt><trkpt lat="43.2837575587653" lon="13.208235274478442"><ele>430.0</ele><time>2026-04-26T12:30:58Z</time></trkpt><trkpt lat="43.283767294607486" lon="13.208333932282116"><ele>430.0</ele><time>2026-04-26T12:30:59Z</time></trkpt><trkpt lat="43.28377357705724" lon="13.208421178179627"><ele>430.0</ele><time>2026-04-26T12:31:00Z</time></trkpt><trkpt lat="43.28378968551023" lon="13.208549631283908"><ele>429.83333333333337</ele><time>2026-04-26T12:31:02Z</time></trkpt><trkpt lat="43.283793779505494" lon="13.208651777042558"><ele>429.6666666666667</ele><time>2026-04-26T12:31:05Z</time></trkpt><trkpt lat="43.283877420853926" lon="13.208710349164082"><ele>429.5</ele><time>2026-04-26T12:31:09Z</time></trkpt><trkpt lat="43.28396573314109" lon="13.208703708359"><ele>429.33333333333337</ele><time>2026-04-26T12:31:11Z</time></trkpt><trkpt lat="43.28407468564101" lon="13.208719299970094"><ele>429.1666666666667</ele><time>2026-04-26T12:31:13Z</time></trkpt><trkpt lat="43.28414490881515" lon="13.20871995152345"><ele>429.0</ele><time>2026-04-26T12:31:14Z</time></trkpt><trkpt lat="43.28422408694265" lon="13.208698582362139"><ele>429.8333333333333</ele><time>2026-04-26T12:31:15Z</time></trkpt><trkpt lat="43.284300045569495" lon="13.20870039168594"><ele>430.66666666666663</ele><time>2026-04-26T12:31:16Z</time></trkpt><trkpt lat="43.284385171011174" lon="13.208698775253366"><ele>431.5</ele><time>2026-04-26T12:31:17Z</time></trkpt><trkpt lat="43.28447632038086" lon="13.20868948489827"><ele>432.3333333333333</ele><time>2026-04-26T12:31:18Z</time></trkpt><trkpt lat="43.284570610291155" lon="13.208682217272873"><ele>433.16666666666663</ele><time>2026-04-26T12:31:19Z</time></trkpt><trkpt lat="43.28466718031777" lon="13.208680456412072"><ele>434.0</ele><time>2026-04-26T12:31:20Z</time></trkpt><trkpt lat="43.28476239055915" lon="13.208659731019354"><ele>434.6</ele><time>2026-04-26T12:31:21Z</time></trkpt><trkpt lat="43.28485736756564" lon="13.208612811607281"><ele>435.2</ele><time>2026-04-26T12:31:22Z</time></trkpt><trkpt lat="43.28495540866639" lon="13.208585585083048"><ele>435.80000000000007</ele><time>2026-04-26T12:31:23Z</time></trkpt><trkpt lat="43.285052931888984" lon="13.208550199203726"><ele>436.40000000000003</ele><time>2026-04-26T12:31:24Z</time></trkpt><trkpt lat="43.28513926977248" lon="13.208520893723835"><ele>437.0</ele><time>2026-04-26T12:31:25Z</time></trkpt><trkpt lat="43.2852236376955" lon="13.208498110536222"><ele>437.0</ele><time>2026-04-26T12:31:26Z</time></trkpt><trkpt lat="43.28531668756161" lon="13.20851044384583"><ele>437.00000000000006</ele><time>2026-04-26T12:31:27Z</time></trkpt><trkpt lat="43.285406139952144" lon="13.208509310595884"><ele>437.00000000000006</ele><time>2026-04-26T12:31:28Z</time></trkpt><trkpt lat="43.28550261264364" lon="13.208521302848716"><ele>437.0</ele><time>2026-04-26T12:31:29Z</time></trkpt><trkpt lat="43.285601162284834" lon="13.208532904528745"><ele>437.0</ele><time>2026-04-26T12:31:30Z</time></trkpt><trkpt lat="43.285701634867344" lon="13.208543385559492"><ele>437.6</ele><time>2026-04-26T12:31:31Z</time></trkpt><trkpt lat="43.28580490540669" lon="13.208553923100268"><ele>438.20000000000005</ele><time>2026-04-26T12:31:32Z</time></trkpt><trkpt lat="43.28590917495896" lon="13.208542573313554"><ele>438.8</ele><time>2026-04-26T12:31:33Z</time></trkpt><trkpt lat="43.286013285819514" lon="13.208576325516606"><ele>439.4</ele><time>2026-04-26T12:31:34Z</time></trkpt><trkpt lat="43.28611809188647" lon="13.208585316196483"><ele>440.0</ele><time>2026-04-26T12:31:35Z</time></trkpt><trkpt lat="43.28622212714126" lon="13.208593082713907"><ele>440.0</ele><time>2026-04-26T12:31:36Z</time></trkpt><trkpt lat="43.286329071423424" lon="13.208601066400337"><ele>440.0</ele><time>2026-04-26T12:31:36.999Z</time></trkpt><trkpt lat="43.28643436482577" lon="13.208609298573188"><ele>440.0</ele><time>2026-04-26T12:31:37.999Z</time></trkpt><trkpt lat="43.28652331626086" lon="13.208618857879445"><ele>440.0</ele><time>2026-04-26T12:31:38.999Z</time></trkpt><trkpt lat="43.28660705776955" lon="13.208615441928384"><ele>440.0</ele><time>2026-04-26T12:31:39.999Z</time></trkpt><trkpt lat="43.28668227576036" lon="13.208638503430839"><ele>440.99999999999994</ele><time>2026-04-26T12:31:40.999Z</time></trkpt><trkpt lat="43.286746655839195" lon="13.20871207217135"><ele>442.0</ele><time>2026-04-26T12:31:41.999Z</time></trkpt><trkpt lat="43.28680914909552" lon="13.208778171140018"><ele>443.0</ele><time>2026-04-26T12:31:42.999Z</time></trkpt><trkpt lat="43.28687845459129" lon="13.20885685376501"><ele>444.0</ele><time>2026-04-26T12:31:43.999Z</time></trkpt><trkpt lat="43.286949213517424" lon="13.208937415423026"><ele>444.99999999999994</ele><time>2026-04-26T12:31:44.999Z</time></trkpt><trkpt lat="43.287020377884076" lon="13.209018438634397"><ele>446.0</ele><time>2026-04-26T12:31:45.999Z</time></trkpt><trkpt lat="43.28709322594978" lon="13.209100808760333"><ele>447.6</ele><time>2026-04-26T12:31:46.999Z</time></trkpt><trkpt lat="43.28716762879393" lon="13.209183666918719"><ele>449.20000000000005</ele><time>2026-04-26T12:31:47.999Z</time></trkpt><trkpt lat="43.287254728254375" lon="13.209252325488583"><ele>450.79999999999995</ele><time>2026-04-26T12:31:48.999Z</time></trkpt><trkpt lat="43.28732292160813" lon="13.209356607803498"><ele>452.4</ele><time>2026-04-26T12:31:49.999Z</time></trkpt><trkpt lat="43.28740688208103" lon="13.209447348493962"><ele>454.0</ele><time>2026-04-26T12:31:50.999Z</time></trkpt><trkpt lat="43.287504036378316" lon="13.209521240688723"><ele>455.75</ele><time>2026-04-26T12:31:51.999Z</time></trkpt><trkpt lat="43.28759335203629" lon="13.209619188512866"><ele>457.5</ele><time>2026-04-26T12:31:52.999Z</time></trkpt><trkpt lat="43.28768870609043" lon="13.209708918270776"><ele>459.25</ele><time>2026-04-26T12:31:53.999Z</time></trkpt><trkpt lat="43.28778796510925" lon="13.209793337951668"><ele>461.0</ele><time>2026-04-26T12:31:54.999Z</time></trkpt><trkpt lat="43.28787883681215" lon="13.20988797289481"><ele>461.8</ele><time>2026-04-26T12:31:55.999Z</time></trkpt><trkpt lat="43.287966263466885" lon="13.209984846851253"><ele>462.6</ele><time>2026-04-26T12:31:56.999Z</time></trkpt><trkpt lat="43.28804876965681" lon="13.210076161136316"><ele>463.4</ele><time>2026-04-26T12:31:57.999Z</time></trkpt><trkpt lat="43.28813082063522" lon="13.210144188026344"><ele>464.2</ele><time>2026-04-26T12:31:58.999Z</time></trkpt><trkpt lat="43.2882084777215" lon="13.210184144311013"><ele>465.0</ele><time>2026-04-26T12:31:59.999Z</time></trkpt><trkpt lat="43.28828307947053" lon="13.210207091844705"><ele>466.3333333333333</ele><time>2026-04-26T12:32:00.999Z</time></trkpt><trkpt lat="43.28836146070074" lon="13.210221860245062"><ele>467.66666666666663</ele><time>2026-04-26T12:32:01.999Z</time></trkpt><trkpt lat="43.28844182929721" lon="13.210233904819903"><ele>469.0</ele><time>2026-04-26T12:32:02.999Z</time></trkpt><trkpt lat="43.288513539044764" lon="13.21024179058683"><ele>470.3333333333333</ele><time>2026-04-26T12:32:03.999Z</time></trkpt><trkpt lat="43.28862956150378" lon="13.210224032966934"><ele>471.66666666666663</ele><time>2026-04-26T12:32:05.999Z</time></trkpt><trkpt lat="43.28869792886614" lon="13.210209335481052"><ele>473.0</ele><time>2026-04-26T12:32:06.999Z</time></trkpt><trkpt lat="43.28874463121302" lon="13.210118938485868"><ele>472.99999999999994</ele><time>2026-04-26T12:32:07.999Z</time></trkpt><trkpt lat="43.28881247112696" lon="13.210058157855824"><ele>473.0</ele><time>2026-04-26T12:32:08.999Z</time></trkpt><trkpt lat="43.28887774212551" lon="13.209984525045476"><ele>473.0</ele><time>2026-04-26T12:32:09.999Z</time></trkpt><trkpt lat="43.28895012381114" lon="13.209924747787799"><ele>473.0</ele><time>2026-04-26T12:32:10.999Z</time></trkpt><trkpt lat="43.28902981472216" lon="13.20986953684654"><ele>472.99999999999994</ele><time>2026-04-26T12:32:11.999Z</time></trkpt><trkpt lat="43.28911410732727" lon="13.209807787312187"><ele>473.0</ele><time>2026-04-26T12:32:12.999Z</time></trkpt><trkpt lat="43.28921919545028" lon="13.2098163092804"><ele>474.5</ele><time>2026-04-26T12:32:13.999Z</time></trkpt><trkpt lat="43.289324845654335" lon="13.209818186026707"><ele>476.0</ele><time>2026-04-26T12:32:14.999Z</time></trkpt><trkpt lat="43.28944191481304" lon="13.2098074848062"><ele>477.5</ele><time>2026-04-26T12:32:15.999Z</time></trkpt><trkpt lat="43.289562369828744" lon="13.209819489113624"><ele>479.0</ele><time>2026-04-26T12:32:16.999Z</time></trkpt><trkpt lat="43.28968126581432" lon="13.209827307322696"><ele>479.6</ele><time>2026-04-26T12:32:17.999Z</time></trkpt><trkpt lat="43.28979426362648" lon="13.209840897849316"><ele>480.2</ele><time>2026-04-26T12:32:18.999Z</time></trkpt><trkpt lat="43.289895264675174" lon="13.209863401153163"><ele>480.80000000000007</ele><time>2026-04-26T12:32:19.999Z</time></trkpt><trkpt lat="43.2899929134873" lon="13.209888690769024"><ele>481.40000000000003</ele><time>2026-04-26T12:32:20.999Z</time></trkpt><trkpt lat="43.29008765275993" lon="13.209914930289747"><ele>482.0</ele><time>2026-04-26T12:32:21.999Z</time></trkpt><trkpt lat="43.29018184907544" lon="13.209937697923726"><ele>481.99999999999994</ele><time>2026-04-26T12:32:22.999Z</time></trkpt><trkpt lat="43.290271025510194" lon="13.209954997417649"><ele>482.0</ele><time>2026-04-26T12:32:23.999Z</time></trkpt><trkpt lat="43.29036021977277" lon="13.209969346578621"><ele>482.0</ele><time>2026-04-26T12:32:24.999Z</time></trkpt><trkpt lat="43.29044797541993" lon="13.20997840126169"><ele>482.0</ele><time>2026-04-26T12:32:25.999Z</time></trkpt><trkpt lat="43.29053486811877" lon="13.209980797901354"><ele>481.99999999999994</ele><time>2026-04-26T12:32:26.999Z</time></trkpt><trkpt lat="43.29062144923706" lon="13.209978055882807"><ele>482.0</ele><time>2026-04-26T12:32:27.999Z</time></trkpt><trkpt lat="43.29070938527773" lon="13.209967895068788"><ele>482.8</ele><time>2026-04-26T12:32:28.999Z</time></trkpt><trkpt lat="43.29079079174565" lon="13.209951386388925"><ele>483.6</ele><time>2026-04-26T12:32:29.999Z</time></trkpt><trkpt lat="43.29087075354522" lon="13.209930451593225"><ele>484.40000000000003</ele><time>2026-04-26T12:32:30.999Z</time></trkpt><trkpt lat="43.290936971682875" lon="13.209910709392659"><ele>485.20000000000005</ele><time>2026-04-26T12:32:31.999Z</time></trkpt><trkpt lat="43.291044743206655" lon="13.209880583358494"><ele>486.0</ele><time>2026-04-26T12:32:33.999Z</time></trkpt><trkpt lat="43.291162399880974" lon="13.209848839772597"><ele>486.0</ele><time>2026-04-26T12:32:35.999Z</time></trkpt><trkpt lat="43.29123014472154" lon="13.209855007947134"><ele>486.0</ele><time>2026-04-26T12:32:36.999Z</time></trkpt><trkpt lat="43.29130056473789" lon="13.209844167700904"><ele>486.0</ele><time>2026-04-26T12:32:37.999Z</time></trkpt><trkpt lat="43.291374236627114" lon="13.20981892082493"><ele>486.0</ele><time>2026-04-26T12:32:38.999Z</time></trkpt><trkpt lat="43.291455946911206" lon="13.209839331607414"><ele>486.0</ele><time>2026-04-26T12:32:39.999Z</time></trkpt><trkpt lat="43.291540796602185" lon="13.209842834680666"><ele>486.0</ele><time>2026-04-26T12:32:40.999Z</time></trkpt><trkpt lat="43.29163476664601" lon="13.209845625455824"><ele>485.8</ele><time>2026-04-26T12:32:41.999Z</time></trkpt><trkpt lat="43.29173326922173" lon="13.209844457684119"><ele>485.6</ele><time>2026-04-26T12:32:42.999Z</time></trkpt><trkpt lat="43.29183970311564" lon="13.209839116114614"><ele>485.4</ele><time>2026-04-26T12:32:43.999Z</time></trkpt><trkpt lat="43.29194955121905" lon="13.20983360320188"><ele>485.2</ele><time>2026-04-26T12:32:44.999Z</time></trkpt><trkpt lat="43.2920607824468" lon="13.209815507537636"><ele>485.0</ele><time>2026-04-26T12:32:45.999Z</time></trkpt><trkpt lat="43.29216362614026" lon="13.209767149266552"><ele>485.0</ele><time>2026-04-26T12:32:46.999Z</time></trkpt><trkpt lat="43.29225312628285" lon="13.209684598588469"><ele>485.0</ele><time>2026-04-26T12:32:47.999Z</time></trkpt><trkpt lat="43.29234505364037" lon="13.209609954864352"><ele>485.0</ele><time>2026-04-26T12:32:48.999Z</time></trkpt><trkpt lat="43.29244709991566" lon="13.209552079792022"><ele>485.0</ele><time>2026-04-26T12:32:49.999Z</time></trkpt><trkpt lat="43.29253564080209" lon="13.209480915025011"><ele>485.0</ele><time>2026-04-26T12:32:50.999Z</time></trkpt><trkpt lat="43.292623981035995" lon="13.209416275575292"><ele>487.2</ele><time>2026-04-26T12:32:51.999Z</time></trkpt><trkpt lat="43.292709013002785" lon="13.209355443789411"><ele>489.4</ele><time>2026-04-26T12:32:52.999Z</time></trkpt><trkpt lat="43.29279148285449" lon="13.209294745434889"><ele>491.6</ele><time>2026-04-26T12:32:54Z</time></trkpt><trkpt lat="43.29287774917309" lon="13.209229229299906"><ele>493.8</ele><time>2026-04-26T12:32:55Z</time></trkpt><trkpt lat="43.29295664368447" lon="13.209166117260455"><ele>496.0</ele><time>2026-04-26T12:32:56Z</time></trkpt><trkpt lat="43.293030081824604" lon="13.209118392556594"><ele>497.7142857142857</ele><time>2026-04-26T12:32:57Z</time></trkpt><trkpt lat="43.293089629325564" lon="13.209068603961404"><ele>499.42857142857144</ele><time>2026-04-26T12:32:58Z</time></trkpt><trkpt lat="43.29315389975363" lon="13.209056219879857"><ele>501.14285714285717</ele><time>2026-04-26T12:32:59Z</time></trkpt><trkpt lat="43.29322461941716" lon="13.209056012773326"><ele>502.8571428571429</ele><time>2026-04-26T12:33:00Z</time></trkpt><trkpt lat="43.29329656017233" lon="13.209068903563658"><ele>504.57142857142856</ele><time>2026-04-26T12:33:01Z</time></trkpt><trkpt lat="43.29336727553759" lon="13.209116384965753"><ele>506.28571428571433</ele><time>2026-04-26T12:33:02Z</time></trkpt><trkpt lat="43.293447429176965" lon="13.209143797252352"><ele>508.0</ele><time>2026-04-26T12:33:03Z</time></trkpt><trkpt lat="43.29353020067418" lon="13.209171718760592"><ele>508.0</ele><time>2026-04-26T12:33:04Z</time></trkpt><trkpt lat="43.29362119197152" lon="13.209202413119021"><ele>507.99999999999994</ele><time>2026-04-26T12:33:05Z</time></trkpt><trkpt lat="43.293719533572464" lon="13.209235586896012"><ele>507.99999999999994</ele><time>2026-04-26T12:33:06Z</time></trkpt><trkpt lat="43.29382277773278" lon="13.209269699182173"><ele>508.0</ele><time>2026-04-26T12:33:07Z</time></trkpt><trkpt lat="43.293929154517436" lon="13.209284477560638"><ele>508.0</ele><time>2026-04-26T12:33:08Z</time></trkpt><trkpt lat="43.294036639792786" lon="13.209314117079062"><ele>509.59999999999997</ele><time>2026-04-26T12:33:09Z</time></trkpt><trkpt lat="43.29414914606555" lon="13.209329353980195"><ele>511.19999999999993</ele><time>2026-04-26T12:33:10Z</time></trkpt><trkpt lat="43.294261273868734" lon="13.209339798215188"><ele>512.8</ele><time>2026-04-26T12:33:11Z</time></trkpt><trkpt lat="43.294366580197625" lon="13.20933987079903"><ele>514.4</ele><time>2026-04-26T12:33:12Z</time></trkpt><trkpt lat="43.29445972311693" lon="13.209319271606212"><ele>516.0</ele><time>2026-04-26T12:33:13Z</time></trkpt><trkpt lat="43.294549929366525" lon="13.209282355438482"><ele>516.0</ele><time>2026-04-26T12:33:14Z</time></trkpt><trkpt lat="43.294647807259864" lon="13.209280438681006"><ele>516.0</ele><time>2026-04-26T12:33:15Z</time></trkpt><trkpt lat="43.29473632827173" lon="13.209268627600396"><ele>516.0</ele><time>2026-04-26T12:33:16Z</time></trkpt><trkpt lat="43.29481684284535" lon="13.209264590616668"><ele>516.0</ele><time>2026-04-26T12:33:17Z</time></trkpt><trkpt lat="43.29488624173603" lon="13.209276242142058"><ele>516.0</ele><time>2026-04-26T12:33:18Z</time></trkpt><trkpt lat="43.29495553623313" lon="13.209297240707162"><ele>516.0</ele><time>2026-04-26T12:33:19Z</time></trkpt><trkpt lat="43.29503942033867" lon="13.209321964587891"><ele>517.0</ele><time>2026-04-26T12:33:20Z</time></trkpt><trkpt lat="43.29511817986478" lon="13.209393241465948"><ele>518.0</ele><time>2026-04-26T12:33:21Z</time></trkpt><trkpt lat="43.295197771189436" lon="13.209476406442047"><ele>519.0</ele><time>2026-04-26T12:33:22Z</time></trkpt><trkpt lat="43.29528122774302" lon="13.20956521272184"><ele>520.0</ele><time>2026-04-26T12:33:23Z</time></trkpt><trkpt lat="43.295369330121275" lon="13.209652551864888"><ele>521.0</ele><time>2026-04-26T12:33:24Z</time></trkpt><trkpt lat="43.2954645979914" lon="13.20972633094462"><ele>521.0</ele><time>2026-04-26T12:33:25Z</time></trkpt><trkpt lat="43.29556329036458" lon="13.209781773471276"><ele>521.0</ele><time>2026-04-26T12:33:26Z</time></trkpt><trkpt lat="43.29566091366991" lon="13.209812245072584"><ele>521.0</ele><time>2026-04-26T12:33:27Z</time></trkpt><trkpt lat="43.295760365517594" lon="13.209830000775035"><ele>521.0</ele><time>2026-04-26T12:33:28Z</time></trkpt><trkpt lat="43.29586293234392" lon="13.209847640134257"><ele>521.0</ele><time>2026-04-26T12:33:29Z</time></trkpt><trkpt lat="43.29597379186222" lon="13.209855936525331"><ele>522.0</ele><time>2026-04-26T12:33:30Z</time></trkpt><trkpt lat="43.29609080008167" lon="13.209856628631593"><ele>523.0</ele><time>2026-04-26T12:33:31Z</time></trkpt><trkpt lat="43.29621115091862" lon="13.209869489958727"><ele>524.0</ele><time>2026-04-26T12:33:32Z</time></trkpt><trkpt lat="43.29633567961157" lon="13.209875853524847"><ele>525.0</ele><time>2026-04-26T12:33:33Z</time></trkpt><trkpt lat="43.29645918333719" lon="13.209926573563829"><ele>525.75</ele><time>2026-04-26T12:33:34Z</time></trkpt><trkpt lat="43.29657962089123" lon="13.209970842102958"><ele>526.5</ele><time>2026-04-26T12:33:35Z</time></trkpt><trkpt lat="43.296697250434256" lon="13.210030459557139"><ele>527.25</ele><time>2026-04-26T12:33:36Z</time></trkpt><trkpt lat="43.29682553785879" lon="13.21008133546075"><ele>528.0</ele><time>2026-04-26T12:33:37Z</time></trkpt><trkpt lat="43.29694489407958" lon="13.21016752847628"><ele>528.0</ele><time>2026-04-26T12:33:38Z</time></trkpt><trkpt lat="43.297050761267776" lon="13.210290940774154"><ele>528.0</ele><time>2026-04-26T12:33:39Z</time></trkpt><trkpt lat="43.29715933306873" lon="13.210407853856827"><ele>528.0</ele><time>2026-04-26T12:33:40Z</time></trkpt><trkpt lat="43.29727708121332" lon="13.210511194097451"><ele>528.0</ele><time>2026-04-26T12:33:41Z</time></trkpt><trkpt lat="43.29737809457633" lon="13.210623032994345"><ele>529.25</ele><time>2026-04-26T12:33:42Z</time></trkpt><trkpt lat="43.29749174948112" lon="13.210718985183805"><ele>530.5</ele><time>2026-04-26T12:33:43Z</time></trkpt><trkpt lat="43.29761081817276" lon="13.21079892046385"><ele>531.75</ele><time>2026-04-26T12:33:44Z</time></trkpt><trkpt lat="43.29772740770144" lon="13.210886289513265"><ele>533.0</ele><time>2026-04-26T12:33:45Z</time></trkpt><trkpt lat="43.297851803595414" lon="13.210949451596973"><ele>533.0</ele><time>2026-04-26T12:33:46Z</time></trkpt><trkpt lat="43.29797532630189" lon="13.211000289179498"><ele>533.0</ele><time>2026-04-26T12:33:47Z</time></trkpt><trkpt lat="43.29809805005769" lon="13.211043747210248"><ele>533.0</ele><time>2026-04-26T12:33:48Z</time></trkpt><trkpt lat="43.29822415644408" lon="13.211069134643056"><ele>533.0</ele><time>2026-04-26T12:33:49Z</time></trkpt><trkpt lat="43.298348266445856" lon="13.211082012639347"><ele>534.5</ele><time>2026-04-26T12:33:50Z</time></trkpt><trkpt lat="43.29847089535672" lon="13.211089624411821"><ele>536.0</ele><time>2026-04-26T12:33:51Z</time></trkpt><trkpt lat="43.298588440462794" lon="13.211094136012543"><ele>537.5</ele><time>2026-04-26T12:33:52Z</time></trkpt><trkpt lat="43.298702818289655" lon="13.211095437973235"><ele>539.0</ele><time>2026-04-26T12:33:53Z</time></trkpt><trkpt lat="43.29881064524356" lon="13.211096665362236"><ele>539.0</ele><time>2026-04-26T12:33:54Z</time></trkpt><trkpt lat="43.298912713309946" lon="13.211097827199618"><ele>539.0</ele><time>2026-04-26T12:33:54.999Z</time></trkpt><trkpt lat="43.29901244247162" lon="13.211101405521049"><ele>539.0</ele><time>2026-04-26T12:33:55.999Z</time></trkpt><trkpt lat="43.299112364565" lon="13.211105201578706"><ele>539.0</ele><time>2026-04-26T12:33:56.999Z</time></trkpt><trkpt lat="43.29921472547503" lon="13.211111088228984"><ele>539.0</ele><time>2026-04-26T12:33:57.999Z</time></trkpt><trkpt lat="43.299319919129196" lon="13.211120443392614"><ele>541.6</ele><time>2026-04-26T12:33:58.999Z</time></trkpt><trkpt lat="43.29941723741488" lon="13.211136145224286"><ele>544.2</ele><time>2026-04-26T12:33:59.999Z</time></trkpt><trkpt lat="43.299510005092024" lon="13.211138224172048"><ele>546.8000000000001</ele><time>2026-04-26T12:34:00.999Z</time></trkpt><trkpt lat="43.299588697367014" lon="13.211183260827566"><ele>549.4</ele><time>2026-04-26T12:34:01.999Z</time></trkpt><trkpt lat="43.29966767667871" lon="13.21122670896697"><ele>552.0</ele><time>2026-04-26T12:34:02.999Z</time></trkpt><trkpt lat="43.299747866132826" lon="13.211290764977726"><ele>554.4</ele><time>2026-04-26T12:34:03.999Z</time></trkpt><trkpt lat="43.29984374866051" lon="13.211355159906994"><ele>556.8000000000001</ele><time>2026-04-26T12:34:04.999Z</time></trkpt><trkpt lat="43.299944977161616" lon="13.211423846730002"><ele>559.2</ele><time>2026-04-26T12:34:05.999Z</time></trkpt><trkpt lat="43.300047001192674" lon="13.211496722254225"><ele>561.6</ele><time>2026-04-26T12:34:06.999Z</time></trkpt><trkpt lat="43.300142297237166" lon="13.211577314243545"><ele>564.0</ele><time>2026-04-26T12:34:07.999Z</time></trkpt><trkpt lat="43.300240614601016" lon="13.21164069066343"><ele>564.8</ele><time>2026-04-26T12:34:08.999Z</time></trkpt><trkpt lat="43.30032785424575" lon="13.21171767229439"><ele>565.5999999999999</ele><time>2026-04-26T12:34:09.999Z</time></trkpt><trkpt lat="43.30040890937567" lon="13.211802313547018"><ele>566.4</ele><time>2026-04-26T12:34:10.999Z</time></trkpt><trkpt lat="43.300509751471935" lon="13.211847595367528"><ele>567.1999999999999</ele><time>2026-04-26T12:34:11.999Z</time></trkpt><trkpt lat="43.30061758473553" lon="13.211863173859427"><ele>568.0</ele><time>2026-04-26T12:34:12.999Z</time></trkpt><trkpt lat="43.30072649162823" lon="13.21187393149584"><ele>570.5</ele><time>2026-04-26T12:34:13.999Z</time></trkpt><trkpt lat="43.30084400438252" lon="13.211886148059795"><ele>573.0</ele><time>2026-04-26T12:34:14.999Z</time></trkpt><trkpt lat="43.30097249826326" lon="13.211899506234701"><ele>575.5</ele><time>2026-04-26T12:34:15.999Z</time></trkpt><trkpt lat="43.301106106024385" lon="13.21191339602836"><ele>578.0</ele><time>2026-04-26T12:34:16.999Z</time></trkpt><trkpt lat="43.30123864714936" lon="13.211928163376653"><ele>578.0</ele><time>2026-04-26T12:34:17.999Z</time></trkpt><trkpt lat="43.30137036460386" lon="13.211944826155959"><ele>578.0</ele><time>2026-04-26T12:34:18.999Z</time></trkpt><trkpt lat="43.30149316547531" lon="13.211960360965337"><ele>578.0</ele><time>2026-04-26T12:34:19.999Z</time></trkpt><trkpt lat="43.301602136603464" lon="13.211968066965929"><ele>578.0</ele><time>2026-04-26T12:34:20.999Z</time></trkpt><trkpt lat="43.301692861323204" lon="13.211966086917244"><ele>580.1999999999999</ele><time>2026-04-26T12:34:21.999Z</time></trkpt><trkpt lat="43.30178206680873" lon="13.21193824368468"><ele>582.4</ele><time>2026-04-26T12:34:22.999Z</time></trkpt><trkpt lat="43.30186803412328" lon="13.211891787573391"><ele>584.5999999999999</ele><time>2026-04-26T12:34:23.999Z</time></trkpt><trkpt lat="43.30194931579875" lon="13.211804495869924"><ele>586.8</ele><time>2026-04-26T12:34:24.999Z</time></trkpt><trkpt lat="43.302026251201276" lon="13.21170582945654"><ele>589.0</ele><time>2026-04-26T12:34:25.999Z</time></trkpt><trkpt lat="43.30209962914042" lon="13.211610535760377"><ele>589.0</ele><time>2026-04-26T12:34:26.999Z</time></trkpt><trkpt lat="43.30217481384185" lon="13.211527302995437"><ele>589.0</ele><time>2026-04-26T12:34:27.999Z</time></trkpt><trkpt lat="43.30225154246725" lon="13.211450738316264"><ele>589.0</ele><time>2026-04-26T12:34:28.999Z</time></trkpt><trkpt lat="43.30232824867624" lon="13.211384466131683"><ele>589.0</ele><time>2026-04-26T12:34:29.999Z</time></trkpt><trkpt lat="43.302405280655755" lon="13.211346412459479"><ele>589.0</ele><time>2026-04-26T12:34:30.999Z</time></trkpt><trkpt lat="43.30248545480895" lon="13.211322774111132"><ele>589.0</ele><time>2026-04-26T12:34:31.999Z</time></trkpt><trkpt lat="43.30256714189815" lon="13.211319455197138"><ele>589.6</ele><time>2026-04-26T12:34:32.999Z</time></trkpt><trkpt lat="43.30265285531147" lon="13.211338994191639"><ele>590.2</ele><time>2026-04-26T12:34:33.999Z</time></trkpt><trkpt lat="43.30274227062184" lon="13.211374379486669"><ele>590.8000000000001</ele><time>2026-04-26T12:34:34.999Z</time></trkpt><trkpt lat="43.302834827862746" lon="13.211417585271224"><ele>591.4</ele><time>2026-04-26T12:34:35.999Z</time></trkpt><trkpt lat="43.30293033518323" lon="13.21146600852039"><ele>592.0</ele><time>2026-04-26T12:34:36.999Z</time></trkpt><trkpt lat="43.30302615309031" lon="13.211517099933802"><ele>594.0</ele><time>2026-04-26T12:34:37.999Z</time></trkpt><trkpt lat="43.30311905834623" lon="13.211566636690286"><ele>596.0</ele><time>2026-04-26T12:34:38.999Z</time></trkpt><trkpt lat="43.30320599103095" lon="13.211614572805525"><ele>598.0</ele><time>2026-04-26T12:34:39.999Z</time></trkpt><trkpt lat="43.30329680072556" lon="13.211655012360751"><ele>600.0</ele><time>2026-04-26T12:34:40.999Z</time></trkpt><trkpt lat="43.30336715116535" lon="13.211720756556753"><ele>602.0</ele><time>2026-04-26T12:34:41.999Z</time></trkpt><trkpt lat="43.303424957891885" lon="13.211770797468978"><ele>604.0</ele><time>2026-04-26T12:34:42.999Z</time></trkpt><trkpt lat="43.30351227755951" lon="13.211841302548978"><ele>604.0</ele><time>2026-04-26T12:34:44.999Z</time></trkpt><trkpt lat="43.30360117490324" lon="13.21190906677834"><ele>604.0</ele><time>2026-04-26T12:34:46.999Z</time></trkpt><trkpt lat="43.30368335391307" lon="13.211918988940187"><ele>604.0</ele><time>2026-04-26T12:34:47.999Z</time></trkpt><trkpt lat="43.30376786520927" lon="13.211925871731024"><ele>604.0</ele><time>2026-04-26T12:34:48.999Z</time></trkpt><trkpt lat="43.30385789552178" lon="13.21193419502106"><ele>604.0</ele><time>2026-04-26T12:34:49.999Z</time></trkpt><trkpt lat="43.30395249731884" lon="13.21194253578215"><ele>605.0</ele><time>2026-04-26T12:34:50.999Z</time></trkpt><trkpt lat="43.30402599844965" lon="13.211948998933009"><ele>606.0</ele><time>2026-04-26T12:34:51.999Z</time></trkpt><trkpt lat="43.30410244223428" lon="13.211955898811727"><ele>607.0</ele><time>2026-04-26T12:34:52.999Z</time></trkpt><trkpt lat="43.30419227812427" lon="13.21196441682067"><ele>608.0</ele><time>2026-04-26T12:34:53.999Z</time></trkpt><trkpt lat="43.30428994347485" lon="13.211973677187537"><ele>609.0</ele><time>2026-04-26T12:34:54.999Z</time></trkpt><trkpt lat="43.304389893579405" lon="13.21196265784819"><ele>610.0</ele><time>2026-04-26T12:34:55.999Z</time></trkpt><trkpt lat="43.30448588220311" lon="13.211972696672905"><ele>610.0</ele><time>2026-04-26T12:34:56.999Z</time></trkpt><trkpt lat="43.304581362963454" lon="13.212009899769914"><ele>610.0</ele><time>2026-04-26T12:34:57.999Z</time></trkpt><trkpt lat="43.304683792412874" lon="13.212030138680733"><ele>610.0</ele><time>2026-04-26T12:34:58.999Z</time></trkpt><trkpt lat="43.304790760289045" lon="13.21205316801491"><ele>610.0</ele><time>2026-04-26T12:35:00Z</time></trkpt><trkpt lat="43.304895698170405" lon="13.212076320858197"><ele>610.0</ele><time>2026-04-26T12:35:01Z</time></trkpt><trkpt lat="43.30500243107574" lon="13.212099869738834"><ele>611.6</ele><time>2026-04-26T12:35:02Z</time></trkpt><trkpt lat="43.30510943622509" lon="13.212109931774494"><ele>613.2</ele><time>2026-04-26T12:35:03Z</time></trkpt><trkpt lat="43.30521517475277" lon="13.212132838284674"><ele>614.8</ele><time>2026-04-26T12:35:04Z</time></trkpt><trkpt lat="43.305319322432915" lon="13.212134076704414"><ele>616.4</ele><time>2026-04-26T12:35:05Z</time></trkpt><trkpt lat="43.305418482619736" lon="13.212133233739197"><ele>618.0</ele><time>2026-04-26T12:35:06Z</time></trkpt><trkpt lat="43.305525574839315" lon="13.21212787768059"><ele>620.25</ele><time>2026-04-26T12:35:07Z</time></trkpt><trkpt lat="43.30563991306298" lon="13.212128759390842"><ele>622.5</ele><time>2026-04-26T12:35:08Z</time></trkpt><trkpt lat="43.30575485315713" lon="13.212172304380095"><ele>624.75</ele><time>2026-04-26T12:35:09Z</time></trkpt><trkpt lat="43.30586971813197" lon="13.212214821652356"><ele>627.0</ele><time>2026-04-26T12:35:10Z</time></trkpt><trkpt lat="43.30598339203142" lon="13.212254092956465"><ele>627.0</ele><time>2026-04-26T12:35:11Z</time></trkpt><trkpt lat="43.30609111265941" lon="13.2122850080513"><ele>627.0</ele><time>2026-04-26T12:35:12Z</time></trkpt><trkpt lat="43.30619240769306" lon="13.212268346365613"><ele>627.0</ele><time>2026-04-26T12:35:13Z</time></trkpt><trkpt lat="43.30628752680761" lon="13.212257722858041"><ele>627.0</ele><time>2026-04-26T12:35:14Z</time></trkpt><trkpt lat="43.30638784111695" lon="13.212243477953388"><ele>627.0</ele><time>2026-04-26T12:35:15Z</time></trkpt><trkpt lat="43.30649173962143" lon="13.212271326455532"><ele>629.25</ele><time>2026-04-26T12:35:16Z</time></trkpt><trkpt lat="43.30660022755968" lon="13.212259049515156"><ele>631.5</ele><time>2026-04-26T12:35:17Z</time></trkpt><trkpt lat="43.306715212122235" lon="13.212278952900341"><ele>633.75</ele><time>2026-04-26T12:35:18Z</time></trkpt><trkpt lat="43.30682778788775" lon="13.212330224527424"><ele>636.0</ele><time>2026-04-26T12:35:19Z</time></trkpt><trkpt lat="43.30694001082923" lon="13.212372859765793"><ele>637.75</ele><time>2026-04-26T12:35:20Z</time></trkpt><trkpt lat="43.30705045627962" lon="13.21241918329658"><ele>639.5</ele><time>2026-04-26T12:35:21Z</time></trkpt><trkpt lat="43.30716615182695" lon="13.212450170339974"><ele>641.25</ele><time>2026-04-26T12:35:22Z</time></trkpt><trkpt lat="43.30726764031852" lon="13.212529234049697"><ele>643.0</ele><time>2026-04-26T12:35:23Z</time></trkpt><trkpt lat="43.307376275542126" lon="13.212572128927038"><ele>645.8</ele><time>2026-04-26T12:35:24Z</time></trkpt><trkpt lat="43.307471635457254" lon="13.212641882668352"><ele>648.5999999999999</ele><time>2026-04-26T12:35:25Z</time></trkpt><trkpt lat="43.30757072352385" lon="13.212686386221943"><ele>651.4000000000001</ele><time>2026-04-26T12:35:26Z</time></trkpt><trkpt lat="43.30767041907738" lon="13.212720778469091"><ele>654.2</ele><time>2026-04-26T12:35:27Z</time></trkpt><trkpt lat="43.30777421195529" lon="13.21275111386112"><ele>657.0</ele><time>2026-04-26T12:35:28Z</time></trkpt><trkpt lat="43.307875508765456" lon="13.212779042439722"><ele>657.0</ele><time>2026-04-26T12:35:29Z</time></trkpt><trkpt lat="43.30797608924385" lon="13.212779841539643"><ele>657.0</ele><time>2026-04-26T12:35:30Z</time></trkpt><trkpt lat="43.30805259219014" lon="13.212829627794381"><ele>657.0</ele><time>2026-04-26T12:35:31Z</time></trkpt><trkpt lat="43.30811465974281" lon="13.21286499260572"><ele>657.0</ele><time>2026-04-26T12:35:32Z</time></trkpt><trkpt lat="43.30817624641071" lon="13.21289543734885"><ele>657.0</ele><time>2026-04-26T12:35:33Z</time></trkpt><trkpt lat="43.308277849950514" lon="13.21291376687523"><ele>657.0</ele><time>2026-04-26T12:35:35Z</time></trkpt><trkpt lat="43.30839912717849" lon="13.212995564702817"><ele>658.6</ele><time>2026-04-26T12:35:37Z</time></trkpt><trkpt lat="43.30848210585681" lon="13.213049578882833"><ele>660.2</ele><time>2026-04-26T12:35:38Z</time></trkpt><trkpt lat="43.30857270155243" lon="13.21310259670868"><ele>661.8</ele><time>2026-04-26T12:35:39Z</time></trkpt><trkpt lat="43.30866477890825" lon="13.213152750906087"><ele>663.4</ele><time>2026-04-26T12:35:40Z</time></trkpt><trkpt lat="43.30875934709415" lon="13.213225211682962"><ele>665.0</ele><time>2026-04-26T12:35:41Z</time></trkpt><trkpt lat="43.308868560335625" lon="13.213277524009257"><ele>669.5</ele><time>2026-04-26T12:35:42Z</time></trkpt><trkpt lat="43.308991190248584" lon="13.2133066979756"><ele>674.0</ele><time>2026-04-26T12:35:43Z</time></trkpt><trkpt lat="43.30911081368151" lon="13.213368047831537"><ele>678.5</ele><time>2026-04-26T12:35:44Z</time></trkpt><trkpt lat="43.309236970411206" lon="13.21343529220943"><ele>683.0</ele><time>2026-04-26T12:35:45Z</time></trkpt><trkpt lat="43.30936014853525" lon="13.213497149277785"><ele>683.0</ele><time>2026-04-26T12:35:46Z</time></trkpt><trkpt lat="43.30948480673945" lon="13.213577016978315"><ele>683.0</ele><time>2026-04-26T12:35:47Z</time></trkpt><trkpt lat="43.30962171300724" lon="13.21360143516814"><ele>683.0</ele><time>2026-04-26T12:35:48Z</time></trkpt><trkpt lat="43.309756674579496" lon="13.213574885055403"><ele>683.0</ele><time>2026-04-26T12:35:49Z</time></trkpt><trkpt lat="43.30989030186215" lon="13.213576500704965"><ele>684.0</ele><time>2026-04-26T12:35:50Z</time></trkpt><trkpt lat="43.31001266018718" lon="13.213611903444242"><ele>685.0</ele><time>2026-04-26T12:35:51Z</time></trkpt><trkpt lat="43.31012929353366" lon="13.213696864678631"><ele>686.0</ele><time>2026-04-26T12:35:52Z</time></trkpt><trkpt lat="43.310247501830965" lon="13.213765456749739"><ele>687.0</ele><time>2026-04-26T12:35:52.999Z</time></trkpt><trkpt lat="43.310366455409515" lon="13.213819069720849"><ele>687.0</ele><time>2026-04-26T12:35:53.999Z</time></trkpt><trkpt lat="43.3104625134833" lon="13.213897272056254"><ele>687.0</ele><time>2026-04-26T12:35:54.999Z</time></trkpt><trkpt lat="43.3105276386769" lon="13.213969478928448"><ele>687.0</ele><time>2026-04-26T12:35:56Z</time></trkpt><trkpt lat="43.31051438840119" lon="13.214105739976853"><ele>687.0</ele><time>2026-04-26T12:35:58Z</time></trkpt><trkpt lat="43.310408648540324" lon="13.214141581022869"><ele>687.0</ele><time>2026-04-26T12:36:00Z</time></trkpt><trkpt lat="43.31033027060096" lon="13.214133359172369"><ele>690.0</ele><time>2026-04-26T12:36:01Z</time></trkpt><trkpt lat="43.31023822963352" lon="13.214149651366412"><ele>693.0</ele><time>2026-04-26T12:36:02Z</time></trkpt><trkpt lat="43.310147808871754" lon="13.214186450041648"><ele>696.0</ele><time>2026-04-26T12:36:03Z</time></trkpt><trkpt lat="43.31005372853018" lon="13.214252100249457"><ele>699.0</ele><time>2026-04-26T12:36:04Z</time></trkpt><trkpt lat="43.30996822694022" lon="13.214350401404136"><ele>702.0</ele><time>2026-04-26T12:36:05Z</time></trkpt><trkpt lat="43.309893130647204" lon="13.214475544120466"><ele>702.0</ele><time>2026-04-26T12:36:06Z</time></trkpt><trkpt lat="43.30981997852956" lon="13.21461370810521"><ele>702.0</ele><time>2026-04-26T12:36:07Z</time></trkpt><trkpt lat="43.30974604601907" lon="13.214757162889297"><ele>702.0</ele><time>2026-04-26T12:36:08Z</time></trkpt><trkpt lat="43.30967804251943" lon="13.214893781273759"><ele>702.0</ele><time>2026-04-26T12:36:09Z</time></trkpt><trkpt lat="43.3096183718782" lon="13.215026716838336"><ele>702.6</ele><time>2026-04-26T12:36:10Z</time></trkpt><trkpt lat="43.30957458783134" lon="13.215178381845275"><ele>703.2</ele><time>2026-04-26T12:36:11Z</time></trkpt><trkpt lat="43.30956927808824" lon="13.215322336881703"><ele>703.8</ele><time>2026-04-26T12:36:12Z</time></trkpt><trkpt lat="43.30960243838394" lon="13.215466918005667"><ele>704.4</ele><time>2026-04-26T12:36:13Z</time></trkpt><trkpt lat="43.30964917761964" lon="13.21560794396332"><ele>705.0</ele><time>2026-04-26T12:36:14Z</time></trkpt><trkpt lat="43.309683968574205" lon="13.215758327990935"><ele>707.5</ele><time>2026-04-26T12:36:15Z</time></trkpt><trkpt lat="43.30970178985921" lon="13.215918866861024"><ele>710.0</ele><time>2026-04-26T12:36:16Z</time></trkpt><trkpt lat="43.30970770975122" lon="13.216083198843375"><ele>712.5</ele><time>2026-04-26T12:36:17Z</time></trkpt><trkpt lat="43.30971682774517" lon="13.216247720528814"><ele>715.0</ele><time>2026-04-26T12:36:18Z</time></trkpt><trkpt lat="43.3097439927549" lon="13.216409546616568"><ele>718.6</ele><time>2026-04-26T12:36:19Z</time></trkpt><trkpt lat="43.30976277933369" lon="13.21655982626491"><ele>722.2</ele><time>2026-04-26T12:36:20Z</time></trkpt><trkpt lat="43.30979941953317" lon="13.216668926661852"><ele>725.8</ele><time>2026-04-26T12:36:21Z</time></trkpt><trkpt lat="43.309771686174074" lon="13.21678488822439"><ele>729.4</ele><time>2026-04-26T12:36:22Z</time></trkpt><trkpt lat="43.30970065464043" lon="13.216883900085579"><ele>733.0</ele><time>2026-04-26T12:36:23Z</time></trkpt><trkpt lat="43.30963335368544" lon="13.216979053102186"><ele>733.0</ele><time>2026-04-26T12:36:24Z</time></trkpt><trkpt lat="43.309571965539426" lon="13.217085248129845"><ele>733.0</ele><time>2026-04-26T12:36:25Z</time></trkpt><trkpt lat="43.30949782377265" lon="13.21716675720021"><ele>733.0</ele><time>2026-04-26T12:36:26Z</time></trkpt><trkpt lat="43.30940208115727" lon="13.217198975498338"><ele>733.0</ele><time>2026-04-26T12:36:27Z</time></trkpt><trkpt lat="43.30930046835222" lon="13.217190071994997"><ele>733.0</ele><time>2026-04-26T12:36:28Z</time></trkpt><trkpt lat="43.30919942578219" lon="13.217182298361882"><ele>733.0</ele><time>2026-04-26T12:36:29Z</time></trkpt><trkpt lat="43.309096163281794" lon="13.217216297617881"><ele>733.0</ele><time>2026-04-26T12:36:30Z</time></trkpt><trkpt lat="43.3089987389898" lon="13.21729654102151"><ele>733.0</ele><time>2026-04-26T12:36:31Z</time></trkpt><trkpt lat="43.30890206050405" lon="13.217412584979462"><ele>733.0</ele><time>2026-04-26T12:36:32Z</time></trkpt><trkpt lat="43.30880157627431" lon="13.217552745548138"><ele>735.3333333333334</ele><time>2026-04-26T12:36:33Z</time></trkpt><trkpt lat="43.308704044028204" lon="13.217701869676683"><ele>737.6666666666666</ele><time>2026-04-26T12:36:34Z</time></trkpt><trkpt lat="43.308602161071434" lon="13.217871343317555"><ele>740.0</ele><time>2026-04-26T12:36:35Z</time></trkpt><trkpt lat="43.30849713683776" lon="13.218054721899628"><ele>741.0</ele><time>2026-04-26T12:36:36Z</time></trkpt><trkpt lat="43.308393378062995" lon="13.218243000270505"><ele>742.0</ele><time>2026-04-26T12:36:37Z</time></trkpt><trkpt lat="43.308299904038826" lon="13.21842191642754"><ele>743.0</ele><time>2026-04-26T12:36:38Z</time></trkpt><trkpt lat="43.30820982032807" lon="13.21859483584397"><ele>743.0</ele><time>2026-04-26T12:36:39Z</time></trkpt><trkpt lat="43.3081203950809" lon="13.2187515199588"><ele>743.0</ele><time>2026-04-26T12:36:40Z</time></trkpt><trkpt lat="43.30804131902887" lon="13.218901219392798"><ele>743.0</ele><time>2026-04-26T12:36:41Z</time></trkpt><trkpt lat="43.307979843353394" lon="13.219054250899784"><ele>743.0</ele><time>2026-04-26T12:36:42Z</time></trkpt><trkpt lat="43.30794189777004" lon="13.219213679809485"><ele>740.5</ele><time>2026-04-26T12:36:43Z</time></trkpt><trkpt lat="43.30793451612922" lon="13.219384793806157"><ele>738.0</ele><time>2026-04-26T12:36:44Z</time></trkpt><trkpt lat="43.30796009394923" lon="13.219557296660314"><ele>735.5</ele><time>2026-04-26T12:36:45Z</time></trkpt><trkpt lat="43.308007789039245" lon="13.219727055900858"><ele>733.0</ele><time>2026-04-26T12:36:46Z</time></trkpt><trkpt lat="43.30806016997834" lon="13.219896589179669"><ele>736.5</ele><time>2026-04-26T12:36:47Z</time></trkpt><trkpt lat="43.308118275678744" lon="13.22006814366613"><ele>740.0</ele><time>2026-04-26T12:36:48Z</time></trkpt><trkpt lat="43.30817727948401" lon="13.220243373118153"><ele>743.5</ele><time>2026-04-26T12:36:49Z</time></trkpt><trkpt lat="43.30823451588014" lon="13.220422101673623"><ele>747.0</ele><time>2026-04-26T12:36:50Z</time></trkpt><trkpt lat="43.308291244420346" lon="13.220603896749113"><ele>747.5</ele><time>2026-04-26T12:36:51Z</time></trkpt><trkpt lat="43.308343971275164" lon="13.220785722653527"><ele>748.0</ele><time>2026-04-26T12:36:52Z</time></trkpt><trkpt lat="43.30838581067763" lon="13.22096944096915"><ele>748.5</ele><time>2026-04-26T12:36:53Z</time></trkpt><trkpt lat="43.30840231673657" lon="13.221157183027747"><ele>749.0</ele><time>2026-04-26T12:36:54Z</time></trkpt><trkpt lat="43.30839670807356" lon="13.221341869806958"><ele>750.0</ele><time>2026-04-26T12:36:55Z</time></trkpt><trkpt lat="43.308372232495174" lon="13.221514085513741"><ele>751.0</ele><time>2026-04-26T12:36:56Z</time></trkpt><trkpt lat="43.30832026652536" lon="13.22166884502401"><ele>752.0</ele><time>2026-04-26T12:36:57Z</time></trkpt><trkpt lat="43.30823969216653" lon="13.221800111774714"><ele>753.0</ele><time>2026-04-26T12:36:58Z</time></trkpt><trkpt lat="43.30815137963436" lon="13.221913458923419"><ele>753.0</ele><time>2026-04-26T12:36:59Z</time></trkpt><trkpt lat="43.30807709551211" lon="13.22204404814203"><ele>753.0</ele><time>2026-04-26T12:37:00Z</time></trkpt><trkpt lat="43.3080315984859" lon="13.222193428795089"><ele>753.0</ele><time>2026-04-26T12:37:01Z</time></trkpt><trkpt lat="43.30800444677335" lon="13.222350459991107"><ele>753.0</ele><time>2026-04-26T12:37:02Z</time></trkpt><trkpt lat="43.30799313310455" lon="13.222508468021646"><ele>752.0</ele><time>2026-04-26T12:37:03Z</time></trkpt><trkpt lat="43.308005365141824" lon="13.222662228293567"><ele>751.0</ele><time>2026-04-26T12:37:04Z</time></trkpt><trkpt lat="43.30802857500558" lon="13.222810807966914"><ele>750.0</ele><time>2026-04-26T12:37:05Z</time></trkpt><trkpt lat="43.308059788233884" lon="13.222957509458835"><ele>749.0</ele><time>2026-04-26T12:37:06.001Z</time></trkpt><trkpt lat="43.30809719093739" lon="13.223100771883546"><ele>748.0</ele><time>2026-04-26T12:37:07.001Z</time></trkpt><trkpt lat="43.30814068853941" lon="13.223244520329018"><ele>751.5</ele><time>2026-04-26T12:37:08.001Z</time></trkpt><trkpt lat="43.308208130007365" lon="13.223372474968802"><ele>755.0</ele><time>2026-04-26T12:37:09.001Z</time></trkpt><trkpt lat="43.30829278214467" lon="13.223488608250307"><ele>758.5</ele><time>2026-04-26T12:37:10.001Z</time></trkpt><trkpt lat="43.30838274568884" lon="13.22360243275757"><ele>762.0</ele><time>2026-04-26T12:37:11.001Z</time></trkpt><trkpt lat="43.30847827993305" lon="13.223715530372106"><ele>762.0</ele><time>2026-04-26T12:37:12.001Z</time></trkpt><trkpt lat="43.3085759927006" lon="13.22383060569796"><ele>762.0</ele><time>2026-04-26T12:37:13.001Z</time></trkpt><trkpt lat="43.308681598973806" lon="13.22393867360722"><ele>762.0</ele><time>2026-04-26T12:37:14.001Z</time></trkpt><trkpt lat="43.30879541885361" lon="13.224037380194718"><ele>762.0</ele><time>2026-04-26T12:37:15.001Z</time></trkpt><trkpt lat="43.30891433673782" lon="13.22413147279822"><ele>763.5</ele><time>2026-04-26T12:37:16.001Z</time></trkpt><trkpt lat="43.3090363851264" lon="13.224218207415364"><ele>765.0</ele><time>2026-04-26T12:37:17.001Z</time></trkpt><trkpt lat="43.30915376688852" lon="13.224282941329921"><ele>766.5</ele><time>2026-04-26T12:37:18.001Z</time></trkpt><trkpt lat="43.30925291670768" lon="13.224357717333707"><ele>768.0</ele><time>2026-04-26T12:37:19.001Z</time></trkpt><trkpt lat="43.30934323725204" lon="13.224400638399015"><ele>768.0</ele><time>2026-04-26T12:37:20.001Z</time></trkpt><trkpt lat="43.30942447710657" lon="13.224418737962095"><ele>768.0</ele><time>2026-04-26T12:37:21.001Z</time></trkpt><trkpt lat="43.30949827660482" lon="13.224453159017706"><ele>768.0</ele><time>2026-04-26T12:37:22.001Z</time></trkpt><trkpt lat="43.30956557440543" lon="13.224483764324082"><ele>768.0</ele><time>2026-04-26T12:37:23.001Z</time></trkpt><trkpt lat="43.309627797155294" lon="13.22450822126877"><ele>768.0</ele><time>2026-04-26T12:37:24.001Z</time></trkpt><trkpt lat="43.30969927399082" lon="13.224523718636469"><ele>768.0</ele><time>2026-04-26T12:37:25.001Z</time></trkpt><trkpt lat="43.30978162426514" lon="13.224531541314816"><ele>768.5999999999999</ele><time>2026-04-26T12:37:26.001Z</time></trkpt><trkpt lat="43.30987519939851" lon="13.224537097860328"><ele>769.1999999999999</ele><time>2026-04-26T12:37:27.001Z</time></trkpt><trkpt lat="43.30997899774651" lon="13.224538805094465"><ele>769.8</ele><time>2026-04-26T12:37:28.001Z</time></trkpt><trkpt lat="43.31009277147795" lon="13.224544192700549"><ele>770.4</ele><time>2026-04-26T12:37:29.001Z</time></trkpt><trkpt lat="43.31020387086229" lon="13.224550018654279"><ele>771.0</ele><time>2026-04-26T12:37:30.001Z</time></trkpt><trkpt lat="43.31032039519945" lon="13.224549466034796"><ele>771.0</ele><time>2026-04-26T12:37:31.001Z</time></trkpt><trkpt lat="43.31044166612725" lon="13.224545720868774"><ele>771.0</ele><time>2026-04-26T12:37:32.001Z</time></trkpt><trkpt lat="43.310564999225626" lon="13.224550959037614"><ele>771.0</ele><time>2026-04-26T12:37:33.001Z</time></trkpt><trkpt lat="43.310695716939556" lon="13.224561317246824"><ele>771.0</ele><time>2026-04-26T12:37:34.001Z</time></trkpt><trkpt lat="43.310830901967115" lon="13.224570991731769"><ele>771.75</ele><time>2026-04-26T12:37:35.001Z</time></trkpt><trkpt lat="43.31097026685561" lon="13.224582523381994"><ele>772.5</ele><time>2026-04-26T12:37:36.001Z</time></trkpt><trkpt lat="43.31111347122718" lon="13.224598317589988"><ele>773.25</ele><time>2026-04-26T12:37:37.001Z</time></trkpt><trkpt lat="43.31125239733974" lon="13.224615909721924"><ele>774.0</ele><time>2026-04-26T12:37:38.001Z</time></trkpt><trkpt lat="43.3113794974127" lon="13.224636279756124"><ele>774.25</ele><time>2026-04-26T12:37:39.001Z</time></trkpt><trkpt lat="43.311502218932894" lon="13.224656947906086"><ele>774.5</ele><time>2026-04-26T12:37:40.001Z</time></trkpt><trkpt lat="43.311622846419375" lon="13.224672269318622"><ele>774.75</ele><time>2026-04-26T12:37:41.001Z</time></trkpt><trkpt lat="43.31174377663115" lon="13.224683245367912"><ele>775.0</ele><time>2026-04-26T12:37:42.001Z</time></trkpt><trkpt lat="43.31186453067621" lon="13.224689272763204"><ele>775.0</ele><time>2026-04-26T12:37:43.001Z</time></trkpt><trkpt lat="43.311984936649615" lon="13.224689252598928"><ele>775.0</ele><time>2026-04-26T12:37:44.001Z</time></trkpt><trkpt lat="43.31210644157811" lon="13.22467304322586"><ele>775.0</ele><time>2026-04-26T12:37:45.001Z</time></trkpt><trkpt lat="43.312225342966244" lon="13.224633682735972"><ele>775.0</ele><time>2026-04-26T12:37:46.001Z</time></trkpt><trkpt lat="43.31234223629518" lon="13.224579343349305"><ele>772.25</ele><time>2026-04-26T12:37:47.001Z</time></trkpt><trkpt lat="43.312462225953624" lon="13.22453523061374"><ele>769.5</ele><time>2026-04-26T12:37:48.001Z</time></trkpt><trkpt lat="43.31257715429633" lon="13.224470856847379"><ele>766.75</ele><time>2026-04-26T12:37:49Z</time></trkpt><trkpt lat="43.31268838374376" lon="13.224395257330253"><ele>764.0</ele><time>2026-04-26T12:37:50Z</time></trkpt><trkpt lat="43.312809339180916" lon="13.224354540035517"><ele>764.0</ele><time>2026-04-26T12:37:51Z</time></trkpt><trkpt lat="43.312934798680324" lon="13.224364237834354"><ele>764.0</ele><time>2026-04-26T12:37:52Z</time></trkpt><trkpt lat="43.313060539156304" lon="13.22435988580699"><ele>764.0</ele><time>2026-04-26T12:37:53Z</time></trkpt><trkpt lat="43.3131837158227" lon="13.224400383320388"><ele>764.0</ele><time>2026-04-26T12:37:54Z</time></trkpt><trkpt lat="43.31330077084049" lon="13.22446435532864"><ele>761.5</ele><time>2026-04-26T12:37:55Z</time></trkpt><trkpt lat="43.31340859456983" lon="13.224554987772713"><ele>759.0</ele><time>2026-04-26T12:37:56Z</time></trkpt><trkpt lat="43.313500277286316" lon="13.224673261810914"><ele>756.5</ele><time>2026-04-26T12:37:57Z</time></trkpt><trkpt lat="43.3135856093434" lon="13.224810696620033"><ele>754.0</ele><time>2026-04-26T12:37:58Z</time></trkpt><trkpt lat="43.313673414167745" lon="13.224959507686975"><ele>751.75</ele><time>2026-04-26T12:37:59Z</time></trkpt><trkpt lat="43.31376042465471" lon="13.225110469364445"><ele>749.5</ele><time>2026-04-26T12:38:00Z</time></trkpt><trkpt lat="43.31384802324153" lon="13.225267832647408"><ele>747.25</ele><time>2026-04-26T12:38:01Z</time></trkpt><trkpt lat="43.31393081465572" lon="13.225425837295264"><ele>745.0</ele><time>2026-04-26T12:38:02Z</time></trkpt><trkpt lat="43.31400742477049" lon="13.225589483348534"><ele>741.5</ele><time>2026-04-26T12:38:03Z</time></trkpt><trkpt lat="43.31408084251089" lon="13.225755733759378"><ele>738.0</ele><time>2026-04-26T12:38:04Z</time></trkpt><trkpt lat="43.3141499878872" lon="13.22592732488892"><ele>734.5</ele><time>2026-04-26T12:38:05Z</time></trkpt><trkpt lat="43.31421494748393" lon="13.226102425630744"><ele>731.0</ele><time>2026-04-26T12:38:06Z</time></trkpt><trkpt lat="43.3142756484159" lon="13.226282197516728"><ele>731.0</ele><time>2026-04-26T12:38:07Z</time></trkpt><trkpt lat="43.31433174225547" lon="13.22646674524358"><ele>731.0</ele><time>2026-04-26T12:38:08Z</time></trkpt><trkpt lat="43.31438722036313" lon="13.226654935451483"><ele>731.0</ele><time>2026-04-26T12:38:09Z</time></trkpt><trkpt lat="43.31444288771253" lon="13.22684348818883"><ele>731.0</ele><time>2026-04-26T12:38:10Z</time></trkpt><trkpt lat="43.31449887908115" lon="13.227030398310863"><ele>727.0</ele><time>2026-04-26T12:38:11Z</time></trkpt><trkpt lat="43.314553294603726" lon="13.227219256444467"><ele>723.0</ele><time>2026-04-26T12:38:12Z</time></trkpt><trkpt lat="43.31460700250412" lon="13.22741078540012"><ele>719.0</ele><time>2026-04-26T12:38:13Z</time></trkpt><trkpt lat="43.314666177663504" lon="13.227599837988489"><ele>715.0</ele><time>2026-04-26T12:38:14Z</time></trkpt><trkpt lat="43.31473180814913" lon="13.22778666710198"><ele>715.75</ele><time>2026-04-26T12:38:15Z</time></trkpt><trkpt lat="43.31480209032398" lon="13.227969484139155"><ele>716.5</ele><time>2026-04-26T12:38:16Z</time></trkpt><trkpt lat="43.31487870334371" lon="13.228146407838095"><ele>717.25</ele><time>2026-04-26T12:38:17Z</time></trkpt><trkpt lat="43.31496705322153" lon="13.228310236122425"><ele>718.0</ele><time>2026-04-26T12:38:18Z</time></trkpt><trkpt lat="43.31506998651111" lon="13.228454982591492"><ele>713.5</ele><time>2026-04-26T12:38:19Z</time></trkpt><trkpt lat="43.31518362137906" lon="13.228589826755416"><ele>709.0</ele><time>2026-04-26T12:38:20Z</time></trkpt><trkpt lat="43.31529100860206" lon="13.228726184760301"><ele>704.5</ele><time>2026-04-26T12:38:21Z</time></trkpt><trkpt lat="43.31538699766193" lon="13.228867405034414"><ele>700.0</ele><time>2026-04-26T12:38:22Z</time></trkpt><trkpt lat="43.31548137324647" lon="13.22901364435347"><ele>699.75</ele><time>2026-04-26T12:38:23Z</time></trkpt><trkpt lat="43.315578377324066" lon="13.229153097264414"><ele>699.5</ele><time>2026-04-26T12:38:24Z</time></trkpt><trkpt lat="43.31568015126682" lon="13.229284597075981"><ele>699.25</ele><time>2026-04-26T12:38:25Z</time></trkpt><trkpt lat="43.31578200063252" lon="13.229412985585377"><ele>699.0</ele><time>2026-04-26T12:38:26Z</time></trkpt><trkpt lat="43.31588128573602" lon="13.229548146328513"><ele>699.0</ele><time>2026-04-26T12:38:27Z</time></trkpt><trkpt lat="43.31599582762042" lon="13.22964904798632"><ele>699.0</ele><time>2026-04-26T12:38:28Z</time></trkpt><trkpt lat="43.31610621565425" lon="13.229739446291417"><ele>699.0</ele><time>2026-04-26T12:38:29Z</time></trkpt><trkpt lat="43.31617694967332" lon="13.229896149122391"><ele>699.0</ele><time>2026-04-26T12:38:30Z</time></trkpt><trkpt lat="43.31621488967055" lon="13.230072707475912"><ele>691.5</ele><time>2026-04-26T12:38:31Z</time></trkpt><trkpt lat="43.31624901008789" lon="13.230250847157242"><ele>684.0</ele><time>2026-04-26T12:38:32Z</time></trkpt><trkpt lat="43.3162913653334" lon="13.230445323990136"><ele>676.5</ele><time>2026-04-26T12:38:33Z</time></trkpt><trkpt lat="43.31633386347971" lon="13.230645652364585"><ele>669.0</ele><time>2026-04-26T12:38:34Z</time></trkpt><trkpt lat="43.316373928011544" lon="13.230847714218813"><ele>670.3333333333334</ele><time>2026-04-26T12:38:35Z</time></trkpt><trkpt lat="43.316417854311005" lon="13.231056534368888"><ele>671.6666666666667</ele><time>2026-04-26T12:38:36Z</time></trkpt><trkpt lat="43.316468006266206" lon="13.23126663034846"><ele>673.0</ele><time>2026-04-26T12:38:37Z</time></trkpt><trkpt lat="43.31651711702218" lon="13.231480553697695"><ele>670.0</ele><time>2026-04-26T12:38:38Z</time></trkpt><trkpt lat="43.31656275517426" lon="13.231695569931572"><ele>667.0</ele><time>2026-04-26T12:38:39Z</time></trkpt><trkpt lat="43.3166094215231" lon="13.231916506583955"><ele>664.0</ele><time>2026-04-26T12:38:40Z</time></trkpt><trkpt lat="43.31665360851514" lon="13.232138408369318"><ele>661.0</ele><time>2026-04-26T12:38:41Z</time></trkpt><trkpt lat="43.31669950894676" lon="13.232360464946018"><ele>658.0</ele><time>2026-04-26T12:38:42Z</time></trkpt><trkpt lat="43.3167481780086" lon="13.232576787849935"><ele>655.0</ele><time>2026-04-26T12:38:43Z</time></trkpt><trkpt lat="43.31679665230585" lon="13.232784261551869"><ele>655.0</ele><time>2026-04-26T12:38:44Z</time></trkpt><trkpt lat="43.31684418654159" lon="13.232986651046904"><ele>655.0</ele><time>2026-04-26T12:38:45Z</time></trkpt><trkpt lat="43.31688922556096" lon="13.233184064050782"><ele>655.0</ele><time>2026-04-26T12:38:46Z</time></trkpt><trkpt lat="43.31692764071665" lon="13.233380028436665"><ele>652.75</ele><time>2026-04-26T12:38:47Z</time></trkpt><trkpt lat="43.31694809066301" lon="13.23358085819524"><ele>650.5</ele><time>2026-04-26T12:38:48Z</time></trkpt><trkpt lat="43.316935644984575" lon="13.23377529891956"><ele>648.25</ele><time>2026-04-26T12:38:49Z</time></trkpt><trkpt lat="43.3168980933612" lon="13.233917488793615"><ele>646.0</ele><time>2026-04-26T12:38:50Z</time></trkpt><trkpt lat="43.31684603233538" lon="13.23400207342737"><ele>646.0</ele><time>2026-04-26T12:38:51Z</time></trkpt><trkpt lat="43.31677676582073" lon="13.234036106381076"><ele>646.0</ele><time>2026-04-26T12:38:52Z</time></trkpt><trkpt lat="43.316695099274284" lon="13.234019662011162"><ele>646.0</ele><time>2026-04-26T12:38:53Z</time></trkpt><trkpt lat="43.31661121308" lon="13.233942156762849"><ele>646.0</ele><time>2026-04-26T12:38:54Z</time></trkpt><trkpt lat="43.31651543719945" lon="13.233846317322667"><ele>646.0</ele><time>2026-04-26T12:38:55Z</time></trkpt><trkpt lat="43.31641704464" lon="13.2337404819092"><ele>641.5</ele><time>2026-04-26T12:38:56Z</time></trkpt><trkpt lat="43.3163276442428" lon="13.233625290917928"><ele>637.0</ele><time>2026-04-26T12:38:57Z</time></trkpt><trkpt lat="43.31623211767952" lon="13.233522439308013"><ele>632.5</ele><time>2026-04-26T12:38:58Z</time></trkpt><trkpt lat="43.31614078747351" lon="13.23342520377598"><ele>628.0</ele><time>2026-04-26T12:38:59Z</time></trkpt><trkpt lat="43.31608191139505" lon="13.233293400819296"><ele>628.0</ele><time>2026-04-26T12:39:00Z</time></trkpt><trkpt lat="43.316045663372826" lon="13.23314975240989"><ele>628.0</ele><time>2026-04-26T12:39:01Z</time></trkpt><trkpt lat="43.31601757380944" lon="13.233005874983265"><ele>628.0</ele><time>2026-04-26T12:39:02Z</time></trkpt><trkpt lat="43.31598336212474" lon="13.232875130593102"><ele>628.0</ele><time>2026-04-26T12:39:03Z</time></trkpt><trkpt lat="43.31597048066899" lon="13.232754514165006"><ele>628.0</ele><time>2026-04-26T12:39:04Z</time></trkpt><trkpt lat="43.31593011861242" lon="13.232658138556738"><ele>629.2857142857142</ele><time>2026-04-26T12:39:05Z</time></trkpt><trkpt lat="43.31589030866216" lon="13.232575169305873"><ele>630.5714285714286</ele><time>2026-04-26T12:39:06Z</time></trkpt><trkpt lat="43.315833486643655" lon="13.232535559341114"><ele>631.8571428571429</ele><time>2026-04-26T12:39:06.999Z</time></trkpt><trkpt lat="43.3157673447851" lon="13.232539105843168"><ele>633.1428571428571</ele><time>2026-04-26T12:39:07.999Z</time></trkpt><trkpt lat="43.31570959556557" lon="13.232590006012451"><ele>634.4285714285714</ele><time>2026-04-26T12:39:08.999Z</time></trkpt><trkpt lat="43.31567153008404" lon="13.232692025253218"><ele>635.7142857142857</ele><time>2026-04-26T12:39:09.999Z</time></trkpt><trkpt lat="43.315674668753445" lon="13.232817987302802"><ele>637.0</ele><time>2026-04-26T12:39:10.999Z</time></trkpt><trkpt lat="43.31567802237213" lon="13.232958144030794"><ele>637.0</ele><time>2026-04-26T12:39:12.001Z</time></trkpt><trkpt lat="43.31570304415089" lon="13.233105293216907"><ele>637.0</ele><time>2026-04-26T12:39:13.001Z</time></trkpt><trkpt lat="43.315758166558595" lon="13.233239726981507"><ele>637.0</ele><time>2026-04-26T12:39:14.001Z</time></trkpt><trkpt lat="43.315804238923015" lon="13.233388467085863"><ele>637.0</ele><time>2026-04-26T12:39:15.001Z</time></trkpt><trkpt lat="43.31583594381201" lon="13.233547854375832"><ele>634.75</ele><time>2026-04-26T12:39:16.001Z</time></trkpt><trkpt lat="43.315837843002576" lon="13.233716441253573"><ele>632.5</ele><time>2026-04-26T12:39:17.001Z</time></trkpt><trkpt lat="43.31581990936046" lon="13.233893327232453"><ele>630.25</ele><time>2026-04-26T12:39:18.001Z</time></trkpt><trkpt lat="43.315790817860204" lon="13.234072713147649"><ele>628.0</ele><time>2026-04-26T12:39:19.001Z</time></trkpt><trkpt lat="43.31574327958319" lon="13.234252577906402"><ele>626.75</ele><time>2026-04-26T12:39:20.001Z</time></trkpt><trkpt lat="43.315677455244405" lon="13.23442235193424"><ele>625.5</ele><time>2026-04-26T12:39:21.001Z</time></trkpt><trkpt lat="43.315607916038815" lon="13.234582201195918"><ele>624.25</ele><time>2026-04-26T12:39:22.001Z</time></trkpt><trkpt lat="43.31555761551025" lon="13.234749232276672"><ele>623.0</ele><time>2026-04-26T12:39:23.001Z</time></trkpt><trkpt lat="43.315541924951596" lon="13.234929402671485"><ele>622.0</ele><time>2026-04-26T12:39:24.001Z</time></trkpt><trkpt lat="43.31555258807092" lon="13.235115982463547"><ele>621.0</ele><time>2026-04-26T12:39:25.001Z</time></trkpt><trkpt lat="43.31557886152197" lon="13.235310842513803"><ele>620.0</ele><time>2026-04-26T12:39:26.001Z</time></trkpt><trkpt lat="43.31560077586621" lon="13.235514178484063"><ele>619.0</ele><time>2026-04-26T12:39:27.001Z</time></trkpt><trkpt lat="43.31562199416748" lon="13.235724875257285"><ele>616.0</ele><time>2026-04-26T12:39:28.001Z</time></trkpt><trkpt lat="43.315644196837745" lon="13.235944964681075"><ele>613.0</ele><time>2026-04-26T12:39:29.001Z</time></trkpt><trkpt lat="43.31567228454786" lon="13.236166131720694"><ele>610.0</ele><time>2026-04-26T12:39:30.001Z</time></trkpt><trkpt lat="43.315705944044545" lon="13.23638577215256"><ele>606.6666666666667</ele><time>2026-04-26T12:39:31.001Z</time></trkpt><trkpt lat="43.31574394768161" lon="13.236606450478419"><ele>603.3333333333334</ele><time>2026-04-26T12:39:32.001Z</time></trkpt><trkpt lat="43.31578409119659" lon="13.236816842218762"><ele>600.0</ele><time>2026-04-26T12:39:33.001Z</time></trkpt><trkpt lat="43.315838427004515" lon="13.237001774749992"><ele>600.0</ele><time>2026-04-26T12:39:34.001Z</time></trkpt><trkpt lat="43.31591331101408" lon="13.237128980255248"><ele>600.0</ele><time>2026-04-26T12:39:35.001Z</time></trkpt><trkpt lat="43.31599595526215" lon="13.237208182871758"><ele>600.0</ele><time>2026-04-26T12:39:36.001Z</time></trkpt><trkpt lat="43.3160726145972" lon="13.237299942133712"><ele>600.0</ele><time>2026-04-26T12:39:37.001Z</time></trkpt><trkpt lat="43.31610686041452" lon="13.237415740776443"><ele>600.0</ele><time>2026-04-26T12:39:38.001Z</time></trkpt><trkpt lat="43.316094392595225" lon="13.237544638462989"><ele>596.5</ele><time>2026-04-26T12:39:39.001Z</time></trkpt><trkpt lat="43.316070037108396" lon="13.237683749275082"><ele>593.0</ele><time>2026-04-26T12:39:40.001Z</time></trkpt><trkpt lat="43.316088426865775" lon="13.23783425306281"><ele>589.5</ele><time>2026-04-26T12:39:41.001Z</time></trkpt><trkpt lat="43.31613881514178" lon="13.237988251497617"><ele>586.0</ele><time>2026-04-26T12:39:42.001Z</time></trkpt><trkpt lat="43.316213215279404" lon="13.238141741347107"><ele>583.8</ele><time>2026-04-26T12:39:43.001Z</time></trkpt><trkpt lat="43.31628574577453" lon="13.238282120718702"><ele>581.6</ele><time>2026-04-26T12:39:44.001Z</time></trkpt><trkpt lat="43.31634315858019" lon="13.23843189863936"><ele>579.4</ele><time>2026-04-26T12:39:45.001Z</time></trkpt><trkpt lat="43.31640164388759" lon="13.238558384386783"><ele>577.2</ele><time>2026-04-26T12:39:46.001Z</time></trkpt><trkpt lat="43.316432450978944" lon="13.238662013655924"><ele>575.0</ele><time>2026-04-26T12:39:47.001Z</time></trkpt><trkpt lat="43.316365294898176" lon="13.238784940649234"><ele>575.0</ele><time>2026-04-26T12:39:49.001Z</time></trkpt><trkpt lat="43.31629239247827" lon="13.238733546421109"><ele>575.0</ele><time>2026-04-26T12:39:50.001Z</time></trkpt><trkpt lat="43.31621627412422" lon="13.238668888647892"><ele>575.0</ele><time>2026-04-26T12:39:51Z</time></trkpt><trkpt lat="43.31614215904289" lon="13.238561984490376"><ele>575.0</ele><time>2026-04-26T12:39:52Z</time></trkpt><trkpt lat="43.31605080128842" lon="13.23845964874208"><ele>575.0</ele><time>2026-04-26T12:39:53Z</time></trkpt><trkpt lat="43.31595273093293" lon="13.238349832186366"><ele>575.0</ele><time>2026-04-26T12:39:54Z</time></trkpt><trkpt lat="43.31587497306525" lon="13.23823087062421"><ele>575.0</ele><time>2026-04-26T12:39:55Z</time></trkpt><trkpt lat="43.31582458735039" lon="13.238100618952135"><ele>575.0</ele><time>2026-04-26T12:39:56Z</time></trkpt><trkpt lat="43.315781724433826" lon="13.237976221939643"><ele>575.0</ele><time>2026-04-26T12:39:57Z</time></trkpt><trkpt lat="43.31572703496751" lon="13.237878069288842"><ele>575.0</ele><time>2026-04-26T12:39:58Z</time></trkpt><trkpt lat="43.31565180215287" lon="13.237827393876161"><ele>577.2</ele><time>2026-04-26T12:39:59Z</time></trkpt><trkpt lat="43.31557413843017" lon="13.237857675062276"><ele>579.4</ele><time>2026-04-26T12:40:00Z</time></trkpt><trkpt lat="43.31551840618308" lon="13.237956356019676"><ele>581.6</ele><time>2026-04-26T12:40:01Z</time></trkpt><trkpt lat="43.315481044065976" lon="13.238105032997666"><ele>583.8</ele><time>2026-04-26T12:40:02Z</time></trkpt><trkpt lat="43.31545598738435" lon="13.238272899479018"><ele>586.0</ele><time>2026-04-26T12:40:03Z</time></trkpt><trkpt lat="43.31547707804933" lon="13.238448816815314"><ele>583.25</ele><time>2026-04-26T12:40:04Z</time></trkpt><trkpt lat="43.31552921033533" lon="13.238617177536687"><ele>580.5</ele><time>2026-04-26T12:40:05Z</time></trkpt><trkpt lat="43.31561578140222" lon="13.23876486092403"><ele>577.75</ele><time>2026-04-26T12:40:06Z</time></trkpt><trkpt lat="43.31568541041034" lon="13.238921731052598"><ele>575.0</ele><time>2026-04-26T12:40:07Z</time></trkpt><trkpt lat="43.31575216249579" lon="13.239090173638413"><ele>572.0</ele><time>2026-04-26T12:40:08Z</time></trkpt><trkpt lat="43.31579784050782" lon="13.239270397831584"><ele>569.0</ele><time>2026-04-26T12:40:09Z</time></trkpt><trkpt lat="43.31583100843475" lon="13.239455100634402"><ele>566.0</ele><time>2026-04-26T12:40:10Z</time></trkpt><trkpt lat="43.31587651796501" lon="13.239628982676857"><ele>563.0</ele><time>2026-04-26T12:40:11Z</time></trkpt><trkpt lat="43.31595301437924" lon="13.239778668375756"><ele>559.5</ele><time>2026-04-26T12:40:12Z</time></trkpt><trkpt lat="43.31605249820346" lon="13.239898020649672"><ele>556.0</ele><time>2026-04-26T12:40:13Z</time></trkpt><trkpt lat="43.316159783085716" lon="13.239995864151881"><ele>552.5</ele><time>2026-04-26T12:40:14Z</time></trkpt><trkpt lat="43.3162638883946" lon="13.240105692111923"><ele>549.0</ele><time>2026-04-26T12:40:15Z</time></trkpt><trkpt lat="43.316391468969954" lon="13.240179690563876"><ele>552.0</ele><time>2026-04-26T12:40:16Z</time></trkpt><trkpt lat="43.3165163505645" lon="13.240273567626959"><ele>555.0</ele><time>2026-04-26T12:40:17Z</time></trkpt><trkpt lat="43.31664755031054" lon="13.240368660630132"><ele>558.0</ele><time>2026-04-26T12:40:18Z</time></trkpt><trkpt lat="43.31678442611548" lon="13.240460242178164"><ele>561.0</ele><time>2026-04-26T12:40:19Z</time></trkpt><trkpt lat="43.316920666765526" lon="13.240548725755742"><ele>561.0</ele><time>2026-04-26T12:40:20Z</time></trkpt><trkpt lat="43.31705422254369" lon="13.240626031939161"><ele>561.0</ele><time>2026-04-26T12:40:21Z</time></trkpt><trkpt lat="43.31717956157827" lon="13.240718608787253"><ele>561.0</ele><time>2026-04-26T12:40:22Z</time></trkpt><trkpt lat="43.31730460991476" lon="13.240786740362385"><ele>561.0</ele><time>2026-04-26T12:40:23Z</time></trkpt><trkpt lat="43.31741680862216" lon="13.240834522370923"><ele>558.8333333333334</ele><time>2026-04-26T12:40:24Z</time></trkpt><trkpt lat="43.3175137381988" lon="13.240871868111073"><ele>556.6666666666666</ele><time>2026-04-26T12:40:25Z</time></trkpt><trkpt lat="43.3175937922282" lon="13.240894409943653"><ele>554.5</ele><time>2026-04-26T12:40:26Z</time></trkpt><trkpt lat="43.31763110352092" lon="13.240979677972444"><ele>552.3333333333333</ele><time>2026-04-26T12:40:27Z</time></trkpt><trkpt lat="43.31761845930694" lon="13.241068231128619"><ele>550.1666666666666</ele><time>2026-04-26T12:40:28Z</time></trkpt><trkpt lat="43.31756721540556" lon="13.241148677356927"><ele>548.0</ele><time>2026-04-26T12:40:29Z</time></trkpt><trkpt lat="43.31748957808296" lon="13.241228001654074"><ele>548.0</ele><time>2026-04-26T12:40:30Z</time></trkpt><trkpt lat="43.31740505052436" lon="13.24132468970451"><ele>548.0</ele><time>2026-04-26T12:40:31Z</time></trkpt><trkpt lat="43.31731605299258" lon="13.241435003037243"><ele>548.0</ele><time>2026-04-26T12:40:32Z</time></trkpt><trkpt lat="43.31722061900402" lon="13.241560188894388"><ele>548.0</ele><time>2026-04-26T12:40:33Z</time></trkpt><trkpt lat="43.3171214977157" lon="13.241694939132698"><ele>543.75</ele><time>2026-04-26T12:40:34Z</time></trkpt><trkpt lat="43.31702078059848" lon="13.241828574092352"><ele>539.5</ele><time>2026-04-26T12:40:35Z</time></trkpt><trkpt lat="43.316921313752296" lon="13.241953179600431"><ele>535.25</ele><time>2026-04-26T12:40:36Z</time></trkpt><trkpt lat="43.31682344368142" lon="13.242076783204014"><ele>531.0</ele><time>2026-04-26T12:40:37Z</time></trkpt><trkpt lat="43.316727032487314" lon="13.242195069923053"><ele>528.25</ele><time>2026-04-26T12:40:38Z</time></trkpt><trkpt lat="43.31663578388585" lon="13.242316358980355"><ele>525.5</ele><time>2026-04-26T12:40:39Z</time></trkpt><trkpt lat="43.31654585569128" lon="13.242434740365262"><ele>522.75</ele><time>2026-04-26T12:40:40Z</time></trkpt><trkpt lat="43.316458774359376" lon="13.242551626163667"><ele>520.0</ele><time>2026-04-26T12:40:41Z</time></trkpt><trkpt lat="43.31638710947986" lon="13.24267750242015"><ele>518.4</ele><time>2026-04-26T12:40:42Z</time></trkpt><trkpt lat="43.316336875218376" lon="13.242819337169236"><ele>516.8</ele><time>2026-04-26T12:40:43Z</time></trkpt><trkpt lat="43.31630213879332" lon="13.242969236265315"><ele>515.2</ele><time>2026-04-26T12:40:44Z</time></trkpt><trkpt lat="43.316278428889646" lon="13.2431094044855"><ele>513.6</ele><time>2026-04-26T12:40:45Z</time></trkpt><trkpt lat="43.31625811172635" lon="13.243216709472584"><ele>512.0</ele><time>2026-04-26T12:40:46Z</time></trkpt><trkpt lat="43.31623347114228" lon="13.243337031715669"><ele>510.8</ele><time>2026-04-26T12:40:47Z</time></trkpt><trkpt lat="43.31620821304733" lon="13.243462814993698"><ele>509.6</ele><time>2026-04-26T12:40:48Z</time></trkpt><trkpt lat="43.316181891204096" lon="13.243603304705273"><ele>508.40000000000003</ele><time>2026-04-26T12:40:49Z</time></trkpt><trkpt lat="43.31616055060237" lon="13.243750333807249"><ele>507.20000000000005</ele><time>2026-04-26T12:40:50Z</time></trkpt><trkpt lat="43.316148338727864" lon="13.24391030496962"><ele>506.0</ele><time>2026-04-26T12:40:51Z</time></trkpt><trkpt lat="43.31614122935122" lon="13.244072046364892"><ele>506.0</ele><time>2026-04-26T12:40:52Z</time></trkpt><trkpt lat="43.31612313275896" lon="13.244231259190567"><ele>506.0</ele><time>2026-04-26T12:40:53Z</time></trkpt><trkpt lat="43.31610130956526" lon="13.24439020679961"><ele>506.0</ele><time>2026-04-26T12:40:54Z</time></trkpt><trkpt lat="43.316090153169135" lon="13.244538443955042"><ele>506.0</ele><time>2026-04-26T12:40:55Z</time></trkpt><trkpt lat="43.31608627730463" lon="13.244671147806521"><ele>506.0</ele><time>2026-04-26T12:40:56Z</time></trkpt><trkpt lat="43.316083979295996" lon="13.244786193855766"><ele>506.3333333333333</ele><time>2026-04-26T12:40:57Z</time></trkpt><trkpt lat="43.31608156521627" lon="13.244893452212905"><ele>506.66666666666663</ele><time>2026-04-26T12:40:58Z</time></trkpt><trkpt lat="43.316078774000836" lon="13.244998044358567"><ele>507.0</ele><time>2026-04-26T12:40:59Z</time></trkpt><trkpt lat="43.316074011689906" lon="13.245110604016778"><ele>507.33333333333337</ele><time>2026-04-26T12:41:00Z</time></trkpt><trkpt lat="43.31607061028389" lon="13.245212478253881"><ele>507.6666666666667</ele><time>2026-04-26T12:41:00.999Z</time></trkpt><trkpt lat="43.31609637934375" lon="13.245325984622738"><ele>508.0</ele><time>2026-04-26T12:41:02.999Z</time></trkpt><trkpt lat="43.31611462827196" lon="13.2454149041084"><ele>508.00000000000006</ele><time>2026-04-26T12:41:04.999Z</time></trkpt><trkpt lat="43.316113961156816" lon="13.245303491737173"><ele>508.0</ele><time>2026-04-26T12:41:08.999Z</time></trkpt><trkpt lat="43.316092831110595" lon="13.245220301682481"><ele>508.0</ele><time>2026-04-26T12:41:09.999Z</time></trkpt><trkpt lat="43.316097224278046" lon="13.24511044239994"><ele>508.0</ele><time>2026-04-26T12:41:10.999Z</time></trkpt><trkpt lat="43.31609298338621" lon="13.245006461373345"><ele>508.00000000000006</ele><time>2026-04-26T12:41:11.999Z</time></trkpt><trkpt lat="43.31609564816382" lon="13.244888460614852"><ele>508.0</ele><time>2026-04-26T12:41:12.999Z</time></trkpt><trkpt lat="43.316097543982416" lon="13.244774159245008"><ele>508.1666666666667</ele><time>2026-04-26T12:41:13.999Z</time></trkpt><trkpt lat="43.3161016624552" lon="13.244668704593606"><ele>508.33333333333337</ele><time>2026-04-26T12:41:14.999Z</time></trkpt><trkpt lat="43.316127085429336" lon="13.24458269852067"><ele>508.5</ele><time>2026-04-26T12:41:15.999Z</time></trkpt><trkpt lat="43.31617327186423" lon="13.244521535103669"><ele>508.66666666666663</ele><time>2026-04-26T12:41:16.999Z</time></trkpt><trkpt lat="43.31623807115247" lon="13.244463649657721"><ele>508.8333333333333</ele><time>2026-04-26T12:41:18.001Z</time></trkpt><trkpt lat="43.31631813983866" lon="13.244401628251174"><ele>509.0</ele><time>2026-04-26T12:41:19.001Z</time></trkpt><trkpt lat="43.31641049685781" lon="13.24432245452033"><ele>509.0</ele><time>2026-04-26T12:41:20.001Z</time></trkpt><trkpt lat="43.31651216715437" lon="13.24423287839425"><ele>509.0</ele><time>2026-04-26T12:41:21.001Z</time></trkpt><trkpt lat="43.3166145655413" lon="13.244147680630208"><ele>509.0</ele><time>2026-04-26T12:41:22.001Z</time></trkpt><trkpt lat="43.31671281845518" lon="13.244079747029382"><ele>509.0</ele><time>2026-04-26T12:41:23.001Z</time></trkpt><trkpt lat="43.31681075261714" lon="13.24403016229287"><ele>509.0</ele><time>2026-04-26T12:41:24.001Z</time></trkpt><trkpt lat="43.316911430261555" lon="13.244015759474445"><ele>509.0</ele><time>2026-04-26T12:41:25.001Z</time></trkpt><trkpt lat="43.31701491696786" lon="13.244030107605262"><ele>509.0</ele><time>2026-04-26T12:41:26.001Z</time></trkpt><trkpt lat="43.31712188325039" lon="13.244061797173657"><ele>509.0</ele><time>2026-04-26T12:41:27.001Z</time></trkpt><trkpt lat="43.31723200679666" lon="13.244100205243067"><ele>509.0</ele><time>2026-04-26T12:41:28.001Z</time></trkpt><trkpt lat="43.31735759837187" lon="13.244137479085657"><ele>505.75</ele><time>2026-04-26T12:41:29.001Z</time></trkpt><trkpt lat="43.31748895984916" lon="13.244176651522649"><ele>502.5</ele><time>2026-04-26T12:41:30.001Z</time></trkpt><trkpt lat="43.317627591579" lon="13.244218808104268"><ele>499.25</ele><time>2026-04-26T12:41:31.001Z</time></trkpt><trkpt lat="43.31777482441099" lon="13.244264377506639"><ele>496.0</ele><time>2026-04-26T12:41:32.001Z</time></trkpt><trkpt lat="43.31792568829713" lon="13.244310953218836"><ele>491.33333333333337</ele><time>2026-04-26T12:41:33.001Z</time></trkpt><trkpt lat="43.31807532199954" lon="13.244357864747348"><ele>486.66666666666663</ele><time>2026-04-26T12:41:34.001Z</time></trkpt><trkpt lat="43.3182315797058" lon="13.244406264144853"><ele>482.0</ele><time>2026-04-26T12:41:35.001Z</time></trkpt><trkpt lat="43.31838678016833" lon="13.244455468596732"><ele>482.0</ele><time>2026-04-26T12:41:36.001Z</time></trkpt><trkpt lat="43.318540399526626" lon="13.244490462694138"><ele>482.0</ele><time>2026-04-26T12:41:37.001Z</time></trkpt><trkpt lat="43.31867411216432" lon="13.2444844304531"><ele>482.0</ele><time>2026-04-26T12:41:38.001Z</time></trkpt><trkpt lat="43.318789626529515" lon="13.244431166465327"><ele>482.0</ele><time>2026-04-26T12:41:39.001Z</time></trkpt><trkpt lat="43.31892050982847" lon="13.244340912741071"><ele>480.0</ele><time>2026-04-26T12:41:40.001Z</time></trkpt><trkpt lat="43.319038802174326" lon="13.244219384731398"><ele>478.0</ele><time>2026-04-26T12:41:41.001Z</time></trkpt><trkpt lat="43.31916530502848" lon="13.244088685325933"><ele>476.0</ele><time>2026-04-26T12:41:42.001Z</time></trkpt><trkpt lat="43.319277565446455" lon="13.243975482293633"><ele>474.0</ele><time>2026-04-26T12:41:43.001Z</time></trkpt><trkpt lat="43.319387714863716" lon="13.243864209722366"><ele>474.0</ele><time>2026-04-26T12:41:44.001Z</time></trkpt><trkpt lat="43.31952086853836" lon="13.243853231132233"><ele>474.0</ele><time>2026-04-26T12:41:45.001Z</time></trkpt><trkpt lat="43.31964582509036" lon="13.243847484997215"><ele>474.0</ele><time>2026-04-26T12:41:46.001Z</time></trkpt><trkpt lat="43.319778845219325" lon="13.243887534045216"><ele>474.0</ele><time>2026-04-26T12:41:47.001Z</time></trkpt><trkpt lat="43.31991532771938" lon="13.24391764577415"><ele>471.66666666666663</ele><time>2026-04-26T12:41:48.001Z</time></trkpt><trkpt lat="43.32006301913077" lon="13.243956967843188"><ele>469.3333333333333</ele><time>2026-04-26T12:41:49.001Z</time></trkpt><trkpt lat="43.32021868146647" lon="13.244005800239846"><ele>467.0</ele><time>2026-04-26T12:41:50.001Z</time></trkpt><trkpt lat="43.32038029014417" lon="13.24405962561004"><ele>462.3333333333333</ele><time>2026-04-26T12:41:51.001Z</time></trkpt><trkpt lat="43.32054412344985" lon="13.244105082302465"><ele>457.66666666666663</ele><time>2026-04-26T12:41:52Z</time></trkpt><trkpt lat="43.320707979775" lon="13.244152107811601"><ele>453.0</ele><time>2026-04-26T12:41:53Z</time></trkpt><trkpt lat="43.32086482000125" lon="13.244200838952871"><ele>452.0</ele><time>2026-04-26T12:41:54Z</time></trkpt><trkpt lat="43.321016747389834" lon="13.244250768383935"><ele>451.0</ele><time>2026-04-26T12:41:55Z</time></trkpt><trkpt lat="43.32116426394088" lon="13.2442978742682"><ele>450.0</ele><time>2026-04-26T12:41:56Z</time></trkpt><trkpt lat="43.32131017677303" lon="13.244351933516988"><ele>450.75</ele><time>2026-04-26T12:41:57Z</time></trkpt><trkpt lat="43.32145119478501" lon="13.244419269560668"><ele>451.5</ele><time>2026-04-26T12:41:58Z</time></trkpt><trkpt lat="43.321582754829755" lon="13.244509046900745"><ele>452.25</ele><time>2026-04-26T12:41:59Z</time></trkpt><trkpt lat="43.3216948559647" lon="13.24464237835739"><ele>453.0</ele><time>2026-04-26T12:42:00Z</time></trkpt><trkpt lat="43.321822473367355" lon="13.244754786676292"><ele>450.75</ele><time>2026-04-26T12:42:01Z</time></trkpt><trkpt lat="43.32193617332988" lon="13.244887622331268"><ele>448.5</ele><time>2026-04-26T12:42:02Z</time></trkpt><trkpt lat="43.32201410856499" lon="13.244986623431362"><ele>446.25</ele><time>2026-04-26T12:42:03Z</time></trkpt><trkpt lat="43.32211381775496" lon="13.24507549576759"><ele>444.0</ele><time>2026-04-26T12:42:04Z</time></trkpt><trkpt lat="43.322225641044774" lon="13.245135041311245"><ele>447.5</ele><time>2026-04-26T12:42:05Z</time></trkpt><trkpt lat="43.32234662862895" lon="13.245155503409375"><ele>451.0</ele><time>2026-04-26T12:42:06Z</time></trkpt><trkpt lat="43.32246646404075" lon="13.245136809607013"><ele>454.5</ele><time>2026-04-26T12:42:07Z</time></trkpt><trkpt lat="43.322594022335764" lon="13.245129655723606"><ele>458.0</ele><time>2026-04-26T12:42:08Z</time></trkpt><trkpt lat="43.3227185685345" lon="13.245082899856879"><ele>458.0</ele><time>2026-04-26T12:42:09Z</time></trkpt><trkpt lat="43.32284645305082" lon="13.245034721928066"><ele>458.0</ele><time>2026-04-26T12:42:10Z</time></trkpt><trkpt lat="43.322980312127676" lon="13.244984502105895"><ele>458.0</ele><time>2026-04-26T12:42:11Z</time></trkpt><trkpt lat="43.32311445139495" lon="13.244935833546467"><ele>458.0</ele><time>2026-04-26T12:42:12Z</time></trkpt><trkpt lat="43.32325273861599" lon="13.244891065781298"><ele>457.66666666666663</ele><time>2026-04-26T12:42:13Z</time></trkpt><trkpt lat="43.32339725808584" lon="13.24485049207389"><ele>457.33333333333337</ele><time>2026-04-26T12:42:14Z</time></trkpt><trkpt lat="43.32354827861333" lon="13.244789031834747"><ele>457.0</ele><time>2026-04-26T12:42:15Z</time></trkpt><trkpt lat="43.323709062204514" lon="13.24474913902601"><ele>460.0</ele><time>2026-04-26T12:42:16Z</time></trkpt><trkpt lat="43.32387862061794" lon="13.244734411308874"><ele>463.0</ele><time>2026-04-26T12:42:17Z</time></trkpt><trkpt lat="43.324049694986165" lon="13.244697788315893"><ele>466.0</ele><time>2026-04-26T12:42:18Z</time></trkpt><trkpt lat="43.324210366325055" lon="13.244643761522065"><ele>466.0</ele><time>2026-04-26T12:42:19Z</time></trkpt><trkpt lat="43.32435530862033" lon="13.244575439894634"><ele>466.0</ele><time>2026-04-26T12:42:20Z</time></trkpt><trkpt lat="43.32450225632251" lon="13.244536459795995"><ele>466.0</ele><time>2026-04-26T12:42:21Z</time></trkpt><trkpt lat="43.32464506907073" lon="13.244500661144537"><ele>466.0</ele><time>2026-04-26T12:42:22Z</time></trkpt><trkpt lat="43.32478732851158" lon="13.244507002874641"><ele>462.75</ele><time>2026-04-26T12:42:23Z</time></trkpt><trkpt lat="43.32492878420109" lon="13.244503114916776"><ele>459.5</ele><time>2026-04-26T12:42:24Z</time></trkpt><trkpt lat="43.32507200984553" lon="13.24448452696286"><ele>456.25</ele><time>2026-04-26T12:42:25Z</time></trkpt><trkpt lat="43.32521400255614" lon="13.244499606150574"><ele>453.0</ele><time>2026-04-26T12:42:26Z</time></trkpt><trkpt lat="43.32535529542948" lon="13.244527751560154"><ele>453.0</ele><time>2026-04-26T12:42:27Z</time></trkpt><trkpt lat="43.32549067064058" lon="13.244578446888097"><ele>453.0</ele><time>2026-04-26T12:42:28Z</time></trkpt><trkpt lat="43.32560349689758" lon="13.244682709828556"><ele>453.0</ele><time>2026-04-26T12:42:29Z</time></trkpt><trkpt lat="43.325700204288445" lon="13.244795014660504"><ele>453.0</ele><time>2026-04-26T12:42:30Z</time></trkpt><trkpt lat="43.32578770770848" lon="13.244919869138812"><ele>448.75</ele><time>2026-04-26T12:42:31Z</time></trkpt><trkpt lat="43.32588267308235" lon="13.245025621068729"><ele>444.5</ele><time>2026-04-26T12:42:32Z</time></trkpt><trkpt lat="43.32596752834274" lon="13.24515024035301"><ele>440.25</ele><time>2026-04-26T12:42:33Z</time></trkpt><trkpt lat="43.32605175162228" lon="13.245280757580842"><ele>436.0</ele><time>2026-04-26T12:42:34Z</time></trkpt><trkpt lat="43.326140339393866" lon="13.245407609980452"><ele>436.0</ele><time>2026-04-26T12:42:35Z</time></trkpt><trkpt lat="43.32623088099313" lon="13.245537033749073"><ele>436.0</ele><time>2026-04-26T12:42:36Z</time></trkpt><trkpt lat="43.326320523677396" lon="13.245670786443728"><ele>436.0</ele><time>2026-04-26T12:42:37Z</time></trkpt><trkpt lat="43.326413738583696" lon="13.245806981055585"><ele>436.0</ele><time>2026-04-26T12:42:38Z</time></trkpt><trkpt lat="43.326505666412515" lon="13.245943034439906"><ele>435.25</ele><time>2026-04-26T12:42:39Z</time></trkpt><trkpt lat="43.326597673358975" lon="13.24608081486502"><ele>434.5</ele><time>2026-04-26T12:42:40Z</time></trkpt><trkpt lat="43.326687151050415" lon="13.24621761303158"><ele>433.75</ele><time>2026-04-26T12:42:41Z</time></trkpt><trkpt lat="43.32677725449233" lon="13.246356384717382"><ele>433.0</ele><time>2026-04-26T12:42:42Z</time></trkpt><trkpt lat="43.32686329172555" lon="13.246492974080942"><ele>432.5</ele><time>2026-04-26T12:42:43Z</time></trkpt><trkpt lat="43.326950584769094" lon="13.246624390422799"><ele>432.0</ele><time>2026-04-26T12:42:44Z</time></trkpt><trkpt lat="43.327038886840434" lon="13.246750135212073"><ele>431.5</ele><time>2026-04-26T12:42:45Z</time></trkpt><trkpt lat="43.32712645364405" lon="13.24687185358186"><ele>431.0</ele><time>2026-04-26T12:42:46Z</time></trkpt><trkpt lat="43.32721312487616" lon="13.2469931577408"><ele>431.0</ele><time>2026-04-26T12:42:47Z</time></trkpt><trkpt lat="43.32729950305037" lon="13.247120070305566"><ele>431.0</ele><time>2026-04-26T12:42:48Z</time></trkpt><trkpt lat="43.32738570671947" lon="13.247249998850148"><ele>431.0</ele><time>2026-04-26T12:42:49Z</time></trkpt><trkpt lat="43.327478309227764" lon="13.247387431409054"><ele>431.0</ele><time>2026-04-26T12:42:50Z</time></trkpt><trkpt lat="43.32757179979458" lon="13.247524880952666"><ele>432.0</ele><time>2026-04-26T12:42:51Z</time></trkpt><trkpt lat="43.32766698563972" lon="13.247664418244115"><ele>433.0</ele><time>2026-04-26T12:42:52Z</time></trkpt><trkpt lat="43.327765575931465" lon="13.247808876872778"><ele>434.0</ele><time>2026-04-26T12:42:53Z</time></trkpt><trkpt lat="43.32786692862128" lon="13.247957099894391"><ele>435.0</ele><time>2026-04-26T12:42:54Z</time></trkpt><trkpt lat="43.32796951547358" lon="13.248106483259898"><ele>431.33333333333337</ele><time>2026-04-26T12:42:54.999Z</time></trkpt><trkpt lat="43.32807408955637" lon="13.248267622363798"><ele>427.6666666666667</ele><time>2026-04-26T12:42:55.999Z</time></trkpt><trkpt lat="43.328177084965354" lon="13.248437881681133"><ele>424.0</ele><time>2026-04-26T12:42:56.999Z</time></trkpt><trkpt lat="43.32826345854839" lon="13.248614740413727"><ele>424.0</ele><time>2026-04-26T12:42:57.999Z</time></trkpt><trkpt lat="43.32831286902039" lon="13.248809849662145"><ele>424.0</ele><time>2026-04-26T12:42:58.999Z</time></trkpt><trkpt lat="43.32834954937903" lon="13.248998989180484"><ele>424.0</ele><time>2026-04-26T12:42:59.999Z</time></trkpt><trkpt lat="43.32838572286803" lon="13.249201921960584"><ele>424.0</ele><time>2026-04-26T12:43:00.999Z</time></trkpt><trkpt lat="43.32842042299234" lon="13.24939658817408"><ele>423.5</ele><time>2026-04-26T12:43:01.999Z</time></trkpt><trkpt lat="43.3284552612041" lon="13.24958440429927"><ele>423.0</ele><time>2026-04-26T12:43:02.999Z</time></trkpt><trkpt lat="43.32848683845916" lon="13.249757665639116"><ele>422.5</ele><time>2026-04-26T12:43:03.999Z</time></trkpt><trkpt lat="43.32847326869787" lon="13.249926566439111"><ele>422.0</ele><time>2026-04-26T12:43:04.999Z</time></trkpt><trkpt lat="43.328425535761674" lon="13.250078482423193"><ele>421.75</ele><time>2026-04-26T12:43:05.999Z</time></trkpt><trkpt lat="43.32835600726057" lon="13.250218456122187"><ele>421.5</ele><time>2026-04-26T12:43:06.999Z</time></trkpt><trkpt lat="43.3282760078961" lon="13.250348675398406"><ele>421.25</ele><time>2026-04-26T12:43:07.999Z</time></trkpt><trkpt lat="43.3281906524591" lon="13.250478319905397"><ele>421.0</ele><time>2026-04-26T12:43:08.999Z</time></trkpt><trkpt lat="43.32810573318928" lon="13.250614985576522"><ele>418.75</ele><time>2026-04-26T12:43:09.999Z</time></trkpt><trkpt lat="43.32802826345493" lon="13.250761656128747"><ele>416.5</ele><time>2026-04-26T12:43:10.999Z</time></trkpt><trkpt lat="43.32794530310857" lon="13.250906230427068"><ele>414.25</ele><time>2026-04-26T12:43:11.999Z</time></trkpt><trkpt lat="43.32791146117758" lon="13.25108487348153"><ele>412.0</ele><time>2026-04-26T12:43:12.999Z</time></trkpt><trkpt lat="43.32789368570544" lon="13.25126213143797"><ele>412.0</ele><time>2026-04-26T12:43:13.999Z</time></trkpt><trkpt lat="43.32789115340398" lon="13.251443781831782"><ele>412.0</ele><time>2026-04-26T12:43:14.999Z</time></trkpt><trkpt lat="43.32788969414448" lon="13.251627482766366"><ele>412.0</ele><time>2026-04-26T12:43:15.999Z</time></trkpt><trkpt lat="43.32788403930161" lon="13.251813059071472"><ele>412.0</ele><time>2026-04-26T12:43:16.999Z</time></trkpt><trkpt lat="43.32787799556367" lon="13.252000933792626"><ele>412.5</ele><time>2026-04-26T12:43:17.999Z</time></trkpt><trkpt lat="43.32787227156764" lon="13.252190806307166"><ele>413.0</ele><time>2026-04-26T12:43:18.999Z</time></trkpt><trkpt lat="43.32786648245472" lon="13.252377876377714"><ele>413.5</ele><time>2026-04-26T12:43:19.999Z</time></trkpt><trkpt lat="43.32785780258526" lon="13.252568077589743"><ele>414.0</ele><time>2026-04-26T12:43:20.999Z</time></trkpt><trkpt lat="43.327848827617" lon="13.252751660786345"><ele>414.0</ele><time>2026-04-26T12:43:21.999Z</time></trkpt><trkpt lat="43.32784210132151" lon="13.252933448828266"><ele>414.0</ele><time>2026-04-26T12:43:22.999Z</time></trkpt><trkpt lat="43.32784768291854" lon="13.253102892566032"><ele>414.0</ele><time>2026-04-26T12:43:24.001Z</time></trkpt><trkpt lat="43.327851427943635" lon="13.253273451602912"><ele>414.0</ele><time>2026-04-26T12:43:25.001Z</time></trkpt><trkpt lat="43.32790499922571" lon="13.253429888811539"><ele>413.5</ele><time>2026-04-26T12:43:26.001Z</time></trkpt><trkpt lat="43.327950442703134" lon="13.253589217063297"><ele>413.0</ele><time>2026-04-26T12:43:27.001Z</time></trkpt><trkpt lat="43.32800188280053" lon="13.25374730733342"><ele>412.5</ele><time>2026-04-26T12:43:28.001Z</time></trkpt><trkpt lat="43.328057999500395" lon="13.253909601786962"><ele>412.0</ele><time>2026-04-26T12:43:29.001Z</time></trkpt><trkpt lat="43.32811604204279" lon="13.254073322455893"><ele>409.25</ele><time>2026-04-26T12:43:30.001Z</time></trkpt><trkpt lat="43.32817381993007" lon="13.254240408221218"><ele>406.5</ele><time>2026-04-26T12:43:31.001Z</time></trkpt><trkpt lat="43.32823002794541" lon="13.254410237069157"><ele>403.75</ele><time>2026-04-26T12:43:32.001Z</time></trkpt><trkpt lat="43.32828850347177" lon="13.254586123319983"><ele>401.0</ele><time>2026-04-26T12:43:33.001Z</time></trkpt><trkpt lat="43.328350205631004" lon="13.254768774232085"><ele>399.0</ele><time>2026-04-26T12:43:34.001Z</time></trkpt><trkpt lat="43.328418307819206" lon="13.254957034754417"><ele>397.0</ele><time>2026-04-26T12:43:35.001Z</time></trkpt><trkpt lat="43.32848523248181" lon="13.255149049926747"><ele>395.0</ele><time>2026-04-26T12:43:36.001Z</time></trkpt><trkpt lat="43.32854807423127" lon="13.255341950073621"><ele>395.0</ele><time>2026-04-26T12:43:37.001Z</time></trkpt><trkpt lat="43.328611929122495" lon="13.25553096484476"><ele>395.0</ele><time>2026-04-26T12:43:38.001Z</time></trkpt><trkpt lat="43.32867346884084" lon="13.255714614061713"><ele>395.0</ele><time>2026-04-26T12:43:39.001Z</time></trkpt><trkpt lat="43.32872508274454" lon="13.255900454020837"><ele>395.0</ele><time>2026-04-26T12:43:40.001Z</time></trkpt><trkpt lat="43.328732135516084" lon="13.25608633792291"><ele>393.75</ele><time>2026-04-26T12:43:41.001Z</time></trkpt><trkpt lat="43.328717090157845" lon="13.256267929943593"><ele>392.5</ele><time>2026-04-26T12:43:42.001Z</time></trkpt><trkpt lat="43.32869995334463" lon="13.256451092563802"><ele>391.25</ele><time>2026-04-26T12:43:43.001Z</time></trkpt><trkpt lat="43.32865613126607" lon="13.256620105278065"><ele>390.0</ele><time>2026-04-26T12:43:44.001Z</time></trkpt><trkpt lat="43.32861394749188" lon="13.256803930392982"><ele>389.0</ele><time>2026-04-26T12:43:45.001Z</time></trkpt><trkpt lat="43.32858161156067" lon="13.256987846053262"><ele>388.0</ele><time>2026-04-26T12:43:46.001Z</time></trkpt><trkpt lat="43.32856233572025" lon="13.25717653489481"><ele>387.0</ele><time>2026-04-26T12:43:47.001Z</time></trkpt><trkpt lat="43.328557472473136" lon="13.257373331104386"><ele>386.0</ele><time>2026-04-26T12:43:48.001Z</time></trkpt><trkpt lat="43.32857031206619" lon="13.257578048514755"><ele>383.66666666666663</ele><time>2026-04-26T12:43:49.001Z</time></trkpt><trkpt lat="43.32858615679728" lon="13.257784731976365"><ele>381.3333333333333</ele><time>2026-04-26T12:43:50.001Z</time></trkpt><trkpt lat="43.32858896218268" lon="13.257998542256964"><ele>379.0</ele><time>2026-04-26T12:43:51.001Z</time></trkpt><trkpt lat="43.32861945620086" lon="13.258206958445447"><ele>378.25</ele><time>2026-04-26T12:43:52.001Z</time></trkpt><trkpt lat="43.32862970235073" lon="13.25841741057654"><ele>377.5</ele><time>2026-04-26T12:43:53.001Z</time></trkpt><trkpt lat="43.32863638889897" lon="13.2586159430762"><ele>376.75</ele><time>2026-04-26T12:43:54Z</time></trkpt><trkpt lat="43.328645490928096" lon="13.258805083762272"><ele>376.0</ele><time>2026-04-26T12:43:55Z</time></trkpt><trkpt lat="43.3286591147634" lon="13.258973455651887"><ele>373.75</ele><time>2026-04-26T12:43:56Z</time></trkpt><trkpt lat="43.32868697736247" lon="13.259139104584387"><ele>371.5</ele><time>2026-04-26T12:43:57Z</time></trkpt><trkpt lat="43.32872830638698" lon="13.259299807860444"><ele>369.25</ele><time>2026-04-26T12:43:58Z</time></trkpt><trkpt lat="43.328775591911636" lon="13.259462163674787"><ele>367.0</ele><time>2026-04-26T12:43:59Z</time></trkpt><trkpt lat="43.32882875443396" lon="13.259629266149219"><ele>365.75</ele><time>2026-04-26T12:44:00Z</time></trkpt><trkpt lat="43.32888626551928" lon="13.2598025869682"><ele>364.5</ele><time>2026-04-26T12:44:01Z</time></trkpt><trkpt lat="43.3289457309699" lon="13.2599853201291"><ele>363.25</ele><time>2026-04-26T12:44:02Z</time></trkpt><trkpt lat="43.32900972757032" lon="13.260177139325274"><ele>362.0</ele><time>2026-04-26T12:44:03Z</time></trkpt><trkpt lat="43.32905916372948" lon="13.260384592557173"><ele>362.0</ele><time>2026-04-26T12:44:04Z</time></trkpt><trkpt lat="43.32911803090927" lon="13.260582616814913"><ele>362.0</ele><time>2026-04-26T12:44:05Z</time></trkpt><trkpt lat="43.32918927054578" lon="13.260764909625657"><ele>362.0</ele><time>2026-04-26T12:44:06Z</time></trkpt><trkpt lat="43.32922807834722" lon="13.260955645710816"><ele>361.25</ele><time>2026-04-26T12:44:07Z</time></trkpt><trkpt lat="43.32925127588185" lon="13.26115868245562"><ele>360.5</ele><time>2026-04-26T12:44:08Z</time></trkpt><trkpt lat="43.32927486859071" lon="13.261373797128496"><ele>359.75</ele><time>2026-04-26T12:44:09Z</time></trkpt><trkpt lat="43.32930904154035" lon="13.261557774725416"><ele>359.0</ele><time>2026-04-26T12:44:10Z</time></trkpt><trkpt lat="43.32934023796547" lon="13.26176953522434"><ele>357.6666666666667</ele><time>2026-04-26T12:44:11Z</time></trkpt><trkpt lat="43.329387956335346" lon="13.261977767244433"><ele>356.3333333333333</ele><time>2026-04-26T12:44:12Z</time></trkpt><trkpt lat="43.329441145566875" lon="13.262184922309501"><ele>355.0</ele><time>2026-04-26T12:44:13Z</time></trkpt><trkpt lat="43.32949008991207" lon="13.262392719446948"><ele>354.0</ele><time>2026-04-26T12:44:14Z</time></trkpt><trkpt lat="43.32954150008463" lon="13.262601077281401"><ele>353.0</ele><time>2026-04-26T12:44:15Z</time></trkpt><trkpt lat="43.32958721915922" lon="13.262807399075385"><ele>352.0</ele><time>2026-04-26T12:44:16Z</time></trkpt><trkpt lat="43.32963195177" lon="13.263004727504773"><ele>352.75</ele><time>2026-04-26T12:44:17Z</time></trkpt><trkpt lat="43.32968013877125" lon="13.26319279506176"><ele>353.5</ele><time>2026-04-26T12:44:18Z</time></trkpt><trkpt lat="43.32973754622073" lon="13.263373383297806"><ele>354.25</ele><time>2026-04-26T12:44:19Z</time></trkpt><trkpt lat="43.329802631411184" lon="13.263546917107828"><ele>355.0</ele><time>2026-04-26T12:44:20Z</time></trkpt><trkpt lat="43.329877842980544" lon="13.263728267214955"><ele>355.0</ele><time>2026-04-26T12:44:21Z</time></trkpt><trkpt lat="43.32995415873754" lon="13.263910179721556"><ele>355.0</ele><time>2026-04-26T12:44:22Z</time></trkpt><trkpt lat="43.3300334943984" lon="13.264098233074378"><ele>355.0</ele><time>2026-04-26T12:44:23Z</time></trkpt><trkpt lat="43.3301094824243" lon="13.264295562811652"><ele>351.66666666666663</ele><time>2026-04-26T12:44:24Z</time></trkpt><trkpt lat="43.330164129745285" lon="13.264509610297376"><ele>348.3333333333333</ele><time>2026-04-26T12:44:25Z</time></trkpt><trkpt lat="43.33021348843864" lon="13.264718461072352"><ele>345.0</ele><time>2026-04-26T12:44:26Z</time></trkpt><trkpt lat="43.330259744562355" lon="13.264937565457254"><ele>342.3333333333333</ele><time>2026-04-26T12:44:27Z</time></trkpt><trkpt lat="43.33030379238387" lon="13.265165252392915"><ele>339.66666666666663</ele><time>2026-04-26T12:44:28Z</time></trkpt><trkpt lat="43.33036500814474" lon="13.26538267795281"><ele>337.0</ele><time>2026-04-26T12:44:29Z</time></trkpt><trkpt lat="43.33041255552645" lon="13.265618711521592"><ele>339.3333333333333</ele><time>2026-04-26T12:44:30Z</time></trkpt><trkpt lat="43.33046134960401" lon="13.265864667750154"><ele>341.6666666666667</ele><time>2026-04-26T12:44:31Z</time></trkpt><trkpt lat="43.3305157641873" lon="13.266088970480885"><ele>344.0</ele><time>2026-04-26T12:44:32Z</time></trkpt><trkpt lat="43.33056345270931" lon="13.26631041342111"><ele>343.0</ele><time>2026-04-26T12:44:33Z</time></trkpt><trkpt lat="43.33059464676777" lon="13.2665229333281"><ele>342.0</ele><time>2026-04-26T12:44:34Z</time></trkpt><trkpt lat="43.33063626997148" lon="13.266712850200225"><ele>341.0</ele><time>2026-04-26T12:44:35Z</time></trkpt><trkpt lat="43.330693676501134" lon="13.266898191896011"><ele>340.0</ele><time>2026-04-26T12:44:36Z</time></trkpt><trkpt lat="43.33073034973711" lon="13.267086278700141"><ele>340.0</ele><time>2026-04-26T12:44:37Z</time></trkpt><trkpt lat="43.33076373157571" lon="13.26725837854756"><ele>340.0</ele><time>2026-04-26T12:44:38Z</time></trkpt><trkpt lat="43.330795235826734" lon="13.267409660907028"><ele>340.0</ele><time>2026-04-26T12:44:39Z</time></trkpt><trkpt lat="43.330827565869434" lon="13.26753729946169"><ele>340.0</ele><time>2026-04-26T12:44:40Z</time></trkpt><trkpt lat="43.33086128034123" lon="13.267646975541759"><ele>340.0</ele><time>2026-04-26T12:44:41Z</time></trkpt><trkpt lat="43.33089008229739" lon="13.267737290130071"><ele>339.6</ele><time>2026-04-26T12:44:42Z</time></trkpt><trkpt lat="43.33093548716373" lon="13.267878408171393"><ele>339.2</ele><time>2026-04-26T12:44:44Z</time></trkpt><trkpt lat="43.33096589613087" lon="13.26797172398336"><ele>338.79999999999995</ele><time>2026-04-26T12:44:47Z</time></trkpt><trkpt lat="43.33108441868547" lon="13.267944191908816"><ele>338.4</ele><time>2026-04-26T12:44:48Z</time></trkpt><trkpt lat="43.33115572288602" lon="13.267841464663627"><ele>338.0</ele><time>2026-04-26T12:44:49.999Z</time></trkpt><trkpt lat="43.33120433855353" lon="13.267778836133616"><ele>338.0</ele><time>2026-04-26T12:44:50.999Z</time></trkpt><trkpt lat="43.33127060018034" lon="13.26770006056981"><ele>338.0</ele><time>2026-04-26T12:44:51.999Z</time></trkpt><trkpt lat="43.331343196982544" lon="13.267618205514678"><ele>338.0</ele><time>2026-04-26T12:44:52.999Z</time></trkpt><trkpt lat="43.331425315349186" lon="13.26752569163299"><ele>338.0</ele><time>2026-04-26T12:44:53.999Z</time></trkpt><trkpt lat="43.33151173028706" lon="13.267421390366593"><ele>338.0</ele><time>2026-04-26T12:44:54.999Z</time></trkpt><trkpt lat="43.331609185839945" lon="13.267303728759105"><ele>339.6666666666667</ele><time>2026-04-26T12:44:55.999Z</time></trkpt><trkpt lat="43.331719720687566" lon="13.26717593437489"><ele>341.3333333333333</ele><time>2026-04-26T12:44:56.999Z</time></trkpt><trkpt lat="43.33183795699085" lon="13.267043774432192"><ele>343.0</ele><time>2026-04-26T12:44:57.999Z</time></trkpt><trkpt lat="43.33195861238222" lon="13.26690708890156"><ele>343.0</ele><time>2026-04-26T12:44:58.999Z</time></trkpt><trkpt lat="43.3320862764163" lon="13.266765710409377"><ele>343.0</ele><time>2026-04-26T12:44:59.999Z</time></trkpt><trkpt lat="43.332219346794815" lon="13.266612151893831"><ele>343.0</ele><time>2026-04-26T12:45:00.999Z</time></trkpt><trkpt lat="43.332343646181386" lon="13.266468252145371"><ele>344.0</ele><time>2026-04-26T12:45:01.999Z</time></trkpt><trkpt lat="43.33245383798275" lon="13.266329569168418"><ele>345.0</ele><time>2026-04-26T12:45:02.999Z</time></trkpt><trkpt lat="43.33254555487867" lon="13.266195785650922"><ele>346.0</ele><time>2026-04-26T12:45:03.999Z</time></trkpt><trkpt lat="43.33262357267123" lon="13.266057308245024"><ele>347.0</ele><time>2026-04-26T12:45:04.999Z</time></trkpt><trkpt lat="43.332700446308706" lon="13.265902412726017"><ele>347.0</ele><time>2026-04-26T12:45:05.999Z</time></trkpt><trkpt lat="43.33277870444172" lon="13.265734700512311"><ele>347.0</ele><time>2026-04-26T12:45:06.999Z</time></trkpt><trkpt lat="43.33285265187667" lon="13.265573738592817"><ele>347.0</ele><time>2026-04-26T12:45:07.999Z</time></trkpt><trkpt lat="43.33291893544806" lon="13.26543682474985"><ele>347.0</ele><time>2026-04-26T12:45:08.999Z</time></trkpt><trkpt lat="43.3329822552813" lon="13.26531621001777"><ele>347.0</ele><time>2026-04-26T12:45:09.999Z</time></trkpt><trkpt lat="43.33304513245523" lon="13.265204470667696"><ele>347.0</ele><time>2026-04-26T12:45:10.999Z</time></trkpt><trkpt lat="43.333105763689105" lon="13.265099337131248"><ele>347.0</ele><time>2026-04-26T12:45:11.999Z</time></trkpt><trkpt lat="43.3331684960167" lon="13.264997622940738"><ele>347.0</ele><time>2026-04-26T12:45:12.999Z</time></trkpt><trkpt lat="43.33324600773222" lon="13.264923517928544"><ele>347.0</ele><time>2026-04-26T12:45:13.999Z</time></trkpt><trkpt lat="43.333317746976945" lon="13.264845390240097"><ele>346.6666666666667</ele><time>2026-04-26T12:45:14.999Z</time></trkpt><trkpt lat="43.33339161892719" lon="13.264778694117922"><ele>346.33333333333337</ele><time>2026-04-26T12:45:15.999Z</time></trkpt><trkpt lat="43.33346606712974" lon="13.264717667267412"><ele>346.0</ele><time>2026-04-26T12:45:16.999Z</time></trkpt><trkpt lat="43.33353894978234" lon="13.264656882160656"><ele>345.6666666666667</ele><time>2026-04-26T12:45:17.999Z</time></trkpt><trkpt lat="43.33360755079504" lon="13.264595898833557"><ele>345.3333333333333</ele><time>2026-04-26T12:45:18.999Z</time></trkpt><trkpt lat="43.333670474065634" lon="13.264536829869105"><ele>345.0</ele><time>2026-04-26T12:45:19.999Z</time></trkpt><trkpt lat="43.33372845870263" lon="13.26446164571235"><ele>345.0</ele><time>2026-04-26T12:45:20.999Z</time></trkpt><trkpt lat="43.333780910026036" lon="13.26436966771538"><ele>345.0</ele><time>2026-04-26T12:45:21.999Z</time></trkpt><trkpt lat="43.333828810890246" lon="13.264272600342196"><ele>345.0</ele><time>2026-04-26T12:45:22.999Z</time></trkpt><trkpt lat="43.33387667069552" lon="13.264177200759677"><ele>345.0</ele><time>2026-04-26T12:45:23.999Z</time></trkpt><trkpt lat="43.33392268809148" lon="13.264088077732454"><ele>345.0</ele><time>2026-04-26T12:45:24.999Z</time></trkpt><trkpt lat="43.33395645292499" lon="13.263993978035819"><ele>345.0</ele><time>2026-04-26T12:45:25.999Z</time></trkpt><trkpt lat="43.33402135217837" lon="13.2639234968146"><ele>343.1666666666667</ele><time>2026-04-26T12:45:26.999Z</time></trkpt><trkpt lat="43.33407444088907" lon="13.263845480002093"><ele>341.3333333333333</ele><time>2026-04-26T12:45:27.999Z</time></trkpt><trkpt lat="43.334120360689965" lon="13.2637540299912"><ele>339.5</ele><time>2026-04-26T12:45:28.999Z</time></trkpt><trkpt lat="43.334187379416115" lon="13.263685405570671"><ele>337.66666666666663</ele><time>2026-04-26T12:45:30.001Z</time></trkpt><trkpt lat="43.33425275716169" lon="13.263614461449034"><ele>335.8333333333333</ele><time>2026-04-26T12:45:31.001Z</time></trkpt><trkpt lat="43.33432421852466" lon="13.263539342864217"><ele>334.0</ele><time>2026-04-26T12:45:32.001Z</time></trkpt><trkpt lat="43.33439614781235" lon="13.26346557323892"><ele>334.0</ele><time>2026-04-26T12:45:33.001Z</time></trkpt><trkpt lat="43.33446308100183" lon="13.263386804167197"><ele>334.0</ele><time>2026-04-26T12:45:34.001Z</time></trkpt><trkpt lat="43.3345184979063" lon="13.263299435030481"><ele>334.0</ele><time>2026-04-26T12:45:35.001Z</time></trkpt><trkpt lat="43.33456647730587" lon="13.263191586693207"><ele>334.0</ele><time>2026-04-26T12:45:36.001Z</time></trkpt><trkpt lat="43.33461006263202" lon="13.263084549080299"><ele>334.0</ele><time>2026-04-26T12:45:37.001Z</time></trkpt><trkpt lat="43.33465781460423" lon="13.262976624468687"><ele>334.0</ele><time>2026-04-26T12:45:38.001Z</time></trkpt><trkpt lat="43.334699755921505" lon="13.262877356460711"><ele>331.8333333333333</ele><time>2026-04-26T12:45:39.001Z</time></trkpt><trkpt lat="43.3347327719621" lon="13.262761014018421"><ele>329.66666666666663</ele><time>2026-04-26T12:45:40.001Z</time></trkpt><trkpt lat="43.334768370304104" lon="13.262657315841361"><ele>327.5</ele><time>2026-04-26T12:45:41.001Z</time></trkpt><trkpt lat="43.33479648360362" lon="13.262545041090746"><ele>325.3333333333333</ele><time>2026-04-26T12:45:42.001Z</time></trkpt><trkpt lat="43.33482011555958" lon="13.262436755701973"><ele>323.1666666666667</ele><time>2026-04-26T12:45:43.001Z</time></trkpt><trkpt lat="43.33484595307202" lon="13.262340768576717"><ele>321.0</ele><time>2026-04-26T12:45:44.001Z</time></trkpt><trkpt lat="43.33487631459718" lon="13.262236229311311"><ele>320.3333333333333</ele><time>2026-04-26T12:45:45.001Z</time></trkpt><trkpt lat="43.334901575384436" lon="13.262132703682811"><ele>319.6666666666667</ele><time>2026-04-26T12:45:46.001Z</time></trkpt><trkpt lat="43.33492884981944" lon="13.262021189771154"><ele>319.0</ele><time>2026-04-26T12:45:47.001Z</time></trkpt><trkpt lat="43.334961134770886" lon="13.261910474449337"><ele>318.33333333333337</ele><time>2026-04-26T12:45:48.001Z</time></trkpt><trkpt lat="43.33499804542961" lon="13.261795775302023"><ele>317.6666666666667</ele><time>2026-04-26T12:45:49Z</time></trkpt><trkpt lat="43.33503532857058" lon="13.261678376678063"><ele>317.0</ele><time>2026-04-26T12:45:50Z</time></trkpt><trkpt lat="43.33508029009046" lon="13.261558093583545"><ele>319.2</ele><time>2026-04-26T12:45:51Z</time></trkpt><trkpt lat="43.33513592852859" lon="13.261441636823127"><ele>321.4</ele><time>2026-04-26T12:45:52Z</time></trkpt><trkpt lat="43.335208263304004" lon="13.261340120783531"><ele>323.59999999999997</ele><time>2026-04-26T12:45:53Z</time></trkpt><trkpt lat="43.3352937584563" lon="13.261260337798223"><ele>325.79999999999995</ele><time>2026-04-26T12:45:54Z</time></trkpt><trkpt lat="43.33537737855741" lon="13.261206933684312"><ele>328.0</ele><time>2026-04-26T12:45:55Z</time></trkpt><trkpt lat="43.33546570739248" lon="13.261157708642534"><ele>325.59999999999997</ele><time>2026-04-26T12:45:56Z</time></trkpt><trkpt lat="43.33556168603847" lon="13.261141615944307"><ele>323.2</ele><time>2026-04-26T12:45:57Z</time></trkpt><trkpt lat="43.335659771435914" lon="13.261104376450154"><ele>320.8</ele><time>2026-04-26T12:45:58Z</time></trkpt><trkpt lat="43.33574846725843" lon="13.261054252357908"><ele>318.4</ele><time>2026-04-26T12:45:59Z</time></trkpt><trkpt lat="43.33584097126335" lon="13.2610282639781"><ele>316.0</ele><time>2026-04-26T12:46:00Z</time></trkpt><trkpt lat="43.335926443862654" lon="13.261000375439705"><ele>316.0</ele><time>2026-04-26T12:46:01Z</time></trkpt><trkpt lat="43.3359875269493" lon="13.260963952460752"><ele>316.0</ele><time>2026-04-26T12:46:02Z</time></trkpt><trkpt lat="43.33603512726481" lon="13.260901658403402"><ele>316.0</ele><time>2026-04-26T12:46:03Z</time></trkpt><trkpt lat="43.336062386651626" lon="13.260812421899347"><ele>316.0</ele><time>2026-04-26T12:46:04Z</time></trkpt><trkpt lat="43.336088554573855" lon="13.260732386654258"><ele>316.0</ele><time>2026-04-26T12:46:05Z</time></trkpt><trkpt lat="43.33613462784697" lon="13.26060868112324"><ele>316.0</ele><time>2026-04-26T12:46:07Z</time></trkpt><trkpt lat="43.336219549624005" lon="13.260619860624663"><ele>316.0</ele><time>2026-04-26T12:46:09Z</time></trkpt><trkpt lat="43.336280088863084" lon="13.260730219317024"><ele>316.0</ele><time>2026-04-26T12:46:11Z</time></trkpt><trkpt lat="43.3363410212784" lon="13.260890981148794"><ele>316.0</ele><time>2026-04-26T12:46:13Z</time></trkpt><trkpt lat="43.33636962577306" lon="13.261001941505963"><ele>316.0</ele><time>2026-04-26T12:46:14Z</time></trkpt><trkpt lat="43.3363900153347" lon="13.261121189479644"><ele>316.0</ele><time>2026-04-26T12:46:15Z</time></trkpt><trkpt lat="43.336416488139825" lon="13.261243280336087"><ele>315.6</ele><time>2026-04-26T12:46:16Z</time></trkpt><trkpt lat="43.336447683914514" lon="13.261367047860887"><ele>315.20000000000005</ele><time>2026-04-26T12:46:17Z</time></trkpt><trkpt lat="43.33648783378486" lon="13.26147641574667"><ele>314.79999999999995</ele><time>2026-04-26T12:46:18Z</time></trkpt><trkpt lat="43.33654402363304" lon="13.261575326620036"><ele>314.4</ele><time>2026-04-26T12:46:19Z</time></trkpt><trkpt lat="43.33660901624079" lon="13.261677614756612"><ele>314.0</ele><time>2026-04-26T12:46:20Z</time></trkpt><trkpt lat="43.33668176626009" lon="13.261772647596207"><ele>312.59999999999997</ele><time>2026-04-26T12:46:21Z</time></trkpt><trkpt lat="43.33675275050153" lon="13.261871707011688"><ele>311.2</ele><time>2026-04-26T12:46:22Z</time></trkpt><trkpt lat="43.33681597648664" lon="13.261984640249244"><ele>309.79999999999995</ele><time>2026-04-26T12:46:23Z</time></trkpt><trkpt lat="43.336865650562295" lon="13.262095355811608"><ele>308.4</ele><time>2026-04-26T12:46:24Z</time></trkpt><trkpt lat="43.336918077989935" lon="13.26218471579993"><ele>307.0</ele><time>2026-04-26T12:46:25Z</time></trkpt><trkpt lat="43.33698503490474" lon="13.262246386673283"><ele>307.0</ele><time>2026-04-26T12:46:26Z</time></trkpt><trkpt lat="43.33705406276136" lon="13.262278508215312"><ele>307.0</ele><time>2026-04-26T12:46:27Z</time></trkpt><trkpt lat="43.337127014926175" lon="13.262286346440185"><ele>307.0</ele><time>2026-04-26T12:46:28Z</time></trkpt><trkpt lat="43.33720718161653" lon="13.26230209515842"><ele>307.0</ele><time>2026-04-26T12:46:29Z</time></trkpt><trkpt lat="43.337302965153576" lon="13.262284585587473"><ele>307.0</ele><time>2026-04-26T12:46:30Z</time></trkpt><trkpt lat="43.33739651665053" lon="13.262257699898251"><ele>307.0</ele><time>2026-04-26T12:46:31Z</time></trkpt><trkpt lat="43.337497886814646" lon="13.262215801128617"><ele>308.25</ele><time>2026-04-26T12:46:32Z</time></trkpt><trkpt lat="43.33759836915979" lon="13.262151097116949"><ele>309.5</ele><time>2026-04-26T12:46:33Z</time></trkpt><trkpt lat="43.3377107786493" lon="13.262112868149902"><ele>310.75</ele><time>2026-04-26T12:46:34Z</time></trkpt><trkpt lat="43.3378226430775" lon="13.26206333938972"><ele>312.0</ele><time>2026-04-26T12:46:35Z</time></trkpt><trkpt lat="43.33793734478817" lon="13.26204000407188"><ele>312.0</ele><time>2026-04-26T12:46:36Z</time></trkpt><trkpt lat="43.33804534750867" lon="13.262028874039967"><ele>312.0</ele><time>2026-04-26T12:46:37Z</time></trkpt><trkpt lat="43.33815408066789" lon="13.262034701069096"><ele>312.0</ele><time>2026-04-26T12:46:38Z</time></trkpt><trkpt lat="43.33826496104672" lon="13.262024979992894"><ele>312.0</ele><time>2026-04-26T12:46:39Z</time></trkpt><trkpt lat="43.33837874766432" lon="13.262029713613309"><ele>312.0</ele><time>2026-04-26T12:46:40Z</time></trkpt><trkpt lat="43.33849337621723" lon="13.26203682090561"><ele>311.4</ele><time>2026-04-26T12:46:40.999Z</time></trkpt><trkpt lat="43.338610319301914" lon="13.262041152017506"><ele>310.79999999999995</ele><time>2026-04-26T12:46:41.999Z</time></trkpt><trkpt lat="43.33871865324195" lon="13.26204197791624"><ele>310.2</ele><time>2026-04-26T12:46:42.999Z</time></trkpt><trkpt lat="43.33881926003146" lon="13.262052582080234"><ele>309.59999999999997</ele><time>2026-04-26T12:46:43.999Z</time></trkpt><trkpt lat="43.33891124150698" lon="13.262048195790035"><ele>309.0</ele><time>2026-04-26T12:46:44.999Z</time></trkpt><trkpt lat="43.338983165815634" lon="13.262055688920976"><ele>309.0</ele><time>2026-04-26T12:46:45.999Z</time></trkpt><trkpt lat="43.33907112893529" lon="13.262059578891302"><ele>309.0</ele><time>2026-04-26T12:46:47.999Z</time></trkpt><trkpt lat="43.33915931592112" lon="13.262087557350107"><ele>309.0</ele><time>2026-04-26T12:46:50.999Z</time></trkpt><trkpt lat="43.339214850275816" lon="13.262136316289943"><ele>309.0</ele><time>2026-04-26T12:46:52.999Z</time></trkpt><trkpt lat="43.33926143513838" lon="13.262194610927624"><ele>309.0</ele><time>2026-04-26T12:46:54.999Z</time></trkpt><trkpt lat="43.33930709169287" lon="13.262298696731593"><ele>309.0</ele><time>2026-04-26T12:46:56.999Z</time></trkpt><trkpt lat="43.33935470772542" lon="13.262429588180142"><ele>308.8</ele><time>2026-04-26T12:46:58.999Z</time></trkpt><trkpt lat="43.33940058109227" lon="13.262563694289415"><ele>308.59999999999997</ele><time>2026-04-26T12:47:00.999Z</time></trkpt><trkpt lat="43.339456952205694" lon="13.262689642249093"><ele>308.4</ele><time>2026-04-26T12:47:02.999Z</time></trkpt><trkpt lat="43.33954011967575" lon="13.262805193803578"><ele>308.2</ele><time>2026-04-26T12:47:04.999Z</time></trkpt><trkpt lat="43.33958708800964" lon="13.26286568806859"><ele>308.0</ele><time>2026-04-26T12:47:05.999Z</time></trkpt><trkpt lat="43.33963513287051" lon="13.262933006230806"><ele>308.0</ele><time>2026-04-26T12:47:06.999Z</time></trkpt><trkpt lat="43.3396811709685" lon="13.262992402137714"><ele>308.0</ele><time>2026-04-26T12:47:07.999Z</time></trkpt><trkpt lat="43.33976462720101" lon="13.263100671911257"><ele>308.0</ele><time>2026-04-26T12:47:09.999Z</time></trkpt><trkpt lat="43.33985685677493" lon="13.26317593082586"><ele>308.0</ele><time>2026-04-26T12:47:11.999Z</time></trkpt><trkpt lat="43.339937305327744" lon="13.263241504447647"><ele>308.0</ele><time>2026-04-26T12:47:13.999Z</time></trkpt><trkpt lat="43.34001946224243" lon="13.26325799376066"><ele>306.33333333333337</ele><time>2026-04-26T12:47:15.999Z</time></trkpt><trkpt lat="43.34009787346009" lon="13.263163408723143"><ele>304.6666666666667</ele><time>2026-04-26T12:47:17.999Z</time></trkpt><trkpt lat="43.3401029499605" lon="13.263074917257354"><ele>303.0</ele><time>2026-04-26T12:47:18.999Z</time></trkpt><trkpt lat="43.34014874731567" lon="13.262955619790533"><ele>301.3333333333333</ele><time>2026-04-26T12:47:20.999Z</time></trkpt><trkpt lat="43.340177686550355" lon="13.262837220254818"><ele>299.66666666666663</ele><time>2026-04-26T12:47:22.999Z</time></trkpt><trkpt lat="43.340210535178706" lon="13.262738232648365"><ele>298.0</ele><time>2026-04-26T12:47:24.999Z</time></trkpt><trkpt lat="43.340289285843085" lon="13.262699263796915"><ele>298.0</ele><time>2026-04-26T12:47:27.999Z</time></trkpt><trkpt lat="43.34035068376101" lon="13.262751538959769"><ele>298.0</ele><time>2026-04-26T12:47:29.999Z</time></trkpt><trkpt lat="43.34033524660438" lon="13.262876957647757"><ele>298.0</ele><time>2026-04-26T12:47:31.999Z</time></trkpt><trkpt lat="43.34030082071952" lon="13.263005391816462"><ele>298.0</ele><time>2026-04-26T12:47:33.999Z</time></trkpt><trkpt lat="43.34030321469907" lon="13.263136086963538"><ele>298.0</ele><time>2026-04-26T12:47:36Z</time></trkpt><trkpt lat="43.34033523980232" lon="13.263237911961014"><ele>298.0</ele><time>2026-04-26T12:47:38Z</time></trkpt><trkpt lat="43.34043741714632" lon="13.26325701182625"><ele>298.0</ele><time>2026-04-26T12:47:40Z</time></trkpt><trkpt lat="43.340509402560876" lon="13.263158997798936"><ele>298.0</ele><time>2026-04-26T12:47:42Z</time></trkpt><trkpt lat="43.34057329167536" lon="13.263097167678685"><ele>298.0</ele><time>2026-04-26T12:47:44Z</time></trkpt><trkpt lat="43.340620699034446" lon="13.263035024793808"><ele>298.0</ele><time>2026-04-26T12:47:46Z</time></trkpt><trkpt lat="43.34067907997255" lon="13.262995714339942"><ele>298.0</ele><time>2026-04-26T12:47:50Z</time></trkpt><trkpt lat="43.340699746065766" lon="13.263104193996561"><ele>298.0</ele><time>2026-04-26T12:47:52Z</time></trkpt><trkpt lat="43.34063550889106" lon="13.263238430296619"><ele>298.0</ele><time>2026-04-26T12:47:54Z</time></trkpt><trkpt lat="43.34058438107966" lon="13.26331121593997"><ele>298.0</ele><time>2026-04-26T12:47:55Z</time></trkpt><trkpt lat="43.34052850340878" lon="13.26338824932199"><ele>298.0</ele><time>2026-04-26T12:47:56Z</time></trkpt><trkpt lat="43.340467411655844" lon="13.26347084663767"><ele>298.0</ele><time>2026-04-26T12:47:57Z</time></trkpt><trkpt lat="43.34041488437387" lon="13.26356378884694"><ele>298.0</ele><time>2026-04-26T12:47:58Z</time></trkpt><trkpt lat="43.340369821708904" lon="13.263666189757396"><ele>298.0</ele><time>2026-04-26T12:47:59Z</time></trkpt><trkpt lat="43.340336453217716" lon="13.263767043473315"><ele>298.0</ele><time>2026-04-26T12:48:00Z</time></trkpt><trkpt lat="43.34031751529381" lon="13.263867783536163"><ele>298.0</ele><time>2026-04-26T12:48:01Z</time></trkpt><trkpt lat="43.3403181844042" lon="13.263962887249038"><ele>298.0</ele><time>2026-04-26T12:48:02Z</time></trkpt><trkpt lat="43.340382488766004" lon="13.264098224585755"><ele>298.0</ele><time>2026-04-26T12:48:04Z</time></trkpt><trkpt lat="43.340463578136394" lon="13.264106958148243"><ele>298.0</ele><time>2026-04-26T12:48:05Z</time></trkpt><trkpt lat="43.340528257421546" lon="13.264119744052248"><ele>298.0</ele><time>2026-04-26T12:48:06Z</time></trkpt><trkpt lat="43.34059817976655" lon="13.264130427667443"><ele>296.0</ele><time>2026-04-26T12:48:07Z</time></trkpt><trkpt lat="43.340662455376965" lon="13.264157603674567"><ele>294.0</ele><time>2026-04-26T12:48:08Z</time></trkpt><trkpt lat="43.34073075424976" lon="13.26420902081743"><ele>292.0</ele><time>2026-04-26T12:48:09Z</time></trkpt><trkpt lat="43.3407789899354" lon="13.264277967510157"><ele>290.0</ele><time>2026-04-26T12:48:10Z</time></trkpt><trkpt lat="43.340809555604515" lon="13.26436126392779"><ele>288.0</ele><time>2026-04-26T12:48:11Z</time></trkpt><trkpt lat="43.34081390608711" lon="13.264458602627151"><ele>286.0</ele><time>2026-04-26T12:48:12Z</time></trkpt><trkpt lat="43.34080081677885" lon="13.264561639234396"><ele>284.0</ele><time>2026-04-26T12:48:13Z</time></trkpt><trkpt lat="43.34078982562386" lon="13.264664236280707"><ele>284.0</ele><time>2026-04-26T12:48:14Z</time></trkpt><trkpt lat="43.340789198797566" lon="13.264763771154888"><ele>284.0</ele><time>2026-04-26T12:48:15Z</time></trkpt><trkpt lat="43.34080627759456" lon="13.264865362120705"><ele>284.0</ele><time>2026-04-26T12:48:16Z</time></trkpt><trkpt lat="43.340815299124586" lon="13.264987703175322"><ele>284.0</ele><time>2026-04-26T12:48:17Z</time></trkpt><trkpt lat="43.340829203539656" lon="13.265109497075432"><ele>284.0</ele><time>2026-04-26T12:48:18Z</time></trkpt><trkpt lat="43.34084501523145" lon="13.265231842288095"><ele>284.0</ele><time>2026-04-26T12:48:19Z</time></trkpt><trkpt lat="43.34085786666917" lon="13.26535044068674"><ele>284.5</ele><time>2026-04-26T12:48:20Z</time></trkpt><trkpt lat="43.34087457360778" lon="13.265476195700558"><ele>285.0</ele><time>2026-04-26T12:48:21Z</time></trkpt><trkpt lat="43.340887296182075" lon="13.265601910767343"><ele>285.5</ele><time>2026-04-26T12:48:22Z</time></trkpt><trkpt lat="43.340899832014934" lon="13.265722101836294"><ele>286.0</ele><time>2026-04-26T12:48:23Z</time></trkpt><trkpt lat="43.34092333449551" lon="13.265834574385194"><ele>286.5</ele><time>2026-04-26T12:48:24Z</time></trkpt><trkpt lat="43.340963891514434" lon="13.265934452632179"><ele>287.0</ele><time>2026-04-26T12:48:25Z</time></trkpt><trkpt lat="43.34101045084836" lon="13.266027356252902"><ele>287.1666666666667</ele><time>2026-04-26T12:48:26Z</time></trkpt><trkpt lat="43.341060069610116" lon="13.266113733779978"><ele>287.33333333333337</ele><time>2026-04-26T12:48:27Z</time></trkpt><trkpt lat="43.34111424536536" lon="13.266186471947197"><ele>287.5</ele><time>2026-04-26T12:48:28Z</time></trkpt><trkpt lat="43.341171411375846" lon="13.266245997208294"><ele>287.6666666666667</ele><time>2026-04-26T12:48:29Z</time></trkpt><trkpt lat="43.341223648495074" lon="13.266297626293825"><ele>287.8333333333333</ele><time>2026-04-26T12:48:30Z</time></trkpt><trkpt lat="43.34130220827482" lon="13.266433504759764"><ele>288.0</ele><time>2026-04-26T12:48:32Z</time></trkpt><trkpt lat="43.341322466195" lon="13.266529133062049"><ele>288.0</ele><time>2026-04-26T12:48:33Z</time></trkpt><trkpt lat="43.34133318720085" lon="13.266632774378618"><ele>288.0</ele><time>2026-04-26T12:48:34Z</time></trkpt><trkpt lat="43.34134403657916" lon="13.26674708937379"><ele>288.0</ele><time>2026-04-26T12:48:35Z</time></trkpt><trkpt lat="43.34135826590964" lon="13.266880339378725"><ele>288.0</ele><time>2026-04-26T12:48:36Z</time></trkpt><trkpt lat="43.3413773802075" lon="13.267032760902772"><ele>288.0</ele><time>2026-04-26T12:48:37Z</time></trkpt><trkpt lat="43.34139813563871" lon="13.267189978811844"><ele>288.75</ele><time>2026-04-26T12:48:38Z</time></trkpt><trkpt lat="43.3414218547124" lon="13.267359874211888"><ele>289.5</ele><time>2026-04-26T12:48:38.999Z</time></trkpt><trkpt lat="43.34144581097346" lon="13.267542379103592"><ele>290.25</ele><time>2026-04-26T12:48:39.999Z</time></trkpt><trkpt lat="43.341458968160296" lon="13.267738391901933"><ele>291.0</ele><time>2026-04-26T12:48:40.999Z</time></trkpt><trkpt lat="43.341434022547304" lon="13.267942982471055"><ele>291.0</ele><time>2026-04-26T12:48:41.999Z</time></trkpt><trkpt lat="43.34143643997169" lon="13.2681512558843"><ele>291.0</ele><time>2026-04-26T12:48:42.999Z</time></trkpt><trkpt lat="43.34143218647695" lon="13.268361844743195"><ele>291.0</ele><time>2026-04-26T12:48:43.999Z</time></trkpt><trkpt lat="43.3414450183948" lon="13.268584226171527"><ele>291.0</ele><time>2026-04-26T12:48:44.999Z</time></trkpt><trkpt lat="43.34146482780837" lon="13.26881059795009"><ele>291.0</ele><time>2026-04-26T12:48:45.999Z</time></trkpt><trkpt lat="43.34148240581308" lon="13.269044014420315"><ele>291.0</ele><time>2026-04-26T12:48:46.999Z</time></trkpt><trkpt lat="43.34149440799378" lon="13.269284907421106"><ele>291.3333333333333</ele><time>2026-04-26T12:48:47.999Z</time></trkpt><trkpt lat="43.34150598387917" lon="13.269529048837937"><ele>291.66666666666663</ele><time>2026-04-26T12:48:48.999Z</time></trkpt><trkpt lat="43.3415197677602" lon="13.26977786374944"><ele>292.0</ele><time>2026-04-26T12:48:49.999Z</time></trkpt><trkpt lat="43.34153480949018" lon="13.270018025223338"><ele>290.66666666666663</ele><time>2026-04-26T12:48:50.999Z</time></trkpt><trkpt lat="43.34154582370191" lon="13.270241201012682"><ele>289.3333333333333</ele><time>2026-04-26T12:48:51.999Z</time></trkpt><trkpt lat="43.34155297365288" lon="13.270452939330044"><ele>288.0</ele><time>2026-04-26T12:48:52.999Z</time></trkpt><trkpt lat="43.34157169581082" lon="13.27064542934566"><ele>287.75</ele><time>2026-04-26T12:48:53.999Z</time></trkpt><trkpt lat="43.341607522238455" lon="13.270823000622359"><ele>287.5</ele><time>2026-04-26T12:48:54.999Z</time></trkpt><trkpt lat="43.34166279504519" lon="13.270986698988558"><ele>287.25</ele><time>2026-04-26T12:48:55.999Z</time></trkpt><trkpt lat="43.3417390255537" lon="13.271139054432803"><ele>287.0</ele><time>2026-04-26T12:48:56.999Z</time></trkpt><trkpt lat="43.34182620602929" lon="13.27128365725073"><ele>286.75</ele><time>2026-04-26T12:48:57.999Z</time></trkpt><trkpt lat="43.341895696599" lon="13.27144905009862"><ele>286.5</ele><time>2026-04-26T12:48:58.999Z</time></trkpt><trkpt lat="43.34198777388766" lon="13.271600789366572"><ele>286.25</ele><time>2026-04-26T12:48:59.999Z</time></trkpt><trkpt lat="43.34208393122375" lon="13.271754724450505"><ele>286.0</ele><time>2026-04-26T12:49:00.999Z</time></trkpt><trkpt lat="43.342183065299274" lon="13.271913425105105"><ele>287.3333333333333</ele><time>2026-04-26T12:49:01.999Z</time></trkpt><trkpt lat="43.34228470630637" lon="13.272076138894368"><ele>288.6666666666667</ele><time>2026-04-26T12:49:02.999Z</time></trkpt><trkpt lat="43.3423873521178" lon="13.272238955688891"><ele>290.0</ele><time>2026-04-26T12:49:03.999Z</time></trkpt><trkpt lat="43.342493147388694" lon="13.272402287444852"><ele>290.0</ele><time>2026-04-26T12:49:04.999Z</time></trkpt><trkpt lat="43.34259948355408" lon="13.272566454456838"><ele>290.0</ele><time>2026-04-26T12:49:05.999Z</time></trkpt><trkpt lat="43.34270390091245" lon="13.272727659069508"><ele>290.0</ele><time>2026-04-26T12:49:06.999Z</time></trkpt><trkpt lat="43.34280892645384" lon="13.272889802689567"><ele>290.0</ele><time>2026-04-26T12:49:07.999Z</time></trkpt><trkpt lat="43.34291965581363" lon="13.27303625098399"><ele>290.0</ele><time>2026-04-26T12:49:08.999Z</time></trkpt><trkpt lat="43.342994421770975" lon="13.273219415250765"><ele>290.0</ele><time>2026-04-26T12:49:09.999Z</time></trkpt><trkpt lat="43.343081074627676" lon="13.273387080400736"><ele>293.5</ele><time>2026-04-26T12:49:10.999Z</time></trkpt><trkpt lat="43.34310862952064" lon="13.273582924265312"><ele>297.0</ele><time>2026-04-26T12:49:11.999Z</time></trkpt><trkpt lat="43.34314233582896" lon="13.273770754403088"><ele>300.5</ele><time>2026-04-26T12:49:12.999Z</time></trkpt><trkpt lat="43.34318792970179" lon="13.273948443542974"><ele>304.0</ele><time>2026-04-26T12:49:13.999Z</time></trkpt><trkpt lat="43.34321092545445" lon="13.274119558279857"><ele>304.0</ele><time>2026-04-26T12:49:14.999Z</time></trkpt><trkpt lat="43.3432446426759" lon="13.27426473923361"><ele>304.0</ele><time>2026-04-26T12:49:15.999Z</time></trkpt><trkpt lat="43.343285516209264" lon="13.274387336099046"><ele>304.0</ele><time>2026-04-26T12:49:16.999Z</time></trkpt><trkpt lat="43.343334358653" lon="13.274495217638718"><ele>304.0</ele><time>2026-04-26T12:49:17.999Z</time></trkpt><trkpt lat="43.343396303169854" lon="13.274600878250162"><ele>304.0</ele><time>2026-04-26T12:49:18.999Z</time></trkpt><trkpt lat="43.34345686714927" lon="13.274713475715684"><ele>303.8333333333333</ele><time>2026-04-26T12:49:19.999Z</time></trkpt><trkpt lat="43.343497968507236" lon="13.27483257244747"><ele>303.66666666666663</ele><time>2026-04-26T12:49:20.999Z</time></trkpt><trkpt lat="43.34355299548538" lon="13.27490779218799"><ele>303.5</ele><time>2026-04-26T12:49:21.999Z</time></trkpt><trkpt lat="43.34363486943312" lon="13.27497640717776"><ele>303.3333333333333</ele><time>2026-04-26T12:49:23.999Z</time></trkpt><trkpt lat="43.343708561612196" lon="13.27497650631576"><ele>303.1666666666667</ele><time>2026-04-26T12:49:31.999Z</time></trkpt><trkpt lat="43.343736561977344" lon="13.275116107805779"><ele>303.0</ele><time>2026-04-26T12:49:34.999Z</time></trkpt><trkpt lat="43.34376797646335" lon="13.275195832095507"><ele>303.0</ele><time>2026-04-26T12:49:37.998Z</time></trkpt><trkpt lat="43.343814637178255" lon="13.275264690548987"><ele>303.0</ele><time>2026-04-26T12:49:40.998Z</time></trkpt><trkpt lat="43.34395128174754" lon="13.275098338103053"><ele>303.0</ele><time>2026-04-26T12:49:42Z</time></trkpt><trkpt lat="43.34399805163348" lon="13.275023490202333"><ele>303.0</ele><time>2026-04-26T12:49:43Z</time></trkpt><trkpt lat="43.34405640838024" lon="13.274936114155553"><ele>303.0</ele><time>2026-04-26T12:49:44Z</time></trkpt><trkpt lat="43.34413579014186" lon="13.274845614282151"><ele>305.25</ele><time>2026-04-26T12:49:45Z</time></trkpt><trkpt lat="43.34422777064513" lon="13.274746648317638"><ele>307.5</ele><time>2026-04-26T12:49:46Z</time></trkpt><trkpt lat="43.344321275812945" lon="13.274638935306525"><ele>309.75</ele><time>2026-04-26T12:49:47Z</time></trkpt><trkpt lat="43.34441613448714" lon="13.274521694900072"><ele>312.0</ele><time>2026-04-26T12:49:48Z</time></trkpt><trkpt lat="43.344519554372646" lon="13.274394202659648"><ele>312.0</ele><time>2026-04-26T12:49:49Z</time></trkpt><trkpt lat="43.34463030005592" lon="13.274259769455009"><ele>312.0</ele><time>2026-04-26T12:49:50Z</time></trkpt><trkpt lat="43.344748197461506" lon="13.274121022567435"><ele>312.0</ele><time>2026-04-26T12:49:51Z</time></trkpt><trkpt lat="43.344871972614406" lon="13.273975446163643"><ele>312.0</ele><time>2026-04-26T12:49:52Z</time></trkpt><trkpt lat="43.344993061758046" lon="13.273828573334061"><ele>312.0</ele><time>2026-04-26T12:49:53Z</time></trkpt><trkpt lat="43.34512059142349" lon="13.273673780608659"><ele>312.0</ele><time>2026-04-26T12:49:54Z</time></trkpt><trkpt lat="43.34525046865543" lon="13.273516665888417"><ele>312.0</ele><time>2026-04-26T12:49:55Z</time></trkpt><trkpt lat="43.34538629868449" lon="13.273357432309044"><ele>312.0</ele><time>2026-04-26T12:49:56Z</time></trkpt><trkpt lat="43.345526528362036" lon="13.273192273415885"><ele>312.0</ele><time>2026-04-26T12:49:57Z</time></trkpt><trkpt lat="43.34567161186893" lon="13.273020806788125"><ele>312.0</ele><time>2026-04-26T12:49:58Z</time></trkpt><trkpt lat="43.34581753834995" lon="13.272848161862619"><ele>312.0</ele><time>2026-04-26T12:49:59Z</time></trkpt><trkpt lat="43.34596618360596" lon="13.272673226856995"><ele>312.0</ele><time>2026-04-26T12:50:00Z</time></trkpt><trkpt lat="43.34607801619335" lon="13.272561255883188"><ele>312.0</ele><time>2026-04-26T12:50:01Z</time></trkpt><trkpt lat="43.346207816773955" lon="13.272375587644131"><ele>312.0</ele><time>2026-04-26T12:50:02Z</time></trkpt><trkpt lat="43.34635198147375" lon="13.27220846838953"><ele>312.0</ele><time>2026-04-26T12:50:03Z</time></trkpt><trkpt lat="43.34649699197187" lon="13.272042162483755"><ele>311.6666666666667</ele><time>2026-04-26T12:50:04Z</time></trkpt><trkpt lat="43.346636406457755" lon="13.271873847025754"><ele>311.33333333333337</ele><time>2026-04-26T12:50:05Z</time></trkpt><trkpt lat="43.34679339426815" lon="13.27171541668317"><ele>311.0</ele><time>2026-04-26T12:50:06Z</time></trkpt><trkpt lat="43.34692824488927" lon="13.271527321345745"><ele>311.0</ele><time>2026-04-26T12:50:07Z</time></trkpt><trkpt lat="43.34707836723783" lon="13.27135701396727"><ele>311.0</ele><time>2026-04-26T12:50:08Z</time></trkpt><trkpt lat="43.34722861805743" lon="13.271179550660301"><ele>311.0</ele><time>2026-04-26T12:50:09Z</time></trkpt><trkpt lat="43.34737109419039" lon="13.271011577068993"><ele>311.0</ele><time>2026-04-26T12:50:10Z</time></trkpt><trkpt lat="43.347515609905194" lon="13.270841015064489"><ele>311.0</ele><time>2026-04-26T12:50:11Z</time></trkpt><trkpt lat="43.34766178223659" lon="13.270674156472207"><ele>311.0</ele><time>2026-04-26T12:50:12Z</time></trkpt><trkpt lat="43.34779994173829" lon="13.27050304772209"><ele>311.6666666666667</ele><time>2026-04-26T12:50:13Z</time></trkpt><trkpt lat="43.34793040913238" lon="13.270320971058208"><ele>312.3333333333333</ele><time>2026-04-26T12:50:14Z</time></trkpt><trkpt lat="43.34803105050738" lon="13.270119724531465"><ele>313.0</ele><time>2026-04-26T12:50:15Z</time></trkpt><trkpt lat="43.34810849199874" lon="13.269913631728226"><ele>313.0</ele><time>2026-04-26T12:50:16Z</time></trkpt><trkpt lat="43.34816389677676" lon="13.269694919453515"><ele>313.0</ele><time>2026-04-26T12:50:17Z</time></trkpt><trkpt lat="43.3482145841684" lon="13.269467064729795"><ele>313.0</ele><time>2026-04-26T12:50:18Z</time></trkpt><trkpt lat="43.348270856448664" lon="13.269248258081726"><ele>313.0</ele><time>2026-04-26T12:50:19Z</time></trkpt><trkpt lat="43.348329014272494" lon="13.269025762642809"><ele>313.0</ele><time>2026-04-26T12:50:20Z</time></trkpt><trkpt lat="43.34838420222212" lon="13.268821356363054"><ele>313.0</ele><time>2026-04-26T12:50:21Z</time></trkpt><trkpt lat="43.34844387331436" lon="13.268626939057185"><ele>313.25</ele><time>2026-04-26T12:50:22Z</time></trkpt><trkpt lat="43.348511975207906" lon="13.268449161921088"><ele>313.5</ele><time>2026-04-26T12:50:23Z</time></trkpt><trkpt lat="43.348624838751086" lon="13.268332789981338"><ele>313.75</ele><time>2026-04-26T12:50:24Z</time></trkpt><trkpt lat="43.34874071112441" lon="13.26826444537424"><ele>314.0</ele><time>2026-04-26T12:50:25Z</time></trkpt><trkpt lat="43.348865321988264" lon="13.268233333971557"><ele>313.0</ele><time>2026-04-26T12:50:26Z</time></trkpt><trkpt lat="43.348995001489754" lon="13.268242515476999"><ele>312.0</ele><time>2026-04-26T12:50:27Z</time></trkpt><trkpt lat="43.34913106856113" lon="13.268242515475295"><ele>311.0</ele><time>2026-04-26T12:50:28Z</time></trkpt><trkpt lat="43.349266347329824" lon="13.26822961621131"><ele>310.0</ele><time>2026-04-26T12:50:29Z</time></trkpt><trkpt lat="43.349410067505" lon="13.2682191905806"><ele>310.0</ele><time>2026-04-26T12:50:30Z</time></trkpt><trkpt lat="43.34955767429748" lon="13.268185879676997"><ele>310.0</ele><time>2026-04-26T12:50:31Z</time></trkpt><trkpt lat="43.34970969767717" lon="13.268133212456966"><ele>310.0</ele><time>2026-04-26T12:50:32Z</time></trkpt><trkpt lat="43.3498626656877" lon="13.268073621512148"><ele>311.66666666666663</ele><time>2026-04-26T12:50:32.999Z</time></trkpt><trkpt lat="43.350017639061434" lon="13.268007520785838"><ele>313.3333333333333</ele><time>2026-04-26T12:50:33.999Z</time></trkpt><trkpt lat="43.35017475099342" lon="13.267942932166157"><ele>315.0</ele><time>2026-04-26T12:50:34.999Z</time></trkpt><trkpt lat="43.35033652137252" lon="13.267876199383679"><ele>315.0</ele><time>2026-04-26T12:50:35.999Z</time></trkpt><trkpt lat="43.35049877801896" lon="13.267806001427852"><ele>315.0</ele><time>2026-04-26T12:50:36.999Z</time></trkpt><trkpt lat="43.35066245426134" lon="13.267734306590366"><ele>315.0</ele><time>2026-04-26T12:50:37.999Z</time></trkpt><trkpt lat="43.35082964188049" lon="13.267666040331736"><ele>315.6666666666667</ele><time>2026-04-26T12:50:38.999Z</time></trkpt><trkpt lat="43.35100240638593" lon="13.26759880769443"><ele>316.33333333333337</ele><time>2026-04-26T12:50:39.999Z</time></trkpt><trkpt lat="43.351175765903676" lon="13.267526921232527"><ele>317.0</ele><time>2026-04-26T12:50:40.999Z</time></trkpt><trkpt lat="43.35133943192325" lon="13.267452072444323"><ele>317.0</ele><time>2026-04-26T12:50:41.999Z</time></trkpt><trkpt lat="43.35149118667424" lon="13.267382388989917"><ele>317.0</ele><time>2026-04-26T12:50:42.999Z</time></trkpt><trkpt lat="43.35163867694535" lon="13.267332647922256"><ele>317.0</ele><time>2026-04-26T12:50:43.999Z</time></trkpt><trkpt lat="43.35178540149166" lon="13.267343917269434"><ele>317.0</ele><time>2026-04-26T12:50:44.999Z</time></trkpt><trkpt lat="43.351939703748705" lon="13.267365772377236"><ele>317.0</ele><time>2026-04-26T12:50:45.999Z</time></trkpt><trkpt lat="43.35207772879461" lon="13.267496760631783"><ele>317.0</ele><time>2026-04-26T12:50:46.999Z</time></trkpt><trkpt lat="43.35223733289687" lon="13.26758453242684"><ele>317.0</ele><time>2026-04-26T12:50:47.999Z</time></trkpt><trkpt lat="43.35238917743999" lon="13.267699878532902"><ele>317.0</ele><time>2026-04-26T12:50:48.999Z</time></trkpt><trkpt lat="43.35254766384653" lon="13.267810255079208"><ele>317.0</ele><time>2026-04-26T12:50:49.999Z</time></trkpt><trkpt lat="43.35271268929061" lon="13.267924314347782"><ele>317.0</ele><time>2026-04-26T12:50:50.999Z</time></trkpt><trkpt lat="43.352881382035896" lon="13.268043250406507"><ele>317.0</ele><time>2026-04-26T12:50:51.999Z</time></trkpt><trkpt lat="43.353048141386935" lon="13.268160261649912"><ele>317.0</ele><time>2026-04-26T12:50:52.999Z</time></trkpt><trkpt lat="43.35322209212037" lon="13.268279681023927"><ele>316.33333333333337</ele><time>2026-04-26T12:50:53.999Z</time></trkpt><trkpt lat="43.35340093986663" lon="13.26840210203205"><ele>315.6666666666667</ele><time>2026-04-26T12:50:54.999Z</time></trkpt><trkpt lat="43.353581966553364" lon="13.268527019955084"><ele>315.0</ele><time>2026-04-26T12:50:55.999Z</time></trkpt><trkpt lat="43.35376930684068" lon="13.26865309935088"><ele>314.6666666666667</ele><time>2026-04-26T12:50:56.999Z</time></trkpt><trkpt lat="43.35396037786704" lon="13.268778539483284"><ele>314.33333333333337</ele><time>2026-04-26T12:50:57.999Z</time></trkpt><trkpt lat="43.354153629875746" lon="13.268909498435558"><ele>314.0</ele><time>2026-04-26T12:50:58.999Z</time></trkpt><trkpt lat="43.35435397027679" lon="13.269046420432401"><ele>313.0</ele><time>2026-04-26T12:50:59.999Z</time></trkpt><trkpt lat="43.354554656249725" lon="13.26918497290696"><ele>312.0</ele><time>2026-04-26T12:51:00.999Z</time></trkpt><trkpt lat="43.354759717455565" lon="13.269324087273455"><ele>312.0</ele><time>2026-04-26T12:51:01.999Z</time></trkpt><trkpt lat="43.35496455812943" lon="13.269465282252723"><ele>312.0</ele><time>2026-04-26T12:51:02.999Z</time></trkpt><trkpt lat="43.35517442841083" lon="13.26960844083804"><ele>312.0</ele><time>2026-04-26T12:51:03.999Z</time></trkpt><trkpt lat="43.35538557842826" lon="13.269754965303056"><ele>312.0</ele><time>2026-04-26T12:51:04.999Z</time></trkpt><trkpt lat="43.35559916740364" lon="13.269903608646228"><ele>310.0</ele><time>2026-04-26T12:51:05.999Z</time></trkpt><trkpt lat="43.35580897638071" lon="13.27004738064408"><ele>308.0</ele><time>2026-04-26T12:51:06.999Z</time></trkpt><trkpt lat="43.35601829435823" lon="13.270191740374118"><ele>308.0</ele><time>2026-04-26T12:51:07.999Z</time></trkpt><trkpt lat="43.35622456834794" lon="13.270334873712619"><ele>308.0</ele><time>2026-04-26T12:51:08.999Z</time></trkpt><trkpt lat="43.35643003995312" lon="13.270476212249026"><ele>306.5</ele><time>2026-04-26T12:51:09.999Z</time></trkpt><trkpt lat="43.35663607076838" lon="13.270616029190437"><ele>305.0</ele><time>2026-04-26T12:51:10.999Z</time></trkpt><trkpt lat="43.356840423664266" lon="13.2707578826208"><ele>305.0</ele><time>2026-04-26T12:51:11.999Z</time></trkpt><trkpt lat="43.357041822014594" lon="13.270895864224274"><ele>305.0</ele><time>2026-04-26T12:51:12.999Z</time></trkpt><trkpt lat="43.357241199299125" lon="13.271033850289129"><ele>305.0</ele><time>2026-04-26T12:51:13.999Z</time></trkpt><trkpt lat="43.357440962542384" lon="13.271169853121982"><ele>304.0</ele><time>2026-04-26T12:51:14.999Z</time></trkpt><trkpt lat="43.3576400821721" lon="13.271309087209746"><ele>303.0</ele><time>2026-04-26T12:51:15.999Z</time></trkpt><trkpt lat="43.35783903360771" lon="13.271444758035301"><ele>302.0</ele><time>2026-04-26T12:51:16.999Z</time></trkpt><trkpt lat="43.35803295608847" lon="13.27157626550077"><ele>301.0</ele><time>2026-04-26T12:51:17.999Z</time></trkpt><trkpt lat="43.358217218093436" lon="13.27170435051032"><ele>300.0</ele><time>2026-04-26T12:51:18.999Z</time></trkpt><trkpt lat="43.358392463822646" lon="13.271829817663184"><ele>299.0</ele><time>2026-04-26T12:51:19.999Z</time></trkpt><trkpt lat="43.35856383331245" lon="13.271950718964073"><ele>299.0</ele><time>2026-04-26T12:51:20.999Z</time></trkpt><trkpt lat="43.358727201683145" lon="13.272059684334344"><ele>299.0</ele><time>2026-04-26T12:51:21.999Z</time></trkpt><trkpt lat="43.35888405215369" lon="13.272144710281756"><ele>299.0</ele><time>2026-04-26T12:51:22.999Z</time></trkpt><trkpt lat="43.359038363144776" lon="13.272198576556347"><ele>299.0</ele><time>2026-04-26T12:51:23.999Z</time></trkpt><trkpt lat="43.35918815228319" lon="13.272214682901755"><ele>299.0</ele><time>2026-04-26T12:51:24.999Z</time></trkpt><trkpt lat="43.35932989860506" lon="13.272198174046993"><ele>299.0</ele><time>2026-04-26T12:51:25.999Z</time></trkpt><trkpt lat="43.359457783055404" lon="13.27216691688206"><ele>299.0</ele><time>2026-04-26T12:51:26.999Z</time></trkpt><trkpt lat="43.359565467122835" lon="13.27213348459179"><ele>299.0</ele><time>2026-04-26T12:51:27.999Z</time></trkpt><trkpt lat="43.359650598951625" lon="13.272100588489685"><ele>299.0</ele><time>2026-04-26T12:51:28.999Z</time></trkpt><trkpt lat="43.35974158918881" lon="13.272105249405243"><ele>299.0</ele><time>2026-04-26T12:51:30.998Z</time></trkpt><trkpt lat="43.359819501856904" lon="13.272198250030277"><ele>299.0</ele><time>2026-04-26T12:51:32.998Z</time></trkpt><trkpt lat="43.35985987297087" lon="13.272282451013908"><ele>299.0</ele><time>2026-04-26T12:51:33.998Z</time></trkpt><trkpt lat="43.35990129348748" lon="13.272375004557096"><ele>299.0</ele><time>2026-04-26T12:51:34.998Z</time></trkpt><trkpt lat="43.35994990910335" lon="13.272469791158304"><ele>298.2</ele><time>2026-04-26T12:51:35.998Z</time></trkpt><trkpt lat="43.36000591622587" lon="13.272572582897878"><ele>297.4</ele><time>2026-04-26T12:51:36.998Z</time></trkpt><trkpt lat="43.36007041749698" lon="13.272691211847084"><ele>296.6</ele><time>2026-04-26T12:51:37.998Z</time></trkpt><trkpt lat="43.360141385721654" lon="13.272823335719279"><ele>295.8</ele><time>2026-04-26T12:51:38.998Z</time></trkpt><trkpt lat="43.360207727194265" lon="13.272953693564842"><ele>295.0</ele><time>2026-04-26T12:51:39.998Z</time></trkpt><trkpt lat="43.36027459311473" lon="13.27309343605987"><ele>295.0</ele><time>2026-04-26T12:51:40.998Z</time></trkpt><trkpt lat="43.360327423076825" lon="13.273250931093576"><ele>295.0</ele><time>2026-04-26T12:51:41.998Z</time></trkpt><trkpt lat="43.36038262041948" lon="13.273413415371156"><ele>295.0</ele><time>2026-04-26T12:51:42.998Z</time></trkpt><trkpt lat="43.360431338395095" lon="13.2735892170465"><ele>295.0</ele><time>2026-04-26T12:51:43.998Z</time></trkpt><trkpt lat="43.36049418700659" lon="13.273770601971064"><ele>291.0</ele><time>2026-04-26T12:51:44.998Z</time></trkpt><trkpt lat="43.36054149165729" lon="13.27396470839024"><ele>287.0</ele><time>2026-04-26T12:51:45.998Z</time></trkpt><trkpt lat="43.360594541236225" lon="13.274161872685477"><ele>283.0</ele><time>2026-04-26T12:51:47Z</time></trkpt><trkpt lat="43.36065033319693" lon="13.274360553613782"><ele>283.0</ele><time>2026-04-26T12:51:48Z</time></trkpt><trkpt lat="43.36070730919759" lon="13.274553088273938"><ele>283.0</ele><time>2026-04-26T12:51:49Z</time></trkpt><trkpt lat="43.3607656416029" lon="13.274734243259058"><ele>283.0</ele><time>2026-04-26T12:51:50Z</time></trkpt><trkpt lat="43.36082787156345" lon="13.274885971889901"><ele>283.0</ele><time>2026-04-26T12:51:51Z</time></trkpt><trkpt lat="43.36089552267225" lon="13.27502377763714"><ele>283.5</ele><time>2026-04-26T12:51:52Z</time></trkpt><trkpt lat="43.36096713974307" lon="13.27515949144856"><ele>284.0</ele><time>2026-04-26T12:51:53Z</time></trkpt><trkpt lat="43.3610329389963" lon="13.275312918719331"><ele>284.5</ele><time>2026-04-26T12:51:54Z</time></trkpt><trkpt lat="43.361125029469385" lon="13.275444616918202"><ele>285.0</ele><time>2026-04-26T12:51:55Z</time></trkpt><trkpt lat="43.361203159781994" lon="13.275594993768527"><ele>285.0</ele><time>2026-04-26T12:51:56Z</time></trkpt><trkpt lat="43.36129500214825" lon="13.275739245688316"><ele>285.0</ele><time>2026-04-26T12:51:57Z</time></trkpt><trkpt lat="43.361384830818096" lon="13.275890827723783"><ele>285.0</ele><time>2026-04-26T12:51:58Z</time></trkpt><trkpt lat="43.361478205226106" lon="13.27604451674039"><ele>285.0</ele><time>2026-04-26T12:51:59Z</time></trkpt><trkpt lat="43.36157675425666" lon="13.276195946387245"><ele>282.6666666666667</ele><time>2026-04-26T12:52:00Z</time></trkpt><trkpt lat="43.36167999548818" lon="13.276349878075562"><ele>280.33333333333337</ele><time>2026-04-26T12:52:01Z</time></trkpt><trkpt lat="43.3617838850074" lon="13.276506301815832"><ele>278.0</ele><time>2026-04-26T12:52:02Z</time></trkpt><trkpt lat="43.36188550800159" lon="13.276665683906744"><ele>278.0</ele><time>2026-04-26T12:52:03Z</time></trkpt><trkpt lat="43.36198418510315" lon="13.276830996764133"><ele>278.0</ele><time>2026-04-26T12:52:04Z</time></trkpt><trkpt lat="43.36207818385564" lon="13.27699986544582"><ele>278.0</ele><time>2026-04-26T12:52:05Z</time></trkpt><trkpt lat="43.36217718969847" lon="13.27716794939873"><ele>275.33333333333337</ele><time>2026-04-26T12:52:06Z</time></trkpt><trkpt lat="43.36227834703048" lon="13.277341497247566"><ele>272.6666666666667</ele><time>2026-04-26T12:52:07Z</time></trkpt><trkpt lat="43.36237988350546" lon="13.277513852545724"><ele>270.0</ele><time>2026-04-26T12:52:08Z</time></trkpt><trkpt lat="43.362481586542664" lon="13.277684205406985"><ele>270.0</ele><time>2026-04-26T12:52:09Z</time></trkpt><trkpt lat="43.36258526284529" lon="13.277857503706395"><ele>270.0</ele><time>2026-04-26T12:52:10Z</time></trkpt><trkpt lat="43.36268999309957" lon="13.278028154732914"><ele>270.0</ele><time>2026-04-26T12:52:11Z</time></trkpt><trkpt lat="43.362794372707256" lon="13.27820335859731"><ele>270.0</ele><time>2026-04-26T12:52:12Z</time></trkpt><trkpt lat="43.36289624984327" lon="13.278377326952183"><ele>270.0</ele><time>2026-04-26T12:52:13Z</time></trkpt><trkpt lat="43.36299711455009" lon="13.278542564950689"><ele>270.0</ele><time>2026-04-26T12:52:14Z</time></trkpt><trkpt lat="43.363104446631276" lon="13.278700068816464"><ele>267.0</ele><time>2026-04-26T12:52:15Z</time></trkpt><trkpt lat="43.36322505047337" lon="13.278839025427995"><ele>264.0</ele><time>2026-04-26T12:52:16Z</time></trkpt><trkpt lat="43.3633510698696" lon="13.27896829888614"><ele>261.0</ele><time>2026-04-26T12:52:17Z</time></trkpt><trkpt lat="43.36347295260748" lon="13.279110408384748"><ele>261.0</ele><time>2026-04-26T12:52:18Z</time></trkpt><trkpt lat="43.36361063339367" lon="13.279217013450946"><ele>261.0</ele><time>2026-04-26T12:52:19Z</time></trkpt><trkpt lat="43.36375781101902" lon="13.279296866096859"><ele>261.0</ele><time>2026-04-26T12:52:20Z</time></trkpt><trkpt lat="43.36387740250268" lon="13.279442559723366"><ele>258.3333333333333</ele><time>2026-04-26T12:52:21Z</time></trkpt><trkpt lat="43.363997051319686" lon="13.279591046193609"><ele>255.66666666666666</ele><time>2026-04-26T12:52:22Z</time></trkpt><trkpt lat="43.364126577122505" lon="13.27972781642634"><ele>253.0</ele><time>2026-04-26T12:52:23Z</time></trkpt><trkpt lat="43.3642747221492" lon="13.27983292571987"><ele>253.0</ele><time>2026-04-26T12:52:24Z</time></trkpt><trkpt lat="43.36442016588834" lon="13.279952960703435"><ele>253.0</ele><time>2026-04-26T12:52:25Z</time></trkpt><trkpt lat="43.36456060954506" lon="13.280075245597828"><ele>253.0</ele><time>2026-04-26T12:52:26Z</time></trkpt><trkpt lat="43.36469821836526" lon="13.280201389803542"><ele>251.66666666666666</ele><time>2026-04-26T12:52:26.999Z</time></trkpt><trkpt lat="43.36483563710911" lon="13.280319959299417"><ele>250.33333333333331</ele><time>2026-04-26T12:52:27.999Z</time></trkpt><trkpt lat="43.36496507779122" lon="13.280451782775947"><ele>249.0</ele><time>2026-04-26T12:52:28.999Z</time></trkpt><trkpt lat="43.3650966297189" lon="13.280561819575484"><ele>248.33333333333331</ele><time>2026-04-26T12:52:29.999Z</time></trkpt><trkpt lat="43.365228375079255" lon="13.280669915141035"><ele>247.66666666666666</ele><time>2026-04-26T12:52:30.999Z</time></trkpt><trkpt lat="43.36536185140127" lon="13.280778644678426"><ele>247.0</ele><time>2026-04-26T12:52:31.999Z</time></trkpt><trkpt lat="43.36549640293736" lon="13.28088676113089"><ele>246.0</ele><time>2026-04-26T12:52:32.999Z</time></trkpt><trkpt lat="43.36563513708999" lon="13.280995615880757"><ele>245.0</ele><time>2026-04-26T12:52:33.999Z</time></trkpt><trkpt lat="43.365777306522965" lon="13.281104459603025"><ele>244.0</ele><time>2026-04-26T12:52:34.999Z</time></trkpt><trkpt lat="43.365922679447415" lon="13.281215754353923"><ele>244.0</ele><time>2026-04-26T12:52:35.999Z</time></trkpt><trkpt lat="43.366070163258584" lon="13.281328329939866"><ele>244.0</ele><time>2026-04-26T12:52:36.999Z</time></trkpt><trkpt lat="43.36621782104444" lon="13.28144031253277"><ele>244.0</ele><time>2026-04-26T12:52:37.999Z</time></trkpt><trkpt lat="43.36636486613807" lon="13.28154853203752"><ele>243.0</ele><time>2026-04-26T12:52:38.999Z</time></trkpt><trkpt lat="43.36651041606108" lon="13.281649422973738"><ele>242.0</ele><time>2026-04-26T12:52:39.999Z</time></trkpt><trkpt lat="43.36666271029695" lon="13.281729664691355"><ele>241.0</ele><time>2026-04-26T12:52:40.999Z</time></trkpt><trkpt lat="43.36680919186595" lon="13.281827730709125"><ele>241.0</ele><time>2026-04-26T12:52:41.999Z</time></trkpt><trkpt lat="43.3669603254275" lon="13.281918151613404"><ele>241.0</ele><time>2026-04-26T12:52:42.999Z</time></trkpt><trkpt lat="43.36711197105228" lon="13.282005880980625"><ele>241.0</ele><time>2026-04-26T12:52:43.999Z</time></trkpt><trkpt lat="43.36726265916073" lon="13.28209773227106"><ele>241.33333333333331</ele><time>2026-04-26T12:52:44.999Z</time></trkpt><trkpt lat="43.367395229830564" lon="13.282238204523876"><ele>241.66666666666669</ele><time>2026-04-26T12:52:45.999Z</time></trkpt><trkpt lat="43.367525510415554" lon="13.282380445362776"><ele>242.0</ele><time>2026-04-26T12:52:46.999Z</time></trkpt><trkpt lat="43.36765490387294" lon="13.282535399742663"><ele>242.0</ele><time>2026-04-26T12:52:47.999Z</time></trkpt><trkpt lat="43.3677875019335" lon="13.282688598272609"><ele>242.0</ele><time>2026-04-26T12:52:48.999Z</time></trkpt><trkpt lat="43.36790659054556" lon="13.282868613451013"><ele>242.0</ele><time>2026-04-26T12:52:49.999Z</time></trkpt><trkpt lat="43.36803149967026" lon="13.283048779811892"><ele>240.0</ele><time>2026-04-26T12:52:50.999Z</time></trkpt><trkpt lat="43.368155081379996" lon="13.28323288371285"><ele>238.0</ele><time>2026-04-26T12:52:51.999Z</time></trkpt><trkpt lat="43.368265849361606" lon="13.283407608905007"><ele>236.0</ele><time>2026-04-26T12:52:52.999Z</time></trkpt><trkpt lat="43.368362708499426" lon="13.283566192071234"><ele>236.0</ele><time>2026-04-26T12:52:53.999Z</time></trkpt><trkpt lat="43.36845141016818" lon="13.2837161421551"><ele>236.0</ele><time>2026-04-26T12:52:54.999Z</time></trkpt><trkpt lat="43.36853307964213" lon="13.28385375711349"><ele>236.0</ele><time>2026-04-26T12:52:55.999Z</time></trkpt><trkpt lat="43.36860307764523" lon="13.28400286848644"><ele>236.0</ele><time>2026-04-26T12:52:56.999Z</time></trkpt><trkpt lat="43.368688612205865" lon="13.28413487215216"><ele>235.75</ele><time>2026-04-26T12:52:57.999Z</time></trkpt><trkpt lat="43.368776006125785" lon="13.284258309007985"><ele>235.5</ele><time>2026-04-26T12:52:58.999Z</time></trkpt><trkpt lat="43.36886909265755" lon="13.28437332665476"><ele>235.25</ele><time>2026-04-26T12:52:59.999Z</time></trkpt><trkpt lat="43.36896046460776" lon="13.284482711511298"><ele>235.0</ele><time>2026-04-26T12:53:00.999Z</time></trkpt><trkpt lat="43.36905674712346" lon="13.284577735070625"><ele>235.0</ele><time>2026-04-26T12:53:01.999Z</time></trkpt><trkpt lat="43.36913522447746" lon="13.2846822516471"><ele>235.0</ele><time>2026-04-26T12:53:02.999Z</time></trkpt><trkpt lat="43.369213913333574" lon="13.284778207039547"><ele>235.0</ele><time>2026-04-26T12:53:03.999Z</time></trkpt><trkpt lat="43.36928793426394" lon="13.284869512916655"><ele>235.0</ele><time>2026-04-26T12:53:04.999Z</time></trkpt><trkpt lat="43.369351072976244" lon="13.284949681655101"><ele>235.0</ele><time>2026-04-26T12:53:05.999Z</time></trkpt><trkpt lat="43.36939748540756" lon="13.285036088175374"><ele>234.6</ele><time>2026-04-26T12:53:06.999Z</time></trkpt><trkpt lat="43.36947750057402" lon="13.285147312310164"><ele>234.2</ele><time>2026-04-26T12:53:08.999Z</time></trkpt><trkpt lat="43.36959043804651" lon="13.285106323025103"><ele>233.8</ele><time>2026-04-26T12:53:09.999Z</time></trkpt><trkpt lat="43.36966502005986" lon="13.285061640522276"><ele>233.4</ele><time>2026-04-26T12:53:10.999Z</time></trkpt><trkpt lat="43.36974781841683" lon="13.285010940981302"><ele>233.0</ele><time>2026-04-26T12:53:11.999Z</time></trkpt><trkpt lat="43.369828885712195" lon="13.284923101785704"><ele>232.5</ele><time>2026-04-26T12:53:12.999Z</time></trkpt><trkpt lat="43.36990698282606" lon="13.284802895404694"><ele>232.0</ele><time>2026-04-26T12:53:13.999Z</time></trkpt><trkpt lat="43.370002950790024" lon="13.284692885786026"><ele>231.5</ele><time>2026-04-26T12:53:14.999Z</time></trkpt><trkpt lat="43.37009281028993" lon="13.284559612784763"><ele>231.0</ele><time>2026-04-26T12:53:15.999Z</time></trkpt><trkpt lat="43.37019082121531" lon="13.284412563829687"><ele>230.66666666666669</ele><time>2026-04-26T12:53:16.999Z</time></trkpt><trkpt lat="43.370295881674465" lon="13.284254815527314"><ele>230.33333333333334</ele><time>2026-04-26T12:53:17.999Z</time></trkpt><trkpt lat="43.370392475576814" lon="13.284078030226178"><ele>230.0</ele><time>2026-04-26T12:53:18.999Z</time></trkpt><trkpt lat="43.370503493281355" lon="13.283926069063527"><ele>229.33333333333334</ele><time>2026-04-26T12:53:19.999Z</time></trkpt><trkpt lat="43.370598693445444" lon="13.283749908176825"><ele>228.66666666666669</ele><time>2026-04-26T12:53:20.999Z</time></trkpt><trkpt lat="43.37071594761491" lon="13.283585391568524"><ele>228.0</ele><time>2026-04-26T12:53:21.999Z</time></trkpt><trkpt lat="43.370818377141575" lon="13.283405551548988"><ele>228.0</ele><time>2026-04-26T12:53:22.999Z</time></trkpt><trkpt lat="43.37091383842087" lon="13.283224217463054"><ele>228.0</ele><time>2026-04-26T12:53:23.999Z</time></trkpt><trkpt lat="43.370997883368254" lon="13.28306170007525"><ele>228.0</ele><time>2026-04-26T12:53:24.999Z</time></trkpt><trkpt lat="43.3710738340053" lon="13.282917486608227"><ele>228.0</ele><time>2026-04-26T12:53:25.998Z</time></trkpt><trkpt lat="43.37114801164431" lon="13.28278343773829"><ele>228.0</ele><time>2026-04-26T12:53:26.998Z</time></trkpt><trkpt lat="43.37122555013875" lon="13.282670331096648"><ele>228.0</ele><time>2026-04-26T12:53:27.998Z</time></trkpt><trkpt lat="43.37130567662241" lon="13.282571941802413"><ele>228.0</ele><time>2026-04-26T12:53:28.998Z</time></trkpt><trkpt lat="43.37138918196858" lon="13.28247028589798"><ele>228.0</ele><time>2026-04-26T12:53:29.998Z</time></trkpt><trkpt lat="43.37147259294592" lon="13.28236981403528"><ele>228.0</ele><time>2026-04-26T12:53:30.998Z</time></trkpt><trkpt lat="43.37155008811131" lon="13.282257882222625"><ele>227.25</ele><time>2026-04-26T12:53:31.998Z</time></trkpt><trkpt lat="43.37163347587484" lon="13.282143976866855"><ele>226.5</ele><time>2026-04-26T12:53:32.998Z</time></trkpt><trkpt lat="43.371723486501836" lon="13.282032941865692"><ele>225.75</ele><time>2026-04-26T12:53:33.998Z</time></trkpt><trkpt lat="43.37177755870767" lon="13.281888603525061"><ele>225.0</ele><time>2026-04-26T12:53:34.998Z</time></trkpt><trkpt lat="43.371844049910514" lon="13.281769476159239"><ele>225.0</ele><time>2026-04-26T12:53:35.998Z</time></trkpt><trkpt lat="43.371894302189766" lon="13.281642561608527"><ele>225.0</ele><time>2026-04-26T12:53:36.998Z</time></trkpt><trkpt lat="43.371939319309895" lon="13.281521286302535"><ele>225.0</ele><time>2026-04-26T12:53:37.998Z</time></trkpt><trkpt lat="43.37198183937898" lon="13.281404608971098"><ele>225.0</ele><time>2026-04-26T12:53:38.998Z</time></trkpt><trkpt lat="43.3720208744606" lon="13.281295038593383"><ele>225.0</ele><time>2026-04-26T12:53:39.998Z</time></trkpt><trkpt lat="43.37205965583982" lon="13.28118618007532"><ele>224.8</ele><time>2026-04-26T12:53:40.998Z</time></trkpt><trkpt lat="43.37209772557031" lon="13.28107931945604"><ele>224.6</ele><time>2026-04-26T12:53:41.998Z</time></trkpt><trkpt lat="43.37213622972848" lon="13.2809712391691"><ele>224.39999999999998</ele><time>2026-04-26T12:53:42.998Z</time></trkpt><trkpt lat="43.372176088065466" lon="13.280859357701768"><ele>224.2</ele><time>2026-04-26T12:53:43.998Z</time></trkpt><trkpt lat="43.37221603250248" lon="13.280747234609"><ele>224.0</ele><time>2026-04-26T12:53:44.998Z</time></trkpt><trkpt lat="43.37225820146599" lon="13.280628867293807"><ele>221.79999999999998</ele><time>2026-04-26T12:53:45.998Z</time></trkpt><trkpt lat="43.37230325650838" lon="13.280502350591965"><ele>219.59999999999997</ele><time>2026-04-26T12:53:46.998Z</time></trkpt><trkpt lat="43.372348508812195" lon="13.280374166157246"><ele>217.4</ele><time>2026-04-26T12:53:47.998Z</time></trkpt><trkpt lat="43.37239114729216" lon="13.280253386180226"><ele>215.2</ele><time>2026-04-26T12:53:48.998Z</time></trkpt><trkpt lat="43.37243416099098" lon="13.280131542787542"><ele>213.0</ele><time>2026-04-26T12:53:49.998Z</time></trkpt><trkpt lat="43.372478485948115" lon="13.280005011744695"><ele>213.0</ele><time>2026-04-26T12:53:50.998Z</time></trkpt><trkpt lat="43.37252340924985" lon="13.279876245351028"><ele>213.0</ele><time>2026-04-26T12:53:51.998Z</time></trkpt><trkpt lat="43.37256832988111" lon="13.279747486086553"><ele>213.0</ele><time>2026-04-26T12:53:53Z</time></trkpt><trkpt lat="43.37261151133883" lon="13.279623712414505"><ele>213.0</ele><time>2026-04-26T12:53:54Z</time></trkpt><trkpt lat="43.37265143571445" lon="13.279509237085081"><ele>213.0</ele><time>2026-04-26T12:53:55Z</time></trkpt><trkpt lat="43.372688468705284" lon="13.279402393567379"><ele>212.66666666666666</ele><time>2026-04-26T12:53:56Z</time></trkpt><trkpt lat="43.372722510924206" lon="13.279304178613089"><ele>212.33333333333331</ele><time>2026-04-26T12:53:57Z</time></trkpt><trkpt lat="43.37275406199705" lon="13.279213150966026"><ele>212.0</ele><time>2026-04-26T12:53:58Z</time></trkpt><trkpt lat="43.37278192719771" lon="13.279132757021717"><ele>211.66666666666666</ele><time>2026-04-26T12:53:59Z</time></trkpt><trkpt lat="43.372821760016215" lon="13.279017835960989"><ele>211.33333333333331</ele><time>2026-04-26T12:54:01Z</time></trkpt><trkpt lat="43.37284894859841" lon="13.278939394595989"><ele>211.0</ele><time>2026-04-26T12:54:05Z</time></trkpt><trkpt lat="43.37289090043846" lon="13.278818012811065"><ele>210.83333333333331</ele><time>2026-04-26T12:54:08Z</time></trkpt><trkpt lat="43.372920857163095" lon="13.27873124821406"><ele>210.66666666666666</ele><time>2026-04-26T12:54:09Z</time></trkpt><trkpt lat="43.37295462871487" lon="13.278633434516442"><ele>210.5</ele><time>2026-04-26T12:54:10Z</time></trkpt><trkpt lat="43.3729910669467" lon="13.278527897446107"><ele>210.33333333333331</ele><time>2026-04-26T12:54:11Z</time></trkpt><trkpt lat="43.37303380418713" lon="13.278404116324626"><ele>210.16666666666666</ele><time>2026-04-26T12:54:12Z</time></trkpt><trkpt lat="43.37307994760338" lon="13.278270469447884"><ele>210.0</ele><time>2026-04-26T12:54:13Z</time></trkpt><trkpt lat="43.37312956770148" lon="13.278127012968168"><ele>209.0</ele><time>2026-04-26T12:54:14Z</time></trkpt><trkpt lat="43.373177744622815" lon="13.277990903257738"><ele>208.0</ele><time>2026-04-26T12:54:15Z</time></trkpt><trkpt lat="43.37321846739186" lon="13.277872189100137"><ele>207.0</ele><time>2026-04-26T12:54:16Z</time></trkpt><trkpt lat="43.37325830396044" lon="13.277767862854795"><ele>206.0</ele><time>2026-04-26T12:54:17Z</time></trkpt><trkpt lat="43.37329423977837" lon="13.277671625745894"><ele>205.0</ele><time>2026-04-26T12:54:18Z</time></trkpt><trkpt lat="43.37336005760645" lon="13.27761272487602"><ele>204.0</ele><time>2026-04-26T12:54:19Z</time></trkpt><trkpt lat="43.3734352524438" lon="13.277609341585288"><ele>204.0</ele><time>2026-04-26T12:54:20Z</time></trkpt><trkpt lat="43.37351022386402" lon="13.277579976465576"><ele>204.0</ele><time>2026-04-26T12:54:21Z</time></trkpt><trkpt lat="43.37360556704367" lon="13.27759918181047"><ele>204.0</ele><time>2026-04-26T12:54:22Z</time></trkpt><trkpt lat="43.3737119656429" lon="13.277624570293323"><ele>204.0</ele><time>2026-04-26T12:54:23Z</time></trkpt><trkpt lat="43.373834152639944" lon="13.277654774990234"><ele>204.0</ele><time>2026-04-26T12:54:24Z</time></trkpt><trkpt lat="43.37396664883731" lon="13.277681881675347"><ele>203.33333333333331</ele><time>2026-04-26T12:54:25Z</time></trkpt><trkpt lat="43.37410692294553" lon="13.277709421880552"><ele>202.66666666666666</ele><time>2026-04-26T12:54:26Z</time></trkpt><trkpt lat="43.37426073006684" lon="13.277734063446262"><ele>202.0</ele><time>2026-04-26T12:54:27Z</time></trkpt><trkpt lat="43.37441759227201" lon="13.27775620976822"><ele>202.0</ele><time>2026-04-26T12:54:28Z</time></trkpt><trkpt lat="43.37457328487073" lon="13.277775919658943"><ele>202.0</ele><time>2026-04-26T12:54:29Z</time></trkpt><trkpt lat="43.37472725539617" lon="13.277782472424475"><ele>202.0</ele><time>2026-04-26T12:54:30Z</time></trkpt><trkpt lat="43.37488322380902" lon="13.277781810177236"><ele>203.33333333333331</ele><time>2026-04-26T12:54:31Z</time></trkpt><trkpt lat="43.37503899742803" lon="13.277780791094443"><ele>204.66666666666669</ele><time>2026-04-26T12:54:32Z</time></trkpt><trkpt lat="43.37519562211792" lon="13.277783980944998"><ele>206.0</ele><time>2026-04-26T12:54:33Z</time></trkpt><trkpt lat="43.37534696606736" lon="13.277787382257987"><ele>206.0</ele><time>2026-04-26T12:54:33.999Z</time></trkpt><trkpt lat="43.37549844745505" lon="13.277788567066198"><ele>206.0</ele><time>2026-04-26T12:54:34.999Z</time></trkpt><trkpt lat="43.37563320907788" lon="13.277790014813718"><ele>206.0</ele><time>2026-04-26T12:54:35.999Z</time></trkpt><trkpt lat="43.375750615308434" lon="13.27780417102297"><ele>206.0</ele><time>2026-04-26T12:54:36.999Z</time></trkpt><trkpt lat="43.37585135893439" lon="13.277836372174528"><ele>206.5</ele><time>2026-04-26T12:54:37.999Z</time></trkpt><trkpt lat="43.37594428522992" lon="13.27788998470474"><ele>207.0</ele><time>2026-04-26T12:54:38.999Z</time></trkpt><trkpt lat="43.376037617368674" lon="13.27796817663856"><ele>207.5</ele><time>2026-04-26T12:54:39.999Z</time></trkpt><trkpt lat="43.37612894587996" lon="13.278070541976986"><ele>208.0</ele><time>2026-04-26T12:54:40.999Z</time></trkpt><trkpt lat="43.376220349282356" lon="13.278188071596633"><ele>208.0</ele><time>2026-04-26T12:54:41.999Z</time></trkpt><trkpt lat="43.37631170565068" lon="13.278317701952622"><ele>208.0</ele><time>2026-04-26T12:54:42.999Z</time></trkpt><trkpt lat="43.37640117660647" lon="13.278450046310494"><ele>208.0</ele><time>2026-04-26T12:54:43.999Z</time></trkpt><trkpt lat="43.37649395333376" lon="13.278587552053072"><ele>208.0</ele><time>2026-04-26T12:54:44.999Z</time></trkpt><trkpt lat="43.37658680869101" lon="13.278726044109684"><ele>208.0</ele><time>2026-04-26T12:54:45.999Z</time></trkpt><trkpt lat="43.37668576447018" lon="13.278866167396554"><ele>208.0</ele><time>2026-04-26T12:54:46.999Z</time></trkpt><trkpt lat="43.37678614809252" lon="13.279009074499564"><ele>208.0</ele><time>2026-04-26T12:54:47.999Z</time></trkpt><trkpt lat="43.376887252124945" lon="13.27915204054082"><ele>208.0</ele><time>2026-04-26T12:54:48.999Z</time></trkpt><trkpt lat="43.37698797797848" lon="13.27929481583717"><ele>208.0</ele><time>2026-04-26T12:54:49.999Z</time></trkpt><trkpt lat="43.37708881207132" lon="13.279441008580337"><ele>208.0</ele><time>2026-04-26T12:54:50.999Z</time></trkpt><trkpt lat="43.37718996653578" lon="13.279589519403165"><ele>208.0</ele><time>2026-04-26T12:54:51.999Z</time></trkpt><trkpt lat="43.3772928828172" lon="13.279747589323122"><ele>208.0</ele><time>2026-04-26T12:54:52.999Z</time></trkpt><trkpt lat="43.377395140351105" lon="13.279913359823778"><ele>208.0</ele><time>2026-04-26T12:54:53.999Z</time></trkpt><trkpt lat="43.377497349215695" lon="13.280082631477239"><ele>208.0</ele><time>2026-04-26T12:54:54.999Z</time></trkpt><trkpt lat="43.377600637144496" lon="13.28025284269506"><ele>208.0</ele><time>2026-04-26T12:54:55.999Z</time></trkpt><trkpt lat="43.37770329936032" lon="13.280427600744744"><ele>208.33333333333331</ele><time>2026-04-26T12:54:56.999Z</time></trkpt><trkpt lat="43.37780852206179" lon="13.280602932199997"><ele>208.66666666666669</ele><time>2026-04-26T12:54:57.999Z</time></trkpt><trkpt lat="43.37791579401809" lon="13.28077429125529"><ele>209.0</ele><time>2026-04-26T12:54:58.999Z</time></trkpt><trkpt lat="43.37802528012848" lon="13.280939788912143"><ele>207.66666666666669</ele><time>2026-04-26T12:54:59.999Z</time></trkpt><trkpt lat="43.378134444191645" lon="13.281104478981371"><ele>206.33333333333331</ele><time>2026-04-26T12:55:00.999Z</time></trkpt><trkpt lat="43.37824263163845" lon="13.281269745540174"><ele>205.0</ele><time>2026-04-26T12:55:01.999Z</time></trkpt><trkpt lat="43.37834838913408" lon="13.281433428165812"><ele>205.0</ele><time>2026-04-26T12:55:02.999Z</time></trkpt><trkpt lat="43.37845695626704" lon="13.281595839608135"><ele>205.0</ele><time>2026-04-26T12:55:03.999Z</time></trkpt><trkpt lat="43.37856800862823" lon="13.28175680581584"><ele>205.0</ele><time>2026-04-26T12:55:04.999Z</time></trkpt><trkpt lat="43.37868052094993" lon="13.281911707147975"><ele>205.0</ele><time>2026-04-26T12:55:05.999Z</time></trkpt><trkpt lat="43.378793995244976" lon="13.282062582088578"><ele>205.0</ele><time>2026-04-26T12:55:06.999Z</time></trkpt><trkpt lat="43.37890951823845" lon="13.28220880029298"><ele>205.0</ele><time>2026-04-26T12:55:07.999Z</time></trkpt><trkpt lat="43.379024269752215" lon="13.282348993080406"><ele>205.0</ele><time>2026-04-26T12:55:08.999Z</time></trkpt><trkpt lat="43.379137123422154" lon="13.282481769881688"><ele>205.0</ele><time>2026-04-26T12:55:09.999Z</time></trkpt><trkpt lat="43.37924935815228" lon="13.282606631775831"><ele>205.0</ele><time>2026-04-26T12:55:10.999Z</time></trkpt><trkpt lat="43.37935467488799" lon="13.282728204746716"><ele>205.0</ele><time>2026-04-26T12:55:11.999Z</time></trkpt><trkpt lat="43.37945325542087" lon="13.282849182735827"><ele>205.0</ele><time>2026-04-26T12:55:12.999Z</time></trkpt><trkpt lat="43.379554493528445" lon="13.28296461704142"><ele>205.0</ele><time>2026-04-26T12:55:13.999Z</time></trkpt><trkpt lat="43.37968061250804" lon="13.283042840304592"><ele>205.0</ele><time>2026-04-26T12:55:14.999Z</time></trkpt><trkpt lat="43.379801087734684" lon="13.283131010609141"><ele>205.0</ele><time>2026-04-26T12:55:15.999Z</time></trkpt><trkpt lat="43.3799237901538" lon="13.283214734949292"><ele>204.75</ele><time>2026-04-26T12:55:16.999Z</time></trkpt><trkpt lat="43.38004399257704" lon="13.283291101900891"><ele>204.5</ele><time>2026-04-26T12:55:17.999Z</time></trkpt><trkpt lat="43.380162172697844" lon="13.283357042741795"><ele>204.25</ele><time>2026-04-26T12:55:18.999Z</time></trkpt><trkpt lat="43.38028433838662" lon="13.28341125652192"><ele>204.0</ele><time>2026-04-26T12:55:19.999Z</time></trkpt><trkpt lat="43.38041687570306" lon="13.283436030918784"><ele>203.5</ele><time>2026-04-26T12:55:20.999Z</time></trkpt><trkpt lat="43.380542450412605" lon="13.283461442182345"><ele>203.0</ele><time>2026-04-26T12:55:21.999Z</time></trkpt><trkpt lat="43.38065071543431" lon="13.283496657741658"><ele>202.5</ele><time>2026-04-26T12:55:22.999Z</time></trkpt><trkpt lat="43.3807474304074" lon="13.283555055929776"><ele>202.0</ele><time>2026-04-26T12:55:23.999Z</time></trkpt><trkpt lat="43.380841977475" lon="13.283638563822075"><ele>202.0</ele><time>2026-04-26T12:55:24.999Z</time></trkpt><trkpt lat="43.38092679463498" lon="13.283758543988919"><ele>202.0</ele><time>2026-04-26T12:55:25.999Z</time></trkpt><trkpt lat="43.38100479539602" lon="13.283902702903147"><ele>202.0</ele><time>2026-04-26T12:55:26.999Z</time></trkpt><trkpt lat="43.381075091692715" lon="13.284063157989047"><ele>202.0</ele><time>2026-04-26T12:55:27.999Z</time></trkpt><trkpt lat="43.38114917576802" lon="13.284227740555611"><ele>202.66666666666666</ele><time>2026-04-26T12:55:28.999Z</time></trkpt><trkpt lat="43.38122727991626" lon="13.284397191060664"><ele>203.33333333333331</ele><time>2026-04-26T12:55:29.999Z</time></trkpt><trkpt lat="43.38131061008187" lon="13.284572063345472"><ele>204.0</ele><time>2026-04-26T12:55:30.999Z</time></trkpt><trkpt lat="43.38139597544497" lon="13.284745294651062"><ele>203.75</ele><time>2026-04-26T12:55:31.999Z</time></trkpt><trkpt lat="43.381478467935246" lon="13.28491550449369"><ele>203.5</ele><time>2026-04-26T12:55:32.999Z</time></trkpt><trkpt lat="43.38156018457844" lon="13.285083039899515"><ele>203.25</ele><time>2026-04-26T12:55:33.998Z</time></trkpt><trkpt lat="43.38163627085455" lon="13.285248795297923"><ele>203.0</ele><time>2026-04-26T12:55:34.998Z</time></trkpt><trkpt lat="43.381700924415554" lon="13.285408663375453"><ele>203.0</ele><time>2026-04-26T12:55:35.998Z</time></trkpt><trkpt lat="43.38176199795238" lon="13.285564983996274"><ele>203.0</ele><time>2026-04-26T12:55:36.998Z</time></trkpt><trkpt lat="43.38182871205743" lon="13.285721350252876"><ele>203.0</ele><time>2026-04-26T12:55:37.998Z</time></trkpt><trkpt lat="43.38190261377185" lon="13.285875279610142"><ele>203.0</ele><time>2026-04-26T12:55:38.998Z</time></trkpt><trkpt lat="43.3819865119261" lon="13.286023687432907"><ele>203.0</ele><time>2026-04-26T12:55:39.998Z</time></trkpt><trkpt lat="43.38207993817101" lon="13.286167485706452"><ele>203.0</ele><time>2026-04-26T12:55:40.998Z</time></trkpt><trkpt lat="43.38217586753961" lon="13.286306409722387"><ele>203.0</ele><time>2026-04-26T12:55:41.998Z</time></trkpt><trkpt lat="43.38227173184043" lon="13.286429936264431"><ele>203.0</ele><time>2026-04-26T12:55:42.998Z</time></trkpt><trkpt lat="43.38236305073916" lon="13.286547257976274"><ele>203.0</ele><time>2026-04-26T12:55:43.998Z</time></trkpt><trkpt lat="43.38245129114562" lon="13.28664568201634"><ele>203.0</ele><time>2026-04-26T12:55:44.998Z</time></trkpt><trkpt lat="43.382548831807895" lon="13.286732952529164"><ele>203.0</ele><time>2026-04-26T12:55:45.998Z</time></trkpt><trkpt lat="43.38266419161053" lon="13.286803753906105"><ele>203.0</ele><time>2026-04-26T12:55:46.998Z</time></trkpt><trkpt lat="43.38279462763924" lon="13.286852336114416"><ele>203.0</ele><time>2026-04-26T12:55:47.998Z</time></trkpt><trkpt lat="43.38292715648539" lon="13.286881617346054"><ele>203.0</ele><time>2026-04-26T12:55:48.998Z</time></trkpt><trkpt lat="43.38305765336145" lon="13.286896779822598"><ele>203.0</ele><time>2026-04-26T12:55:49.998Z</time></trkpt><trkpt lat="43.383185715426954" lon="13.286932998680303"><ele>203.0</ele><time>2026-04-26T12:55:50.998Z</time></trkpt><trkpt lat="43.38331010134851" lon="13.286993683470872"><ele>202.75</ele><time>2026-04-26T12:55:51.998Z</time></trkpt><trkpt lat="43.383422796110146" lon="13.28708457544374"><ele>202.5</ele><time>2026-04-26T12:55:52.998Z</time></trkpt><trkpt lat="43.38352838694591" lon="13.287187667621131"><ele>202.25</ele><time>2026-04-26T12:55:53.998Z</time></trkpt><trkpt lat="43.383626730020374" lon="13.287304142524555"><ele>202.0</ele><time>2026-04-26T12:55:54.998Z</time></trkpt><trkpt lat="43.38372750584417" lon="13.287420488413575"><ele>202.25</ele><time>2026-04-26T12:55:55.998Z</time></trkpt><trkpt lat="43.383831111397534" lon="13.287535330533489"><ele>202.5</ele><time>2026-04-26T12:55:56.998Z</time></trkpt><trkpt lat="43.38394094845039" lon="13.287655214254151"><ele>202.75</ele><time>2026-04-26T12:55:57.998Z</time></trkpt><trkpt lat="43.384055003762924" lon="13.287777039497145"><ele>203.0</ele><time>2026-04-26T12:55:59Z</time></trkpt><trkpt lat="43.38417119121725" lon="13.28789985725192"><ele>203.0</ele><time>2026-04-26T12:56:00Z</time></trkpt><trkpt lat="43.38428529229718" lon="13.288018593931671"><ele>203.0</ele><time>2026-04-26T12:56:01Z</time></trkpt><trkpt lat="43.38439692636122" lon="13.288136828289332"><ele>203.0</ele><time>2026-04-26T12:56:02Z</time></trkpt><trkpt lat="43.38450507999307" lon="13.288242749914586"><ele>203.0</ele><time>2026-04-26T12:56:03Z</time></trkpt><trkpt lat="43.38460876691672" lon="13.288321400505852"><ele>202.4</ele><time>2026-04-26T12:56:04Z</time></trkpt><trkpt lat="43.384712500211435" lon="13.288376987295381"><ele>201.8</ele><time>2026-04-26T12:56:05Z</time></trkpt><trkpt lat="43.38481308614841" lon="13.28840815277912"><ele>201.2</ele><time>2026-04-26T12:56:06Z</time></trkpt><trkpt lat="43.38490995911641" lon="13.288422210300086"><ele>200.6</ele><time>2026-04-26T12:56:07Z</time></trkpt><trkpt lat="43.38500509864336" lon="13.28841943697159"><ele>200.0</ele><time>2026-04-26T12:56:08Z</time></trkpt><trkpt lat="43.385105662126904" lon="13.288407428947107"><ele>200.0</ele><time>2026-04-26T12:56:09Z</time></trkpt><trkpt lat="43.385216260023086" lon="13.288392782467161"><ele>200.0</ele><time>2026-04-26T12:56:10Z</time></trkpt><trkpt lat="43.385325041806425" lon="13.288382715734578"><ele>200.0</ele><time>2026-04-26T12:56:11Z</time></trkpt><trkpt lat="43.385433373853" lon="13.28838070568295"><ele>200.0</ele><time>2026-04-26T12:56:12Z</time></trkpt><trkpt lat="43.38554016261608" lon="13.288368603188866"><ele>200.0</ele><time>2026-04-26T12:56:13Z</time></trkpt><trkpt lat="43.38564815138713" lon="13.288365023270893"><ele>199.0</ele><time>2026-04-26T12:56:14Z</time></trkpt><trkpt lat="43.385766283695204" lon="13.288356868819632"><ele>198.0</ele><time>2026-04-26T12:56:15Z</time></trkpt><trkpt lat="43.385897667085175" lon="13.288342476326562"><ele>197.0</ele><time>2026-04-26T12:56:16Z</time></trkpt><trkpt lat="43.38603711045304" lon="13.288325881927697"><ele>196.0</ele><time>2026-04-26T12:56:17Z</time></trkpt><trkpt lat="43.386182531069814" lon="13.288305263078385"><ele>196.0</ele><time>2026-04-26T12:56:18Z</time></trkpt><trkpt lat="43.38632678977622" lon="13.288281956122802"><ele>196.0</ele><time>2026-04-26T12:56:19Z</time></trkpt><trkpt lat="43.38647102932606" lon="13.288255462746385"><ele>196.0</ele><time>2026-04-26T12:56:20Z</time></trkpt><trkpt lat="43.38661547360214" lon="13.288231862506327"><ele>196.0</ele><time>2026-04-26T12:56:21Z</time></trkpt><trkpt lat="43.38675550587748" lon="13.288196522670926"><ele>196.0</ele><time>2026-04-26T12:56:22Z</time></trkpt><trkpt lat="43.38689550097467" lon="13.28817113792539"><ele>196.0</ele><time>2026-04-26T12:56:23Z</time></trkpt><trkpt lat="43.387032409466784" lon="13.288146540981538"><ele>196.0</ele><time>2026-04-26T12:56:24Z</time></trkpt><trkpt lat="43.38716733213788" lon="13.288124810044591"><ele>196.0</ele><time>2026-04-26T12:56:25Z</time></trkpt><trkpt lat="43.387298020641126" lon="13.288102513933444"><ele>194.60000000000002</ele><time>2026-04-26T12:56:26Z</time></trkpt><trkpt lat="43.38741381142538" lon="13.288080798788622"><ele>193.2</ele><time>2026-04-26T12:56:27Z</time></trkpt><trkpt lat="43.38751747378792" lon="13.288064649480143"><ele>191.8</ele><time>2026-04-26T12:56:28Z</time></trkpt><trkpt lat="43.38761482415943" lon="13.28804959904582"><ele>190.39999999999998</ele><time>2026-04-26T12:56:29Z</time></trkpt><trkpt lat="43.38770476370958" lon="13.288040453483598"><ele>189.0</ele><time>2026-04-26T12:56:30Z</time></trkpt><trkpt lat="43.387788052880495" lon="13.28804483307915"><ele>189.0</ele><time>2026-04-26T12:56:31Z</time></trkpt><trkpt lat="43.38786467512335" lon="13.28807395847492"><ele>189.0</ele><time>2026-04-26T12:56:32Z</time></trkpt><trkpt lat="43.38793189745245" lon="13.288131625668072"><ele>189.0</ele><time>2026-04-26T12:56:33Z</time></trkpt><trkpt lat="43.387985361217815" lon="13.288222768581333"><ele>189.0</ele><time>2026-04-26T12:56:34Z</time></trkpt><trkpt lat="43.38801912670118" lon="13.28834320286206"><ele>189.0</ele><time>2026-04-26T12:56:35Z</time></trkpt><trkpt lat="43.388032375887676" lon="13.288481590233548"><ele>189.0</ele><time>2026-04-26T12:56:36Z</time></trkpt><trkpt lat="43.38804489397392" lon="13.288621858121093"><ele>191.0</ele><time>2026-04-26T12:56:37Z</time></trkpt><trkpt lat="43.38807594776138" lon="13.288748683441996"><ele>193.0</ele><time>2026-04-26T12:56:38Z</time></trkpt><trkpt lat="43.388124707177866" lon="13.28885830040231"><ele>195.0</ele><time>2026-04-26T12:56:39Z</time></trkpt><trkpt lat="43.388183230379795" lon="13.288958608900643"><ele>197.0</ele><time>2026-04-26T12:56:40Z</time></trkpt><trkpt lat="43.38824141501802" lon="13.289065079395836"><ele>199.0</ele><time>2026-04-26T12:56:40.999Z</time></trkpt><trkpt lat="43.38830359643852" lon="13.289173403731724"><ele>199.75</ele><time>2026-04-26T12:56:41.999Z</time></trkpt><trkpt lat="43.38836745519675" lon="13.289288751283108"><ele>200.5</ele><time>2026-04-26T12:56:42.999Z</time></trkpt><trkpt lat="43.38843036373293" lon="13.289413385555164"><ele>201.25</ele><time>2026-04-26T12:56:43.999Z</time></trkpt><trkpt lat="43.38849589518632" lon="13.289546779441991"><ele>202.0</ele><time>2026-04-26T12:56:44.999Z</time></trkpt><trkpt lat="43.38856310926881" lon="13.289681454113976"><ele>201.25</ele><time>2026-04-26T12:56:45.999Z</time></trkpt><trkpt lat="43.38862313929849" lon="13.289824906065801"><ele>200.5</ele><time>2026-04-26T12:56:46.999Z</time></trkpt><trkpt lat="43.38867057072502" lon="13.28997458379322"><ele>199.75</ele><time>2026-04-26T12:56:47.999Z</time></trkpt><trkpt lat="43.3887096284242" lon="13.290129428159862"><ele>199.0</ele><time>2026-04-26T12:56:48.999Z</time></trkpt><trkpt lat="43.3887473659771" lon="13.290286306522994"><ele>199.0</ele><time>2026-04-26T12:56:49.999Z</time></trkpt><trkpt lat="43.388783821687475" lon="13.290444501913889"><ele>199.0</ele><time>2026-04-26T12:56:50.999Z</time></trkpt><trkpt lat="43.3888156366871" lon="13.290593486758379"><ele>199.0</ele><time>2026-04-26T12:56:51.999Z</time></trkpt><trkpt lat="43.38884383656373" lon="13.290728887551715"><ele>199.0</ele><time>2026-04-26T12:56:52.999Z</time></trkpt><trkpt lat="43.388866406810074" lon="13.290855133769476"><ele>199.0</ele><time>2026-04-26T12:56:53.999Z</time></trkpt><trkpt lat="43.38887807027802" lon="13.290975003531598"><ele>198.33333333333331</ele><time>2026-04-26T12:56:54.999Z</time></trkpt><trkpt lat="43.38887483031074" lon="13.291088720387002"><ele>197.66666666666666</ele><time>2026-04-26T12:56:55.999Z</time></trkpt><trkpt lat="43.38885437182641" lon="13.29120086286514"><ele>197.0</ele><time>2026-04-26T12:56:56.999Z</time></trkpt><trkpt lat="43.38881859764525" lon="13.291310654975351"><ele>196.33333333333331</ele><time>2026-04-26T12:56:57.999Z</time></trkpt><trkpt lat="43.38877202617274" lon="13.291418196881146"><ele>195.66666666666666</ele><time>2026-04-26T12:56:58.999Z</time></trkpt><trkpt lat="43.388732736728876" lon="13.291536606081296"><ele>195.0</ele><time>2026-04-26T12:56:59.999Z</time></trkpt><trkpt lat="43.38871003808214" lon="13.291664739016692"><ele>194.6</ele><time>2026-04-26T12:57:00.999Z</time></trkpt><trkpt lat="43.38870667331819" lon="13.291802342062255"><ele>194.2</ele><time>2026-04-26T12:57:01.999Z</time></trkpt><trkpt lat="43.38871769682528" lon="13.291942502585178"><ele>193.8</ele><time>2026-04-26T12:57:02.999Z</time></trkpt><trkpt lat="43.388736092266015" lon="13.292089649343222"><ele>193.4</ele><time>2026-04-26T12:57:03.999Z</time></trkpt><trkpt lat="43.38875261153087" lon="13.292239456571199"><ele>193.0</ele><time>2026-04-26T12:57:04.999Z</time></trkpt><trkpt lat="43.38876772949839" lon="13.292392653767259"><ele>192.4</ele><time>2026-04-26T12:57:05.999Z</time></trkpt><trkpt lat="43.388780555209294" lon="13.292544888586201"><ele>191.8</ele><time>2026-04-26T12:57:06.999Z</time></trkpt><trkpt lat="43.388791797846224" lon="13.29269599785983"><ele>191.2</ele><time>2026-04-26T12:57:07.999Z</time></trkpt><trkpt lat="43.38880310068659" lon="13.292847202992405"><ele>190.6</ele><time>2026-04-26T12:57:08.999Z</time></trkpt><trkpt lat="43.3888092816898" lon="13.292997389374099"><ele>190.0</ele><time>2026-04-26T12:57:09.999Z</time></trkpt><trkpt lat="43.388808558002545" lon="13.293153077864883"><ele>189.25</ele><time>2026-04-26T12:57:10.999Z</time></trkpt><trkpt lat="43.38880091327524" lon="13.293315886157256"><ele>188.5</ele><time>2026-04-26T12:57:11.999Z</time></trkpt><trkpt lat="43.38878577347251" lon="13.293477005850804"><ele>187.75</ele><time>2026-04-26T12:57:12.999Z</time></trkpt><trkpt lat="43.388762243901816" lon="13.29364808573359"><ele>187.0</ele><time>2026-04-26T12:57:13.999Z</time></trkpt><trkpt lat="43.38873405815745" lon="13.293828806320244"><ele>186.25</ele><time>2026-04-26T12:57:14.999Z</time></trkpt><trkpt lat="43.38870818183354" lon="13.294015688742178"><ele>185.5</ele><time>2026-04-26T12:57:15.999Z</time></trkpt><trkpt lat="43.388684220601135" lon="13.294191005303125"><ele>184.75</ele><time>2026-04-26T12:57:16.999Z</time></trkpt><trkpt lat="43.3886616671746" lon="13.29435668462356"><ele>184.0</ele><time>2026-04-26T12:57:17.999Z</time></trkpt><trkpt lat="43.388642830001665" lon="13.294522613542002"><ele>184.0</ele><time>2026-04-26T12:57:18.999Z</time></trkpt><trkpt lat="43.388630266744315" lon="13.294693509985693"><ele>184.0</ele><time>2026-04-26T12:57:19.999Z</time></trkpt><trkpt lat="43.38863340651753" lon="13.294864193532385"><ele>184.0</ele><time>2026-04-26T12:57:20.999Z</time></trkpt><trkpt lat="43.388655558087116" lon="13.295036076289797"><ele>184.0</ele><time>2026-04-26T12:57:21.999Z</time></trkpt><trkpt lat="43.3886993209016" lon="13.295193606895404"><ele>184.0</ele><time>2026-04-26T12:57:22.999Z</time></trkpt><trkpt lat="43.38874613590888" lon="13.2953415720354"><ele>184.0</ele><time>2026-04-26T12:57:23.999Z</time></trkpt><trkpt lat="43.38879425023918" lon="13.2954895703054"><ele>184.0</ele><time>2026-04-26T12:57:24.999Z</time></trkpt><trkpt lat="43.388837474591654" lon="13.295645674467343"><ele>184.0</ele><time>2026-04-26T12:57:25.999Z</time></trkpt><trkpt lat="43.38887833626445" lon="13.295803215164524"><ele>184.0</ele><time>2026-04-26T12:57:26.999Z</time></trkpt><trkpt lat="43.3889252149946" lon="13.295961909021386"><ele>184.0</ele><time>2026-04-26T12:57:27.999Z</time></trkpt><trkpt lat="43.38896955553009" lon="13.296117589171626"><ele>184.0</ele><time>2026-04-26T12:57:28.999Z</time></trkpt><trkpt lat="43.38901026511839" lon="13.29627145934287"><ele>184.0</ele><time>2026-04-26T12:57:29.999Z</time></trkpt><trkpt lat="43.38903791027525" lon="13.296430587807212"><ele>184.5</ele><time>2026-04-26T12:57:30.999Z</time></trkpt><trkpt lat="43.38902470576194" lon="13.29659736656816"><ele>185.0</ele><time>2026-04-26T12:57:31.999Z</time></trkpt><trkpt lat="43.38902788780447" lon="13.296778018379126"><ele>185.5</ele><time>2026-04-26T12:57:32.999Z</time></trkpt><trkpt lat="43.3890197014248" lon="13.29696239141489"><ele>186.0</ele><time>2026-04-26T12:57:33.999Z</time></trkpt><trkpt lat="43.38902456026796" lon="13.297146509884115"><ele>185.75</ele><time>2026-04-26T12:57:34.999Z</time></trkpt><trkpt lat="43.38904766400774" lon="13.29732445213679"><ele>185.5</ele><time>2026-04-26T12:57:35.999Z</time></trkpt><trkpt lat="43.389078847328705" lon="13.297502581196671"><ele>185.25</ele><time>2026-04-26T12:57:36.999Z</time></trkpt><trkpt lat="43.389113099132054" lon="13.297680542790312"><ele>185.0</ele><time>2026-04-26T12:57:37.999Z</time></trkpt><trkpt lat="43.38914499250188" lon="13.29786537894967"><ele>185.0</ele><time>2026-04-26T12:57:38.999Z</time></trkpt><trkpt lat="43.3891686540878" lon="13.298055421236173"><ele>185.0</ele><time>2026-04-26T12:57:39.999Z</time></trkpt><trkpt lat="43.389186471662775" lon="13.298253377302261"><ele>185.0</ele><time>2026-04-26T12:57:40.998Z</time></trkpt><trkpt lat="43.38920291586199" lon="13.298455033309244"><ele>185.0</ele><time>2026-04-26T12:57:41.998Z</time></trkpt><trkpt lat="43.389218335196944" lon="13.298660074209089"><ele>184.25</ele><time>2026-04-26T12:57:42.998Z</time></trkpt><trkpt lat="43.38923021871378" lon="13.298861833759423"><ele>183.5</ele><time>2026-04-26T12:57:43.998Z</time></trkpt><trkpt lat="43.38924131715499" lon="13.299044831681945"><ele>182.75</ele><time>2026-04-26T12:57:44.998Z</time></trkpt><trkpt lat="43.38925166276003" lon="13.299202054990689"><ele>182.0</ele><time>2026-04-26T12:57:45.998Z</time></trkpt><trkpt lat="43.38926235504101" lon="13.299335843583783"><ele>181.66666666666666</ele><time>2026-04-26T12:57:46.998Z</time></trkpt><trkpt lat="43.38926397171259" lon="13.299453448721223"><ele>181.33333333333331</ele><time>2026-04-26T12:57:47.998Z</time></trkpt><trkpt lat="43.38924649168863" lon="13.299565024044362"><ele>181.0</ele><time>2026-04-26T12:57:48.998Z</time></trkpt><trkpt lat="43.38920466457598" lon="13.29965866939119"><ele>180.66666666666666</ele><time>2026-04-26T12:57:49.998Z</time></trkpt><trkpt lat="43.38914629795634" lon="13.299738264826615"><ele>180.33333333333334</ele><time>2026-04-26T12:57:50.998Z</time></trkpt><trkpt lat="43.38906383487635" lon="13.299800456909958"><ele>180.0</ele><time>2026-04-26T12:57:51.998Z</time></trkpt><trkpt lat="43.38896235323598" lon="13.29980573845748"><ele>179.5</ele><time>2026-04-26T12:57:52.998Z</time></trkpt><trkpt lat="43.388847671753844" lon="13.29983997427078"><ele>179.0</ele><time>2026-04-26T12:57:53.998Z</time></trkpt><trkpt lat="43.38872396107725" lon="13.29987785498425"><ele>178.5</ele><time>2026-04-26T12:57:54.998Z</time></trkpt><trkpt lat="43.38860535863243" lon="13.299931773826064"><ele>178.0</ele><time>2026-04-26T12:57:55.998Z</time></trkpt><trkpt lat="43.38848809129699" lon="13.299962896206324"><ele>177.8</ele><time>2026-04-26T12:57:56.998Z</time></trkpt><trkpt lat="43.388377684821904" lon="13.299986266562433"><ele>177.60000000000002</ele><time>2026-04-26T12:57:57.998Z</time></trkpt><trkpt lat="43.388289828769786" lon="13.300009890650523"><ele>177.39999999999998</ele><time>2026-04-26T12:57:58.998Z</time></trkpt><trkpt lat="43.38822987520617" lon="13.300044984648848"><ele>177.2</ele><time>2026-04-26T12:57:59.998Z</time></trkpt><trkpt lat="43.388137348538656" lon="13.300175386337344"><ele>177.0</ele><time>2026-04-26T12:58:01.998Z</time></trkpt><trkpt lat="43.38810018943835" lon="13.3002749506727"><ele>177.0</ele><time>2026-04-26T12:58:02.998Z</time></trkpt><trkpt lat="43.38807658112632" lon="13.300396542838689"><ele>177.0</ele><time>2026-04-26T12:58:04Z</time></trkpt><trkpt lat="43.388061306853366" lon="13.300533375973354"><ele>177.0</ele><time>2026-04-26T12:58:05Z</time></trkpt><trkpt lat="43.38805268079048" lon="13.300690530265033"><ele>177.0</ele><time>2026-04-26T12:58:06Z</time></trkpt><trkpt lat="43.38804124775321" lon="13.300843120003753"><ele>177.0</ele><time>2026-04-26T12:58:07Z</time></trkpt><trkpt lat="43.38802705749068" lon="13.300997949316399"><ele>176.6</ele><time>2026-04-26T12:58:08Z</time></trkpt><trkpt lat="43.38801611561802" lon="13.30115304267322"><ele>176.2</ele><time>2026-04-26T12:58:09Z</time></trkpt><trkpt lat="43.3880055367476" lon="13.301307685358122"><ele>175.8</ele><time>2026-04-26T12:58:10Z</time></trkpt><trkpt lat="43.38799491970148" lon="13.301459883301348"><ele>175.4</ele><time>2026-04-26T12:58:11Z</time></trkpt><trkpt lat="43.387982054009335" lon="13.301611024848984"><ele>175.0</ele><time>2026-04-26T12:58:12Z</time></trkpt><trkpt lat="43.38796903541231" lon="13.301759106410026"><ele>173.4</ele><time>2026-04-26T12:58:13Z</time></trkpt><trkpt lat="43.3879555853561" lon="13.301901824155907"><ele>171.8</ele><time>2026-04-26T12:58:14Z</time></trkpt><trkpt lat="43.387941485306065" lon="13.302036832007342"><ele>170.2</ele><time>2026-04-26T12:58:15Z</time></trkpt><trkpt lat="43.387927557901875" lon="13.302160079905999"><ele>168.6</ele><time>2026-04-26T12:58:16Z</time></trkpt><trkpt lat="43.38792271366483" lon="13.302277042921359"><ele>167.0</ele><time>2026-04-26T12:58:17Z</time></trkpt><trkpt lat="43.38793311669853" lon="13.302383686680935"><ele>167.16666666666666</ele><time>2026-04-26T12:58:18Z</time></trkpt><trkpt lat="43.38796761838826" lon="13.30247143759173"><ele>167.33333333333331</ele><time>2026-04-26T12:58:19Z</time></trkpt><trkpt lat="43.38802040520447" lon="13.302547214272444"><ele>167.5</ele><time>2026-04-26T12:58:20Z</time></trkpt><trkpt lat="43.388084360198576" lon="13.302614962403611"><ele>167.66666666666666</ele><time>2026-04-26T12:58:21Z</time></trkpt><trkpt lat="43.388153745302475" lon="13.302678368995602"><ele>167.83333333333334</ele><time>2026-04-26T12:58:22Z</time></trkpt><trkpt lat="43.388223362975076" lon="13.302748242222528"><ele>168.0</ele><time>2026-04-26T12:58:23Z</time></trkpt><trkpt lat="43.38828629595618" lon="13.30282548709515"><ele>168.0</ele><time>2026-04-26T12:58:24Z</time></trkpt><trkpt lat="43.38833301539354" lon="13.302921557618928"><ele>168.0</ele><time>2026-04-26T12:58:25Z</time></trkpt><trkpt lat="43.38835731604822" lon="13.30302977991075"><ele>168.0</ele><time>2026-04-26T12:58:25.999Z</time></trkpt><trkpt lat="43.388367764953685" lon="13.303147449761411"><ele>168.0</ele><time>2026-04-26T12:58:26.999Z</time></trkpt><trkpt lat="43.38836426102388" lon="13.303267413858062"><ele>168.0</ele><time>2026-04-26T12:58:27.999Z</time></trkpt><trkpt lat="43.38835425728509" lon="13.303395216949621"><ele>168.0</ele><time>2026-04-26T12:58:28.999Z</time></trkpt><trkpt lat="43.3883393208964" lon="13.303528612717322"><ele>167.0</ele><time>2026-04-26T12:58:29.999Z</time></trkpt><trkpt lat="43.38832282900006" lon="13.303667132174619"><ele>166.0</ele><time>2026-04-26T12:58:30.999Z</time></trkpt><trkpt lat="43.388309166624445" lon="13.303807508193414"><ele>165.0</ele><time>2026-04-26T12:58:31.999Z</time></trkpt><trkpt lat="43.3882949727531" lon="13.303952494308172"><ele>164.0</ele><time>2026-04-26T12:58:32.999Z</time></trkpt><trkpt lat="43.38828278967325" lon="13.304096138453202"><ele>163.0</ele><time>2026-04-26T12:58:33.999Z</time></trkpt><trkpt lat="43.3882700309721" lon="13.304234351228494"><ele>161.83333333333334</ele><time>2026-04-26T12:58:34.999Z</time></trkpt><trkpt lat="43.38825487709471" lon="13.304369198920599"><ele>160.66666666666669</ele><time>2026-04-26T12:58:35.999Z</time></trkpt><trkpt lat="43.388242265231604" lon="13.304497643171084"><ele>159.5</ele><time>2026-04-26T12:58:36.999Z</time></trkpt><trkpt lat="43.388227855113435" lon="13.304617434403898"><ele>158.33333333333334</ele><time>2026-04-26T12:58:37.999Z</time></trkpt><trkpt lat="43.388216716313025" lon="13.304730491697137"><ele>157.16666666666666</ele><time>2026-04-26T12:58:38.999Z</time></trkpt><trkpt lat="43.38821360734891" lon="13.304837825374467"><ele>156.0</ele><time>2026-04-26T12:58:39.999Z</time></trkpt><trkpt lat="43.38822939679996" lon="13.304935435215905"><ele>155.16666666666666</ele><time>2026-04-26T12:58:40.999Z</time></trkpt><trkpt lat="43.38824183802304" lon="13.305029064291054"><ele>154.33333333333334</ele><time>2026-04-26T12:58:41.999Z</time></trkpt><trkpt lat="43.38828133466564" lon="13.30511064702895"><ele>153.5</ele><time>2026-04-26T12:58:42.999Z</time></trkpt><trkpt lat="43.38837046617102" lon="13.30514421697091"><ele>152.66666666666669</ele><time>2026-04-26T12:58:43.999Z</time></trkpt><trkpt lat="43.388445640515094" lon="13.305184451953497"><ele>151.83333333333334</ele><time>2026-04-26T12:58:44.999Z</time></trkpt><trkpt lat="43.38853398891713" lon="13.305217843492255"><ele>151.0</ele><time>2026-04-26T12:58:45.999Z</time></trkpt><trkpt lat="43.38863520381014" lon="13.305266376614316"><ele>151.0</ele><time>2026-04-26T12:58:46.999Z</time></trkpt><trkpt lat="43.388747128736554" lon="13.305335148223417"><ele>151.0</ele><time>2026-04-26T12:58:47.999Z</time></trkpt><trkpt lat="43.38886251843471" lon="13.30542878210939"><ele>151.0</ele><time>2026-04-26T12:58:48.999Z</time></trkpt><trkpt lat="43.38896959150045" lon="13.305537207383603"><ele>151.0</ele><time>2026-04-26T12:58:49.999Z</time></trkpt><trkpt lat="43.38906708541589" lon="13.305649966574375"><ele>149.0</ele><time>2026-04-26T12:58:50.999Z</time></trkpt><trkpt lat="43.38915555900861" lon="13.305758343957935"><ele>147.0</ele><time>2026-04-26T12:58:51.999Z</time></trkpt><trkpt lat="43.389248241889284" lon="13.305861933222777"><ele>145.0</ele><time>2026-04-26T12:58:52.999Z</time></trkpt><trkpt lat="43.38933737633206" lon="13.305957307110399"><ele>143.0</ele><time>2026-04-26T12:58:53.999Z</time></trkpt><trkpt lat="43.38941350721907" lon="13.306043601806264"><ele>141.0</ele><time>2026-04-26T12:58:54.999Z</time></trkpt><trkpt lat="43.38946759178111" lon="13.306127947673568"><ele>141.0</ele><time>2026-04-26T12:58:55.999Z</time></trkpt><trkpt lat="43.38949692315761" lon="13.3062142441022"><ele>141.0</ele><time>2026-04-26T12:58:56.999Z</time></trkpt><trkpt lat="43.38950672998707" lon="13.306315585366951"><ele>141.0</ele><time>2026-04-26T12:58:57.999Z</time></trkpt><trkpt lat="43.38947080112258" lon="13.30641722871912"><ele>141.0</ele><time>2026-04-26T12:58:58.999Z</time></trkpt><trkpt lat="43.389436911464806" lon="13.306528645649578"><ele>141.0</ele><time>2026-04-26T12:58:59.999Z</time></trkpt><trkpt lat="43.38940459930243" lon="13.306667535831155"><ele>141.0</ele><time>2026-04-26T12:59:00.999Z</time></trkpt><trkpt lat="43.38934070653086" lon="13.30681257466877"><ele>139.75</ele><time>2026-04-26T12:59:01.999Z</time></trkpt><trkpt lat="43.38927743240308" lon="13.306969163773132"><ele>138.5</ele><time>2026-04-26T12:59:02.999Z</time></trkpt><trkpt lat="43.38921521340874" lon="13.30713577940081"><ele>137.25</ele><time>2026-04-26T12:59:03.998Z</time></trkpt><trkpt lat="43.389153592212075" lon="13.30730068099296"><ele>136.0</ele><time>2026-04-26T12:59:04.998Z</time></trkpt><trkpt lat="43.38909341667655" lon="13.30746775559762"><ele>133.75</ele><time>2026-04-26T12:59:05.998Z</time></trkpt><trkpt lat="43.389030040450876" lon="13.307639722817878"><ele>131.5</ele><time>2026-04-26T12:59:06.998Z</time></trkpt><trkpt lat="43.38896540458793" lon="13.30780687730655"><ele>129.25</ele><time>2026-04-26T12:59:07.998Z</time></trkpt><trkpt lat="43.38890131763631" lon="13.30796542979491"><ele>127.0</ele><time>2026-04-26T12:59:08.998Z</time></trkpt><trkpt lat="43.388836613835224" lon="13.30811727267921"><ele>125.25</ele><time>2026-04-26T12:59:09.998Z</time></trkpt><trkpt lat="43.38877742000026" lon="13.30827076229558"><ele>123.5</ele><time>2026-04-26T12:59:10.998Z</time></trkpt><trkpt lat="43.3887267946109" lon="13.30842383929927"><ele>121.75</ele><time>2026-04-26T12:59:11.998Z</time></trkpt><trkpt lat="43.38867962481886" lon="13.30857203640452"><ele>120.0</ele><time>2026-04-26T12:59:12.998Z</time></trkpt><trkpt lat="43.3886353128965" lon="13.308718187542823"><ele>120.0</ele><time>2026-04-26T12:59:13.998Z</time></trkpt><trkpt lat="43.3885896160499" lon="13.308860289714582"><ele>120.0</ele><time>2026-04-26T12:59:14.998Z</time></trkpt><trkpt lat="43.38854759876563" lon="13.308990568470838"><ele>120.0</ele><time>2026-04-26T12:59:15.998Z</time></trkpt><trkpt lat="43.38851857317396" lon="13.309093895441354"><ele>120.0</ele><time>2026-04-26T12:59:16.998Z</time></trkpt><trkpt lat="43.38850237843626" lon="13.309187133072435"><ele>120.0</ele><time>2026-04-26T12:59:17.998Z</time></trkpt><trkpt lat="43.388513608993364" lon="13.309275020699232"><ele>120.0</ele><time>2026-04-26T12:59:18.998Z</time></trkpt><trkpt lat="43.38854942524954" lon="13.309359294577352"><ele>118.83333333333333</ele><time>2026-04-26T12:59:19.998Z</time></trkpt><trkpt lat="43.38859789614591" lon="13.309437248983546"><ele>117.66666666666666</ele><time>2026-04-26T12:59:20.998Z</time></trkpt><trkpt lat="43.38866437311322" lon="13.309501229072177"><ele>116.5</ele><time>2026-04-26T12:59:21.998Z</time></trkpt><trkpt lat="43.388739288319265" lon="13.309543002233656"><ele>115.33333333333333</ele><time>2026-04-26T12:59:22.998Z</time></trkpt><trkpt lat="43.388811882913146" lon="13.309580895196715"><ele>114.16666666666666</ele><time>2026-04-26T12:59:23.998Z</time></trkpt><trkpt lat="43.38888340677635" lon="13.309619797002549"><ele>113.0</ele><time>2026-04-26T12:59:24.998Z</time></trkpt><trkpt lat="43.38895633389359" lon="13.309658894102276"><ele>113.0</ele><time>2026-04-26T12:59:25.998Z</time></trkpt><trkpt lat="43.38902396112986" lon="13.309733386504794"><ele>113.00000000000001</ele><time>2026-04-26T12:59:26.998Z</time></trkpt><trkpt lat="43.3890898586109" lon="13.309808897461783"><ele>113.00000000000001</ele><time>2026-04-26T12:59:27.998Z</time></trkpt><trkpt lat="43.38920232345097" lon="13.309835660216082"><ele>113.0</ele><time>2026-04-26T12:59:28.998Z</time></trkpt><trkpt lat="43.38930604397674" lon="13.309892551817072"><ele>113.0</ele><time>2026-04-26T12:59:29.998Z</time></trkpt><trkpt lat="43.38941162152749" lon="13.309939527261877"><ele>112.2</ele><time>2026-04-26T12:59:30.998Z</time></trkpt><trkpt lat="43.389497034543275" lon="13.309983970482287"><ele>111.4</ele><time>2026-04-26T12:59:31.998Z</time></trkpt><trkpt lat="43.38957755787368" lon="13.310068104194524"><ele>110.60000000000001</ele><time>2026-04-26T12:59:33.998Z</time></trkpt><trkpt lat="43.38952971430846" lon="13.31014597300555"><ele>109.80000000000001</ele><time>2026-04-26T12:59:35.998Z</time></trkpt><trkpt lat="43.38950993674928" lon="13.310258811089492"><ele>109.0</ele><time>2026-04-26T12:59:37.998Z</time></trkpt><trkpt lat="43.38947346863642" lon="13.310406054157545"><ele>108.80000000000001</ele><time>2026-04-26T12:59:39.998Z</time></trkpt><trkpt lat="43.389505054716615" lon="13.31058360426372"><ele>108.60000000000001</ele><time>2026-04-26T12:59:41.998Z</time></trkpt><trkpt lat="43.38954588670095" lon="13.310671767548923"><ele>108.4</ele><time>2026-04-26T12:59:42.998Z</time></trkpt><trkpt lat="43.3895955561299" lon="13.310761899377416"><ele>108.2</ele><time>2026-04-26T12:59:43.998Z</time></trkpt><trkpt lat="43.3896490976661" lon="13.310848089833483"><ele>108.0</ele><time>2026-04-26T12:59:44.998Z</time></trkpt><trkpt lat="43.38970378999019" lon="13.310937903665467"><ele>108.0</ele><time>2026-04-26T12:59:45.998Z</time></trkpt><trkpt lat="43.38975792925169" lon="13.311031727843611"><ele>108.0</ele><time>2026-04-26T12:59:46.998Z</time></trkpt><trkpt lat="43.38980608342059" lon="13.311125243406652"><ele>108.0</ele><time>2026-04-26T12:59:47.998Z</time></trkpt><trkpt lat="43.38985262856584" lon="13.311230617297385"><ele>108.0</ele><time>2026-04-26T12:59:48.998Z</time></trkpt><trkpt lat="43.38989003584533" lon="13.311344182773837"><ele>108.0</ele><time>2026-04-26T12:59:49.998Z</time></trkpt><trkpt lat="43.389923275657154" lon="13.311459096892337"><ele>108.0</ele><time>2026-04-26T12:59:50.998Z</time></trkpt><trkpt lat="43.389960736686724" lon="13.311572612539319"><ele>109.33333333333333</ele><time>2026-04-26T12:59:51.998Z</time></trkpt><trkpt lat="43.3900076045715" lon="13.311692199189242"><ele>110.66666666666666</ele><time>2026-04-26T12:59:52.998Z</time></trkpt><trkpt lat="43.39005352088748" lon="13.311811287892429"><ele>112.0</ele><time>2026-04-26T12:59:53.998Z</time></trkpt><trkpt lat="43.39009612875512" lon="13.311917877431261"><ele>113.33333333333333</ele><time>2026-04-26T12:59:54.998Z</time></trkpt><trkpt lat="43.39013913475257" lon="13.312010331195072"><ele>114.66666666666666</ele><time>2026-04-26T12:59:55.998Z</time></trkpt><trkpt lat="43.39017950861321" lon="13.312104709130052"><ele>116.0</ele><time>2026-04-26T12:59:56.998Z</time></trkpt><trkpt lat="43.390215279446785" lon="13.312191805578786"><ele>117.66666666666666</ele><time>2026-04-26T12:59:57.998Z</time></trkpt><trkpt lat="43.39024522100764" lon="13.312280246773888"><ele>119.33333333333333</ele><time>2026-04-26T12:59:58.998Z</time></trkpt><trkpt lat="43.390273897755286" lon="13.31236700572891"><ele>121.0</ele><time>2026-04-26T12:59:59.998Z</time></trkpt><trkpt lat="43.390299723489434" lon="13.312510715732147"><ele>122.66666666666666</ele><time>2026-04-26T13:00:01.997Z</time></trkpt><trkpt lat="43.390252939330985" lon="13.312651265108109"><ele>124.33333333333333</ele><time>2026-04-26T13:00:03.997Z</time></trkpt><trkpt lat="43.39019413509327" lon="13.31268627723286"><ele>126.0</ele><time>2026-04-26T13:00:04.997Z</time></trkpt><trkpt lat="43.39007365275414" lon="13.312696550135202"><ele>126.0</ele><time>2026-04-26T13:00:06.997Z</time></trkpt><trkpt lat="43.39000957928082" lon="13.312660291242738"><ele>126.0</ele><time>2026-04-26T13:00:07.997Z</time></trkpt><trkpt lat="43.389939588841855" lon="13.312611480955272"><ele>126.0</ele><time>2026-04-26T13:00:08.997Z</time></trkpt><trkpt lat="43.389861636409165" lon="13.312554570124655"><ele>126.0</ele><time>2026-04-26T13:00:09.999Z</time></trkpt><trkpt lat="43.389764777503274" lon="13.312513913082629"><ele>126.0</ele><time>2026-04-26T13:00:10.999Z</time></trkpt><trkpt lat="43.3896667625551" lon="13.312447967923774"><ele>126.0</ele><time>2026-04-26T13:00:11.999Z</time></trkpt><trkpt lat="43.389560139777764" lon="13.31237987406175"><ele>127.25</ele><time>2026-04-26T13:00:12.999Z</time></trkpt><trkpt lat="43.38944642099945" lon="13.312307557592177"><ele>128.5</ele><time>2026-04-26T13:00:13.999Z</time></trkpt><trkpt lat="43.38933131803636" lon="13.312236791330452"><ele>129.75</ele><time>2026-04-26T13:00:14.999Z</time></trkpt><trkpt lat="43.38920632802869" lon="13.312160003954824"><ele>131.0</ele><time>2026-04-26T13:00:15.999Z</time></trkpt><trkpt lat="43.38908138053737" lon="13.312079214210765"><ele>131.0</ele><time>2026-04-26T13:00:16.999Z</time></trkpt><trkpt lat="43.38896170509111" lon="13.312010153824977"><ele>131.0</ele><time>2026-04-26T13:00:17.999Z</time></trkpt><trkpt lat="43.38885070220802" lon="13.311937806513129"><ele>131.0</ele><time>2026-04-26T13:00:18.999Z</time></trkpt><trkpt lat="43.388749980516614" lon="13.311876185412721"><ele>131.0</ele><time>2026-04-26T13:00:19.999Z</time></trkpt><trkpt lat="43.38865697221166" lon="13.311822371860005"><ele>132.4</ele><time>2026-04-26T13:00:20.999Z</time></trkpt><trkpt lat="43.38857330320332" lon="13.311777074439668"><ele>133.8</ele><time>2026-04-26T13:00:21.999Z</time></trkpt><trkpt lat="43.388501977210176" lon="13.31176191137914"><ele>135.20000000000002</ele><time>2026-04-26T13:00:22.999Z</time></trkpt><trkpt lat="43.38841162821152" lon="13.311834183645162"><ele>136.6</ele><time>2026-04-26T13:00:24.999Z</time></trkpt><trkpt lat="43.38833965492408" lon="13.311980115825984"><ele>138.0</ele><time>2026-04-26T13:00:26.999Z</time></trkpt><trkpt lat="43.38833049566309" lon="13.312068250594498"><ele>139.20000000000002</ele><time>2026-04-26T13:00:27.999Z</time></trkpt><trkpt lat="43.38836814309715" lon="13.312241028676832"><ele>140.4</ele><time>2026-04-26T13:00:29.999Z</time></trkpt><trkpt lat="43.38839149442523" lon="13.312339764827076"><ele>141.60000000000002</ele><time>2026-04-26T13:00:30.999Z</time></trkpt><trkpt lat="43.38841481087333" lon="13.312446445569952"><ele>142.8</ele><time>2026-04-26T13:00:31.999Z</time></trkpt><trkpt lat="43.388438756741095" lon="13.31256204333631"><ele>144.0</ele><time>2026-04-26T13:00:32.999Z</time></trkpt><trkpt lat="43.38846306195519" lon="13.31268332334963"><ele>144.0</ele><time>2026-04-26T13:00:33.999Z</time></trkpt><trkpt lat="43.38849037553486" lon="13.312814496985585"><ele>144.0</ele><time>2026-04-26T13:00:34.999Z</time></trkpt><trkpt lat="43.388519186358245" lon="13.312958962107531"><ele>144.0</ele><time>2026-04-26T13:00:35.999Z</time></trkpt><trkpt lat="43.38854504011169" lon="13.313102272361546"><ele>144.0</ele><time>2026-04-26T13:00:36.999Z</time></trkpt><trkpt lat="43.388573452950205" lon="13.313256978839858"><ele>144.0</ele><time>2026-04-26T13:00:37.999Z</time></trkpt><trkpt lat="43.388604993325586" lon="13.313414700817235"><ele>144.8</ele><time>2026-04-26T13:00:38.999Z</time></trkpt><trkpt lat="43.38864645775081" lon="13.313560758793756"><ele>145.60000000000002</ele><time>2026-04-26T13:00:39.999Z</time></trkpt><trkpt lat="43.388702468884055" lon="13.31367348919226"><ele>146.4</ele><time>2026-04-26T13:00:40.999Z</time></trkpt><trkpt lat="43.38876931351378" lon="13.31377980469546"><ele>147.20000000000002</ele><time>2026-04-26T13:00:41.999Z</time></trkpt><trkpt lat="43.388840197623125" lon="13.313882922468977"><ele>148.0</ele><time>2026-04-26T13:00:42.999Z</time></trkpt><trkpt lat="43.38890377166227" lon="13.313985267948556"><ele>148.5</ele><time>2026-04-26T13:00:43.999Z</time></trkpt><trkpt lat="43.38894780577963" lon="13.3140817088609"><ele>149.0</ele><time>2026-04-26T13:00:44.999Z</time></trkpt><trkpt lat="43.388971130458664" lon="13.314184697305963"><ele>149.5</ele><time>2026-04-26T13:00:45.999Z</time></trkpt><trkpt lat="43.38897232063087" lon="13.314297742384438"><ele>150.0</ele><time>2026-04-26T13:00:46.999Z</time></trkpt><trkpt lat="43.38895753691902" lon="13.31441083396136"><ele>150.5</ele><time>2026-04-26T13:00:47.999Z</time></trkpt><trkpt lat="43.38893463517184" lon="13.314540267580407"><ele>151.0</ele><time>2026-04-26T13:00:48.999Z</time></trkpt><trkpt lat="43.38891757479748" lon="13.314678674030649"><ele>151.5</ele><time>2026-04-26T13:00:49.999Z</time></trkpt><trkpt lat="43.388901890728725" lon="13.314829234043746"><ele>152.0</ele><time>2026-04-26T13:00:50.999Z</time></trkpt><trkpt lat="43.38888606789695" lon="13.31499008915132"><ele>152.5</ele><time>2026-04-26T13:00:51.999Z</time></trkpt><trkpt lat="43.38887096391847" lon="13.315160880491515"><ele>153.0</ele><time>2026-04-26T13:00:52.999Z</time></trkpt><trkpt lat="43.388855327377925" lon="13.315334916287291"><ele>153.75</ele><time>2026-04-26T13:00:53.999Z</time></trkpt><trkpt lat="43.38884184067665" lon="13.315516983630857"><ele>154.5</ele><time>2026-04-26T13:00:54.999Z</time></trkpt><trkpt lat="43.38883216902962" lon="13.315697628284013"><ele>155.25</ele><time>2026-04-26T13:00:55.999Z</time></trkpt><trkpt lat="43.38882642354205" lon="13.315874333495472"><ele>156.0</ele><time>2026-04-26T13:00:56.999Z</time></trkpt><trkpt lat="43.388828837251204" lon="13.316043392927476"><ele>156.5</ele><time>2026-04-26T13:00:57.999Z</time></trkpt><trkpt lat="43.388832103531314" lon="13.316210750847237"><ele>157.0</ele><time>2026-04-26T13:00:58.999Z</time></trkpt><trkpt lat="43.388830199798406" lon="13.316378420878372"><ele>157.5</ele><time>2026-04-26T13:00:59.999Z</time></trkpt><trkpt lat="43.388827594817236" lon="13.316551554005763"><ele>158.0</ele><time>2026-04-26T13:01:00.999Z</time></trkpt><trkpt lat="43.38882628221672" lon="13.316731848758094"><ele>158.25</ele><time>2026-04-26T13:01:01.999Z</time></trkpt><trkpt lat="43.38882034039228" lon="13.3169143128924"><ele>158.5</ele><time>2026-04-26T13:01:02.999Z</time></trkpt><trkpt lat="43.38880860027567" lon="13.317099704806832"><ele>158.75</ele><time>2026-04-26T13:01:03.999Z</time></trkpt><trkpt lat="43.38878503550448" lon="13.317288578765616"><ele>159.0</ele><time>2026-04-26T13:01:04.999Z</time></trkpt><trkpt lat="43.38874918580099" lon="13.317478458887859"><ele>160.5</ele><time>2026-04-26T13:01:05.999Z</time></trkpt><trkpt lat="43.388688896920044" lon="13.31765344777268"><ele>162.0</ele><time>2026-04-26T13:01:06.999Z</time></trkpt><trkpt lat="43.388605984853314" lon="13.317811415715608"><ele>163.5</ele><time>2026-04-26T13:01:07.999Z</time></trkpt><trkpt lat="43.38851220815797" lon="13.317961539002622"><ele>165.0</ele><time>2026-04-26T13:01:08.999Z</time></trkpt><trkpt lat="43.38842027035311" lon="13.318118154113224"><ele>166.66666666666666</ele><time>2026-04-26T13:01:09.999Z</time></trkpt><trkpt lat="43.388330445370215" lon="13.318285480444288"><ele>168.33333333333331</ele><time>2026-04-26T13:01:10.999Z</time></trkpt><trkpt lat="43.38824249768348" lon="13.318461134361849"><ele>170.0</ele><time>2026-04-26T13:01:11.999Z</time></trkpt><trkpt lat="43.388158735419445" lon="13.318636847065592"><ele>170.0</ele><time>2026-04-26T13:01:12.999Z</time></trkpt><trkpt lat="43.38807511788973" lon="13.318812844709363"><ele>170.0</ele><time>2026-04-26T13:01:13.999Z</time></trkpt><trkpt lat="43.38799318790184" lon="13.318976162345477"><ele>170.0</ele><time>2026-04-26T13:01:14.999Z</time></trkpt><trkpt lat="43.38791411940551" lon="13.319126032173145"><ele>170.0</ele><time>2026-04-26T13:01:15.999Z</time></trkpt><trkpt lat="43.38783762190463" lon="13.319261568428017"><ele>171.0</ele><time>2026-04-26T13:01:16.999Z</time></trkpt><trkpt lat="43.38776511828074" lon="13.319389781326404"><ele>172.0</ele><time>2026-04-26T13:01:17.999Z</time></trkpt><trkpt lat="43.38769482874605" lon="13.319520375442616"><ele>173.0</ele><time>2026-04-26T13:01:18.999Z</time></trkpt><trkpt lat="43.38762527354008" lon="13.319657985170181"><ele>174.0</ele><time>2026-04-26T13:01:19.999Z</time></trkpt><trkpt lat="43.38754933479581" lon="13.319805042269568"><ele>174.66666666666666</ele><time>2026-04-26T13:01:20.999Z</time></trkpt><trkpt lat="43.38747053696869" lon="13.31996901792789"><ele>175.33333333333331</ele><time>2026-04-26T13:01:21.999Z</time></trkpt><trkpt lat="43.38739182539639" lon="13.32014816997411"><ele>176.0</ele><time>2026-04-26T13:01:22.999Z</time></trkpt><trkpt lat="43.38731384500009" lon="13.320334678204254"><ele>176.0</ele><time>2026-04-26T13:01:23.999Z</time></trkpt><trkpt lat="43.38723368655233" lon="13.320521378140583"><ele>176.0</ele><time>2026-04-26T13:01:24.999Z</time></trkpt><trkpt lat="43.387154699347654" lon="13.320704429533626"><ele>176.0</ele><time>2026-04-26T13:01:25.999Z</time></trkpt><trkpt lat="43.38708399600759" lon="13.320886735064716"><ele>174.75</ele><time>2026-04-26T13:01:26.999Z</time></trkpt><trkpt lat="43.38702906290579" lon="13.321063349972615"><ele>173.5</ele><time>2026-04-26T13:01:27.999Z</time></trkpt><trkpt lat="43.386984589969686" lon="13.32124229983573"><ele>172.25</ele><time>2026-04-26T13:01:28.999Z</time></trkpt><trkpt lat="43.38693992926762" lon="13.32143353902278"><ele>171.0</ele><time>2026-04-26T13:01:29.999Z</time></trkpt><trkpt lat="43.38689559074825" lon="13.321632257900324"><ele>171.0</ele><time>2026-04-26T13:01:30.999Z</time></trkpt><trkpt lat="43.386845282716465" lon="13.321833777338364"><ele>171.0</ele><time>2026-04-26T13:01:31.999Z</time></trkpt><trkpt lat="43.38678820692333" lon="13.32203976525122"><ele>171.0</ele><time>2026-04-26T13:01:32.999Z</time></trkpt><trkpt lat="43.386727143385706" lon="13.322249629465107"><ele>170.33333333333334</ele><time>2026-04-26T13:01:33.999Z</time></trkpt><trkpt lat="43.38666649136761" lon="13.322459735749412"><ele>169.66666666666669</ele><time>2026-04-26T13:01:34.999Z</time></trkpt><trkpt lat="43.386604161130236" lon="13.322655619615626"><ele>169.0</ele><time>2026-04-26T13:01:35.999Z</time></trkpt><trkpt lat="43.386536167005936" lon="13.322833717858922"><ele>169.0</ele><time>2026-04-26T13:01:36.999Z</time></trkpt><trkpt lat="43.386455826181404" lon="13.32299516624774"><ele>169.0</ele><time>2026-04-26T13:01:37.999Z</time></trkpt><trkpt lat="43.386361493024076" lon="13.323152227345021"><ele>169.0</ele><time>2026-04-26T13:01:38.999Z</time></trkpt><trkpt lat="43.386252132834514" lon="13.323294990370552"><ele>169.0</ele><time>2026-04-26T13:01:39.999Z</time></trkpt><trkpt lat="43.38614157486211" lon="13.323442227890364"><ele>169.5</ele><time>2026-04-26T13:01:40.999Z</time></trkpt><trkpt lat="43.38603586456521" lon="13.323584710570353"><ele>170.0</ele><time>2026-04-26T13:01:41.999Z</time></trkpt><trkpt lat="43.38593210054745" lon="13.323730899978225"><ele>170.5</ele><time>2026-04-26T13:01:42.998Z</time></trkpt><trkpt lat="43.38582975822047" lon="13.32387508279189"><ele>171.0</ele><time>2026-04-26T13:01:43.998Z</time></trkpt><trkpt lat="43.38573302312042" lon="13.324010274678542"><ele>171.8</ele><time>2026-04-26T13:01:44.998Z</time></trkpt><trkpt lat="43.38564539253165" lon="13.324129611958906"><ele>172.60000000000002</ele><time>2026-04-26T13:01:45.998Z</time></trkpt><trkpt lat="43.38557395281626" lon="13.324226728977877"><ele>173.4</ele><time>2026-04-26T13:01:46.998Z</time></trkpt><trkpt lat="43.385512989338594" lon="13.324309751463035"><ele>174.2</ele><time>2026-04-26T13:01:47.998Z</time></trkpt><trkpt lat="43.385464350964405" lon="13.32438173033239"><ele>175.0</ele><time>2026-04-26T13:01:48.998Z</time></trkpt><trkpt lat="43.385419616118845" lon="13.324459593544029"><ele>175.0</ele><time>2026-04-26T13:01:49.998Z</time></trkpt><trkpt lat="43.38537045217732" lon="13.324552437994388"><ele>175.0</ele><time>2026-04-26T13:01:50.998Z</time></trkpt><trkpt lat="43.3853122568073" lon="13.324661527379279"><ele>175.0</ele><time>2026-04-26T13:01:51.998Z</time></trkpt><trkpt lat="43.38524607293181" lon="13.32477495038494"><ele>175.0</ele><time>2026-04-26T13:01:52.998Z</time></trkpt><trkpt lat="43.385183672569724" lon="13.324881111354582"><ele>175.0</ele><time>2026-04-26T13:01:53.998Z</time></trkpt><trkpt lat="43.38513443537605" lon="13.324978735609305"><ele>175.0</ele><time>2026-04-26T13:01:54.998Z</time></trkpt><trkpt lat="43.385100233092764" lon="13.325075710609545"><ele>175.0</ele><time>2026-04-26T13:01:55.998Z</time></trkpt><trkpt lat="43.385092835674016" lon="13.32517142065824"><ele>175.0</ele><time>2026-04-26T13:01:56.998Z</time></trkpt><trkpt lat="43.38510654690486" lon="13.325266325181492"><ele>175.0</ele><time>2026-04-26T13:01:57.998Z</time></trkpt><trkpt lat="43.38514094878847" lon="13.325364513303528"><ele>175.0</ele><time>2026-04-26T13:01:58.998Z</time></trkpt><trkpt lat="43.38519981356995" lon="13.32546334840503"><ele>175.0</ele><time>2026-04-26T13:01:59.998Z</time></trkpt><trkpt lat="43.38526980648772" lon="13.325562492477278"><ele>175.25</ele><time>2026-04-26T13:02:00.998Z</time></trkpt><trkpt lat="43.38534455572111" lon="13.32567558476075"><ele>175.5</ele><time>2026-04-26T13:02:01.998Z</time></trkpt><trkpt lat="43.385421862715674" lon="13.325801983071335"><ele>175.75</ele><time>2026-04-26T13:02:02.998Z</time></trkpt><trkpt lat="43.38550361684062" lon="13.325940298417592"><ele>176.0</ele><time>2026-04-26T13:02:03.998Z</time></trkpt><trkpt lat="43.38559039995798" lon="13.326077337576276"><ele>177.0</ele><time>2026-04-26T13:02:04.998Z</time></trkpt><trkpt lat="43.38568158300918" lon="13.3262188696251"><ele>178.0</ele><time>2026-04-26T13:02:05.998Z</time></trkpt><trkpt lat="43.3857762115668" lon="13.326369919261372"><ele>179.0</ele><time>2026-04-26T13:02:06.998Z</time></trkpt><trkpt lat="43.385874543656186" lon="13.32652900039463"><ele>180.0</ele><time>2026-04-26T13:02:07.998Z</time></trkpt><trkpt lat="43.38597272763318" lon="13.326691123862359"><ele>180.0</ele><time>2026-04-26T13:02:08.998Z</time></trkpt><trkpt lat="43.38606319323649" lon="13.32684509098045"><ele>180.0</ele><time>2026-04-26T13:02:09.998Z</time></trkpt><trkpt lat="43.386137860499375" lon="13.326986764651163"><ele>180.0</ele><time>2026-04-26T13:02:10.998Z</time></trkpt><trkpt lat="43.38619566852148" lon="13.327121833875232"><ele>180.0</ele><time>2026-04-26T13:02:11.998Z</time></trkpt><trkpt lat="43.386220396707984" lon="13.327250017373084"><ele>179.33333333333334</ele><time>2026-04-26T13:02:12.998Z</time></trkpt><trkpt lat="43.38621687038298" lon="13.32736356961968"><ele>178.66666666666666</ele><time>2026-04-26T13:02:13.998Z</time></trkpt><trkpt lat="43.38618909953883" lon="13.327492673023995"><ele>178.0</ele><time>2026-04-26T13:02:16Z</time></trkpt><trkpt lat="43.38616155568612" lon="13.32757159986008"><ele>177.33333333333331</ele><time>2026-04-26T13:02:20Z</time></trkpt><trkpt lat="43.38623163056264" lon="13.327661286416623"><ele>176.66666666666666</ele><time>2026-04-26T13:02:22Z</time></trkpt><trkpt lat="43.3862725801156" lon="13.32772839402766"><ele>176.0</ele><time>2026-04-26T13:02:23Z</time></trkpt><trkpt lat="43.386323085329245" lon="13.327806536364928"><ele>176.33333333333331</ele><time>2026-04-26T13:02:24Z</time></trkpt><trkpt lat="43.38638693439516" lon="13.327888540297634"><ele>176.66666666666666</ele><time>2026-04-26T13:02:25Z</time></trkpt><trkpt lat="43.38645196256031" lon="13.327973869117319"><ele>177.0</ele><time>2026-04-26T13:02:26Z</time></trkpt><trkpt lat="43.386514848656155" lon="13.328069519897461"><ele>177.33333333333334</ele><time>2026-04-26T13:02:27Z</time></trkpt><trkpt lat="43.38657993844894" lon="13.32815292638483"><ele>177.66666666666669</ele><time>2026-04-26T13:02:28Z</time></trkpt><trkpt lat="43.38664211015744" lon="13.328221749358656"><ele>178.0</ele><time>2026-04-26T13:02:29Z</time></trkpt><trkpt lat="43.38670654790398" lon="13.32827285028383"><ele>178.0</ele><time>2026-04-26T13:02:30Z</time></trkpt><trkpt lat="43.3867758631107" lon="13.328313338985453"><ele>178.0</ele><time>2026-04-26T13:02:31Z</time></trkpt><trkpt lat="43.38684759754356" lon="13.328347935199591"><ele>178.0</ele><time>2026-04-26T13:02:32Z</time></trkpt><trkpt lat="43.386924619662686" lon="13.328384253190126"><ele>178.0</ele><time>2026-04-26T13:02:33Z</time></trkpt><trkpt lat="43.38701070804095" lon="13.328419739853954"><ele>178.0</ele><time>2026-04-26T13:02:34Z</time></trkpt><trkpt lat="43.38709816245284" lon="13.328457539705214"><ele>178.0</ele><time>2026-04-26T13:02:35Z</time></trkpt><trkpt lat="43.38719017881172" lon="13.328498658813638"><ele>177.66666666666669</ele><time>2026-04-26T13:02:36Z</time></trkpt><trkpt lat="43.38727964849691" lon="13.328542066728943"><ele>177.33333333333334</ele><time>2026-04-26T13:02:37Z</time></trkpt><trkpt lat="43.3873650291395" lon="13.328578284742207"><ele>177.0</ele><time>2026-04-26T13:02:38Z</time></trkpt><trkpt lat="43.38744297371618" lon="13.328609374884579"><ele>176.66666666666666</ele><time>2026-04-26T13:02:39Z</time></trkpt><trkpt lat="43.38751550669764" lon="13.328643740711755"><ele>176.33333333333331</ele><time>2026-04-26T13:02:40Z</time></trkpt><trkpt lat="43.387586660459455" lon="13.328677128725435"><ele>176.0</ele><time>2026-04-26T13:02:41Z</time></trkpt><trkpt lat="43.38764940932054" lon="13.328711067101898"><ele>176.0</ele><time>2026-04-26T13:02:42Z</time></trkpt><trkpt lat="43.387713335546195" lon="13.328748615553428"><ele>176.0</ele><time>2026-04-26T13:02:43Z</time></trkpt><trkpt lat="43.38777204040084" lon="13.328792072757478"><ele>176.0</ele><time>2026-04-26T13:02:44Z</time></trkpt><trkpt lat="43.3878283074532" lon="13.328843939077194"><ele>176.0</ele><time>2026-04-26T13:02:45Z</time></trkpt><trkpt lat="43.38788189836518" lon="13.32890055424441"><ele>176.0</ele><time>2026-04-26T13:02:45.999Z</time></trkpt><trkpt lat="43.38793040692051" lon="13.328967142772191"><ele>176.0</ele><time>2026-04-26T13:02:46.999Z</time></trkpt><trkpt lat="43.387978630879715" lon="13.329040603821399"><ele>176.0</ele><time>2026-04-26T13:02:47.999Z</time></trkpt><trkpt lat="43.38802555972126" lon="13.32910992097556"><ele>172.8</ele><time>2026-04-26T13:02:48.999Z</time></trkpt><trkpt lat="43.388076413521304" lon="13.32918692410618"><ele>169.60000000000002</ele><time>2026-04-26T13:02:49.999Z</time></trkpt><trkpt lat="43.3881361382683" lon="13.329277829120503"><ele>166.4</ele><time>2026-04-26T13:02:50.999Z</time></trkpt><trkpt lat="43.38820330240502" lon="13.329378276775332"><ele>163.2</ele><time>2026-04-26T13:02:51.999Z</time></trkpt><trkpt lat="43.38827746255506" lon="13.329483619348311"><ele>160.0</ele><time>2026-04-26T13:02:52.999Z</time></trkpt><trkpt lat="43.38835176163811" lon="13.329593169456361"><ele>160.0</ele><time>2026-04-26T13:02:53.999Z</time></trkpt><trkpt lat="43.38842416184427" lon="13.329702096288129"><ele>160.0</ele><time>2026-04-26T13:02:54.999Z</time></trkpt><trkpt lat="43.38849702032863" lon="13.329809420051348"><ele>160.0</ele><time>2026-04-26T13:02:55.999Z</time></trkpt><trkpt lat="43.38856702457967" lon="13.329913477461938"><ele>160.0</ele><time>2026-04-26T13:02:56.999Z</time></trkpt><trkpt lat="43.38863676004526" lon="13.330014493707717"><ele>160.0</ele><time>2026-04-26T13:02:57.999Z</time></trkpt><trkpt lat="43.38870657306611" lon="13.330113513138834"><ele>158.8</ele><time>2026-04-26T13:02:58.999Z</time></trkpt><trkpt lat="43.38877387450905" lon="13.330211904533332"><ele>157.6</ele><time>2026-04-26T13:02:59.999Z</time></trkpt><trkpt lat="43.388840897622146" lon="13.330308011863771"><ele>156.4</ele><time>2026-04-26T13:03:00.999Z</time></trkpt><trkpt lat="43.38890679021737" lon="13.33040484159016"><ele>155.2</ele><time>2026-04-26T13:03:01.999Z</time></trkpt><trkpt lat="43.38897236894716" lon="13.330502445172117"><ele>154.0</ele><time>2026-04-26T13:03:02.999Z</time></trkpt><trkpt lat="43.38904056718706" lon="13.330600011029052"><ele>151.8</ele><time>2026-04-26T13:03:03.999Z</time></trkpt><trkpt lat="43.38910827769075" lon="13.330701626279797"><ele>149.60000000000002</ele><time>2026-04-26T13:03:04.999Z</time></trkpt><trkpt lat="43.38917926156074" lon="13.330803857774525"><ele>147.4</ele><time>2026-04-26T13:03:05.999Z</time></trkpt><trkpt lat="43.38924917715764" lon="13.330907639473097"><ele>145.20000000000002</ele><time>2026-04-26T13:03:06.999Z</time></trkpt><trkpt lat="43.389321418914015" lon="13.331013571802563"><ele>143.0</ele><time>2026-04-26T13:03:07.999Z</time></trkpt><trkpt lat="43.38939456914441" lon="13.331119797723373"><ele>143.0</ele><time>2026-04-26T13:03:08.999Z</time></trkpt><trkpt lat="43.38946549464362" lon="13.33122295459512"><ele>143.0</ele><time>2026-04-26T13:03:09.999Z</time></trkpt><trkpt lat="43.38953616489813" lon="13.331325652555389"><ele>143.0</ele><time>2026-04-26T13:03:10.999Z</time></trkpt><trkpt lat="43.389606934251645" lon="13.331428253497315"><ele>143.0</ele><time>2026-04-26T13:03:11.999Z</time></trkpt><trkpt lat="43.389676625990184" lon="13.331531758337807"><ele>143.0</ele><time>2026-04-26T13:03:12.999Z</time></trkpt><trkpt lat="43.38974591442121" lon="13.331633756340725"><ele>140.4</ele><time>2026-04-26T13:03:13.999Z</time></trkpt><trkpt lat="43.38981533252263" lon="13.33173300088107"><ele>137.8</ele><time>2026-04-26T13:03:14.999Z</time></trkpt><trkpt lat="43.389885461138014" lon="13.331831001913757"><ele>135.2</ele><time>2026-04-26T13:03:15.999Z</time></trkpt><trkpt lat="43.38995255983002" lon="13.331930891195396"><ele>132.6</ele><time>2026-04-26T13:03:16.999Z</time></trkpt><trkpt lat="43.39002491772197" lon="13.332029467018534"><ele>130.0</ele><time>2026-04-26T13:03:17.999Z</time></trkpt><trkpt lat="43.390091655894864" lon="13.332128171054935"><ele>129.2</ele><time>2026-04-26T13:03:18.999Z</time></trkpt><trkpt lat="43.39016269220275" lon="13.332229823860004"><ele>128.4</ele><time>2026-04-26T13:03:19.999Z</time></trkpt><trkpt lat="43.390233667065594" lon="13.332331288941589"><ele>127.6</ele><time>2026-04-26T13:03:20.999Z</time></trkpt><trkpt lat="43.39030302670415" lon="13.332430895085897"><ele>126.8</ele><time>2026-04-26T13:03:21.999Z</time></trkpt><trkpt lat="43.39037348175225" lon="13.332535105775742"><ele>126.0</ele><time>2026-04-26T13:03:22.999Z</time></trkpt><trkpt lat="43.390443111468166" lon="13.332634598169204"><ele>124.4</ele><time>2026-04-26T13:03:23.999Z</time></trkpt><trkpt lat="43.39051484736661" lon="13.332737776511902"><ele>122.8</ele><time>2026-04-26T13:03:24.999Z</time></trkpt><trkpt lat="43.39058301697509" lon="13.33283905347953"><ele>121.20000000000002</ele><time>2026-04-26T13:03:25.999Z</time></trkpt><trkpt lat="43.39065223880532" lon="13.332941944480062"><ele>119.60000000000001</ele><time>2026-04-26T13:03:26.999Z</time></trkpt><trkpt lat="43.39072684457626" lon="13.333051985404182"><ele>118.0</ele><time>2026-04-26T13:03:27.999Z</time></trkpt><trkpt lat="43.390801035871654" lon="13.333160950321954"><ele>117.80000000000001</ele><time>2026-04-26T13:03:28.999Z</time></trkpt><trkpt lat="43.39087470991538" lon="13.33326613546895"><ele>117.60000000000001</ele><time>2026-04-26T13:03:29.999Z</time></trkpt><trkpt lat="43.39094713503229" lon="13.333373816003052"><ele>117.39999999999999</ele><time>2026-04-26T13:03:30.999Z</time></trkpt><trkpt lat="43.391019993318935" lon="13.333482056000328"><ele>117.19999999999999</ele><time>2026-04-26T13:03:31.999Z</time></trkpt><trkpt lat="43.39109408642474" lon="13.33358882012502"><ele>117.0</ele><time>2026-04-26T13:03:32.999Z</time></trkpt><trkpt lat="43.391163185473275" lon="13.333691210529176"><ele>117.0</ele><time>2026-04-26T13:03:33.999Z</time></trkpt><trkpt lat="43.39122671563393" lon="13.333782834126573"><ele>117.0</ele><time>2026-04-26T13:03:34.999Z</time></trkpt><trkpt lat="43.39128945369496" lon="13.333868089573652"><ele>117.0</ele><time>2026-04-26T13:03:35.999Z</time></trkpt><trkpt lat="43.391352952835824" lon="13.333950256620392"><ele>117.0</ele><time>2026-04-26T13:03:36.999Z</time></trkpt><trkpt lat="43.39142616570886" lon="13.33401866422416"><ele>117.0</ele><time>2026-04-26T13:03:37.999Z</time></trkpt><trkpt lat="43.3915060753617" lon="13.334066925999783"><ele>117.0</ele><time>2026-04-26T13:03:38.999Z</time></trkpt><trkpt lat="43.39159731873164" lon="13.33408573376468"><ele>116.39999999999999</ele><time>2026-04-26T13:03:39.999Z</time></trkpt><trkpt lat="43.39168707269285" lon="13.33408974561641"><ele>115.79999999999998</ele><time>2026-04-26T13:03:40.999Z</time></trkpt><trkpt lat="43.39178178745102" lon="13.334084858808156"><ele>115.2</ele><time>2026-04-26T13:03:41.999Z</time></trkpt><trkpt lat="43.39188427748497" lon="13.334082730463338"><ele>114.6</ele><time>2026-04-26T13:03:42.999Z</time></trkpt><trkpt lat="43.39199507606735" lon="13.334083870455038"><ele>114.0</ele><time>2026-04-26T13:03:43.999Z</time></trkpt><trkpt lat="43.392102735749674" lon="13.334080799206754"><ele>113.4</ele><time>2026-04-26T13:03:44.999Z</time></trkpt><trkpt lat="43.39220554924446" lon="13.334082331853239"><ele>112.80000000000001</ele><time>2026-04-26T13:03:45.999Z</time></trkpt><trkpt lat="43.392307113628455" lon="13.334081844262402"><ele>112.19999999999999</ele><time>2026-04-26T13:03:46.999Z</time></trkpt><trkpt lat="43.39240746690901" lon="13.334087739117408"><ele>111.6</ele><time>2026-04-26T13:03:47.998Z</time></trkpt><trkpt lat="43.39251063367829" lon="13.334094634790635"><ele>111.0</ele><time>2026-04-26T13:03:48.998Z</time></trkpt><trkpt lat="43.39261158630484" lon="13.334103628068878"><ele>111.0</ele><time>2026-04-26T13:03:49.998Z</time></trkpt><trkpt lat="43.392704810757884" lon="13.334120704534056"><ele>111.0</ele><time>2026-04-26T13:03:50.998Z</time></trkpt><trkpt lat="43.3927852058689" lon="13.334161303926978"><ele>111.0</ele><time>2026-04-26T13:03:51.998Z</time></trkpt><trkpt lat="43.39285575614768" lon="13.334222485202835"><ele>111.0</ele><time>2026-04-26T13:03:52.998Z</time></trkpt><trkpt lat="43.39291512228486" lon="13.334295826748077"><ele>111.0</ele><time>2026-04-26T13:03:53.998Z</time></trkpt><trkpt lat="43.392968285775034" lon="13.334363165785437"><ele>111.0</ele><time>2026-04-26T13:03:54.998Z</time></trkpt><trkpt lat="43.39302788630514" lon="13.334427246117649"><ele>109.8</ele><time>2026-04-26T13:03:55.998Z</time></trkpt><trkpt lat="43.393091847273276" lon="13.334496794738627"><ele>108.6</ele><time>2026-04-26T13:03:56.998Z</time></trkpt><trkpt lat="43.39315764702622" lon="13.334573933621394"><ele>107.4</ele><time>2026-04-26T13:03:57.998Z</time></trkpt><trkpt lat="43.39323012564812" lon="13.334655461490811"><ele>106.2</ele><time>2026-04-26T13:03:58.998Z</time></trkpt><trkpt lat="43.39330457119494" lon="13.334736532621516"><ele>105.0</ele><time>2026-04-26T13:03:59.998Z</time></trkpt><trkpt lat="43.39337870238373" lon="13.334815109512025"><ele>105.0</ele><time>2026-04-26T13:04:00.998Z</time></trkpt><trkpt lat="43.393452063683824" lon="13.33488695986866"><ele>105.0</ele><time>2026-04-26T13:04:01.998Z</time></trkpt><trkpt lat="43.39352019137431" lon="13.33496015962113"><ele>105.0</ele><time>2026-04-26T13:04:02.998Z</time></trkpt><trkpt lat="43.39358298550694" lon="13.335029772202907"><ele>105.0</ele><time>2026-04-26T13:04:03.998Z</time></trkpt><trkpt lat="43.3936422967572" lon="13.335098489710619"><ele>105.0</ele><time>2026-04-26T13:04:04.998Z</time></trkpt><trkpt lat="43.3937093999736" lon="13.335152429378343"><ele>105.0</ele><time>2026-04-26T13:04:05.998Z</time></trkpt><trkpt lat="43.393778361873835" lon="13.335185916680942"><ele>104.33333333333333</ele><time>2026-04-26T13:04:06.998Z</time></trkpt><trkpt lat="43.3938532611251" lon="13.335200108248806"><ele>103.66666666666666</ele><time>2026-04-26T13:04:07.998Z</time></trkpt><trkpt lat="43.39393154069293" lon="13.335196433343038"><ele>103.0</ele><time>2026-04-26T13:04:08.998Z</time></trkpt><trkpt lat="43.39401346026428" lon="13.335182170945528"><ele>102.33333333333333</ele><time>2026-04-26T13:04:09.998Z</time></trkpt><trkpt lat="43.39410183187547" lon="13.335167516807914"><ele>101.66666666666666</ele><time>2026-04-26T13:04:10.998Z</time></trkpt><trkpt lat="43.394198980801114" lon="13.335149183142764"><ele>101.0</ele><time>2026-04-26T13:04:11.998Z</time></trkpt><trkpt lat="43.39430549656006" lon="13.335133169987607"><ele>101.0</ele><time>2026-04-26T13:04:12.998Z</time></trkpt><trkpt lat="43.39441896443756" lon="13.33511693104037"><ele>101.0</ele><time>2026-04-26T13:04:13.998Z</time></trkpt><trkpt lat="43.39453763734932" lon="13.335101356587247"><ele>101.0</ele><time>2026-04-26T13:04:14.998Z</time></trkpt><trkpt lat="43.39465964090812" lon="13.335088243344696"><ele>101.0</ele><time>2026-04-26T13:04:15.998Z</time></trkpt><trkpt lat="43.39478398417824" lon="13.335073669191878"><ele>100.75</ele><time>2026-04-26T13:04:16.998Z</time></trkpt><trkpt lat="43.39491208078283" lon="13.335056140136237"><ele>100.5</ele><time>2026-04-26T13:04:17.998Z</time></trkpt><trkpt lat="43.39503708296292" lon="13.335039779069598"><ele>100.25</ele><time>2026-04-26T13:04:18.998Z</time></trkpt><trkpt lat="43.395154801503224" lon="13.335026929327165"><ele>100.0</ele><time>2026-04-26T13:04:19.998Z</time></trkpt><trkpt lat="43.39525914237078" lon="13.335010823222715"><ele>100.00000000000001</ele><time>2026-04-26T13:04:20.998Z</time></trkpt><trkpt lat="43.39534811713394" lon="13.334972190572845"><ele>100.0</ele><time>2026-04-26T13:04:22Z</time></trkpt><trkpt lat="43.39541916672809" lon="13.334909922638166"><ele>100.0</ele><time>2026-04-26T13:04:23Z</time></trkpt><trkpt lat="43.39546480065407" lon="13.334820368945246"><ele>100.0</ele><time>2026-04-26T13:04:24Z</time></trkpt><trkpt lat="43.395500589372965" lon="13.334716105581268"><ele>100.00000000000001</ele><time>2026-04-26T13:04:25Z</time></trkpt><trkpt lat="43.395537952916584" lon="13.334606088786398"><ele>100.0</ele><time>2026-04-26T13:04:26Z</time></trkpt><trkpt lat="43.39557153108726" lon="13.334488001712064"><ele>99.4</ele><time>2026-04-26T13:04:27Z</time></trkpt><trkpt lat="43.39559874660979" lon="13.334380328889749"><ele>98.8</ele><time>2026-04-26T13:04:28Z</time></trkpt><trkpt lat="43.3956285931995" lon="13.334284460266424"><ele>98.19999999999999</ele><time>2026-04-26T13:04:29Z</time></trkpt><trkpt lat="43.3957126010191" lon="13.33419606740851"><ele>97.6</ele><time>2026-04-26T13:04:31Z</time></trkpt><trkpt lat="43.395829236352384" lon="13.334201899241906"><ele>97.0</ele><time>2026-04-26T13:04:33Z</time></trkpt><trkpt lat="43.395947122743685" lon="13.334252837105272"><ele>97.0</ele><time>2026-04-26T13:04:35Z</time></trkpt><trkpt lat="43.396009062063" lon="13.334289240955137"><ele>97.0</ele><time>2026-04-26T13:04:36Z</time></trkpt><trkpt lat="43.396118879818715" lon="13.33431660727903"><ele>97.0</ele><time>2026-04-26T13:04:38Z</time></trkpt><trkpt lat="43.3962068491917" lon="13.33425451166472"><ele>97.0</ele><time>2026-04-26T13:04:40Z</time></trkpt><trkpt lat="43.39626588003727" lon="13.334151823020468"><ele>97.0</ele><time>2026-04-26T13:04:42Z</time></trkpt><trkpt lat="43.396296049412065" lon="13.333987655731365"><ele>97.0</ele><time>2026-04-26T13:04:44Z</time></trkpt><trkpt lat="43.39631233525729" lon="13.333891077358405"><ele>97.0</ele><time>2026-04-26T13:04:45Z</time></trkpt><trkpt lat="43.39633022944634" lon="13.333783638817765"><ele>97.0</ele><time>2026-04-26T13:04:46Z</time></trkpt><trkpt lat="43.39634824463445" lon="13.333675473743"><ele>97.0</ele><time>2026-04-26T13:04:47Z</time></trkpt><trkpt lat="43.39636480303656" lon="13.333576055508603"><ele>97.0</ele><time>2026-04-26T13:04:48Z</time></trkpt><trkpt lat="43.39638513506088" lon="13.333487532177905"><ele>97.0</ele><time>2026-04-26T13:04:49Z</time></trkpt><trkpt lat="43.39641205313604" lon="13.333404907610753"><ele>97.0</ele><time>2026-04-26T13:04:50Z</time></trkpt><trkpt lat="43.396449421682895" lon="13.333323539957354"><ele>97.00000000000001</ele><time>2026-04-26T13:04:51Z</time></trkpt><trkpt lat="43.39651394711719" lon="13.33326639857245"><ele>97.0</ele><time>2026-04-26T13:04:52Z</time></trkpt><trkpt lat="43.3965879272316" lon="13.333230530648907"><ele>97.0</ele><time>2026-04-26T13:04:52.999Z</time></trkpt><trkpt lat="43.39666761515128" lon="13.333203096508631"><ele>97.0</ele><time>2026-04-26T13:04:53.999Z</time></trkpt><trkpt lat="43.3967483658184" lon="13.333175368003646"><ele>97.00000000000001</ele><time>2026-04-26T13:04:54.999Z</time></trkpt><trkpt lat="43.396828418790875" lon="13.33314628694621"><ele>97.0</ele><time>2026-04-26T13:04:55.999Z</time></trkpt><trkpt lat="43.396909906915766" lon="13.333112722981156"><ele>97.0</ele><time>2026-04-26T13:04:56.999Z</time></trkpt><trkpt lat="43.39699783601332" lon="13.333075587569429"><ele>97.0</ele><time>2026-04-26T13:04:57.999Z</time></trkpt><trkpt lat="43.39709461146022" lon="13.333037494613711"><ele>97.0</ele><time>2026-04-26T13:04:58.999Z</time></trkpt><trkpt lat="43.39719676700848" lon="13.332996719504717"><ele>97.0</ele><time>2026-04-26T13:04:59.999Z</time></trkpt><trkpt lat="43.39731142743609" lon="13.332947304745433"><ele>97.0</ele><time>2026-04-26T13:05:00.999Z</time></trkpt><trkpt lat="43.39743061820383" lon="13.332898635408636"><ele>98.5</ele><time>2026-04-26T13:05:01.999Z</time></trkpt><trkpt lat="43.39755280693213" lon="13.332849734679424"><ele>100.0</ele><time>2026-04-26T13:05:02.999Z</time></trkpt><trkpt lat="43.39767733156063" lon="13.332803511436563"><ele>101.5</ele><time>2026-04-26T13:05:03.999Z</time></trkpt><trkpt lat="43.39780060985542" lon="13.332758686515339"><ele>103.0</ele><time>2026-04-26T13:05:04.999Z</time></trkpt><trkpt lat="43.397919169191546" lon="13.332715815636764"><ele>105.0</ele><time>2026-04-26T13:05:05.999Z</time></trkpt><trkpt lat="43.39802552792512" lon="13.332666820332639"><ele>107.0</ele><time>2026-04-26T13:05:06.999Z</time></trkpt><trkpt lat="43.39811994694969" lon="13.332606955004044"><ele>109.00000000000001</ele><time>2026-04-26T13:05:07.999Z</time></trkpt><trkpt lat="43.39820143112245" lon="13.332531014936492"><ele>111.0</ele><time>2026-04-26T13:05:08.999Z</time></trkpt><trkpt lat="43.398271372655735" lon="13.332437546017443"><ele>113.0</ele><time>2026-04-26T13:05:09.999Z</time></trkpt><trkpt lat="43.398328866641585" lon="13.332342086151503"><ele>113.0</ele><time>2026-04-26T13:05:10.999Z</time></trkpt><trkpt lat="43.39837983657907" lon="13.33224339849144"><ele>113.00000000000001</ele><time>2026-04-26T13:05:11.999Z</time></trkpt><trkpt lat="43.398456030645086" lon="13.332157139734434"><ele>113.00000000000001</ele><time>2026-04-26T13:05:12.999Z</time></trkpt><trkpt lat="43.39852441449334" lon="13.332050728514652"><ele>113.0</ele><time>2026-04-26T13:05:13.999Z</time></trkpt><trkpt lat="43.398596256677834" lon="13.331941312483627"><ele>113.0</ele><time>2026-04-26T13:05:14.999Z</time></trkpt><trkpt lat="43.398671544001935" lon="13.331828054627225"><ele>114.4</ele><time>2026-04-26T13:05:15.999Z</time></trkpt><trkpt lat="43.39873652668675" lon="13.331721141574025"><ele>115.80000000000001</ele><time>2026-04-26T13:05:16.999Z</time></trkpt><trkpt lat="43.398779485192335" lon="13.331625025250755"><ele>117.2</ele><time>2026-04-26T13:05:17.999Z</time></trkpt><trkpt lat="43.398890084255356" lon="13.331593029247633"><ele>118.6</ele><time>2026-04-26T13:05:19.999Z</time></trkpt><trkpt lat="43.39899763324171" lon="13.331646055039368"><ele>120.0</ele><time>2026-04-26T13:05:21.999Z</time></trkpt><trkpt lat="43.399083081737274" lon="13.331740071375387"><ele>121.4</ele><time>2026-04-26T13:05:23.999Z</time></trkpt><trkpt lat="43.399134788032285" lon="13.33182274536709"><ele>122.8</ele><time>2026-04-26T13:05:24.999Z</time></trkpt><trkpt lat="43.39919620256281" lon="13.33193269899688"><ele>124.19999999999999</ele><time>2026-04-26T13:05:25.999Z</time></trkpt><trkpt lat="43.39926341196702" lon="13.332043304807982"><ele>125.6</ele><time>2026-04-26T13:05:26.999Z</time></trkpt><trkpt lat="43.39933630362834" lon="13.332151412381462"><ele>127.0</ele><time>2026-04-26T13:05:27.999Z</time></trkpt><trkpt lat="43.39941856276635" lon="13.332276703410608"><ele>127.0</ele><time>2026-04-26T13:05:28.999Z</time></trkpt><trkpt lat="43.39950449772013" lon="13.33241574751702"><ele>127.0</ele><time>2026-04-26T13:05:29.999Z</time></trkpt><trkpt lat="43.3995950653219" lon="13.33256065236663"><ele>127.0</ele><time>2026-04-26T13:05:30.999Z</time></trkpt><trkpt lat="43.399685719614865" lon="13.332701402843135"><ele>127.0</ele><time>2026-04-26T13:05:31.999Z</time></trkpt><trkpt lat="43.39978046240022" lon="13.332845864127275"><ele>127.0</ele><time>2026-04-26T13:05:32.999Z</time></trkpt><trkpt lat="43.39988384901577" lon="13.33300305560184"><ele>127.0</ele><time>2026-04-26T13:05:33.999Z</time></trkpt><trkpt lat="43.39998844671507" lon="13.33316318384854"><ele>127.0</ele><time>2026-04-26T13:05:34.999Z</time></trkpt><trkpt lat="43.40010194339091" lon="13.333337064897005"><ele>126.66666666666667</ele><time>2026-04-26T13:05:35.999Z</time></trkpt><trkpt lat="43.400214239569195" lon="13.333513071855567"><ele>126.33333333333334</ele><time>2026-04-26T13:05:36.999Z</time></trkpt><trkpt lat="43.40032832318623" lon="13.333685450084548"><ele>126.0</ele><time>2026-04-26T13:05:37.999Z</time></trkpt><trkpt lat="43.400445529191515" lon="13.33386190324388"><ele>125.33333333333334</ele><time>2026-04-26T13:05:38.999Z</time></trkpt><trkpt lat="43.40056229742969" lon="13.334042656950315"><ele>124.66666666666667</ele><time>2026-04-26T13:05:39.999Z</time></trkpt><trkpt lat="43.40067963458838" lon="13.33422668437137"><ele>124.0</ele><time>2026-04-26T13:05:40.999Z</time></trkpt><trkpt lat="43.40079782861889" lon="13.334410397864252"><ele>124.0</ele><time>2026-04-26T13:05:41.999Z</time></trkpt><trkpt lat="43.40091917725104" lon="13.334598750702648"><ele>124.0</ele><time>2026-04-26T13:05:42.999Z</time></trkpt><trkpt lat="43.40104363677515" lon="13.334787482265813"><ele>124.0</ele><time>2026-04-26T13:05:43.999Z</time></trkpt><trkpt lat="43.401170685371554" lon="13.334979089389957"><ele>123.0</ele><time>2026-04-26T13:05:44.999Z</time></trkpt><trkpt lat="43.40129184409276" lon="13.335166451406256"><ele>122.0</ele><time>2026-04-26T13:05:45.999Z</time></trkpt><trkpt lat="43.40140512023356" lon="13.335344320628378"><ele>121.0</ele><time>2026-04-26T13:05:46.999Z</time></trkpt><trkpt lat="43.4015094882216" lon="13.335507286735542"><ele>121.0</ele><time>2026-04-26T13:05:47.999Z</time></trkpt><trkpt lat="43.40160795625888" lon="13.335670236772941"><ele>121.0</ele><time>2026-04-26T13:05:48.999Z</time></trkpt><trkpt lat="43.40169994354735" lon="13.335825216026517"><ele>121.0</ele><time>2026-04-26T13:05:49.999Z</time></trkpt><trkpt lat="43.40178981257152" lon="13.335974845902937"><ele>121.0</ele><time>2026-04-26T13:05:50.999Z</time></trkpt><trkpt lat="43.40187635968533" lon="13.336120046868688"><ele>121.0</ele><time>2026-04-26T13:05:51.999Z</time></trkpt><trkpt lat="43.40195943335718" lon="13.336260569106782"><ele>121.0</ele><time>2026-04-26T13:05:52.999Z</time></trkpt><trkpt lat="43.40204320581917" lon="13.336404286263722"><ele>121.0</ele><time>2026-04-26T13:05:53.999Z</time></trkpt><trkpt lat="43.40212957955374" lon="13.336557640265983"><ele>121.0</ele><time>2026-04-26T13:05:54.998Z</time></trkpt><trkpt lat="43.402216604335315" lon="13.336729232324995"><ele>121.0</ele><time>2026-04-26T13:05:55.998Z</time></trkpt><trkpt lat="43.40229560580598" lon="13.336912258666487"><ele>121.0</ele><time>2026-04-26T13:05:56.998Z</time></trkpt><trkpt lat="43.40237012221286" lon="13.337114145291128"><ele>121.0</ele><time>2026-04-26T13:05:57.998Z</time></trkpt><trkpt lat="43.402433209399874" lon="13.337327486862531"><ele>120.66666666666667</ele><time>2026-04-26T13:05:58.998Z</time></trkpt><trkpt lat="43.40248488989121" lon="13.337535621645317"><ele>120.33333333333334</ele><time>2026-04-26T13:05:59.998Z</time></trkpt><trkpt lat="43.40252926537659" lon="13.337738489550192"><ele>120.0</ele><time>2026-04-26T13:06:00.998Z</time></trkpt><trkpt lat="43.402574906449466" lon="13.337933018583653"><ele>119.4</ele><time>2026-04-26T13:06:01.998Z</time></trkpt><trkpt lat="43.402618131509605" lon="13.338109220563249"><ele>118.8</ele><time>2026-04-26T13:06:02.998Z</time></trkpt><trkpt lat="43.40266018788805" lon="13.338248092786335"><ele>118.19999999999999</ele><time>2026-04-26T13:06:03.998Z</time></trkpt><trkpt lat="43.40269543064819" lon="13.33834991840283"><ele>117.6</ele><time>2026-04-26T13:06:04.998Z</time></trkpt><trkpt lat="43.402740376554775" lon="13.338471281277936"><ele>117.0</ele><time>2026-04-26T13:06:06.998Z</time></trkpt><trkpt lat="43.40289897311167" lon="13.33843639964241"><ele>117.0</ele><time>2026-04-26T13:06:08.998Z</time></trkpt><trkpt lat="43.40297640664667" lon="13.338399550093895"><ele>117.0</ele><time>2026-04-26T13:06:09.998Z</time></trkpt><trkpt lat="43.403053184665374" lon="13.338364591240742"><ele>117.0</ele><time>2026-04-26T13:06:10.998Z</time></trkpt><trkpt lat="43.40313641841962" lon="13.338320045194989"><ele>117.0</ele><time>2026-04-26T13:06:11.998Z</time></trkpt><trkpt lat="43.403222040504225" lon="13.338281772181393"><ele>117.0</ele><time>2026-04-26T13:06:12.998Z</time></trkpt><trkpt lat="43.40332143546781" lon="13.338247077451562"><ele>117.0</ele><time>2026-04-26T13:06:13.998Z</time></trkpt><trkpt lat="43.403428633774986" lon="13.338209842626044"><ele>118.75</ele><time>2026-04-26T13:06:14.998Z</time></trkpt><trkpt lat="43.40353832455089" lon="13.338170643303785"><ele>120.5</ele><time>2026-04-26T13:06:15.998Z</time></trkpt><trkpt lat="43.403651692460436" lon="13.338128791269192"><ele>122.25</ele><time>2026-04-26T13:06:16.998Z</time></trkpt><trkpt lat="43.403767218145795" lon="13.338080398149094"><ele>124.0</ele><time>2026-04-26T13:06:17.998Z</time></trkpt><trkpt lat="43.40387146263512" lon="13.338016697495656"><ele>124.75</ele><time>2026-04-26T13:06:18.998Z</time></trkpt><trkpt lat="43.40396080900774" lon="13.337929814211115"><ele>125.5</ele><time>2026-04-26T13:06:19.998Z</time></trkpt><trkpt lat="43.404046012108935" lon="13.337817206538729"><ele>126.25</ele><time>2026-04-26T13:06:20.998Z</time></trkpt><trkpt lat="43.40409028554583" lon="13.337649092016537"><ele>127.0</ele><time>2026-04-26T13:06:21.998Z</time></trkpt><trkpt lat="43.404137123069674" lon="13.337483617803375"><ele>127.0</ele><time>2026-04-26T13:06:22.998Z</time></trkpt><trkpt lat="43.40419869684374" lon="13.337320575994235"><ele>127.0</ele><time>2026-04-26T13:06:23.998Z</time></trkpt><trkpt lat="43.40424543172596" lon="13.33714437822234"><ele>127.0</ele><time>2026-04-26T13:06:24.998Z</time></trkpt><trkpt lat="43.404297649446356" lon="13.336960584172358"><ele>127.0</ele><time>2026-04-26T13:06:25.998Z</time></trkpt><trkpt lat="43.40435264571206" lon="13.336767010249547"><ele>127.0</ele><time>2026-04-26T13:06:27Z</time></trkpt><trkpt lat="43.404408712136146" lon="13.336564789361324"><ele>127.0</ele><time>2026-04-26T13:06:28Z</time></trkpt><trkpt lat="43.404465308642386" lon="13.336360288369905"><ele>127.0</ele><time>2026-04-26T13:06:29Z</time></trkpt><trkpt lat="43.40452334483417" lon="13.336150585619416"><ele>127.33333333333334</ele><time>2026-04-26T13:06:30Z</time></trkpt><trkpt lat="43.40458179064162" lon="13.33593940262769"><ele>127.66666666666666</ele><time>2026-04-26T13:06:31Z</time></trkpt><trkpt lat="43.40463661792939" lon="13.33573680613363"><ele>128.0</ele><time>2026-04-26T13:06:32Z</time></trkpt><trkpt lat="43.404691086203925" lon="13.335531140161871"><ele>129.33333333333331</ele><time>2026-04-26T13:06:33Z</time></trkpt><trkpt lat="43.40474796266816" lon="13.335316381175081"><ele>130.66666666666666</ele><time>2026-04-26T13:06:34Z</time></trkpt><trkpt lat="43.40480568316337" lon="13.335098435192805"><ele>132.0</ele><time>2026-04-26T13:06:35Z</time></trkpt><trkpt lat="43.40486413476884" lon="13.334880457500367"><ele>134.0</ele><time>2026-04-26T13:06:36Z</time></trkpt><trkpt lat="43.404924254885046" lon="13.334658576788986"><ele>136.0</ele><time>2026-04-26T13:06:37Z</time></trkpt><trkpt lat="43.404985310950906" lon="13.334442039898368"><ele>138.0</ele><time>2026-04-26T13:06:38Z</time></trkpt><trkpt lat="43.40504694724064" lon="13.334225315489162"><ele>138.0</ele><time>2026-04-26T13:06:39Z</time></trkpt><trkpt lat="43.405102945138104" lon="13.33401080261578"><ele>138.0</ele><time>2026-04-26T13:06:40Z</time></trkpt><trkpt lat="43.405158904947065" lon="13.333793123452663"><ele>138.0</ele><time>2026-04-26T13:06:41Z</time></trkpt><trkpt lat="43.40521384430286" lon="13.333579413700877"><ele>140.66666666666666</ele><time>2026-04-26T13:06:42Z</time></trkpt><trkpt lat="43.40526970969817" lon="13.3333707528714"><ele>143.33333333333331</ele><time>2026-04-26T13:06:43Z</time></trkpt><trkpt lat="43.40532892514261" lon="13.333165481385853"><ele>146.0</ele><time>2026-04-26T13:06:44Z</time></trkpt><trkpt lat="43.405400529524044" lon="13.332978404531353"><ele>149.33333333333331</ele><time>2026-04-26T13:06:45Z</time></trkpt><trkpt lat="43.405484778704356" lon="13.332807958954314"><ele>152.66666666666666</ele><time>2026-04-26T13:06:46Z</time></trkpt><trkpt lat="43.40558742010614" lon="13.332655242405055"><ele>156.0</ele><time>2026-04-26T13:06:47Z</time></trkpt><trkpt lat="43.40567904966771" lon="13.332487489601027"><ele>156.0</ele><time>2026-04-26T13:06:48Z</time></trkpt><trkpt lat="43.405782035209135" lon="13.332335169196117"><ele>156.0</ele><time>2026-04-26T13:06:49Z</time></trkpt><trkpt lat="43.40587923419379" lon="13.332173916764782"><ele>156.0</ele><time>2026-04-26T13:06:50Z</time></trkpt><trkpt lat="43.40597501174257" lon="13.332008508438836"><ele>158.66666666666666</ele><time>2026-04-26T13:06:51Z</time></trkpt><trkpt lat="43.406076161060774" lon="13.331842011641687"><ele>161.33333333333331</ele><time>2026-04-26T13:06:52Z</time></trkpt><trkpt lat="43.40619628836841" lon="13.331686010185345"><ele>164.0</ele><time>2026-04-26T13:06:53Z</time></trkpt><trkpt lat="43.40630925931714" lon="13.33150976718267"><ele>163.0</ele><time>2026-04-26T13:06:54Z</time></trkpt><trkpt lat="43.40642335484311" lon="13.331331368436304"><ele>162.0</ele><time>2026-04-26T13:06:54.999Z</time></trkpt><trkpt lat="43.4065275457849" lon="13.331135131940341"><ele>161.0</ele><time>2026-04-26T13:06:55.999Z</time></trkpt><trkpt lat="43.40664828977673" lon="13.330966322231255"><ele>161.0</ele><time>2026-04-26T13:06:56.999Z</time></trkpt><trkpt lat="43.40675969711383" lon="13.330785963070277"><ele>161.0</ele><time>2026-04-26T13:06:57.999Z</time></trkpt><trkpt lat="43.4068743312895" lon="13.33061176011914"><ele>161.0</ele><time>2026-04-26T13:06:58.999Z</time></trkpt><trkpt lat="43.406979612376105" lon="13.330445515216114"><ele>160.75</ele><time>2026-04-26T13:06:59.999Z</time></trkpt><trkpt lat="43.40709539249276" lon="13.330300208497658"><ele>160.5</ele><time>2026-04-26T13:07:00.999Z</time></trkpt><trkpt lat="43.407194928571215" lon="13.330148613989639"><ele>160.25</ele><time>2026-04-26T13:07:01.999Z</time></trkpt><trkpt lat="43.40729110989294" lon="13.330002111925412"><ele>160.0</ele><time>2026-04-26T13:07:02.999Z</time></trkpt><trkpt lat="43.40738486706897" lon="13.329859302160198"><ele>160.0</ele><time>2026-04-26T13:07:03.999Z</time></trkpt><trkpt lat="43.407481146441945" lon="13.329712650838305"><ele>160.0</ele><time>2026-04-26T13:07:04.999Z</time></trkpt><trkpt lat="43.407578710104005" lon="13.32956404320618"><ele>160.0</ele><time>2026-04-26T13:07:05.999Z</time></trkpt><trkpt lat="43.40767954950668" lon="13.329414235476992"><ele>160.0</ele><time>2026-04-26T13:07:06.999Z</time></trkpt><trkpt lat="43.40777500190128" lon="13.329250046846221"><ele>160.0</ele><time>2026-04-26T13:07:07.999Z</time></trkpt><trkpt lat="43.4078934558864" lon="13.329107516733878"><ele>160.0</ele><time>2026-04-26T13:07:08.999Z</time></trkpt><trkpt lat="43.40801892292697" lon="13.328972503217118"><ele>160.0</ele><time>2026-04-26T13:07:09.999Z</time></trkpt><trkpt lat="43.408153343363466" lon="13.328846803228606"><ele>159.66666666666669</ele><time>2026-04-26T13:07:10.999Z</time></trkpt><trkpt lat="43.40828810276205" lon="13.32872044053622"><ele>159.33333333333334</ele><time>2026-04-26T13:07:11.999Z</time></trkpt><trkpt lat="43.40842153753876" lon="13.328594840720914"><ele>159.0</ele><time>2026-04-26T13:07:12.999Z</time></trkpt><trkpt lat="43.408557673891764" lon="13.328469039644752"><ele>159.0</ele><time>2026-04-26T13:07:13.999Z</time></trkpt><trkpt lat="43.40869282260376" lon="13.328342580049139"><ele>159.0</ele><time>2026-04-26T13:07:14.999Z</time></trkpt><trkpt lat="43.40882961112009" lon="13.32820856880099"><ele>159.0</ele><time>2026-04-26T13:07:15.999Z</time></trkpt><trkpt lat="43.40898148522713" lon="13.328090120908051"><ele>159.0</ele><time>2026-04-26T13:07:16.999Z</time></trkpt><trkpt lat="43.40912632679113" lon="13.327956580834028"><ele>159.0</ele><time>2026-04-26T13:07:17.999Z</time></trkpt><trkpt lat="43.409274419510815" lon="13.327820055777304"><ele>159.0</ele><time>2026-04-26T13:07:18.999Z</time></trkpt><trkpt lat="43.40942224924853" lon="13.32768377310342"><ele>159.0</ele><time>2026-04-26T13:07:19.999Z</time></trkpt><trkpt lat="43.40957060181845" lon="13.32754700846402"><ele>159.0</ele><time>2026-04-26T13:07:20.999Z</time></trkpt><trkpt lat="43.40971943335733" lon="13.327409254510359"><ele>159.0</ele><time>2026-04-26T13:07:21.999Z</time></trkpt><trkpt lat="43.409857774265774" lon="13.327251473643129"><ele>159.66666666666666</ele><time>2026-04-26T13:07:22.999Z</time></trkpt><trkpt lat="43.4100182053816" lon="13.327128230476161"><ele>160.33333333333331</ele><time>2026-04-26T13:07:23.999Z</time></trkpt><trkpt lat="43.41016719217303" lon="13.326988093906605"><ele>161.0</ele><time>2026-04-26T13:07:24.999Z</time></trkpt><trkpt lat="43.4103172805387" lon="13.326846921254587"><ele>161.0</ele><time>2026-04-26T13:07:25.999Z</time></trkpt><trkpt lat="43.4104653607581" lon="13.326708026758897"><ele>161.0</ele><time>2026-04-26T13:07:26.999Z</time></trkpt><trkpt lat="43.41059967572507" lon="13.32656045655031"><ele>161.0</ele><time>2026-04-26T13:07:27.999Z</time></trkpt><trkpt lat="43.410738499994366" lon="13.326440235930177"><ele>163.33333333333331</ele><time>2026-04-26T13:07:28.999Z</time></trkpt><trkpt lat="43.41087404949911" lon="13.32631671326172"><ele>165.66666666666666</ele><time>2026-04-26T13:07:29.999Z</time></trkpt><trkpt lat="43.41100368143369" lon="13.32619425490884"><ele>168.0</ele><time>2026-04-26T13:07:30.999Z</time></trkpt><trkpt lat="43.4111296141775" lon="13.326073257367929"><ele>168.0</ele><time>2026-04-26T13:07:31.999Z</time></trkpt><trkpt lat="43.411256497979586" lon="13.325953318224627"><ele>168.0</ele><time>2026-04-26T13:07:32.999Z</time></trkpt><trkpt lat="43.411378227582524" lon="13.32583839391294"><ele>168.0</ele><time>2026-04-26T13:07:33.999Z</time></trkpt><trkpt lat="43.411512054998184" lon="13.325741951369764"><ele>168.33333333333334</ele><time>2026-04-26T13:07:34.999Z</time></trkpt><trkpt lat="43.411640332697395" lon="13.325621707334447"><ele>168.66666666666669</ele><time>2026-04-26T13:07:35.999Z</time></trkpt><trkpt lat="43.41176059733957" lon="13.325479180948882"><ele>169.0</ele><time>2026-04-26T13:07:36.999Z</time></trkpt><trkpt lat="43.411905426610645" lon="13.325367544811465"><ele>168.0</ele><time>2026-04-26T13:07:37.999Z</time></trkpt><trkpt lat="43.41204737935887" lon="13.325230740029228"><ele>167.0</ele><time>2026-04-26T13:07:38.999Z</time></trkpt><trkpt lat="43.41219925763489" lon="13.325085425070506"><ele>166.0</ele><time>2026-04-26T13:07:39.999Z</time></trkpt><trkpt lat="43.41234651388926" lon="13.3249206352169"><ele>165.66666666666669</ele><time>2026-04-26T13:07:40.999Z</time></trkpt><trkpt lat="43.412508921043006" lon="13.324768926393354"><ele>165.33333333333334</ele><time>2026-04-26T13:07:41.999Z</time></trkpt><trkpt lat="43.41267156836305" lon="13.324614640526354"><ele>165.0</ele><time>2026-04-26T13:07:42.999Z</time></trkpt><trkpt lat="43.412832811492166" lon="13.32445973866062"><ele>164.66666666666666</ele><time>2026-04-26T13:07:43.999Z</time></trkpt><trkpt lat="43.41299080382834" lon="13.32430847922384"><ele>164.33333333333331</ele><time>2026-04-26T13:07:44.999Z</time></trkpt><trkpt lat="43.41314603647805" lon="13.324159957949696"><ele>164.0</ele><time>2026-04-26T13:07:45.999Z</time></trkpt><trkpt lat="43.41331576935778" lon="13.324026481930765"><ele>163.33333333333331</ele><time>2026-04-26T13:07:46.999Z</time></trkpt><trkpt lat="43.41348061361762" lon="13.323873722063453"><ele>162.66666666666666</ele><time>2026-04-26T13:07:47.999Z</time></trkpt><trkpt lat="43.413635268478735" lon="13.323709774896026"><ele>162.0</ele><time>2026-04-26T13:07:48.999Z</time></trkpt><trkpt lat="43.41378811083311" lon="13.323578021175146"><ele>164.0</ele><time>2026-04-26T13:07:49.999Z</time></trkpt><trkpt lat="43.41390987986877" lon="13.323468051345808"><ele>166.0</ele><time>2026-04-26T13:07:50.999Z</time></trkpt><trkpt lat="43.41402395641946" lon="13.323363884520099"><ele>168.0</ele><time>2026-04-26T13:07:51.999Z</time></trkpt><trkpt lat="43.41413748858773" lon="13.323260406860998"><ele>170.0</ele><time>2026-04-26T13:07:52.999Z</time></trkpt><trkpt lat="43.41425186178246" lon="13.323152270045666"><ele>170.75</ele><time>2026-04-26T13:07:53.999Z</time></trkpt><trkpt lat="43.41436498768899" lon="13.323044139890632"><ele>171.5</ele><time>2026-04-26T13:07:54.998Z</time></trkpt><trkpt lat="43.41447905952236" lon="13.322934420018276"><ele>172.25</ele><time>2026-04-26T13:07:55.998Z</time></trkpt><trkpt lat="43.41459522624658" lon="13.322823564515156"><ele>173.0</ele><time>2026-04-26T13:07:56.998Z</time></trkpt><trkpt lat="43.41471455720075" lon="13.322709475327617"><ele>175.0</ele><time>2026-04-26T13:07:57.998Z</time></trkpt><trkpt lat="43.414825457556304" lon="13.322608571303475"><ele>177.0</ele><time>2026-04-26T13:07:58.998Z</time></trkpt><trkpt lat="43.41493266285748" lon="13.322506770676492"><ele>179.0</ele><time>2026-04-26T13:07:59.998Z</time></trkpt><trkpt lat="43.4150301308726" lon="13.322413177788984"><ele>181.0</ele><time>2026-04-26T13:08:00.998Z</time></trkpt><trkpt lat="43.41511432402126" lon="13.322336258501407"><ele>181.0</ele><time>2026-04-26T13:08:01.998Z</time></trkpt><trkpt lat="43.415196437480766" lon="13.322260391055192"><ele>181.0</ele><time>2026-04-26T13:08:02.998Z</time></trkpt><trkpt lat="43.41528278274322" lon="13.322181510094273"><ele>181.0</ele><time>2026-04-26T13:08:03.998Z</time></trkpt><trkpt lat="43.41537395883041" lon="13.322090642119683"><ele>181.0</ele><time>2026-04-26T13:08:04.998Z</time></trkpt><trkpt lat="43.415472173281444" lon="13.321993633192644"><ele>181.0</ele><time>2026-04-26T13:08:05.998Z</time></trkpt><trkpt lat="43.415580591904465" lon="13.321893932704608"><ele>182.0</ele><time>2026-04-26T13:08:06.998Z</time></trkpt><trkpt lat="43.41569402032629" lon="13.321789398940904"><ele>183.0</ele><time>2026-04-26T13:08:07.998Z</time></trkpt><trkpt lat="43.41580633485734" lon="13.321682373093195"><ele>184.0</ele><time>2026-04-26T13:08:08.998Z</time></trkpt><trkpt lat="43.41590413886907" lon="13.321589709759492"><ele>185.0</ele><time>2026-04-26T13:08:09.998Z</time></trkpt><trkpt lat="43.41599379856926" lon="13.32151319009797"><ele>185.0</ele><time>2026-04-26T13:08:10.998Z</time></trkpt><trkpt lat="43.4160798268598" lon="13.32145632140256"><ele>185.0</ele><time>2026-04-26T13:08:11.998Z</time></trkpt><trkpt lat="43.416158391195985" lon="13.32144709364192"><ele>185.0</ele><time>2026-04-26T13:08:12.998Z</time></trkpt><trkpt lat="43.416240990813236" lon="13.321476631507"><ele>185.0</ele><time>2026-04-26T13:08:13.998Z</time></trkpt><trkpt lat="43.41632644208249" lon="13.321532297098242"><ele>185.0</ele><time>2026-04-26T13:08:14.998Z</time></trkpt><trkpt lat="43.41641888038332" lon="13.321589673672293"><ele>184.5</ele><time>2026-04-26T13:08:15.998Z</time></trkpt><trkpt lat="43.41652254922419" lon="13.32163799351779"><ele>184.0</ele><time>2026-04-26T13:08:16.998Z</time></trkpt><trkpt lat="43.416639611915414" lon="13.321679329172824"><ele>183.5</ele><time>2026-04-26T13:08:17.998Z</time></trkpt><trkpt lat="43.416767967020434" lon="13.321718996764528"><ele>183.0</ele><time>2026-04-26T13:08:18.998Z</time></trkpt><trkpt lat="43.41689975719088" lon="13.321753685313196"><ele>183.0</ele><time>2026-04-26T13:08:19.998Z</time></trkpt><trkpt lat="43.41704124743476" lon="13.321785777660933"><ele>183.0</ele><time>2026-04-26T13:08:20.998Z</time></trkpt><trkpt lat="43.41719319345606" lon="13.321814313502518"><ele>183.0</ele><time>2026-04-26T13:08:21.998Z</time></trkpt><trkpt lat="43.41735268796022" lon="13.32184457660215"><ele>182.33333333333334</ele><time>2026-04-26T13:08:22.998Z</time></trkpt><trkpt lat="43.41752031132202" lon="13.321871650829076"><ele>181.66666666666669</ele><time>2026-04-26T13:08:23.998Z</time></trkpt><trkpt lat="43.4176933970578" lon="13.3218901293076"><ele>181.0</ele><time>2026-04-26T13:08:24.998Z</time></trkpt><trkpt lat="43.4178715999917" lon="13.321890245803289"><ele>181.33333333333334</ele><time>2026-04-26T13:08:25.998Z</time></trkpt><trkpt lat="43.418042556940776" lon="13.321876856247995"><ele>181.66666666666666</ele><time>2026-04-26T13:08:26.998Z</time></trkpt><trkpt lat="43.418210374944465" lon="13.321858261103463"><ele>182.0</ele><time>2026-04-26T13:08:27.998Z</time></trkpt><trkpt lat="43.41838293703622" lon="13.321845594308684"><ele>182.0</ele><time>2026-04-26T13:08:28.998Z</time></trkpt><trkpt lat="43.41855854867106" lon="13.321831184798064"><ele>182.0</ele><time>2026-04-26T13:08:29.998Z</time></trkpt><trkpt lat="43.418735435380405" lon="13.321814107826892"><ele>182.0</ele><time>2026-04-26T13:08:30.998Z</time></trkpt><trkpt lat="43.41891338371108" lon="13.321787941419307"><ele>182.66666666666666</ele><time>2026-04-26T13:08:31.998Z</time></trkpt><trkpt lat="43.419085086526266" lon="13.321756338864619"><ele>183.33333333333334</ele><time>2026-04-26T13:08:33Z</time></trkpt><trkpt lat="43.41926138502914" lon="13.321718835622788"><ele>184.0</ele><time>2026-04-26T13:08:34Z</time></trkpt><trkpt lat="43.419439928856576" lon="13.321678174478105"><ele>184.0</ele><time>2026-04-26T13:08:35Z</time></trkpt><trkpt lat="43.41962010313289" lon="13.321630471038455"><ele>184.0</ele><time>2026-04-26T13:08:36Z</time></trkpt><trkpt lat="43.419810210108935" lon="13.321577167727378"><ele>184.0</ele><time>2026-04-26T13:08:37Z</time></trkpt><trkpt lat="43.42000674825428" lon="13.321525878821655"><ele>184.66666666666669</ele><time>2026-04-26T13:08:38Z</time></trkpt><trkpt lat="43.420140759003786" lon="13.321494356959745"><ele>185.33333333333334</ele><time>2026-04-26T13:08:39Z</time></trkpt><trkpt lat="43.420300498527645" lon="13.321437469684415"><ele>186.0</ele><time>2026-04-26T13:08:40Z</time></trkpt><trkpt lat="43.42044851053882" lon="13.321376981179906"><ele>187.33333333333334</ele><time>2026-04-26T13:08:41Z</time></trkpt><trkpt lat="43.42059576662877" lon="13.321306014382275"><ele>188.66666666666669</ele><time>2026-04-26T13:08:42Z</time></trkpt><trkpt lat="43.420741327824786" lon="13.32122660773849"><ele>190.0</ele><time>2026-04-26T13:08:43Z</time></trkpt><trkpt lat="43.42088829199159" lon="13.32113570034831"><ele>190.0</ele><time>2026-04-26T13:08:44Z</time></trkpt><trkpt lat="43.42103326267255" lon="13.321039104292748"><ele>190.0</ele><time>2026-04-26T13:08:45Z</time></trkpt><trkpt lat="43.42117939538694" lon="13.320942768595945"><ele>190.0</ele><time>2026-04-26T13:08:46Z</time></trkpt><trkpt lat="43.421329797582196" lon="13.320853460105791"><ele>189.33333333333334</ele><time>2026-04-26T13:08:47Z</time></trkpt><trkpt lat="43.42147913165433" lon="13.320760290078164"><ele>188.66666666666666</ele><time>2026-04-26T13:08:48Z</time></trkpt><trkpt lat="43.42162526838717" lon="13.320669882068195"><ele>188.0</ele><time>2026-04-26T13:08:49Z</time></trkpt><trkpt lat="43.42176968703268" lon="13.320575698053931"><ele>189.0</ele><time>2026-04-26T13:08:50Z</time></trkpt><trkpt lat="43.421910153060495" lon="13.320480546182779"><ele>190.0</ele><time>2026-04-26T13:08:51Z</time></trkpt><trkpt lat="43.422043139605925" lon="13.320392469360515"><ele>191.0</ele><time>2026-04-26T13:08:52Z</time></trkpt><trkpt lat="43.42217676910436" lon="13.320320012205412"><ele>192.0</ele><time>2026-04-26T13:08:53Z</time></trkpt><trkpt lat="43.42231462127064" lon="13.320282392147876"><ele>192.25</ele><time>2026-04-26T13:08:54Z</time></trkpt><trkpt lat="43.42241149634528" lon="13.320206567651613"><ele>192.5</ele><time>2026-04-26T13:08:55Z</time></trkpt><trkpt lat="43.42255686726519" lon="13.3204046251634"><ele>192.75</ele><time>2026-04-26T13:08:56Z</time></trkpt><trkpt lat="43.4226591997877" lon="13.320513310721683"><ele>193.0</ele><time>2026-04-26T13:08:57Z</time></trkpt><trkpt lat="43.422746667527676" lon="13.320623177417477"><ele>193.0</ele><time>2026-04-26T13:08:57.999Z</time></trkpt><trkpt lat="43.422841632822795" lon="13.320738605068506"><ele>193.0</ele><time>2026-04-26T13:08:58.999Z</time></trkpt><trkpt lat="43.42294313279062" lon="13.320845080398373"><ele>193.0</ele><time>2026-04-26T13:08:59.999Z</time></trkpt><trkpt lat="43.4230519052087" lon="13.320939682529133"><ele>193.0</ele><time>2026-04-26T13:09:00.999Z</time></trkpt><trkpt lat="43.42316398518239" lon="13.321036143638624"><ele>194.25</ele><time>2026-04-26T13:09:01.999Z</time></trkpt><trkpt lat="43.42327639788294" lon="13.321137716043426"><ele>195.5</ele><time>2026-04-26T13:09:02.999Z</time></trkpt><trkpt lat="43.42339278190318" lon="13.321240121723863"><ele>196.75</ele><time>2026-04-26T13:09:03.999Z</time></trkpt><trkpt lat="43.42351363217135" lon="13.321342001816108"><ele>198.0</ele><time>2026-04-26T13:09:04.999Z</time></trkpt><trkpt lat="43.42362744107457" lon="13.321434078316488"><ele>198.0</ele><time>2026-04-26T13:09:05.999Z</time></trkpt><trkpt lat="43.42374077951709" lon="13.321523537678678"><ele>198.0</ele><time>2026-04-26T13:09:06.999Z</time></trkpt><trkpt lat="43.42386074475545" lon="13.321616649640344"><ele>198.0</ele><time>2026-04-26T13:09:07.999Z</time></trkpt><trkpt lat="43.42398987700405" lon="13.321699338120784"><ele>198.0</ele><time>2026-04-26T13:09:08.999Z</time></trkpt><trkpt lat="43.4241295429208" lon="13.321766596530084"><ele>198.75</ele><time>2026-04-26T13:09:09.999Z</time></trkpt><trkpt lat="43.424274293684824" lon="13.321815371621902"><ele>199.5</ele><time>2026-04-26T13:09:10.999Z</time></trkpt><trkpt lat="43.42441981528676" lon="13.321842264981672"><ele>200.25</ele><time>2026-04-26T13:09:11.999Z</time></trkpt><trkpt lat="43.42454613264974" lon="13.32185122678688"><ele>201.0</ele><time>2026-04-26T13:09:12.999Z</time></trkpt><trkpt lat="43.42463632158659" lon="13.321843689483758"><ele>201.5</ele><time>2026-04-26T13:09:13.999Z</time></trkpt><trkpt lat="43.42471352580502" lon="13.321857237434786"><ele>202.0</ele><time>2026-04-26T13:09:14.999Z</time></trkpt><trkpt lat="43.424776789605026" lon="13.32184506879261"><ele>202.5</ele><time>2026-04-26T13:09:15.999Z</time></trkpt><trkpt lat="43.42485095611785" lon="13.321828887824953"><ele>203.0</ele><time>2026-04-26T13:09:17.999Z</time></trkpt><trkpt lat="43.424887657179006" lon="13.32195701614433"><ele>203.5</ele><time>2026-04-26T13:09:20.999Z</time></trkpt><trkpt lat="43.42490078203623" lon="13.322099924814205"><ele>204.0</ele><time>2026-04-26T13:09:22.999Z</time></trkpt><trkpt lat="43.42490982961726" lon="13.322190264763778"><ele>204.14285714285714</ele><time>2026-04-26T13:09:23.999Z</time></trkpt><trkpt lat="43.424921961882696" lon="13.322277034793007"><ele>204.28571428571428</ele><time>2026-04-26T13:09:24.999Z</time></trkpt><trkpt lat="43.42493502470792" lon="13.322370320922966"><ele>204.42857142857144</ele><time>2026-04-26T13:09:25.999Z</time></trkpt><trkpt lat="43.42494776114775" lon="13.322469376117901"><ele>204.57142857142856</ele><time>2026-04-26T13:09:26.999Z</time></trkpt><trkpt lat="43.424958588288014" lon="13.322569829723557"><ele>204.7142857142857</ele><time>2026-04-26T13:09:27.999Z</time></trkpt><trkpt lat="43.42496712740631" lon="13.322660131574517"><ele>204.85714285714286</ele><time>2026-04-26T13:09:28.999Z</time></trkpt><trkpt lat="43.424979186793706" lon="13.322747744073961"><ele>205.0</ele><time>2026-04-26T13:09:29.999Z</time></trkpt><trkpt lat="43.42499602288192" lon="13.322839146992699"><ele>204.99999999999997</ele><time>2026-04-26T13:09:30.999Z</time></trkpt><trkpt lat="43.42501409453159" lon="13.322940040888259"><ele>205.0</ele><time>2026-04-26T13:09:31.999Z</time></trkpt><trkpt lat="43.425031539324635" lon="13.323056152240978"><ele>205.0</ele><time>2026-04-26T13:09:32.999Z</time></trkpt><trkpt lat="43.42504749446796" lon="13.323182903502275"><ele>205.0</ele><time>2026-04-26T13:09:33.999Z</time></trkpt><trkpt lat="43.42506467075217" lon="13.323313231215591"><ele>204.99999999999997</ele><time>2026-04-26T13:09:34.999Z</time></trkpt><trkpt lat="43.42508398324442" lon="13.323442881596314"><ele>205.0</ele><time>2026-04-26T13:09:35.999Z</time></trkpt><trkpt lat="43.42510080312539" lon="13.323565449065256"><ele>204.2</ele><time>2026-04-26T13:09:36.999Z</time></trkpt><trkpt lat="43.4251173675601" lon="13.323686374629528"><ele>203.4</ele><time>2026-04-26T13:09:37.999Z</time></trkpt><trkpt lat="43.4251319807687" lon="13.323816406852355"><ele>202.60000000000002</ele><time>2026-04-26T13:09:38.999Z</time></trkpt><trkpt lat="43.425149080221374" lon="13.32395208458975"><ele>201.8</ele><time>2026-04-26T13:09:39.999Z</time></trkpt><trkpt lat="43.42516653978298" lon="13.324087866943836"><ele>201.0</ele><time>2026-04-26T13:09:40.999Z</time></trkpt><trkpt lat="43.42518099916653" lon="13.324222348080276"><ele>200.16666666666666</ele><time>2026-04-26T13:09:41.999Z</time></trkpt><trkpt lat="43.42519786773347" lon="13.32435176945079"><ele>199.33333333333331</ele><time>2026-04-26T13:09:42.999Z</time></trkpt><trkpt lat="43.425216797826614" lon="13.324478751959015"><ele>198.5</ele><time>2026-04-26T13:09:43.999Z</time></trkpt><trkpt lat="43.425234219576026" lon="13.324601155408523"><ele>197.66666666666666</ele><time>2026-04-26T13:09:44.999Z</time></trkpt><trkpt lat="43.42525033323948" lon="13.324717571335382"><ele>196.83333333333331</ele><time>2026-04-26T13:09:45.999Z</time></trkpt><trkpt lat="43.42526533418793" lon="13.32483020655653"><ele>196.0</ele><time>2026-04-26T13:09:46.999Z</time></trkpt><trkpt lat="43.42527793751579" lon="13.324934755524977"><ele>194.60000000000002</ele><time>2026-04-26T13:09:47.999Z</time></trkpt><trkpt lat="43.42528673780023" lon="13.325022567099188"><ele>193.2</ele><time>2026-04-26T13:09:48.999Z</time></trkpt><trkpt lat="43.42529496280992" lon="13.325164789399908"><ele>191.8</ele><time>2026-04-26T13:09:50.999Z</time></trkpt><trkpt lat="43.425307329318464" lon="13.325284528492533"><ele>190.39999999999998</ele><time>2026-04-26T13:09:53.999Z</time></trkpt><trkpt lat="43.42545362524957" lon="13.325297891817948"><ele>189.0</ele><time>2026-04-26T13:09:55.999Z</time></trkpt><trkpt lat="43.42551938339788" lon="13.325291168531644"><ele>188.83333333333334</ele><time>2026-04-26T13:09:56.999Z</time></trkpt><trkpt lat="43.42559316038309" lon="13.325274854849571"><ele>188.66666666666666</ele><time>2026-04-26T13:09:57.998Z</time></trkpt><trkpt lat="43.425674771048364" lon="13.325285293117213"><ele>188.5</ele><time>2026-04-26T13:09:58.998Z</time></trkpt><trkpt lat="43.425746878126965" lon="13.325255423993013"><ele>188.33333333333331</ele><time>2026-04-26T13:09:59.998Z</time></trkpt><trkpt lat="43.42583902640608" lon="13.325252069772468"><ele>188.16666666666666</ele><time>2026-04-26T13:10:00.998Z</time></trkpt><trkpt lat="43.425934292864454" lon="13.32524729836765"><ele>188.0</ele><time>2026-04-26T13:10:01.998Z</time></trkpt><trkpt lat="43.42602882692342" lon="13.325241155176444"><ele>188.0</ele><time>2026-04-26T13:10:02.998Z</time></trkpt><trkpt lat="43.426128087229934" lon="13.325231642259126"><ele>188.0</ele><time>2026-04-26T13:10:03.998Z</time></trkpt><trkpt lat="43.426228454601464" lon="13.3252260874662"><ele>188.0</ele><time>2026-04-26T13:10:04.998Z</time></trkpt><trkpt lat="43.42633394451327" lon="13.325229365204324"><ele>188.0</ele><time>2026-04-26T13:10:05.998Z</time></trkpt><trkpt lat="43.42643845292628" lon="13.325242577352947"><ele>188.0</ele><time>2026-04-26T13:10:06.998Z</time></trkpt><trkpt lat="43.426545424512284" lon="13.325252360794844"><ele>187.0</ele><time>2026-04-26T13:10:07.998Z</time></trkpt><trkpt lat="43.426658945985295" lon="13.325265640810688"><ele>186.0</ele><time>2026-04-26T13:10:08.998Z</time></trkpt><trkpt lat="43.426762548179134" lon="13.325291324525535"><ele>185.0</ele><time>2026-04-26T13:10:09.998Z</time></trkpt><trkpt lat="43.42686293818953" lon="13.325327599268508"><ele>184.0</ele><time>2026-04-26T13:10:10.998Z</time></trkpt><trkpt lat="43.426967545534644" lon="13.325359025179052"><ele>183.0</ele><time>2026-04-26T13:10:11.998Z</time></trkpt><trkpt lat="43.427079084949895" lon="13.325383779785826"><ele>182.25</ele><time>2026-04-26T13:10:12.998Z</time></trkpt><trkpt lat="43.42719383092791" lon="13.325404901456663"><ele>181.5</ele><time>2026-04-26T13:10:13.998Z</time></trkpt><trkpt lat="43.427312416859934" lon="13.325427514009961"><ele>180.75</ele><time>2026-04-26T13:10:14.998Z</time></trkpt><trkpt lat="43.427432546822324" lon="13.325444002709428"><ele>180.0</ele><time>2026-04-26T13:10:15.998Z</time></trkpt><trkpt lat="43.42754984408859" lon="13.325459056815166"><ele>180.0</ele><time>2026-04-26T13:10:16.998Z</time></trkpt><trkpt lat="43.42766863121143" lon="13.325476244884445"><ele>180.0</ele><time>2026-04-26T13:10:17.998Z</time></trkpt><trkpt lat="43.427785285709106" lon="13.325479137816068"><ele>180.0</ele><time>2026-04-26T13:10:18.998Z</time></trkpt><trkpt lat="43.42789940820785" lon="13.32546651085604"><ele>180.0</ele><time>2026-04-26T13:10:19.998Z</time></trkpt><trkpt lat="43.42801157112553" lon="13.325442364988742"><ele>181.4</ele><time>2026-04-26T13:10:20.998Z</time></trkpt><trkpt lat="43.428118368249194" lon="13.325409636826468"><ele>182.8</ele><time>2026-04-26T13:10:21.998Z</time></trkpt><trkpt lat="43.42822216029419" lon="13.325397554438926"><ele>184.2</ele><time>2026-04-26T13:10:22.998Z</time></trkpt><trkpt lat="43.42831457121972" lon="13.325378906220047"><ele>185.6</ele><time>2026-04-26T13:10:23.998Z</time></trkpt><trkpt lat="43.42840129861195" lon="13.325382869351102"><ele>187.0</ele><time>2026-04-26T13:10:24.998Z</time></trkpt><trkpt lat="43.42848423761833" lon="13.325395601197235"><ele>187.0</ele><time>2026-04-26T13:10:25.998Z</time></trkpt><trkpt lat="43.4285692457376" lon="13.325402891057196"><ele>187.0</ele><time>2026-04-26T13:10:26.998Z</time></trkpt><trkpt lat="43.42865116250731" lon="13.325454959270424"><ele>187.0</ele><time>2026-04-26T13:10:27.998Z</time></trkpt><trkpt lat="43.428740965890356" lon="13.32550649023231"><ele>187.0</ele><time>2026-04-26T13:10:28.998Z</time></trkpt><trkpt lat="43.42883715568755" lon="13.325564301514872"><ele>187.0</ele><time>2026-04-26T13:10:29.998Z</time></trkpt><trkpt lat="43.428935549106" lon="13.32561400214485"><ele>187.0</ele><time>2026-04-26T13:10:30.998Z</time></trkpt><trkpt lat="43.42903569824151" lon="13.325654679051775"><ele>187.0</ele><time>2026-04-26T13:10:31.998Z</time></trkpt><trkpt lat="43.429137628634926" lon="13.32569546676977"><ele>187.0</ele><time>2026-04-26T13:10:32.998Z</time></trkpt><trkpt lat="43.429236041545465" lon="13.325740297720657"><ele>187.0</ele><time>2026-04-26T13:10:33.998Z</time></trkpt><trkpt lat="43.429329103579796" lon="13.325789837102064"><ele>187.0</ele><time>2026-04-26T13:10:34.998Z</time></trkpt><trkpt lat="43.42942179836256" lon="13.325836013034001"><ele>187.0</ele><time>2026-04-26T13:10:35.998Z</time></trkpt><trkpt lat="43.42952013969662" lon="13.325891560095831"><ele>187.0</ele><time>2026-04-26T13:10:36.998Z</time></trkpt><trkpt lat="43.42962218083932" lon="13.325951904843674"><ele>187.0</ele><time>2026-04-26T13:10:37.998Z</time></trkpt><trkpt lat="43.4297218181839" lon="13.326021388221257"><ele>187.0</ele><time>2026-04-26T13:10:39Z</time></trkpt><trkpt lat="43.429824286648206" lon="13.326087300822778"><ele>187.0</ele><time>2026-04-26T13:10:40Z</time></trkpt><trkpt lat="43.42992941877736" lon="13.326154696287421"><ele>186.5</ele><time>2026-04-26T13:10:40.999Z</time></trkpt><trkpt lat="43.430032683620134" lon="13.326222037432888"><ele>186.0</ele><time>2026-04-26T13:10:41.999Z</time></trkpt><trkpt lat="43.43013817248171" lon="13.326292025264303"><ele>185.5</ele><time>2026-04-26T13:10:42.999Z</time></trkpt><trkpt lat="43.43024247658609" lon="13.326362610263795"><ele>185.0</ele><time>2026-04-26T13:10:43.999Z</time></trkpt><trkpt lat="43.43034552234159" lon="13.326430215375403"><ele>185.0</ele><time>2026-04-26T13:10:44.999Z</time></trkpt><trkpt lat="43.43044547962792" lon="13.326496756682232"><ele>185.0</ele><time>2026-04-26T13:10:45.999Z</time></trkpt><trkpt lat="43.43054275947219" lon="13.32656057499865"><ele>185.0</ele><time>2026-04-26T13:10:46.999Z</time></trkpt><trkpt lat="43.4306405974908" lon="13.326619611184388"><ele>185.0</ele><time>2026-04-26T13:10:47.999Z</time></trkpt><trkpt lat="43.43073632040602" lon="13.326676346318548"><ele>185.0</ele><time>2026-04-26T13:10:48.999Z</time></trkpt><trkpt lat="43.4308263614699" lon="13.326762706212875"><ele>187.0</ele><time>2026-04-26T13:10:49.999Z</time></trkpt><trkpt lat="43.430926017520996" lon="13.326839791651443"><ele>189.0</ele><time>2026-04-26T13:10:50.999Z</time></trkpt><trkpt lat="43.43102219372331" lon="13.326915141362646"><ele>191.0</ele><time>2026-04-26T13:10:51.999Z</time></trkpt><trkpt lat="43.43112530320207" lon="13.32698223536113"><ele>193.0</ele><time>2026-04-26T13:10:52.999Z</time></trkpt><trkpt lat="43.43121543830728" lon="13.327050788152597"><ele>195.0</ele><time>2026-04-26T13:10:53.999Z</time></trkpt><trkpt lat="43.43130215391112" lon="13.327117193688007"><ele>194.6</ele><time>2026-04-26T13:10:54.999Z</time></trkpt><trkpt lat="43.431392355510525" lon="13.327179320339114"><ele>194.2</ele><time>2026-04-26T13:10:55.999Z</time></trkpt><trkpt lat="43.4314805647901" lon="13.327245741196489"><ele>193.8</ele><time>2026-04-26T13:10:56.999Z</time></trkpt><trkpt lat="43.431573730402455" lon="13.327295868383464"><ele>193.4</ele><time>2026-04-26T13:10:57.999Z</time></trkpt><trkpt lat="43.43167011059713" lon="13.327351293077163"><ele>193.0</ele><time>2026-04-26T13:10:58.999Z</time></trkpt><trkpt lat="43.43176784929874" lon="13.327409008008182"><ele>193.0</ele><time>2026-04-26T13:10:59.999Z</time></trkpt><trkpt lat="43.431866639103255" lon="13.327464722968925"><ele>193.0</ele><time>2026-04-26T13:11:00.999Z</time></trkpt><trkpt lat="43.431963625404585" lon="13.327512951034432"><ele>193.0</ele><time>2026-04-26T13:11:01.999Z</time></trkpt><trkpt lat="43.432059038616785" lon="13.32755861173602"><ele>193.0</ele><time>2026-04-26T13:11:02.999Z</time></trkpt><trkpt lat="43.43215316739553" lon="13.327566635909404"><ele>193.0</ele><time>2026-04-26T13:11:03.999Z</time></trkpt><trkpt lat="43.43224125420265" lon="13.327595475982697"><ele>193.49999999999997</ele><time>2026-04-26T13:11:04.999Z</time></trkpt><trkpt lat="43.43232271942174" lon="13.327631472498114"><ele>194.0</ele><time>2026-04-26T13:11:05.999Z</time></trkpt><trkpt lat="43.43239369859857" lon="13.327701323860847"><ele>194.5</ele><time>2026-04-26T13:11:06.999Z</time></trkpt><trkpt lat="43.43246606668263" lon="13.327768847946084"><ele>195.0</ele><time>2026-04-26T13:11:07.999Z</time></trkpt><trkpt lat="43.43251074059849" lon="13.327874660081228"><ele>195.49999999999997</ele><time>2026-04-26T13:11:08.999Z</time></trkpt><trkpt lat="43.432562416159605" lon="13.32797339532718"><ele>196.0</ele><time>2026-04-26T13:11:09.999Z</time></trkpt><trkpt lat="43.43262566826524" lon="13.328066813816257"><ele>196.0</ele><time>2026-04-26T13:11:10.999Z</time></trkpt><trkpt lat="43.43266433493091" lon="13.328189373075245"><ele>196.0</ele><time>2026-04-26T13:11:11.999Z</time></trkpt><trkpt lat="43.43271920506415" lon="13.328293862619399"><ele>196.0</ele><time>2026-04-26T13:11:12.999Z</time></trkpt><trkpt lat="43.4327666114777" lon="13.328426879805914"><ele>196.0</ele><time>2026-04-26T13:11:13.999Z</time></trkpt><trkpt lat="43.43281680466682" lon="13.328557953779228"><ele>196.0</ele><time>2026-04-26T13:11:14.999Z</time></trkpt><trkpt lat="43.43286098347155" lon="13.328692166111185"><ele>196.0</ele><time>2026-04-26T13:11:15.999Z</time></trkpt><trkpt lat="43.43289878938924" lon="13.32882312750031"><ele>196.0</ele><time>2026-04-26T13:11:16.999Z</time></trkpt><trkpt lat="43.43293170317834" lon="13.328953912614914"><ele>196.0</ele><time>2026-04-26T13:11:17.999Z</time></trkpt><trkpt lat="43.4329612870916" lon="13.329082684429222"><ele>196.0</ele><time>2026-04-26T13:11:18.999Z</time></trkpt><trkpt lat="43.43298575300317" lon="13.329216214480546"><ele>196.0</ele><time>2026-04-26T13:11:19.999Z</time></trkpt><trkpt lat="43.433002543704255" lon="13.329340581746935"><ele>198.4</ele><time>2026-04-26T13:11:20.999Z</time></trkpt><trkpt lat="43.43302669876288" lon="13.329474390733786"><ele>200.8</ele><time>2026-04-26T13:11:21.999Z</time></trkpt><trkpt lat="43.433048452554544" lon="13.329588454251876"><ele>203.20000000000002</ele><time>2026-04-26T13:11:22.999Z</time></trkpt><trkpt lat="43.43306737029644" lon="13.329688815448376"><ele>205.60000000000002</ele><time>2026-04-26T13:11:23.999Z</time></trkpt><trkpt lat="43.433092874591786" lon="13.329842256503495"><ele>208.0</ele><time>2026-04-26T13:11:25.999Z</time></trkpt><trkpt lat="43.43313463031225" lon="13.329969438344216"><ele>208.66666666666666</ele><time>2026-04-26T13:11:27.999Z</time></trkpt><trkpt lat="43.43321146244941" lon="13.33009552103161"><ele>209.33333333333331</ele><time>2026-04-26T13:11:29.999Z</time></trkpt><trkpt lat="43.43325899783571" lon="13.330167473248832"><ele>210.0</ele><time>2026-04-26T13:11:30.999Z</time></trkpt><trkpt lat="43.43330746661214" lon="13.330242156706777"><ele>210.66666666666669</ele><time>2026-04-26T13:11:31.999Z</time></trkpt><trkpt lat="43.43334760329049" lon="13.3303202568086"><ele>211.33333333333334</ele><time>2026-04-26T13:11:32.999Z</time></trkpt><trkpt lat="43.43338157409015" lon="13.330399423001364"><ele>212.0</ele><time>2026-04-26T13:11:33.999Z</time></trkpt><trkpt lat="43.433414568098314" lon="13.330474272975994"><ele>212.00000000000003</ele><time>2026-04-26T13:11:34.999Z</time></trkpt><trkpt lat="43.433453702777086" lon="13.330545046180655"><ele>212.0</ele><time>2026-04-26T13:11:35.999Z</time></trkpt><trkpt lat="43.43348742436048" lon="13.330620738447275"><ele>212.0</ele><time>2026-04-26T13:11:36.999Z</time></trkpt><trkpt lat="43.433543973953185" lon="13.33075726760107"><ele>212.0</ele><time>2026-04-26T13:11:38.999Z</time></trkpt><trkpt lat="43.433602676323616" lon="13.330884188505554"><ele>212.00000000000003</ele><time>2026-04-26T13:11:40.999Z</time></trkpt><trkpt lat="43.433642394713004" lon="13.330971983626457"><ele>212.0</ele><time>2026-04-26T13:11:42.999Z</time></trkpt><trkpt lat="43.43366413686382" lon="13.331060230184463"><ele>212.39999999999998</ele><time>2026-04-26T13:11:44.999Z</time></trkpt><trkpt lat="43.43370501487955" lon="13.331171435369821"><ele>212.79999999999998</ele><time>2026-04-26T13:11:47.999Z</time></trkpt><trkpt lat="43.433723699249185" lon="13.331348643286875"><ele>213.2</ele><time>2026-04-26T13:11:49.999Z</time></trkpt><trkpt lat="43.43372222558533" lon="13.331471291863162"><ele>213.6</ele><time>2026-04-26T13:11:50.999Z</time></trkpt><trkpt lat="43.43372836144318" lon="13.331617607975808"><ele>214.0</ele><time>2026-04-26T13:11:51.999Z</time></trkpt><trkpt lat="43.433735054828944" lon="13.331775866371583"><ele>214.5</ele><time>2026-04-26T13:11:52.999Z</time></trkpt><trkpt lat="43.43374472335076" lon="13.331938882236225"><ele>215.0</ele><time>2026-04-26T13:11:53.999Z</time></trkpt><trkpt lat="43.43375128578443" lon="13.332096831808526"><ele>215.5</ele><time>2026-04-26T13:11:54.999Z</time></trkpt><trkpt lat="43.433759067156096" lon="13.332261570362002"><ele>216.0</ele><time>2026-04-26T13:11:55.999Z</time></trkpt><trkpt lat="43.433766461785254" lon="13.332431277449485"><ele>216.75</ele><time>2026-04-26T13:11:56.999Z</time></trkpt><trkpt lat="43.43377750012904" lon="13.332606452320292"><ele>217.5</ele><time>2026-04-26T13:11:57.999Z</time></trkpt><trkpt lat="43.43379369879582" lon="13.332777661484592"><ele>218.25</ele><time>2026-04-26T13:11:58.999Z</time></trkpt><trkpt lat="43.43381302525593" lon="13.33295153670563"><ele>219.0</ele><time>2026-04-26T13:11:59.998Z</time></trkpt><trkpt lat="43.43383551314924" lon="13.333125818001545"><ele>220.5</ele><time>2026-04-26T13:12:00.998Z</time></trkpt><trkpt lat="43.433862679108564" lon="13.33330263435933"><ele>222.0</ele><time>2026-04-26T13:12:01.998Z</time></trkpt><trkpt lat="43.433888091945626" lon="13.333478792522236"><ele>223.5</ele><time>2026-04-26T13:12:02.998Z</time></trkpt><trkpt lat="43.433912935814874" lon="13.333655757196981"><ele>225.0</ele><time>2026-04-26T13:12:03.998Z</time></trkpt><trkpt lat="43.43393283098765" lon="13.333824408354017"><ele>226.0</ele><time>2026-04-26T13:12:04.998Z</time></trkpt><trkpt lat="43.43394915781948" lon="13.33396526953012"><ele>227.0</ele><time>2026-04-26T13:12:05.998Z</time></trkpt><trkpt lat="43.43396327947929" lon="13.33409222757851"><ele>228.0</ele><time>2026-04-26T13:12:06.998Z</time></trkpt><trkpt lat="43.43397323244709" lon="13.334208477056686"><ele>229.0</ele><time>2026-04-26T13:12:07.998Z</time></trkpt><trkpt lat="43.43398073891121" lon="13.334320229068455"><ele>230.0</ele><time>2026-04-26T13:12:08.998Z</time></trkpt><trkpt lat="43.43398634087853" lon="13.334420752305725"><ele>231.0</ele><time>2026-04-26T13:12:09.998Z</time></trkpt><trkpt lat="43.433991824744716" lon="13.334517514311985"><ele>231.0</ele><time>2026-04-26T13:12:10.998Z</time></trkpt><trkpt lat="43.433994012434084" lon="13.33461248742458"><ele>231.0</ele><time>2026-04-26T13:12:11.998Z</time></trkpt><trkpt lat="43.43399878594837" lon="13.334716477783427"><ele>231.0</ele><time>2026-04-26T13:12:12.998Z</time></trkpt><trkpt lat="43.43400360695428" lon="13.33484670179896"><ele>231.0</ele><time>2026-04-26T13:12:13.998Z</time></trkpt><trkpt lat="43.43401395731889" lon="13.33498232838989"><ele>231.0</ele><time>2026-04-26T13:12:14.998Z</time></trkpt><trkpt lat="43.43402592711798" lon="13.335133188937325"><ele>231.0</ele><time>2026-04-26T13:12:15.998Z</time></trkpt><trkpt lat="43.43403484674963" lon="13.33528130704621"><ele>230.75</ele><time>2026-04-26T13:12:16.998Z</time></trkpt><trkpt lat="43.43404649385489" lon="13.335443176719126"><ele>230.5</ele><time>2026-04-26T13:12:17.998Z</time></trkpt><trkpt lat="43.43405751983803" lon="13.335615085978187"><ele>230.25</ele><time>2026-04-26T13:12:18.998Z</time></trkpt><trkpt lat="43.4340737197554" lon="13.335791980519225"><ele>230.0</ele><time>2026-04-26T13:12:19.998Z</time></trkpt><trkpt lat="43.434091858051815" lon="13.335974355043557"><ele>229.5</ele><time>2026-04-26T13:12:20.998Z</time></trkpt><trkpt lat="43.4341143953393" lon="13.336161742138017"><ele>229.0</ele><time>2026-04-26T13:12:21.998Z</time></trkpt><trkpt lat="43.43413801445769" lon="13.336351455249433"><ele>228.5</ele><time>2026-04-26T13:12:22.998Z</time></trkpt><trkpt lat="43.43416201172972" lon="13.336558499931813"><ele>228.0</ele><time>2026-04-26T13:12:23.998Z</time></trkpt><trkpt lat="43.434189565842715" lon="13.336771759197555"><ele>226.66666666666669</ele><time>2026-04-26T13:12:24.998Z</time></trkpt><trkpt lat="43.4342228620304" lon="13.336983471461673"><ele>225.33333333333334</ele><time>2026-04-26T13:12:25.998Z</time></trkpt><trkpt lat="43.43426028704779" lon="13.33719069525299"><ele>224.0</ele><time>2026-04-26T13:12:26.998Z</time></trkpt><trkpt lat="43.43432920334029" lon="13.337380511150382"><ele>222.75</ele><time>2026-04-26T13:12:27.998Z</time></trkpt><trkpt lat="43.43440508248283" lon="13.337589439987578"><ele>221.5</ele><time>2026-04-26T13:12:29.998Z</time></trkpt><trkpt lat="43.434450991353295" lon="13.33773459912397"><ele>220.25</ele><time>2026-04-26T13:12:30.998Z</time></trkpt><trkpt lat="43.434487454766" lon="13.337872773383321"><ele>219.0</ele><time>2026-04-26T13:12:31.998Z</time></trkpt><trkpt lat="43.43452461160426" lon="13.33799678200843"><ele>217.79999999999998</ele><time>2026-04-26T13:12:32.998Z</time></trkpt><trkpt lat="43.434557970609774" lon="13.338116048410757"><ele>216.59999999999997</ele><time>2026-04-26T13:12:33.998Z</time></trkpt><trkpt lat="43.43459489521339" lon="13.338237439004967"><ele>215.4</ele><time>2026-04-26T13:12:34.998Z</time></trkpt><trkpt lat="43.43464254466126" lon="13.338359186137753"><ele>214.2</ele><time>2026-04-26T13:12:35.998Z</time></trkpt><trkpt lat="43.434695162486506" lon="13.338479640632801"><ele>213.0</ele><time>2026-04-26T13:12:36.998Z</time></trkpt><trkpt lat="43.4347489857896" lon="13.338605608951216"><ele>215.2</ele><time>2026-04-26T13:12:37.998Z</time></trkpt><trkpt lat="43.43479764408612" lon="13.338736554884314"><ele>217.4</ele><time>2026-04-26T13:12:38.998Z</time></trkpt><trkpt lat="43.43481596459446" lon="13.338885166420972"><ele>219.59999999999997</ele><time>2026-04-26T13:12:39.998Z</time></trkpt><trkpt lat="43.43482883623856" lon="13.33901977280274"><ele>221.79999999999998</ele><time>2026-04-26T13:12:40.998Z</time></trkpt><trkpt lat="43.4348310471232" lon="13.339150826062605"><ele>224.0</ele><time>2026-04-26T13:12:41.998Z</time></trkpt><trkpt lat="43.43483194909103" lon="13.339270934013694"><ele>224.00000000000003</ele><time>2026-04-26T13:12:42.998Z</time></trkpt><trkpt lat="43.43482962082651" lon="13.339378934448742"><ele>224.0</ele><time>2026-04-26T13:12:43.998Z</time></trkpt><trkpt lat="43.43483895380879" lon="13.339487371602592"><ele>224.0</ele><time>2026-04-26T13:12:45Z</time></trkpt><trkpt lat="43.434832548513086" lon="13.339584910303593"><ele>224.0</ele><time>2026-04-26T13:12:46Z</time></trkpt><trkpt lat="43.43481691091301" lon="13.339671072904721"><ele>224.00000000000003</ele><time>2026-04-26T13:12:46.999Z</time></trkpt><trkpt lat="43.434795908758446" lon="13.339782018933663"><ele>224.0</ele><time>2026-04-26T13:12:49.999Z</time></trkpt><trkpt lat="43.43489498008578" lon="13.339783273389692"><ele>224.00000000000003</ele><time>2026-04-26T13:12:52.999Z</time></trkpt><trkpt lat="43.434968159664734" lon="13.339695509790342"><ele>224.0</ele><time>2026-04-26T13:12:55Z</time></trkpt><trkpt lat="43.43503284018091" lon="13.339649218007608"><ele>224.0</ele><time>2026-04-26T13:12:55.999Z</time></trkpt><trkpt lat="43.43510077710543" lon="13.339590471941527"><ele>224.0</ele><time>2026-04-26T13:12:57Z</time></trkpt><trkpt lat="43.435162073859914" lon="13.339516764798228"><ele>224.00000000000003</ele><time>2026-04-26T13:12:58Z</time></trkpt><trkpt lat="43.43523354547287" lon="13.339457662953395"><ele>224.0</ele><time>2026-04-26T13:12:58.999Z</time></trkpt><trkpt lat="43.43531082861868" lon="13.339392675025856"><ele>224.0</ele><time>2026-04-26T13:12:59.999Z</time></trkpt><trkpt lat="43.435385066161885" lon="13.339317327140762"><ele>223.99999999999997</ele><time>2026-04-26T13:13:00.999Z</time></trkpt><trkpt lat="43.4354569098111" lon="13.339248241522068"><ele>223.99999999999997</ele><time>2026-04-26T13:13:01.999Z</time></trkpt><trkpt lat="43.43553265325343" lon="13.339182172606026"><ele>224.0</ele><time>2026-04-26T13:13:02.999Z</time></trkpt><trkpt lat="43.43561803734977" lon="13.339130110548373"><ele>224.0</ele><time>2026-04-26T13:13:03.999Z</time></trkpt><trkpt lat="43.43568844899949" lon="13.339050037789056"><ele>223.00000000000003</ele><time>2026-04-26T13:13:04.999Z</time></trkpt><trkpt lat="43.43576168003742" lon="13.338980438460947"><ele>222.0</ele><time>2026-04-26T13:13:05.999Z</time></trkpt><trkpt lat="43.435833125837924" lon="13.338914298202674"><ele>221.0</ele><time>2026-04-26T13:13:06.999Z</time></trkpt><trkpt lat="43.43590787770118" lon="13.338848885339617"><ele>220.0</ele><time>2026-04-26T13:13:07.999Z</time></trkpt><trkpt lat="43.4359837175939" lon="13.338792171628368"><ele>219.00000000000003</ele><time>2026-04-26T13:13:08.999Z</time></trkpt><trkpt lat="43.43605651209886" lon="13.338724881541594"><ele>218.0</ele><time>2026-04-26T13:13:09.999Z</time></trkpt><trkpt lat="43.43613389101784" lon="13.33866312424145"><ele>218.00000000000003</ele><time>2026-04-26T13:13:10.999Z</time></trkpt><trkpt lat="43.43621034047465" lon="13.338597752960402"><ele>218.0</ele><time>2026-04-26T13:13:11.999Z</time></trkpt><trkpt lat="43.43628419540055" lon="13.338526851978623"><ele>218.0</ele><time>2026-04-26T13:13:12.999Z</time></trkpt><trkpt lat="43.43635467583864" lon="13.338454167843194"><ele>218.0</ele><time>2026-04-26T13:13:13.999Z</time></trkpt><trkpt lat="43.43642739494086" lon="13.338383809628523"><ele>218.00000000000003</ele><time>2026-04-26T13:13:14.999Z</time></trkpt><trkpt lat="43.43649956815787" lon="13.338314799623513"><ele>218.0</ele><time>2026-04-26T13:13:15.999Z</time></trkpt><trkpt lat="43.43657725426414" lon="13.33824077353699"><ele>215.60000000000002</ele><time>2026-04-26T13:13:16.999Z</time></trkpt><trkpt lat="43.43665536530473" lon="13.338157592598321"><ele>213.20000000000002</ele><time>2026-04-26T13:13:17.999Z</time></trkpt><trkpt lat="43.43673871912073" lon="13.338077874995276"><ele>210.8</ele><time>2026-04-26T13:13:18.999Z</time></trkpt><trkpt lat="43.4368145227764" lon="13.338004392702524"><ele>208.4</ele><time>2026-04-26T13:13:19.999Z</time></trkpt><trkpt lat="43.43688119037959" lon="13.33793851835488"><ele>206.0</ele><time>2026-04-26T13:13:20.999Z</time></trkpt><trkpt lat="43.43694973909894" lon="13.337867703837707"><ele>206.00000000000003</ele><time>2026-04-26T13:13:21.999Z</time></trkpt><trkpt lat="43.43702168491573" lon="13.337799546509185"><ele>206.0</ele><time>2026-04-26T13:13:22.999Z</time></trkpt><trkpt lat="43.43709556446047" lon="13.337730436586725"><ele>206.0</ele><time>2026-04-26T13:13:23.999Z</time></trkpt><trkpt lat="43.437167013248065" lon="13.337666813545738"><ele>206.0</ele><time>2026-04-26T13:13:24.999Z</time></trkpt><trkpt lat="43.43723179360613" lon="13.337606854122912"><ele>206.00000000000003</ele><time>2026-04-26T13:13:25.999Z</time></trkpt><trkpt lat="43.43729306710962" lon="13.337551400188335"><ele>206.0</ele><time>2026-04-26T13:13:26.999Z</time></trkpt><trkpt lat="43.437353131543745" lon="13.337491085487885"><ele>202.20000000000002</ele><time>2026-04-26T13:13:27.999Z</time></trkpt><trkpt lat="43.43741926064653" lon="13.337420712325466"><ele>198.4</ele><time>2026-04-26T13:13:28.999Z</time></trkpt><trkpt lat="43.43749239737406" lon="13.337337412291848"><ele>194.6</ele><time>2026-04-26T13:13:29.999Z</time></trkpt><trkpt lat="43.43756992620752" lon="13.33724973812265"><ele>190.8</ele><time>2026-04-26T13:13:30.999Z</time></trkpt><trkpt lat="43.43765164934901" lon="13.337159870790217"><ele>187.0</ele><time>2026-04-26T13:13:31.999Z</time></trkpt><trkpt lat="43.437731687948585" lon="13.337075584314192"><ele>187.0</ele><time>2026-04-26T13:13:32.999Z</time></trkpt><trkpt lat="43.43781159391498" lon="13.336998590430177"><ele>187.0</ele><time>2026-04-26T13:13:33.999Z</time></trkpt><trkpt lat="43.4378859191888" lon="13.336927443453526"><ele>187.0</ele><time>2026-04-26T13:13:34.999Z</time></trkpt><trkpt lat="43.437956497263976" lon="13.336864831405189"><ele>187.0</ele><time>2026-04-26T13:13:35.999Z</time></trkpt><trkpt lat="43.43801980474487" lon="13.336806356838382"><ele>187.0</ele><time>2026-04-26T13:13:36.999Z</time></trkpt><trkpt lat="43.43807999097615" lon="13.33673655127335"><ele>187.0</ele><time>2026-04-26T13:13:37.999Z</time></trkpt><trkpt lat="43.4381339667167" lon="13.336653399198223"><ele>184.0</ele><time>2026-04-26T13:13:38.999Z</time></trkpt><trkpt lat="43.43817705076922" lon="13.336562805882101"><ele>181.0</ele><time>2026-04-26T13:13:39.999Z</time></trkpt><trkpt lat="43.43821197823649" lon="13.33647097105222"><ele>178.0</ele><time>2026-04-26T13:13:40.999Z</time></trkpt><trkpt lat="43.43823619619058" lon="13.33636623251129"><ele>175.0</ele><time>2026-04-26T13:13:41.999Z</time></trkpt><trkpt lat="43.438259225871974" lon="13.336257370592344"><ele>172.0</ele><time>2026-04-26T13:13:42.999Z</time></trkpt><trkpt lat="43.43830021368782" lon="13.336156198269192"><ele>169.0</ele><time>2026-04-26T13:13:43.999Z</time></trkpt><trkpt lat="43.43833301064988" lon="13.336051429328217"><ele>169.0</ele><time>2026-04-26T13:13:44.999Z</time></trkpt><trkpt lat="43.438364505761044" lon="13.335952889609503"><ele>169.0</ele><time>2026-04-26T13:13:45.999Z</time></trkpt><trkpt lat="43.43837726462633" lon="13.335863868889136"><ele>169.0</ele><time>2026-04-26T13:13:46.999Z</time></trkpt><trkpt lat="43.43842060080667" lon="13.335711478863663"><ele>169.0</ele><time>2026-04-26T13:13:48.999Z</time></trkpt><trkpt lat="43.43846646328183" lon="13.335562507072208"><ele>169.0</ele><time>2026-04-26T13:13:50.999Z</time></trkpt><trkpt lat="43.43849502407119" lon="13.335409460316024"><ele>170.2</ele><time>2026-04-26T13:13:52.999Z</time></trkpt><trkpt lat="43.43851336236222" lon="13.335268242871841"><ele>171.39999999999998</ele><time>2026-04-26T13:13:54.999Z</time></trkpt><trkpt lat="43.43850649045331" lon="13.335147436393742"><ele>172.6</ele><time>2026-04-26T13:13:56.999Z</time></trkpt><trkpt lat="43.43852704774511" lon="13.335017793527983"><ele>173.8</ele><time>2026-04-26T13:13:58.999Z</time></trkpt><trkpt lat="43.438504121098184" lon="13.334878371291092"><ele>175.0</ele><time>2026-04-26T13:14:00.998Z</time></trkpt><trkpt lat="43.438500047541915" lon="13.33473276298308"><ele>175.0</ele><time>2026-04-26T13:14:02.998Z</time></trkpt><trkpt lat="43.43848039552433" lon="13.334620943452494"><ele>175.0</ele><time>2026-04-26T13:14:04.998Z</time></trkpt><trkpt lat="43.43846529175608" lon="13.334535003373336"><ele>175.0</ele><time>2026-04-26T13:14:07.998Z</time></trkpt><trkpt lat="43.43846839374902" lon="13.334761844459287"><ele>175.0</ele><time>2026-04-26T13:14:48.999Z</time></trkpt><trkpt lat="43.43848568583707" lon="13.33486252515838"><ele>175.0</ele><time>2026-04-26T13:14:51.001Z</time></trkpt><trkpt lat="43.438494096546094" lon="13.334980550111094"><ele>175.0</ele><time>2026-04-26T13:14:53.001Z</time></trkpt><trkpt lat="43.43848555726296" lon="13.335116100719823"><ele>175.0</ele><time>2026-04-26T13:14:55.001Z</time></trkpt><trkpt lat="43.43847686289708" lon="13.335224333190775"><ele>175.0</ele><time>2026-04-26T13:14:57.001Z</time></trkpt><trkpt lat="43.438473998582715" lon="13.335323646056613"><ele>175.0</ele><time>2026-04-26T13:14:59.001Z</time></trkpt><trkpt lat="43.438447109371964" lon="13.335465146619034"><ele>175.0</ele><time>2026-04-26T13:15:01.001Z</time></trkpt><trkpt lat="43.43842300026914" lon="13.335600105915738"><ele>173.8</ele><time>2026-04-26T13:15:03.001Z</time></trkpt><trkpt lat="43.43839268563928" lon="13.335730619606688"><ele>172.6</ele><time>2026-04-26T13:15:05Z</time></trkpt><trkpt lat="43.43836352509202" lon="13.33583171078395"><ele>171.39999999999998</ele><time>2026-04-26T13:15:07Z</time></trkpt><trkpt lat="43.438343025997874" lon="13.33592564227756"><ele>170.2</ele><time>2026-04-26T13:15:24Z</time></trkpt><trkpt lat="43.43830621873805" lon="13.33605905902382"><ele>169.0</ele><time>2026-04-26T13:15:26Z</time></trkpt><trkpt lat="43.4382531327061" lon="13.336214153960245"><ele>169.0</ele><time>2026-04-26T13:15:28Z</time></trkpt><trkpt lat="43.43821411978668" lon="13.336371855970317"><ele>169.0</ele><time>2026-04-26T13:15:30Z</time></trkpt><trkpt lat="43.43817465335361" lon="13.336525909200299"><ele>169.0</ele><time>2026-04-26T13:15:32Z</time></trkpt><trkpt lat="43.43814176762188" lon="13.336603240194197"><ele>169.0</ele><time>2026-04-26T13:15:33Z</time></trkpt><trkpt lat="43.438099491981426" lon="13.33667637240747"><ele>169.0</ele><time>2026-04-26T13:15:34Z</time></trkpt><trkpt lat="43.43805352850626" lon="13.336745901386722"><ele>169.0</ele><time>2026-04-26T13:15:35Z</time></trkpt><trkpt lat="43.43799186995618" lon="13.336781518929318"><ele>171.57142857142858</ele><time>2026-04-26T13:15:36Z</time></trkpt><trkpt lat="43.43794773624013" lon="13.336855364524894"><ele>174.14285714285714</ele><time>2026-04-26T13:15:37Z</time></trkpt><trkpt lat="43.43788888251377" lon="13.336906878044628"><ele>176.71428571428572</ele><time>2026-04-26T13:15:38Z</time></trkpt><trkpt lat="43.43782944125672" lon="13.336962660278825"><ele>179.28571428571428</ele><time>2026-04-26T13:15:39Z</time></trkpt><trkpt lat="43.43776555059251" lon="13.337022033627449"><ele>181.85714285714286</ele><time>2026-04-26T13:15:40Z</time></trkpt><trkpt lat="43.437705194977184" lon="13.337080598166384"><ele>184.42857142857142</ele><time>2026-04-26T13:15:41Z</time></trkpt><trkpt lat="43.4376517094067" lon="13.33714142356178"><ele>187.0</ele><time>2026-04-26T13:15:42Z</time></trkpt><trkpt lat="43.437593694230394" lon="13.337195735181071"><ele>186.33333333333334</ele><time>2026-04-26T13:15:43Z</time></trkpt><trkpt lat="43.437539951420085" lon="13.337254220456337"><ele>185.66666666666669</ele><time>2026-04-26T13:15:44Z</time></trkpt><trkpt lat="43.43748937251077" lon="13.33731558836497"><ele>185.0</ele><time>2026-04-26T13:15:45Z</time></trkpt><trkpt lat="43.43743960634876" lon="13.337374355782705"><ele>184.33333333333334</ele><time>2026-04-26T13:15:46Z</time></trkpt><trkpt lat="43.43738980770347" lon="13.337429379969958"><ele>183.66666666666666</ele><time>2026-04-26T13:15:47Z</time></trkpt><trkpt lat="43.437284194300844" lon="13.337536993624047"><ele>183.0</ele><time>2026-04-26T13:15:49Z</time></trkpt><trkpt lat="43.437223850872265" lon="13.337592300779235"><ele>183.0</ele><time>2026-04-26T13:15:50Z</time></trkpt><trkpt lat="43.43716207345282" lon="13.33765227019938"><ele>183.0</ele><time>2026-04-26T13:15:51Z</time></trkpt><trkpt lat="43.43710434281459" lon="13.33770178628622"><ele>183.0</ele><time>2026-04-26T13:15:52Z</time></trkpt><trkpt lat="43.43704475213013" lon="13.337748975004951"><ele>183.0</ele><time>2026-04-26T13:15:53Z</time></trkpt><trkpt lat="43.43698873272739" lon="13.337808499214347"><ele>183.0</ele><time>2026-04-26T13:15:54Z</time></trkpt><trkpt lat="43.43692876295044" lon="13.337862962460882"><ele>183.0</ele><time>2026-04-26T13:15:55Z</time></trkpt><trkpt lat="43.43686743776602" lon="13.337919518378087"><ele>183.0</ele><time>2026-04-26T13:15:56Z</time></trkpt><trkpt lat="43.43680762805519" lon="13.337978001167171"><ele>186.0</ele><time>2026-04-26T13:15:57Z</time></trkpt><trkpt lat="43.436750445962645" lon="13.338035120745"><ele>189.0</ele><time>2026-04-26T13:15:58Z</time></trkpt><trkpt lat="43.436686066383075" lon="13.338095561861891"><ele>192.0</ele><time>2026-04-26T13:15:59Z</time></trkpt><trkpt lat="43.43662261796887" lon="13.33815826946137"><ele>195.0</ele><time>2026-04-26T13:16:00Z</time></trkpt><trkpt lat="43.436555509772326" lon="13.338226659852447"><ele>198.0</ele><time>2026-04-26T13:16:01Z</time></trkpt><trkpt lat="43.4364900258982" lon="13.33829089398761"><ele>201.0</ele><time>2026-04-26T13:16:02Z</time></trkpt><trkpt lat="43.436427050187724" lon="13.33835515443657"><ele>201.0</ele><time>2026-04-26T13:16:03Z</time></trkpt><trkpt lat="43.43636389986759" lon="13.338416976117438"><ele>201.0</ele><time>2026-04-26T13:16:04Z</time></trkpt><trkpt lat="43.43629797483387" lon="13.338477751503948"><ele>201.0</ele><time>2026-04-26T13:16:05Z</time></trkpt><trkpt lat="43.43622326392313" lon="13.338543895567126"><ele>201.0</ele><time>2026-04-26T13:16:06Z</time></trkpt><trkpt lat="43.43614613013471" lon="13.338616610875636"><ele>201.0</ele><time>2026-04-26T13:16:06.999Z</time></trkpt><trkpt lat="43.43607069946748" lon="13.33868121402775"><ele>201.0</ele><time>2026-04-26T13:16:07.999Z</time></trkpt><trkpt lat="43.4359990868099" lon="13.33874195995906"><ele>203.66666666666666</ele><time>2026-04-26T13:16:08.999Z</time></trkpt><trkpt lat="43.43592765216556" lon="13.338808534827596"><ele>206.33333333333331</ele><time>2026-04-26T13:16:09.999Z</time></trkpt><trkpt lat="43.43586261725774" lon="13.338871141191738"><ele>209.0</ele><time>2026-04-26T13:16:10.999Z</time></trkpt><trkpt lat="43.43580036869108" lon="13.338932387170768"><ele>211.66666666666666</ele><time>2026-04-26T13:16:11.999Z</time></trkpt><trkpt lat="43.43573661770004" lon="13.33898500438241"><ele>214.33333333333331</ele><time>2026-04-26T13:16:12.999Z</time></trkpt><trkpt lat="43.435668920396765" lon="13.339043683966294"><ele>217.0</ele><time>2026-04-26T13:16:13.999Z</time></trkpt><trkpt lat="43.435594303627354" lon="13.339109586456097"><ele>217.0</ele><time>2026-04-26T13:16:14.999Z</time></trkpt><trkpt lat="43.43552181038877" lon="13.33916877298268"><ele>217.0</ele><time>2026-04-26T13:16:15.999Z</time></trkpt><trkpt lat="43.43545239047428" lon="13.339227370572148"><ele>217.0</ele><time>2026-04-26T13:16:16.999Z</time></trkpt><trkpt lat="43.43538972348579" lon="13.339280035795777"><ele>217.0</ele><time>2026-04-26T13:16:17.999Z</time></trkpt><trkpt lat="43.435332961483454" lon="13.339331323883227"><ele>217.0</ele><time>2026-04-26T13:16:18.999Z</time></trkpt><trkpt lat="43.43527421015068" lon="13.339385034727364"><ele>217.0</ele><time>2026-04-26T13:16:19.999Z</time></trkpt><trkpt lat="43.4352183021995" lon="13.339437832672889"><ele>217.0</ele><time>2026-04-26T13:16:20.999Z</time></trkpt><trkpt lat="43.43516478903042" lon="13.339490088018888"><ele>217.99999999999997</ele><time>2026-04-26T13:16:21.999Z</time></trkpt><trkpt lat="43.435108839680126" lon="13.339543884219962"><ele>219.0</ele><time>2026-04-26T13:16:22.999Z</time></trkpt><trkpt lat="43.43501215137966" lon="13.339630095251133"><ele>220.0</ele><time>2026-04-26T13:16:24.999Z</time></trkpt><trkpt lat="43.43493296675527" lon="13.33969339627159"><ele>221.0</ele><time>2026-04-26T13:16:26.999Z</time></trkpt><trkpt lat="43.43486099651624" lon="13.339715854199351"><ele>221.99999999999997</ele><time>2026-04-26T13:16:29.999Z</time></trkpt><trkpt lat="43.43478536122458" lon="13.339748328275249"><ele>223.0</ele><time>2026-04-26T13:16:32.999Z</time></trkpt><trkpt lat="43.434763169832365" lon="13.339866178325764"><ele>223.0</ele><time>2026-04-26T13:16:33.999Z</time></trkpt><trkpt lat="43.43475020061197" lon="13.339974860263265"><ele>223.0</ele><time>2026-04-26T13:16:34.999Z</time></trkpt><trkpt lat="43.43473672564131" lon="13.340085928122098"><ele>223.0</ele><time>2026-04-26T13:16:35.999Z</time></trkpt><trkpt lat="43.43472093784158" lon="13.340211052438567"><ele>223.0</ele><time>2026-04-26T13:16:36.999Z</time></trkpt><trkpt lat="43.43469052594557" lon="13.34035340920573"><ele>223.0</ele><time>2026-04-26T13:16:37.999Z</time></trkpt><trkpt lat="43.43465850012006" lon="13.340502392909514"><ele>222.0</ele><time>2026-04-26T13:16:38.999Z</time></trkpt><trkpt lat="43.43462482282173" lon="13.34065645714167"><ele>221.0</ele><time>2026-04-26T13:16:39.999Z</time></trkpt><trkpt lat="43.434594110869334" lon="13.340818106220322"><ele>220.0</ele><time>2026-04-26T13:16:40.999Z</time></trkpt><trkpt lat="43.434561951177834" lon="13.340982436105726"><ele>219.0</ele><time>2026-04-26T13:16:41.999Z</time></trkpt><trkpt lat="43.434529901560445" lon="13.341137870610932"><ele>219.0</ele><time>2026-04-26T13:16:42.999Z</time></trkpt><trkpt lat="43.43449554914069" lon="13.341285099315199"><ele>218.99999999999997</ele><time>2026-04-26T13:16:43.999Z</time></trkpt><trkpt lat="43.434462490347485" lon="13.341431050908227"><ele>218.99999999999997</ele><time>2026-04-26T13:16:44.999Z</time></trkpt><trkpt lat="43.43443162146206" lon="13.341574750620335"><ele>219.0</ele><time>2026-04-26T13:16:45.999Z</time></trkpt><trkpt lat="43.434402687661944" lon="13.341719928548889"><ele>219.0</ele><time>2026-04-26T13:16:46.999Z</time></trkpt><trkpt lat="43.43437625595514" lon="13.34186685992561"><ele>220.0</ele><time>2026-04-26T13:16:47.999Z</time></trkpt><trkpt lat="43.43435294154492" lon="13.342014379204167"><ele>220.99999999999997</ele><time>2026-04-26T13:16:48.999Z</time></trkpt><trkpt lat="43.43434155859354" lon="13.342162083196353"><ele>221.99999999999997</ele><time>2026-04-26T13:16:49.999Z</time></trkpt><trkpt lat="43.434333857770625" lon="13.342306597618617"><ele>223.0</ele><time>2026-04-26T13:16:50.999Z</time></trkpt><trkpt lat="43.434327982671235" lon="13.342449309418457"><ele>224.0</ele><time>2026-04-26T13:16:51.999Z</time></trkpt><trkpt lat="43.434321771465875" lon="13.342588846230713"><ele>225.0</ele><time>2026-04-26T13:16:52.999Z</time></trkpt><trkpt lat="43.4343177307565" lon="13.342723680125424"><ele>225.99999999999997</ele><time>2026-04-26T13:16:53.999Z</time></trkpt><trkpt lat="43.43431380127856" lon="13.342858242002022"><ele>226.99999999999997</ele><time>2026-04-26T13:16:54.999Z</time></trkpt><trkpt lat="43.43430487508651" lon="13.342998760334773"><ele>228.0</ele><time>2026-04-26T13:16:55.999Z</time></trkpt><trkpt lat="43.43429746449046" lon="13.343149774771886"><ele>229.0</ele><time>2026-04-26T13:16:57.001Z</time></trkpt><trkpt lat="43.43429348193782" lon="13.343310803910367"><ele>229.75</ele><time>2026-04-26T13:16:58.001Z</time></trkpt><trkpt lat="43.434283842318706" lon="13.343472791750662"><ele>230.5</ele><time>2026-04-26T13:16:59.001Z</time></trkpt><trkpt lat="43.43427057134556" lon="13.34363222879457"><ele>231.25</ele><time>2026-04-26T13:17:00.001Z</time></trkpt><trkpt lat="43.43425585938979" lon="13.343785566436587"><ele>232.0</ele><time>2026-04-26T13:17:01.001Z</time></trkpt><trkpt lat="43.434237428790816" lon="13.343933316423987"><ele>232.49999999999997</ele><time>2026-04-26T13:17:02.001Z</time></trkpt><trkpt lat="43.434219034035465" lon="13.34407586259918"><ele>233.0</ele><time>2026-04-26T13:17:03.001Z</time></trkpt><trkpt lat="43.43419453856916" lon="13.344187361084135"><ele>233.5</ele><time>2026-04-26T13:17:04.001Z</time></trkpt><trkpt lat="43.43418039252416" lon="13.344282984194932"><ele>234.0</ele><time>2026-04-26T13:17:06.001Z</time></trkpt><trkpt lat="43.434208237744976" lon="13.34419178534418"><ele>234.49999999999997</ele><time>2026-04-26T13:17:13Z</time></trkpt><trkpt lat="43.43424583696037" lon="13.344099770377763"><ele>235.0</ele><time>2026-04-26T13:17:14Z</time></trkpt><trkpt lat="43.4342652153845" lon="13.343943001960474"><ele>235.0</ele><time>2026-04-26T13:17:16Z</time></trkpt><trkpt lat="43.43428296550264" lon="13.343803321117695"><ele>235.0</ele><time>2026-04-26T13:17:18Z</time></trkpt><trkpt lat="43.43429536312959" lon="13.343704769033632"><ele>235.0</ele><time>2026-04-26T13:17:20Z</time></trkpt><trkpt lat="43.434307630413265" lon="13.343602485256513"><ele>235.0</ele><time>2026-04-26T13:17:23Z</time></trkpt><trkpt lat="43.43429680789263" lon="13.343709170336334"><ele>235.0</ele><time>2026-04-26T13:19:45Z</time></trkpt><trkpt lat="43.4342303329616" lon="13.343969855040909"><ele>234.99999999999997</ele><time>2026-04-26T13:19:49Z</time></trkpt><trkpt lat="43.434220393944216" lon="13.34405734190325"><ele>235.0</ele><time>2026-04-26T13:19:50Z</time></trkpt><trkpt lat="43.43420901578324" lon="13.344154737984232"><ele>235.0</ele><time>2026-04-26T13:19:51Z</time></trkpt><trkpt lat="43.434195890221254" lon="13.344258132836925"><ele>235.0</ele><time>2026-04-26T13:19:52Z</time></trkpt><trkpt lat="43.434186947474494" lon="13.344349105123257"><ele>234.99999999999997</ele><time>2026-04-26T13:19:53Z</time></trkpt><trkpt lat="43.43417582157745" lon="13.344505922550011"><ele>235.0</ele><time>2026-04-26T13:19:55Z</time></trkpt><trkpt lat="43.43417170286924" lon="13.344593589400763"><ele>234.99999999999997</ele><time>2026-04-26T13:19:56Z</time></trkpt><trkpt lat="43.434167058112905" lon="13.344689355411322"><ele>235.0</ele><time>2026-04-26T13:19:57Z</time></trkpt><trkpt lat="43.43416099855815" lon="13.344790929161531"><ele>235.0</ele><time>2026-04-26T13:19:58Z</time></trkpt><trkpt lat="43.434153049792755" lon="13.344898332639067"><ele>235.0</ele><time>2026-04-26T13:19:59Z</time></trkpt><trkpt lat="43.434143552414106" lon="13.345009673527526"><ele>234.99999999999997</ele><time>2026-04-26T13:20:00Z</time></trkpt><trkpt lat="43.43413940019938" lon="13.345116265985753"><ele>235.0</ele><time>2026-04-26T13:20:01Z</time></trkpt><trkpt lat="43.43414176022832" lon="13.345213781482984"><ele>235.49999999999997</ele><time>2026-04-26T13:20:02Z</time></trkpt><trkpt lat="43.43414495395681" lon="13.345308747332588"><ele>236.0</ele><time>2026-04-26T13:20:03Z</time></trkpt><trkpt lat="43.43414362409462" lon="13.345461053448865"><ele>236.5</ele><time>2026-04-26T13:20:04.999Z</time></trkpt><trkpt lat="43.434144235077035" lon="13.345562253324093"><ele>237.0</ele><time>2026-04-26T13:20:06.999Z</time></trkpt><trkpt lat="43.43413687366902" lon="13.345689894635836"><ele>237.49999999999997</ele><time>2026-04-26T13:20:09.999Z</time></trkpt><trkpt lat="43.43413811800403" lon="13.345790818596175"><ele>238.0</ele><time>2026-04-26T13:20:12.999Z</time></trkpt><trkpt lat="43.434140954791935" lon="13.345885464643004"><ele>238.99999999999997</ele><time>2026-04-26T13:20:28.999Z</time></trkpt><trkpt lat="43.43413882997292" lon="13.345978220519505"><ele>240.0</ele><time>2026-04-26T13:20:29.999Z</time></trkpt><trkpt lat="43.43413611977635" lon="13.346080191538489"><ele>241.0</ele><time>2026-04-26T13:20:30.999Z</time></trkpt><trkpt lat="43.43413211584891" lon="13.346185372057832"><ele>242.0</ele><time>2026-04-26T13:20:31.999Z</time></trkpt><trkpt lat="43.43412783274885" lon="13.346306520863978"><ele>242.99999999999997</ele><time>2026-04-26T13:20:32.999Z</time></trkpt><trkpt lat="43.43412840734394" lon="13.346454905248226"><ele>244.0</ele><time>2026-04-26T13:20:33.999Z</time></trkpt><trkpt lat="43.434127088003855" lon="13.346603867802155"><ele>245.0</ele><time>2026-04-26T13:20:34.999Z</time></trkpt><trkpt lat="43.43412490737649" lon="13.346742355847928"><ele>245.99999999999997</ele><time>2026-04-26T13:20:35.999Z</time></trkpt><trkpt lat="43.4341191171647" lon="13.346878564702271"><ele>246.99999999999997</ele><time>2026-04-26T13:20:36.999Z</time></trkpt><trkpt lat="43.434106579228946" lon="13.347012266212802"><ele>248.0</ele><time>2026-04-26T13:20:37.999Z</time></trkpt><trkpt lat="43.43409009266602" lon="13.34714848305978"><ele>249.0</ele><time>2026-04-26T13:20:38.999Z</time></trkpt><trkpt lat="43.43408188519462" lon="13.347292927028166"><ele>250.0</ele><time>2026-04-26T13:20:39.999Z</time></trkpt><trkpt lat="43.434077813657964" lon="13.347429315779564"><ele>250.99999999999997</ele><time>2026-04-26T13:20:40.999Z</time></trkpt><trkpt lat="43.434083681096276" lon="13.347546453932946"><ele>251.99999999999997</ele><time>2026-04-26T13:20:41.999Z</time></trkpt><trkpt lat="43.43410793947574" lon="13.347640899421782"><ele>253.0</ele><time>2026-04-26T13:20:42.999Z</time></trkpt><trkpt lat="43.43415513074601" lon="13.347706587219495"><ele>254.0</ele><time>2026-04-26T13:20:43.999Z</time></trkpt><trkpt lat="43.4342789221567" lon="13.34774322769516"><ele>254.0</ele><time>2026-04-26T13:20:45.999Z</time></trkpt><trkpt lat="43.434351747603905" lon="13.347781626327953"><ele>253.99999999999997</ele><time>2026-04-26T13:20:46.999Z</time></trkpt><trkpt lat="43.4344152032519" lon="13.347830000116636"><ele>253.99999999999997</ele><time>2026-04-26T13:20:47.999Z</time></trkpt><trkpt lat="43.434488334634025" lon="13.347913631504857"><ele>254.0</ele><time>2026-04-26T13:20:48.999Z</time></trkpt><trkpt lat="43.43456360447938" lon="13.348015085889372"><ele>254.0</ele><time>2026-04-26T13:20:49.999Z</time></trkpt><trkpt lat="43.434640629194" lon="13.348134900640211"><ele>254.75</ele><time>2026-04-26T13:20:50.999Z</time></trkpt><trkpt lat="43.43471305073168" lon="13.348258521686189"><ele>255.5</ele><time>2026-04-26T13:20:51.999Z</time></trkpt><trkpt lat="43.43479690139606" lon="13.348386579211912"><ele>256.25</ele><time>2026-04-26T13:20:52.999Z</time></trkpt><trkpt lat="43.43488080296756" lon="13.348513675388018"><ele>257.0</ele><time>2026-04-26T13:20:53.999Z</time></trkpt><trkpt lat="43.434952696301096" lon="13.348629197602753"><ele>257.0</ele><time>2026-04-26T13:20:54.999Z</time></trkpt><trkpt lat="43.435019866587844" lon="13.348740655051317"><ele>257.0</ele><time>2026-04-26T13:20:55.999Z</time></trkpt><trkpt lat="43.43508599854388" lon="13.348851212054738"><ele>257.0</ele><time>2026-04-26T13:20:56.999Z</time></trkpt><trkpt lat="43.43515195854771" lon="13.348955644971687"><ele>257.0</ele><time>2026-04-26T13:20:57.999Z</time></trkpt><trkpt lat="43.435223528058124" lon="13.349051819443849"><ele>257.0</ele><time>2026-04-26T13:20:58.999Z</time></trkpt><trkpt lat="43.435299204269576" lon="13.349192552489784"><ele>255.75</ele><time>2026-04-26T13:20:59.999Z</time></trkpt><trkpt lat="43.43539016481109" lon="13.349336297273961"><ele>254.5</ele><time>2026-04-26T13:21:00.999Z</time></trkpt><trkpt lat="43.43547077562471" lon="13.349462508725106"><ele>253.25</ele><time>2026-04-26T13:21:01.999Z</time></trkpt><trkpt lat="43.435545250213124" lon="13.349579814044583"><ele>252.0</ele><time>2026-04-26T13:21:02.999Z</time></trkpt><trkpt lat="43.435621980488094" lon="13.349700772737716"><ele>254.8</ele><time>2026-04-26T13:21:03.999Z</time></trkpt><trkpt lat="43.435709234128744" lon="13.349812439327167"><ele>257.6</ele><time>2026-04-26T13:21:04.999Z</time></trkpt><trkpt lat="43.43577489690434" lon="13.349927897593034"><ele>260.40000000000003</ele><time>2026-04-26T13:21:05.998Z</time></trkpt><trkpt lat="43.435831243395" lon="13.350026671898087"><ele>263.2</ele><time>2026-04-26T13:21:06.998Z</time></trkpt><trkpt lat="43.4358769000979" lon="13.350105652974772"><ele>266.0</ele><time>2026-04-26T13:21:08Z</time></trkpt><trkpt lat="43.43591794276423" lon="13.350178697953043"><ele>266.0</ele><time>2026-04-26T13:21:09Z</time></trkpt><trkpt lat="43.43599916300923" lon="13.350306188528775"><ele>266.0</ele><time>2026-04-26T13:21:11Z</time></trkpt><trkpt lat="43.436080249230066" lon="13.350446191557701"><ele>266.0</ele><time>2026-04-26T13:21:13Z</time></trkpt><trkpt lat="43.436118430710295" lon="13.350526938146318"><ele>266.0</ele><time>2026-04-26T13:21:14Z</time></trkpt><trkpt lat="43.43615688507822" lon="13.350616781908423"><ele>266.0</ele><time>2026-04-26T13:21:15Z</time></trkpt><trkpt lat="43.436195805424234" lon="13.350716817217158"><ele>268.0</ele><time>2026-04-26T13:21:16Z</time></trkpt><trkpt lat="43.43622733950353" lon="13.350826560838437"><ele>270.0</ele><time>2026-04-26T13:21:17Z</time></trkpt><trkpt lat="43.43625433908538" lon="13.350951148163906"><ele>272.0</ele><time>2026-04-26T13:21:18Z</time></trkpt><trkpt lat="43.43627719522559" lon="13.351082414970042"><ele>274.0</ele><time>2026-04-26T13:21:19Z</time></trkpt><trkpt lat="43.43629707087933" lon="13.351214941268971"><ele>276.0</ele><time>2026-04-26T13:21:20Z</time></trkpt><trkpt lat="43.43631280838084" lon="13.351339353391433"><ele>274.0</ele><time>2026-04-26T13:21:21Z</time></trkpt><trkpt lat="43.43632120911975" lon="13.351455543360299"><ele>272.0</ele><time>2026-04-26T13:21:22Z</time></trkpt><trkpt lat="43.436324957889326" lon="13.3515638108779"><ele>270.0</ele><time>2026-04-26T13:21:23Z</time></trkpt><trkpt lat="43.436324889228096" lon="13.351662721402699"><ele>268.0</ele><time>2026-04-26T13:21:24Z</time></trkpt><trkpt lat="43.43632557693108" lon="13.35175153371924"><ele>266.0</ele><time>2026-04-26T13:21:25Z</time></trkpt><trkpt lat="43.43635006782568" lon="13.351909098131767"><ele>264.0</ele><time>2026-04-26T13:21:27Z</time></trkpt><trkpt lat="43.43639758296924" lon="13.351976036029942"><ele>264.0</ele><time>2026-04-26T13:21:28Z</time></trkpt><trkpt lat="43.4364525341612" lon="13.352037844767162"><ele>264.0</ele><time>2026-04-26T13:21:29Z</time></trkpt><trkpt lat="43.43651699872239" lon="13.352094263749809"><ele>264.0</ele><time>2026-04-26T13:21:30Z</time></trkpt><trkpt lat="43.436575843055195" lon="13.352150009097969"><ele>264.0</ele><time>2026-04-26T13:21:31Z</time></trkpt><trkpt lat="43.43664188093506" lon="13.35221588729453"><ele>264.0</ele><time>2026-04-26T13:21:32Z</time></trkpt><trkpt lat="43.43671315999304" lon="13.3522739764558"><ele>264.0</ele><time>2026-04-26T13:21:33Z</time></trkpt><trkpt lat="43.43678591923785" lon="13.352310289206619"><ele>264.1666666666667</ele><time>2026-04-26T13:21:34Z</time></trkpt><trkpt lat="43.436870368728925" lon="13.35232611087686"><ele>264.3333333333333</ele><time>2026-04-26T13:21:35Z</time></trkpt><trkpt lat="43.436957616265" lon="13.352315806695986"><ele>264.5</ele><time>2026-04-26T13:21:36Z</time></trkpt><trkpt lat="43.43704137218067" lon="13.352291330876625"><ele>264.66666666666663</ele><time>2026-04-26T13:21:37Z</time></trkpt><trkpt lat="43.43712955306968" lon="13.352266581586928"><ele>264.8333333333333</ele><time>2026-04-26T13:21:38Z</time></trkpt><trkpt lat="43.43722304805721" lon="13.352255677716647"><ele>265.0</ele><time>2026-04-26T13:21:39Z</time></trkpt><trkpt lat="43.43731748012518" lon="13.35226375374647"><ele>265.0</ele><time>2026-04-26T13:21:40Z</time></trkpt><trkpt lat="43.43741604465881" lon="13.352299883875876"><ele>265.0</ele><time>2026-04-26T13:21:41Z</time></trkpt><trkpt lat="43.43751248571824" lon="13.352380300978796"><ele>265.0</ele><time>2026-04-26T13:21:42Z</time></trkpt><trkpt lat="43.437589936292035" lon="13.35249374541081"><ele>265.0</ele><time>2026-04-26T13:21:43Z</time></trkpt><trkpt lat="43.43766569899173" lon="13.352611841865674"><ele>265.0</ele><time>2026-04-26T13:21:44Z</time></trkpt><trkpt lat="43.437733142630606" lon="13.352748904321933"><ele>265.0</ele><time>2026-04-26T13:21:45Z</time></trkpt><trkpt lat="43.43780773808502" lon="13.352898493143305"><ele>265.0</ele><time>2026-04-26T13:21:46Z</time></trkpt><trkpt lat="43.437864349324116" lon="13.353056210636169"><ele>265.0</ele><time>2026-04-26T13:21:47Z</time></trkpt><trkpt lat="43.43791352853046" lon="13.353211327258052"><ele>265.0</ele><time>2026-04-26T13:21:48Z</time></trkpt><trkpt lat="43.43792893782489" lon="13.353385051245118"><ele>263.75</ele><time>2026-04-26T13:21:49Z</time></trkpt><trkpt lat="43.43792367924504" lon="13.353555726231608"><ele>262.5</ele><time>2026-04-26T13:21:50Z</time></trkpt><trkpt lat="43.43791347232678" lon="13.353724711699266"><ele>261.25</ele><time>2026-04-26T13:21:51Z</time></trkpt><trkpt lat="43.43790533600472" lon="13.353879075255183"><ele>260.0</ele><time>2026-04-26T13:21:52Z</time></trkpt><trkpt lat="43.43790231322425" lon="13.354026830303356"><ele>258.0</ele><time>2026-04-26T13:21:53Z</time></trkpt><trkpt lat="43.43790721129638" lon="13.354174839599343"><ele>256.0</ele><time>2026-04-26T13:21:54Z</time></trkpt><trkpt lat="43.43791445384766" lon="13.35432190214233"><ele>254.0</ele><time>2026-04-26T13:21:55Z</time></trkpt><trkpt lat="43.43792482250206" lon="13.354467957778153"><ele>252.0</ele><time>2026-04-26T13:21:56Z</time></trkpt><trkpt lat="43.437932680981625" lon="13.354610312672826"><ele>250.0</ele><time>2026-04-26T13:21:57Z</time></trkpt><trkpt lat="43.43793842363975" lon="13.35474159086757"><ele>248.0</ele><time>2026-04-26T13:21:58Z</time></trkpt><trkpt lat="43.437941392325314" lon="13.354855638348681"><ele>246.0</ele><time>2026-04-26T13:21:59Z</time></trkpt><trkpt lat="43.43793184351559" lon="13.354949777636834"><ele>244.0</ele><time>2026-04-26T13:22:00Z</time></trkpt><trkpt lat="43.437883812972295" lon="13.355082836585092"><ele>242.0</ele><time>2026-04-26T13:22:02Z</time></trkpt><trkpt lat="43.43782997326946" lon="13.355186402543621"><ele>240.0</ele><time>2026-04-26T13:22:04Z</time></trkpt><trkpt lat="43.43782333168207" lon="13.355326008254227"><ele>240.0</ele><time>2026-04-26T13:22:06Z</time></trkpt><trkpt lat="43.43784889397563" lon="13.35542198796837"><ele>240.0</ele><time>2026-04-26T13:22:08Z</time></trkpt><trkpt lat="43.43791342908433" lon="13.355392158945305"><ele>240.0</ele><time>2026-04-26T13:22:37.999Z</time></trkpt><trkpt lat="43.43799220879744" lon="13.355382048967275"><ele>240.0</ele><time>2026-04-26T13:22:41.999Z</time></trkpt><trkpt lat="43.43804890337696" lon="13.355344097092715"><ele>240.0</ele><time>2026-04-26T13:22:44.999Z</time></trkpt><trkpt lat="43.43810471540682" lon="13.355298999998556"><ele>240.0</ele><time>2026-04-26T13:22:46.999Z</time></trkpt><trkpt lat="43.438152176961694" lon="13.355193875251313"><ele>240.0</ele><time>2026-04-26T13:27:35Z</time></trkpt><trkpt lat="43.43814755660103" lon="13.355106673751154"><ele>239.2</ele><time>2026-04-26T13:27:37Z</time></trkpt><trkpt lat="43.43816806698285" lon="13.354945142071752"><ele>238.4</ele><time>2026-04-26T13:27:39Z</time></trkpt><trkpt lat="43.438191438226795" lon="13.35484240571991"><ele>237.60000000000002</ele><time>2026-04-26T13:27:40Z</time></trkpt><trkpt lat="43.43821710356273" lon="13.354727486989578"><ele>236.8</ele><time>2026-04-26T13:27:41Z</time></trkpt><trkpt lat="43.43824600086199" lon="13.354600308123658"><ele>236.0</ele><time>2026-04-26T13:27:42Z</time></trkpt><trkpt lat="43.43827962363756" lon="13.354459686815566"><ele>235.5</ele><time>2026-04-26T13:27:43Z</time></trkpt><trkpt lat="43.43832208990593" lon="13.354314805452377"><ele>235.0</ele><time>2026-04-26T13:27:44Z</time></trkpt><trkpt lat="43.43836873854919" lon="13.35417175312045"><ele>234.5</ele><time>2026-04-26T13:27:45Z</time></trkpt><trkpt lat="43.43842187190394" lon="13.35403027042718"><ele>234.0</ele><time>2026-04-26T13:27:46Z</time></trkpt><trkpt lat="43.43847646906694" lon="13.353878229056567"><ele>236.0</ele><time>2026-04-26T13:27:47Z</time></trkpt><trkpt lat="43.438535595102714" lon="13.3537249302309"><ele>238.0</ele><time>2026-04-26T13:27:48Z</time></trkpt><trkpt lat="43.438597525689616" lon="13.353568669296882"><ele>240.0</ele><time>2026-04-26T13:27:49Z</time></trkpt><trkpt lat="43.438661242644535" lon="13.353410018482933"><ele>242.0</ele><time>2026-04-26T13:27:50Z</time></trkpt><trkpt lat="43.438721579532725" lon="13.353248512007081"><ele>242.0</ele><time>2026-04-26T13:27:51Z</time></trkpt><trkpt lat="43.438781725049274" lon="13.353091951230017"><ele>242.0</ele><time>2026-04-26T13:27:52Z</time></trkpt><trkpt lat="43.43884013113753" lon="13.352939532962592"><ele>242.0</ele><time>2026-04-26T13:27:53Z</time></trkpt><trkpt lat="43.43889426508406" lon="13.352789089030015"><ele>242.0</ele><time>2026-04-26T13:27:54Z</time></trkpt><trkpt lat="43.43894850464009" lon="13.352632574570874"><ele>237.0</ele><time>2026-04-26T13:27:55Z</time></trkpt><trkpt lat="43.43899996549666" lon="13.352475250707064"><ele>232.0</ele><time>2026-04-26T13:27:56Z</time></trkpt><trkpt lat="43.439051214003676" lon="13.352313900150627"><ele>227.0</ele><time>2026-04-26T13:27:57Z</time></trkpt><trkpt lat="43.439101453598866" lon="13.352150639673477"><ele>222.0</ele><time>2026-04-26T13:27:58Z</time></trkpt><trkpt lat="43.43914842357389" lon="13.351981881552284"><ele>222.0</ele><time>2026-04-26T13:27:59Z</time></trkpt><trkpt lat="43.43919111979949" lon="13.351806125477209"><ele>222.0</ele><time>2026-04-26T13:28:00Z</time></trkpt><trkpt lat="43.43923047395207" lon="13.351625987033673"><ele>222.0</ele><time>2026-04-26T13:28:01Z</time></trkpt><trkpt lat="43.43926557859845" lon="13.351439883625911"><ele>222.0</ele><time>2026-04-26T13:28:02Z</time></trkpt><trkpt lat="43.43929868803586" lon="13.351250432183665"><ele>220.75</ele><time>2026-04-26T13:28:03Z</time></trkpt><trkpt lat="43.43933012787732" lon="13.351052986319607"><ele>219.5</ele><time>2026-04-26T13:28:04Z</time></trkpt><trkpt lat="43.43936303414776" lon="13.35085771910357"><ele>218.25</ele><time>2026-04-26T13:28:05Z</time></trkpt><trkpt lat="43.43939739347243" lon="13.3506565658198"><ele>217.0</ele><time>2026-04-26T13:28:06Z</time></trkpt><trkpt lat="43.43943059560668" lon="13.350457799914798"><ele>214.66666666666666</ele><time>2026-04-26T13:28:07Z</time></trkpt><trkpt lat="43.43946213472593" lon="13.350255169064058"><ele>212.33333333333331</ele><time>2026-04-26T13:28:08Z</time></trkpt><trkpt lat="43.439495013217694" lon="13.35005360845981"><ele>210.0</ele><time>2026-04-26T13:28:09Z</time></trkpt><trkpt lat="43.43953388792604" lon="13.34985072923325"><ele>208.66666666666669</ele><time>2026-04-26T13:28:10Z</time></trkpt><trkpt lat="43.439572962953285" lon="13.349649188110503"><ele>207.33333333333334</ele><time>2026-04-26T13:28:11Z</time></trkpt><trkpt lat="43.439606475702504" lon="13.349446500814004"><ele>206.0</ele><time>2026-04-26T13:28:12Z</time></trkpt><trkpt lat="43.43964265530542" lon="13.349243384567368"><ele>206.0</ele><time>2026-04-26T13:28:13Z</time></trkpt><trkpt lat="43.43967816794323" lon="13.349035909542868"><ele>206.0</ele><time>2026-04-26T13:28:14Z</time></trkpt><trkpt lat="43.43971265141792" lon="13.348834298495472"><ele>206.0</ele><time>2026-04-26T13:28:15Z</time></trkpt><trkpt lat="43.439749625238406" lon="13.348635366908722"><ele>205.33333333333334</ele><time>2026-04-26T13:28:16Z</time></trkpt><trkpt lat="43.43978595420442" lon="13.34843158905476"><ele>204.66666666666669</ele><time>2026-04-26T13:28:17Z</time></trkpt><trkpt lat="43.43982583334903" lon="13.348231651940607"><ele>204.0</ele><time>2026-04-26T13:28:18Z</time></trkpt><trkpt lat="43.439870181008736" lon="13.348033782870212"><ele>203.0</ele><time>2026-04-26T13:28:19Z</time></trkpt><trkpt lat="43.43992342714097" lon="13.34783977978553"><ele>202.0</ele><time>2026-04-26T13:28:20Z</time></trkpt><trkpt lat="43.43998281926472" lon="13.347666386705114"><ele>201.0</ele><time>2026-04-26T13:28:21Z</time></trkpt><trkpt lat="43.440048386406694" lon="13.347500257878744"><ele>200.0</ele><time>2026-04-26T13:28:22Z</time></trkpt><trkpt lat="43.44011057053628" lon="13.347334395418141"><ele>199.0</ele><time>2026-04-26T13:28:23Z</time></trkpt><trkpt lat="43.44015592814389" lon="13.347161281643595"><ele>198.0</ele><time>2026-04-26T13:28:24Z</time></trkpt><trkpt lat="43.440183911326564" lon="13.346989890360678"><ele>197.0</ele><time>2026-04-26T13:28:25Z</time></trkpt><trkpt lat="43.4401734237493" lon="13.346815177818625"><ele>196.0</ele><time>2026-04-26T13:28:26Z</time></trkpt><trkpt lat="43.440134405317814" lon="13.346648725382094"><ele>196.0</ele><time>2026-04-26T13:28:27Z</time></trkpt><trkpt lat="43.44008420778536" lon="13.346489338000138"><ele>196.0</ele><time>2026-04-26T13:28:28Z</time></trkpt><trkpt lat="43.44001937810367" lon="13.346341476189338"><ele>196.0</ele><time>2026-04-26T13:28:29Z</time></trkpt><trkpt lat="43.43995613599721" lon="13.346195062222295"><ele>196.0</ele><time>2026-04-26T13:28:29.999Z</time></trkpt><trkpt lat="43.43991176968403" lon="13.34603605102691"><ele>195.60000000000002</ele><time>2026-04-26T13:28:30.999Z</time></trkpt><trkpt lat="43.4399207422443" lon="13.34588416010974"><ele>195.2</ele><time>2026-04-26T13:28:31.999Z</time></trkpt><trkpt lat="43.4399597463443" lon="13.345745411443513"><ele>194.8</ele><time>2026-04-26T13:28:32.999Z</time></trkpt><trkpt lat="43.44001920135397" lon="13.345615894297158"><ele>194.39999999999998</ele><time>2026-04-26T13:28:33.999Z</time></trkpt><trkpt lat="43.44007710008165" lon="13.345480136184513"><ele>194.0</ele><time>2026-04-26T13:28:34.999Z</time></trkpt><trkpt lat="43.44013510943475" lon="13.345343476820766"><ele>192.0</ele><time>2026-04-26T13:28:35.999Z</time></trkpt><trkpt lat="43.44019366764294" lon="13.345209147285045"><ele>190.0</ele><time>2026-04-26T13:28:36.999Z</time></trkpt><trkpt lat="43.44025386970834" lon="13.345073424449744"><ele>188.0</ele><time>2026-04-26T13:28:37.999Z</time></trkpt><trkpt lat="43.44031582994766" lon="13.344939226041479"><ele>186.0</ele><time>2026-04-26T13:28:38.999Z</time></trkpt><trkpt lat="43.440374430423105" lon="13.34480163103095"><ele>185.5</ele><time>2026-04-26T13:28:39.999Z</time></trkpt><trkpt lat="43.440432720065324" lon="13.344663416339612"><ele>185.0</ele><time>2026-04-26T13:28:40.999Z</time></trkpt><trkpt lat="43.44049120256017" lon="13.344526372463854"><ele>184.5</ele><time>2026-04-26T13:28:41.999Z</time></trkpt><trkpt lat="43.44055150701196" lon="13.344391775347287"><ele>184.0</ele><time>2026-04-26T13:28:42.999Z</time></trkpt><trkpt lat="43.44061604345989" lon="13.344258348748186"><ele>184.0</ele><time>2026-04-26T13:28:43.999Z</time></trkpt><trkpt lat="43.44068645609569" lon="13.344134196385326"><ele>184.0</ele><time>2026-04-26T13:28:44.999Z</time></trkpt><trkpt lat="43.44077354381841" lon="13.344031282216273"><ele>184.0</ele><time>2026-04-26T13:28:45.999Z</time></trkpt><trkpt lat="43.44088049952764" lon="13.343956049996315"><ele>184.0</ele><time>2026-04-26T13:28:46.999Z</time></trkpt><trkpt lat="43.44100012421556" lon="13.34389992764386"><ele>183.0</ele><time>2026-04-26T13:28:47.999Z</time></trkpt><trkpt lat="43.44112017671594" lon="13.3438399676318"><ele>182.0</ele><time>2026-04-26T13:28:48.999Z</time></trkpt><trkpt lat="43.441242461270186" lon="13.343761925708435"><ele>181.0</ele><time>2026-04-26T13:28:49.999Z</time></trkpt><trkpt lat="43.441355668631076" lon="13.343657105080013"><ele>180.0</ele><time>2026-04-26T13:28:50.999Z</time></trkpt><trkpt lat="43.441462160922285" lon="13.343525383957864"><ele>180.0</ele><time>2026-04-26T13:28:51.999Z</time></trkpt><trkpt lat="43.44156093001261" lon="13.343385390947983"><ele>180.0</ele><time>2026-04-26T13:28:52.999Z</time></trkpt><trkpt lat="43.44165146200398" lon="13.343232470945338"><ele>180.0</ele><time>2026-04-26T13:28:53.999Z</time></trkpt><trkpt lat="43.441724032142986" lon="13.343059747611191"><ele>180.0</ele><time>2026-04-26T13:28:54.999Z</time></trkpt><trkpt lat="43.44178164196469" lon="13.342878136398802"><ele>178.25</ele><time>2026-04-26T13:28:55.999Z</time></trkpt><trkpt lat="43.44178785101171" lon="13.342682326957265"><ele>176.5</ele><time>2026-04-26T13:28:56.999Z</time></trkpt><trkpt lat="43.44174217208465" lon="13.342501648435427"><ele>174.75</ele><time>2026-04-26T13:28:57.999Z</time></trkpt><trkpt lat="43.44170193198595" lon="13.342333402517145"><ele>173.0</ele><time>2026-04-26T13:28:58.999Z</time></trkpt><trkpt lat="43.441644469942446" lon="13.342178846257804"><ele>171.75</ele><time>2026-04-26T13:28:59.999Z</time></trkpt><trkpt lat="43.44159472768989" lon="13.342019992788533"><ele>170.5</ele><time>2026-04-26T13:29:00.999Z</time></trkpt><trkpt lat="43.4415612107327" lon="13.341858525878411"><ele>169.25</ele><time>2026-04-26T13:29:01.999Z</time></trkpt><trkpt lat="43.44157947439474" lon="13.341696303263165"><ele>168.0</ele><time>2026-04-26T13:29:02.999Z</time></trkpt><trkpt lat="43.44161904157129" lon="13.341556693159115"><ele>168.0</ele><time>2026-04-26T13:29:03.999Z</time></trkpt><trkpt lat="43.44167804186429" lon="13.341430014478298"><ele>168.0</ele><time>2026-04-26T13:29:04.999Z</time></trkpt><trkpt lat="43.44175464184255" lon="13.34132057785588"><ele>168.0</ele><time>2026-04-26T13:29:05.999Z</time></trkpt><trkpt lat="43.44183721336947" lon="13.34120001370498"><ele>168.0</ele><time>2026-04-26T13:29:06.999Z</time></trkpt><trkpt lat="43.44192900233929" lon="13.341085577270812"><ele>167.5</ele><time>2026-04-26T13:29:07.999Z</time></trkpt><trkpt lat="43.44202768844316" lon="13.340966763010396"><ele>167.0</ele><time>2026-04-26T13:29:08.999Z</time></trkpt><trkpt lat="43.44212981029044" lon="13.340845795109425"><ele>166.5</ele><time>2026-04-26T13:29:09.999Z</time></trkpt><trkpt lat="43.44223285094217" lon="13.340718389287797"><ele>166.0</ele><time>2026-04-26T13:29:10.999Z</time></trkpt><trkpt lat="43.44232619773882" lon="13.340575354868509"><ele>164.0</ele><time>2026-04-26T13:29:11.999Z</time></trkpt><trkpt lat="43.44241848809761" lon="13.340425266256048"><ele>162.0</ele><time>2026-04-26T13:29:12.999Z</time></trkpt><trkpt lat="43.4424635975981" lon="13.340231728907023"><ele>160.0</ele><time>2026-04-26T13:29:13.999Z</time></trkpt><trkpt lat="43.44246976949686" lon="13.340024029194302"><ele>158.0</ele><time>2026-04-26T13:29:14.999Z</time></trkpt><trkpt lat="43.442453782807284" lon="13.339821788320949"><ele>157.0</ele><time>2026-04-26T13:29:15.999Z</time></trkpt><trkpt lat="43.442454641599596" lon="13.339607112867276"><ele>156.0</ele><time>2026-04-26T13:29:16.999Z</time></trkpt><trkpt lat="43.44246248270489" lon="13.339387308225085"><ele>155.0</ele><time>2026-04-26T13:29:17.999Z</time></trkpt><trkpt lat="43.44247481287352" lon="13.339160084278506"><ele>155.0</ele><time>2026-04-26T13:29:18.999Z</time></trkpt><trkpt lat="43.44248410658377" lon="13.338924310601417"><ele>155.0</ele><time>2026-04-26T13:29:19.999Z</time></trkpt><trkpt lat="43.442491608816574" lon="13.338683801534792"><ele>155.0</ele><time>2026-04-26T13:29:20.999Z</time></trkpt><trkpt lat="43.442499400585646" lon="13.338441921280834"><ele>153.33333333333331</ele><time>2026-04-26T13:29:21.999Z</time></trkpt><trkpt lat="43.44251086592093" lon="13.338203762867655"><ele>151.66666666666666</ele><time>2026-04-26T13:29:22.999Z</time></trkpt><trkpt lat="43.44253791062368" lon="13.337969549467507"><ele>150.0</ele><time>2026-04-26T13:29:23.999Z</time></trkpt><trkpt lat="43.4425510163995" lon="13.337736775050464"><ele>148.33333333333334</ele><time>2026-04-26T13:29:24.999Z</time></trkpt><trkpt lat="43.442564135840726" lon="13.337504409613564"><ele>146.66666666666669</ele><time>2026-04-26T13:29:25.999Z</time></trkpt><trkpt lat="43.44257656569271" lon="13.337278935462297"><ele>145.0</ele><time>2026-04-26T13:29:26.999Z</time></trkpt><trkpt lat="43.44259845405845" lon="13.337059905515515"><ele>143.33333333333334</ele><time>2026-04-26T13:29:27.998Z</time></trkpt><trkpt lat="43.442616043231695" lon="13.336847920322514"><ele>141.66666666666666</ele><time>2026-04-26T13:29:28.998Z</time></trkpt><trkpt lat="43.442681500294" lon="13.33665837058591"><ele>140.0</ele><time>2026-04-26T13:29:29.998Z</time></trkpt><trkpt lat="43.44273481924358" lon="13.336466806627005"><ele>137.66666666666666</ele><time>2026-04-26T13:29:30.998Z</time></trkpt><trkpt lat="43.442793475684766" lon="13.336275808821576"><ele>135.33333333333334</ele><time>2026-04-26T13:29:32Z</time></trkpt><trkpt lat="43.44285633542821" lon="13.33608144519396"><ele>133.0</ele><time>2026-04-26T13:29:33Z</time></trkpt><trkpt lat="43.442921119082555" lon="13.335884682922726"><ele>133.33333333333334</ele><time>2026-04-26T13:29:34Z</time></trkpt><trkpt lat="43.44298350965905" lon="13.335683534966284"><ele>133.66666666666666</ele><time>2026-04-26T13:29:35Z</time></trkpt><trkpt lat="43.443031871644216" lon="13.33546898040698"><ele>134.0</ele><time>2026-04-26T13:29:36Z</time></trkpt><trkpt lat="43.4431107352129" lon="13.335269198778322"><ele>134.0</ele><time>2026-04-26T13:29:37Z</time></trkpt><trkpt lat="43.44315859469482" lon="13.335048668537775"><ele>134.0</ele><time>2026-04-26T13:29:38Z</time></trkpt><trkpt lat="43.44322543208108" lon="13.334836006241746"><ele>134.0</ele><time>2026-04-26T13:29:39Z</time></trkpt><trkpt lat="43.4432894904129" lon="13.334625535634357"><ele>132.33333333333331</ele><time>2026-04-26T13:29:40Z</time></trkpt><trkpt lat="43.44334717254786" lon="13.334419939142471"><ele>130.66666666666666</ele><time>2026-04-26T13:29:41Z</time></trkpt><trkpt lat="43.44342387403097" lon="13.334228267477473"><ele>129.0</ele><time>2026-04-26T13:29:42Z</time></trkpt><trkpt lat="43.44347236110281" lon="13.334030882145392"><ele>126.5</ele><time>2026-04-26T13:29:43Z</time></trkpt><trkpt lat="43.443533772228875" lon="13.333851563519794"><ele>124.0</ele><time>2026-04-26T13:29:44Z</time></trkpt><trkpt lat="43.44359351919097" lon="13.333679877309304"><ele>121.5</ele><time>2026-04-26T13:29:45Z</time></trkpt><trkpt lat="43.44367140152035" lon="13.333526024008872"><ele>119.0</ele><time>2026-04-26T13:29:46Z</time></trkpt><trkpt lat="43.443774085713564" lon="13.333413824242001"><ele>120.0</ele><time>2026-04-26T13:29:47Z</time></trkpt><trkpt lat="43.44390009059732" lon="13.333348791048449"><ele>121.0</ele><time>2026-04-26T13:29:48Z</time></trkpt><trkpt lat="43.44403496299902" lon="13.333299043742496"><ele>122.0</ele><time>2026-04-26T13:29:49Z</time></trkpt><trkpt lat="43.444180107632974" lon="13.333249352547837"><ele>123.0</ele><time>2026-04-26T13:29:50Z</time></trkpt><trkpt lat="43.44433415943458" lon="13.333206720819431"><ele>123.0</ele><time>2026-04-26T13:29:51Z</time></trkpt><trkpt lat="43.44442921609127" lon="13.333183536425423"><ele>123.0</ele><time>2026-04-26T13:29:52Z</time></trkpt><trkpt lat="43.44456280860752" lon="13.33314251117398"><ele>123.0</ele><time>2026-04-26T13:29:53Z</time></trkpt><trkpt lat="43.44469927440009" lon="13.333099437947823"><ele>123.0</ele><time>2026-04-26T13:29:54Z</time></trkpt><trkpt lat="43.44483991031593" lon="13.333062443480879"><ele>121.0</ele><time>2026-04-26T13:29:55Z</time></trkpt><trkpt lat="43.44498749457876" lon="13.333043578875113"><ele>119.0</ele><time>2026-04-26T13:29:56Z</time></trkpt><trkpt lat="43.44513487670665" lon="13.333039641362653"><ele>117.0</ele><time>2026-04-26T13:29:57Z</time></trkpt><trkpt lat="43.44528711555202" lon="13.333036407318357"><ele>115.0</ele><time>2026-04-26T13:29:58Z</time></trkpt><trkpt lat="43.4454400368468" lon="13.333035360244134"><ele>112.66666666666667</ele><time>2026-04-26T13:29:59Z</time></trkpt><trkpt lat="43.44559416858065" lon="13.333037824924743"><ele>110.33333333333334</ele><time>2026-04-26T13:30:00Z</time></trkpt><trkpt lat="43.445752595993646" lon="13.333039220918922"><ele>108.0</ele><time>2026-04-26T13:30:01Z</time></trkpt><trkpt lat="43.445913334346315" lon="13.333042071344906"><ele>108.0</ele><time>2026-04-26T13:30:02Z</time></trkpt><trkpt lat="43.446077279113894" lon="13.33305241298514"><ele>108.0</ele><time>2026-04-26T13:30:03Z</time></trkpt><trkpt lat="43.4462441615139" lon="13.333070274582974"><ele>108.0</ele><time>2026-04-26T13:30:04Z</time></trkpt><trkpt lat="43.446412722087615" lon="13.333079703891668"><ele>108.0</ele><time>2026-04-26T13:30:05Z</time></trkpt><trkpt lat="43.44658155651804" lon="13.333084977442962"><ele>108.0</ele><time>2026-04-26T13:30:06Z</time></trkpt><trkpt lat="43.44675092143988" lon="13.333093863882272"><ele>108.0</ele><time>2026-04-26T13:30:07Z</time></trkpt><trkpt lat="43.44691800783293" lon="13.333103169223946"><ele>108.0</ele><time>2026-04-26T13:30:08Z</time></trkpt><trkpt lat="43.44708412349191" lon="13.333111269857632"><ele>108.0</ele><time>2026-04-26T13:30:09Z</time></trkpt><trkpt lat="43.44724987466905" lon="13.33311833824051"><ele>108.0</ele><time>2026-04-26T13:30:10Z</time></trkpt><trkpt lat="43.44741209506422" lon="13.333129223553184"><ele>108.5</ele><time>2026-04-26T13:30:11Z</time></trkpt><trkpt lat="43.4475638853954" lon="13.33313784720198"><ele>109.0</ele><time>2026-04-26T13:30:12Z</time></trkpt><trkpt lat="43.44770388589895" lon="13.333142922973533"><ele>109.5</ele><time>2026-04-26T13:30:13Z</time></trkpt><trkpt lat="43.44782590256384" lon="13.333141838048263"><ele>110.0</ele><time>2026-04-26T13:30:14Z</time></trkpt><trkpt lat="43.447928467890144" lon="13.333158953663066"><ele>110.49999999999999</ele><time>2026-04-26T13:30:15Z</time></trkpt><trkpt lat="43.44800751894141" lon="13.333110701226566"><ele>111.0</ele><time>2026-04-26T13:30:16Z</time></trkpt><trkpt lat="43.448114252317815" lon="13.333123694723493"><ele>111.5</ele><time>2026-04-26T13:30:17.999Z</time></trkpt><trkpt lat="43.44816164701797" lon="13.333182125937048"><ele>112.0</ele><time>2026-04-26T13:30:18.999Z</time></trkpt><trkpt lat="43.448199769311074" lon="13.333272946830478"><ele>112.49999999999999</ele><time>2026-04-26T13:30:19.999Z</time></trkpt><trkpt lat="43.448230048356166" lon="13.333387071338706"><ele>113.0</ele><time>2026-04-26T13:30:20.999Z</time></trkpt><trkpt lat="43.44826160690028" lon="13.33350053930009"><ele>113.0</ele><time>2026-04-26T13:30:21.999Z</time></trkpt><trkpt lat="43.448298769454944" lon="13.333627103909132"><ele>113.0</ele><time>2026-04-26T13:30:22.999Z</time></trkpt><trkpt lat="43.448337383350385" lon="13.33376965490445"><ele>113.0</ele><time>2026-04-26T13:30:23.999Z</time></trkpt><trkpt lat="43.44837701463212" lon="13.333926383924252"><ele>113.0</ele><time>2026-04-26T13:30:24.999Z</time></trkpt><trkpt lat="43.44842347596411" lon="13.334088921216837"><ele>112.5</ele><time>2026-04-26T13:30:25.999Z</time></trkpt><trkpt lat="43.44847085216242" lon="13.334244910335451"><ele>112.0</ele><time>2026-04-26T13:30:26.999Z</time></trkpt><trkpt lat="43.44852021017029" lon="13.334408733396778"><ele>111.5</ele><time>2026-04-26T13:30:27.999Z</time></trkpt><trkpt lat="43.448571014503344" lon="13.334579172395646"><ele>111.0</ele><time>2026-04-26T13:30:28.999Z</time></trkpt><trkpt lat="43.44862503305743" lon="13.334753201740488"><ele>111.75</ele><time>2026-04-26T13:30:29.999Z</time></trkpt><trkpt lat="43.4486749305951" lon="13.334931346026456"><ele>112.5</ele><time>2026-04-26T13:30:30.999Z</time></trkpt><trkpt lat="43.44872413303334" lon="13.33511845901617"><ele>113.25</ele><time>2026-04-26T13:30:31.999Z</time></trkpt><trkpt lat="43.44876406352549" lon="13.335311334663386"><ele>114.0</ele><time>2026-04-26T13:30:32.999Z</time></trkpt><trkpt lat="43.44879449359512" lon="13.335511583733853"><ele>114.33333333333334</ele><time>2026-04-26T13:30:33.999Z</time></trkpt><trkpt lat="43.44882922315446" lon="13.335710526807537"><ele>114.66666666666667</ele><time>2026-04-26T13:30:34.999Z</time></trkpt><trkpt lat="43.448865092480425" lon="13.335912192823963"><ele>115.0</ele><time>2026-04-26T13:30:35.999Z</time></trkpt><trkpt lat="43.448900615058804" lon="13.33611801423775"><ele>115.0</ele><time>2026-04-26T13:30:36.999Z</time></trkpt><trkpt lat="43.44893475548033" lon="13.3363234118726"><ele>115.0</ele><time>2026-04-26T13:30:37.999Z</time></trkpt><trkpt lat="43.448965686687714" lon="13.336538438915367"><ele>115.0</ele><time>2026-04-26T13:30:38.999Z</time></trkpt><trkpt lat="43.44899194342518" lon="13.336762025624319"><ele>115.0</ele><time>2026-04-26T13:30:39.999Z</time></trkpt><trkpt lat="43.449019225900734" lon="13.33698769243816"><ele>115.0</ele><time>2026-04-26T13:30:40.999Z</time></trkpt><trkpt lat="43.449050918137075" lon="13.337218270836322"><ele>115.0</ele><time>2026-04-26T13:30:41.999Z</time></trkpt><trkpt lat="43.44908472503557" lon="13.337453982647688"><ele>115.0</ele><time>2026-04-26T13:30:42.999Z</time></trkpt><trkpt lat="43.44911740033287" lon="13.337692985939688"><ele>115.0</ele><time>2026-04-26T13:30:43.999Z</time></trkpt><trkpt lat="43.449152469625886" lon="13.337935575378856"><ele>115.0</ele><time>2026-04-26T13:30:44.999Z</time></trkpt><trkpt lat="43.449187238135075" lon="13.338180991477358"><ele>114.33333333333334</ele><time>2026-04-26T13:30:45.999Z</time></trkpt><trkpt lat="43.44921972115315" lon="13.338407554942105"><ele>113.66666666666666</ele><time>2026-04-26T13:30:46.999Z</time></trkpt><trkpt lat="43.44925345987686" lon="13.338609059936772"><ele>113.0</ele><time>2026-04-26T13:30:47.999Z</time></trkpt><trkpt lat="43.44930266644284" lon="13.338788083335023"><ele>113.75</ele><time>2026-04-26T13:30:48.999Z</time></trkpt><trkpt lat="43.44937348799279" lon="13.338942508640468"><ele>114.5</ele><time>2026-04-26T13:30:49.999Z</time></trkpt><trkpt lat="43.449464925262326" lon="13.339082376217213"><ele>115.25</ele><time>2026-04-26T13:30:50.999Z</time></trkpt><trkpt lat="43.44956201101922" lon="13.339220802267304"><ele>116.0</ele><time>2026-04-26T13:30:51.999Z</time></trkpt><trkpt lat="43.44966307752065" lon="13.339361878647377"><ele>116.0</ele><time>2026-04-26T13:30:52.999Z</time></trkpt><trkpt lat="43.449763782242755" lon="13.33950106419787"><ele>116.0</ele><time>2026-04-26T13:30:53.999Z</time></trkpt><trkpt lat="43.44986008488137" lon="13.339632110171058"><ele>116.0</ele><time>2026-04-26T13:30:54.999Z</time></trkpt><trkpt lat="43.44994659766255" lon="13.33976416501199"><ele>116.0</ele><time>2026-04-26T13:30:55.999Z</time></trkpt><trkpt lat="43.45001895864782" lon="13.339901019250036"><ele>113.75</ele><time>2026-04-26T13:30:56.999Z</time></trkpt><trkpt lat="43.450076373402176" lon="13.34004389964534"><ele>111.5</ele><time>2026-04-26T13:30:57.999Z</time></trkpt><trkpt lat="43.45010436247158" lon="13.340196140536124"><ele>109.25</ele><time>2026-04-26T13:30:58.999Z</time></trkpt><trkpt lat="43.45009400437518" lon="13.340347165128602"><ele>107.0</ele><time>2026-04-26T13:30:59.999Z</time></trkpt><trkpt lat="43.450060184731946" lon="13.340490594888182"><ele>106.5</ele><time>2026-04-26T13:31:00.999Z</time></trkpt><trkpt lat="43.4500217376837" lon="13.340640734215528"><ele>106.0</ele><time>2026-04-26T13:31:01.999Z</time></trkpt><trkpt lat="43.449976199459186" lon="13.340798010599707"><ele>105.5</ele><time>2026-04-26T13:31:02.999Z</time></trkpt><trkpt lat="43.44992772168494" lon="13.340965309530864"><ele>105.0</ele><time>2026-04-26T13:31:03.999Z</time></trkpt><trkpt lat="43.44986806755056" lon="13.341135497472855"><ele>105.0</ele><time>2026-04-26T13:31:04.999Z</time></trkpt><trkpt lat="43.44979989865571" lon="13.341310101584877"><ele>105.0</ele><time>2026-04-26T13:31:05.999Z</time></trkpt><trkpt lat="43.44972694162116" lon="13.341491754827567"><ele>105.0</ele><time>2026-04-26T13:31:06.999Z</time></trkpt><trkpt lat="43.44964534341355" lon="13.341673094545802"><ele>105.66666666666666</ele><time>2026-04-26T13:31:07.999Z</time></trkpt><trkpt lat="43.44955040691126" lon="13.341848315273733"><ele>106.33333333333333</ele><time>2026-04-26T13:31:08.999Z</time></trkpt><trkpt lat="43.44944623621344" lon="13.342018899433628"><ele>107.0</ele><time>2026-04-26T13:31:09.999Z</time></trkpt><trkpt lat="43.44934771488309" lon="13.342177848403399"><ele>107.5</ele><time>2026-04-26T13:31:10.999Z</time></trkpt><trkpt lat="43.44926021318324" lon="13.342324588313566"><ele>108.0</ele><time>2026-04-26T13:31:11.999Z</time></trkpt><trkpt lat="43.44919576745125" lon="13.342478295974173"><ele>108.5</ele><time>2026-04-26T13:31:12.999Z</time></trkpt><trkpt lat="43.44916056240866" lon="13.342651484825215"><ele>109.0</ele><time>2026-04-26T13:31:13.999Z</time></trkpt><trkpt lat="43.44913966087622" lon="13.342836791760115"><ele>109.0</ele><time>2026-04-26T13:31:14.999Z</time></trkpt><trkpt lat="43.44912242084983" lon="13.343033103382371"><ele>109.0</ele><time>2026-04-26T13:31:15.999Z</time></trkpt><trkpt lat="43.44910550942208" lon="13.343242709742892"><ele>109.0</ele><time>2026-04-26T13:31:16.999Z</time></trkpt><trkpt lat="43.44909048230077" lon="13.343463876693237"><ele>109.0</ele><time>2026-04-26T13:31:17.998Z</time></trkpt><trkpt lat="43.44907622324363" lon="13.343694135513688"><ele>109.0</ele><time>2026-04-26T13:31:18.998Z</time></trkpt><trkpt lat="43.449063224464666" lon="13.343932368000745"><ele>109.0</ele><time>2026-04-26T13:31:19.998Z</time></trkpt><trkpt lat="43.4490595741019" lon="13.344174600658947"><ele>108.33333333333334</ele><time>2026-04-26T13:31:20.998Z</time></trkpt><trkpt lat="43.449064719849275" lon="13.344426487678192"><ele>107.66666666666666</ele><time>2026-04-26T13:31:21.998Z</time></trkpt><trkpt lat="43.44907592593178" lon="13.344687724881895"><ele>107.0</ele><time>2026-04-26T13:31:22.998Z</time></trkpt><trkpt lat="43.44908378987605" lon="13.344956478142894"><ele>105.33333333333333</ele><time>2026-04-26T13:31:23.998Z</time></trkpt><trkpt lat="43.44908829041863" lon="13.345212985647155"><ele>103.66666666666666</ele><time>2026-04-26T13:31:24.998Z</time></trkpt><trkpt lat="43.44909397592916" lon="13.345454972877317"><ele>102.0</ele><time>2026-04-26T13:31:25.998Z</time></trkpt><trkpt lat="43.44909895429407" lon="13.345683156454905"><ele>102.0</ele><time>2026-04-26T13:31:26.998Z</time></trkpt><trkpt lat="43.449117338025864" lon="13.345891707623817"><ele>102.0</ele><time>2026-04-26T13:31:27.998Z</time></trkpt><trkpt lat="43.44915675205045" lon="13.346087425885827"><ele>102.0</ele><time>2026-04-26T13:31:28.998Z</time></trkpt><trkpt lat="43.44921084199338" lon="13.346275700094777"><ele>102.0</ele><time>2026-04-26T13:31:29.998Z</time></trkpt><trkpt lat="43.44927387107383" lon="13.34646561363896"><ele>101.66666666666666</ele><time>2026-04-26T13:31:30.998Z</time></trkpt><trkpt lat="43.44934193187467" lon="13.346662595433703"><ele>101.33333333333333</ele><time>2026-04-26T13:31:31.998Z</time></trkpt><trkpt lat="43.449412029534756" lon="13.346865604863979"><ele>101.0</ele><time>2026-04-26T13:31:32.998Z</time></trkpt><trkpt lat="43.449484094630684" lon="13.347069439617945"><ele>101.0</ele><time>2026-04-26T13:31:33.998Z</time></trkpt><trkpt lat="43.44955543987981" lon="13.34727482565797"><ele>101.0</ele><time>2026-04-26T13:31:34.998Z</time></trkpt><trkpt lat="43.4496243639452" lon="13.34747951639846"><ele>101.0</ele><time>2026-04-26T13:31:35.998Z</time></trkpt><trkpt lat="43.4496903409761" lon="13.347682769528957"><ele>101.0</ele><time>2026-04-26T13:31:37Z</time></trkpt><trkpt lat="43.44975471307336" lon="13.347885934279498"><ele>101.0</ele><time>2026-04-26T13:31:38Z</time></trkpt><trkpt lat="43.449813304599324" lon="13.34810034283445"><ele>101.0</ele><time>2026-04-26T13:31:39Z</time></trkpt><trkpt lat="43.449861089731" lon="13.348325152230919"><ele>101.0</ele><time>2026-04-26T13:31:40Z</time></trkpt><trkpt lat="43.44990147364521" lon="13.348557219159993"><ele>101.0</ele><time>2026-04-26T13:31:41Z</time></trkpt><trkpt lat="43.449948609747146" lon="13.348790190661378"><ele>101.0</ele><time>2026-04-26T13:31:42Z</time></trkpt><trkpt lat="43.450017164128695" lon="13.349015333084235"><ele>100.66666666666666</ele><time>2026-04-26T13:31:43Z</time></trkpt><trkpt lat="43.45010917018428" lon="13.349229360994181"><ele>100.33333333333334</ele><time>2026-04-26T13:31:44Z</time></trkpt><trkpt lat="43.45021956284397" lon="13.349433139990659"><ele>100.0</ele><time>2026-04-26T13:31:45Z</time></trkpt><trkpt lat="43.450331978652756" lon="13.34963921881916"><ele>99.66666666666667</ele><time>2026-04-26T13:31:46Z</time></trkpt><trkpt lat="43.450433693899534" lon="13.349851579041221"><ele>99.33333333333334</ele><time>2026-04-26T13:31:47Z</time></trkpt><trkpt lat="43.45052988050903" lon="13.350074911382908"><ele>99.0</ele><time>2026-04-26T13:31:48Z</time></trkpt><trkpt lat="43.450631623459124" lon="13.350295890413797"><ele>99.66666666666666</ele><time>2026-04-26T13:31:49Z</time></trkpt><trkpt lat="43.45074040627644" lon="13.350509622415276"><ele>100.33333333333333</ele><time>2026-04-26T13:31:50Z</time></trkpt><trkpt lat="43.45084904036103" lon="13.35072520327065"><ele>101.0</ele><time>2026-04-26T13:31:51Z</time></trkpt><trkpt lat="43.45095414511039" lon="13.350940977217892"><ele>101.0</ele><time>2026-04-26T13:31:52Z</time></trkpt><trkpt lat="43.451061381984154" lon="13.351151438154425"><ele>101.0</ele><time>2026-04-26T13:31:53Z</time></trkpt><trkpt lat="43.451174477736345" lon="13.351355629711907"><ele>101.0</ele><time>2026-04-26T13:31:54Z</time></trkpt><trkpt lat="43.45129007604171" lon="13.35155413613838"><ele>101.0</ele><time>2026-04-26T13:31:55Z</time></trkpt><trkpt lat="43.45140601579231" lon="13.351750714122712"><ele>101.0</ele><time>2026-04-26T13:31:56Z</time></trkpt><trkpt lat="43.451521003697806" lon="13.351947553004969"><ele>101.0</ele><time>2026-04-26T13:31:57Z</time></trkpt><trkpt lat="43.45164040850987" lon="13.352140686504827"><ele>100.66666666666666</ele><time>2026-04-26T13:31:58Z</time></trkpt><trkpt lat="43.45176047366686" lon="13.352331007233879"><ele>100.33333333333334</ele><time>2026-04-26T13:31:59Z</time></trkpt><trkpt lat="43.45187530428256" lon="13.352528628378703"><ele>100.0</ele><time>2026-04-26T13:32:00Z</time></trkpt><trkpt lat="43.451980140547214" lon="13.35273716744742"><ele>100.0</ele><time>2026-04-26T13:32:01Z</time></trkpt><trkpt lat="43.45207670316724" lon="13.352960055982386"><ele>100.0</ele><time>2026-04-26T13:32:02Z</time></trkpt><trkpt lat="43.45215099808449" lon="13.353195013932504"><ele>100.0</ele><time>2026-04-26T13:32:03Z</time></trkpt><trkpt lat="43.45221207934527" lon="13.353437147334468"><ele>100.0</ele><time>2026-04-26T13:32:04Z</time></trkpt><trkpt lat="43.452277735039104" lon="13.353679716031847"><ele>100.0</ele><time>2026-04-26T13:32:05Z</time></trkpt><trkpt lat="43.452348332391644" lon="13.353918605214039"><ele>100.0</ele><time>2026-04-26T13:32:06Z</time></trkpt><trkpt lat="43.4524119680879" lon="13.354146603235975"><ele>99.33333333333334</ele><time>2026-04-26T13:32:07Z</time></trkpt><trkpt lat="43.45247276624826" lon="13.354353508159102"><ele>98.66666666666666</ele><time>2026-04-26T13:32:08Z</time></trkpt><trkpt lat="43.45253027613461" lon="13.354541797325929"><ele>98.0</ele><time>2026-04-26T13:32:09Z</time></trkpt><trkpt lat="43.45258776647425" lon="13.354717253062237"><ele>97.80000000000001</ele><time>2026-04-26T13:32:10Z</time></trkpt><trkpt lat="43.452640172006774" lon="13.354878698396183"><ele>97.6</ele><time>2026-04-26T13:32:11Z</time></trkpt><trkpt lat="43.452683725416826" lon="13.355029544253822"><ele>97.4</ele><time>2026-04-26T13:32:12Z</time></trkpt><trkpt lat="43.45272352584913" lon="13.355161638221071"><ele>97.19999999999999</ele><time>2026-04-26T13:32:13Z</time></trkpt><trkpt lat="43.45275728139872" lon="13.355270982294654"><ele>97.0</ele><time>2026-04-26T13:32:14Z</time></trkpt><trkpt lat="43.45278094414017" lon="13.355356235430856"><ele>97.0</ele><time>2026-04-26T13:32:14.999Z</time></trkpt><trkpt lat="43.452808336299675" lon="13.355475817742422"><ele>97.0</ele><time>2026-04-26T13:32:16.999Z</time></trkpt><trkpt lat="43.452969014739374" lon="13.355528248062495"><ele>97.0</ele><time>2026-04-26T13:32:19.999Z</time></trkpt><trkpt lat="43.453029901960896" lon="13.35556191710505"><ele>97.0</ele><time>2026-04-26T13:32:20.999Z</time></trkpt><trkpt lat="43.45308860085726" lon="13.355593981352841"><ele>97.0</ele><time>2026-04-26T13:32:21.999Z</time></trkpt><trkpt lat="43.45315152889038" lon="13.355620763950409"><ele>98.57142857142857</ele><time>2026-04-26T13:32:22.999Z</time></trkpt><trkpt lat="43.45321451990068" lon="13.355639240082917"><ele>100.14285714285715</ele><time>2026-04-26T13:32:23.999Z</time></trkpt><trkpt lat="43.45327983499459" lon="13.355651068634492"><ele>101.71428571428572</ele><time>2026-04-26T13:32:24.999Z</time></trkpt><trkpt lat="43.45334931287524" lon="13.355648359949246"><ele>103.28571428571428</ele><time>2026-04-26T13:32:25.999Z</time></trkpt><trkpt lat="43.45341874513007" lon="13.355633894151733"><ele>104.85714285714286</ele><time>2026-04-26T13:32:26.999Z</time></trkpt><trkpt lat="43.4534817056044" lon="13.355619512713139"><ele>106.42857142857143</ele><time>2026-04-26T13:32:27.999Z</time></trkpt><trkpt lat="43.4535940380548" lon="13.355605204838596"><ele>108.0</ele><time>2026-04-26T13:32:29.999Z</time></trkpt><trkpt lat="43.453706742688176" lon="13.355589115949126"><ele>111.0</ele><time>2026-04-26T13:32:31.999Z</time></trkpt><trkpt lat="43.453833057274984" lon="13.355589357153473"><ele>114.00000000000001</ele><time>2026-04-26T13:32:33.999Z</time></trkpt><trkpt lat="43.45394039407575" lon="13.35561272608519"><ele>117.00000000000001</ele><time>2026-04-26T13:32:35.999Z</time></trkpt><trkpt lat="43.454057464734866" lon="13.355643808553104"><ele>120.0</ele><time>2026-04-26T13:32:37.999Z</time></trkpt><trkpt lat="43.45411886679436" lon="13.355665523162275"><ele>123.0</ele><time>2026-04-26T13:32:38.999Z</time></trkpt><trkpt lat="43.45417873604893" lon="13.355694738958343"><ele>123.0</ele><time>2026-04-26T13:32:39.999Z</time></trkpt><trkpt lat="43.454293731769745" lon="13.355755428711724"><ele>123.00000000000001</ele><time>2026-04-26T13:32:41.999Z</time></trkpt><trkpt lat="43.454398467110096" lon="13.35582275240035"><ele>123.00000000000001</ele><time>2026-04-26T13:32:43.999Z</time></trkpt><trkpt lat="43.454507884770365" lon="13.355906506192802"><ele>123.0</ele><time>2026-04-26T13:32:45.999Z</time></trkpt><trkpt lat="43.45456363210014" lon="13.355955015826156"><ele>123.0</ele><time>2026-04-26T13:32:46.999Z</time></trkpt><trkpt lat="43.45461941536212" lon="13.35600175344204"><ele>124.83333333333333</ele><time>2026-04-26T13:32:47.999Z</time></trkpt><trkpt lat="43.45473376259394" lon="13.356074251048497"><ele>126.66666666666666</ele><time>2026-04-26T13:32:49.999Z</time></trkpt><trkpt lat="43.45479874718409" lon="13.356099305711199"><ele>128.5</ele><time>2026-04-26T13:32:50.999Z</time></trkpt><trkpt lat="43.45487158702202" lon="13.35611951200341"><ele>130.33333333333331</ele><time>2026-04-26T13:32:51.999Z</time></trkpt><trkpt lat="43.45494133191759" lon="13.356139543118896"><ele>132.16666666666666</ele><time>2026-04-26T13:32:52.999Z</time></trkpt><trkpt lat="43.455015005545334" lon="13.35616310450265"><ele>134.0</ele><time>2026-04-26T13:32:53.999Z</time></trkpt><trkpt lat="43.45508282644017" lon="13.356192754729632"><ele>134.0</ele><time>2026-04-26T13:32:54.999Z</time></trkpt><trkpt lat="43.45515071778308" lon="13.356220981672585"><ele>134.0</ele><time>2026-04-26T13:32:55.999Z</time></trkpt><trkpt lat="43.45522066748912" lon="13.356250936187084"><ele>134.0</ele><time>2026-04-26T13:32:56.999Z</time></trkpt><trkpt lat="43.455296871314935" lon="13.356284222638251"><ele>134.0</ele><time>2026-04-26T13:32:57.999Z</time></trkpt><trkpt lat="43.45536978330627" lon="13.356318685513966"><ele>134.0</ele><time>2026-04-26T13:32:58.999Z</time></trkpt><trkpt lat="43.45544276016561" lon="13.356348327387476"><ele>134.0</ele><time>2026-04-26T13:32:59.999Z</time></trkpt><trkpt lat="43.45551623640675" lon="13.356381260855565"><ele>136.66666666666666</ele><time>2026-04-26T13:33:00.999Z</time></trkpt><trkpt lat="43.455586726951175" lon="13.356421589557222"><ele>139.33333333333331</ele><time>2026-04-26T13:33:01.999Z</time></trkpt><trkpt lat="43.45565535500722" lon="13.35646151100483"><ele>142.0</ele><time>2026-04-26T13:33:02.999Z</time></trkpt><trkpt lat="43.45573128453856" lon="13.356500813823988"><ele>144.66666666666666</ele><time>2026-04-26T13:33:03.999Z</time></trkpt><trkpt lat="43.455808098719594" lon="13.356540221562431"><ele>147.33333333333334</ele><time>2026-04-26T13:33:04.999Z</time></trkpt><trkpt lat="43.455881129687704" lon="13.356587237013901"><ele>150.0</ele><time>2026-04-26T13:33:05.999Z</time></trkpt><trkpt lat="43.45595118402948" lon="13.35664131091294"><ele>150.0</ele><time>2026-04-26T13:33:06.999Z</time></trkpt><trkpt lat="43.456024434381206" lon="13.35667979085813"><ele>150.0</ele><time>2026-04-26T13:33:07.999Z</time></trkpt><trkpt lat="43.45609474190558" lon="13.356716149079665"><ele>150.0</ele><time>2026-04-26T13:33:08.999Z</time></trkpt><trkpt lat="43.45616868292415" lon="13.356759923379146"><ele>150.0</ele><time>2026-04-26T13:33:09.999Z</time></trkpt><trkpt lat="43.45624577522752" lon="13.35680661286703"><ele>150.0</ele><time>2026-04-26T13:33:10.999Z</time></trkpt><trkpt lat="43.45632238935804" lon="13.35685231765895"><ele>150.0</ele><time>2026-04-26T13:33:11.999Z</time></trkpt><trkpt lat="43.456398395259264" lon="13.3568984818746"><ele>151.66666666666666</ele><time>2026-04-26T13:33:12.999Z</time></trkpt><trkpt lat="43.456476272152145" lon="13.356940352742525"><ele>153.33333333333334</ele><time>2026-04-26T13:33:13.999Z</time></trkpt><trkpt lat="43.4565543424218" lon="13.356981319249547"><ele>155.0</ele><time>2026-04-26T13:33:14.999Z</time></trkpt><trkpt lat="43.45662825684287" lon="13.357019007796772"><ele>156.66666666666669</ele><time>2026-04-26T13:33:15.999Z</time></trkpt><trkpt lat="43.456704276253895" lon="13.357057384819605"><ele>158.33333333333334</ele><time>2026-04-26T13:33:16.999Z</time></trkpt><trkpt lat="43.4567700763492" lon="13.357097465929701"><ele>160.0</ele><time>2026-04-26T13:33:17.999Z</time></trkpt><trkpt lat="43.45686078058873" lon="13.357137814112622"><ele>160.0</ele><time>2026-04-26T13:33:18.998Z</time></trkpt><trkpt lat="43.45694140146592" lon="13.357182103910992"><ele>160.0</ele><time>2026-04-26T13:33:19.998Z</time></trkpt><trkpt lat="43.45701993265918" lon="13.35722183254108"><ele>160.0</ele><time>2026-04-26T13:33:20.998Z</time></trkpt><trkpt lat="43.45709680401556" lon="13.357268221324015"><ele>160.0</ele><time>2026-04-26T13:33:21.998Z</time></trkpt><trkpt lat="43.45717571149098" lon="13.357321254808246"><ele>160.0</ele><time>2026-04-26T13:33:22.998Z</time></trkpt><trkpt lat="43.45725299565375" lon="13.357380759555898"><ele>160.0</ele><time>2026-04-26T13:33:23.998Z</time></trkpt><trkpt lat="43.457330641240716" lon="13.357440791769957"><ele>161.5</ele><time>2026-04-26T13:33:24.998Z</time></trkpt><trkpt lat="43.45740939618823" lon="13.357498538894449"><ele>163.0</ele><time>2026-04-26T13:33:25.998Z</time></trkpt><trkpt lat="43.45748365727154" lon="13.357556439649708"><ele>164.5</ele><time>2026-04-26T13:33:26.998Z</time></trkpt><trkpt lat="43.457559952120036" lon="13.357613472403866"><ele>166.0</ele><time>2026-04-26T13:33:27.998Z</time></trkpt><trkpt lat="43.457636450233274" lon="13.357672417667684"><ele>167.5</ele><time>2026-04-26T13:33:28.998Z</time></trkpt><trkpt lat="43.45771283720348" lon="13.357737263696242"><ele>169.0</ele><time>2026-04-26T13:33:29.998Z</time></trkpt><trkpt lat="43.45778426837104" lon="13.357807376836767"><ele>169.0</ele><time>2026-04-26T13:33:30.998Z</time></trkpt><trkpt lat="43.45784787237514" lon="13.35788298435103"><ele>169.0</ele><time>2026-04-26T13:33:31.998Z</time></trkpt><trkpt lat="43.45791003117216" lon="13.357964725198565"><ele>169.0</ele><time>2026-04-26T13:33:32.998Z</time></trkpt><trkpt lat="43.45797271263343" lon="13.35804798414919"><ele>169.0</ele><time>2026-04-26T13:33:33.998Z</time></trkpt><trkpt lat="43.458031322655444" lon="13.358131399680733"><ele>169.0</ele><time>2026-04-26T13:33:34.998Z</time></trkpt><trkpt lat="43.45809330852992" lon="13.358215548979157"><ele>169.0</ele><time>2026-04-26T13:33:35.998Z</time></trkpt><trkpt lat="43.45815702089459" lon="13.358303630838572"><ele>170.16666666666669</ele><time>2026-04-26T13:33:36.998Z</time></trkpt><trkpt lat="43.4582184051784" lon="13.35839581855175"><ele>171.33333333333334</ele><time>2026-04-26T13:33:37.998Z</time></trkpt><trkpt lat="43.458280622789815" lon="13.358485900975326"><ele>172.5</ele><time>2026-04-26T13:33:38.998Z</time></trkpt><trkpt lat="43.458341768718796" lon="13.358572250542059"><ele>173.66666666666666</ele><time>2026-04-26T13:33:39.998Z</time></trkpt><trkpt lat="43.45840062973462" lon="13.358662348590215"><ele>174.83333333333331</ele><time>2026-04-26T13:33:40.998Z</time></trkpt><trkpt lat="43.45845744805794" lon="13.358748315925913"><ele>176.0</ele><time>2026-04-26T13:33:41.998Z</time></trkpt><trkpt lat="43.458505187757616" lon="13.358833276475153"><ele>175.5</ele><time>2026-04-26T13:33:43Z</time></trkpt><trkpt lat="43.458558856047944" lon="13.358894602671068"><ele>175.0</ele><time>2026-04-26T13:33:44Z</time></trkpt><trkpt lat="43.45860977613788" lon="13.358955157687188"><ele>174.5</ele><time>2026-04-26T13:33:45Z</time></trkpt><trkpt lat="43.45871772308118" lon="13.359023318372385"><ele>174.0</ele><time>2026-04-26T13:33:47Z</time></trkpt><trkpt lat="43.4587775092826" lon="13.359078383276639"><ele>173.5</ele><time>2026-04-26T13:33:48Z</time></trkpt><trkpt lat="43.45885599686635" lon="13.359119647487208"><ele>173.0</ele><time>2026-04-26T13:33:49Z</time></trkpt><trkpt lat="43.45893648398462" lon="13.359146299277537"><ele>173.0</ele><time>2026-04-26T13:33:50Z</time></trkpt><trkpt lat="43.45900590082203" lon="13.359196982194298"><ele>173.0</ele><time>2026-04-26T13:33:51Z</time></trkpt><trkpt lat="43.45907099398628" lon="13.359246970994135"><ele>173.0</ele><time>2026-04-26T13:33:52Z</time></trkpt><trkpt lat="43.45913323569356" lon="13.35930539677714"><ele>173.0</ele><time>2026-04-26T13:33:53Z</time></trkpt><trkpt lat="43.45919347722422" lon="13.359362872641032"><ele>173.0</ele><time>2026-04-26T13:33:54Z</time></trkpt><trkpt lat="43.459257558837265" lon="13.359422599691229"><ele>173.0</ele><time>2026-04-26T13:33:55Z</time></trkpt><trkpt lat="43.459323357301145" lon="13.359487837891306"><ele>173.0</ele><time>2026-04-26T13:33:56Z</time></trkpt><trkpt lat="43.459388749368635" lon="13.359557458783309"><ele>173.0</ele><time>2026-04-26T13:33:57Z</time></trkpt><trkpt lat="43.45945308102046" lon="13.359630502208452"><ele>173.0</ele><time>2026-04-26T13:33:58Z</time></trkpt><trkpt lat="43.4595172743368" lon="13.359697381123489"><ele>173.0</ele><time>2026-04-26T13:33:59Z</time></trkpt><trkpt lat="43.459580781416456" lon="13.359761612452298"><ele>173.0</ele><time>2026-04-26T13:34:00Z</time></trkpt><trkpt lat="43.45964331917757" lon="13.359825985474487"><ele>173.0</ele><time>2026-04-26T13:34:01Z</time></trkpt><trkpt lat="43.45970570506873" lon="13.359892972491748"><ele>172.83333333333331</ele><time>2026-04-26T13:34:02Z</time></trkpt><trkpt lat="43.45977773197925" lon="13.359955281351318"><ele>172.66666666666666</ele><time>2026-04-26T13:34:03Z</time></trkpt><trkpt lat="43.45985459294356" lon="13.359997713262823"><ele>172.5</ele><time>2026-04-26T13:34:04Z</time></trkpt><trkpt lat="43.459937937623856" lon="13.360016542061665"><ele>172.33333333333334</ele><time>2026-04-26T13:34:05Z</time></trkpt><trkpt lat="43.460021672004295" lon="13.360019691470411"><ele>172.16666666666669</ele><time>2026-04-26T13:34:06Z</time></trkpt><trkpt lat="43.46010505687944" lon="13.36001049897722"><ele>172.0</ele><time>2026-04-26T13:34:07Z</time></trkpt><trkpt lat="43.46018270677753" lon="13.359984117991452"><ele>172.0</ele><time>2026-04-26T13:34:08Z</time></trkpt><trkpt lat="43.460269492673696" lon="13.35994289233749"><ele>172.0</ele><time>2026-04-26T13:34:09Z</time></trkpt><trkpt lat="43.46035783252751" lon="13.359920031248938"><ele>172.0</ele><time>2026-04-26T13:34:10Z</time></trkpt><trkpt lat="43.46043981577885" lon="13.359872732186743"><ele>172.0</ele><time>2026-04-26T13:34:11Z</time></trkpt><trkpt lat="43.460521132434785" lon="13.35982500485394"><ele>172.0</ele><time>2026-04-26T13:34:12Z</time></trkpt><trkpt lat="43.460595589007376" lon="13.359752905398814"><ele>172.33333333333334</ele><time>2026-04-26T13:34:13Z</time></trkpt><trkpt lat="43.46068018954424" lon="13.359710056500885"><ele>172.66666666666669</ele><time>2026-04-26T13:34:14Z</time></trkpt><trkpt lat="43.46076139114542" lon="13.359665008386092"><ele>173.0</ele><time>2026-04-26T13:34:15Z</time></trkpt><trkpt lat="43.46084433835549" lon="13.359623687635631"><ele>173.33333333333334</ele><time>2026-04-26T13:34:16Z</time></trkpt><trkpt lat="43.46092796499753" lon="13.35959449105524"><ele>173.66666666666666</ele><time>2026-04-26T13:34:17Z</time></trkpt><trkpt lat="43.461013341728865" lon="13.35958409221165"><ele>174.0</ele><time>2026-04-26T13:34:18Z</time></trkpt><trkpt lat="43.4610954918859" lon="13.359595982200371"><ele>174.0</ele><time>2026-04-26T13:34:19Z</time></trkpt><trkpt lat="43.4611772614117" lon="13.359622493366624"><ele>174.0</ele><time>2026-04-26T13:34:20Z</time></trkpt><trkpt lat="43.4612556063757" lon="13.359649367942392"><ele>174.0</ele><time>2026-04-26T13:34:21Z</time></trkpt><trkpt lat="43.46133337475097" lon="13.359658634888126"><ele>174.0</ele><time>2026-04-26T13:34:22Z</time></trkpt><trkpt lat="43.46140616900709" lon="13.359643359087055"><ele>174.0</ele><time>2026-04-26T13:34:23Z</time></trkpt><trkpt lat="43.461467673315674" lon="13.359613689983167"><ele>174.0</ele><time>2026-04-26T13:34:23.999Z</time></trkpt><trkpt lat="43.46153126832162" lon="13.359577292084104"><ele>175.57142857142856</ele><time>2026-04-26T13:34:24.999Z</time></trkpt><trkpt lat="43.46159053782088" lon="13.35954510998316"><ele>177.14285714285714</ele><time>2026-04-26T13:34:25.999Z</time></trkpt><trkpt lat="43.461652387804335" lon="13.359509592640887"><ele>178.71428571428572</ele><time>2026-04-26T13:34:26.999Z</time></trkpt><trkpt lat="43.46172013227173" lon="13.359471734793683"><ele>180.28571428571428</ele><time>2026-04-26T13:34:27.999Z</time></trkpt><trkpt lat="43.46178564433431" lon="13.359442067608486"><ele>181.85714285714286</ele><time>2026-04-26T13:34:28.999Z</time></trkpt><trkpt lat="43.461851656925454" lon="13.35941514522858"><ele>183.42857142857142</ele><time>2026-04-26T13:34:29.999Z</time></trkpt><trkpt lat="43.46192211801104" lon="13.359387968181684"><ele>185.0</ele><time>2026-04-26T13:34:30.999Z</time></trkpt><trkpt lat="43.461995893601504" lon="13.359357891962087"><ele>185.0</ele><time>2026-04-26T13:34:31.999Z</time></trkpt><trkpt lat="43.462069551591746" lon="13.359325820059842"><ele>185.0</ele><time>2026-04-26T13:34:32.999Z</time></trkpt><trkpt lat="43.4621407603126" lon="13.359302390288281"><ele>185.0</ele><time>2026-04-26T13:34:33.999Z</time></trkpt><trkpt lat="43.46222226849294" lon="13.359273068131623"><ele>185.0</ele><time>2026-04-26T13:34:34.999Z</time></trkpt><trkpt lat="43.46230827487079" lon="13.359241934756058"><ele>185.0</ele><time>2026-04-26T13:34:35.999Z</time></trkpt><trkpt lat="43.46239144978118" lon="13.359213283956871"><ele>185.0</ele><time>2026-04-26T13:34:36.999Z</time></trkpt><trkpt lat="43.462476345295094" lon="13.359187451228546"><ele>186.5</ele><time>2026-04-26T13:34:37.999Z</time></trkpt><trkpt lat="43.46255734550161" lon="13.35916345624925"><ele>188.0</ele><time>2026-04-26T13:34:38.999Z</time></trkpt><trkpt lat="43.46263609918854" lon="13.359136788996985"><ele>189.5</ele><time>2026-04-26T13:34:39.999Z</time></trkpt><trkpt lat="43.46271121069475" lon="13.35910893979567"><ele>191.0</ele><time>2026-04-26T13:34:40.999Z</time></trkpt><trkpt lat="43.46278325778043" lon="13.359077055792199"><ele>192.50000000000003</ele><time>2026-04-26T13:34:41.999Z</time></trkpt><trkpt lat="43.462859217435025" lon="13.359047388391701"><ele>194.0</ele><time>2026-04-26T13:34:42.999Z</time></trkpt><trkpt lat="43.46293022344215" lon="13.359026162345982"><ele>195.14285714285714</ele><time>2026-04-26T13:34:43.999Z</time></trkpt><trkpt lat="43.463000558886264" lon="13.359004810669084"><ele>196.2857142857143</ele><time>2026-04-26T13:34:44.999Z</time></trkpt><trkpt lat="43.46307147041927" lon="13.358978753126117"><ele>197.42857142857144</ele><time>2026-04-26T13:34:45.999Z</time></trkpt><trkpt lat="43.4631432178969" lon="13.358951854699406"><ele>198.57142857142856</ele><time>2026-04-26T13:34:46.999Z</time></trkpt><trkpt lat="43.46320972538326" lon="13.358929721720516"><ele>199.71428571428572</ele><time>2026-04-26T13:34:47.999Z</time></trkpt><trkpt lat="43.46327725575988" lon="13.358910354069259"><ele>200.85714285714286</ele><time>2026-04-26T13:34:48.999Z</time></trkpt><trkpt lat="43.463339012528785" lon="13.358880872923837"><ele>202.0</ele><time>2026-04-26T13:34:49.999Z</time></trkpt><trkpt lat="43.463401991027816" lon="13.358861273567083"><ele>202.0</ele><time>2026-04-26T13:34:50.999Z</time></trkpt><trkpt lat="43.4634901129356" lon="13.358888655822216"><ele>202.0</ele><time>2026-04-26T13:34:52.999Z</time></trkpt><trkpt lat="43.46355588217905" lon="13.359001664295125"><ele>202.0</ele><time>2026-04-26T13:34:54.999Z</time></trkpt><trkpt lat="43.46361131520263" lon="13.359124914569458"><ele>202.0</ele><time>2026-04-26T13:34:56.999Z</time></trkpt><trkpt lat="43.463682986708825" lon="13.35924596150332"><ele>202.0</ele><time>2026-04-26T13:34:58.999Z</time></trkpt><trkpt lat="43.46373033718808" lon="13.359317104856503"><ele>202.0</ele><time>2026-04-26T13:34:59.999Z</time></trkpt><trkpt lat="43.46377737118281" lon="13.359393599317368"><ele>202.0</ele><time>2026-04-26T13:35:00.999Z</time></trkpt><trkpt lat="43.46382523410227" lon="13.359463030664074"><ele>202.0</ele><time>2026-04-26T13:35:01.999Z</time></trkpt><trkpt lat="43.463872978392175" lon="13.359530439886885"><ele>202.0</ele><time>2026-04-26T13:35:02.999Z</time></trkpt><trkpt lat="43.463923697069816" lon="13.359606728075246"><ele>202.0</ele><time>2026-04-26T13:35:03.999Z</time></trkpt><trkpt lat="43.463972597916616" lon="13.359684227719946"><ele>202.0</ele><time>2026-04-26T13:35:04.999Z</time></trkpt><trkpt lat="43.46402282123251" lon="13.359760376568252"><ele>202.0</ele><time>2026-04-26T13:35:05.999Z</time></trkpt><trkpt lat="43.46407294245532" lon="13.359825957125892"><ele>202.39999999999998</ele><time>2026-04-26T13:35:06.999Z</time></trkpt><trkpt lat="43.46412614710735" lon="13.359881869952693"><ele>202.79999999999998</ele><time>2026-04-26T13:35:07.999Z</time></trkpt><trkpt lat="43.46418639257153" lon="13.35992330001423"><ele>203.2</ele><time>2026-04-26T13:35:08.999Z</time></trkpt><trkpt lat="43.46429730916232" lon="13.359926724697297"><ele>203.6</ele><time>2026-04-26T13:35:10.999Z</time></trkpt><trkpt lat="43.46440464696205" lon="13.35987324561104"><ele>204.0</ele><time>2026-04-26T13:35:12.999Z</time></trkpt><trkpt lat="43.46449618553984" lon="13.359800961078344"><ele>204.0</ele><time>2026-04-26T13:35:14.999Z</time></trkpt><trkpt lat="43.46458767468026" lon="13.359730961231811"><ele>204.0</ele><time>2026-04-26T13:35:16.999Z</time></trkpt><trkpt lat="43.46469305810502" lon="13.359652804415914"><ele>204.0</ele><time>2026-04-26T13:35:18.999Z</time></trkpt><trkpt lat="43.46475163810826" lon="13.35960935916213"><ele>204.0</ele><time>2026-04-26T13:35:19.999Z</time></trkpt><trkpt lat="43.46480885936783" lon="13.35956968929396"><ele>204.0</ele><time>2026-04-26T13:35:20.999Z</time></trkpt><trkpt lat="43.46487398682644" lon="13.359529731518775"><ele>204.0</ele><time>2026-04-26T13:35:21.999Z</time></trkpt><trkpt lat="43.464946076471534" lon="13.359487289679578"><ele>204.5</ele><time>2026-04-26T13:35:22.999Z</time></trkpt><trkpt lat="43.46501421583793" lon="13.359425488024828"><ele>205.0</ele><time>2026-04-26T13:35:23.999Z</time></trkpt><trkpt lat="43.46509075590148" lon="13.359384515135993"><ele>205.5</ele><time>2026-04-26T13:35:24.999Z</time></trkpt><trkpt lat="43.46516493416848" lon="13.35934541403146"><ele>206.0</ele><time>2026-04-26T13:35:25.998Z</time></trkpt><trkpt lat="43.46524193461331" lon="13.35930767587465"><ele>206.5</ele><time>2026-04-26T13:35:26.998Z</time></trkpt><trkpt lat="43.465317031211136" lon="13.359264415217657"><ele>207.0</ele><time>2026-04-26T13:35:27.998Z</time></trkpt><trkpt lat="43.46539579028897" lon="13.359231735690786"><ele>206.5</ele><time>2026-04-26T13:35:28.998Z</time></trkpt><trkpt lat="43.46547416659438" lon="13.359203022282045"><ele>206.0</ele><time>2026-04-26T13:35:29.998Z</time></trkpt><trkpt lat="43.46554811797517" lon="13.359171322172644"><ele>205.5</ele><time>2026-04-26T13:35:30.998Z</time></trkpt><trkpt lat="43.465620895856084" lon="13.359133613359212"><ele>205.0</ele><time>2026-04-26T13:35:31.998Z</time></trkpt><trkpt lat="43.46569693614991" lon="13.359093407707142"><ele>204.5</ele><time>2026-04-26T13:35:32.998Z</time></trkpt><trkpt lat="43.46577371700695" lon="13.359052266894578"><ele>204.0</ele><time>2026-04-26T13:35:33.998Z</time></trkpt><trkpt lat="43.465854564568126" lon="13.359016833743182"><ele>204.0</ele><time>2026-04-26T13:35:34.998Z</time></trkpt><trkpt lat="43.46593933841876" lon="13.358988390522658"><ele>204.0</ele><time>2026-04-26T13:35:35.998Z</time></trkpt><trkpt lat="43.4660230087768" lon="13.358976096057969"><ele>204.0</ele><time>2026-04-26T13:35:36.998Z</time></trkpt><trkpt lat="43.46611519911624" lon="13.358966753380017"><ele>204.0</ele><time>2026-04-26T13:35:37.998Z</time></trkpt><trkpt lat="43.4662073290876" lon="13.358960085075907"><ele>204.0</ele><time>2026-04-26T13:35:38.998Z</time></trkpt><trkpt lat="43.466298535568974" lon="13.358954505501707"><ele>204.0</ele><time>2026-04-26T13:35:39.998Z</time></trkpt><trkpt lat="43.466391600388405" lon="13.358948782087062"><ele>203.79999999999998</ele><time>2026-04-26T13:35:40.998Z</time></trkpt><trkpt lat="43.466498381382344" lon="13.358946411387272"><ele>203.6</ele><time>2026-04-26T13:35:41.998Z</time></trkpt><trkpt lat="43.466604158430485" lon="13.358952111786651"><ele>203.4</ele><time>2026-04-26T13:35:42.998Z</time></trkpt><trkpt lat="43.466704467542044" lon="13.358952445542995"><ele>203.2</ele><time>2026-04-26T13:35:43.998Z</time></trkpt><trkpt lat="43.466801941778975" lon="13.358952886631998"><ele>203.0</ele><time>2026-04-26T13:35:44.998Z</time></trkpt><trkpt lat="43.46689961141471" lon="13.358951557804815"><ele>203.0</ele><time>2026-04-26T13:35:45.998Z</time></trkpt><trkpt lat="43.46700012958997" lon="13.358950439463172"><ele>203.0</ele><time>2026-04-26T13:35:46.998Z</time></trkpt><trkpt lat="43.46710052478094" lon="13.358944594081086"><ele>203.0</ele><time>2026-04-26T13:35:47.998Z</time></trkpt><trkpt lat="43.46719725287447" lon="13.358928869786233"><ele>203.0</ele><time>2026-04-26T13:35:49Z</time></trkpt><trkpt lat="43.46729614225949" lon="13.358915400649565"><ele>203.0</ele><time>2026-04-26T13:35:50Z</time></trkpt><trkpt lat="43.467393302933324" lon="13.358893156272732"><ele>204.16666666666669</ele><time>2026-04-26T13:35:51Z</time></trkpt><trkpt lat="43.46748213400214" lon="13.358865649038075"><ele>205.33333333333334</ele><time>2026-04-26T13:35:52Z</time></trkpt><trkpt lat="43.467559043983925" lon="13.358829337280332"><ele>206.5</ele><time>2026-04-26T13:35:53Z</time></trkpt><trkpt lat="43.46763608175159" lon="13.358782204950566"><ele>207.66666666666669</ele><time>2026-04-26T13:35:54Z</time></trkpt><trkpt lat="43.46771979473629" lon="13.3587332297239"><ele>208.83333333333334</ele><time>2026-04-26T13:35:55Z</time></trkpt><trkpt lat="43.46780185417127" lon="13.358681425857938"><ele>210.0</ele><time>2026-04-26T13:35:56Z</time></trkpt><trkpt lat="43.46788574255429" lon="13.358632975462948"><ele>210.66666666666666</ele><time>2026-04-26T13:35:57Z</time></trkpt><trkpt lat="43.467970674531045" lon="13.358587666043704"><ele>211.33333333333331</ele><time>2026-04-26T13:35:58Z</time></trkpt><trkpt lat="43.4680515802622" lon="13.358545001995768"><ele>212.0</ele><time>2026-04-26T13:35:59Z</time></trkpt><trkpt lat="43.46813186398024" lon="13.358504445945956"><ele>212.66666666666666</ele><time>2026-04-26T13:36:00Z</time></trkpt><trkpt lat="43.46821490342704" lon="13.358460238186568"><ele>213.33333333333331</ele><time>2026-04-26T13:36:01Z</time></trkpt><trkpt lat="43.46830223048928" lon="13.358412797667201"><ele>214.0</ele><time>2026-04-26T13:36:02Z</time></trkpt><trkpt lat="43.46839001152682" lon="13.35837444745532"><ele>213.99999999999997</ele><time>2026-04-26T13:36:03Z</time></trkpt><trkpt lat="43.468470697703864" lon="13.358338628270554"><ele>214.0</ele><time>2026-04-26T13:36:04Z</time></trkpt><trkpt lat="43.46854037000414" lon="13.35831276491561"><ele>214.0</ele><time>2026-04-26T13:36:05Z</time></trkpt><trkpt lat="43.468609256627936" lon="13.358289344768702"><ele>214.0</ele><time>2026-04-26T13:36:06Z</time></trkpt><trkpt lat="43.46867526223797" lon="13.3582695408582"><ele>213.99999999999997</ele><time>2026-04-26T13:36:07Z</time></trkpt><trkpt lat="43.46879232774118" lon="13.358240038612148"><ele>214.0</ele><time>2026-04-26T13:36:09Z</time></trkpt><trkpt lat="43.46888170798698" lon="13.35822575443149"><ele>213.16666666666666</ele><time>2026-04-26T13:36:11Z</time></trkpt><trkpt lat="43.46894625339646" lon="13.358199017909191"><ele>212.33333333333331</ele><time>2026-04-26T13:36:13Z</time></trkpt><trkpt lat="43.46901322160055" lon="13.358217964050805"><ele>211.5</ele><time>2026-04-26T13:36:16Z</time></trkpt><trkpt lat="43.469019540748256" lon="13.358378778568962"><ele>210.66666666666669</ele><time>2026-04-26T13:36:19Z</time></trkpt><trkpt lat="43.46898783371346" lon="13.358535952357125"><ele>209.83333333333334</ele><time>2026-04-26T13:36:21Z</time></trkpt><trkpt lat="43.468983014405886" lon="13.358637592142276"><ele>209.0</ele><time>2026-04-26T13:36:22Z</time></trkpt><trkpt lat="43.46899019200246" lon="13.358746593308497"><ele>209.0</ele><time>2026-04-26T13:36:23Z</time></trkpt><trkpt lat="43.469009127633996" lon="13.358860785223348"><ele>209.0</ele><time>2026-04-26T13:36:24Z</time></trkpt><trkpt lat="43.469040151263684" lon="13.358980287361485"><ele>209.0</ele><time>2026-04-26T13:36:25Z</time></trkpt><trkpt lat="43.469081448688556" lon="13.35910010048298"><ele>209.0</ele><time>2026-04-26T13:36:26Z</time></trkpt><trkpt lat="43.46912968789234" lon="13.359221575625012"><ele>209.0</ele><time>2026-04-26T13:36:27Z</time></trkpt><trkpt lat="43.46918261136897" lon="13.359346655907304"><ele>208.0</ele><time>2026-04-26T13:36:28Z</time></trkpt><trkpt lat="43.46923595793022" lon="13.359471978885791"><ele>207.0</ele><time>2026-04-26T13:36:29Z</time></trkpt><trkpt lat="43.469295591396005" lon="13.359597340134524"><ele>206.0</ele><time>2026-04-26T13:36:30Z</time></trkpt><trkpt lat="43.4693578114752" lon="13.359721778909227"><ele>205.0</ele><time>2026-04-26T13:36:31Z</time></trkpt><trkpt lat="43.46941880529938" lon="13.359847913613066"><ele>204.0</ele><time>2026-04-26T13:36:32Z</time></trkpt><trkpt lat="43.46947719738059" lon="13.359966403988421"><ele>204.16666666666666</ele><time>2026-04-26T13:36:33Z</time></trkpt><trkpt lat="43.46952666961535" lon="13.360069063471009"><ele>204.33333333333331</ele><time>2026-04-26T13:36:34Z</time></trkpt><trkpt lat="43.46957332748483" lon="13.360161507650908"><ele>204.5</ele><time>2026-04-26T13:36:34.999Z</time></trkpt><trkpt lat="43.46962082993153" lon="13.360247682440793"><ele>204.66666666666666</ele><time>2026-04-26T13:36:35.999Z</time></trkpt><trkpt lat="43.46967548379489" lon="13.36033265661505"><ele>204.83333333333331</ele><time>2026-04-26T13:36:36.999Z</time></trkpt><trkpt lat="43.4697343426371" lon="13.36041827559443"><ele>205.0</ele><time>2026-04-26T13:36:37.999Z</time></trkpt><trkpt lat="43.46979741860467" lon="13.360503687956228"><ele>204.4</ele><time>2026-04-26T13:36:38.999Z</time></trkpt><trkpt lat="43.469861537216424" lon="13.36058927940054"><ele>203.8</ele><time>2026-04-26T13:36:39.999Z</time></trkpt><trkpt lat="43.469927286411284" lon="13.3606807696618"><ele>203.2</ele><time>2026-04-26T13:36:40.999Z</time></trkpt><trkpt lat="43.46999349939459" lon="13.360773530465242"><ele>202.6</ele><time>2026-04-26T13:36:41.999Z</time></trkpt><trkpt lat="43.470058251628544" lon="13.360870600505764"><ele>202.0</ele><time>2026-04-26T13:36:42.999Z</time></trkpt><trkpt lat="43.47011615099978" lon="13.360974368547641"><ele>202.0</ele><time>2026-04-26T13:36:43.999Z</time></trkpt><trkpt lat="43.47016927822175" lon="13.361078795745874"><ele>202.0</ele><time>2026-04-26T13:36:44.999Z</time></trkpt><trkpt lat="43.470219557950955" lon="13.36118438639244"><ele>202.0</ele><time>2026-04-26T13:36:45.999Z</time></trkpt><trkpt lat="43.470276149906596" lon="13.361283759164328"><ele>202.0</ele><time>2026-04-26T13:36:46.999Z</time></trkpt><trkpt lat="43.47033611050404" lon="13.361374724435514"><ele>202.0</ele><time>2026-04-26T13:36:47.999Z</time></trkpt><trkpt lat="43.47040595964792" lon="13.361454776759967"><ele>202.16666666666666</ele><time>2026-04-26T13:36:48.999Z</time></trkpt><trkpt lat="43.47048117494141" lon="13.361519568340102"><ele>202.33333333333331</ele><time>2026-04-26T13:36:49.999Z</time></trkpt><trkpt lat="43.47055935285095" lon="13.361573180761889"><ele>202.5</ele><time>2026-04-26T13:36:50.999Z</time></trkpt><trkpt lat="43.47064215042128" lon="13.36162145412966"><ele>202.66666666666669</ele><time>2026-04-26T13:36:51.999Z</time></trkpt><trkpt lat="43.47072706572703" lon="13.361665571241836"><ele>202.83333333333334</ele><time>2026-04-26T13:36:52.999Z</time></trkpt><trkpt lat="43.470811334871186" lon="13.361706946149152"><ele>203.0</ele><time>2026-04-26T13:36:53.999Z</time></trkpt><trkpt lat="43.4708951513326" lon="13.36175088308882"><ele>203.00000000000003</ele><time>2026-04-26T13:36:54.999Z</time></trkpt><trkpt lat="43.47097585661932" lon="13.36179799332599"><ele>203.0</ele><time>2026-04-26T13:36:55.999Z</time></trkpt><trkpt lat="43.47105287654536" lon="13.361844754309029"><ele>203.0</ele><time>2026-04-26T13:36:56.999Z</time></trkpt><trkpt lat="43.47112554368236" lon="13.361890081080842"><ele>203.0</ele><time>2026-04-26T13:36:57.999Z</time></trkpt><trkpt lat="43.471195454239094" lon="13.36194517938255"><ele>203.00000000000003</ele><time>2026-04-26T13:36:58.999Z</time></trkpt><trkpt lat="43.47125768466735" lon="13.362016974985305"><ele>203.0</ele><time>2026-04-26T13:36:59.999Z</time></trkpt><trkpt lat="43.47131307429091" lon="13.362104183589166"><ele>202.2</ele><time>2026-04-26T13:37:00.999Z</time></trkpt><trkpt lat="43.47136458422564" lon="13.362211815364631"><ele>201.4</ele><time>2026-04-26T13:37:01.999Z</time></trkpt><trkpt lat="43.471399873105824" lon="13.36232810844251"><ele>200.6</ele><time>2026-04-26T13:37:02.999Z</time></trkpt><trkpt lat="43.47141951965751" lon="13.362450881405744"><ele>199.79999999999998</ele><time>2026-04-26T13:37:03.999Z</time></trkpt><trkpt lat="43.471431125663" lon="13.362582841297792"><ele>199.0</ele><time>2026-04-26T13:37:04.999Z</time></trkpt><trkpt lat="43.47144065181607" lon="13.362727942371407"><ele>199.0</ele><time>2026-04-26T13:37:05.999Z</time></trkpt><trkpt lat="43.471450755465824" lon="13.3628799146719"><ele>199.0</ele><time>2026-04-26T13:37:06.999Z</time></trkpt><trkpt lat="43.47146382567563" lon="13.36303251154855"><ele>199.0</ele><time>2026-04-26T13:37:07.999Z</time></trkpt><trkpt lat="43.471475859050315" lon="13.363180582955575"><ele>199.0</ele><time>2026-04-26T13:37:08.999Z</time></trkpt><trkpt lat="43.47149207451947" lon="13.363323359855773"><ele>199.0</ele><time>2026-04-26T13:37:09.999Z</time></trkpt><trkpt lat="43.471512196468815" lon="13.36345712690443"><ele>199.66666666666666</ele><time>2026-04-26T13:37:10.999Z</time></trkpt><trkpt lat="43.471545288090205" lon="13.363585888016805"><ele>200.33333333333331</ele><time>2026-04-26T13:37:11.999Z</time></trkpt><trkpt lat="43.471585751967574" lon="13.36370468677534"><ele>201.0</ele><time>2026-04-26T13:37:12.999Z</time></trkpt><trkpt lat="43.471624874281105" lon="13.363819432521387"><ele>201.66666666666669</ele><time>2026-04-26T13:37:13.999Z</time></trkpt><trkpt lat="43.471660085454594" lon="13.363921153923737"><ele>202.33333333333334</ele><time>2026-04-26T13:37:14.999Z</time></trkpt><trkpt lat="43.471689546383665" lon="13.364010715589725"><ele>203.0</ele><time>2026-04-26T13:37:15.999Z</time></trkpt><trkpt lat="43.471712725913946" lon="13.364091510719307"><ele>203.33333333333334</ele><time>2026-04-26T13:37:16.999Z</time></trkpt><trkpt lat="43.471734877292896" lon="13.364197554378098"><ele>203.66666666666669</ele><time>2026-04-26T13:37:18.999Z</time></trkpt><trkpt lat="43.47175369557371" lon="13.364296111326919"><ele>204.0</ele><time>2026-04-26T13:38:21Z</time></trkpt><trkpt lat="43.47179422369576" lon="13.364466737891645"><ele>204.33333333333331</ele><time>2026-04-26T13:38:23Z</time></trkpt><trkpt lat="43.47181580670513" lon="13.364557293064982"><ele>204.66666666666666</ele><time>2026-04-26T13:38:24Z</time></trkpt><trkpt lat="43.47183899654052" lon="13.364664588352264"><ele>205.0</ele><time>2026-04-26T13:38:25Z</time></trkpt><trkpt lat="43.4718629320951" lon="13.36478150756795"><ele>203.8</ele><time>2026-04-26T13:38:26Z</time></trkpt><trkpt lat="43.47188517997563" lon="13.364899400485912"><ele>202.6</ele><time>2026-04-26T13:38:27Z</time></trkpt><trkpt lat="43.47190735544035" lon="13.36502256622082"><ele>201.39999999999998</ele><time>2026-04-26T13:38:28Z</time></trkpt><trkpt lat="43.471926477459554" lon="13.36514358200107"><ele>200.2</ele><time>2026-04-26T13:38:29Z</time></trkpt><trkpt lat="43.47194347717891" lon="13.365271464232253"><ele>199.0</ele><time>2026-04-26T13:38:30Z</time></trkpt><trkpt lat="43.47195663328623" lon="13.36540365076355"><ele>197.39999999999998</ele><time>2026-04-26T13:38:31Z</time></trkpt><trkpt lat="43.47196501896809" lon="13.365538717074696"><ele>195.8</ele><time>2026-04-26T13:38:32Z</time></trkpt><trkpt lat="43.47197233545624" lon="13.365671452531238"><ele>194.2</ele><time>2026-04-26T13:38:32.999Z</time></trkpt><trkpt lat="43.47197750515733" lon="13.365806400338942"><ele>192.60000000000002</ele><time>2026-04-26T13:38:33.999Z</time></trkpt><trkpt lat="43.47198282588551" lon="13.365943713240895"><ele>191.0</ele><time>2026-04-26T13:38:34.999Z</time></trkpt><trkpt lat="43.47199068107585" lon="13.366081162448706"><ele>191.0</ele><time>2026-04-26T13:38:35.999Z</time></trkpt><trkpt lat="43.47200094091852" lon="13.366216023276756"><ele>191.0</ele><time>2026-04-26T13:38:36.999Z</time></trkpt><trkpt lat="43.472006963917444" lon="13.36634915809932"><ele>191.0</ele><time>2026-04-26T13:38:37.999Z</time></trkpt><trkpt lat="43.472015073353376" lon="13.366481060346496"><ele>191.0</ele><time>2026-04-26T13:38:38.999Z</time></trkpt><trkpt lat="43.472021597600865" lon="13.366601898583044"><ele>191.0</ele><time>2026-04-26T13:38:39.999Z</time></trkpt><trkpt lat="43.47202636606824" lon="13.366721036962467"><ele>189.5</ele><time>2026-04-26T13:38:40.999Z</time></trkpt><trkpt lat="43.472029669586846" lon="13.36684203699744"><ele>188.0</ele><time>2026-04-26T13:38:41.999Z</time></trkpt><trkpt lat="43.47203311632586" lon="13.366949300165924"><ele>186.5</ele><time>2026-04-26T13:38:42.999Z</time></trkpt><trkpt lat="43.472038940128144" lon="13.36705373283991"><ele>185.0</ele><time>2026-04-26T13:38:43.999Z</time></trkpt><trkpt lat="43.47204566765857" lon="13.36715604118746"><ele>183.5</ele><time>2026-04-26T13:38:44.999Z</time></trkpt><trkpt lat="43.47205267480839" lon="13.36725790058877"><ele>182.0</ele><time>2026-04-26T13:38:45.999Z</time></trkpt><trkpt lat="43.472057899925964" lon="13.367365442447383"><ele>181.39999999999998</ele><time>2026-04-26T13:38:46.999Z</time></trkpt><trkpt lat="43.47205715059855" lon="13.36748864891094"><ele>180.79999999999998</ele><time>2026-04-26T13:38:47.999Z</time></trkpt><trkpt lat="43.472046647658395" lon="13.367616522648486"><ele>180.2</ele><time>2026-04-26T13:38:48.999Z</time></trkpt><trkpt lat="43.47202946868352" lon="13.367744578853113"><ele>179.6</ele><time>2026-04-26T13:38:49.999Z</time></trkpt><trkpt lat="43.47200309696806" lon="13.36787385813465"><ele>179.0</ele><time>2026-04-26T13:38:50.999Z</time></trkpt><trkpt lat="43.471974709631105" lon="13.368001153588713"><ele>178.6</ele><time>2026-04-26T13:38:51.999Z</time></trkpt><trkpt lat="43.471941940815285" lon="13.368125431915242"><ele>178.2</ele><time>2026-04-26T13:38:52.999Z</time></trkpt><trkpt lat="43.47190792460521" lon="13.368246853967385"><ele>177.79999999999998</ele><time>2026-04-26T13:38:53.999Z</time></trkpt><trkpt lat="43.47186755258475" lon="13.36836028627285"><ele>177.39999999999998</ele><time>2026-04-26T13:38:54.999Z</time></trkpt><trkpt lat="43.47182908426501" lon="13.368475742879925"><ele>177.0</ele><time>2026-04-26T13:38:55.999Z</time></trkpt><trkpt lat="43.47180310369654" lon="13.368589931707604"><ele>177.0</ele><time>2026-04-26T13:38:56.999Z</time></trkpt><trkpt lat="43.47179575139156" lon="13.368705984599305"><ele>177.0</ele><time>2026-04-26T13:38:57.999Z</time></trkpt><trkpt lat="43.47180579370851" lon="13.368819703501984"><ele>177.0</ele><time>2026-04-26T13:38:58.999Z</time></trkpt><trkpt lat="43.47182697878032" lon="13.368924296745423"><ele>177.0</ele><time>2026-04-26T13:38:59.999Z</time></trkpt><trkpt lat="43.471858995262956" lon="13.369024710805206"><ele>177.0</ele><time>2026-04-26T13:39:00.999Z</time></trkpt><trkpt lat="43.47188921399681" lon="13.369120037125924"><ele>177.0</ele><time>2026-04-26T13:39:01.999Z</time></trkpt><trkpt lat="43.47191983431809" lon="13.369222386943145"><ele>177.0</ele><time>2026-04-26T13:39:02.999Z</time></trkpt><trkpt lat="43.471947588301326" lon="13.369323884631552"><ele>177.0</ele><time>2026-04-26T13:39:03.999Z</time></trkpt><trkpt lat="43.47197109312215" lon="13.36941432475634"><ele>177.0</ele><time>2026-04-26T13:39:04.999Z</time></trkpt><trkpt lat="43.472009949879244" lon="13.36956253436722"><ele>177.0</ele><time>2026-04-26T13:39:06.999Z</time></trkpt><trkpt lat="43.472059534174576" lon="13.369710971429402"><ele>177.0</ele><time>2026-04-26T13:39:08.999Z</time></trkpt><trkpt lat="43.47209036617353" lon="13.369814385974673"><ele>175.0</ele><time>2026-04-26T13:39:09.999Z</time></trkpt><trkpt lat="43.472124387813714" lon="13.369928135940691"><ele>173.0</ele><time>2026-04-26T13:39:10.999Z</time></trkpt><trkpt lat="43.472158002250666" lon="13.370044056708526"><ele>171.0</ele><time>2026-04-26T13:39:11.999Z</time></trkpt><trkpt lat="43.47219120214026" lon="13.370164023740621"><ele>169.0</ele><time>2026-04-26T13:39:12.999Z</time></trkpt><trkpt lat="43.47222062015235" lon="13.370288691044667"><ele>167.0</ele><time>2026-04-26T13:39:13.999Z</time></trkpt><trkpt lat="43.47224751872909" lon="13.370420494830926"><ele>166.6</ele><time>2026-04-26T13:39:14.999Z</time></trkpt><trkpt lat="43.4722754168022" lon="13.370550274477445"><ele>166.2</ele><time>2026-04-26T13:39:15.999Z</time></trkpt><trkpt lat="43.47230335586333" lon="13.370681334104711"><ele>165.8</ele><time>2026-04-26T13:39:16.999Z</time></trkpt><trkpt lat="43.47233108247885" lon="13.370806824136684"><ele>165.4</ele><time>2026-04-26T13:39:17.999Z</time></trkpt><trkpt lat="43.47236350622042" lon="13.37092797565044"><ele>165.0</ele><time>2026-04-26T13:39:18.999Z</time></trkpt><trkpt lat="43.472396956917514" lon="13.371048846265955"><ele>165.0</ele><time>2026-04-26T13:39:19.999Z</time></trkpt><trkpt lat="43.47243546734587" lon="13.37117695704609"><ele>165.0</ele><time>2026-04-26T13:39:20.999Z</time></trkpt><trkpt lat="43.472478594389344" lon="13.371300401283523"><ele>165.0</ele><time>2026-04-26T13:39:21.999Z</time></trkpt><trkpt lat="43.472524670801825" lon="13.371420573855795"><ele>165.0</ele><time>2026-04-26T13:39:22.999Z</time></trkpt><trkpt lat="43.47257097712881" lon="13.371535233806163"><ele>165.0</ele><time>2026-04-26T13:39:23.999Z</time></trkpt><trkpt lat="43.47261773980192" lon="13.371649445990972"><ele>164.8</ele><time>2026-04-26T13:39:24.999Z</time></trkpt><trkpt lat="43.47265639428935" lon="13.371765037027151"><ele>164.6</ele><time>2026-04-26T13:39:25.999Z</time></trkpt><trkpt lat="43.472683065738636" lon="13.371882449242245"><ele>164.39999999999998</ele><time>2026-04-26T13:39:26.999Z</time></trkpt><trkpt lat="43.47270431010877" lon="13.372010074970216"><ele>164.2</ele><time>2026-04-26T13:39:27.999Z</time></trkpt><trkpt lat="43.47272132926831" lon="13.372140329838578"><ele>164.0</ele><time>2026-04-26T13:39:28.999Z</time></trkpt><trkpt lat="43.47273883333795" lon="13.372272155790961"><ele>164.0</ele><time>2026-04-26T13:39:29.999Z</time></trkpt><trkpt lat="43.472755422414906" lon="13.372411141636267"><ele>164.0</ele><time>2026-04-26T13:39:30.999Z</time></trkpt><trkpt lat="43.47277034923854" lon="13.372555462345384"><ele>164.0</ele><time>2026-04-26T13:39:31.998Z</time></trkpt><trkpt lat="43.47277917549507" lon="13.372703294644065"><ele>164.0</ele><time>2026-04-26T13:39:32.998Z</time></trkpt><trkpt lat="43.47278049311636" lon="13.372855261635063"><ele>164.0</ele><time>2026-04-26T13:39:33.998Z</time></trkpt><trkpt lat="43.47277452311743" lon="13.373003931394711"><ele>163.5</ele><time>2026-04-26T13:39:34.998Z</time></trkpt><trkpt lat="43.47276307628276" lon="13.373156825899567"><ele>163.0</ele><time>2026-04-26T13:39:35.998Z</time></trkpt><trkpt lat="43.472752755502924" lon="13.373317920455774"><ele>162.5</ele><time>2026-04-26T13:39:36.998Z</time></trkpt><trkpt lat="43.47274528101119" lon="13.373478813458807"><ele>162.0</ele><time>2026-04-26T13:39:37.998Z</time></trkpt><trkpt lat="43.472739959822924" lon="13.37364047770435"><ele>162.0</ele><time>2026-04-26T13:39:38.998Z</time></trkpt><trkpt lat="43.47273620669846" lon="13.373787959931935"><ele>162.0</ele><time>2026-04-26T13:39:39.998Z</time></trkpt><trkpt lat="43.47273207157073" lon="13.373926557594169"><ele>162.0</ele><time>2026-04-26T13:39:40.998Z</time></trkpt><trkpt lat="43.472724941214" lon="13.374060004871785"><ele>162.0</ele><time>2026-04-26T13:39:41.998Z</time></trkpt><trkpt lat="43.472718327207225" lon="13.374184194979176"><ele>162.0</ele><time>2026-04-26T13:39:42.998Z</time></trkpt><trkpt lat="43.4727119969955" lon="13.374312412605354"><ele>161.5</ele><time>2026-04-26T13:39:43.998Z</time></trkpt><trkpt lat="43.47270628587975" lon="13.374436376419334"><ele>161.0</ele><time>2026-04-26T13:39:44.998Z</time></trkpt><trkpt lat="43.47270107546325" lon="13.37456424240389"><ele>160.5</ele><time>2026-04-26T13:39:45.998Z</time></trkpt><trkpt lat="43.4726936028671" lon="13.37469056229182"><ele>160.0</ele><time>2026-04-26T13:39:46.998Z</time></trkpt><trkpt lat="43.47268523216859" lon="13.374809898550488"><ele>159.5</ele><time>2026-04-26T13:39:47.998Z</time></trkpt><trkpt lat="43.47267997388014" lon="13.374926209591596"><ele>159.0</ele><time>2026-04-26T13:39:48.998Z</time></trkpt><trkpt lat="43.472678118593485" lon="13.375036185807412"><ele>157.83333333333334</ele><time>2026-04-26T13:39:49.998Z</time></trkpt><trkpt lat="43.47267347987687" lon="13.375147135879615"><ele>156.66666666666666</ele><time>2026-04-26T13:39:50.998Z</time></trkpt><trkpt lat="43.47266585941123" lon="13.375252570403534"><ele>155.5</ele><time>2026-04-26T13:39:51.998Z</time></trkpt><trkpt lat="43.47265717252433" lon="13.375357996624842"><ele>154.33333333333331</ele><time>2026-04-26T13:39:52.998Z</time></trkpt><trkpt lat="43.472649054071454" lon="13.37546215859308"><ele>153.16666666666666</ele><time>2026-04-26T13:39:53.998Z</time></trkpt><trkpt lat="43.47264352327051" lon="13.375566940474787"><ele>152.0</ele><time>2026-04-26T13:39:54.998Z</time></trkpt><trkpt lat="43.47264070761602" lon="13.375669248128938"><ele>151.5</ele><time>2026-04-26T13:39:55.998Z</time></trkpt><trkpt lat="43.47263808594871" lon="13.375771186463977"><ele>151.0</ele><time>2026-04-26T13:39:56.998Z</time></trkpt><trkpt lat="43.47263231105048" lon="13.375867395688326"><ele>150.5</ele><time>2026-04-26T13:39:57.998Z</time></trkpt><trkpt lat="43.47261920026583" lon="13.375953697666038"><ele>150.0</ele><time>2026-04-26T13:39:58.998Z</time></trkpt><trkpt lat="43.47254830824156" lon="13.376085746648153"><ele>149.5</ele><time>2026-04-26T13:40:01Z</time></trkpt><trkpt lat="43.4724865438024" lon="13.37611924140792"><ele>149.0</ele><time>2026-04-26T13:40:03Z</time></trkpt><trkpt lat="43.47253563128363" lon="13.376260703968896"><ele>149.0</ele><time>2026-04-26T13:40:18Z</time></trkpt><trkpt lat="43.47260015436428" lon="13.376302523176465"><ele>149.0</ele><time>2026-04-26T13:40:19Z</time></trkpt><trkpt lat="43.47266176297631" lon="13.376359275681228"><ele>149.0</ele><time>2026-04-26T13:40:20Z</time></trkpt><trkpt lat="43.4727276564269" lon="13.37641495654883"><ele>149.0</ele><time>2026-04-26T13:40:21Z</time></trkpt><trkpt lat="43.47280501340118" lon="13.37644279288266"><ele>149.0</ele><time>2026-04-26T13:40:22Z</time></trkpt><trkpt lat="43.472880699162054" lon="13.37642796866623"><ele>149.0</ele><time>2026-04-26T13:40:23Z</time></trkpt><trkpt lat="43.47295969541855" lon="13.37639753848454"><ele>146.8</ele><time>2026-04-26T13:40:23.999Z</time></trkpt><trkpt lat="43.473022509499565" lon="13.376307513239054"><ele>144.60000000000002</ele><time>2026-04-26T13:40:24.999Z</time></trkpt><trkpt lat="43.47306380146715" lon="13.376184294293932"><ele>142.4</ele><time>2026-04-26T13:40:25.999Z</time></trkpt><trkpt lat="43.47310032567336" lon="13.376047835464925"><ele>140.20000000000002</ele><time>2026-04-26T13:40:26.999Z</time></trkpt><trkpt lat="43.47313409412846" lon="13.375900412350875"><ele>138.0</ele><time>2026-04-26T13:40:27.999Z</time></trkpt><trkpt lat="43.47315353341606" lon="13.375743026865306"><ele>138.0</ele><time>2026-04-26T13:40:28.999Z</time></trkpt><trkpt lat="43.473195541865714" lon="13.375590473946856"><ele>138.0</ele><time>2026-04-26T13:40:29.999Z</time></trkpt><trkpt lat="43.47323460909189" lon="13.375440676700778"><ele>138.0</ele><time>2026-04-26T13:40:30.999Z</time></trkpt><trkpt lat="43.47326873921113" lon="13.375292020807118"><ele>138.0</ele><time>2026-04-26T13:40:31.999Z</time></trkpt><trkpt lat="43.473303771798875" lon="13.375143275817498"><ele>138.33333333333334</ele><time>2026-04-26T13:40:32.999Z</time></trkpt><trkpt lat="43.4733401999645" lon="13.374995315845098"><ele>138.66666666666666</ele><time>2026-04-26T13:40:33.999Z</time></trkpt><trkpt lat="43.47337855582214" lon="13.37486101742503"><ele>139.0</ele><time>2026-04-26T13:40:34.999Z</time></trkpt><trkpt lat="43.473415788815416" lon="13.374759540681847"><ele>139.33333333333331</ele><time>2026-04-26T13:40:35.999Z</time></trkpt><trkpt lat="43.47346623056221" lon="13.374701197448804"><ele>139.66666666666666</ele><time>2026-04-26T13:40:36.999Z</time></trkpt><trkpt lat="43.47353131834727" lon="13.374688750001381"><ele>140.0</ele><time>2026-04-26T13:40:37.999Z</time></trkpt><trkpt lat="43.47358829632404" lon="13.374732334753682"><ele>140.0</ele><time>2026-04-26T13:40:38.999Z</time></trkpt><trkpt lat="43.47361561130308" lon="13.374900963418396"><ele>140.0</ele><time>2026-04-26T13:40:40.999Z</time></trkpt><trkpt lat="43.47360668475944" lon="13.375014582982729"><ele>140.0</ele><time>2026-04-26T13:40:41.999Z</time></trkpt><trkpt lat="43.47359444801478" lon="13.375150588392259"><ele>140.0</ele><time>2026-04-26T13:40:42.999Z</time></trkpt><trkpt lat="43.47358594876793" lon="13.375303102516053"><ele>140.0</ele><time>2026-04-26T13:40:43.999Z</time></trkpt><trkpt lat="43.473576375007696" lon="13.37547144921011"><ele>139.5</ele><time>2026-04-26T13:40:44.999Z</time></trkpt><trkpt lat="43.473573261865575" lon="13.375643190531171"><ele>139.0</ele><time>2026-04-26T13:40:45.999Z</time></trkpt><trkpt lat="43.47357798062434" lon="13.375816721826794"><ele>138.5</ele><time>2026-04-26T13:40:46.999Z</time></trkpt><trkpt lat="43.47359041048619" lon="13.375988991950956"><ele>138.0</ele><time>2026-04-26T13:40:47.999Z</time></trkpt><trkpt lat="43.47360814715445" lon="13.376163068971803"><ele>138.0</ele><time>2026-04-26T13:40:48.999Z</time></trkpt><trkpt lat="43.473630421059866" lon="13.37634030421403"><ele>138.0</ele><time>2026-04-26T13:40:49.999Z</time></trkpt><trkpt lat="43.473653661078075" lon="13.37652680323514"><ele>138.0</ele><time>2026-04-26T13:40:50.999Z</time></trkpt><trkpt lat="43.473680067026365" lon="13.37671214160903"><ele>138.0</ele><time>2026-04-26T13:40:51.999Z</time></trkpt><trkpt lat="43.47371148146377" lon="13.37689768260789"><ele>139.75</ele><time>2026-04-26T13:40:52.999Z</time></trkpt><trkpt lat="43.473750699119215" lon="13.377082290009552"><ele>141.5</ele><time>2026-04-26T13:40:53.999Z</time></trkpt><trkpt lat="43.47379679658398" lon="13.377262267975956"><ele>143.25</ele><time>2026-04-26T13:40:54.999Z</time></trkpt><trkpt lat="43.47384723041485" lon="13.377441017102063"><ele>145.0</ele><time>2026-04-26T13:40:55.999Z</time></trkpt><trkpt lat="43.47388895262188" lon="13.377616823672303"><ele>138.5</ele><time>2026-04-26T13:40:56.999Z</time></trkpt><trkpt lat="43.473931821042406" lon="13.377792222255136"><ele>132.0</ele><time>2026-04-26T13:40:57.999Z</time></trkpt><trkpt lat="43.473960711926004" lon="13.37796301935741"><ele>125.5</ele><time>2026-04-26T13:40:58.999Z</time></trkpt><trkpt lat="43.47397238872024" lon="13.37813509670393"><ele>119.0</ele><time>2026-04-26T13:40:59.999Z</time></trkpt><trkpt lat="43.47399254044096" lon="13.378313579192449"><ele>119.0</ele><time>2026-04-26T13:41:00.999Z</time></trkpt><trkpt lat="43.47401207845925" lon="13.37849004601105"><ele>119.0</ele><time>2026-04-26T13:41:01.999Z</time></trkpt><trkpt lat="43.474026880452605" lon="13.378663971979746"><ele>119.0</ele><time>2026-04-26T13:41:02.999Z</time></trkpt><trkpt lat="43.4740366700615" lon="13.37883550850934"><ele>119.0</ele><time>2026-04-26T13:41:03.999Z</time></trkpt><trkpt lat="43.47403875008919" lon="13.379009267029192"><ele>119.5</ele><time>2026-04-26T13:41:04.999Z</time></trkpt><trkpt lat="43.474039775785556" lon="13.379177994396619"><ele>120.0</ele><time>2026-04-26T13:41:05.999Z</time></trkpt><trkpt lat="43.47403722625738" lon="13.379347121242821"><ele>120.5</ele><time>2026-04-26T13:41:06.999Z</time></trkpt><trkpt lat="43.474036536203755" lon="13.37951620088784"><ele>121.0</ele><time>2026-04-26T13:41:07.999Z</time></trkpt><trkpt lat="43.47403454652409" lon="13.379694923249268"><ele>120.0</ele><time>2026-04-26T13:41:08.999Z</time></trkpt><trkpt lat="43.47405554695211" lon="13.379871189312468"><ele>119.0</ele><time>2026-04-26T13:41:09.999Z</time></trkpt><trkpt lat="43.47406780830539" lon="13.380052274677341"><ele>118.0</ele><time>2026-04-26T13:41:10.999Z</time></trkpt><trkpt lat="43.47408949449017" lon="13.380238970279464"><ele>117.0</ele><time>2026-04-26T13:41:11.999Z</time></trkpt><trkpt lat="43.47410599398888" lon="13.38043432174418"><ele>116.0</ele><time>2026-04-26T13:41:12.999Z</time></trkpt><trkpt lat="43.47412365576282" lon="13.380636330424625"><ele>115.0</ele><time>2026-04-26T13:41:13.999Z</time></trkpt><trkpt lat="43.4741420646993" lon="13.380839812349977"><ele>114.0</ele><time>2026-04-26T13:41:14.999Z</time></trkpt><trkpt lat="43.47416014699574" lon="13.381039616845685"><ele>113.0</ele><time>2026-04-26T13:41:15.999Z</time></trkpt><trkpt lat="43.47417886656637" lon="13.381233907172163"><ele>111.25</ele><time>2026-04-26T13:41:16.999Z</time></trkpt><trkpt lat="43.47419390775928" lon="13.381421068103698"><ele>109.5</ele><time>2026-04-26T13:41:17.999Z</time></trkpt><trkpt lat="43.47419964883941" lon="13.381601619771894"><ele>107.75</ele><time>2026-04-26T13:41:18.999Z</time></trkpt><trkpt lat="43.47419190119075" lon="13.381783341766836"><ele>106.0</ele><time>2026-04-26T13:41:19.999Z</time></trkpt><trkpt lat="43.47417771381004" lon="13.381957399293515"><ele>106.0</ele><time>2026-04-26T13:41:20.999Z</time></trkpt><trkpt lat="43.47416258540455" lon="13.382131034290424"><ele>106.0</ele><time>2026-04-26T13:41:21.999Z</time></trkpt><trkpt lat="43.47414504145349" lon="13.382309721322667"><ele>106.0</ele><time>2026-04-26T13:41:22.999Z</time></trkpt><trkpt lat="43.47413011238862" lon="13.38249517618216"><ele>106.0</ele><time>2026-04-26T13:41:23.999Z</time></trkpt><trkpt lat="43.47411435518159" lon="13.382692138301444"><ele>103.33333333333334</ele><time>2026-04-26T13:41:24.999Z</time></trkpt><trkpt lat="43.47409596022771" lon="13.3828985594032"><ele>100.66666666666666</ele><time>2026-04-26T13:41:25.999Z</time></trkpt><trkpt lat="43.47407801213426" lon="13.383121048919646"><ele>98.0</ele><time>2026-04-26T13:41:26.999Z</time></trkpt><trkpt lat="43.4740522053988" lon="13.383351451668801"><ele>95.33333333333333</ele><time>2026-04-26T13:41:27.999Z</time></trkpt><trkpt lat="43.47403940163043" lon="13.383593204452374"><ele>92.66666666666666</ele><time>2026-04-26T13:41:28.998Z</time></trkpt><trkpt lat="43.474023926215246" lon="13.383837555264256"><ele>90.0</ele><time>2026-04-26T13:41:29.998Z</time></trkpt><trkpt lat="43.4740078142932" lon="13.384089628335836"><ele>90.0</ele><time>2026-04-26T13:41:30.998Z</time></trkpt><trkpt lat="43.473989871272124" lon="13.384337551288468"><ele>90.0</ele><time>2026-04-26T13:41:31.998Z</time></trkpt><trkpt lat="43.47397496119579" lon="13.384587244373908"><ele>90.0</ele><time>2026-04-26T13:41:32.998Z</time></trkpt><trkpt lat="43.47396027109065" lon="13.384828494854302"><ele>89.66666666666667</ele><time>2026-04-26T13:41:33.998Z</time></trkpt><trkpt lat="43.47394701815841" lon="13.385065263715731"><ele>89.33333333333334</ele><time>2026-04-26T13:41:34.998Z</time></trkpt><trkpt lat="43.47393554831037" lon="13.38529508243211"><ele>89.0</ele><time>2026-04-26T13:41:35.998Z</time></trkpt><trkpt lat="43.47393092511077" lon="13.385518089906697"><ele>88.75</ele><time>2026-04-26T13:41:36.998Z</time></trkpt><trkpt lat="43.47393216990502" lon="13.385727082757436"><ele>88.5</ele><time>2026-04-26T13:41:37.998Z</time></trkpt><trkpt lat="43.473939403805865" lon="13.385928220457929"><ele>88.25</ele><time>2026-04-26T13:41:38.998Z</time></trkpt><trkpt lat="43.47394399285931" lon="13.386117011147014"><ele>88.0</ele><time>2026-04-26T13:41:39.998Z</time></trkpt><trkpt lat="43.473951508371705" lon="13.386297373634203"><ele>88.60000000000001</ele><time>2026-04-26T13:41:40.998Z</time></trkpt><trkpt lat="43.473963024070756" lon="13.386464439889993"><ele>89.2</ele><time>2026-04-26T13:41:41.998Z</time></trkpt><trkpt lat="43.47399076794669" lon="13.386617558102571"><ele>89.8</ele><time>2026-04-26T13:41:42.998Z</time></trkpt><trkpt lat="43.47403757125741" lon="13.386751211240048"><ele>90.4</ele><time>2026-04-26T13:41:43.998Z</time></trkpt><trkpt lat="43.47409856897683" lon="13.386866546064807"><ele>91.0</ele><time>2026-04-26T13:41:44.998Z</time></trkpt><trkpt lat="43.474166547343046" lon="13.386962924040226"><ele>91.0</ele><time>2026-04-26T13:41:45.998Z</time></trkpt><trkpt lat="43.47423665021955" lon="13.387050084747111"><ele>91.0</ele><time>2026-04-26T13:41:46.998Z</time></trkpt><trkpt lat="43.47430716868196" lon="13.387140422732983"><ele>91.0</ele><time>2026-04-26T13:41:47.998Z</time></trkpt><trkpt lat="43.47437833864157" lon="13.387234072083789"><ele>91.0</ele><time>2026-04-26T13:41:48.998Z</time></trkpt><trkpt lat="43.47445571889779" lon="13.38733143861607"><ele>91.0</ele><time>2026-04-26T13:41:49.998Z</time></trkpt><trkpt lat="43.47453737808542" lon="13.387435592793294"><ele>89.25</ele><time>2026-04-26T13:41:50.998Z</time></trkpt><trkpt lat="43.474620885997425" lon="13.387541209390763"><ele>87.5</ele><time>2026-04-26T13:41:51.998Z</time></trkpt><trkpt lat="43.474704075486486" lon="13.38765209431031"><ele>85.75</ele><time>2026-04-26T13:41:52.998Z</time></trkpt><trkpt lat="43.47478440996672" lon="13.387766082960798"><ele>84.0</ele><time>2026-04-26T13:41:53.998Z</time></trkpt><trkpt lat="43.47487090798145" lon="13.387882531495377"><ele>84.0</ele><time>2026-04-26T13:41:54.998Z</time></trkpt><trkpt lat="43.474960603477484" lon="13.387994888240373"><ele>84.0</ele><time>2026-04-26T13:41:55.998Z</time></trkpt><trkpt lat="43.47505673211681" lon="13.388104722727773"><ele>84.0</ele><time>2026-04-26T13:41:56.998Z</time></trkpt><trkpt lat="43.47516098430698" lon="13.38820532497012"><ele>84.0</ele><time>2026-04-26T13:41:57.998Z</time></trkpt><trkpt lat="43.47528005878758" lon="13.388279292785166"><ele>83.5</ele><time>2026-04-26T13:41:58.998Z</time></trkpt><trkpt lat="43.475400812782944" lon="13.388342691650884"><ele>83.0</ele><time>2026-04-26T13:41:59.998Z</time></trkpt><trkpt lat="43.4755258455174" lon="13.388399750211242"><ele>82.5</ele><time>2026-04-26T13:42:00.998Z</time></trkpt><trkpt lat="43.475652098560744" lon="13.38846076444414"><ele>82.0</ele><time>2026-04-26T13:42:01.998Z</time></trkpt><trkpt lat="43.47577866775694" lon="13.388529790481064"><ele>82.0</ele><time>2026-04-26T13:42:02.998Z</time></trkpt><trkpt lat="43.475909065372775" lon="13.388596773139199"><ele>82.0</ele><time>2026-04-26T13:42:03.998Z</time></trkpt><trkpt lat="43.476041939445615" lon="13.388666408561992"><ele>82.0</ele><time>2026-04-26T13:42:04.998Z</time></trkpt><trkpt lat="43.47618052426023" lon="13.388739858176232"><ele>82.0</ele><time>2026-04-26T13:42:05.998Z</time></trkpt><trkpt lat="43.47632101695842" lon="13.388808293110275"><ele>82.33333333333333</ele><time>2026-04-26T13:42:07Z</time></trkpt><trkpt lat="43.47647279295093" lon="13.388858916444715"><ele>82.66666666666667</ele><time>2026-04-26T13:42:08Z</time></trkpt><trkpt lat="43.4766294464903" lon="13.38891207812942"><ele>83.0</ele><time>2026-04-26T13:42:09Z</time></trkpt><trkpt lat="43.47679530212697" lon="13.388922797844158"><ele>83.0</ele><time>2026-04-26T13:42:10Z</time></trkpt><trkpt lat="43.476963770658635" lon="13.388911601917311"><ele>83.0</ele><time>2026-04-26T13:42:11Z</time></trkpt><trkpt lat="43.477131952523756" lon="13.38887702652088"><ele>83.0</ele><time>2026-04-26T13:42:12Z</time></trkpt><trkpt lat="43.47730172366442" lon="13.388836534569348"><ele>83.33333333333334</ele><time>2026-04-26T13:42:13Z</time></trkpt><trkpt lat="43.477472412159884" lon="13.388792073742746"><ele>83.66666666666667</ele><time>2026-04-26T13:42:14Z</time></trkpt><trkpt lat="43.47764411576832" lon="13.38874865231373"><ele>84.0</ele><time>2026-04-26T13:42:15Z</time></trkpt><trkpt lat="43.477817674876825" lon="13.388704447767813"><ele>84.33333333333333</ele><time>2026-04-26T13:42:16Z</time></trkpt><trkpt lat="43.477990686548644" lon="13.3886614855491"><ele>84.66666666666666</ele><time>2026-04-26T13:42:17Z</time></trkpt><trkpt lat="43.4781629422147" lon="13.388619359000673"><ele>85.0</ele><time>2026-04-26T13:42:18Z</time></trkpt><trkpt lat="43.47833483402916" lon="13.388573152131968"><ele>85.0</ele><time>2026-04-26T13:42:19Z</time></trkpt><trkpt lat="43.478507854452246" lon="13.388518512372725"><ele>85.0</ele><time>2026-04-26T13:42:20Z</time></trkpt><trkpt lat="43.47867517432117" lon="13.388447893816055"><ele>85.0</ele><time>2026-04-26T13:42:21Z</time></trkpt><trkpt lat="43.47883923792544" lon="13.388360540480626"><ele>86.0</ele><time>2026-04-26T13:42:22Z</time></trkpt><trkpt lat="43.478994402193095" lon="13.388245390950802"><ele>87.0</ele><time>2026-04-26T13:42:23Z</time></trkpt><trkpt lat="43.479126747921796" lon="13.388092614936728"><ele>88.0</ele><time>2026-04-26T13:42:24Z</time></trkpt><trkpt lat="43.479238643648436" lon="13.387929916491968"><ele>88.0</ele><time>2026-04-26T13:42:25Z</time></trkpt><trkpt lat="43.479340127385555" lon="13.38777329107743"><ele>88.0</ele><time>2026-04-26T13:42:26Z</time></trkpt><trkpt lat="43.47944076289" lon="13.387637948261908"><ele>88.0</ele><time>2026-04-26T13:42:27Z</time></trkpt><trkpt lat="43.47954208848871" lon="13.387512923539916"><ele>88.0</ele><time>2026-04-26T13:42:28Z</time></trkpt><trkpt lat="43.47967495232586" lon="13.38747111917129"><ele>88.75</ele><time>2026-04-26T13:42:29Z</time></trkpt><trkpt lat="43.47980387477526" lon="13.387429434922046"><ele>89.5</ele><time>2026-04-26T13:42:30Z</time></trkpt><trkpt lat="43.4799346476978" lon="13.387370191909934"><ele>90.25</ele><time>2026-04-26T13:42:31Z</time></trkpt><trkpt lat="43.48007065817519" lon="13.38733258932237"><ele>91.0</ele><time>2026-04-26T13:42:32Z</time></trkpt><trkpt lat="43.480209758977956" lon="13.38729346930789"><ele>91.0</ele><time>2026-04-26T13:42:33Z</time></trkpt><trkpt lat="43.480351524658936" lon="13.387251924361232"><ele>91.0</ele><time>2026-04-26T13:42:34Z</time></trkpt><trkpt lat="43.480493625084534" lon="13.387208164104267"><ele>91.0</ele><time>2026-04-26T13:42:35Z</time></trkpt><trkpt lat="43.480642194826025" lon="13.387186874012116"><ele>91.0</ele><time>2026-04-26T13:42:36Z</time></trkpt><trkpt lat="43.48078522365524" lon="13.387121766746986"><ele>91.33333333333333</ele><time>2026-04-26T13:42:37Z</time></trkpt><trkpt lat="43.48093461057837" lon="13.38707760284341"><ele>91.66666666666667</ele><time>2026-04-26T13:42:38Z</time></trkpt><trkpt lat="43.48108569442957" lon="13.387031868460529"><ele>92.0</ele><time>2026-04-26T13:42:38.999Z</time></trkpt><trkpt lat="43.481242498250545" lon="13.387007439307682"><ele>92.66666666666667</ele><time>2026-04-26T13:42:39.999Z</time></trkpt><trkpt lat="43.481400118810186" lon="13.386960325475513"><ele>93.33333333333333</ele><time>2026-04-26T13:42:40.999Z</time></trkpt><trkpt lat="43.48155432119818" lon="13.386895426140532"><ele>94.0</ele><time>2026-04-26T13:42:42Z</time></trkpt><trkpt lat="43.48171563424933" lon="13.386857580136569"><ele>94.0</ele><time>2026-04-26T13:42:42.999Z</time></trkpt><trkpt lat="43.48188151495638" lon="13.386823918648146"><ele>94.0</ele><time>2026-04-26T13:42:43.999Z</time></trkpt><trkpt lat="43.482047040228814" lon="13.386795848138274"><ele>94.0</ele><time>2026-04-26T13:42:44.999Z</time></trkpt><trkpt lat="43.48221265866297" lon="13.386770803959338"><ele>94.66666666666666</ele><time>2026-04-26T13:42:45.999Z</time></trkpt><trkpt lat="43.48237564785729" lon="13.386743916059862"><ele>95.33333333333333</ele><time>2026-04-26T13:42:46.999Z</time></trkpt><trkpt lat="43.482535402988795" lon="13.386716721948977"><ele>96.0</ele><time>2026-04-26T13:42:47.999Z</time></trkpt><trkpt lat="43.48269447171947" lon="13.38668790588584"><ele>96.0</ele><time>2026-04-26T13:42:48.999Z</time></trkpt><trkpt lat="43.48285126613946" lon="13.386659829145724"><ele>96.0</ele><time>2026-04-26T13:42:49.999Z</time></trkpt><trkpt lat="43.48300745627732" lon="13.386634434457706"><ele>96.0</ele><time>2026-04-26T13:42:50.999Z</time></trkpt><trkpt lat="43.483164304558194" lon="13.386610346945348"><ele>95.66666666666667</ele><time>2026-04-26T13:42:51.999Z</time></trkpt><trkpt lat="43.48332088632466" lon="13.386585419195"><ele>95.33333333333334</ele><time>2026-04-26T13:42:52.999Z</time></trkpt><trkpt lat="43.48347688645501" lon="13.386559307606348"><ele>95.0</ele><time>2026-04-26T13:42:53.999Z</time></trkpt><trkpt lat="43.48363232023684" lon="13.386531186546586"><ele>95.33333333333334</ele><time>2026-04-26T13:42:54.999Z</time></trkpt><trkpt lat="43.48378604993458" lon="13.38650296477246"><ele>95.66666666666667</ele><time>2026-04-26T13:42:55.999Z</time></trkpt><trkpt lat="43.483937175125305" lon="13.38647599152799"><ele>96.0</ele><time>2026-04-26T13:42:56.999Z</time></trkpt><trkpt lat="43.484080701735024" lon="13.386451586676115"><ele>96.0</ele><time>2026-04-26T13:42:57.999Z</time></trkpt><trkpt lat="43.484212515336495" lon="13.386431616080444"><ele>96.0</ele><time>2026-04-26T13:42:58.999Z</time></trkpt><trkpt lat="43.48433191361721" lon="13.386411158480412"><ele>96.0</ele><time>2026-04-26T13:42:59.999Z</time></trkpt><trkpt lat="43.48444517914901" lon="13.386391145003008"><ele>96.0</ele><time>2026-04-26T13:43:00.999Z</time></trkpt><trkpt lat="43.4845523550061" lon="13.386371456101857"><ele>96.19999999999999</ele><time>2026-04-26T13:43:01.999Z</time></trkpt><trkpt lat="43.484656587870546" lon="13.386352962236614"><ele>96.39999999999999</ele><time>2026-04-26T13:43:02.999Z</time></trkpt><trkpt lat="43.48475804753947" lon="13.386339875199512"><ele>96.6</ele><time>2026-04-26T13:43:03.999Z</time></trkpt><trkpt lat="43.48484799584157" lon="13.386330508341729"><ele>96.8</ele><time>2026-04-26T13:43:04.999Z</time></trkpt><trkpt lat="43.48493240989072" lon="13.38631882089671"><ele>97.0</ele><time>2026-04-26T13:43:05.999Z</time></trkpt><trkpt lat="43.48501050033775" lon="13.386306117576463"><ele>97.16666666666667</ele><time>2026-04-26T13:43:06.999Z</time></trkpt><trkpt lat="43.48508123349093" lon="13.386293701300552"><ele>97.33333333333334</ele><time>2026-04-26T13:43:07.999Z</time></trkpt><trkpt lat="43.48514584125414" lon="13.386281248779138"><ele>97.5</ele><time>2026-04-26T13:43:08.999Z</time></trkpt><trkpt lat="43.48526270262877" lon="13.386278253890953"><ele>97.66666666666666</ele><time>2026-04-26T13:43:10.999Z</time></trkpt><trkpt lat="43.485341198761354" lon="13.386267125945142"><ele>97.83333333333333</ele><time>2026-04-26T13:43:12.999Z</time></trkpt><trkpt lat="43.48541216708119" lon="13.386234114880647"><ele>98.0</ele><time>2026-04-26T13:43:16.999Z</time></trkpt><trkpt lat="43.485464067692035" lon="13.3860547817743"><ele>98.0</ele><time>2026-04-26T13:43:19.999Z</time></trkpt><trkpt lat="43.48546040224573" lon="13.385946252579549"><ele>98.0</ele><time>2026-04-26T13:43:20.999Z</time></trkpt><trkpt lat="43.48547150407087" lon="13.385838556299186"><ele>98.0</ele><time>2026-04-26T13:43:21.999Z</time></trkpt><trkpt lat="43.4854812361292" lon="13.385716236318864"><ele>98.0</ele><time>2026-04-26T13:43:22.999Z</time></trkpt><trkpt lat="43.485491604622815" lon="13.385578080957924"><ele>98.0</ele><time>2026-04-26T13:43:23.999Z</time></trkpt><trkpt lat="43.485502806085314" lon="13.385429201564959"><ele>98.25</ele><time>2026-04-26T13:43:24.999Z</time></trkpt><trkpt lat="43.48552649051221" lon="13.38527170983604"><ele>98.5</ele><time>2026-04-26T13:43:25.999Z</time></trkpt><trkpt lat="43.48553353618709" lon="13.385107788387629"><ele>98.75</ele><time>2026-04-26T13:43:26.999Z</time></trkpt><trkpt lat="43.48553765094892" lon="13.384940980041018"><ele>99.0</ele><time>2026-04-26T13:43:27.999Z</time></trkpt><trkpt lat="43.48553880113191" lon="13.384762117041113"><ele>99.5</ele><time>2026-04-26T13:43:28.999Z</time></trkpt><trkpt lat="43.4855374382097" lon="13.384578028444178"><ele>100.0</ele><time>2026-04-26T13:43:29.999Z</time></trkpt><trkpt lat="43.48553580292075" lon="13.384385630386879"><ele>100.5</ele><time>2026-04-26T13:43:30.999Z</time></trkpt><trkpt lat="43.48553304382761" lon="13.384188932166458"><ele>101.0</ele><time>2026-04-26T13:43:31.999Z</time></trkpt><trkpt lat="43.48553015541077" lon="13.383983014342611"><ele>101.33333333333333</ele><time>2026-04-26T13:43:32.999Z</time></trkpt><trkpt lat="43.485511107245614" lon="13.383778369615401"><ele>101.66666666666666</ele><time>2026-04-26T13:43:33.999Z</time></trkpt><trkpt lat="43.485511824526746" lon="13.383573241876238"><ele>102.0</ele><time>2026-04-26T13:43:34.999Z</time></trkpt><trkpt lat="43.48551279258012" lon="13.38336419034501"><ele>102.0</ele><time>2026-04-26T13:43:35.999Z</time></trkpt><trkpt lat="43.48551111444284" lon="13.383152970103719"><ele>102.0</ele><time>2026-04-26T13:43:36.999Z</time></trkpt><trkpt lat="43.48550873798813" lon="13.382941967027296"><ele>102.0</ele><time>2026-04-26T13:43:37.999Z</time></trkpt><trkpt lat="43.48550574990662" lon="13.382730171765091"><ele>102.0</ele><time>2026-04-26T13:43:38.999Z</time></trkpt><trkpt lat="43.48550767555353" lon="13.382517829120145"><ele>102.0</ele><time>2026-04-26T13:43:39.999Z</time></trkpt><trkpt lat="43.485533237529275" lon="13.382304012030977"><ele>102.0</ele><time>2026-04-26T13:43:40.998Z</time></trkpt><trkpt lat="43.48555040660094" lon="13.382084504415905"><ele>102.0</ele><time>2026-04-26T13:43:41.998Z</time></trkpt><trkpt lat="43.48557004991615" lon="13.381861988368486"><ele>102.0</ele><time>2026-04-26T13:43:42.998Z</time></trkpt><trkpt lat="43.48559023717896" lon="13.381636337580291"><ele>102.0</ele><time>2026-04-26T13:43:43.998Z</time></trkpt><trkpt lat="43.48559461264966" lon="13.381405671459401"><ele>102.0</ele><time>2026-04-26T13:43:44.998Z</time></trkpt><trkpt lat="43.485631291894066" lon="13.381179837225421"><ele>102.0</ele><time>2026-04-26T13:43:45.998Z</time></trkpt><trkpt lat="43.48565189206097" lon="13.380951042764018"><ele>102.0</ele><time>2026-04-26T13:43:46.998Z</time></trkpt><trkpt lat="43.485672828982" lon="13.380718508244582"><ele>102.33333333333334</ele><time>2026-04-26T13:43:47.998Z</time></trkpt><trkpt lat="43.485693870083075" lon="13.38048481656853"><ele>102.66666666666667</ele><time>2026-04-26T13:43:48.998Z</time></trkpt><trkpt lat="43.485714708867896" lon="13.380248915179516"><ele>103.0</ele><time>2026-04-26T13:43:49.998Z</time></trkpt><trkpt lat="43.485735370161905" lon="13.380014320794073"><ele>103.0</ele><time>2026-04-26T13:43:50.998Z</time></trkpt><trkpt lat="43.485756098242554" lon="13.379778968037222"><ele>103.0</ele><time>2026-04-26T13:43:51.998Z</time></trkpt><trkpt lat="43.48577702926028" lon="13.379543898270585"><ele>103.0</ele><time>2026-04-26T13:43:52.998Z</time></trkpt><trkpt lat="43.485796979091155" lon="13.37932080035354"><ele>102.5</ele><time>2026-04-26T13:43:53.998Z</time></trkpt><trkpt lat="43.485815396494786" lon="13.379114839255283"><ele>102.0</ele><time>2026-04-26T13:43:54.998Z</time></trkpt><trkpt lat="43.48581916226539" lon="13.378922480977868"><ele>101.5</ele><time>2026-04-26T13:43:55.998Z</time></trkpt><trkpt lat="43.48583574295401" lon="13.378740239357487"><ele>101.0</ele><time>2026-04-26T13:43:56.998Z</time></trkpt><trkpt lat="43.48585018212909" lon="13.378560062381725"><ele>101.0</ele><time>2026-04-26T13:43:57.998Z</time></trkpt><trkpt lat="43.485863317645" lon="13.378391963872051"><ele>101.0</ele><time>2026-04-26T13:43:58.998Z</time></trkpt><trkpt lat="43.48589387922751" lon="13.378236121123283"><ele>101.0</ele><time>2026-04-26T13:43:59.998Z</time></trkpt><trkpt lat="43.485891896493534" lon="13.378090984835115"><ele>101.0</ele><time>2026-04-26T13:44:00.998Z</time></trkpt><trkpt lat="43.485905933562535" lon="13.377964315597751"><ele>101.0</ele><time>2026-04-26T13:44:01.998Z</time></trkpt><trkpt lat="43.48591818460667" lon="13.377854225249816"><ele>101.4</ele><time>2026-04-26T13:44:02.998Z</time></trkpt><trkpt lat="43.48593561248065" lon="13.377759999476957"><ele>101.8</ele><time>2026-04-26T13:44:03.998Z</time></trkpt><trkpt lat="43.48601582372218" lon="13.377658198447394"><ele>102.2</ele><time>2026-04-26T13:44:05.998Z</time></trkpt><trkpt lat="43.486135972206334" lon="13.377660571174692"><ele>102.60000000000001</ele><time>2026-04-26T13:44:07.998Z</time></trkpt><trkpt lat="43.48621537628147" lon="13.377637382359664"><ele>103.0</ele><time>2026-04-26T13:44:08.998Z</time></trkpt><trkpt lat="43.48631191971834" lon="13.377607696256959"><ele>103.25</ele><time>2026-04-26T13:44:09.998Z</time></trkpt><trkpt lat="43.48642144462606" lon="13.377573329952892"><ele>103.5</ele><time>2026-04-26T13:44:10.998Z</time></trkpt><trkpt lat="43.4865447213776" lon="13.377534648698514"><ele>103.75</ele><time>2026-04-26T13:44:11.998Z</time></trkpt><trkpt lat="43.4866712619373" lon="13.377494943392433"><ele>104.0</ele><time>2026-04-26T13:44:13Z</time></trkpt><trkpt lat="43.48680512048178" lon="13.377452941853917"><ele>104.0</ele><time>2026-04-26T13:44:14Z</time></trkpt><trkpt lat="43.48694725886142" lon="13.37740834231367"><ele>104.0</ele><time>2026-04-26T13:44:15Z</time></trkpt><trkpt lat="43.48709307356527" lon="13.377361199675578"><ele>104.0</ele><time>2026-04-26T13:44:16Z</time></trkpt><trkpt lat="43.48723970761436" lon="13.377291282105132"><ele>105.66666666666666</ele><time>2026-04-26T13:44:17Z</time></trkpt><trkpt lat="43.48739198622586" lon="13.377247580668515"><ele>107.33333333333334</ele><time>2026-04-26T13:44:18Z</time></trkpt><trkpt lat="43.48754596530699" lon="13.377200985215836"><ele>109.0</ele><time>2026-04-26T13:44:19Z</time></trkpt><trkpt lat="43.487689582395625" lon="13.37715198374403"><ele>109.0</ele><time>2026-04-26T13:44:20Z</time></trkpt><trkpt lat="43.48782093885064" lon="13.3771094163083"><ele>109.0</ele><time>2026-04-26T13:44:21Z</time></trkpt><trkpt lat="43.48794285428054" lon="13.377070818016906"><ele>109.0</ele><time>2026-04-26T13:44:22Z</time></trkpt><trkpt lat="43.48805807509865" lon="13.377035027023986"><ele>109.0</ele><time>2026-04-26T13:44:23Z</time></trkpt><trkpt lat="43.48817495675298" lon="13.377001261045333"><ele>110.5</ele><time>2026-04-26T13:44:24Z</time></trkpt><trkpt lat="43.488292220949646" lon="13.376960502956003"><ele>112.0</ele><time>2026-04-26T13:44:25Z</time></trkpt><trkpt lat="43.48841223587794" lon="13.37693215180888"><ele>113.5</ele><time>2026-04-26T13:44:26Z</time></trkpt><trkpt lat="43.48853594139378" lon="13.376907951537351"><ele>115.0</ele><time>2026-04-26T13:44:27Z</time></trkpt><trkpt lat="43.48866322194007" lon="13.376893064517583"><ele>116.25</ele><time>2026-04-26T13:44:28Z</time></trkpt><trkpt lat="43.48878671639605" lon="13.376881733616154"><ele>117.5</ele><time>2026-04-26T13:44:29Z</time></trkpt><trkpt lat="43.48891094555064" lon="13.376869255903891"><ele>118.75</ele><time>2026-04-26T13:44:30Z</time></trkpt><trkpt lat="43.4890308401795" lon="13.376880838147414"><ele>120.0</ele><time>2026-04-26T13:44:31Z</time></trkpt><trkpt lat="43.489139304508605" lon="13.37686056705028"><ele>120.0</ele><time>2026-04-26T13:44:32Z</time></trkpt><trkpt lat="43.48922177357223" lon="13.376865823561634"><ele>120.0</ele><time>2026-04-26T13:44:33Z</time></trkpt><trkpt lat="43.48928779214592" lon="13.376862984653117"><ele>120.0</ele><time>2026-04-26T13:44:34Z</time></trkpt><trkpt lat="43.48935371972564" lon="13.376833951641446"><ele>120.0</ele><time>2026-04-26T13:44:35Z</time></trkpt><trkpt lat="43.48942682195109" lon="13.37677290803776"><ele>120.0</ele><time>2026-04-26T13:44:36Z</time></trkpt><trkpt lat="43.48949345814535" lon="13.376686301595468"><ele>120.0</ele><time>2026-04-26T13:44:37Z</time></trkpt><trkpt lat="43.48955347909686" lon="13.376572263488157"><ele>121.0</ele><time>2026-04-26T13:44:38Z</time></trkpt><trkpt lat="43.48963408351111" lon="13.37647254841577"><ele>122.0</ele><time>2026-04-26T13:44:39Z</time></trkpt><trkpt lat="43.489705843892764" lon="13.376351555529862"><ele>123.0</ele><time>2026-04-26T13:44:40Z</time></trkpt><trkpt lat="43.48978170690506" lon="13.376226562729526"><ele>124.0</ele><time>2026-04-26T13:44:41Z</time></trkpt><trkpt lat="43.48986224207214" lon="13.376097074368802"><ele>124.0</ele><time>2026-04-26T13:44:42Z</time></trkpt><trkpt lat="43.48994050174452" lon="13.375972555326776"><ele>124.0</ele><time>2026-04-26T13:44:43Z</time></trkpt><trkpt lat="43.49002059136543" lon="13.375845124612704"><ele>124.0</ele><time>2026-04-26T13:44:44Z</time></trkpt><trkpt lat="43.490102703204165" lon="13.375718484858984"><ele>124.0</ele><time>2026-04-26T13:44:44.999Z</time></trkpt><trkpt lat="43.490180214432954" lon="13.37558917429367"><ele>125.6</ele><time>2026-04-26T13:44:45.999Z</time></trkpt><trkpt lat="43.49023158613919" lon="13.37544409406933"><ele>127.2</ele><time>2026-04-26T13:44:46.999Z</time></trkpt><trkpt lat="43.49027938352274" lon="13.375308960048239"><ele>128.79999999999998</ele><time>2026-04-26T13:44:47.999Z</time></trkpt><trkpt lat="43.490318194396615" lon="13.375168122025396"><ele>130.4</ele><time>2026-04-26T13:44:48.999Z</time></trkpt><trkpt lat="43.49035359016898" lon="13.375022296655882"><ele>132.0</ele><time>2026-04-26T13:44:49.999Z</time></trkpt><trkpt lat="43.49037815135313" lon="13.374872777601526"><ele>132.0</ele><time>2026-04-26T13:44:50.999Z</time></trkpt><trkpt lat="43.4904099108386" lon="13.374727053670085"><ele>132.0</ele><time>2026-04-26T13:44:51.999Z</time></trkpt><trkpt lat="43.49043443366258" lon="13.374579338815678"><ele>132.0</ele><time>2026-04-26T13:44:52.999Z</time></trkpt><trkpt lat="43.49046270008091" lon="13.374439647436617"><ele>132.0</ele><time>2026-04-26T13:44:53.999Z</time></trkpt><trkpt lat="43.4905041568057" lon="13.374305266763097"><ele>132.0</ele><time>2026-04-26T13:44:54.999Z</time></trkpt><trkpt lat="43.49051589965633" lon="13.374161550076904"><ele>133.0</ele><time>2026-04-26T13:44:55.999Z</time></trkpt><trkpt lat="43.49054386126376" lon="13.374029143504055"><ele>134.0</ele><time>2026-04-26T13:44:56.999Z</time></trkpt><trkpt lat="43.490571003292835" lon="13.373895451544305"><ele>135.0</ele><time>2026-04-26T13:44:57.999Z</time></trkpt><trkpt lat="43.49059733376455" lon="13.373762689510219"><ele>136.0</ele><time>2026-04-26T13:44:58.999Z</time></trkpt><trkpt lat="43.490619776813084" lon="13.373624598787295"><ele>137.0</ele><time>2026-04-26T13:44:59.999Z</time></trkpt><trkpt lat="43.49066445807079" lon="13.373487175717893"><ele>139.75</ele><time>2026-04-26T13:45:00.999Z</time></trkpt><trkpt lat="43.49069843663109" lon="13.373341282823874"><ele>142.5</ele><time>2026-04-26T13:45:01.999Z</time></trkpt><trkpt lat="43.49073453470971" lon="13.373190068410546"><ele>145.25</ele><time>2026-04-26T13:45:02.999Z</time></trkpt><trkpt lat="43.49077202455641" lon="13.373034502899499"><ele>148.0</ele><time>2026-04-26T13:45:03.999Z</time></trkpt><trkpt lat="43.49080184511948" lon="13.372875695413859"><ele>149.75</ele><time>2026-04-26T13:45:04.999Z</time></trkpt><trkpt lat="43.49083496041357" lon="13.372717830438223"><ele>151.5</ele><time>2026-04-26T13:45:05.999Z</time></trkpt><trkpt lat="43.49087369282051" lon="13.372558893657402"><ele>153.25</ele><time>2026-04-26T13:45:06.999Z</time></trkpt><trkpt lat="43.49092859873501" lon="13.372404560892125"><ele>155.0</ele><time>2026-04-26T13:45:07.999Z</time></trkpt><trkpt lat="43.49097029185917" lon="13.372238869493072"><ele>156.0</ele><time>2026-04-26T13:45:08.999Z</time></trkpt><trkpt lat="43.49101374191542" lon="13.372066195775849"><ele>157.0</ele><time>2026-04-26T13:45:09.999Z</time></trkpt><trkpt lat="43.49106038624456" lon="13.371885637922395"><ele>158.0</ele><time>2026-04-26T13:45:10.999Z</time></trkpt><trkpt lat="43.49110662383706" lon="13.371706887200517"><ele>159.0</ele><time>2026-04-26T13:45:11.999Z</time></trkpt><trkpt lat="43.4911532038646" lon="13.371526812668058"><ele>159.25</ele><time>2026-04-26T13:45:12.999Z</time></trkpt><trkpt lat="43.491187235925594" lon="13.37133701469224"><ele>159.5</ele><time>2026-04-26T13:45:13.999Z</time></trkpt><trkpt lat="43.49124296406849" lon="13.371154855765456"><ele>159.75</ele><time>2026-04-26T13:45:14.999Z</time></trkpt><trkpt lat="43.491287097834366" lon="13.370964437554116"><ele>160.0</ele><time>2026-04-26T13:45:15.999Z</time></trkpt><trkpt lat="43.49133480476291" lon="13.370782475705267"><ele>160.0</ele><time>2026-04-26T13:45:16.999Z</time></trkpt><trkpt lat="43.49138262878078" lon="13.370610524518487"><ele>160.0</ele><time>2026-04-26T13:45:17.999Z</time></trkpt><trkpt lat="43.49142752279564" lon="13.370451187149278"><ele>160.0</ele><time>2026-04-26T13:45:18.999Z</time></trkpt><trkpt lat="43.491466485131554" lon="13.370313118355648"><ele>160.0</ele><time>2026-04-26T13:45:19.999Z</time></trkpt><trkpt lat="43.491503015489286" lon="13.370201268122337"><ele>161.5</ele><time>2026-04-26T13:45:20.999Z</time></trkpt><trkpt lat="43.49153875118144" lon="13.370099989944233"><ele>163.0</ele><time>2026-04-26T13:45:21.999Z</time></trkpt><trkpt lat="43.49157314978829" lon="13.369987402667686"><ele>164.5</ele><time>2026-04-26T13:45:22.999Z</time></trkpt><trkpt lat="43.49159326420409" lon="13.3698642816803"><ele>166.0</ele><time>2026-04-26T13:45:23.999Z</time></trkpt><trkpt lat="43.49159479765627" lon="13.369742326819454"><ele>167.5</ele><time>2026-04-26T13:45:24.999Z</time></trkpt><trkpt lat="43.49158388669618" lon="13.369616459101634"><ele>169.0</ele><time>2026-04-26T13:45:25.999Z</time></trkpt><trkpt lat="43.49157113773711" lon="13.369489293653086"><ele>170.16666666666669</ele><time>2026-04-26T13:45:26.999Z</time></trkpt><trkpt lat="43.49158214266509" lon="13.369365065584237"><ele>171.33333333333334</ele><time>2026-04-26T13:45:27.999Z</time></trkpt><trkpt lat="43.49164463954403" lon="13.369269070755577"><ele>172.5</ele><time>2026-04-26T13:45:28.999Z</time></trkpt><trkpt lat="43.49171730511804" lon="13.36921350730204"><ele>173.66666666666666</ele><time>2026-04-26T13:45:29.999Z</time></trkpt><trkpt lat="43.49177657627748" lon="13.369146881848042"><ele>174.83333333333331</ele><time>2026-04-26T13:45:30.999Z</time></trkpt><trkpt lat="43.49183702784589" lon="13.369077213122962"><ele>176.0</ele><time>2026-04-26T13:45:31.999Z</time></trkpt><trkpt lat="43.49189086008518" lon="13.368986380203365"><ele>176.0</ele><time>2026-04-26T13:45:32.999Z</time></trkpt><trkpt lat="43.49196276396181" lon="13.36891183568481"><ele>176.0</ele><time>2026-04-26T13:45:33.999Z</time></trkpt><trkpt lat="43.4920354841485" lon="13.368828617304821"><ele>176.0</ele><time>2026-04-26T13:45:34.999Z</time></trkpt><trkpt lat="43.49211260788941" lon="13.368740831659935"><ele>176.0</ele><time>2026-04-26T13:45:35.999Z</time></trkpt><trkpt lat="43.49219081360408" lon="13.368649015883863"><ele>176.0</ele><time>2026-04-26T13:45:36.999Z</time></trkpt><trkpt lat="43.49227282996262" lon="13.368550445538334"><ele>179.0</ele><time>2026-04-26T13:45:37.999Z</time></trkpt><trkpt lat="43.4923596377766" lon="13.368450220581112"><ele>182.0</ele><time>2026-04-26T13:45:38.999Z</time></trkpt><trkpt lat="43.492450363007016" lon="13.368345385517472"><ele>185.0</ele><time>2026-04-26T13:45:39.999Z</time></trkpt><trkpt lat="43.49254115505579" lon="13.368235764881646"><ele>188.0</ele><time>2026-04-26T13:45:40.999Z</time></trkpt><trkpt lat="43.49263373882508" lon="13.368121129397881"><ele>188.75</ele><time>2026-04-26T13:45:41.999Z</time></trkpt><trkpt lat="43.492741794745726" lon="13.368023677659513"><ele>189.5</ele><time>2026-04-26T13:45:42.999Z</time></trkpt><trkpt lat="43.492842620708" lon="13.367908417118052"><ele>190.25</ele><time>2026-04-26T13:45:43.999Z</time></trkpt><trkpt lat="43.49294716020597" lon="13.367790899127968"><ele>191.0</ele><time>2026-04-26T13:45:44.998Z</time></trkpt><trkpt lat="43.4930524764977" lon="13.367670652290206"><ele>191.60000000000002</ele><time>2026-04-26T13:45:45.998Z</time></trkpt><trkpt lat="43.493133702655186" lon="13.367540634033423"><ele>192.2</ele><time>2026-04-26T13:45:46.998Z</time></trkpt><trkpt lat="43.49321760681603" lon="13.367448478028859"><ele>192.8</ele><time>2026-04-26T13:45:47.998Z</time></trkpt><trkpt lat="43.493288260855344" lon="13.367348601505007"><ele>193.39999999999998</ele><time>2026-04-26T13:45:48.998Z</time></trkpt><trkpt lat="43.49336292703718" lon="13.367256552731343"><ele>194.0</ele><time>2026-04-26T13:45:49.998Z</time></trkpt><trkpt lat="43.49343676189489" lon="13.367173374585775"><ele>195.83333333333334</ele><time>2026-04-26T13:45:50.998Z</time></trkpt><trkpt lat="43.493509658960015" lon="13.367100131031284"><ele>197.66666666666669</ele><time>2026-04-26T13:45:51.998Z</time></trkpt><trkpt lat="43.49359501635107" lon="13.36704755725565"><ele>199.5</ele><time>2026-04-26T13:45:52.998Z</time></trkpt><trkpt lat="43.4936654580239" lon="13.366964858397425"><ele>201.33333333333331</ele><time>2026-04-26T13:45:53.998Z</time></trkpt><trkpt lat="43.493736891355184" lon="13.36690749619991"><ele>203.16666666666666</ele><time>2026-04-26T13:45:54.998Z</time></trkpt><trkpt lat="43.493814769721055" lon="13.366858371249055"><ele>205.0</ele><time>2026-04-26T13:45:55.998Z</time></trkpt><trkpt lat="43.493888191840604" lon="13.366811036654948"><ele>205.0</ele><time>2026-04-26T13:45:56.998Z</time></trkpt><trkpt lat="43.49395827275475" lon="13.366765485212252"><ele>205.0</ele><time>2026-04-26T13:45:57.998Z</time></trkpt><trkpt lat="43.49402586789438" lon="13.36672206010671"><ele>205.0</ele><time>2026-04-26T13:45:58.998Z</time></trkpt><trkpt lat="43.49409250159666" lon="13.36668262895928"><ele>205.0</ele><time>2026-04-26T13:45:59.998Z</time></trkpt><trkpt lat="43.494161260371285" lon="13.366645277592708"><ele>205.0</ele><time>2026-04-26T13:46:00.998Z</time></trkpt><trkpt lat="43.494233287453895" lon="13.366630163292985"><ele>205.0</ele><time>2026-04-26T13:46:01.998Z</time></trkpt><trkpt lat="43.49430014633708" lon="13.366593638941843"><ele>205.0</ele><time>2026-04-26T13:46:02.998Z</time></trkpt><trkpt lat="43.49435838560424" lon="13.366537815516699"><ele>205.0</ele><time>2026-04-26T13:46:03.998Z</time></trkpt><trkpt lat="43.494420099692746" lon="13.36651072664412"><ele>205.0</ele><time>2026-04-26T13:46:04.998Z</time></trkpt><trkpt lat="43.494481213730054" lon="13.366482472237243"><ele>205.0</ele><time>2026-04-26T13:46:05.998Z</time></trkpt><trkpt lat="43.494546079668865" lon="13.366450920283114"><ele>205.0</ele><time>2026-04-26T13:46:06.998Z</time></trkpt><trkpt lat="43.49461294997303" lon="13.366414019495828"><ele>205.0</ele><time>2026-04-26T13:46:07.998Z</time></trkpt><trkpt lat="43.494680795319915" lon="13.36637558486697"><ele>205.0</ele><time>2026-04-26T13:46:08.998Z</time></trkpt><trkpt lat="43.494745920341956" lon="13.366337590002455"><ele>205.0</ele><time>2026-04-26T13:46:09.998Z</time></trkpt><trkpt lat="43.49481257157374" lon="13.366302524505368"><ele>205.0</ele><time>2026-04-26T13:46:10.998Z</time></trkpt><trkpt lat="43.494879350782355" lon="13.366270511291043"><ele>205.0</ele><time>2026-04-26T13:46:11.998Z</time></trkpt><trkpt lat="43.494944922698686" lon="13.366227876760245"><ele>205.0</ele><time>2026-04-26T13:46:12.998Z</time></trkpt><trkpt lat="43.495013734369415" lon="13.366179746300016"><ele>205.0</ele><time>2026-04-26T13:46:13.998Z</time></trkpt><trkpt lat="43.495079848002945" lon="13.366132989830664"><ele>205.0</ele><time>2026-04-26T13:46:14.998Z</time></trkpt><trkpt lat="43.49515048137404" lon="13.36609759203087"><ele>205.0</ele><time>2026-04-26T13:46:15.998Z</time></trkpt><trkpt lat="43.49522233010523" lon="13.366059364792212"><ele>205.0</ele><time>2026-04-26T13:46:16.998Z</time></trkpt><trkpt lat="43.495297562632864" lon="13.366019487774867"><ele>204.99999999999997</ele><time>2026-04-26T13:46:18Z</time></trkpt><trkpt lat="43.495369596787" lon="13.365971926392369"><ele>205.0</ele><time>2026-04-26T13:46:19Z</time></trkpt><trkpt lat="43.49544982810745" lon="13.36594359943208"><ele>205.0</ele><time>2026-04-26T13:46:20Z</time></trkpt><trkpt lat="43.49552198733094" lon="13.365879372694714"><ele>205.0</ele><time>2026-04-26T13:46:21Z</time></trkpt><trkpt lat="43.495598553649764" lon="13.365841964125403"><ele>204.99999999999997</ele><time>2026-04-26T13:46:22Z</time></trkpt><trkpt lat="43.49567554522913" lon="13.365796110746436"><ele>205.0</ele><time>2026-04-26T13:46:23Z</time></trkpt><trkpt lat="43.49575619453499" lon="13.365749082287024"><ele>205.33333333333331</ele><time>2026-04-26T13:46:24Z</time></trkpt><trkpt lat="43.495833596190614" lon="13.365701436834842"><ele>205.66666666666666</ele><time>2026-04-26T13:46:25Z</time></trkpt><trkpt lat="43.49591052963756" lon="13.365655307872869"><ele>206.0</ele><time>2026-04-26T13:46:26Z</time></trkpt><trkpt lat="43.49598206775834" lon="13.36561333648393"><ele>206.33333333333331</ele><time>2026-04-26T13:46:27Z</time></trkpt><trkpt lat="43.49606189491151" lon="13.365595190935997"><ele>206.66666666666666</ele><time>2026-04-26T13:46:28Z</time></trkpt><trkpt lat="43.49613355510612" lon="13.36555650165272"><ele>207.0</ele><time>2026-04-26T13:46:29Z</time></trkpt><trkpt lat="43.49620146524274" lon="13.365519836960763"><ele>205.83333333333334</ele><time>2026-04-26T13:46:30Z</time></trkpt><trkpt lat="43.49627376999323" lon="13.365480372501697"><ele>204.66666666666669</ele><time>2026-04-26T13:46:31Z</time></trkpt><trkpt lat="43.49634693851721" lon="13.365440192730915"><ele>203.5</ele><time>2026-04-26T13:46:32Z</time></trkpt><trkpt lat="43.49642085850902" lon="13.365399600313149"><ele>202.33333333333334</ele><time>2026-04-26T13:46:33Z</time></trkpt><trkpt lat="43.49649327043346" lon="13.365359699576977"><ele>201.16666666666669</ele><time>2026-04-26T13:46:34Z</time></trkpt><trkpt lat="43.49656953712613" lon="13.365317333417346"><ele>200.0</ele><time>2026-04-26T13:46:35Z</time></trkpt><trkpt lat="43.49665160090962" lon="13.36525868712202"><ele>200.0</ele><time>2026-04-26T13:46:36Z</time></trkpt><trkpt lat="43.49674223596616" lon="13.365203902425275"><ele>200.0</ele><time>2026-04-26T13:46:37Z</time></trkpt><trkpt lat="43.49684100272019" lon="13.365148717254256"><ele>200.0</ele><time>2026-04-26T13:46:38Z</time></trkpt><trkpt lat="43.49694517861264" lon="13.365091721442866"><ele>200.0</ele><time>2026-04-26T13:46:39Z</time></trkpt><trkpt lat="43.49705118990765" lon="13.365029319823615"><ele>200.0</ele><time>2026-04-26T13:46:40Z</time></trkpt><trkpt lat="43.497158185119375" lon="13.364963278708704"><ele>198.0</ele><time>2026-04-26T13:46:41Z</time></trkpt><trkpt lat="43.49726476773629" lon="13.364903179286479"><ele>196.0</ele><time>2026-04-26T13:46:42Z</time></trkpt><trkpt lat="43.497369621619185" lon="13.36484250465634"><ele>194.0</ele><time>2026-04-26T13:46:43Z</time></trkpt><trkpt lat="43.49747483598598" lon="13.364786152807728"><ele>192.0</ele><time>2026-04-26T13:46:44Z</time></trkpt><trkpt lat="43.49757540170455" lon="13.364715237189072"><ele>191.75</ele><time>2026-04-26T13:46:45Z</time></trkpt><trkpt lat="43.49767838358291" lon="13.36464785602592"><ele>191.5</ele><time>2026-04-26T13:46:46Z</time></trkpt><trkpt lat="43.49779146886055" lon="13.364602980299303"><ele>191.25</ele><time>2026-04-26T13:46:47Z</time></trkpt><trkpt lat="43.49788973366232" lon="13.364520329954145"><ele>191.0</ele><time>2026-04-26T13:46:48Z</time></trkpt><trkpt lat="43.49799822449369" lon="13.364461006794128"><ele>191.60000000000002</ele><time>2026-04-26T13:46:49Z</time></trkpt><trkpt lat="43.49810559472949" lon="13.364413312099991"><ele>192.2</ele><time>2026-04-26T13:46:50Z</time></trkpt><trkpt lat="43.49820982042025" lon="13.364379552420814"><ele>192.8</ele><time>2026-04-26T13:46:50.999Z</time></trkpt><trkpt lat="43.498315996964166" lon="13.364348267570525"><ele>193.39999999999998</ele><time>2026-04-26T13:46:51.999Z</time></trkpt><trkpt lat="43.498423946621834" lon="13.364314146984045"><ele>194.0</ele><time>2026-04-26T13:46:52.999Z</time></trkpt><trkpt lat="43.49853816970205" lon="13.364277060823087"><ele>194.0</ele><time>2026-04-26T13:46:53.999Z</time></trkpt><trkpt lat="43.49865592594662" lon="13.364240869861892"><ele>194.0</ele><time>2026-04-26T13:46:54.999Z</time></trkpt><trkpt lat="43.49878299060323" lon="13.3642062191982"><ele>194.0</ele><time>2026-04-26T13:46:55.999Z</time></trkpt><trkpt lat="43.49890682564426" lon="13.364172911950453"><ele>194.0</ele><time>2026-04-26T13:46:56.999Z</time></trkpt><trkpt lat="43.499031454224415" lon="13.364137569258805"><ele>195.0</ele><time>2026-04-26T13:46:57.999Z</time></trkpt><trkpt lat="43.49915199014634" lon="13.364100349900367"><ele>196.0</ele><time>2026-04-26T13:46:58.999Z</time></trkpt><trkpt lat="43.49927144828918" lon="13.364068816441952"><ele>197.0</ele><time>2026-04-26T13:46:59.999Z</time></trkpt><trkpt lat="43.49938878279136" lon="13.364029919210035"><ele>198.0</ele><time>2026-04-26T13:47:00.999Z</time></trkpt><trkpt lat="43.49950492010652" lon="13.363997344499715"><ele>197.5</ele><time>2026-04-26T13:47:01.999Z</time></trkpt><trkpt lat="43.49961119506681" lon="13.363926885163101"><ele>197.0</ele><time>2026-04-26T13:47:02.999Z</time></trkpt><trkpt lat="43.49970688049319" lon="13.363840903528736"><ele>196.5</ele><time>2026-04-26T13:47:03.999Z</time></trkpt><trkpt lat="43.49978759673253" lon="13.363732717007835"><ele>196.0</ele><time>2026-04-26T13:47:04.999Z</time></trkpt><trkpt lat="43.49985611544172" lon="13.36361132704437"><ele>197.25</ele><time>2026-04-26T13:47:05.999Z</time></trkpt><trkpt lat="43.49992411339092" lon="13.363484161758313"><ele>198.5</ele><time>2026-04-26T13:47:06.999Z</time></trkpt><trkpt lat="43.50000388128576" lon="13.363360811604503"><ele>199.75</ele><time>2026-04-26T13:47:07.999Z</time></trkpt><trkpt lat="43.500077043365756" lon="13.363225573218015"><ele>201.0</ele><time>2026-04-26T13:47:08.999Z</time></trkpt><trkpt lat="43.50015510492726" lon="13.363080684137733"><ele>201.25</ele><time>2026-04-26T13:47:09.999Z</time></trkpt><trkpt lat="43.500232642647056" lon="13.362936767166579"><ele>201.5</ele><time>2026-04-26T13:47:10.999Z</time></trkpt><trkpt lat="43.50031439770817" lon="13.36278502244742"><ele>201.75</ele><time>2026-04-26T13:47:11.999Z</time></trkpt><trkpt lat="43.500397935378835" lon="13.362629969327317"><ele>202.0</ele><time>2026-04-26T13:47:12.999Z</time></trkpt><trkpt lat="43.50048637956744" lon="13.3624667001829"><ele>202.33333333333331</ele><time>2026-04-26T13:47:13.999Z</time></trkpt><trkpt lat="43.50057814575789" lon="13.362297454311038"><ele>202.66666666666669</ele><time>2026-04-26T13:47:14.999Z</time></trkpt><trkpt lat="43.50067203977084" lon="13.362126703542554"><ele>203.0</ele><time>2026-04-26T13:47:15.999Z</time></trkpt><trkpt lat="43.500759649619525" lon="13.36193666469797"><ele>205.0</ele><time>2026-04-26T13:47:16.999Z</time></trkpt><trkpt lat="43.50086787518268" lon="13.361774081698606"><ele>207.0</ele><time>2026-04-26T13:47:17.999Z</time></trkpt><trkpt lat="43.5009662398279" lon="13.36159819214423"><ele>209.0</ele><time>2026-04-26T13:47:18.999Z</time></trkpt><trkpt lat="43.5010493819189" lon="13.36141399757527"><ele>210.33333333333334</ele><time>2026-04-26T13:47:19.999Z</time></trkpt><trkpt lat="43.501158733882455" lon="13.36125418267169"><ele>211.66666666666669</ele><time>2026-04-26T13:47:20.999Z</time></trkpt><trkpt lat="43.50124575109975" lon="13.361080690453496"><ele>213.0</ele><time>2026-04-26T13:47:21.999Z</time></trkpt><trkpt lat="43.501353978510416" lon="13.36094942064931"><ele>213.75</ele><time>2026-04-26T13:47:22.999Z</time></trkpt><trkpt lat="43.501456673768296" lon="13.360819034994389"><ele>214.5</ele><time>2026-04-26T13:47:23.999Z</time></trkpt><trkpt lat="43.50157980790947" lon="13.360738210255613"><ele>215.25</ele><time>2026-04-26T13:47:24.999Z</time></trkpt><trkpt lat="43.50169867906301" lon="13.360653309806803"><ele>216.0</ele><time>2026-04-26T13:47:25.999Z</time></trkpt><trkpt lat="43.50180844958953" lon="13.360542495204612"><ele>217.25</ele><time>2026-04-26T13:47:26.999Z</time></trkpt><trkpt lat="43.50190573107691" lon="13.360411375596534"><ele>218.5</ele><time>2026-04-26T13:47:27.999Z</time></trkpt><trkpt lat="43.50198181607798" lon="13.360282478195742"><ele>219.75</ele><time>2026-04-26T13:47:28.999Z</time></trkpt><trkpt lat="43.50204266814621" lon="13.360162999827676"><ele>221.0</ele><time>2026-04-26T13:47:29.999Z</time></trkpt><trkpt lat="43.50210582798366" lon="13.360058502897003"><ele>218.5</ele><time>2026-04-26T13:47:30.999Z</time></trkpt><trkpt lat="43.50218424479149" lon="13.35996409526048"><ele>216.0</ele><time>2026-04-26T13:47:31.999Z</time></trkpt><trkpt lat="43.502277464749795" lon="13.359866345531985"><ele>213.5</ele><time>2026-04-26T13:47:32.999Z</time></trkpt><trkpt lat="43.50239525929783" lon="13.359787464369845"><ele>211.0</ele><time>2026-04-26T13:47:33.999Z</time></trkpt><trkpt lat="43.50251355807673" lon="13.359691747207327"><ele>211.0</ele><time>2026-04-26T13:47:34.999Z</time></trkpt><trkpt lat="43.502633525030504" lon="13.359573677780446"><ele>211.0</ele><time>2026-04-26T13:47:35.999Z</time></trkpt><trkpt lat="43.50276624247608" lon="13.359472979293624"><ele>211.0</ele><time>2026-04-26T13:47:36.999Z</time></trkpt><trkpt lat="43.502897829257805" lon="13.35936986285784"><ele>210.75</ele><time>2026-04-26T13:47:37.999Z</time></trkpt><trkpt lat="43.5030281437596" lon="13.359268330441486"><ele>210.5</ele><time>2026-04-26T13:47:38.999Z</time></trkpt><trkpt lat="43.50315908011707" lon="13.359168711492613"><ele>210.25</ele><time>2026-04-26T13:47:39.999Z</time></trkpt><trkpt lat="43.50328862307284" lon="13.35907473998864"><ele>210.0</ele><time>2026-04-26T13:47:40.999Z</time></trkpt><trkpt lat="43.50341548156491" lon="13.358978059969711"><ele>210.0</ele><time>2026-04-26T13:47:41.999Z</time></trkpt><trkpt lat="43.50354107905549" lon="13.358884170742463"><ele>210.0</ele><time>2026-04-26T13:47:42.999Z</time></trkpt><trkpt lat="43.503668701583116" lon="13.358800104947278"><ele>210.0</ele><time>2026-04-26T13:47:43.999Z</time></trkpt><trkpt lat="43.50379270651068" lon="13.358714969004968"><ele>210.0</ele><time>2026-04-26T13:47:44.999Z</time></trkpt><trkpt lat="43.503916000292385" lon="13.358622544293087"><ele>212.0</ele><time>2026-04-26T13:47:45.999Z</time></trkpt><trkpt lat="43.50403906370797" lon="13.35852820513972"><ele>214.0</ele><time>2026-04-26T13:47:46.999Z</time></trkpt><trkpt lat="43.50416037506931" lon="13.35843647699502"><ele>216.0</ele><time>2026-04-26T13:47:47.999Z</time></trkpt><trkpt lat="43.50427864345435" lon="13.358346534133867"><ele>218.0</ele><time>2026-04-26T13:47:48.998Z</time></trkpt><trkpt lat="43.50439590261043" lon="13.358256570716522"><ele>218.0</ele><time>2026-04-26T13:47:49.998Z</time></trkpt><trkpt lat="43.504512620424364" lon="13.358165408310098"><ele>218.0</ele><time>2026-04-26T13:47:50.998Z</time></trkpt><trkpt lat="43.50462675075879" lon="13.358081181888315"><ele>218.0</ele><time>2026-04-26T13:47:51.998Z</time></trkpt><trkpt lat="43.504725737505325" lon="13.35800806499938"><ele>218.0</ele><time>2026-04-26T13:47:52.998Z</time></trkpt><trkpt lat="43.504801739259634" lon="13.357954341040275"><ele>220.66666666666669</ele><time>2026-04-26T13:47:53.998Z</time></trkpt><trkpt lat="43.504867526519135" lon="13.357912753053805"><ele>223.33333333333334</ele><time>2026-04-26T13:47:54.998Z</time></trkpt><trkpt lat="43.50492638965746" lon="13.357879784961424"><ele>226.0</ele><time>2026-04-26T13:47:55.998Z</time></trkpt><trkpt lat="43.50499873233275" lon="13.357833292673677"><ele>228.66666666666669</ele><time>2026-04-26T13:47:57.998Z</time></trkpt><trkpt lat="43.5050617829678" lon="13.357798833937625"><ele>231.33333333333334</ele><time>2026-04-26T13:48:00.998Z</time></trkpt><trkpt lat="43.50502266120797" lon="13.357643373669031"><ele>234.0</ele><time>2026-04-26T13:48:01.998Z</time></trkpt><trkpt lat="43.504972270779234" lon="13.357543771056578"><ele>234.0</ele><time>2026-04-26T13:48:02.998Z</time></trkpt><trkpt lat="43.504923491360984" lon="13.357444943328769"><ele>233.99999999999997</ele><time>2026-04-26T13:48:03.998Z</time></trkpt><trkpt lat="43.50488038909764" lon="13.357328840403992"><ele>233.99999999999997</ele><time>2026-04-26T13:48:04.998Z</time></trkpt><trkpt lat="43.504840842670475" lon="13.357193029213914"><ele>234.0</ele><time>2026-04-26T13:48:05.998Z</time></trkpt><trkpt lat="43.50480168857967" lon="13.357037434634059"><ele>234.0</ele><time>2026-04-26T13:48:06.998Z</time></trkpt><trkpt lat="43.504761383363196" lon="13.356882913460751"><ele>235.5</ele><time>2026-04-26T13:48:07.998Z</time></trkpt><trkpt lat="43.504719785602916" lon="13.356715207935503"><ele>237.0</ele><time>2026-04-26T13:48:08.998Z</time></trkpt><trkpt lat="43.50467687081916" lon="13.356544157058806"><ele>238.5</ele><time>2026-04-26T13:48:09.998Z</time></trkpt><trkpt lat="43.504637802662295" lon="13.356379244959255"><ele>240.0</ele><time>2026-04-26T13:48:10.998Z</time></trkpt><trkpt lat="43.504602928123724" lon="13.356220786265727"><ele>236.5</ele><time>2026-04-26T13:48:11.998Z</time></trkpt><trkpt lat="43.50457194517867" lon="13.35606923327014"><ele>233.0</ele><time>2026-04-26T13:48:12.998Z</time></trkpt><trkpt lat="43.504547304904385" lon="13.355919594861264"><ele>229.5</ele><time>2026-04-26T13:48:13.998Z</time></trkpt><trkpt lat="43.50452951160959" lon="13.355763056254442"><ele>226.0</ele><time>2026-04-26T13:48:14.998Z</time></trkpt><trkpt lat="43.5045198752987" lon="13.355601905077894"><ele>225.5</ele><time>2026-04-26T13:48:15.998Z</time></trkpt><trkpt lat="43.50451912516332" lon="13.355437219983738"><ele>225.0</ele><time>2026-04-26T13:48:16.998Z</time></trkpt><trkpt lat="43.50453781862295" lon="13.3552695125913"><ele>224.5</ele><time>2026-04-26T13:48:17.998Z</time></trkpt><trkpt lat="43.504579365331324" lon="13.355118355055557"><ele>224.0</ele><time>2026-04-26T13:48:18.998Z</time></trkpt><trkpt lat="43.50465138889297" lon="13.354999169727686"><ele>225.0</ele><time>2026-04-26T13:48:19.998Z</time></trkpt><trkpt lat="43.50475169229257" lon="13.354909789831456"><ele>226.0</ele><time>2026-04-26T13:48:20.998Z</time></trkpt><trkpt lat="43.504857268460185" lon="13.354827031652075"><ele>227.0</ele><time>2026-04-26T13:48:21.998Z</time></trkpt><trkpt lat="43.50496480813715" lon="13.354736141284596"><ele>228.0</ele><time>2026-04-26T13:48:23Z</time></trkpt><trkpt lat="43.50507626882488" lon="13.354640505222484"><ele>228.0</ele><time>2026-04-26T13:48:24Z</time></trkpt><trkpt lat="43.50518499968702" lon="13.354524479111843"><ele>228.0</ele><time>2026-04-26T13:48:25Z</time></trkpt><trkpt lat="43.50528681527607" lon="13.354380429883301"><ele>228.0</ele><time>2026-04-26T13:48:26Z</time></trkpt><trkpt lat="43.50537665509627" lon="13.354210941583577"><ele>228.0</ele><time>2026-04-26T13:48:27Z</time></trkpt><trkpt lat="43.505443993238444" lon="13.354021211721006"><ele>229.5</ele><time>2026-04-26T13:48:28Z</time></trkpt><trkpt lat="43.50548926557858" lon="13.353826451857694"><ele>231.0</ele><time>2026-04-26T13:48:29Z</time></trkpt><trkpt lat="43.5055221025584" lon="13.353650898176745"><ele>232.5</ele><time>2026-04-26T13:48:30Z</time></trkpt><trkpt lat="43.505568364172746" lon="13.353549471328526"><ele>234.0</ele><time>2026-04-26T13:48:31Z</time></trkpt><trkpt lat="43.50559909075432" lon="13.35344169889146"><ele>234.0</ele><time>2026-04-26T13:48:33Z</time></trkpt><trkpt lat="43.505721515179985" lon="13.353582390066839"><ele>234.0</ele><time>2026-04-26T13:48:38Z</time></trkpt><trkpt lat="43.50575903343478" lon="13.353663069677477"><ele>234.0</ele><time>2026-04-26T13:48:39Z</time></trkpt><trkpt lat="43.50580438615326" lon="13.353745266330295"><ele>234.0</ele><time>2026-04-26T13:48:40Z</time></trkpt><trkpt lat="43.505849297931476" lon="13.353826562707136"><ele>234.0</ele><time>2026-04-26T13:48:41Z</time></trkpt><trkpt lat="43.50588780791875" lon="13.353898400945345"><ele>234.0</ele><time>2026-04-26T13:48:42Z</time></trkpt><trkpt lat="43.50596618036676" lon="13.354009412333975"><ele>234.16666666666666</ele><time>2026-04-26T13:48:44Z</time></trkpt><trkpt lat="43.50605175516567" lon="13.354073031772005"><ele>234.33333333333331</ele><time>2026-04-26T13:48:46Z</time></trkpt><trkpt lat="43.50610064337688" lon="13.354140016497192"><ele>234.5</ele><time>2026-04-26T13:48:48Z</time></trkpt><trkpt lat="43.506160485942296" lon="13.354109176726752"><ele>234.66666666666666</ele><time>2026-04-26T13:48:49Z</time></trkpt><trkpt lat="43.50625875449133" lon="13.354105142524535"><ele>234.83333333333331</ele><time>2026-04-26T13:48:51Z</time></trkpt><trkpt lat="43.506374291714785" lon="13.35410445374154"><ele>235.0</ele><time>2026-04-26T13:48:52.999Z</time></trkpt><trkpt lat="43.506494340614296" lon="13.354068031087786"><ele>233.99999999999997</ele><time>2026-04-26T13:48:54.999Z</time></trkpt><trkpt lat="43.506550491885996" lon="13.354023866238247"><ele>233.0</ele><time>2026-04-26T13:48:55.999Z</time></trkpt><trkpt lat="43.506673747769995" lon="13.353979430850789"><ele>232.0</ele><time>2026-04-26T13:48:57.999Z</time></trkpt><trkpt lat="43.50673698682215" lon="13.353952933658675"><ele>231.0</ele><time>2026-04-26T13:48:58.999Z</time></trkpt><trkpt lat="43.50679824794173" lon="13.353932573313095"><ele>229.99999999999997</ele><time>2026-04-26T13:48:59.999Z</time></trkpt><trkpt lat="43.5069092194692" lon="13.353885082464966"><ele>229.0</ele><time>2026-04-26T13:49:01.999Z</time></trkpt><trkpt lat="43.5069993847935" lon="13.353796239018182"><ele>224.83333333333331</ele><time>2026-04-26T13:49:03.999Z</time></trkpt><trkpt lat="43.50708584809444" lon="13.353672922689396"><ele>220.66666666666666</ele><time>2026-04-26T13:49:05.999Z</time></trkpt><trkpt lat="43.50713127488492" lon="13.353607137477184"><ele>216.5</ele><time>2026-04-26T13:49:06.999Z</time></trkpt><trkpt lat="43.50717330882402" lon="13.35353824662784"><ele>212.33333333333331</ele><time>2026-04-26T13:49:07.999Z</time></trkpt><trkpt lat="43.5072160634945" lon="13.353469079875829"><ele>208.16666666666666</ele><time>2026-04-26T13:49:08.999Z</time></trkpt><trkpt lat="43.507267575627" lon="13.353417723129613"><ele>204.0</ele><time>2026-04-26T13:49:09.999Z</time></trkpt><trkpt lat="43.507340027026466" lon="13.35327954394063"><ele>204.0</ele><time>2026-04-26T13:49:11.999Z</time></trkpt><trkpt lat="43.50738147813637" lon="13.353213416245707"><ele>204.0</ele><time>2026-04-26T13:49:12.999Z</time></trkpt><trkpt lat="43.50742605162572" lon="13.353150818279651"><ele>204.0</ele><time>2026-04-26T13:49:13.999Z</time></trkpt><trkpt lat="43.507471787144965" lon="13.353086613136744"><ele>204.0</ele><time>2026-04-26T13:49:14.999Z</time></trkpt><trkpt lat="43.50751719229584" lon="13.353017928090333"><ele>204.0</ele><time>2026-04-26T13:49:15.999Z</time></trkpt><trkpt lat="43.50755934202555" lon="13.35294452285221"><ele>204.0</ele><time>2026-04-26T13:49:16.999Z</time></trkpt><trkpt lat="43.507597977506926" lon="13.352867604191056"><ele>204.0</ele><time>2026-04-26T13:49:17.999Z</time></trkpt><trkpt lat="43.50766500722879" lon="13.352726207177758"><ele>204.66666666666666</ele><time>2026-04-26T13:49:19.999Z</time></trkpt><trkpt lat="43.507695114496826" lon="13.352649262799638"><ele>205.33333333333331</ele><time>2026-04-26T13:49:20.999Z</time></trkpt><trkpt lat="43.50774205953303" lon="13.352589525557015"><ele>206.0</ele><time>2026-04-26T13:49:21.999Z</time></trkpt><trkpt lat="43.50781179765343" lon="13.352446454234938"><ele>206.66666666666666</ele><time>2026-04-26T13:49:23.999Z</time></trkpt><trkpt lat="43.507847853141996" lon="13.352373957233713"><ele>207.33333333333331</ele><time>2026-04-26T13:49:24.999Z</time></trkpt><trkpt lat="43.50788486898991" lon="13.352299529202313"><ele>208.0</ele><time>2026-04-26T13:49:25.999Z</time></trkpt><trkpt lat="43.50792186236658" lon="13.352220603395738"><ele>203.16666666666666</ele><time>2026-04-26T13:49:26.999Z</time></trkpt><trkpt lat="43.50794754696473" lon="13.352130176333471"><ele>198.33333333333331</ele><time>2026-04-26T13:49:27.999Z</time></trkpt><trkpt lat="43.507981964104104" lon="13.352051064117077"><ele>193.5</ele><time>2026-04-26T13:49:28.999Z</time></trkpt><trkpt lat="43.50800966948799" lon="13.351969502081683"><ele>188.66666666666666</ele><time>2026-04-26T13:49:29.999Z</time></trkpt><trkpt lat="43.50805911528951" lon="13.351831731730213"><ele>183.83333333333331</ele><time>2026-04-26T13:49:31.999Z</time></trkpt><trkpt lat="43.50810338695865" lon="13.35167113767289"><ele>179.0</ele><time>2026-04-26T13:49:33.999Z</time></trkpt><trkpt lat="43.508119247152806" lon="13.351570726754336"><ele>179.00000000000003</ele><time>2026-04-26T13:49:34.999Z</time></trkpt><trkpt lat="43.508158579453" lon="13.35148189166314"><ele>179.0</ele><time>2026-04-26T13:49:35.999Z</time></trkpt><trkpt lat="43.508218112394296" lon="13.351425514669948"><ele>179.0</ele><time>2026-04-26T13:49:36.999Z</time></trkpt><trkpt lat="43.50827651594928" lon="13.3513717002195"><ele>179.0</ele><time>2026-04-26T13:49:37.999Z</time></trkpt><trkpt lat="43.508336801730145" lon="13.35131723276012"><ele>179.0</ele><time>2026-04-26T13:49:38.999Z</time></trkpt><trkpt lat="43.50839049355593" lon="13.351241418138295"><ele>179.00000000000003</ele><time>2026-04-26T13:49:39.999Z</time></trkpt><trkpt lat="43.50845650183549" lon="13.35118643571868"><ele>179.0</ele><time>2026-04-26T13:49:40.999Z</time></trkpt><trkpt lat="43.5085245197292" lon="13.35112736374669"><ele>179.42857142857144</ele><time>2026-04-26T13:49:41.999Z</time></trkpt><trkpt lat="43.50859266597492" lon="13.351074655949343"><ele>179.85714285714286</ele><time>2026-04-26T13:49:42.999Z</time></trkpt><trkpt lat="43.50865784255339" lon="13.351034378190178"><ele>180.28571428571428</ele><time>2026-04-26T13:49:43.999Z</time></trkpt><trkpt lat="43.50872035648836" lon="13.350999032109046"><ele>180.71428571428572</ele><time>2026-04-26T13:49:44.999Z</time></trkpt><trkpt lat="43.50878754196359" lon="13.350964214006478"><ele>181.14285714285714</ele><time>2026-04-26T13:49:45.999Z</time></trkpt><trkpt lat="43.508853263005506" lon="13.35092949673027"><ele>181.57142857142858</ele><time>2026-04-26T13:49:46.999Z</time></trkpt><trkpt lat="43.50892118848882" lon="13.35089533580822"><ele>182.0</ele><time>2026-04-26T13:49:47.999Z</time></trkpt><trkpt lat="43.50898613710328" lon="13.350866409013287"><ele>179.42857142857142</ele><time>2026-04-26T13:49:48.999Z</time></trkpt><trkpt lat="43.50905083897404" lon="13.35083757924694"><ele>176.85714285714286</ele><time>2026-04-26T13:49:49.998Z</time></trkpt><trkpt lat="43.50911321235454" lon="13.350809317703405"><ele>174.28571428571428</ele><time>2026-04-26T13:49:50.998Z</time></trkpt><trkpt lat="43.50917946306622" lon="13.350777526447072"><ele>171.71428571428572</ele><time>2026-04-26T13:49:51.998Z</time></trkpt><trkpt lat="43.50924988983302" lon="13.350740443797722"><ele>169.14285714285714</ele><time>2026-04-26T13:49:52.998Z</time></trkpt><trkpt lat="43.509319820774216" lon="13.350708417370726"><ele>166.57142857142856</ele><time>2026-04-26T13:49:53.998Z</time></trkpt><trkpt lat="43.50938321886797" lon="13.350681210817672"><ele>164.0</ele><time>2026-04-26T13:49:54.998Z</time></trkpt><trkpt lat="43.50949213500357" lon="13.350625292821176"><ele>162.16666666666666</ele><time>2026-04-26T13:49:56.998Z</time></trkpt><trkpt lat="43.50958759003181" lon="13.350580208684452"><ele>160.33333333333331</ele><time>2026-04-26T13:49:58.998Z</time></trkpt><trkpt lat="43.50967323110616" lon="13.3505546759662"><ele>158.5</ele><time>2026-04-26T13:50:01.998Z</time></trkpt><trkpt lat="43.509749007936975" lon="13.350545548547906"><ele>156.66666666666666</ele><time>2026-04-26T13:50:03.998Z</time></trkpt><trkpt lat="43.50983366332934" lon="13.350568219647197"><ele>154.83333333333334</ele><time>2026-04-26T13:50:05.998Z</time></trkpt><trkpt lat="43.50992308444452" lon="13.35061393461186"><ele>153.0</ele><time>2026-04-26T13:50:07.998Z</time></trkpt><trkpt lat="43.51001818142258" lon="13.350661819087065"><ele>153.0</ele><time>2026-04-26T13:50:09.998Z</time></trkpt><trkpt lat="43.510115937153735" lon="13.350713080270578"><ele>153.0</ele><time>2026-04-26T13:50:11.998Z</time></trkpt><trkpt lat="43.51021921392289" lon="13.350769623143037"><ele>153.0</ele><time>2026-04-26T13:50:13.998Z</time></trkpt><trkpt lat="43.51032563871616" lon="13.350824019667327"><ele>153.0</ele><time>2026-04-26T13:50:15.998Z</time></trkpt><trkpt lat="43.51042514934656" lon="13.350877318710774"><ele>153.0</ele><time>2026-04-26T13:50:17.998Z</time></trkpt><trkpt lat="43.51052232007487" lon="13.350898979271323"><ele>151.0</ele><time>2026-04-26T13:50:19.998Z</time></trkpt><trkpt lat="43.510625623471626" lon="13.350863055871985"><ele>149.0</ele><time>2026-04-26T13:50:21.998Z</time></trkpt><trkpt lat="43.51068637952485" lon="13.35082946064473"><ele>147.0</ele><time>2026-04-26T13:50:22.998Z</time></trkpt><trkpt lat="43.510744426138" lon="13.35078832490968"><ele>145.0</ele><time>2026-04-26T13:50:23.998Z</time></trkpt><trkpt lat="43.51080220857755" lon="13.350745081886345"><ele>143.0</ele><time>2026-04-26T13:50:24.998Z</time></trkpt><trkpt lat="43.51086362796497" lon="13.350700668542496"><ele>141.0</ele><time>2026-04-26T13:50:25.998Z</time></trkpt><trkpt lat="43.5109288427878" lon="13.350657069190916"><ele>139.0</ele><time>2026-04-26T13:50:26.998Z</time></trkpt><trkpt lat="43.51100318451571" lon="13.350612045413595"><ele>139.0</ele><time>2026-04-26T13:50:27.998Z</time></trkpt><trkpt lat="43.51108052342644" lon="13.350556986593745"><ele>139.0</ele><time>2026-04-26T13:50:29Z</time></trkpt><trkpt lat="43.511156986307654" lon="13.350501952053769"><ele>139.0</ele><time>2026-04-26T13:50:30Z</time></trkpt><trkpt lat="43.51124451329273" lon="13.350466540581554"><ele>139.0</ele><time>2026-04-26T13:50:31Z</time></trkpt><trkpt lat="43.51132453895043" lon="13.350412342532856"><ele>139.0</ele><time>2026-04-26T13:50:32Z</time></trkpt><trkpt lat="43.51140473194828" lon="13.350357926163372"><ele>139.0</ele><time>2026-04-26T13:50:33Z</time></trkpt><trkpt lat="43.51148426500157" lon="13.350303638913847"><ele>137.66666666666669</ele><time>2026-04-26T13:50:34Z</time></trkpt><trkpt lat="43.511559586813924" lon="13.350234094563872"><ele>136.33333333333334</ele><time>2026-04-26T13:50:35Z</time></trkpt><trkpt lat="43.51163770263838" lon="13.350176663570203"><ele>135.0</ele><time>2026-04-26T13:50:36Z</time></trkpt><trkpt lat="43.51171829358922" lon="13.350143896946635"><ele>133.66666666666666</ele><time>2026-04-26T13:50:37Z</time></trkpt><trkpt lat="43.511786547697916" lon="13.35007394276222"><ele>132.33333333333331</ele><time>2026-04-26T13:50:38Z</time></trkpt><trkpt lat="43.51186610738171" lon="13.350023560300295"><ele>131.0</ele><time>2026-04-26T13:50:39Z</time></trkpt><trkpt lat="43.5119432530718" lon="13.349969309376162"><ele>131.0</ele><time>2026-04-26T13:50:40Z</time></trkpt><trkpt lat="43.512023522568185" lon="13.34991450664561"><ele>131.0</ele><time>2026-04-26T13:50:41Z</time></trkpt><trkpt lat="43.51210262577069" lon="13.349858668052745"><ele>131.0</ele><time>2026-04-26T13:50:42Z</time></trkpt><trkpt lat="43.51218469008268" lon="13.349801329696204"><ele>131.0</ele><time>2026-04-26T13:50:43Z</time></trkpt><trkpt lat="43.51226606151596" lon="13.349746344830377"><ele>131.0</ele><time>2026-04-26T13:50:44Z</time></trkpt><trkpt lat="43.512345621674875" lon="13.34968852354562"><ele>130.5</ele><time>2026-04-26T13:50:45Z</time></trkpt><trkpt lat="43.51242563797232" lon="13.349637973418945"><ele>130.0</ele><time>2026-04-26T13:50:46Z</time></trkpt><trkpt lat="43.512505501307146" lon="13.349586769860103"><ele>129.5</ele><time>2026-04-26T13:50:47Z</time></trkpt><trkpt lat="43.512587517439655" lon="13.349536086922434"><ele>129.0</ele><time>2026-04-26T13:50:48Z</time></trkpt><trkpt lat="43.51266842373939" lon="13.349478847910968"><ele>128.5</ele><time>2026-04-26T13:50:49Z</time></trkpt><trkpt lat="43.51274979686826" lon="13.349426447953002"><ele>128.0</ele><time>2026-04-26T13:50:50Z</time></trkpt><trkpt lat="43.512827601290994" lon="13.349377127394394"><ele>127.99999999999999</ele><time>2026-04-26T13:50:51Z</time></trkpt><trkpt lat="43.512902880382825" lon="13.349327172417125"><ele>128.0</ele><time>2026-04-26T13:50:52Z</time></trkpt><trkpt lat="43.512977755919394" lon="13.349274957968696"><ele>128.0</ele><time>2026-04-26T13:50:53Z</time></trkpt><trkpt lat="43.51305131813419" lon="13.349224378319175"><ele>128.0</ele><time>2026-04-26T13:50:54Z</time></trkpt><trkpt lat="43.51312662520826" lon="13.34917291442689"><ele>127.99999999999999</ele><time>2026-04-26T13:50:55Z</time></trkpt><trkpt lat="43.513199352275144" lon="13.349126580179176"><ele>128.0</ele><time>2026-04-26T13:50:56Z</time></trkpt><trkpt lat="43.513275609043646" lon="13.349079817026222"><ele>127.2</ele><time>2026-04-26T13:50:57Z</time></trkpt><trkpt lat="43.51335413849419" lon="13.349034307861766"><ele>126.4</ele><time>2026-04-26T13:50:58Z</time></trkpt><trkpt lat="43.513434206598276" lon="13.348988827836603"><ele>125.60000000000001</ele><time>2026-04-26T13:50:59Z</time></trkpt><trkpt lat="43.51352083094528" lon="13.34894545317613"><ele>124.80000000000001</ele><time>2026-04-26T13:51:00Z</time></trkpt><trkpt lat="43.51361426802918" lon="13.348924642888974"><ele>124.0</ele><time>2026-04-26T13:51:01Z</time></trkpt><trkpt lat="43.51370137107815" lon="13.34888614549243"><ele>122.66666666666667</ele><time>2026-04-26T13:51:02Z</time></trkpt><trkpt lat="43.51378432601081" lon="13.348851349333318"><ele>121.33333333333334</ele><time>2026-04-26T13:51:03Z</time></trkpt><trkpt lat="43.51386329857386" lon="13.348801174449457"><ele>120.0</ele><time>2026-04-26T13:51:03.999Z</time></trkpt><trkpt lat="43.51394640299436" lon="13.348782682844437"><ele>118.66666666666666</ele><time>2026-04-26T13:51:04.999Z</time></trkpt><trkpt lat="43.51403282313836" lon="13.348765922684642"><ele>117.33333333333333</ele><time>2026-04-26T13:51:05.999Z</time></trkpt><trkpt lat="43.514120360181046" lon="13.348752436448054"><ele>116.0</ele><time>2026-04-26T13:51:06.999Z</time></trkpt><trkpt lat="43.51421416726583" lon="13.348746623466353"><ele>116.0</ele><time>2026-04-26T13:51:07.999Z</time></trkpt><trkpt lat="43.51431118517139" lon="13.348738466897162"><ele>116.0</ele><time>2026-04-26T13:51:08.999Z</time></trkpt><trkpt lat="43.51440977646673" lon="13.348733146989877"><ele>116.0</ele><time>2026-04-26T13:51:09.999Z</time></trkpt><trkpt lat="43.514508123595" lon="13.348725669496607"><ele>116.0</ele><time>2026-04-26T13:51:10.999Z</time></trkpt><trkpt lat="43.5146048112757" lon="13.348717806222993"><ele>116.0</ele><time>2026-04-26T13:51:11.999Z</time></trkpt><trkpt lat="43.514699907195684" lon="13.348730431542267"><ele>115.66666666666666</ele><time>2026-04-26T13:51:12.999Z</time></trkpt><trkpt lat="43.51478803975986" lon="13.348710007302444"><ele>115.33333333333333</ele><time>2026-04-26T13:51:13.999Z</time></trkpt><trkpt lat="43.514871845722126" lon="13.348701219167776"><ele>115.0</ele><time>2026-04-26T13:51:14.999Z</time></trkpt><trkpt lat="43.51495186277401" lon="13.348698300003413"><ele>114.66666666666666</ele><time>2026-04-26T13:51:15.999Z</time></trkpt><trkpt lat="43.515027299618076" lon="13.34869876356717"><ele>114.33333333333333</ele><time>2026-04-26T13:51:16.999Z</time></trkpt><trkpt lat="43.51509848415563" lon="13.348719349341168"><ele>114.0</ele><time>2026-04-26T13:51:17.999Z</time></trkpt><trkpt lat="43.5151687942171" lon="13.348720761860987"><ele>114.0</ele><time>2026-04-26T13:51:18.999Z</time></trkpt><trkpt lat="43.515234884488436" lon="13.348722089603838"><ele>113.99999999999999</ele><time>2026-04-26T13:51:19.999Z</time></trkpt><trkpt lat="43.515305367959314" lon="13.348723505607426"><ele>114.0</ele><time>2026-04-26T13:51:20.999Z</time></trkpt><trkpt lat="43.515372863167364" lon="13.348724861576414"><ele>114.0</ele><time>2026-04-26T13:51:21.999Z</time></trkpt><trkpt lat="43.51548320318794" lon="13.348713692255036"><ele>113.99999999999999</ele><time>2026-04-26T13:51:23.999Z</time></trkpt><trkpt lat="43.515546539720106" lon="13.348717316059396"><ele>114.0</ele><time>2026-04-26T13:51:25.999Z</time></trkpt><trkpt lat="43.51561230007696" lon="13.348715286821308"><ele>114.0</ele><time>2026-04-26T13:51:29.999Z</time></trkpt><trkpt lat="43.51571058352169" lon="13.348708819713648"><ele>113.4</ele><time>2026-04-26T13:51:32.999Z</time></trkpt><trkpt lat="43.51582003563732" lon="13.348733845205803"><ele>112.80000000000001</ele><time>2026-04-26T13:51:34.999Z</time></trkpt><trkpt lat="43.51589936301884" lon="13.348716928631474"><ele>112.19999999999999</ele><time>2026-04-26T13:51:35.999Z</time></trkpt><trkpt lat="43.51597701530852" lon="13.348717182066732"><ele>111.6</ele><time>2026-04-26T13:51:36.999Z</time></trkpt><trkpt lat="43.51606752131225" lon="13.348716401054139"><ele>111.0</ele><time>2026-04-26T13:51:37.999Z</time></trkpt><trkpt lat="43.516162081133" lon="13.348741202245574"><ele>110.5</ele><time>2026-04-26T13:51:38.999Z</time></trkpt><trkpt lat="43.51625131953406" lon="13.348742105457262"><ele>110.0</ele><time>2026-04-26T13:51:39.999Z</time></trkpt><trkpt lat="43.51633636575314" lon="13.348720763537797"><ele>109.5</ele><time>2026-04-26T13:51:40.999Z</time></trkpt><trkpt lat="43.516420770593136" lon="13.34873061647202"><ele>109.0</ele><time>2026-04-26T13:51:41.999Z</time></trkpt><trkpt lat="43.51649988230022" lon="13.34872680151201"><ele>108.5</ele><time>2026-04-26T13:51:42.999Z</time></trkpt><trkpt lat="43.51657552458595" lon="13.348730165231089"><ele>108.0</ele><time>2026-04-26T13:51:43.999Z</time></trkpt><trkpt lat="43.51665104377067" lon="13.348734615864648"><ele>108.0</ele><time>2026-04-26T13:51:44.999Z</time></trkpt><trkpt lat="43.51672617982289" lon="13.348738833760637"><ele>108.0</ele><time>2026-04-26T13:51:45.999Z</time></trkpt><trkpt lat="43.51680708678279" lon="13.348744830902394"><ele>108.0</ele><time>2026-04-26T13:51:46.999Z</time></trkpt><trkpt lat="43.516884737161135" lon="13.34875469141266"><ele>108.0</ele><time>2026-04-26T13:51:47.999Z</time></trkpt><trkpt lat="43.51696432821284" lon="13.348769894882233"><ele>108.0</ele><time>2026-04-26T13:51:48.999Z</time></trkpt><trkpt lat="43.517047022050264" lon="13.348789703700302"><ele>108.0</ele><time>2026-04-26T13:51:49.999Z</time></trkpt><trkpt lat="43.5171322964316" lon="13.348810083091594"><ele>108.0</ele><time>2026-04-26T13:51:50.999Z</time></trkpt><trkpt lat="43.51722223371787" lon="13.348832314980937"><ele>108.00000000000001</ele><time>2026-04-26T13:51:51.999Z</time></trkpt><trkpt lat="43.51731244951177" lon="13.348860912759688"><ele>108.00000000000001</ele><time>2026-04-26T13:51:52.999Z</time></trkpt><trkpt lat="43.5174074298337" lon="13.348882272821072"><ele>108.0</ele><time>2026-04-26T13:51:53.999Z</time></trkpt><trkpt lat="43.517504770501475" lon="13.348911724806538"><ele>108.0</ele><time>2026-04-26T13:51:54.999Z</time></trkpt><trkpt lat="43.51760365437327" lon="13.348938603099795"><ele>108.0</ele><time>2026-04-26T13:51:55.999Z</time></trkpt><trkpt lat="43.51770760402426" lon="13.348968411942533"><ele>108.00000000000001</ele><time>2026-04-26T13:51:56.999Z</time></trkpt><trkpt lat="43.51781195944193" lon="13.349002375208524"><ele>108.00000000000001</ele><time>2026-04-26T13:51:57.999Z</time></trkpt><trkpt lat="43.51791678347386" lon="13.349035229254586"><ele>108.0</ele><time>2026-04-26T13:51:58.999Z</time></trkpt><trkpt lat="43.51801738808939" lon="13.349063795476576"><ele>108.0</ele><time>2026-04-26T13:51:59.999Z</time></trkpt><trkpt lat="43.51811431207561" lon="13.349089832958995"><ele>107.0</ele><time>2026-04-26T13:52:00.999Z</time></trkpt><trkpt lat="43.518206248128116" lon="13.349117374358894"><ele>106.0</ele><time>2026-04-26T13:52:01.998Z</time></trkpt><trkpt lat="43.5182931667819" lon="13.349149729520681"><ele>105.0</ele><time>2026-04-26T13:52:02.998Z</time></trkpt><trkpt lat="43.51837611824904" lon="13.34917094933493"><ele>104.0</ele><time>2026-04-26T13:52:03.998Z</time></trkpt><trkpt lat="43.51845571120351" lon="13.349216211383531"><ele>103.0</ele><time>2026-04-26T13:52:04.998Z</time></trkpt><trkpt lat="43.51854010465913" lon="13.349241625175779"><ele>102.0</ele><time>2026-04-26T13:52:05.998Z</time></trkpt><trkpt lat="43.518633578538875" lon="13.349268455091082"><ele>101.39999999999999</ele><time>2026-04-26T13:52:06.998Z</time></trkpt><trkpt lat="43.51873543759677" lon="13.349297691824326"><ele>100.8</ele><time>2026-04-26T13:52:07.998Z</time></trkpt><trkpt lat="43.518839698977715" lon="13.349327618098803"><ele>100.2</ele><time>2026-04-26T13:52:08.998Z</time></trkpt><trkpt lat="43.51894362449195" lon="13.349357447973327"><ele>99.6</ele><time>2026-04-26T13:52:09.998Z</time></trkpt><trkpt lat="43.51904595666811" lon="13.349386820498445"><ele>99.0</ele><time>2026-04-26T13:52:10.998Z</time></trkpt><trkpt lat="43.51915004015336" lon="13.349416695713415"><ele>99.0</ele><time>2026-04-26T13:52:11.998Z</time></trkpt><trkpt lat="43.51926011013247" lon="13.349450836777562"><ele>99.0</ele><time>2026-04-26T13:52:12.998Z</time></trkpt><trkpt lat="43.51937750255434" lon="13.349465076994711"><ele>99.0</ele><time>2026-04-26T13:52:13.998Z</time></trkpt><trkpt lat="43.519492874072014" lon="13.349502248021423"><ele>99.0</ele><time>2026-04-26T13:52:14.998Z</time></trkpt><trkpt lat="43.519613591666065" lon="13.349539105846423"><ele>97.75</ele><time>2026-04-26T13:52:15.998Z</time></trkpt><trkpt lat="43.51973749141056" lon="13.349578500102655"><ele>96.5</ele><time>2026-04-26T13:52:16.998Z</time></trkpt><trkpt lat="43.51985935701941" lon="13.349621954805217"><ele>95.25</ele><time>2026-04-26T13:52:17.998Z</time></trkpt><trkpt lat="43.51998181923526" lon="13.349653958979381"><ele>94.0</ele><time>2026-04-26T13:52:18.998Z</time></trkpt><trkpt lat="43.52010058873066" lon="13.349684710059176"><ele>95.6</ele><time>2026-04-26T13:52:19.998Z</time></trkpt><trkpt lat="43.520208464514766" lon="13.349744312714195"><ele>97.2</ele><time>2026-04-26T13:52:20.998Z</time></trkpt><trkpt lat="43.520315846196056" lon="13.349768434202026"><ele>98.8</ele><time>2026-04-26T13:52:21.998Z</time></trkpt><trkpt lat="43.52041487410467" lon="13.349808325629802"><ele>100.39999999999999</ele><time>2026-04-26T13:52:22.998Z</time></trkpt><trkpt lat="43.5205067512307" lon="13.349854403610845"><ele>102.0</ele><time>2026-04-26T13:52:23.998Z</time></trkpt><trkpt lat="43.52059643564039" lon="13.349895766378888"><ele>102.0</ele><time>2026-04-26T13:52:24.998Z</time></trkpt><trkpt lat="43.5206895060319" lon="13.349939832649234"><ele>102.0</ele><time>2026-04-26T13:52:25.998Z</time></trkpt><trkpt lat="43.520789148540295" lon="13.34998352294286"><ele>102.0</ele><time>2026-04-26T13:52:26.998Z</time></trkpt><trkpt lat="43.52089295157056" lon="13.350037348528241"><ele>102.0</ele><time>2026-04-26T13:52:27.998Z</time></trkpt><trkpt lat="43.52099785429493" lon="13.3500901028468"><ele>102.0</ele><time>2026-04-26T13:52:28.998Z</time></trkpt><trkpt lat="43.52110486041124" lon="13.350146305294478"><ele>102.0</ele><time>2026-04-26T13:52:29.998Z</time></trkpt><trkpt lat="43.521215350914396" lon="13.350200570118115"><ele>102.0</ele><time>2026-04-26T13:52:30.998Z</time></trkpt><trkpt lat="43.52131953284462" lon="13.350261275159584"><ele>102.0</ele><time>2026-04-26T13:52:31.998Z</time></trkpt><trkpt lat="43.521424489413945" lon="13.350316975392424"><ele>102.0</ele><time>2026-04-26T13:52:32.998Z</time></trkpt><trkpt lat="43.52153037150166" lon="13.350373412728437"><ele>101.6</ele><time>2026-04-26T13:52:33.998Z</time></trkpt><trkpt lat="43.52163408856192" lon="13.35043015544928"><ele>101.19999999999999</ele><time>2026-04-26T13:52:35Z</time></trkpt><trkpt lat="43.52173470747885" lon="13.350481409825706"><ele>100.8</ele><time>2026-04-26T13:52:36Z</time></trkpt><trkpt lat="43.52183548393114" lon="13.350523781240712"><ele>100.4</ele><time>2026-04-26T13:52:37Z</time></trkpt><trkpt lat="43.521940802616946" lon="13.350564147637492"><ele>100.0</ele><time>2026-04-26T13:52:38Z</time></trkpt><trkpt lat="43.522051120503214" lon="13.350607572988471"><ele>100.25</ele><time>2026-04-26T13:52:39Z</time></trkpt><trkpt lat="43.52216598221141" lon="13.350650114318917"><ele>100.5</ele><time>2026-04-26T13:52:40Z</time></trkpt><trkpt lat="43.52228152826243" lon="13.350692212234701"><ele>100.75</ele><time>2026-04-26T13:52:41Z</time></trkpt><trkpt lat="43.52240514377437" lon="13.350736542878087"><ele>101.0</ele><time>2026-04-26T13:52:42Z</time></trkpt><trkpt lat="43.522535046635966" lon="13.350781794094603"><ele>101.0</ele><time>2026-04-26T13:52:43Z</time></trkpt><trkpt lat="43.52266619051093" lon="13.350829794278452"><ele>101.0</ele><time>2026-04-26T13:52:44Z</time></trkpt><trkpt lat="43.5227926798621" lon="13.350874460660926"><ele>101.0</ele><time>2026-04-26T13:52:45Z</time></trkpt><trkpt lat="43.52291259919479" lon="13.350918202238958"><ele>101.0</ele><time>2026-04-26T13:52:46Z</time></trkpt><trkpt lat="43.52303004588262" lon="13.35095947323482"><ele>99.0</ele><time>2026-04-26T13:52:47Z</time></trkpt><trkpt lat="43.523137225653294" lon="13.351028288683471"><ele>97.0</ele><time>2026-04-26T13:52:48Z</time></trkpt><trkpt lat="43.52325596632242" lon="13.351078267792243"><ele>95.0</ele><time>2026-04-26T13:52:49Z</time></trkpt><trkpt lat="43.52337621633906" lon="13.351128882132187"><ele>93.0</ele><time>2026-04-26T13:52:50Z</time></trkpt><trkpt lat="43.52350472628503" lon="13.351161236131047"><ele>93.0</ele><time>2026-04-26T13:52:51Z</time></trkpt><trkpt lat="43.52362979011171" lon="13.351210907289284"><ele>93.0</ele><time>2026-04-26T13:52:52Z</time></trkpt><trkpt lat="43.52375567688352" lon="13.351261997636948"><ele>93.0</ele><time>2026-04-26T13:52:53Z</time></trkpt><trkpt lat="43.523881343383565" lon="13.351306453174322"><ele>93.0</ele><time>2026-04-26T13:52:54Z</time></trkpt><trkpt lat="43.52400617725222" lon="13.35135344220679"><ele>95.0</ele><time>2026-04-26T13:52:55Z</time></trkpt><trkpt lat="43.52412663173927" lon="13.351396562147777"><ele>97.0</ele><time>2026-04-26T13:52:56Z</time></trkpt><trkpt lat="43.52424111995756" lon="13.35143594172454"><ele>99.0</ele><time>2026-04-26T13:52:57Z</time></trkpt><trkpt lat="43.524350287458404" lon="13.351476343357856"><ele>101.0</ele><time>2026-04-26T13:52:58Z</time></trkpt><trkpt lat="43.524456176241124" lon="13.351515773520443"><ele>101.0</ele><time>2026-04-26T13:52:59Z</time></trkpt><trkpt lat="43.524556520061594" lon="13.351553550452"><ele>101.0</ele><time>2026-04-26T13:53:00Z</time></trkpt><trkpt lat="43.52465711443578" lon="13.35159056599284"><ele>101.0</ele><time>2026-04-26T13:53:01Z</time></trkpt><trkpt lat="43.5247577816232" lon="13.35162819158273"><ele>101.0</ele><time>2026-04-26T13:53:01.999Z</time></trkpt><trkpt lat="43.52485847497086" lon="13.351666754749449"><ele>101.0</ele><time>2026-04-26T13:53:02.999Z</time></trkpt><trkpt lat="43.52496137438306" lon="13.351704687704286"><ele>101.19999999999999</ele><time>2026-04-26T13:53:03.999Z</time></trkpt><trkpt lat="43.52505920381776" lon="13.35174041349872"><ele>101.39999999999999</ele><time>2026-04-26T13:53:04.999Z</time></trkpt><trkpt lat="43.525151214354715" lon="13.35177484850545"><ele>101.6</ele><time>2026-04-26T13:53:05.999Z</time></trkpt><trkpt lat="43.52523840892022" lon="13.351807183153554"><ele>101.8</ele><time>2026-04-26T13:53:06.999Z</time></trkpt><trkpt lat="43.52533036432788" lon="13.351839981047904"><ele>102.0</ele><time>2026-04-26T13:53:07.999Z</time></trkpt><trkpt lat="43.52542909674957" lon="13.35187706295362"><ele>102.0</ele><time>2026-04-26T13:53:08.999Z</time></trkpt><trkpt lat="43.525532484316614" lon="13.351917286179122"><ele>102.0</ele><time>2026-04-26T13:53:09.999Z</time></trkpt><trkpt lat="43.52563582822932" lon="13.351958665678366"><ele>102.0</ele><time>2026-04-26T13:53:10.999Z</time></trkpt><trkpt lat="43.52574114551898" lon="13.352000571365005"><ele>102.0</ele><time>2026-04-26T13:53:11.999Z</time></trkpt><trkpt lat="43.525848194719636" lon="13.352042192419757"><ele>102.0</ele><time>2026-04-26T13:53:12.999Z</time></trkpt><trkpt lat="43.52596186334843" lon="13.352085093226172"><ele>102.0</ele><time>2026-04-26T13:53:13.999Z</time></trkpt><trkpt lat="43.526074940302024" lon="13.352127480844889"><ele>102.0</ele><time>2026-04-26T13:53:14.999Z</time></trkpt><trkpt lat="43.526180940717104" lon="13.352168213408206"><ele>102.0</ele><time>2026-04-26T13:53:15.999Z</time></trkpt><trkpt lat="43.52628060385404" lon="13.352206935802988"><ele>102.0</ele><time>2026-04-26T13:53:16.999Z</time></trkpt><trkpt lat="43.526373762967374" lon="13.352243503488262"><ele>102.0</ele><time>2026-04-26T13:53:17.999Z</time></trkpt><trkpt lat="43.526450066583386" lon="13.352277713832654"><ele>102.0</ele><time>2026-04-26T13:53:18.999Z</time></trkpt><trkpt lat="43.526522134163045" lon="13.352311438736287"><ele>102.0</ele><time>2026-04-26T13:53:19.999Z</time></trkpt><trkpt lat="43.5265881297491" lon="13.352342236965002"><ele>102.0</ele><time>2026-04-26T13:53:20.999Z</time></trkpt><trkpt lat="43.526656094994436" lon="13.352367979888768"><ele>102.0</ele><time>2026-04-26T13:53:21.999Z</time></trkpt><trkpt lat="43.52671691208729" lon="13.35239490204876"><ele>102.0</ele><time>2026-04-26T13:53:22.999Z</time></trkpt><trkpt lat="43.52684359246247" lon="13.352452240239405"><ele>102.0</ele><time>2026-04-26T13:53:24.999Z</time></trkpt><trkpt lat="43.52691338314765" lon="13.35249513697156"><ele>102.0</ele><time>2026-04-26T13:53:25.999Z</time></trkpt><trkpt lat="43.52698616059075" lon="13.352542551132363"><ele>102.0</ele><time>2026-04-26T13:53:26.999Z</time></trkpt><trkpt lat="43.52705761694671" lon="13.352593876959551"><ele>102.0</ele><time>2026-04-26T13:53:27.999Z</time></trkpt><trkpt lat="43.527130256778634" lon="13.352648464485016"><ele>102.0</ele><time>2026-04-26T13:53:28.999Z</time></trkpt><trkpt lat="43.527200478286204" lon="13.352704354572817"><ele>102.0</ele><time>2026-04-26T13:53:29.999Z</time></trkpt><trkpt lat="43.52726706109008" lon="13.352759944297386"><ele>102.0</ele><time>2026-04-26T13:53:30.999Z</time></trkpt><trkpt lat="43.52733585295493" lon="13.35281383876323"><ele>100.5</ele><time>2026-04-26T13:53:31.999Z</time></trkpt><trkpt lat="43.52740265741671" lon="13.352864702668787"><ele>99.0</ele><time>2026-04-26T13:53:32.999Z</time></trkpt><trkpt lat="43.527470700932305" lon="13.352912890893906"><ele>97.5</ele><time>2026-04-26T13:53:33.999Z</time></trkpt><trkpt lat="43.52754318702258" lon="13.35296551732866"><ele>96.0</ele><time>2026-04-26T13:53:34.999Z</time></trkpt><trkpt lat="43.5276213822053" lon="13.35302492929437"><ele>94.5</ele><time>2026-04-26T13:53:35.999Z</time></trkpt><trkpt lat="43.52770453621648" lon="13.353088719219086"><ele>93.0</ele><time>2026-04-26T13:53:36.999Z</time></trkpt><trkpt lat="43.52779106597008" lon="13.353153934870233"><ele>93.0</ele><time>2026-04-26T13:53:37.999Z</time></trkpt><trkpt lat="43.52788015729265" lon="13.353220488576662"><ele>93.0</ele><time>2026-04-26T13:53:38.999Z</time></trkpt><trkpt lat="43.527971998570656" lon="13.353286360095955"><ele>93.0</ele><time>2026-04-26T13:53:39.999Z</time></trkpt><trkpt lat="43.52806187176329" lon="13.353352047349832"><ele>93.0</ele><time>2026-04-26T13:53:41Z</time></trkpt><trkpt lat="43.52814839245221" lon="13.353413550442756"><ele>93.0</ele><time>2026-04-26T13:53:42Z</time></trkpt><trkpt lat="43.52823012628533" lon="13.353471143807603"><ele>92.16666666666667</ele><time>2026-04-26T13:53:43Z</time></trkpt><trkpt lat="43.52830563696767" lon="13.353525080985593"><ele>91.33333333333333</ele><time>2026-04-26T13:53:44Z</time></trkpt><trkpt lat="43.528375163005336" lon="13.353572550231956"><ele>90.5</ele><time>2026-04-26T13:53:45Z</time></trkpt><trkpt lat="43.52843979801156" lon="13.35361657742743"><ele>89.66666666666666</ele><time>2026-04-26T13:53:46Z</time></trkpt><trkpt lat="43.528503843144605" lon="13.353654764589852"><ele>88.83333333333333</ele><time>2026-04-26T13:53:47Z</time></trkpt><trkpt lat="43.52857016116933" lon="13.353692967673215"><ele>88.0</ele><time>2026-04-26T13:53:48Z</time></trkpt><trkpt lat="43.52863096926943" lon="13.353758611081272"><ele>88.0</ele><time>2026-04-26T13:53:49Z</time></trkpt><trkpt lat="43.52870178559533" lon="13.353806736635061"><ele>88.0</ele><time>2026-04-26T13:53:50Z</time></trkpt><trkpt lat="43.52878271975821" lon="13.35383624487024"><ele>88.0</ele><time>2026-04-26T13:53:51Z</time></trkpt><trkpt lat="43.52885456364541" lon="13.353894480130238"><ele>88.0</ele><time>2026-04-26T13:53:52Z</time></trkpt><trkpt lat="43.5289268278646" lon="13.353953882226305"><ele>88.0</ele><time>2026-04-26T13:53:53Z</time></trkpt><trkpt lat="43.52899813512135" lon="13.35400969232777"><ele>88.0</ele><time>2026-04-26T13:53:54Z</time></trkpt><trkpt lat="43.52906560164468" lon="13.354068564279395"><ele>87.16666666666666</ele><time>2026-04-26T13:53:55Z</time></trkpt><trkpt lat="43.52912770651472" lon="13.354139404288372"><ele>86.33333333333333</ele><time>2026-04-26T13:53:56Z</time></trkpt><trkpt lat="43.52917903204228" lon="13.35421672749657"><ele>85.5</ele><time>2026-04-26T13:53:56.999Z</time></trkpt><trkpt lat="43.52922420821605" lon="13.35429734748021"><ele>84.66666666666667</ele><time>2026-04-26T13:53:57.999Z</time></trkpt><trkpt lat="43.5292613073189" lon="13.354381039602842"><ele>83.83333333333334</ele><time>2026-04-26T13:53:58.999Z</time></trkpt><trkpt lat="43.529292294191485" lon="13.354473402910985"><ele>83.0</ele><time>2026-04-26T13:53:59.999Z</time></trkpt><trkpt lat="43.52931822925213" lon="13.354576875751164"><ele>83.0</ele><time>2026-04-26T13:54:00.999Z</time></trkpt><trkpt lat="43.52933174494164" lon="13.354685470218396"><ele>83.0</ele><time>2026-04-26T13:54:01.999Z</time></trkpt><trkpt lat="43.52933039710288" lon="13.354793515808911"><ele>83.0</ele><time>2026-04-26T13:54:02.999Z</time></trkpt><trkpt lat="43.529314425731386" lon="13.354895180711269"><ele>83.0</ele><time>2026-04-26T13:54:03.999Z</time></trkpt><trkpt lat="43.52929499586076" lon="13.355001494858033"><ele>83.0</ele><time>2026-04-26T13:54:04.999Z</time></trkpt><trkpt lat="43.5292734955466" lon="13.355101603341648"><ele>83.0</ele><time>2026-04-26T13:54:05.999Z</time></trkpt><trkpt lat="43.52925078259809" lon="13.355200021233706"><ele>82.5</ele><time>2026-04-26T13:54:06.999Z</time></trkpt><trkpt lat="43.529228883028544" lon="13.355302214958725"><ele>82.0</ele><time>2026-04-26T13:54:07.999Z</time></trkpt><trkpt lat="43.52920661356558" lon="13.355407123771961"><ele>81.5</ele><time>2026-04-26T13:54:08.999Z</time></trkpt><trkpt lat="43.52918369751266" lon="13.355514121882784"><ele>81.0</ele><time>2026-04-26T13:54:09.999Z</time></trkpt><trkpt lat="43.529157077651526" lon="13.35563122204748"><ele>80.5</ele><time>2026-04-26T13:54:10.999Z</time></trkpt><trkpt lat="43.529134052586436" lon="13.355742781105375"><ele>80.0</ele><time>2026-04-26T13:54:11.999Z</time></trkpt><trkpt lat="43.529114057400804" lon="13.355844123512577"><ele>78.42857142857143</ele><time>2026-04-26T13:54:12.999Z</time></trkpt><trkpt lat="43.52910275648983" lon="13.355931155028978"><ele>76.85714285714286</ele><time>2026-04-26T13:54:13.999Z</time></trkpt><trkpt lat="43.52910963537464" lon="13.356092393711176"><ele>75.28571428571429</ele><time>2026-04-26T13:54:15.999Z</time></trkpt><trkpt lat="43.529131384574825" lon="13.356176177535536"><ele>73.71428571428572</ele><time>2026-04-26T13:54:16.999Z</time></trkpt><trkpt lat="43.52916356707584" lon="13.356257307874648"><ele>72.14285714285715</ele><time>2026-04-26T13:54:17.999Z</time></trkpt><trkpt lat="43.52920725485053" lon="13.356328185496452"><ele>70.57142857142857</ele><time>2026-04-26T13:54:18.999Z</time></trkpt><trkpt lat="43.52926002306009" lon="13.356379371988632"><ele>69.0</ele><time>2026-04-26T13:54:19.999Z</time></trkpt><trkpt lat="43.529321928923466" lon="13.35641649304976"><ele>67.33333333333333</ele><time>2026-04-26T13:54:20.999Z</time></trkpt><trkpt lat="43.52939063783301" lon="13.356431748296746"><ele>65.66666666666667</ele><time>2026-04-26T13:54:21.999Z</time></trkpt><trkpt lat="43.52947142269836" lon="13.356428497110345"><ele>64.0</ele><time>2026-04-26T13:54:22.999Z</time></trkpt><trkpt lat="43.52955550734348" lon="13.356408913589451"><ele>62.333333333333336</ele><time>2026-04-26T13:54:23.999Z</time></trkpt><trkpt lat="43.52964566906847" lon="13.356378853060125"><ele>60.66666666666667</ele><time>2026-04-26T13:54:24.999Z</time></trkpt><trkpt lat="43.52972479816438" lon="13.35633439563362"><ele>59.0</ele><time>2026-04-26T13:54:25.999Z</time></trkpt><trkpt lat="43.529798915151055" lon="13.356292685543526"><ele>59.0</ele><time>2026-04-26T13:54:26.999Z</time></trkpt><trkpt lat="43.52987122286307" lon="13.35625264043415"><ele>59.0</ele><time>2026-04-26T13:54:27.999Z</time></trkpt><trkpt lat="43.52993993950166" lon="13.356212200739732"><ele>59.0</ele><time>2026-04-26T13:54:28.999Z</time></trkpt><trkpt lat="43.530003930933475" lon="13.356167734252782"><ele>59.0</ele><time>2026-04-26T13:54:29.999Z</time></trkpt><trkpt lat="43.53006032714372" lon="13.356112274418157"><ele>59.0</ele><time>2026-04-26T13:54:30.999Z</time></trkpt><trkpt lat="43.53011452818632" lon="13.356050747727803"><ele>59.0</ele><time>2026-04-26T13:54:31.999Z</time></trkpt><trkpt lat="43.530168256164494" lon="13.355984341471167"><ele>59.0</ele><time>2026-04-26T13:54:32.999Z</time></trkpt><trkpt lat="43.53022551597235" lon="13.355911813050962"><ele>59.00000000000001</ele><time>2026-04-26T13:54:33.999Z</time></trkpt><trkpt lat="43.53028385781313" lon="13.355833633866027"><ele>59.0</ele><time>2026-04-26T13:54:34.999Z</time></trkpt><trkpt lat="43.53034116417491" lon="13.355746079498376"><ele>59.0</ele><time>2026-04-26T13:54:35.999Z</time></trkpt><trkpt lat="43.53039100087048" lon="13.355653628018523"><ele>59.0</ele><time>2026-04-26T13:54:36.999Z</time></trkpt><trkpt lat="43.530460697394524" lon="13.355581928011798"><ele>59.00000000000001</ele><time>2026-04-26T13:54:37.999Z</time></trkpt><trkpt lat="43.530518953260184" lon="13.355497139374167"><ele>59.0</ele><time>2026-04-26T13:54:38.999Z</time></trkpt><trkpt lat="43.5305737825849" lon="13.355414561638373"><ele>57.57142857142857</ele><time>2026-04-26T13:54:39.999Z</time></trkpt><trkpt lat="43.53062867285596" lon="13.355342035193495"><ele>56.142857142857146</ele><time>2026-04-26T13:54:41.001Z</time></trkpt><trkpt lat="43.530688724228476" lon="13.355292949786826"><ele>54.714285714285715</ele><time>2026-04-26T13:54:42.001Z</time></trkpt><trkpt lat="43.530751997467654" lon="13.355253199198396"><ele>53.285714285714285</ele><time>2026-04-26T13:54:43Z</time></trkpt><trkpt lat="43.53082017466026" lon="13.355233452151177"><ele>51.85714285714286</ele><time>2026-04-26T13:54:44Z</time></trkpt><trkpt lat="43.530892773938646" lon="13.355224782203589"><ele>50.42857142857143</ele><time>2026-04-26T13:54:45Z</time></trkpt><trkpt lat="43.53096778417771" lon="13.355225539286527"><ele>49.0</ele><time>2026-04-26T13:54:46Z</time></trkpt><trkpt lat="43.531047320104655" lon="13.35521478751737"><ele>48.99999999999999</ele><time>2026-04-26T13:54:47Z</time></trkpt><trkpt lat="43.53113230259683" lon="13.355236383820351"><ele>49.0</ele><time>2026-04-26T13:54:48Z</time></trkpt><trkpt lat="43.531215390244824" lon="13.355253455375568"><ele>49.0</ele><time>2026-04-26T13:54:49Z</time></trkpt><trkpt lat="43.53129430018583" lon="13.355258103069975"><ele>49.0</ele><time>2026-04-26T13:54:50Z</time></trkpt><trkpt lat="43.53137263246477" lon="13.35529518424479"><ele>48.99999999999999</ele><time>2026-04-26T13:54:51Z</time></trkpt><trkpt lat="43.53145303397906" lon="13.355310749678635"><ele>49.0</ele><time>2026-04-26T13:54:52Z</time></trkpt><trkpt lat="43.531529154961085" lon="13.355305732634662"><ele>48.166666666666664</ele><time>2026-04-26T13:54:53Z</time></trkpt><trkpt lat="43.531602617431645" lon="13.355330131469506"><ele>47.33333333333333</ele><time>2026-04-26T13:54:54Z</time></trkpt><trkpt lat="43.5316838174716" lon="13.355341036766694"><ele>46.5</ele><time>2026-04-26T13:54:55Z</time></trkpt><trkpt lat="43.531771315863494" lon="13.35535780571921"><ele>45.666666666666664</ele><time>2026-04-26T13:54:56Z</time></trkpt><trkpt lat="43.531858935213734" lon="13.355374957077636"><ele>44.83333333333333</ele><time>2026-04-26T13:54:57Z</time></trkpt><trkpt lat="43.53194410728672" lon="13.355391228542782"><ele>44.0</ele><time>2026-04-26T13:54:58Z</time></trkpt><trkpt lat="43.53201842043775" lon="13.355405929358206"><ele>44.0</ele><time>2026-04-26T13:54:59Z</time></trkpt><trkpt lat="43.53209213750891" lon="13.355423430410985"><ele>44.0</ele><time>2026-04-26T13:55:00Z</time></trkpt><trkpt lat="43.53216554489874" lon="13.355441567008207"><ele>44.0</ele><time>2026-04-26T13:55:01Z</time></trkpt><trkpt lat="43.53223446815039" lon="13.355459056737795"><ele>44.0</ele><time>2026-04-26T13:55:02Z</time></trkpt><trkpt lat="43.53230812314306" lon="13.35547220268643"><ele>44.0</ele><time>2026-04-26T13:55:03Z</time></trkpt><trkpt lat="43.53238802802941" lon="13.355486726206701"><ele>44.0</ele><time>2026-04-26T13:55:04Z</time></trkpt><trkpt lat="43.53246912029348" lon="13.355497816625133"><ele>44.0</ele><time>2026-04-26T13:55:05Z</time></trkpt><trkpt lat="43.5325457792719" lon="13.355509372594291"><ele>44.0</ele><time>2026-04-26T13:55:06Z</time></trkpt><trkpt lat="43.53261915729171" lon="13.355522593451411"><ele>44.0</ele><time>2026-04-26T13:55:07Z</time></trkpt><trkpt lat="43.53269335055163" lon="13.355537288594972"><ele>44.0</ele><time>2026-04-26T13:55:08Z</time></trkpt><trkpt lat="43.53276956953926" lon="13.355550888881071"><ele>44.0</ele><time>2026-04-26T13:55:09Z</time></trkpt><trkpt lat="43.532850506644024" lon="13.355562745939691"><ele>44.0</ele><time>2026-04-26T13:55:10Z</time></trkpt><trkpt lat="43.53293201789098" lon="13.35557837281293"><ele>44.0</ele><time>2026-04-26T13:55:11Z</time></trkpt><trkpt lat="43.53301512451039" lon="13.35557656725036"><ele>44.0</ele><time>2026-04-26T13:55:12Z</time></trkpt><trkpt lat="43.53309036497681" lon="13.355583389193345"><ele>44.0</ele><time>2026-04-26T13:55:13Z</time></trkpt><trkpt lat="43.53315215607302" lon="13.355523957615173"><ele>44.0</ele><time>2026-04-26T13:55:14Z</time></trkpt><trkpt lat="43.533192164935585" lon="13.355403352326041"><ele>44.0</ele><time>2026-04-26T13:55:15Z</time></trkpt><trkpt lat="43.53318557156072" lon="13.355273111033208"><ele>44.0</ele><time>2026-04-26T13:55:16Z</time></trkpt><trkpt lat="43.533165146552044" lon="13.355144553610645"><ele>43.75</ele><time>2026-04-26T13:55:17Z</time></trkpt><trkpt lat="43.53314951195061" lon="13.355010349724129"><ele>43.5</ele><time>2026-04-26T13:55:18Z</time></trkpt><trkpt lat="43.533146610974576" lon="13.354861951843235"><ele>43.25</ele><time>2026-04-26T13:55:19Z</time></trkpt><trkpt lat="43.53314665107762" lon="13.354698050111148"><ele>43.0</ele><time>2026-04-26T13:55:20Z</time></trkpt><trkpt lat="43.53314850849453" lon="13.354525528242753"><ele>43.4</ele><time>2026-04-26T13:55:21Z</time></trkpt><trkpt lat="43.53315345614625" lon="13.354352491417208"><ele>43.8</ele><time>2026-04-26T13:55:22Z</time></trkpt><trkpt lat="43.5331583491598" lon="13.354182648491502"><ele>44.2</ele><time>2026-04-26T13:55:23Z</time></trkpt><trkpt lat="43.53316665263341" lon="13.354036851423817"><ele>44.6</ele><time>2026-04-26T13:55:24Z</time></trkpt><trkpt lat="43.53317712988642" lon="13.353908453490444"><ele>45.0</ele><time>2026-04-26T13:55:25Z</time></trkpt><trkpt lat="43.533190008699634" lon="13.353794193399047"><ele>45.166666666666664</ele><time>2026-04-26T13:55:26Z</time></trkpt><trkpt lat="43.53320882395693" lon="13.353699525734353"><ele>45.333333333333336</ele><time>2026-04-26T13:55:27Z</time></trkpt><trkpt lat="43.533229242845366" lon="13.35360872299093"><ele>45.5</ele><time>2026-04-26T13:55:28Z</time></trkpt><trkpt lat="43.5332835465498" lon="13.353460000270353"><ele>45.66666666666667</ele><time>2026-04-26T13:55:30Z</time></trkpt><trkpt lat="43.53332222710173" lon="13.353382930719922"><ele>45.833333333333336</ele><time>2026-04-26T13:55:31Z</time></trkpt><trkpt lat="43.533362255048154" lon="13.353305533291268"><ele>46.0</ele><time>2026-04-26T13:55:32Z</time></trkpt><trkpt lat="43.53342637759045" lon="13.353193905083717"><ele>46.0</ele><time>2026-04-26T13:55:34Z</time></trkpt><trkpt lat="43.53347686975901" lon="13.353120864563378"><ele>46.0</ele><time>2026-04-26T13:55:36Z</time></trkpt><trkpt lat="43.53343220594487" lon="13.352993034635771"><ele>46.0</ele><time>2026-04-26T13:55:37Z</time></trkpt><trkpt lat="43.53343715139878" lon="13.352831585868035"><ele>46.0</ele><time>2026-04-26T13:55:39Z</time></trkpt><trkpt lat="43.53342935768839" lon="13.352740124374296"><ele>46.0</ele><time>2026-04-26T13:55:40Z</time></trkpt><trkpt lat="43.533420984551" lon="13.352641863928405"><ele>46.0</ele><time>2026-04-26T13:55:41Z</time></trkpt><trkpt lat="43.53332850555144" lon="13.352521120824035"><ele>46.75</ele><time>2026-04-26T13:55:42Z</time></trkpt><trkpt lat="43.53327402103196" lon="13.35239702797331"><ele>47.5</ele><time>2026-04-26T13:55:43Z</time></trkpt><trkpt lat="43.533203715103916" lon="13.352266720434752"><ele>48.25</ele><time>2026-04-26T13:55:44Z</time></trkpt><trkpt lat="43.53312508407474" lon="13.352122083262516"><ele>49.0</ele><time>2026-04-26T13:55:45Z</time></trkpt><trkpt lat="43.53304500137239" lon="13.351969877556524"><ele>49.5</ele><time>2026-04-26T13:55:46Z</time></trkpt><trkpt lat="43.53296805077858" lon="13.351818330326747"><ele>50.0</ele><time>2026-04-26T13:55:47Z</time></trkpt><trkpt lat="43.53288734616794" lon="13.351658604854178"><ele>50.5</ele><time>2026-04-26T13:55:48Z</time></trkpt><trkpt lat="43.532804850214745" lon="13.351488228539033"><ele>51.0</ele><time>2026-04-26T13:55:49Z</time></trkpt><trkpt lat="43.53271848205231" lon="13.351313580961076"><ele>53.0</ele><time>2026-04-26T13:55:49.999Z</time></trkpt><trkpt lat="43.53262434289274" lon="13.351139256291882"><ele>55.0</ele><time>2026-04-26T13:55:50.999Z</time></trkpt><trkpt lat="43.532532977121114" lon="13.350958723285327"><ele>57.0</ele><time>2026-04-26T13:55:51.999Z</time></trkpt><trkpt lat="43.53244278764317" lon="13.35078160017359"><ele>57.0</ele><time>2026-04-26T13:55:52.999Z</time></trkpt><trkpt lat="43.53236896994755" lon="13.350592896464551"><ele>57.0</ele><time>2026-04-26T13:55:53.999Z</time></trkpt><trkpt lat="43.532301087960015" lon="13.350420362492887"><ele>57.0</ele><time>2026-04-26T13:55:54.999Z</time></trkpt><trkpt lat="43.532243204100816" lon="13.350254880913877"><ele>57.0</ele><time>2026-04-26T13:55:55.999Z</time></trkpt><trkpt lat="43.532252581316804" lon="13.350063592892111"><ele>58.25</ele><time>2026-04-26T13:55:56.999Z</time></trkpt><trkpt lat="43.53226585333342" lon="13.349871971335014"><ele>59.5</ele><time>2026-04-26T13:55:57.999Z</time></trkpt><trkpt lat="43.53227358617558" lon="13.349671002166808"><ele>60.75</ele><time>2026-04-26T13:55:58.999Z</time></trkpt><trkpt lat="43.5322976632621" lon="13.349463083978463"><ele>62.0</ele><time>2026-04-26T13:55:59.999Z</time></trkpt><trkpt lat="43.53232194497537" lon="13.349249738529307"><ele>62.66666666666667</ele><time>2026-04-26T13:56:00.999Z</time></trkpt><trkpt lat="43.532354315388865" lon="13.349045654940562"><ele>63.33333333333333</ele><time>2026-04-26T13:56:01.999Z</time></trkpt><trkpt lat="43.53240668350251" lon="13.34884090838341"><ele>64.0</ele><time>2026-04-26T13:56:02.999Z</time></trkpt><trkpt lat="43.53249634731851" lon="13.348650732810361"><ele>64.0</ele><time>2026-04-26T13:56:03.999Z</time></trkpt><trkpt lat="43.53258176330444" lon="13.348453172899617"><ele>64.0</ele><time>2026-04-26T13:56:04.999Z</time></trkpt><trkpt lat="43.532659140560064" lon="13.348242698366175"><ele>64.0</ele><time>2026-04-26T13:56:05.999Z</time></trkpt><trkpt lat="43.53275399232466" lon="13.348043908500918"><ele>62.33333333333333</ele><time>2026-04-26T13:56:06.999Z</time></trkpt><trkpt lat="43.53285715147242" lon="13.34785472173302"><ele>60.66666666666667</ele><time>2026-04-26T13:56:07.999Z</time></trkpt><trkpt lat="43.53297434531211" lon="13.34768046783867"><ele>59.0</ele><time>2026-04-26T13:56:08.999Z</time></trkpt><trkpt lat="43.533101460502195" lon="13.347517601055191"><ele>59.66666666666667</ele><time>2026-04-26T13:56:09.999Z</time></trkpt><trkpt lat="43.53323588019487" lon="13.347362814115321"><ele>60.33333333333333</ele><time>2026-04-26T13:56:10.999Z</time></trkpt><trkpt lat="43.53337173384442" lon="13.347217771638844"><ele>61.0</ele><time>2026-04-26T13:56:11.999Z</time></trkpt><trkpt lat="43.53351236610237" lon="13.347095693420728"><ele>61.0</ele><time>2026-04-26T13:56:12.999Z</time></trkpt><trkpt lat="43.533650736249406" lon="13.347021740663996"><ele>61.0</ele><time>2026-04-26T13:56:13.999Z</time></trkpt><trkpt lat="43.53379093773284" lon="13.347026769370151"><ele>61.0</ele><time>2026-04-26T13:56:14.999Z</time></trkpt><trkpt lat="43.53393373256352" lon="13.347014413218748"><ele>61.0</ele><time>2026-04-26T13:56:15.999Z</time></trkpt><trkpt lat="43.53408298674914" lon="13.347026348310045"><ele>63.25</ele><time>2026-04-26T13:56:16.999Z</time></trkpt><trkpt lat="43.53422325684517" lon="13.347010431579712"><ele>65.5</ele><time>2026-04-26T13:56:17.999Z</time></trkpt><trkpt lat="43.534341930669555" lon="13.346951361365727"><ele>67.75</ele><time>2026-04-26T13:56:18.999Z</time></trkpt><trkpt lat="43.53442582386702" lon="13.346827696438103"><ele>70.0</ele><time>2026-04-26T13:56:19.999Z</time></trkpt><trkpt lat="43.534466000475014" lon="13.34667829813261"><ele>70.0</ele><time>2026-04-26T13:56:20.999Z</time></trkpt><trkpt lat="43.53444469509756" lon="13.346515642120073"><ele>70.0</ele><time>2026-04-26T13:56:21.999Z</time></trkpt><trkpt lat="43.53440413123305" lon="13.346345767181019"><ele>70.0</ele><time>2026-04-26T13:56:22.999Z</time></trkpt><trkpt lat="43.534361830506654" lon="13.346171638418042"><ele>70.0</ele><time>2026-04-26T13:56:23.999Z</time></trkpt><trkpt lat="43.53435112816921" lon="13.346001591255314"><ele>69.5</ele><time>2026-04-26T13:56:24.999Z</time></trkpt><trkpt lat="43.53433979929281" lon="13.345849093389802"><ele>69.0</ele><time>2026-04-26T13:56:25.999Z</time></trkpt><trkpt lat="43.53439341711991" lon="13.34569729325425"><ele>68.5</ele><time>2026-04-26T13:56:26.999Z</time></trkpt><trkpt lat="43.53450943458295" lon="13.345612796400971"><ele>68.0</ele><time>2026-04-26T13:56:27.999Z</time></trkpt><trkpt lat="43.53462250165577" lon="13.34550683651113"><ele>70.0</ele><time>2026-04-26T13:56:28.999Z</time></trkpt><trkpt lat="43.534735011144406" lon="13.3453946442235"><ele>72.0</ele><time>2026-04-26T13:56:29.999Z</time></trkpt><trkpt lat="43.53485793529965" lon="13.345271761298601"><ele>74.0</ele><time>2026-04-26T13:56:30.999Z</time></trkpt><trkpt lat="43.534992670340785" lon="13.34514342880652"><ele>74.0</ele><time>2026-04-26T13:56:31.999Z</time></trkpt><trkpt lat="43.53512318477769" lon="13.345023435981249"><ele>74.0</ele><time>2026-04-26T13:56:32.999Z</time></trkpt><trkpt lat="43.53523885055948" lon="13.344906649559539"><ele>74.0</ele><time>2026-04-26T13:56:33.999Z</time></trkpt><trkpt lat="43.53533884914168" lon="13.34479080920006"><ele>74.0</ele><time>2026-04-26T13:56:34.999Z</time></trkpt><trkpt lat="43.535417923821385" lon="13.34465781851996"><ele>74.25</ele><time>2026-04-26T13:56:35.999Z</time></trkpt><trkpt lat="43.535478717471904" lon="13.344508018028952"><ele>74.5</ele><time>2026-04-26T13:56:36.999Z</time></trkpt><trkpt lat="43.53546565433906" lon="13.344320746666304"><ele>74.75</ele><time>2026-04-26T13:56:37.999Z</time></trkpt><trkpt lat="43.53542682736945" lon="13.344144800676771"><ele>75.0</ele><time>2026-04-26T13:56:38.999Z</time></trkpt><trkpt lat="43.5353526077404" lon="13.343984992118422"><ele>76.75</ele><time>2026-04-26T13:56:39.999Z</time></trkpt><trkpt lat="43.53525842082852" lon="13.343841118049877"><ele>78.5</ele><time>2026-04-26T13:56:40.999Z</time></trkpt><trkpt lat="43.53516208778271" lon="13.343697755792839"><ele>80.25</ele><time>2026-04-26T13:56:41.999Z</time></trkpt><trkpt lat="43.535059544940815" lon="13.343559018374023"><ele>82.0</ele><time>2026-04-26T13:56:42.999Z</time></trkpt><trkpt lat="43.53494059354166" lon="13.343444539242782"><ele>82.0</ele><time>2026-04-26T13:56:43.999Z</time></trkpt><trkpt lat="43.534807687292556" lon="13.343359892707712"><ele>82.0</ele><time>2026-04-26T13:56:44.999Z</time></trkpt><trkpt lat="43.534669138057" lon="13.34330453308662"><ele>82.0</ele><time>2026-04-26T13:56:46Z</time></trkpt><trkpt lat="43.534527845786684" lon="13.343232344543246"><ele>82.0</ele><time>2026-04-26T13:56:47Z</time></trkpt><trkpt lat="43.534378719184296" lon="13.343199127090495"><ele>81.33333333333333</ele><time>2026-04-26T13:56:48Z</time></trkpt><trkpt lat="43.53423340386421" lon="13.343142765329663"><ele>80.66666666666667</ele><time>2026-04-26T13:56:49Z</time></trkpt><trkpt lat="43.53408658998417" lon="13.3430852856951"><ele>80.0</ele><time>2026-04-26T13:56:50Z</time></trkpt><trkpt lat="43.53394305412514" lon="13.343025918561601"><ele>83.33333333333334</ele><time>2026-04-26T13:56:51Z</time></trkpt><trkpt lat="43.53379595454254" lon="13.342975715302602"><ele>86.66666666666667</ele><time>2026-04-26T13:56:52Z</time></trkpt><trkpt lat="43.53364673107871" lon="13.342931877522336"><ele>90.0</ele><time>2026-04-26T13:56:53Z</time></trkpt><trkpt lat="43.53349277642595" lon="13.342899082287968"><ele>90.0</ele><time>2026-04-26T13:56:54Z</time></trkpt><trkpt lat="43.53333607536648" lon="13.342882586313186"><ele>90.0</ele><time>2026-04-26T13:56:55Z</time></trkpt><trkpt lat="43.53318018689315" lon="13.342873094140833"><ele>90.0</ele><time>2026-04-26T13:56:56Z</time></trkpt><trkpt lat="43.533022167873305" lon="13.342869884571268"><ele>91.66666666666667</ele><time>2026-04-26T13:56:57Z</time></trkpt><trkpt lat="43.53285961140504" lon="13.342867720823644"><ele>93.33333333333334</ele><time>2026-04-26T13:56:58Z</time></trkpt><trkpt lat="43.532698400709535" lon="13.342864860431732"><ele>95.0</ele><time>2026-04-26T13:56:59Z</time></trkpt><trkpt lat="43.53253171004111" lon="13.342860930257116"><ele>95.0</ele><time>2026-04-26T13:57:00Z</time></trkpt><trkpt lat="43.532367061692405" lon="13.342855595365274"><ele>95.0</ele><time>2026-04-26T13:57:01Z</time></trkpt><trkpt lat="43.532197950425385" lon="13.34285218568408"><ele>95.0</ele><time>2026-04-26T13:57:02Z</time></trkpt><trkpt lat="43.532028805504815" lon="13.342853879273418"><ele>96.33333333333334</ele><time>2026-04-26T13:57:03Z</time></trkpt><trkpt lat="43.53185763846091" lon="13.342857049551347"><ele>97.66666666666667</ele><time>2026-04-26T13:57:04Z</time></trkpt><trkpt lat="43.531686344797755" lon="13.342854900778159"><ele>99.0</ele><time>2026-04-26T13:57:05Z</time></trkpt><trkpt lat="43.53151599399157" lon="13.34284898375548"><ele>99.0</ele><time>2026-04-26T13:57:06Z</time></trkpt><trkpt lat="43.53134999934564" lon="13.342840839413281"><ele>99.0</ele><time>2026-04-26T13:57:07Z</time></trkpt><trkpt lat="43.531187132792525" lon="13.342820350121128"><ele>99.0</ele><time>2026-04-26T13:57:08Z</time></trkpt><trkpt lat="43.53103412306564" lon="13.34275184118548"><ele>99.5</ele><time>2026-04-26T13:57:09Z</time></trkpt><trkpt lat="43.530892781431874" lon="13.342678826141917"><ele>100.0</ele><time>2026-04-26T13:57:10Z</time></trkpt><trkpt lat="43.53076555416998" lon="13.342588612525333"><ele>100.5</ele><time>2026-04-26T13:57:11Z</time></trkpt><trkpt lat="43.53063276738749" lon="13.342497315177324"><ele>101.0</ele><time>2026-04-26T13:57:12Z</time></trkpt><trkpt lat="43.53053327931532" lon="13.342336074223619"><ele>100.66666666666666</ele><time>2026-04-26T13:57:13Z</time></trkpt><trkpt lat="43.530412287665015" lon="13.342195257503219"><ele>100.33333333333334</ele><time>2026-04-26T13:57:14Z</time></trkpt><trkpt lat="43.53031563526774" lon="13.342018133109358"><ele>100.0</ele><time>2026-04-26T13:57:15Z</time></trkpt><trkpt lat="43.5302348912935" lon="13.341821500783421"><ele>100.0</ele><time>2026-04-26T13:57:16Z</time></trkpt><trkpt lat="43.53021251527778" lon="13.341591920017597"><ele>100.0</ele><time>2026-04-26T13:57:17Z</time></trkpt><trkpt lat="43.530196626540565" lon="13.341364814934487"><ele>100.0</ele><time>2026-04-26T13:57:18Z</time></trkpt><trkpt lat="43.530182358011956" lon="13.341132469898467"><ele>101.75</ele><time>2026-04-26T13:57:19Z</time></trkpt><trkpt lat="43.53016910057103" lon="13.34090824620874"><ele>103.5</ele><time>2026-04-26T13:57:20Z</time></trkpt><trkpt lat="43.53014006916193" lon="13.340713405027048"><ele>105.25</ele><time>2026-04-26T13:57:21Z</time></trkpt><trkpt lat="43.530133564245325" lon="13.340548961824165"><ele>107.0</ele><time>2026-04-26T13:57:22Z</time></trkpt><trkpt lat="43.5301196108385" lon="13.340417312007913"><ele>107.19999999999999</ele><time>2026-04-26T13:57:23Z</time></trkpt><trkpt lat="43.530117105515124" lon="13.34031125017243"><ele>107.39999999999999</ele><time>2026-04-26T13:57:24Z</time></trkpt><trkpt lat="43.53014078854855" lon="13.340206583327406"><ele>107.60000000000001</ele><time>2026-04-26T13:57:27Z</time></trkpt><trkpt lat="43.53023089571258" lon="13.34020962325457"><ele>107.80000000000001</ele><time>2026-04-26T13:57:30Z</time></trkpt><trkpt lat="43.53035111885023" lon="13.340244771862851"><ele>108.0</ele><time>2026-04-26T13:57:32Z</time></trkpt><trkpt lat="43.530435911560645" lon="13.340270454731478"><ele>108.60000000000001</ele><time>2026-04-26T13:57:33Z</time></trkpt><trkpt lat="43.53052517816096" lon="13.340296428653701"><ele>109.20000000000002</ele><time>2026-04-26T13:57:34Z</time></trkpt><trkpt lat="43.53061952667848" lon="13.340321082622062"><ele>109.8</ele><time>2026-04-26T13:57:35Z</time></trkpt><trkpt lat="43.53072428367852" lon="13.340347286616055"><ele>110.4</ele><time>2026-04-26T13:57:36Z</time></trkpt><trkpt lat="43.530838421734344" lon="13.340375427671313"><ele>111.0</ele><time>2026-04-26T13:57:37Z</time></trkpt><trkpt lat="43.53095828506849" lon="13.340406692310538"><ele>111.0</ele><time>2026-04-26T13:57:38Z</time></trkpt><trkpt lat="43.531081222192185" lon="13.340436999615346"><ele>111.0</ele><time>2026-04-26T13:57:39Z</time></trkpt><trkpt lat="43.53120415217897" lon="13.340470429525755"><ele>111.0</ele><time>2026-04-26T13:57:40Z</time></trkpt><trkpt lat="43.53132740389159" lon="13.34050557687553"><ele>111.0</ele><time>2026-04-26T13:57:41Z</time></trkpt><trkpt lat="43.531446806504654" lon="13.340539453764878"><ele>112.19999999999999</ele><time>2026-04-26T13:57:42Z</time></trkpt><trkpt lat="43.531562024752894" lon="13.340574871694654"><ele>113.39999999999999</ele><time>2026-04-26T13:57:43Z</time></trkpt><trkpt lat="43.53166030880459" lon="13.340608072838371"><ele>114.6</ele><time>2026-04-26T13:57:44Z</time></trkpt><trkpt lat="43.531741348660645" lon="13.34063582613726"><ele>115.8</ele><time>2026-04-26T13:57:45Z</time></trkpt><trkpt lat="43.53181602042272" lon="13.340658912548143"><ele>117.0</ele><time>2026-04-26T13:57:46Z</time></trkpt><trkpt lat="43.53188884656031" lon="13.340683325197269"><ele>117.0</ele><time>2026-04-26T13:57:47Z</time></trkpt><trkpt lat="43.531967160324974" lon="13.34070560560706"><ele>117.0</ele><time>2026-04-26T13:57:48Z</time></trkpt><trkpt lat="43.53205142425347" lon="13.340722572375192"><ele>117.0</ele><time>2026-04-26T13:57:49Z</time></trkpt><trkpt lat="43.53214025336156" lon="13.340733449191221"><ele>117.0</ele><time>2026-04-26T13:57:49.999Z</time></trkpt><trkpt lat="43.532225459132846" lon="13.340731715114732"><ele>117.0</ele><time>2026-04-26T13:57:50.999Z</time></trkpt><trkpt lat="43.53231030068834" lon="13.340722646193571"><ele>117.0</ele><time>2026-04-26T13:57:51.999Z</time></trkpt><trkpt lat="43.53239507103958" lon="13.340714161654661"><ele>116.5</ele><time>2026-04-26T13:57:52.999Z</time></trkpt><trkpt lat="43.53247977486403" lon="13.340705024454087"><ele>116.0</ele><time>2026-04-26T13:57:53.999Z</time></trkpt><trkpt lat="43.53255800113726" lon="13.340694135170658"><ele>115.5</ele><time>2026-04-26T13:57:54.999Z</time></trkpt><trkpt lat="43.532630582648046" lon="13.340683358503895"><ele>115.0</ele><time>2026-04-26T13:57:55.999Z</time></trkpt><trkpt lat="43.53269817309682" lon="13.340672580193901"><ele>114.5</ele><time>2026-04-26T13:57:56.999Z</time></trkpt><trkpt lat="43.53281282744401" lon="13.34064542945476"><ele>114.0</ele><time>2026-04-26T13:57:58.999Z</time></trkpt><trkpt lat="43.532930665805154" lon="13.340589027740204"><ele>113.71428571428571</ele><time>2026-04-26T13:58:00.999Z</time></trkpt><trkpt lat="43.53299594494676" lon="13.340574522512364"><ele>113.42857142857142</ele><time>2026-04-26T13:58:01.999Z</time></trkpt><trkpt lat="43.533063796082615" lon="13.340545461285755"><ele>113.14285714285714</ele><time>2026-04-26T13:58:02.999Z</time></trkpt><trkpt lat="43.53312584732069" lon="13.340497729726792"><ele>112.85714285714286</ele><time>2026-04-26T13:58:03.999Z</time></trkpt><trkpt lat="43.53319983908359" lon="13.340487192964101"><ele>112.57142857142857</ele><time>2026-04-26T13:58:04.999Z</time></trkpt><trkpt lat="43.53327123231138" lon="13.340456688154053"><ele>112.28571428571428</ele><time>2026-04-26T13:58:05.999Z</time></trkpt><trkpt lat="43.53333945374135" lon="13.340425711616128"><ele>112.0</ele><time>2026-04-26T13:58:06.999Z</time></trkpt><trkpt lat="43.53340855487618" lon="13.340394335587705"><ele>112.66666666666667</ele><time>2026-04-26T13:58:07.999Z</time></trkpt><trkpt lat="43.533473465355065" lon="13.340344525953169"><ele>113.33333333333334</ele><time>2026-04-26T13:58:08.999Z</time></trkpt><trkpt lat="43.53354245022929" lon="13.34031504444839"><ele>114.0</ele><time>2026-04-26T13:58:09.999Z</time></trkpt><trkpt lat="43.533609982720236" lon="13.340280773958082"><ele>114.66666666666666</ele><time>2026-04-26T13:58:10.999Z</time></trkpt><trkpt lat="43.53367064391001" lon="13.340251306252831"><ele>115.33333333333333</ele><time>2026-04-26T13:58:11.999Z</time></trkpt><trkpt lat="43.533734183065164" lon="13.340243799111137"><ele>116.0</ele><time>2026-04-26T13:58:12.999Z</time></trkpt><trkpt lat="43.533853796514244" lon="13.34019454015903"><ele>115.99999999999999</ele><time>2026-04-26T13:58:14.999Z</time></trkpt><trkpt lat="43.53392534894788" lon="13.34018134975531"><ele>116.0</ele><time>2026-04-26T13:58:15.999Z</time></trkpt><trkpt lat="43.53399755101326" lon="13.340176737327647"><ele>116.0</ele><time>2026-04-26T13:58:16.999Z</time></trkpt><trkpt lat="43.534064667601044" lon="13.3401714531484"><ele>116.0</ele><time>2026-04-26T13:58:17.999Z</time></trkpt><trkpt lat="43.534129645148205" lon="13.340156945200482"><ele>115.99999999999999</ele><time>2026-04-26T13:58:18.999Z</time></trkpt><trkpt lat="43.53425611700695" lon="13.340159086224842"><ele>116.0</ele><time>2026-04-26T13:58:20.999Z</time></trkpt><trkpt lat="43.53432170030756" lon="13.34015611377071"><ele>116.00000000000001</ele><time>2026-04-26T13:58:21.999Z</time></trkpt><trkpt lat="43.534394548124965" lon="13.340158658061664"><ele>116.0</ele><time>2026-04-26T13:58:22.999Z</time></trkpt><trkpt lat="43.53446586847562" lon="13.340154093614231"><ele>116.00000000000001</ele><time>2026-04-26T13:58:23.999Z</time></trkpt><trkpt lat="43.53453919352522" lon="13.340146815418716"><ele>116.00000000000001</ele><time>2026-04-26T13:58:24.999Z</time></trkpt><trkpt lat="43.53461085438414" lon="13.340137921181219"><ele>116.0</ele><time>2026-04-26T13:58:25.999Z</time></trkpt><trkpt lat="43.534681423221535" lon="13.34013560984714"><ele>116.00000000000001</ele><time>2026-04-26T13:58:26.999Z</time></trkpt><trkpt lat="43.53474819533841" lon="13.340128055419372"><ele>116.00000000000001</ele><time>2026-04-26T13:58:27.999Z</time></trkpt><trkpt lat="43.53481239649366" lon="13.340121053272197"><ele>115.0</ele><time>2026-04-26T13:58:28.999Z</time></trkpt><trkpt lat="43.53492932789208" lon="13.340121334996436"><ele>114.0</ele><time>2026-04-26T13:58:30.999Z</time></trkpt><trkpt lat="43.535024353322726" lon="13.34011647524873"><ele>113.0</ele><time>2026-04-26T13:58:32.999Z</time></trkpt><trkpt lat="43.53514864871905" lon="13.340137902516144"><ele>112.0</ele><time>2026-04-26T13:58:34.999Z</time></trkpt><trkpt lat="43.53521392912658" lon="13.340150363011334"><ele>111.0</ele><time>2026-04-26T13:58:35.999Z</time></trkpt><trkpt lat="43.53528115733491" lon="13.340166298503146"><ele>111.0</ele><time>2026-04-26T13:58:36.999Z</time></trkpt><trkpt lat="43.53534945784402" lon="13.34018141387748"><ele>111.0</ele><time>2026-04-26T13:58:37.999Z</time></trkpt><trkpt lat="43.535419820232164" lon="13.340190009539363"><ele>111.0</ele><time>2026-04-26T13:58:38.999Z</time></trkpt><trkpt lat="43.53548756433415" lon="13.340194962211331"><ele>111.0</ele><time>2026-04-26T13:58:39.999Z</time></trkpt><trkpt lat="43.53555931797379" lon="13.34020460639373"><ele>111.0</ele><time>2026-04-26T13:58:40.999Z</time></trkpt><trkpt lat="43.535635634509525" lon="13.340220178656258"><ele>111.0</ele><time>2026-04-26T13:58:41.999Z</time></trkpt><trkpt lat="43.53570753227699" lon="13.340239139261847"><ele>111.0</ele><time>2026-04-26T13:58:42.999Z</time></trkpt><trkpt lat="43.53577929734602" lon="13.340259593484864"><ele>111.33333333333333</ele><time>2026-04-26T13:58:43.999Z</time></trkpt><trkpt lat="43.53585182088067" lon="13.340278750935527"><ele>111.66666666666666</ele><time>2026-04-26T13:58:44.999Z</time></trkpt><trkpt lat="43.53592674087498" lon="13.340309064565078"><ele>112.0</ele><time>2026-04-26T13:58:45.999Z</time></trkpt><trkpt lat="43.53600001034284" lon="13.340339778044315"><ele>112.33333333333333</ele><time>2026-04-26T13:58:46.998Z</time></trkpt><trkpt lat="43.536072639545736" lon="13.340371978440878"><ele>112.66666666666666</ele><time>2026-04-26T13:58:47.998Z</time></trkpt><trkpt lat="43.536146541147936" lon="13.340407363096798"><ele>113.0</ele><time>2026-04-26T13:58:48.998Z</time></trkpt><trkpt lat="43.536211446158" lon="13.340440618577443"><ele>114.28571428571429</ele><time>2026-04-26T13:58:49.998Z</time></trkpt><trkpt lat="43.53626707137602" lon="13.34049402498387"><ele>115.57142857142856</ele><time>2026-04-26T13:58:50.998Z</time></trkpt><trkpt lat="43.53633129402938" lon="13.340517230981426"><ele>116.85714285714285</ele><time>2026-04-26T13:58:52Z</time></trkpt><trkpt lat="43.536391828718" lon="13.340553288014172"><ele>118.14285714285714</ele><time>2026-04-26T13:58:53Z</time></trkpt><trkpt lat="43.53644800885002" lon="13.340596361997356"><ele>119.42857142857142</ele><time>2026-04-26T13:58:54Z</time></trkpt><trkpt lat="43.53649384922726" lon="13.340659245880671"><ele>120.7142857142857</ele><time>2026-04-26T13:58:55Z</time></trkpt><trkpt lat="43.53660531413128" lon="13.340715618253448"><ele>121.99999999999999</ele><time>2026-04-26T13:58:57Z</time></trkpt><trkpt lat="43.53670257631407" lon="13.340805513224595"><ele>122.0</ele><time>2026-04-26T13:58:59Z</time></trkpt><trkpt lat="43.53679905406206" lon="13.34087771329542"><ele>121.99999999999999</ele><time>2026-04-26T13:59:01Z</time></trkpt><trkpt lat="43.536880274248134" lon="13.34093666212068"><ele>121.99999999999999</ele><time>2026-04-26T13:59:03Z</time></trkpt><trkpt lat="43.53697693745571" lon="13.340980736626479"><ele>122.0</ele><time>2026-04-26T13:59:05Z</time></trkpt><trkpt lat="43.53706205040183" lon="13.34104803190997"><ele>122.0</ele><time>2026-04-26T13:59:07Z</time></trkpt><trkpt lat="43.53715454973271" lon="13.341118108970273"><ele>122.25</ele><time>2026-04-26T13:59:09Z</time></trkpt><trkpt lat="43.53725815142098" lon="13.341199843009099"><ele>122.5</ele><time>2026-04-26T13:59:11Z</time></trkpt><trkpt lat="43.53736411520902" lon="13.341281428856757"><ele>122.75</ele><time>2026-04-26T13:59:13Z</time></trkpt><trkpt lat="43.53747299911794" lon="13.341356855187627"><ele>123.0</ele><time>2026-04-26T13:59:15Z</time></trkpt><trkpt lat="43.537571493891924" lon="13.341423164494179"><ele>123.0</ele><time>2026-04-26T13:59:17Z</time></trkpt><trkpt lat="43.53767080558146" lon="13.341493712483139"><ele>123.0</ele><time>2026-04-26T13:59:19Z</time></trkpt><trkpt lat="43.537759364110386" lon="13.341571371910117"><ele>123.0</ele><time>2026-04-26T13:59:21Z</time></trkpt><trkpt lat="43.53784109119968" lon="13.341645593964941"><ele>123.0</ele><time>2026-04-26T13:59:23Z</time></trkpt><trkpt lat="43.537898860401405" lon="13.341696220715772"><ele>123.0</ele><time>2026-04-26T13:59:26Z</time></trkpt><trkpt lat="43.53794228683457" lon="13.34176426755719"><ele>123.0</ele><time>2026-04-26T13:59:31Z</time></trkpt><trkpt lat="43.53800506144371" lon="13.341846740088155"><ele>123.0</ele><time>2026-04-26T14:00:29.999Z</time></trkpt><trkpt lat="43.53806749880864" lon="13.34194954178724"><ele>123.0</ele><time>2026-04-26T14:00:32.999Z</time></trkpt><trkpt lat="43.538111187802734" lon="13.342031921241993"><ele>123.0</ele><time>2026-04-26T14:00:34.999Z</time></trkpt><trkpt lat="43.538168192389605" lon="13.342108134727216"><ele>123.0</ele><time>2026-04-26T14:00:36.999Z</time></trkpt><trkpt lat="43.53821156724978" lon="13.342214379365442"><ele>123.0</ele><time>2026-04-26T14:00:38.999Z</time></trkpt><trkpt lat="43.538257754885294" lon="13.342315094076113"><ele>123.0</ele><time>2026-04-26T14:00:40.999Z</time></trkpt><trkpt lat="43.538296978987816" lon="13.342433551855578"><ele>123.0</ele><time>2026-04-26T14:00:42.999Z</time></trkpt><trkpt lat="43.53834815897423" lon="13.342529774479495"><ele>123.0</ele><time>2026-04-26T14:00:44.999Z</time></trkpt><trkpt lat="43.53839936144858" lon="13.342616168744877"><ele>123.0</ele><time>2026-04-26T14:00:46.999Z</time></trkpt><trkpt lat="43.53845654175755" lon="13.342698870162847"><ele>123.0</ele><time>2026-04-26T14:00:48.999Z</time></trkpt><trkpt lat="43.538529015853875" lon="13.342771310739492"><ele>123.0</ele><time>2026-04-26T14:00:50.999Z</time></trkpt><trkpt lat="43.53858758568405" lon="13.34286914719276"><ele>123.0</ele><time>2026-04-26T14:00:52.998Z</time></trkpt><trkpt lat="43.538661882671306" lon="13.34294794262117"><ele>122.2</ele><time>2026-04-26T14:00:54.998Z</time></trkpt><trkpt lat="43.5387282735021" lon="13.34303968837202"><ele>121.4</ele><time>2026-04-26T14:00:56.998Z</time></trkpt><trkpt lat="43.53878934610092" lon="13.343131676870803"><ele>120.60000000000001</ele><time>2026-04-26T14:00:59Z</time></trkpt><trkpt lat="43.538851223597185" lon="13.343233609358213"><ele>119.80000000000001</ele><time>2026-04-26T14:01:01Z</time></trkpt><trkpt lat="43.538914738118656" lon="13.343340407502923"><ele>119.0</ele><time>2026-04-26T14:01:03Z</time></trkpt><trkpt lat="43.53898150952758" lon="13.34345005932424"><ele>119.0</ele><time>2026-04-26T14:01:05Z</time></trkpt><trkpt lat="43.53903864250007" lon="13.343558739671161"><ele>119.0</ele><time>2026-04-26T14:01:07Z</time></trkpt><trkpt lat="43.539095240665375" lon="13.343662992030215"><ele>119.0</ele><time>2026-04-26T14:01:09Z</time></trkpt><trkpt lat="43.539142295958214" lon="13.343772556024941"><ele>119.0</ele><time>2026-04-26T14:01:11Z</time></trkpt><trkpt lat="43.539194414567646" lon="13.343869799052282"><ele>119.0</ele><time>2026-04-26T14:01:13Z</time></trkpt><trkpt lat="43.53924952145218" lon="13.343963533150118"><ele>120.25</ele><time>2026-04-26T14:01:15Z</time></trkpt><trkpt lat="43.53931250909457" lon="13.344083818685275"><ele>121.5</ele><time>2026-04-26T14:01:17Z</time></trkpt><trkpt lat="43.5393764410646" lon="13.344213695136194"><ele>122.75</ele><time>2026-04-26T14:01:19Z</time></trkpt><trkpt lat="43.539446664710844" lon="13.344344560287604"><ele>124.0</ele><time>2026-04-26T14:01:21Z</time></trkpt><trkpt lat="43.53951394448431" lon="13.344473550826443"><ele>122.6</ele><time>2026-04-26T14:01:23Z</time></trkpt><trkpt lat="43.53957456932102" lon="13.344593791741337"><ele>121.2</ele><time>2026-04-26T14:01:25Z</time></trkpt><trkpt lat="43.53963379305122" lon="13.344703489154348"><ele>119.79999999999998</ele><time>2026-04-26T14:01:27Z</time></trkpt><trkpt lat="43.53968971415475" lon="13.344820826654745"><ele>118.39999999999999</ele><time>2026-04-26T14:01:29Z</time></trkpt><trkpt lat="43.539723806781566" lon="13.34492819279006"><ele>117.0</ele><time>2026-04-26T14:01:31Z</time></trkpt><trkpt lat="43.53977526469301" lon="13.345022143504897"><ele>117.0</ele><time>2026-04-26T14:01:33Z</time></trkpt><trkpt lat="43.539831075984075" lon="13.345145777670103"><ele>116.99999999999999</ele><time>2026-04-26T14:01:35Z</time></trkpt><trkpt lat="43.5398732291799" lon="13.345244580015159"><ele>116.99999999999999</ele><time>2026-04-26T14:01:37Z</time></trkpt><trkpt lat="43.53992171701005" lon="13.345337525753958"><ele>117.0</ele><time>2026-04-26T14:01:39Z</time></trkpt><trkpt lat="43.53998040227505" lon="13.345436289550625"><ele>117.0</ele><time>2026-04-26T14:01:41Z</time></trkpt><trkpt lat="43.5400361821446" lon="13.345533887642151"><ele>117.39999999999999</ele><time>2026-04-26T14:01:43Z</time></trkpt><trkpt lat="43.54010628414282" lon="13.345600423754199"><ele>117.79999999999998</ele><time>2026-04-26T14:01:45Z</time></trkpt><trkpt lat="43.540186770383926" lon="13.345666672914497"><ele>118.2</ele><time>2026-04-26T14:01:47Z</time></trkpt><trkpt lat="43.54027508530814" lon="13.345734731767353"><ele>118.6</ele><time>2026-04-26T14:01:49Z</time></trkpt><trkpt lat="43.54037227568764" lon="13.345807614829742"><ele>119.0</ele><time>2026-04-26T14:01:51Z</time></trkpt><trkpt lat="43.54047255541089" lon="13.345877588976862"><ele>117.80000000000001</ele><time>2026-04-26T14:01:53Z</time></trkpt><trkpt lat="43.540568345321155" lon="13.345936272097374"><ele>116.60000000000001</ele><time>2026-04-26T14:01:55Z</time></trkpt><trkpt lat="43.54066805917527" lon="13.345993035016111"><ele>115.4</ele><time>2026-04-26T14:01:57Z</time></trkpt><trkpt lat="43.540772943015384" lon="13.346039978983068"><ele>114.2</ele><time>2026-04-26T14:01:58.999Z</time></trkpt><trkpt lat="43.54087436864795" lon="13.346080266762426"><ele>113.0</ele><time>2026-04-26T14:02:00.999Z</time></trkpt><trkpt lat="43.54097534431003" lon="13.346110594338539"><ele>113.0</ele><time>2026-04-26T14:02:02.999Z</time></trkpt><trkpt lat="43.54103976697195" lon="13.346131181023827"><ele>113.0</ele><time>2026-04-26T14:02:04.999Z</time></trkpt><trkpt lat="43.54112862133877" lon="13.34615335866543"><ele>113.0</ele><time>2026-04-26T14:02:11.999Z</time></trkpt><trkpt lat="43.541206551102555" lon="13.346172922861815"><ele>113.0</ele><time>2026-04-26T14:02:14.999Z</time></trkpt><trkpt lat="43.54127560841114" lon="13.346170437745583"><ele>113.0</ele><time>2026-04-26T14:04:28.999Z</time></trkpt><trkpt lat="43.54134138610899" lon="13.346162370090687"><ele>113.0</ele><time>2026-04-26T14:04:30.999Z</time></trkpt><trkpt lat="43.54140646168928" lon="13.346138132261926"><ele>113.0</ele><time>2026-04-26T14:04:32.999Z</time></trkpt><trkpt lat="43.541493615274504" lon="13.346134710983899"><ele>111.99999999999999</ele><time>2026-04-26T14:04:35.999Z</time></trkpt><trkpt lat="43.541562305757004" lon="13.346118302542365"><ele>111.0</ele><time>2026-04-26T14:04:37.999Z</time></trkpt><trkpt lat="43.54163606319635" lon="13.346097669436162"><ele>110.0</ele><time>2026-04-26T14:04:39.999Z</time></trkpt><trkpt lat="43.54171307158955" lon="13.346074810192194"><ele>109.0</ele><time>2026-04-26T14:04:41.999Z</time></trkpt><trkpt lat="43.5417965876027" lon="13.346047517753773"><ele>107.99999999999999</ele><time>2026-04-26T14:04:43.999Z</time></trkpt><trkpt lat="43.54187470716524" lon="13.346024105724254"><ele>107.0</ele><time>2026-04-26T14:04:45.999Z</time></trkpt><trkpt lat="43.54194779111688" lon="13.346007670578537"><ele>107.00000000000001</ele><time>2026-04-26T14:04:47.999Z</time></trkpt><trkpt lat="43.54201936002323" lon="13.345994926766068"><ele>107.0</ele><time>2026-04-26T14:04:49.999Z</time></trkpt><trkpt lat="43.54209590756706" lon="13.345983912366185"><ele>107.0</ele><time>2026-04-26T14:04:51.999Z</time></trkpt><trkpt lat="43.54216561450498" lon="13.345974949315824"><ele>107.0</ele><time>2026-04-26T14:04:53.999Z</time></trkpt><trkpt lat="43.54223547163065" lon="13.345967789695116"><ele>107.0</ele><time>2026-04-26T14:04:55.999Z</time></trkpt><trkpt lat="43.54230529840371" lon="13.345967789695976"><ele>107.00000000000001</ele><time>2026-04-26T14:04:57.999Z</time></trkpt><trkpt lat="43.54238687077097" lon="13.345970279805698"><ele>107.0</ele><time>2026-04-26T14:04:59.998Z</time></trkpt><trkpt lat="43.54247181657931" lon="13.345970495031608"><ele>106.49999999999999</ele><time>2026-04-26T14:05:01.998Z</time></trkpt><trkpt lat="43.54254433124565" lon="13.345945809098954"><ele>106.0</ele><time>2026-04-26T14:05:03.998Z</time></trkpt><trkpt lat="43.542614091264575" lon="13.345948483847902"><ele>105.5</ele><time>2026-04-26T14:05:05.998Z</time></trkpt><trkpt lat="43.5426998081185" lon="13.345926460920632"><ele>105.0</ele><time>2026-04-26T14:05:07.998Z</time></trkpt><trkpt lat="43.54278914864368" lon="13.345909877377714"><ele>104.49999999999999</ele><time>2026-04-26T14:05:10Z</time></trkpt><trkpt lat="43.54287838713415" lon="13.345904447323187"><ele>104.0</ele><time>2026-04-26T14:05:12Z</time></trkpt><trkpt lat="43.54296916714672" lon="13.345894091084725"><ele>104.0</ele><time>2026-04-26T14:05:14Z</time></trkpt><trkpt lat="43.54308151351934" lon="13.345896018780053"><ele>104.0</ele><time>2026-04-26T14:05:16Z</time></trkpt><trkpt lat="43.54317701039386" lon="13.34588822385944"><ele>104.0</ele><time>2026-04-26T14:05:18Z</time></trkpt><trkpt lat="43.5432848469469" lon="13.345856522946782"><ele>104.0</ele><time>2026-04-26T14:05:20Z</time></trkpt><trkpt lat="43.54339789037109" lon="13.345857528428056"><ele>104.0</ele><time>2026-04-26T14:05:22Z</time></trkpt><trkpt lat="43.543513548739355" lon="13.345846186352965"><ele>104.0</ele><time>2026-04-26T14:05:24Z</time></trkpt><trkpt lat="43.54362228217822" lon="13.345872395907097"><ele>104.0</ele><time>2026-04-26T14:05:26Z</time></trkpt><trkpt lat="43.54372658329199" lon="13.34588169838168"><ele>104.0</ele><time>2026-04-26T14:05:28Z</time></trkpt><trkpt lat="43.54382361931036" lon="13.345899348853377"><ele>104.0</ele><time>2026-04-26T14:05:30Z</time></trkpt><trkpt lat="43.54392414062174" lon="13.345917144846577"><ele>104.0</ele><time>2026-04-26T14:05:32Z</time></trkpt><trkpt lat="43.54401557402592" lon="13.345986924845768"><ele>104.25</ele><time>2026-04-26T14:05:34Z</time></trkpt><trkpt lat="43.54412203787457" lon="13.346074181071378"><ele>104.5</ele><time>2026-04-26T14:05:36Z</time></trkpt><trkpt lat="43.54422568120833" lon="13.346151697640044"><ele>104.75</ele><time>2026-04-26T14:05:38Z</time></trkpt><trkpt lat="43.54432868127307" lon="13.346236023242145"><ele>105.0</ele><time>2026-04-26T14:05:40Z</time></trkpt><trkpt lat="43.54442686840738" lon="13.346321633500253"><ele>105.0</ele><time>2026-04-26T14:05:42Z</time></trkpt><trkpt lat="43.544535315374496" lon="13.346380102002984"><ele>105.0</ele><time>2026-04-26T14:05:44Z</time></trkpt><trkpt lat="43.54459730786857" lon="13.346406368657373"><ele>105.0</ele><time>2026-04-26T14:05:45Z</time></trkpt><trkpt lat="43.54466053728115" lon="13.346433923659736"><ele>105.0</ele><time>2026-04-26T14:05:46Z</time></trkpt><trkpt lat="43.54472557625865" lon="13.346455570322233"><ele>105.0</ele><time>2026-04-26T14:05:47Z</time></trkpt><trkpt lat="43.54479605093933" lon="13.34646620833188"><ele>105.0</ele><time>2026-04-26T14:05:48Z</time></trkpt><trkpt lat="43.544869591493665" lon="13.346471824623267"><ele>104.66666666666667</ele><time>2026-04-26T14:05:49Z</time></trkpt><trkpt lat="43.54494186650145" lon="13.346474922340926"><ele>104.33333333333334</ele><time>2026-04-26T14:05:50Z</time></trkpt><trkpt lat="43.54501624361968" lon="13.346477255598236"><ele>104.0</ele><time>2026-04-26T14:05:51Z</time></trkpt><trkpt lat="43.54509273678756" lon="13.346471759588926"><ele>103.66666666666667</ele><time>2026-04-26T14:05:52Z</time></trkpt><trkpt lat="43.54517310548913" lon="13.346466442105779"><ele>103.33333333333334</ele><time>2026-04-26T14:05:53Z</time></trkpt><trkpt lat="43.545250502021446" lon="13.346459030470632"><ele>103.0</ele><time>2026-04-26T14:05:54Z</time></trkpt><trkpt lat="43.545334848518415" lon="13.346454009068378"><ele>102.16666666666667</ele><time>2026-04-26T14:05:55Z</time></trkpt><trkpt lat="43.54541475100911" lon="13.346442381044326"><ele>101.33333333333334</ele><time>2026-04-26T14:05:56Z</time></trkpt><trkpt lat="43.54549632556093" lon="13.346429951153091"><ele>100.5</ele><time>2026-04-26T14:05:57Z</time></trkpt><trkpt lat="43.54557192364431" lon="13.346422104141148"><ele>99.66666666666666</ele><time>2026-04-26T14:05:58Z</time></trkpt><trkpt lat="43.54564821437708" lon="13.346412390037829"><ele>98.83333333333333</ele><time>2026-04-26T14:05:59Z</time></trkpt><trkpt lat="43.545729466875" lon="13.346401556622578"><ele>98.0</ele><time>2026-04-26T14:06:00Z</time></trkpt><trkpt lat="43.5458005930985" lon="13.346396014851681"><ele>97.99999999999999</ele><time>2026-04-26T14:06:01Z</time></trkpt><trkpt lat="43.54588384748035" lon="13.34638017111688"><ele>98.0</ele><time>2026-04-26T14:06:02Z</time></trkpt><trkpt lat="43.54596042222677" lon="13.346368472611188"><ele>98.0</ele><time>2026-04-26T14:06:03Z</time></trkpt><trkpt lat="43.54603516118184" lon="13.346360631223051"><ele>98.0</ele><time>2026-04-26T14:06:04Z</time></trkpt><trkpt lat="43.546120901785265" lon="13.346343115650459"><ele>97.99999999999999</ele><time>2026-04-26T14:06:04.999Z</time></trkpt><trkpt lat="43.54619760871644" lon="13.34633133046271"><ele>98.0</ele><time>2026-04-26T14:06:05.999Z</time></trkpt><trkpt lat="43.54627293333291" lon="13.346321465664014"><ele>99.2</ele><time>2026-04-26T14:06:06.999Z</time></trkpt><trkpt lat="43.54635575396604" lon="13.346316341546942"><ele>100.4</ele><time>2026-04-26T14:06:07.999Z</time></trkpt><trkpt lat="43.546442863063476" lon="13.34630880127964"><ele>101.60000000000001</ele><time>2026-04-26T14:06:08.999Z</time></trkpt><trkpt lat="43.546532012950614" lon="13.346289416610484"><ele>102.80000000000001</ele><time>2026-04-26T14:06:09.999Z</time></trkpt><trkpt lat="43.546629294950144" lon="13.346303731390186"><ele>104.0</ele><time>2026-04-26T14:06:10.999Z</time></trkpt><trkpt lat="43.54673070111043" lon="13.34629413877167"><ele>104.0</ele><time>2026-04-26T14:06:11.999Z</time></trkpt><trkpt lat="43.54683857412162" lon="13.34628082676108"><ele>104.0</ele><time>2026-04-26T14:06:12.999Z</time></trkpt><trkpt lat="43.546959314554435" lon="13.346261382564233"><ele>104.0</ele><time>2026-04-26T14:06:13.999Z</time></trkpt><trkpt lat="43.54708274588128" lon="13.346240801861375"><ele>104.0</ele><time>2026-04-26T14:06:14.999Z</time></trkpt><trkpt lat="43.54721221313893" lon="13.346196525144562"><ele>102.75</ele><time>2026-04-26T14:06:15.999Z</time></trkpt><trkpt lat="43.54734999140615" lon="13.346180424490333"><ele>101.5</ele><time>2026-04-26T14:06:16.999Z</time></trkpt><trkpt lat="43.54749086307493" lon="13.346165941115403"><ele>100.25</ele><time>2026-04-26T14:06:17.999Z</time></trkpt><trkpt lat="43.547634286560594" lon="13.346150282831573"><ele>99.0</ele><time>2026-04-26T14:06:18.999Z</time></trkpt><trkpt lat="43.547778209980855" lon="13.346128882442823"><ele>98.75</ele><time>2026-04-26T14:06:19.999Z</time></trkpt><trkpt lat="43.547920893481525" lon="13.34610418665262"><ele>98.5</ele><time>2026-04-26T14:06:20.999Z</time></trkpt><trkpt lat="43.5480677128487" lon="13.346083141386705"><ele>98.25</ele><time>2026-04-26T14:06:21.999Z</time></trkpt><trkpt lat="43.548214965094914" lon="13.346062937591904"><ele>98.0</ele><time>2026-04-26T14:06:22.999Z</time></trkpt><trkpt lat="43.54836100899869" lon="13.346042815653897"><ele>98.0</ele><time>2026-04-26T14:06:23.999Z</time></trkpt><trkpt lat="43.54850065708432" lon="13.346023272407356"><ele>98.0</ele><time>2026-04-26T14:06:24.999Z</time></trkpt><trkpt lat="43.54863809969248" lon="13.346011060045733"><ele>98.0</ele><time>2026-04-26T14:06:25.999Z</time></trkpt><trkpt lat="43.54877636975037" lon="13.34600297451066"><ele>98.0</ele><time>2026-04-26T14:06:26.999Z</time></trkpt><trkpt lat="43.54892378269708" lon="13.345995027190822"><ele>97.75</ele><time>2026-04-26T14:06:27.999Z</time></trkpt><trkpt lat="43.54907541597244" lon="13.345986472936938"><ele>97.5</ele><time>2026-04-26T14:06:28.999Z</time></trkpt><trkpt lat="43.54922170002557" lon="13.345973378970143"><ele>97.25</ele><time>2026-04-26T14:06:29.999Z</time></trkpt><trkpt lat="43.54935557351272" lon="13.345963258018584"><ele>97.0</ele><time>2026-04-26T14:06:30.999Z</time></trkpt><trkpt lat="43.5494827497361" lon="13.345955534318533"><ele>96.25</ele><time>2026-04-26T14:06:31.999Z</time></trkpt><trkpt lat="43.54960725282693" lon="13.345948886877238"><ele>95.5</ele><time>2026-04-26T14:06:32.999Z</time></trkpt><trkpt lat="43.54973137174059" lon="13.345945309114462"><ele>94.75</ele><time>2026-04-26T14:06:33.999Z</time></trkpt><trkpt lat="43.54984910754771" lon="13.345944286633125"><ele>94.0</ele><time>2026-04-26T14:06:34.999Z</time></trkpt><trkpt lat="43.54995828713347" lon="13.345942235582942"><ele>94.0</ele><time>2026-04-26T14:06:35.999Z</time></trkpt><trkpt lat="43.5500622381075" lon="13.34593690930124"><ele>94.0</ele><time>2026-04-26T14:06:36.999Z</time></trkpt><trkpt lat="43.550159206225665" lon="13.345932218898076"><ele>94.0</ele><time>2026-04-26T14:06:37.999Z</time></trkpt><trkpt lat="43.550256247553676" lon="13.34592381580279"><ele>94.0</ele><time>2026-04-26T14:06:38.999Z</time></trkpt><trkpt lat="43.55035589856321" lon="13.345912690117054"><ele>94.0</ele><time>2026-04-26T14:06:39.999Z</time></trkpt><trkpt lat="43.550455776895454" lon="13.345897078494463"><ele>93.2</ele><time>2026-04-26T14:06:40.999Z</time></trkpt><trkpt lat="43.55055690861682" lon="13.345886500218294"><ele>92.4</ele><time>2026-04-26T14:06:41.999Z</time></trkpt><trkpt lat="43.55066419141571" lon="13.34589984982855"><ele>91.6</ele><time>2026-04-26T14:06:42.999Z</time></trkpt><trkpt lat="43.55077345037091" lon="13.345892912756316"><ele>90.8</ele><time>2026-04-26T14:06:43.999Z</time></trkpt><trkpt lat="43.550884225632394" lon="13.3458667569956"><ele>90.0</ele><time>2026-04-26T14:06:44.999Z</time></trkpt><trkpt lat="43.550998071478084" lon="13.345866703001208"><ele>90.0</ele><time>2026-04-26T14:06:45.999Z</time></trkpt><trkpt lat="43.55111267094614" lon="13.345863517886714"><ele>90.0</ele><time>2026-04-26T14:06:46.999Z</time></trkpt><trkpt lat="43.551227835019425" lon="13.345859447439349"><ele>90.0</ele><time>2026-04-26T14:06:47.999Z</time></trkpt><trkpt lat="43.55134223450163" lon="13.345854977451458"><ele>90.0</ele><time>2026-04-26T14:06:48.999Z</time></trkpt><trkpt lat="43.55145283863919" lon="13.345847106369026"><ele>88.4</ele><time>2026-04-26T14:06:49.999Z</time></trkpt><trkpt lat="43.55156279263965" lon="13.345841239403535"><ele>86.8</ele><time>2026-04-26T14:06:50.999Z</time></trkpt><trkpt lat="43.55166915234007" lon="13.345837865180986"><ele>85.19999999999999</ele><time>2026-04-26T14:06:51.999Z</time></trkpt><trkpt lat="43.551775942537" lon="13.345833515451561"><ele>83.6</ele><time>2026-04-26T14:06:52.999Z</time></trkpt><trkpt lat="43.55187877110323" lon="13.345826635882458"><ele>82.0</ele><time>2026-04-26T14:06:53.999Z</time></trkpt><trkpt lat="43.55198290254824" lon="13.34581823454471"><ele>80.6</ele><time>2026-04-26T14:06:54.999Z</time></trkpt><trkpt lat="43.552084030048405" lon="13.345809560504911"><ele>79.19999999999999</ele><time>2026-04-26T14:06:55.999Z</time></trkpt><trkpt lat="43.55218313469418" lon="13.345804069943739"><ele>77.8</ele><time>2026-04-26T14:06:56.999Z</time></trkpt><trkpt lat="43.55227794237471" lon="13.345797961668858"><ele>76.4</ele><time>2026-04-26T14:06:57.999Z</time></trkpt><trkpt lat="43.552362808820426" lon="13.345793428661343"><ele>75.0</ele><time>2026-04-26T14:06:58.999Z</time></trkpt><trkpt lat="43.55248051205121" lon="13.345788151155242"><ele>75.0</ele><time>2026-04-26T14:07:00.998Z</time></trkpt><trkpt lat="43.55259237520423" lon="13.345796777845624"><ele>75.0</ele><time>2026-04-26T14:07:02.998Z</time></trkpt><trkpt lat="43.552690233137774" lon="13.345851342936998"><ele>75.0</ele><time>2026-04-26T14:07:04.998Z</time></trkpt><trkpt lat="43.55274033683397" lon="13.345909150757311"><ele>75.0</ele><time>2026-04-26T14:07:05.998Z</time></trkpt><trkpt lat="43.55279560606831" lon="13.345989611798794"><ele>75.0</ele><time>2026-04-26T14:07:06.998Z</time></trkpt><trkpt lat="43.552846146854165" lon="13.346079655142509"><ele>75.0</ele><time>2026-04-26T14:07:07.998Z</time></trkpt><trkpt lat="43.55288797409469" lon="13.346173410538311"><ele>73.0</ele><time>2026-04-26T14:07:08.998Z</time></trkpt><trkpt lat="43.55292773980389" lon="13.346267236979658"><ele>71.0</ele><time>2026-04-26T14:07:09.998Z</time></trkpt><trkpt lat="43.552966038240264" lon="13.346368075773789"><ele>69.0</ele><time>2026-04-26T14:07:10.998Z</time></trkpt><trkpt lat="43.55300656048684" lon="13.346472016785198"><ele>67.0</ele><time>2026-04-26T14:07:11.998Z</time></trkpt><trkpt lat="43.55304403483312" lon="13.346579088461535"><ele>65.0</ele><time>2026-04-26T14:07:12.998Z</time></trkpt><trkpt lat="43.5530724991063" lon="13.346689299126366"><ele>63.0</ele><time>2026-04-26T14:07:13.998Z</time></trkpt><trkpt lat="43.553086699986274" lon="13.346806116053871"><ele>62.333333333333336</ele><time>2026-04-26T14:07:14.998Z</time></trkpt><trkpt lat="43.55308900446929" lon="13.346922141837446"><ele>61.66666666666667</ele><time>2026-04-26T14:07:16Z</time></trkpt><trkpt lat="43.5530860621309" lon="13.347039472313059"><ele>61.0</ele><time>2026-04-26T14:07:17Z</time></trkpt><trkpt lat="43.55308864228816" lon="13.347155468160267"><ele>60.333333333333336</ele><time>2026-04-26T14:07:18Z</time></trkpt><trkpt lat="43.553101277941" lon="13.347279019876067"><ele>59.66666666666667</ele><time>2026-04-26T14:07:19Z</time></trkpt><trkpt lat="43.55312628778579" lon="13.34740513518935"><ele>59.0</ele><time>2026-04-26T14:07:20Z</time></trkpt><trkpt lat="43.55315929382113" lon="13.347529637236443"><ele>58.00000000000001</ele><time>2026-04-26T14:07:21Z</time></trkpt><trkpt lat="43.55319668955007" lon="13.347653685652867"><ele>57.0</ele><time>2026-04-26T14:07:22Z</time></trkpt><trkpt lat="43.55323758331994" lon="13.347775322828214"><ele>56.0</ele><time>2026-04-26T14:07:23Z</time></trkpt><trkpt lat="43.55327825501357" lon="13.347891183618366"><ele>55.0</ele><time>2026-04-26T14:07:24Z</time></trkpt><trkpt lat="43.553317458983294" lon="13.347993993105145"><ele>54.00000000000001</ele><time>2026-04-26T14:07:25Z</time></trkpt><trkpt lat="43.553352099001" lon="13.348073522906756"><ele>53.0</ele><time>2026-04-26T14:07:26Z</time></trkpt><trkpt lat="43.55338722503463" lon="13.348157179865796"><ele>53.0</ele><time>2026-04-26T14:07:28Z</time></trkpt><trkpt lat="43.55344750141583" lon="13.348227384171452"><ele>53.0</ele><time>2026-04-26T14:07:37Z</time></trkpt><trkpt lat="43.55354007071745" lon="13.348173936317844"><ele>53.0</ele><time>2026-04-26T14:07:39Z</time></trkpt><trkpt lat="43.55359919829661" lon="13.348063313348817"><ele>53.0</ele><time>2026-04-26T14:07:40Z</time></trkpt><trkpt lat="43.55365677227768" lon="13.347967479169457"><ele>53.0</ele><time>2026-04-26T14:07:41Z</time></trkpt><trkpt lat="43.553731160802094" lon="13.347847237493696"><ele>51.4</ele><time>2026-04-26T14:07:42Z</time></trkpt><trkpt lat="43.55381154920052" lon="13.347715101783818"><ele>49.8</ele><time>2026-04-26T14:07:43Z</time></trkpt><trkpt lat="43.55388498589781" lon="13.347588830390297"><ele>48.2</ele><time>2026-04-26T14:07:44Z</time></trkpt><trkpt lat="43.55395172305098" lon="13.34747567871566"><ele>46.6</ele><time>2026-04-26T14:07:45Z</time></trkpt><trkpt lat="43.55401271653388" lon="13.3473713151607"><ele>45.0</ele><time>2026-04-26T14:07:46Z</time></trkpt><trkpt lat="43.55407342453303" lon="13.34727009497734"><ele>45.2</ele><time>2026-04-26T14:07:47Z</time></trkpt><trkpt lat="43.554142173059105" lon="13.347161777714906"><ele>45.4</ele><time>2026-04-26T14:07:48Z</time></trkpt><trkpt lat="43.55421533750149" lon="13.347051036217497"><ele>45.599999999999994</ele><time>2026-04-26T14:07:49Z</time></trkpt><trkpt lat="43.554282825261744" lon="13.346949754437352"><ele>45.8</ele><time>2026-04-26T14:07:50Z</time></trkpt><trkpt lat="43.5543439425154" lon="13.346852771883839"><ele>46.0</ele><time>2026-04-26T14:07:51Z</time></trkpt><trkpt lat="43.554400375997865" lon="13.346759573730496"><ele>46.0</ele><time>2026-04-26T14:07:52Z</time></trkpt><trkpt lat="43.55444989134991" lon="13.346674479889034"><ele>46.0</ele><time>2026-04-26T14:07:53Z</time></trkpt><trkpt lat="43.554489419100676" lon="13.346597095232264"><ele>46.0</ele><time>2026-04-26T14:07:54Z</time></trkpt><trkpt lat="43.554564150233574" lon="13.346513990634593"><ele>46.0</ele><time>2026-04-26T14:07:56Z</time></trkpt><trkpt lat="43.554615064218915" lon="13.346652042844836"><ele>46.0</ele><time>2026-04-26T14:07:58.999Z</time></trkpt><trkpt lat="43.55464068694698" lon="13.346742629646405"><ele>46.0</ele><time>2026-04-26T14:07:59.999Z</time></trkpt><trkpt lat="43.55465538290604" lon="13.346856121002377"><ele>44.4</ele><time>2026-04-26T14:08:00.999Z</time></trkpt><trkpt lat="43.55467274073907" lon="13.346975656108585"><ele>42.8</ele><time>2026-04-26T14:08:01.999Z</time></trkpt><trkpt lat="43.55469808433885" lon="13.347110201318943"><ele>41.199999999999996</ele><time>2026-04-26T14:08:02.999Z</time></trkpt><trkpt lat="43.554725112603656" lon="13.347258541108276"><ele>39.599999999999994</ele><time>2026-04-26T14:08:03.999Z</time></trkpt><trkpt lat="43.554754949244376" lon="13.347415740880981"><ele>38.0</ele><time>2026-04-26T14:08:04.999Z</time></trkpt><trkpt lat="43.554801070016744" lon="13.347572564914058"><ele>38.0</ele><time>2026-04-26T14:08:05.999Z</time></trkpt><trkpt lat="43.554852224353255" lon="13.347732279972874"><ele>38.0</ele><time>2026-04-26T14:08:06.999Z</time></trkpt><trkpt lat="43.55495731125568" lon="13.347852689989127"><ele>38.0</ele><time>2026-04-26T14:08:07.999Z</time></trkpt><trkpt lat="43.555057311601686" lon="13.347975591124593"><ele>38.0</ele><time>2026-04-26T14:08:08.999Z</time></trkpt><trkpt lat="43.55516457725232" lon="13.348095914182148"><ele>37.5</ele><time>2026-04-26T14:08:09.999Z</time></trkpt><trkpt lat="43.55526923201212" lon="13.348223408253771"><ele>37.0</ele><time>2026-04-26T14:08:10.999Z</time></trkpt><trkpt lat="43.555357657306466" lon="13.348364837771816"><ele>36.5</ele><time>2026-04-26T14:08:11.999Z</time></trkpt><trkpt lat="43.555422683041726" lon="13.348508877711723"><ele>36.0</ele><time>2026-04-26T14:08:12.999Z</time></trkpt><trkpt lat="43.55546874708989" lon="13.348653575262913"><ele>35.4</ele><time>2026-04-26T14:08:13.999Z</time></trkpt><trkpt lat="43.55551895669474" lon="13.348787712040954"><ele>34.8</ele><time>2026-04-26T14:08:14.999Z</time></trkpt><trkpt lat="43.55558441253558" lon="13.348891426171374"><ele>34.199999999999996</ele><time>2026-04-26T14:08:15.999Z</time></trkpt><trkpt lat="43.5556696247178" lon="13.34895868260565"><ele>33.6</ele><time>2026-04-26T14:08:16.999Z</time></trkpt><trkpt lat="43.55576575684079" lon="13.349017292721307"><ele>33.0</ele><time>2026-04-26T14:08:17.999Z</time></trkpt><trkpt lat="43.555868271263755" lon="13.349081379744485"><ele>33.0</ele><time>2026-04-26T14:08:18.999Z</time></trkpt><trkpt lat="43.55597666600229" lon="13.349154786530795"><ele>33.0</ele><time>2026-04-26T14:08:19.999Z</time></trkpt><trkpt lat="43.556081320019835" lon="13.349230390609973"><ele>33.0</ele><time>2026-04-26T14:08:20.999Z</time></trkpt><trkpt lat="43.55618006241284" lon="13.349300774253123"><ele>33.0</ele><time>2026-04-26T14:08:21.999Z</time></trkpt><trkpt lat="43.55627092284563" lon="13.349357630075884"><ele>33.166666666666664</ele><time>2026-04-26T14:08:22.999Z</time></trkpt><trkpt lat="43.55635004491419" lon="13.349406659261811"><ele>33.333333333333336</ele><time>2026-04-26T14:08:23.999Z</time></trkpt><trkpt lat="43.55640512015595" lon="13.349467445702674"><ele>33.5</ele><time>2026-04-26T14:08:24.999Z</time></trkpt><trkpt lat="43.556461188828386" lon="13.349509211549496"><ele>33.66666666666667</ele><time>2026-04-26T14:08:25.999Z</time></trkpt><trkpt lat="43.55656980050004" lon="13.349555061089328"><ele>33.833333333333336</ele><time>2026-04-26T14:08:27.999Z</time></trkpt><trkpt lat="43.55665549394584" lon="13.349642848624963"><ele>34.0</ele><time>2026-04-26T14:08:29.999Z</time></trkpt><trkpt lat="43.55669912667379" lon="13.349707883623458"><ele>34.333333333333336</ele><time>2026-04-26T14:08:30.999Z</time></trkpt><trkpt lat="43.55673639028561" lon="13.34979467701143"><ele>34.66666666666667</ele><time>2026-04-26T14:08:31.999Z</time></trkpt><trkpt lat="43.556751683479796" lon="13.349893303595028"><ele>35.0</ele><time>2026-04-26T14:08:32.999Z</time></trkpt><trkpt lat="43.5567532219347" lon="13.349998463360548"><ele>35.333333333333336</ele><time>2026-04-26T14:08:33.999Z</time></trkpt><trkpt lat="43.55674859593187" lon="13.350108521933667"><ele>35.666666666666664</ele><time>2026-04-26T14:08:34.999Z</time></trkpt><trkpt lat="43.556738225253554" lon="13.350224572678819"><ele>36.0</ele><time>2026-04-26T14:08:35.999Z</time></trkpt><trkpt lat="43.556716972262635" lon="13.350339012533738"><ele>36.0</ele><time>2026-04-26T14:08:36.999Z</time></trkpt><trkpt lat="43.55667608770731" lon="13.35042312225109"><ele>36.0</ele><time>2026-04-26T14:08:37.999Z</time></trkpt><trkpt lat="43.55661741817223" lon="13.350474114168165"><ele>36.0</ele><time>2026-04-26T14:08:38.999Z</time></trkpt><trkpt lat="43.556540638933214" lon="13.350473404046962"><ele>36.0</ele><time>2026-04-26T14:08:39.999Z</time></trkpt><trkpt lat="43.556472868684494" lon="13.350522331787399"><ele>36.0</ele><time>2026-04-26T14:08:40.999Z</time></trkpt><trkpt lat="43.55640148741483" lon="13.350566059042494"><ele>36.0</ele><time>2026-04-26T14:08:41.999Z</time></trkpt><trkpt lat="43.55631872982533" lon="13.350631112191614"><ele>35.75</ele><time>2026-04-26T14:08:42.999Z</time></trkpt><trkpt lat="43.5562240322902" lon="13.350710828472122"><ele>35.5</ele><time>2026-04-26T14:08:43.999Z</time></trkpt><trkpt lat="43.55612397992114" lon="13.35080443598494"><ele>35.25</ele><time>2026-04-26T14:08:44.999Z</time></trkpt><trkpt lat="43.55601914811147" lon="13.350917789895563"><ele>35.0</ele><time>2026-04-26T14:08:45.999Z</time></trkpt><trkpt lat="43.55591980257865" lon="13.351039674118146"><ele>35.0</ele><time>2026-04-26T14:08:46.999Z</time></trkpt><trkpt lat="43.55582015030917" lon="13.35116991280701"><ele>35.0</ele><time>2026-04-26T14:08:47.999Z</time></trkpt><trkpt lat="43.55572300947978" lon="13.351297916846454"><ele>35.0</ele><time>2026-04-26T14:08:48.999Z</time></trkpt><trkpt lat="43.55563157822599" lon="13.351420516576194"><ele>35.0</ele><time>2026-04-26T14:08:49.999Z</time></trkpt><trkpt lat="43.55554644293781" lon="13.351541322221053"><ele>35.5</ele><time>2026-04-26T14:08:50.999Z</time></trkpt><trkpt lat="43.5554617205502" lon="13.351660271496673"><ele>36.0</ele><time>2026-04-26T14:08:51.999Z</time></trkpt><trkpt lat="43.555363445172716" lon="13.351766471354066"><ele>36.5</ele><time>2026-04-26T14:08:52.999Z</time></trkpt><trkpt lat="43.555275795649294" lon="13.35189108590617"><ele>37.0</ele><time>2026-04-26T14:08:53.999Z</time></trkpt><trkpt lat="43.5552029598334" lon="13.352029470534728"><ele>37.0</ele><time>2026-04-26T14:08:54.998Z</time></trkpt><trkpt lat="43.55513069114547" lon="13.3521435389028"><ele>37.0</ele><time>2026-04-26T14:08:55.998Z</time></trkpt><trkpt lat="43.555088216691836" lon="13.35223273315912"><ele>37.0</ele><time>2026-04-26T14:08:56.998Z</time></trkpt><trkpt lat="43.555023681903336" lon="13.3523461379969"><ele>37.0</ele><time>2026-04-26T14:08:58.998Z</time></trkpt><trkpt lat="43.55515183872691" lon="13.352548690533872"><ele>37.6</ele><time>2026-04-26T14:09:00.998Z</time></trkpt><trkpt lat="43.55520873362403" lon="13.35263425980994"><ele>38.2</ele><time>2026-04-26T14:09:01.998Z</time></trkpt><trkpt lat="43.555272985796215" lon="13.352736724417644"><ele>38.8</ele><time>2026-04-26T14:09:02.998Z</time></trkpt><trkpt lat="43.55534470772078" lon="13.352853520809951"><ele>39.4</ele><time>2026-04-26T14:09:03.998Z</time></trkpt><trkpt lat="43.555416875617205" lon="13.352982775466971"><ele>40.0</ele><time>2026-04-26T14:09:04.998Z</time></trkpt><trkpt lat="43.55549775535106" lon="13.353121736367067"><ele>42.66666666666667</ele><time>2026-04-26T14:09:05.998Z</time></trkpt><trkpt lat="43.55559208374999" lon="13.353279667840908"><ele>45.333333333333336</ele><time>2026-04-26T14:09:06.998Z</time></trkpt><trkpt lat="43.5556947685166" lon="13.35345679005671"><ele>48.0</ele><time>2026-04-26T14:09:07.998Z</time></trkpt><trkpt lat="43.55579505018105" lon="13.353631660360119"><ele>48.0</ele><time>2026-04-26T14:09:08.998Z</time></trkpt><trkpt lat="43.555899439736194" lon="13.353821735913561"><ele>48.0</ele><time>2026-04-26T14:09:09.998Z</time></trkpt><trkpt lat="43.556011221019844" lon="13.354027560812474"><ele>48.0</ele><time>2026-04-26T14:09:10.998Z</time></trkpt><trkpt lat="43.55612558460918" lon="13.354244470010102"><ele>52.33333333333333</ele><time>2026-04-26T14:09:11.998Z</time></trkpt><trkpt lat="43.556234304338545" lon="13.354469668369871"><ele>56.666666666666664</ele><time>2026-04-26T14:09:12.998Z</time></trkpt><trkpt lat="43.55632683583079" lon="13.35468057956338"><ele>61.0</ele><time>2026-04-26T14:09:13.998Z</time></trkpt><trkpt lat="43.556417903897845" lon="13.354868315607867"><ele>63.75</ele><time>2026-04-26T14:09:14.998Z</time></trkpt><trkpt lat="43.55650453149574" lon="13.355034529365804"><ele>66.5</ele><time>2026-04-26T14:09:15.998Z</time></trkpt><trkpt lat="43.55658971384557" lon="13.355197501940305"><ele>69.25</ele><time>2026-04-26T14:09:16.998Z</time></trkpt><trkpt lat="43.55668140007826" lon="13.355361939864755"><ele>72.0</ele><time>2026-04-26T14:09:17.998Z</time></trkpt><trkpt lat="43.55678250401179" lon="13.355518753890577"><ele>74.33333333333333</ele><time>2026-04-26T14:09:18.998Z</time></trkpt><trkpt lat="43.55689716386664" lon="13.355677328274254"><ele>76.66666666666666</ele><time>2026-04-26T14:09:19.998Z</time></trkpt><trkpt lat="43.55702588409476" lon="13.355845834056753"><ele>79.0</ele><time>2026-04-26T14:09:20.998Z</time></trkpt><trkpt lat="43.55716305202472" lon="13.356019170090692"><ele>80.66666666666666</ele><time>2026-04-26T14:09:22Z</time></trkpt><trkpt lat="43.55729558271577" lon="13.356183342061739"><ele>82.33333333333333</ele><time>2026-04-26T14:09:23Z</time></trkpt><trkpt lat="43.557424469746735" lon="13.356337644777208"><ele>84.0</ele><time>2026-04-26T14:09:24Z</time></trkpt><trkpt lat="43.55755367211334" lon="13.356468581325188"><ele>87.33333333333333</ele><time>2026-04-26T14:09:25Z</time></trkpt><trkpt lat="43.55768984598749" lon="13.35658138691567"><ele>90.66666666666666</ele><time>2026-04-26T14:09:26Z</time></trkpt><trkpt lat="43.55782880584413" lon="13.356682424973409"><ele>94.0</ele><time>2026-04-26T14:09:27Z</time></trkpt><trkpt lat="43.55796913139989" lon="13.356785548753477"><ele>94.25</ele><time>2026-04-26T14:09:28Z</time></trkpt><trkpt lat="43.5580984626421" lon="13.356894408736165"><ele>94.5</ele><time>2026-04-26T14:09:29Z</time></trkpt><trkpt lat="43.55822311814998" lon="13.356998573129605"><ele>94.75</ele><time>2026-04-26T14:09:30Z</time></trkpt><trkpt lat="43.558347102528586" lon="13.357087932473434"><ele>95.0</ele><time>2026-04-26T14:09:31Z</time></trkpt><trkpt lat="43.55845658072485" lon="13.35717072538061"><ele>95.8</ele><time>2026-04-26T14:09:32Z</time></trkpt><trkpt lat="43.55855664096458" lon="13.357251474884961"><ele>96.6</ele><time>2026-04-26T14:09:33Z</time></trkpt><trkpt lat="43.55864625887183" lon="13.357319620401416"><ele>97.4</ele><time>2026-04-26T14:09:34Z</time></trkpt><trkpt lat="43.55873929965809" lon="13.357384056030416"><ele>98.2</ele><time>2026-04-26T14:09:35Z</time></trkpt><trkpt lat="43.55882829678216" lon="13.357441126604332"><ele>99.0</ele><time>2026-04-26T14:09:36Z</time></trkpt><trkpt lat="43.55892202263321" lon="13.357494024624298"><ele>99.0</ele><time>2026-04-26T14:09:37Z</time></trkpt><trkpt lat="43.559030832382284" lon="13.357546285537405"><ele>99.0</ele><time>2026-04-26T14:09:38Z</time></trkpt><trkpt lat="43.559147032492426" lon="13.357597331949925"><ele>99.0</ele><time>2026-04-26T14:09:39Z</time></trkpt><trkpt lat="43.559268628909315" lon="13.357653087701216"><ele>99.0</ele><time>2026-04-26T14:09:40Z</time></trkpt><trkpt lat="43.559396857462254" lon="13.357712378034362"><ele>99.0</ele><time>2026-04-26T14:09:41Z</time></trkpt><trkpt lat="43.5595263835216" lon="13.357785269162704"><ele>99.0</ele><time>2026-04-26T14:09:42Z</time></trkpt><trkpt lat="43.559656129615405" lon="13.357867660518867"><ele>99.0</ele><time>2026-04-26T14:09:43Z</time></trkpt><trkpt lat="43.55978665566467" lon="13.357955672417507"><ele>99.0</ele><time>2026-04-26T14:09:44Z</time></trkpt><trkpt lat="43.559924843212755" lon="13.3580427907874"><ele>97.66666666666667</ele><time>2026-04-26T14:09:45Z</time></trkpt><trkpt lat="43.5600635560781" lon="13.358138885286419"><ele>96.33333333333334</ele><time>2026-04-26T14:09:46Z</time></trkpt><trkpt lat="43.560202615798985" lon="13.358243427224599"><ele>95.0</ele><time>2026-04-26T14:09:47Z</time></trkpt><trkpt lat="43.56034176884751" lon="13.358349745911362"><ele>97.66666666666667</ele><time>2026-04-26T14:09:48Z</time></trkpt><trkpt lat="43.56048315481616" lon="13.358453837791826"><ele>100.33333333333334</ele><time>2026-04-26T14:09:49Z</time></trkpt><trkpt lat="43.560625154585836" lon="13.358560020658228"><ele>103.0</ele><time>2026-04-26T14:09:50Z</time></trkpt><trkpt lat="43.560771394465235" lon="13.358670141876441"><ele>103.0</ele><time>2026-04-26T14:09:51Z</time></trkpt><trkpt lat="43.56091887402183" lon="13.358779481220177"><ele>103.0</ele><time>2026-04-26T14:09:52Z</time></trkpt><trkpt lat="43.561069702179054" lon="13.358888788823055"><ele>103.0</ele><time>2026-04-26T14:09:53Z</time></trkpt><trkpt lat="43.561220739326544" lon="13.358995594187068"><ele>106.66666666666667</ele><time>2026-04-26T14:09:54Z</time></trkpt><trkpt lat="43.561365897599316" lon="13.35910010784549"><ele>110.33333333333334</ele><time>2026-04-26T14:09:55Z</time></trkpt><trkpt lat="43.56150392479073" lon="13.359198538421783"><ele>114.0</ele><time>2026-04-26T14:09:56Z</time></trkpt><trkpt lat="43.561639137770904" lon="13.359302610245614"><ele>114.0</ele><time>2026-04-26T14:09:57Z</time></trkpt><trkpt lat="43.56176574289674" lon="13.359396391956128"><ele>114.0</ele><time>2026-04-26T14:09:58Z</time></trkpt><trkpt lat="43.56189347424708" lon="13.359484824542744"><ele>114.0</ele><time>2026-04-26T14:09:59Z</time></trkpt><trkpt lat="43.562013627328945" lon="13.359572531987443"><ele>114.0</ele><time>2026-04-26T14:10:00Z</time></trkpt><trkpt lat="43.562115179248956" lon="13.35964791911963"><ele>117.0</ele><time>2026-04-26T14:10:01Z</time></trkpt><trkpt lat="43.56220243086345" lon="13.359712516182597"><ele>120.0</ele><time>2026-04-26T14:10:02Z</time></trkpt><trkpt lat="43.56228949761279" lon="13.359787975518168"><ele>123.0</ele><time>2026-04-26T14:10:03Z</time></trkpt><trkpt lat="43.562375674522336" lon="13.359887091995335"><ele>126.0</ele><time>2026-04-26T14:10:04Z</time></trkpt><trkpt lat="43.56245302386175" lon="13.360007335879736"><ele>129.0</ele><time>2026-04-26T14:10:05Z</time></trkpt><trkpt lat="43.562517525783704" lon="13.360140261036513"><ele>129.0</ele><time>2026-04-26T14:10:06Z</time></trkpt><trkpt lat="43.56258227462975" lon="13.360285558899195"><ele>129.0</ele><time>2026-04-26T14:10:06.999Z</time></trkpt><trkpt lat="43.562651459468626" lon="13.36044151183067"><ele>129.0</ele><time>2026-04-26T14:10:07.999Z</time></trkpt><trkpt lat="43.56271683021075" lon="13.360598893626355"><ele>129.0</ele><time>2026-04-26T14:10:08.999Z</time></trkpt><trkpt lat="43.56278413969405" lon="13.360754301810683"><ele>128.5</ele><time>2026-04-26T14:10:09.999Z</time></trkpt><trkpt lat="43.562855188439464" lon="13.360915541763335"><ele>128.0</ele><time>2026-04-26T14:10:10.999Z</time></trkpt><trkpt lat="43.562924866095024" lon="13.36107683941799"><ele>127.5</ele><time>2026-04-26T14:10:11.999Z</time></trkpt><trkpt lat="43.56299340284829" lon="13.361241666499765"><ele>127.0</ele><time>2026-04-26T14:10:12.999Z</time></trkpt><trkpt lat="43.56306472888289" lon="13.361419750071855"><ele>128.66666666666669</ele><time>2026-04-26T14:10:13.999Z</time></trkpt><trkpt lat="43.56313803683867" lon="13.361610605879044"><ele>130.33333333333334</ele><time>2026-04-26T14:10:14.999Z</time></trkpt><trkpt lat="43.56320998916517" lon="13.361804411879262"><ele>132.0</ele><time>2026-04-26T14:10:15.999Z</time></trkpt><trkpt lat="43.563279197995826" lon="13.361986682038795"><ele>132.0</ele><time>2026-04-26T14:10:16.999Z</time></trkpt><trkpt lat="43.563344478788025" lon="13.36214863395658"><ele>132.0</ele><time>2026-04-26T14:10:17.999Z</time></trkpt><trkpt lat="43.56341100705569" lon="13.36229443389467"><ele>132.0</ele><time>2026-04-26T14:10:18.999Z</time></trkpt><trkpt lat="43.563483170860394" lon="13.36243532417036"><ele>132.0</ele><time>2026-04-26T14:10:19.999Z</time></trkpt><trkpt lat="43.563567604806906" lon="13.36256634134291"><ele>132.0</ele><time>2026-04-26T14:10:20.999Z</time></trkpt><trkpt lat="43.56365568966027" lon="13.362697842864632"><ele>132.0</ele><time>2026-04-26T14:10:21.999Z</time></trkpt><trkpt lat="43.56374106908193" lon="13.362838577124265"><ele>132.0</ele><time>2026-04-26T14:10:22.999Z</time></trkpt><trkpt lat="43.56383168370569" lon="13.36298851779205"><ele>132.0</ele><time>2026-04-26T14:10:23.999Z</time></trkpt><trkpt lat="43.563918270566624" lon="13.363139219819093"><ele>132.0</ele><time>2026-04-26T14:10:24.999Z</time></trkpt><trkpt lat="43.56400461328406" lon="13.363287782941155"><ele>132.0</ele><time>2026-04-26T14:10:25.999Z</time></trkpt><trkpt lat="43.56409219968372" lon="13.36343030323545"><ele>132.0</ele><time>2026-04-26T14:10:26.999Z</time></trkpt><trkpt lat="43.56418328873805" lon="13.363562467901275"><ele>132.0</ele><time>2026-04-26T14:10:27.999Z</time></trkpt><trkpt lat="43.5642874601642" lon="13.363671506934907"><ele>132.0</ele><time>2026-04-26T14:10:28.999Z</time></trkpt><trkpt lat="43.56439725893627" lon="13.363768971922939"><ele>132.0</ele><time>2026-04-26T14:10:29.999Z</time></trkpt><trkpt lat="43.564505988041994" lon="13.363865102751525"><ele>132.0</ele><time>2026-04-26T14:10:30.999Z</time></trkpt><trkpt lat="43.56461950596726" lon="13.363959670273035"><ele>132.0</ele><time>2026-04-26T14:10:31.999Z</time></trkpt><trkpt lat="43.564729286213854" lon="13.364053847999944"><ele>132.0</ele><time>2026-04-26T14:10:32.999Z</time></trkpt><trkpt lat="43.56483887032231" lon="13.364154791891501"><ele>132.0</ele><time>2026-04-26T14:10:33.999Z</time></trkpt><trkpt lat="43.56494220300308" lon="13.364265722354311"><ele>132.0</ele><time>2026-04-26T14:10:34.999Z</time></trkpt><trkpt lat="43.56504363981721" lon="13.364381694827792"><ele>132.0</ele><time>2026-04-26T14:10:35.999Z</time></trkpt><trkpt lat="43.56514684655063" lon="13.364497369769394"><ele>132.0</ele><time>2026-04-26T14:10:36.999Z</time></trkpt><trkpt lat="43.5652505628806" lon="13.36461970688039"><ele>132.0</ele><time>2026-04-26T14:10:37.999Z</time></trkpt><trkpt lat="43.56536099115934" lon="13.364746041945631"><ele>132.0</ele><time>2026-04-26T14:10:38.999Z</time></trkpt><trkpt lat="43.565469314908526" lon="13.364876104458268"><ele>132.0</ele><time>2026-04-26T14:10:39.999Z</time></trkpt><trkpt lat="43.56557191710166" lon="13.365006156319598"><ele>131.25</ele><time>2026-04-26T14:10:40.999Z</time></trkpt><trkpt lat="43.56567160683397" lon="13.365131042607993"><ele>130.5</ele><time>2026-04-26T14:10:41.999Z</time></trkpt><trkpt lat="43.56576941998933" lon="13.36525658249842"><ele>129.75</ele><time>2026-04-26T14:10:42.999Z</time></trkpt><trkpt lat="43.565864904002744" lon="13.365375358996804"><ele>129.0</ele><time>2026-04-26T14:10:43.999Z</time></trkpt><trkpt lat="43.56596217876265" lon="13.365475658695184"><ele>129.0</ele><time>2026-04-26T14:10:44.999Z</time></trkpt><trkpt lat="43.566054384084566" lon="13.365538715534456"><ele>129.0</ele><time>2026-04-26T14:10:45.999Z</time></trkpt><trkpt lat="43.56612529072897" lon="13.365564615308672"><ele>129.0</ele><time>2026-04-26T14:10:46.999Z</time></trkpt><trkpt lat="43.5661868695811" lon="13.365615892404895"><ele>129.0</ele><time>2026-04-26T14:10:48.999Z</time></trkpt><trkpt lat="43.56623462776163" lon="13.365739117546774"><ele>129.0</ele><time>2026-04-26T14:10:50.999Z</time></trkpt><trkpt lat="43.566347304010804" lon="13.365752142157044"><ele>129.0</ele><time>2026-04-26T14:10:51.999Z</time></trkpt><trkpt lat="43.5664325383833" lon="13.365805354127884"><ele>129.0</ele><time>2026-04-26T14:10:52.999Z</time></trkpt><trkpt lat="43.56653288282731" lon="13.365862703201586"><ele>129.0</ele><time>2026-04-26T14:10:53.999Z</time></trkpt><trkpt lat="43.56663944674601" lon="13.365921951524903"><ele>129.0</ele><time>2026-04-26T14:10:54.999Z</time></trkpt><trkpt lat="43.56675647641526" lon="13.365984235008781"><ele>129.0</ele><time>2026-04-26T14:10:55.999Z</time></trkpt><trkpt lat="43.566884099839704" lon="13.36605537646938"><ele>129.0</ele><time>2026-04-26T14:10:56.999Z</time></trkpt><trkpt lat="43.56702516847181" lon="13.366126302281845"><ele>129.0</ele><time>2026-04-26T14:10:57.999Z</time></trkpt><trkpt lat="43.56716454443411" lon="13.366188216856314"><ele>129.0</ele><time>2026-04-26T14:10:58.999Z</time></trkpt><trkpt lat="43.56730009920144" lon="13.366224973189993"><ele>129.0</ele><time>2026-04-26T14:10:59.999Z</time></trkpt><trkpt lat="43.56744116864496" lon="13.366217459013301"><ele>130.0</ele><time>2026-04-26T14:11:00.999Z</time></trkpt><trkpt lat="43.567571982364974" lon="13.366170552669322"><ele>131.0</ele><time>2026-04-26T14:11:01.999Z</time></trkpt><trkpt lat="43.567688553919915" lon="13.366083035555715"><ele>132.0</ele><time>2026-04-26T14:11:02.999Z</time></trkpt><trkpt lat="43.567789503912" lon="13.365968492606951"><ele>133.0</ele><time>2026-04-26T14:11:03.998Z</time></trkpt><trkpt lat="43.56789509409862" lon="13.365849171237711"><ele>133.25</ele><time>2026-04-26T14:11:04.998Z</time></trkpt><trkpt lat="43.56801313529976" lon="13.365736430872737"><ele>133.5</ele><time>2026-04-26T14:11:05.998Z</time></trkpt><trkpt lat="43.56814567520999" lon="13.365658358476548"><ele>133.75</ele><time>2026-04-26T14:11:06.998Z</time></trkpt><trkpt lat="43.568256605523786" lon="13.365561108138458"><ele>134.0</ele><time>2026-04-26T14:11:07.998Z</time></trkpt><trkpt lat="43.56837510692215" lon="13.365499521759704"><ele>131.5</ele><time>2026-04-26T14:11:08.998Z</time></trkpt><trkpt lat="43.56849776385844" lon="13.36543743065141"><ele>129.0</ele><time>2026-04-26T14:11:09.998Z</time></trkpt><trkpt lat="43.56862736250673" lon="13.36537000968033"><ele>126.5</ele><time>2026-04-26T14:11:10.998Z</time></trkpt><trkpt lat="43.56875299485755" lon="13.365297392768188"><ele>124.0</ele><time>2026-04-26T14:11:11.998Z</time></trkpt><trkpt lat="43.5688759476742" lon="13.365210091997366"><ele>122.0</ele><time>2026-04-26T14:11:12.998Z</time></trkpt><trkpt lat="43.56899775790974" lon="13.36513390494632"><ele>120.0</ele><time>2026-04-26T14:11:13.998Z</time></trkpt><trkpt lat="43.569108126600334" lon="13.365043387102096"><ele>118.0</ele><time>2026-04-26T14:11:14.998Z</time></trkpt><trkpt lat="43.56921121491305" lon="13.36494388197853"><ele>116.0</ele><time>2026-04-26T14:11:15.998Z</time></trkpt><trkpt lat="43.56932605042648" lon="13.364899740850117"><ele>116.0</ele><time>2026-04-26T14:11:16.998Z</time></trkpt><trkpt lat="43.56944560880845" lon="13.36489754205575"><ele>116.0</ele><time>2026-04-26T14:11:17.998Z</time></trkpt><trkpt lat="43.569557228927515" lon="13.364951996685607"><ele>116.0</ele><time>2026-04-26T14:11:18.998Z</time></trkpt><trkpt lat="43.56964648586503" lon="13.365060813099337"><ele>116.0</ele><time>2026-04-26T14:11:19.998Z</time></trkpt><trkpt lat="43.56971829472469" lon="13.365191420560992"><ele>114.5</ele><time>2026-04-26T14:11:20.998Z</time></trkpt><trkpt lat="43.56979092021177" lon="13.365306001922477"><ele>113.0</ele><time>2026-04-26T14:11:21.998Z</time></trkpt><trkpt lat="43.56988366643144" lon="13.365377765029725"><ele>111.5</ele><time>2026-04-26T14:11:22.998Z</time></trkpt><trkpt lat="43.56999774084797" lon="13.365408267414763"><ele>110.0</ele><time>2026-04-26T14:11:23.998Z</time></trkpt><trkpt lat="43.570132489613336" lon="13.36540671014991"><ele>110.0</ele><time>2026-04-26T14:11:24.998Z</time></trkpt><trkpt lat="43.57026772850982" lon="13.365377024191279"><ele>110.0</ele><time>2026-04-26T14:11:25.998Z</time></trkpt><trkpt lat="43.57040913675336" lon="13.365336712888162"><ele>110.0</ele><time>2026-04-26T14:11:27Z</time></trkpt><trkpt lat="43.57055617286327" lon="13.3652960488522"><ele>110.0</ele><time>2026-04-26T14:11:28Z</time></trkpt><trkpt lat="43.57070915792819" lon="13.3652578704965"><ele>109.0</ele><time>2026-04-26T14:11:29Z</time></trkpt><trkpt lat="43.5708727317286" lon="13.36522274414028"><ele>108.0</ele><time>2026-04-26T14:11:30Z</time></trkpt><trkpt lat="43.571043131484615" lon="13.365186874301973"><ele>107.0</ele><time>2026-04-26T14:11:31Z</time></trkpt><trkpt lat="43.571212813801246" lon="13.365149423515184"><ele>106.66666666666666</ele><time>2026-04-26T14:11:32Z</time></trkpt><trkpt lat="43.57138275768785" lon="13.365111106930184"><ele>106.33333333333334</ele><time>2026-04-26T14:11:33Z</time></trkpt><trkpt lat="43.571559637936936" lon="13.365078748280588"><ele>106.0</ele><time>2026-04-26T14:11:34Z</time></trkpt><trkpt lat="43.57173835819719" lon="13.365048407989887"><ele>106.0</ele><time>2026-04-26T14:11:35Z</time></trkpt><trkpt lat="43.57191504877896" lon="13.365012095571553"><ele>106.0</ele><time>2026-04-26T14:11:36Z</time></trkpt><trkpt lat="43.57209021031735" lon="13.364968075878751"><ele>106.0</ele><time>2026-04-26T14:11:37Z</time></trkpt><trkpt lat="43.57226637494586" lon="13.364931378426277"><ele>105.75</ele><time>2026-04-26T14:11:38Z</time></trkpt><trkpt lat="43.572424035124584" lon="13.364901573643799"><ele>105.5</ele><time>2026-04-26T14:11:39Z</time></trkpt><trkpt lat="43.57256598029197" lon="13.364872704097852"><ele>105.25</ele><time>2026-04-26T14:11:40Z</time></trkpt><trkpt lat="43.57269854902314" lon="13.364846466589169"><ele>105.0</ele><time>2026-04-26T14:11:41Z</time></trkpt><trkpt lat="43.57282231668332" lon="13.364824078322885"><ele>105.83333333333333</ele><time>2026-04-26T14:11:42Z</time></trkpt><trkpt lat="43.5729264714478" lon="13.364802597899644"><ele>106.66666666666666</ele><time>2026-04-26T14:11:43Z</time></trkpt><trkpt lat="43.57301368890137" lon="13.364787184246767"><ele>107.5</ele><time>2026-04-26T14:11:44Z</time></trkpt><trkpt lat="43.57308257146443" lon="13.364768293756125"><ele>108.33333333333333</ele><time>2026-04-26T14:11:45Z</time></trkpt><trkpt lat="43.57316841908853" lon="13.364748398950526"><ele>109.16666666666666</ele><time>2026-04-26T14:11:47Z</time></trkpt><trkpt lat="43.57323150841088" lon="13.364799678166904"><ele>110.0</ele><time>2026-04-26T14:11:49Z</time></trkpt><trkpt lat="43.57332871910288" lon="13.364783349484668"><ele>110.0</ele><time>2026-04-26T14:11:51Z</time></trkpt><trkpt lat="43.57343664372012" lon="13.364758397128622"><ele>110.0</ele><time>2026-04-26T14:11:53Z</time></trkpt><trkpt lat="43.57353104407544" lon="13.36476814054242"><ele>110.0</ele><time>2026-04-26T14:11:55Z</time></trkpt><trkpt lat="43.57361538721997" lon="13.364832400283172"><ele>110.0</ele><time>2026-04-26T14:11:57Z</time></trkpt><trkpt lat="43.573703551112864" lon="13.364917631849691"><ele>110.0</ele><time>2026-04-26T14:11:59Z</time></trkpt><trkpt lat="43.5738094946487" lon="13.365023137748283"><ele>111.33333333333333</ele><time>2026-04-26T14:12:01Z</time></trkpt><trkpt lat="43.57387285379228" lon="13.365080751466882"><ele>112.66666666666666</ele><time>2026-04-26T14:12:02Z</time></trkpt><trkpt lat="43.57393564688154" lon="13.365147490343707"><ele>114.0</ele><time>2026-04-26T14:12:03Z</time></trkpt><trkpt lat="43.573997989172106" lon="13.365214395706248"><ele>115.33333333333334</ele><time>2026-04-26T14:12:04Z</time></trkpt><trkpt lat="43.57406185583723" lon="13.365273973449122"><ele>116.66666666666667</ele><time>2026-04-26T14:12:05Z</time></trkpt><trkpt lat="43.57412133606886" lon="13.36533097073488"><ele>118.0</ele><time>2026-04-26T14:12:06Z</time></trkpt><trkpt lat="43.574183421661424" lon="13.365386251138617"><ele>118.00000000000001</ele><time>2026-04-26T14:12:07Z</time></trkpt><trkpt lat="43.57424583829274" lon="13.365450649882577"><ele>118.0</ele><time>2026-04-26T14:12:08Z</time></trkpt><trkpt lat="43.57431099433439" lon="13.36551489118062"><ele>118.0</ele><time>2026-04-26T14:12:09Z</time></trkpt><trkpt lat="43.574373335341875" lon="13.36558245872535"><ele>118.0</ele><time>2026-04-26T14:12:10Z</time></trkpt><trkpt lat="43.57443695626132" lon="13.365649074768596"><ele>118.00000000000001</ele><time>2026-04-26T14:12:10.999Z</time></trkpt><trkpt lat="43.57450934609348" lon="13.365701761414924"><ele>118.0</ele><time>2026-04-26T14:12:11.999Z</time></trkpt><trkpt lat="43.57458776693718" lon="13.365751202315503"><ele>116.60000000000001</ele><time>2026-04-26T14:12:12.999Z</time></trkpt><trkpt lat="43.57465900450195" lon="13.365789619165025"><ele>115.20000000000002</ele><time>2026-04-26T14:12:13.999Z</time></trkpt><trkpt lat="43.57472638233765" lon="13.365823326549341"><ele>113.8</ele><time>2026-04-26T14:12:14.999Z</time></trkpt><trkpt lat="43.57482756203763" lon="13.365914870847062"><ele>112.4</ele><time>2026-04-26T14:12:16.999Z</time></trkpt><trkpt lat="43.574890052383466" lon="13.366025594338042"><ele>111.0</ele><time>2026-04-26T14:12:18.999Z</time></trkpt><trkpt lat="43.574955380782235" lon="13.366146048317958"><ele>111.0</ele><time>2026-04-26T14:12:20.999Z</time></trkpt><trkpt lat="43.574999261600844" lon="13.366209218507088"><ele>111.0</ele><time>2026-04-26T14:12:21.999Z</time></trkpt><trkpt lat="43.575085804844825" lon="13.366335582235584"><ele>111.0</ele><time>2026-04-26T14:12:23.999Z</time></trkpt><trkpt lat="43.575137132369896" lon="13.366386531265634"><ele>111.0</ele><time>2026-04-26T14:12:24.999Z</time></trkpt><trkpt lat="43.575193949338505" lon="13.36643015675696"><ele>111.0</ele><time>2026-04-26T14:12:25.999Z</time></trkpt><trkpt lat="43.575292788733115" lon="13.366530240197756"><ele>111.0</ele><time>2026-04-26T14:12:27.999Z</time></trkpt><trkpt lat="43.57538880816796" lon="13.366628725828983"><ele>109.71428571428571</ele><time>2026-04-26T14:12:29.999Z</time></trkpt><trkpt lat="43.57543517293157" lon="13.366699873498629"><ele>108.42857142857143</ele><time>2026-04-26T14:12:30.999Z</time></trkpt><trkpt lat="43.5754759142785" lon="13.366773635707558"><ele>107.14285714285714</ele><time>2026-04-26T14:12:31.999Z</time></trkpt><trkpt lat="43.57551267627142" lon="13.366857633642557"><ele>105.85714285714286</ele><time>2026-04-26T14:12:32.999Z</time></trkpt><trkpt lat="43.57554057967329" lon="13.366949026117682"><ele>104.57142857142858</ele><time>2026-04-26T14:12:33.999Z</time></trkpt><trkpt lat="43.575557915848215" lon="13.36704978472483"><ele>103.28571428571429</ele><time>2026-04-26T14:12:34.999Z</time></trkpt><trkpt lat="43.57557927616553" lon="13.367158101420248"><ele>102.0</ele><time>2026-04-26T14:12:35.999Z</time></trkpt><trkpt lat="43.575594023152554" lon="13.367273124152195"><ele>102.0</ele><time>2026-04-26T14:12:36.999Z</time></trkpt><trkpt lat="43.5756174843657" lon="13.367394845703325"><ele>102.0</ele><time>2026-04-26T14:12:37.999Z</time></trkpt><trkpt lat="43.57564079240835" lon="13.36751679361334"><ele>102.0</ele><time>2026-04-26T14:12:38.999Z</time></trkpt><trkpt lat="43.57566600073055" lon="13.367633807910137"><ele>102.0</ele><time>2026-04-26T14:12:39.999Z</time></trkpt><trkpt lat="43.57568253545152" lon="13.367738942043735"><ele>102.0</ele><time>2026-04-26T14:12:40.999Z</time></trkpt><trkpt lat="43.57569999390264" lon="13.367833511586278"><ele>102.0</ele><time>2026-04-26T14:12:41.999Z</time></trkpt><trkpt lat="43.57572074621956" lon="13.367977675839976"><ele>102.0</ele><time>2026-04-26T14:12:43.999Z</time></trkpt><trkpt lat="43.575719332111554" lon="13.368093872923726"><ele>102.0</ele><time>2026-04-26T14:12:46.999Z</time></trkpt><trkpt lat="43.57574062792284" lon="13.368201813858407"><ele>102.0</ele><time>2026-04-26T14:12:51.999Z</time></trkpt><trkpt lat="43.57571657199083" lon="13.368107241296338"><ele>102.0</ele><time>2026-04-26T14:13:08.998Z</time></trkpt><trkpt lat="43.575709307488225" lon="13.368017077203698"><ele>102.0</ele><time>2026-04-26T14:13:10.998Z</time></trkpt><trkpt lat="43.57571573105509" lon="13.367901131015111"><ele>102.0</ele><time>2026-04-26T14:13:13.998Z</time></trkpt><trkpt lat="43.57568657251759" lon="13.36781640347929"><ele>102.0</ele><time>2026-04-26T14:13:17.998Z</time></trkpt><trkpt lat="43.57588025047342" lon="13.367832205049249"><ele>102.0</ele><time>2026-04-26T14:13:22.998Z</time></trkpt><trkpt lat="43.57595160964173" lon="13.367850248906786"><ele>102.0</ele><time>2026-04-26T14:13:24.998Z</time></trkpt><trkpt lat="43.57601731040261" lon="13.367906986755376"><ele>102.0</ele><time>2026-04-26T14:13:26.998Z</time></trkpt><trkpt lat="43.57605093896258" lon="13.368031974852483"><ele>102.0</ele><time>2026-04-26T14:13:28.998Z</time></trkpt><trkpt lat="43.57606754124483" lon="13.368197902940416"><ele>103.0</ele><time>2026-04-26T14:13:30.998Z</time></trkpt><trkpt lat="43.576066460104244" lon="13.368374401623608"><ele>104.0</ele><time>2026-04-26T14:13:33Z</time></trkpt><trkpt lat="43.57606460333753" lon="13.368545006607215"><ele>105.0</ele><time>2026-04-26T14:13:35Z</time></trkpt><trkpt lat="43.576057291350764" lon="13.368706985473475"><ele>106.0</ele><time>2026-04-26T14:13:37Z</time></trkpt><trkpt lat="43.5760499639628" lon="13.3688566735919"><ele>104.0</ele><time>2026-04-26T14:13:39Z</time></trkpt><trkpt lat="43.57604174567677" lon="13.368994135004938"><ele>102.0</ele><time>2026-04-26T14:13:41Z</time></trkpt><trkpt lat="43.57603008060445" lon="13.369123279081654"><ele>100.0</ele><time>2026-04-26T14:13:43Z</time></trkpt><trkpt lat="43.57600197392276" lon="13.36926401716578"><ele>98.0</ele><time>2026-04-26T14:13:45Z</time></trkpt><trkpt lat="43.57593155302504" lon="13.369385643759465"><ele>96.0</ele><time>2026-04-26T14:13:47Z</time></trkpt><trkpt lat="43.5758600051968" lon="13.369527991051596"><ele>96.0</ele><time>2026-04-26T14:13:49Z</time></trkpt><trkpt lat="43.57581191463417" lon="13.369592466127001"><ele>96.0</ele><time>2026-04-26T14:13:50Z</time></trkpt><trkpt lat="43.57575215771608" lon="13.369636999930853"><ele>96.0</ele><time>2026-04-26T14:13:51Z</time></trkpt><trkpt lat="43.575709025410795" lon="13.369704830671907"><ele>96.0</ele><time>2026-04-26T14:13:52Z</time></trkpt><trkpt lat="43.575660235585715" lon="13.36976184753203"><ele>96.0</ele><time>2026-04-26T14:13:53Z</time></trkpt><trkpt lat="43.57556756749548" lon="13.369859944758328"><ele>96.0</ele><time>2026-04-26T14:13:55Z</time></trkpt><trkpt lat="43.57547797690911" lon="13.369947350585479"><ele>93.4</ele><time>2026-04-26T14:13:57Z</time></trkpt><trkpt lat="43.57538553202458" lon="13.370039228832338"><ele>90.8</ele><time>2026-04-26T14:13:59Z</time></trkpt><trkpt lat="43.575288551752294" lon="13.370127586996896"><ele>88.2</ele><time>2026-04-26T14:14:01Z</time></trkpt><trkpt lat="43.575186952953246" lon="13.370218636493934"><ele>85.60000000000001</ele><time>2026-04-26T14:14:03Z</time></trkpt><trkpt lat="43.57513277660881" lon="13.370268581578921"><ele>83.0</ele><time>2026-04-26T14:14:04Z</time></trkpt><trkpt lat="43.575076947438625" lon="13.370315395885651"><ele>81.60000000000001</ele><time>2026-04-26T14:14:05Z</time></trkpt><trkpt lat="43.57502305518803" lon="13.370362878213651"><ele>80.2</ele><time>2026-04-26T14:14:06Z</time></trkpt><trkpt lat="43.574918443820636" lon="13.370438519151541"><ele>78.8</ele><time>2026-04-26T14:14:08Z</time></trkpt><trkpt lat="43.57483681449969" lon="13.370535925931286"><ele>77.4</ele><time>2026-04-26T14:14:10Z</time></trkpt><trkpt lat="43.57475368687217" lon="13.370606260684923"><ele>76.0</ele><time>2026-04-26T14:14:12Z</time></trkpt><trkpt lat="43.574692349858076" lon="13.370662130710219"><ele>75.0</ele><time>2026-04-26T14:14:14Z</time></trkpt><trkpt lat="43.57463099100824" lon="13.370730495019144"><ele>74.0</ele><time>2026-04-26T14:14:16.999Z</time></trkpt><trkpt lat="43.5745894624014" lon="13.370827524680323"><ele>73.0</ele><time>2026-04-26T14:14:19.999Z</time></trkpt><trkpt lat="43.57456751588868" lon="13.370938259963953"><ele>72.0</ele><time>2026-04-26T14:14:22.999Z</time></trkpt><trkpt lat="43.57454586547608" lon="13.371030556404186"><ele>71.0</ele><time>2026-04-26T14:14:26.999Z</time></trkpt><trkpt lat="43.57452163694038" lon="13.37111723708162"><ele>70.0</ele><time>2026-04-26T14:14:31.999Z</time></trkpt><trkpt lat="43.57455180305266" lon="13.371004112172049"><ele>70.0</ele><time>2026-04-26T14:14:45.999Z</time></trkpt><trkpt lat="43.5745697328454" lon="13.37090630548409"><ele>70.0</ele><time>2026-04-26T14:14:46.999Z</time></trkpt><trkpt lat="43.57461794181491" lon="13.370775798248907"><ele>70.0</ele><time>2026-04-26T14:14:48.999Z</time></trkpt><trkpt lat="43.5746837146339" lon="13.370678670027694"><ele>70.0</ele><time>2026-04-26T14:14:50.999Z</time></trkpt><trkpt lat="43.57477615466971" lon="13.370600336499141"><ele>70.0</ele><time>2026-04-26T14:14:52.999Z</time></trkpt><trkpt lat="43.57482882240198" lon="13.370552703355742"><ele>70.0</ele><time>2026-04-26T14:14:53.999Z</time></trkpt><trkpt lat="43.574887722082394" lon="13.370499559993071"><ele>70.85714285714286</ele><time>2026-04-26T14:14:54.999Z</time></trkpt><trkpt lat="43.5749492935782" lon="13.37044636288735"><ele>71.71428571428572</ele><time>2026-04-26T14:14:55.999Z</time></trkpt><trkpt lat="43.57501162810402" lon="13.370391416924072"><ele>72.57142857142857</ele><time>2026-04-26T14:14:56.999Z</time></trkpt><trkpt lat="43.575071246100315" lon="13.370337475661469"><ele>73.42857142857143</ele><time>2026-04-26T14:14:57.999Z</time></trkpt><trkpt lat="43.5751322520312" lon="13.370281830590587"><ele>74.28571428571429</ele><time>2026-04-26T14:14:58.999Z</time></trkpt><trkpt lat="43.575195448100246" lon="13.370224673150982"><ele>75.14285714285714</ele><time>2026-04-26T14:14:59.999Z</time></trkpt><trkpt lat="43.57525449024691" lon="13.37016958716186"><ele>76.0</ele><time>2026-04-26T14:15:00.999Z</time></trkpt><trkpt lat="43.57531007914622" lon="13.370119895218549"><ele>77.0</ele><time>2026-04-26T14:15:01.999Z</time></trkpt><trkpt lat="43.57536635568265" lon="13.370070690067298"><ele>78.0</ele><time>2026-04-26T14:15:02.999Z</time></trkpt><trkpt lat="43.575421944260384" lon="13.37001403988504"><ele>79.0</ele><time>2026-04-26T14:15:03.999Z</time></trkpt><trkpt lat="43.57548018032165" lon="13.369958878991403"><ele>80.0</ele><time>2026-04-26T14:15:04.999Z</time></trkpt><trkpt lat="43.57553783927421" lon="13.369895227899882"><ele>81.0</ele><time>2026-04-26T14:15:05.999Z</time></trkpt><trkpt lat="43.57559939780344" lon="13.369838800391443"><ele>82.0</ele><time>2026-04-26T14:15:06.999Z</time></trkpt><trkpt lat="43.575655186239366" lon="13.369776263029992"><ele>83.0</ele><time>2026-04-26T14:15:07.999Z</time></trkpt><trkpt lat="43.57571013670351" lon="13.369718044581214"><ele>85.60000000000001</ele><time>2026-04-26T14:15:08.999Z</time></trkpt><trkpt lat="43.575802854777" lon="13.369620751919298"><ele>88.2</ele><time>2026-04-26T14:15:10.999Z</time></trkpt><trkpt lat="43.575873155291035" lon="13.369515569744763"><ele>90.8</ele><time>2026-04-26T14:15:12.998Z</time></trkpt><trkpt lat="43.57594204453932" lon="13.369411215449414"><ele>93.4</ele><time>2026-04-26T14:15:14.998Z</time></trkpt><trkpt lat="43.57599806528357" lon="13.369292853492182"><ele>96.0</ele><time>2026-04-26T14:15:16.998Z</time></trkpt><trkpt lat="43.5760310712588" lon="13.369154062177211"><ele>96.0</ele><time>2026-04-26T14:15:18.998Z</time></trkpt><trkpt lat="43.576061654312284" lon="13.369008121025303"><ele>96.0</ele><time>2026-04-26T14:15:20.998Z</time></trkpt><trkpt lat="43.576059968270656" lon="13.368842530354774"><ele>96.0</ele><time>2026-04-26T14:15:22.998Z</time></trkpt><trkpt lat="43.57608150846455" lon="13.368699143053941"><ele>96.0</ele><time>2026-04-26T14:15:24.998Z</time></trkpt><trkpt lat="43.57608695031275" lon="13.368581204680577"><ele>96.0</ele><time>2026-04-26T14:15:27.998Z</time></trkpt><trkpt lat="43.57607495281521" lon="13.368454477411246"><ele>97.19999999999999</ele><time>2026-04-26T14:15:30.998Z</time></trkpt><trkpt lat="43.576088243520026" lon="13.36832322929252"><ele>98.39999999999999</ele><time>2026-04-26T14:15:32.998Z</time></trkpt><trkpt lat="43.57608580620917" lon="13.368171456664635"><ele>99.6</ele><time>2026-04-26T14:15:34.998Z</time></trkpt><trkpt lat="43.57606720826133" lon="13.368017929026843"><ele>100.8</ele><time>2026-04-26T14:15:36.998Z</time></trkpt><trkpt lat="43.57602365243921" lon="13.367890525206452"><ele>102.0</ele><time>2026-04-26T14:15:39Z</time></trkpt><trkpt lat="43.57596369682587" lon="13.36780745482547"><ele>102.0</ele><time>2026-04-26T14:15:41Z</time></trkpt><trkpt lat="43.5758685443756" lon="13.367798072475955"><ele>102.0</ele><time>2026-04-26T14:15:43Z</time></trkpt><trkpt lat="43.57577106683697" lon="13.367787802367443"><ele>102.0</ele><time>2026-04-26T14:15:45Z</time></trkpt><trkpt lat="43.57568071230181" lon="13.367773233919463"><ele>102.0</ele><time>2026-04-26T14:15:47Z</time></trkpt><trkpt lat="43.57569005424625" lon="13.367658833340183"><ele>102.0</ele><time>2026-04-26T14:15:48Z</time></trkpt><trkpt lat="43.575658162561425" lon="13.367492606239997"><ele>102.0</ele><time>2026-04-26T14:15:50Z</time></trkpt><trkpt lat="43.575639845192455" lon="13.367391065406473"><ele>102.0</ele><time>2026-04-26T14:15:51Z</time></trkpt><trkpt lat="43.575620881545994" lon="13.367285942346122"><ele>102.0</ele><time>2026-04-26T14:15:52Z</time></trkpt><trkpt lat="43.575587140826954" lon="13.36718285975641"><ele>102.0</ele><time>2026-04-26T14:15:53Z</time></trkpt><trkpt lat="43.57556879814462" lon="13.367070678426277"><ele>102.0</ele><time>2026-04-26T14:15:54Z</time></trkpt><trkpt lat="43.57556237849302" lon="13.366955031468263"><ele>102.0</ele><time>2026-04-26T14:15:55Z</time></trkpt><trkpt lat="43.57553365224041" lon="13.366840366538826"><ele>101.16666666666667</ele><time>2026-04-26T14:15:56Z</time></trkpt><trkpt lat="43.57547899384582" lon="13.366748519422588"><ele>100.33333333333334</ele><time>2026-04-26T14:15:57Z</time></trkpt><trkpt lat="43.57542989369354" lon="13.366661543268542"><ele>99.5</ele><time>2026-04-26T14:15:58Z</time></trkpt><trkpt lat="43.575371257327326" lon="13.36658719804814"><ele>98.66666666666667</ele><time>2026-04-26T14:15:59Z</time></trkpt><trkpt lat="43.57532142904154" lon="13.366502909479939"><ele>97.83333333333334</ele><time>2026-04-26T14:16:00Z</time></trkpt><trkpt lat="43.57525473026454" lon="13.366450904953187"><ele>97.0</ele><time>2026-04-26T14:16:01Z</time></trkpt><trkpt lat="43.57519579941947" lon="13.366377516793708"><ele>99.33333333333334</ele><time>2026-04-26T14:16:02Z</time></trkpt><trkpt lat="43.57512651848231" lon="13.366319933440979"><ele>101.66666666666667</ele><time>2026-04-26T14:16:03Z</time></trkpt><trkpt lat="43.57506593238407" lon="13.366252916457917"><ele>104.0</ele><time>2026-04-26T14:16:04Z</time></trkpt><trkpt lat="43.574998337091216" lon="13.366186249704672"><ele>106.33333333333334</ele><time>2026-04-26T14:16:05Z</time></trkpt><trkpt lat="43.57494430850912" lon="13.366098377352577"><ele>108.66666666666667</ele><time>2026-04-26T14:16:06Z</time></trkpt><trkpt lat="43.57490243218532" lon="13.365994651448178"><ele>111.0</ele><time>2026-04-26T14:16:07Z</time></trkpt><trkpt lat="43.574845004510166" lon="13.365901604430578"><ele>111.0</ele><time>2026-04-26T14:16:08Z</time></trkpt><trkpt lat="43.57477598845032" lon="13.36584269944366"><ele>111.0</ele><time>2026-04-26T14:16:09Z</time></trkpt><trkpt lat="43.574717256677914" lon="13.365789558282627"><ele>111.0</ele><time>2026-04-26T14:16:10Z</time></trkpt><trkpt lat="43.574653812973494" lon="13.36576033674928"><ele>111.0</ele><time>2026-04-26T14:16:11Z</time></trkpt><trkpt lat="43.574589481630426" lon="13.365708545488191"><ele>111.0</ele><time>2026-04-26T14:16:12Z</time></trkpt><trkpt lat="43.574518204423335" lon="13.365663877351254"><ele>111.0</ele><time>2026-04-26T14:16:13Z</time></trkpt><trkpt lat="43.57444900936957" lon="13.365612129150083"><ele>110.5</ele><time>2026-04-26T14:16:14Z</time></trkpt><trkpt lat="43.57438504944918" lon="13.365557339377057"><ele>110.0</ele><time>2026-04-26T14:16:15Z</time></trkpt><trkpt lat="43.574316505525665" lon="13.365516725943255"><ele>109.5</ele><time>2026-04-26T14:16:16Z</time></trkpt><trkpt lat="43.574257931254294" lon="13.365447783243352"><ele>109.0</ele><time>2026-04-26T14:16:17Z</time></trkpt><trkpt lat="43.574195553540626" lon="13.36538708244071"><ele>108.5</ele><time>2026-04-26T14:16:18Z</time></trkpt><trkpt lat="43.574127524296394" lon="13.36532382177238"><ele>108.0</ele><time>2026-04-26T14:16:18.999Z</time></trkpt><trkpt lat="43.57407173627628" lon="13.365245030025147"><ele>108.28571428571428</ele><time>2026-04-26T14:16:19.999Z</time></trkpt><trkpt lat="43.57401041880283" lon="13.365184857260584"><ele>108.57142857142857</ele><time>2026-04-26T14:16:20.999Z</time></trkpt><trkpt lat="43.5739506947684" lon="13.365125178667649"><ele>108.85714285714286</ele><time>2026-04-26T14:16:21.999Z</time></trkpt><trkpt lat="43.57388533329313" lon="13.365083549009125"><ele>109.14285714285714</ele><time>2026-04-26T14:16:22.999Z</time></trkpt><trkpt lat="43.57383143405437" lon="13.365029692079323"><ele>109.42857142857143</ele><time>2026-04-26T14:16:23.999Z</time></trkpt><trkpt lat="43.57377283089412" lon="13.364968460389873"><ele>109.71428571428571</ele><time>2026-04-26T14:16:24.999Z</time></trkpt><trkpt lat="43.573709436263925" lon="13.364906504933582"><ele>110.0</ele><time>2026-04-26T14:16:25.999Z</time></trkpt><trkpt lat="43.573651859108594" lon="13.364853746240978"><ele>109.99999999999999</ele><time>2026-04-26T14:16:26.999Z</time></trkpt><trkpt lat="43.57359846101906" lon="13.36480570648276"><ele>110.0</ele><time>2026-04-26T14:16:27.999Z</time></trkpt><trkpt lat="43.573482780231885" lon="13.364744077793697"><ele>110.0</ele><time>2026-04-26T14:16:29.999Z</time></trkpt><trkpt lat="43.573419895921944" lon="13.364739502192855"><ele>110.0</ele><time>2026-04-26T14:16:30.999Z</time></trkpt><trkpt lat="43.57335527125765" lon="13.364750345233233"><ele>109.99999999999999</ele><time>2026-04-26T14:16:31.999Z</time></trkpt><trkpt lat="43.573264330537725" lon="13.36476896661591"><ele>110.0</ele><time>2026-04-26T14:16:33.999Z</time></trkpt><trkpt lat="43.57318256638299" lon="13.364764195196676"><ele>110.6</ele><time>2026-04-26T14:16:35.999Z</time></trkpt><trkpt lat="43.57320774425181" lon="13.364658909658685"><ele>111.2</ele><time>2026-04-26T14:16:39.999Z</time></trkpt><trkpt lat="43.573286337731915" lon="13.364521144890807"><ele>111.80000000000001</ele><time>2026-04-26T14:16:41.999Z</time></trkpt><trkpt lat="43.57332424043008" lon="13.36442210199945"><ele>112.4</ele><time>2026-04-26T14:16:42.999Z</time></trkpt><trkpt lat="43.573372932294546" lon="13.364328677822826"><ele>113.0</ele><time>2026-04-26T14:16:43.999Z</time></trkpt><trkpt lat="43.57342112823921" lon="13.364222148138323"><ele>113.0</ele><time>2026-04-26T14:16:44.999Z</time></trkpt><trkpt lat="43.57348716657145" lon="13.364119767582322"><ele>113.00000000000001</ele><time>2026-04-26T14:16:45.999Z</time></trkpt><trkpt lat="43.57354246053119" lon="13.364004316444296"><ele>113.00000000000001</ele><time>2026-04-26T14:16:46.999Z</time></trkpt><trkpt lat="43.57358569863631" lon="13.363876610848884"><ele>113.0</ele><time>2026-04-26T14:16:47.999Z</time></trkpt><trkpt lat="43.57364220435415" lon="13.363763047309336"><ele>113.0</ele><time>2026-04-26T14:16:48.999Z</time></trkpt><trkpt lat="43.573700373779026" lon="13.363641867758357"><ele>113.75</ele><time>2026-04-26T14:16:49.999Z</time></trkpt><trkpt lat="43.57375912048226" lon="13.363517983234946"><ele>114.5</ele><time>2026-04-26T14:16:50.999Z</time></trkpt><trkpt lat="43.57382895132104" lon="13.36339207825371"><ele>115.25</ele><time>2026-04-26T14:16:51.999Z</time></trkpt><trkpt lat="43.57391383744982" lon="13.363265071320823"><ele>116.0</ele><time>2026-04-26T14:16:52.999Z</time></trkpt><trkpt lat="43.57400922320915" lon="13.3631457915202"><ele>116.0</ele><time>2026-04-26T14:16:53.999Z</time></trkpt><trkpt lat="43.574113573376046" lon="13.363034590358394"><ele>116.0</ele><time>2026-04-26T14:16:54.999Z</time></trkpt><trkpt lat="43.57422119981676" lon="13.362923625166049"><ele>116.0</ele><time>2026-04-26T14:16:55.999Z</time></trkpt><trkpt lat="43.57432880790569" lon="13.362820307037055"><ele>116.0</ele><time>2026-04-26T14:16:56.999Z</time></trkpt><trkpt lat="43.57442956812769" lon="13.362721145614994"><ele>114.6</ele><time>2026-04-26T14:16:57.999Z</time></trkpt><trkpt lat="43.57452366228548" lon="13.362631107827646"><ele>113.19999999999999</ele><time>2026-04-26T14:16:58.999Z</time></trkpt><trkpt lat="43.57460637944888" lon="13.362540727474546"><ele>111.80000000000001</ele><time>2026-04-26T14:16:59.999Z</time></trkpt><trkpt lat="43.57467699781672" lon="13.362432341326574"><ele>110.4</ele><time>2026-04-26T14:17:00.999Z</time></trkpt><trkpt lat="43.574740655568355" lon="13.362307636394323"><ele>109.0</ele><time>2026-04-26T14:17:01.999Z</time></trkpt><trkpt lat="43.57480438439086" lon="13.36217451890536"><ele>109.0</ele><time>2026-04-26T14:17:02.999Z</time></trkpt><trkpt lat="43.5748746347333" lon="13.362040195325076"><ele>109.0</ele><time>2026-04-26T14:17:03.999Z</time></trkpt><trkpt lat="43.57494311177955" lon="13.36190534315915"><ele>109.0</ele><time>2026-04-26T14:17:04.999Z</time></trkpt><trkpt lat="43.57501634268837" lon="13.361772043554645"><ele>109.0</ele><time>2026-04-26T14:17:05.999Z</time></trkpt><trkpt lat="43.57508700421512" lon="13.361635598378793"><ele>109.0</ele><time>2026-04-26T14:17:06.999Z</time></trkpt><trkpt lat="43.575154210446534" lon="13.361504932724209"><ele>109.0</ele><time>2026-04-26T14:17:07.999Z</time></trkpt><trkpt lat="43.57522343507663" lon="13.3613717320679"><ele>109.0</ele><time>2026-04-26T14:17:08.999Z</time></trkpt><trkpt lat="43.57529505003439" lon="13.361236979374903"><ele>109.0</ele><time>2026-04-26T14:17:09.999Z</time></trkpt><trkpt lat="43.57536543885482" lon="13.361106135334207"><ele>106.6</ele><time>2026-04-26T14:17:10.999Z</time></trkpt><trkpt lat="43.575433736283955" lon="13.36097852533682"><ele>104.2</ele><time>2026-04-26T14:17:11.999Z</time></trkpt><trkpt lat="43.5754996039726" lon="13.360850758761513"><ele>101.8</ele><time>2026-04-26T14:17:12.999Z</time></trkpt><trkpt lat="43.57556061909658" lon="13.360729678181448"><ele>99.39999999999999</ele><time>2026-04-26T14:17:13.998Z</time></trkpt><trkpt lat="43.57562695364515" lon="13.360628651110805"><ele>97.0</ele><time>2026-04-26T14:17:14.998Z</time></trkpt><trkpt lat="43.575675315818316" lon="13.360535632104142"><ele>97.00000000000001</ele><time>2026-04-26T14:17:15.998Z</time></trkpt><trkpt lat="43.575714486914755" lon="13.360462099743836"><ele>97.0</ele><time>2026-04-26T14:17:16.998Z</time></trkpt><trkpt lat="43.57578693512021" lon="13.360448394990451"><ele>97.0</ele><time>2026-04-26T14:17:19.998Z</time></trkpt><trkpt lat="43.57577236055164" lon="13.360623503473473"><ele>97.0</ele><time>2026-04-26T14:17:21.998Z</time></trkpt><trkpt lat="43.57577575753426" lon="13.360731106625668"><ele>97.00000000000001</ele><time>2026-04-26T14:17:22.998Z</time></trkpt><trkpt lat="43.57579127569942" lon="13.360853974790992"><ele>97.0</ele><time>2026-04-26T14:17:23.998Z</time></trkpt><trkpt lat="43.57579428716024" lon="13.361004823209539"><ele>97.0</ele><time>2026-04-26T14:17:24.998Z</time></trkpt><trkpt lat="43.57580612734183" lon="13.361160898758836"><ele>97.0</ele><time>2026-04-26T14:17:25.998Z</time></trkpt><trkpt lat="43.57582914471627" lon="13.361315986045843"><ele>97.0</ele><time>2026-04-26T14:17:26.998Z</time></trkpt><trkpt lat="43.57584831090413" lon="13.361477441880345"><ele>97.0</ele><time>2026-04-26T14:17:27.998Z</time></trkpt><trkpt lat="43.57587106032945" lon="13.361640779272495"><ele>96.5</ele><time>2026-04-26T14:17:28.998Z</time></trkpt><trkpt lat="43.575910177598736" lon="13.361812789396852"><ele>96.0</ele><time>2026-04-26T14:17:29.998Z</time></trkpt><trkpt lat="43.57595774802071" lon="13.36199171377054"><ele>95.5</ele><time>2026-04-26T14:17:30.998Z</time></trkpt><trkpt lat="43.57600603785561" lon="13.362176338566607"><ele>95.0</ele><time>2026-04-26T14:17:31.998Z</time></trkpt><trkpt lat="43.576054896315846" lon="13.36235859587489"><ele>93.25</ele><time>2026-04-26T14:17:32.998Z</time></trkpt><trkpt lat="43.57610221167092" lon="13.362541989649042"><ele>91.5</ele><time>2026-04-26T14:17:33.998Z</time></trkpt><trkpt lat="43.576147837170474" lon="13.362723980363123"><ele>89.75</ele><time>2026-04-26T14:17:34.998Z</time></trkpt><trkpt lat="43.576199963270206" lon="13.362908628462197"><ele>88.0</ele><time>2026-04-26T14:17:35.998Z</time></trkpt><trkpt lat="43.5762494749755" lon="13.363091369920012"><ele>84.0</ele><time>2026-04-26T14:17:36.998Z</time></trkpt><trkpt lat="43.5762942036917" lon="13.36327461089761"><ele>80.0</ele><time>2026-04-26T14:17:37.998Z</time></trkpt><trkpt lat="43.57633476332373" lon="13.363451625377722"><ele>76.0</ele><time>2026-04-26T14:17:38.998Z</time></trkpt><trkpt lat="43.57637348012726" lon="13.363619043458081"><ele>72.0</ele><time>2026-04-26T14:17:39.998Z</time></trkpt><trkpt lat="43.57641438864993" lon="13.363772249768097"><ele>72.8</ele><time>2026-04-26T14:17:40.998Z</time></trkpt><trkpt lat="43.576448992668766" lon="13.363913020387987"><ele>73.6</ele><time>2026-04-26T14:17:41.998Z</time></trkpt><trkpt lat="43.576483722109835" lon="13.36404232024663"><ele>74.39999999999999</ele><time>2026-04-26T14:17:42.998Z</time></trkpt><trkpt lat="43.576508822756054" lon="13.36416410486587"><ele>75.2</ele><time>2026-04-26T14:17:44Z</time></trkpt><trkpt lat="43.57653602138182" lon="13.36427877095044"><ele>76.0</ele><time>2026-04-26T14:17:45Z</time></trkpt><trkpt lat="43.57656593344542" lon="13.364394232504273"><ele>76.0</ele><time>2026-04-26T14:17:46Z</time></trkpt><trkpt lat="43.576597406817996" lon="13.364516048151478"><ele>76.0</ele><time>2026-04-26T14:17:47Z</time></trkpt><trkpt lat="43.57662861496469" lon="13.364649351260478"><ele>76.0</ele><time>2026-04-26T14:17:48Z</time></trkpt><trkpt lat="43.57666041210687" lon="13.36479527111413"><ele>76.0</ele><time>2026-04-26T14:17:49Z</time></trkpt><trkpt lat="43.57669540252842" lon="13.364950683628045"><ele>76.0</ele><time>2026-04-26T14:17:50Z</time></trkpt><trkpt lat="43.576727077652556" lon="13.365095589490393"><ele>77.0</ele><time>2026-04-26T14:17:51Z</time></trkpt><trkpt lat="43.5767598907408" lon="13.365230542051037"><ele>78.0</ele><time>2026-04-26T14:17:52Z</time></trkpt><trkpt lat="43.57679622078017" lon="13.365364361156988"><ele>79.0</ele><time>2026-04-26T14:17:53Z</time></trkpt><trkpt lat="43.57683234068636" lon="13.365505660962377"><ele>80.0</ele><time>2026-04-26T14:17:54Z</time></trkpt><trkpt lat="43.57686451207608" lon="13.365646677111936"><ele>81.0</ele><time>2026-04-26T14:17:55Z</time></trkpt><trkpt lat="43.57689536265978" lon="13.365787402112227"><ele>81.0</ele><time>2026-04-26T14:17:56Z</time></trkpt><trkpt lat="43.576931130135556" lon="13.365930188038119"><ele>81.0</ele><time>2026-04-26T14:17:57Z</time></trkpt><trkpt lat="43.57696396211018" lon="13.366062198946556"><ele>81.0</ele><time>2026-04-26T14:17:58Z</time></trkpt><trkpt lat="43.57699220250887" lon="13.36617802917259"><ele>81.0</ele><time>2026-04-26T14:17:59Z</time></trkpt><trkpt lat="43.577012662464284" lon="13.366271470220305"><ele>81.0</ele><time>2026-04-26T14:18:00Z</time></trkpt><trkpt lat="43.577032123465976" lon="13.366361022799646"><ele>81.0</ele><time>2026-04-26T14:18:02Z</time></trkpt><trkpt lat="43.577076535212434" lon="13.366503860259403"><ele>78.39999999999999</ele><time>2026-04-26T14:18:38.999Z</time></trkpt><trkpt lat="43.577106783105485" lon="13.366596953188855"><ele>75.8</ele><time>2026-04-26T14:18:39.999Z</time></trkpt><trkpt lat="43.577134539216324" lon="13.366702003578418"><ele>73.19999999999999</ele><time>2026-04-26T14:18:40.999Z</time></trkpt><trkpt lat="43.57716388712189" lon="13.36681873941236"><ele>70.6</ele><time>2026-04-26T14:18:41.999Z</time></trkpt><trkpt lat="43.57719828821221" lon="13.366950937454527"><ele>68.0</ele><time>2026-04-26T14:18:42.999Z</time></trkpt><trkpt lat="43.577240348061764" lon="13.367096719372338"><ele>69.0</ele><time>2026-04-26T14:18:43.999Z</time></trkpt><trkpt lat="43.57727845110937" lon="13.367239056418502"><ele>70.0</ele><time>2026-04-26T14:18:44.999Z</time></trkpt><trkpt lat="43.57731755726244" lon="13.36740504143515"><ele>71.0</ele><time>2026-04-26T14:18:45.999Z</time></trkpt><trkpt lat="43.57735221168563" lon="13.36758680151074"><ele>72.0</ele><time>2026-04-26T14:18:46.999Z</time></trkpt><trkpt lat="43.57737906672435" lon="13.367779781441124"><ele>72.0</ele><time>2026-04-26T14:18:47.999Z</time></trkpt><trkpt lat="43.57739308154502" lon="13.367976427633486"><ele>72.0</ele><time>2026-04-26T14:18:48.999Z</time></trkpt><trkpt lat="43.57740382660896" lon="13.368170060822953"><ele>72.0</ele><time>2026-04-26T14:18:49.999Z</time></trkpt><trkpt lat="43.57740893651291" lon="13.368362995327868"><ele>72.0</ele><time>2026-04-26T14:18:50.999Z</time></trkpt><trkpt lat="43.577421283422815" lon="13.368541850500554"><ele>72.25</ele><time>2026-04-26T14:18:51.999Z</time></trkpt><trkpt lat="43.577437068411754" lon="13.368714598523102"><ele>72.5</ele><time>2026-04-26T14:18:52.999Z</time></trkpt><trkpt lat="43.577446767911944" lon="13.368882249584859"><ele>72.75</ele><time>2026-04-26T14:18:53.999Z</time></trkpt><trkpt lat="43.57746155693856" lon="13.369050935343028"><ele>73.0</ele><time>2026-04-26T14:18:54.999Z</time></trkpt><trkpt lat="43.57748142575186" lon="13.369233739954684"><ele>73.0</ele><time>2026-04-26T14:18:55.999Z</time></trkpt><trkpt lat="43.577504750249346" lon="13.369426136756971"><ele>73.0</ele><time>2026-04-26T14:18:56.999Z</time></trkpt><trkpt lat="43.57754286022788" lon="13.36962180395875"><ele>73.0</ele><time>2026-04-26T14:18:57.999Z</time></trkpt><trkpt lat="43.577589172668" lon="13.369811146483286"><ele>73.0</ele><time>2026-04-26T14:18:58.999Z</time></trkpt><trkpt lat="43.57763299398763" lon="13.369993063991238"><ele>73.0</ele><time>2026-04-26T14:18:59.999Z</time></trkpt><trkpt lat="43.5776745591057" lon="13.370165826088131"><ele>73.0</ele><time>2026-04-26T14:19:00.999Z</time></trkpt><trkpt lat="43.57772382804201" lon="13.370333207118366"><ele>73.0</ele><time>2026-04-26T14:19:01.999Z</time></trkpt><trkpt lat="43.577771679273454" lon="13.370498747503916"><ele>73.0</ele><time>2026-04-26T14:19:02.999Z</time></trkpt><trkpt lat="43.577815795741515" lon="13.370666342989917"><ele>69.0</ele><time>2026-04-26T14:19:03.999Z</time></trkpt><trkpt lat="43.57786421165756" lon="13.37083085108674"><ele>65.0</ele><time>2026-04-26T14:19:04.999Z</time></trkpt><trkpt lat="43.577909658882675" lon="13.371001799143194"><ele>61.0</ele><time>2026-04-26T14:19:05.999Z</time></trkpt><trkpt lat="43.5779511025949" lon="13.371173323810043"><ele>57.0</ele><time>2026-04-26T14:19:06.999Z</time></trkpt><trkpt lat="43.57800191559475" lon="13.371342502473354"><ele>55.25</ele><time>2026-04-26T14:19:07.999Z</time></trkpt><trkpt lat="43.57806187970504" lon="13.37150784055592"><ele>53.5</ele><time>2026-04-26T14:19:08.999Z</time></trkpt><trkpt lat="43.57811986019342" lon="13.371676355399511"><ele>51.75</ele><time>2026-04-26T14:19:09.999Z</time></trkpt><trkpt lat="43.57817113750955" lon="13.371851142240699"><ele>50.0</ele><time>2026-04-26T14:19:10.999Z</time></trkpt><trkpt lat="43.57822259078101" lon="13.37202758923989"><ele>48.0</ele><time>2026-04-26T14:19:11.999Z</time></trkpt><trkpt lat="43.57827203804753" lon="13.37220849937599"><ele>46.0</ele><time>2026-04-26T14:19:12.999Z</time></trkpt><trkpt lat="43.57832052075286" lon="13.372391018032623"><ele>44.0</ele><time>2026-04-26T14:19:13.998Z</time></trkpt><trkpt lat="43.57836400346884" lon="13.372577019843458"><ele>42.0</ele><time>2026-04-26T14:19:14.998Z</time></trkpt><trkpt lat="43.578403679155706" lon="13.372762193356056"><ele>42.0</ele><time>2026-04-26T14:19:15.998Z</time></trkpt><trkpt lat="43.578435815689964" lon="13.3729492665543"><ele>42.0</ele><time>2026-04-26T14:19:16.998Z</time></trkpt><trkpt lat="43.578460683663124" lon="13.373135896933512"><ele>42.0</ele><time>2026-04-26T14:19:17.998Z</time></trkpt><trkpt lat="43.57847624463103" lon="13.373316418728155"><ele>42.0</ele><time>2026-04-26T14:19:18.998Z</time></trkpt><trkpt lat="43.57848050897266" lon="13.37349561100617"><ele>40.75</ele><time>2026-04-26T14:19:19.998Z</time></trkpt><trkpt lat="43.578473750315375" lon="13.373673924697464"><ele>39.5</ele><time>2026-04-26T14:19:20.998Z</time></trkpt><trkpt lat="43.57842568546035" lon="13.37383599066234"><ele>38.25</ele><time>2026-04-26T14:19:21.998Z</time></trkpt><trkpt lat="43.57837883969993" lon="13.373988084546578"><ele>37.0</ele><time>2026-04-26T14:19:22.998Z</time></trkpt><trkpt lat="43.578336031404824" lon="13.374143291274253"><ele>35.5</ele><time>2026-04-26T14:19:23.998Z</time></trkpt><trkpt lat="43.578285305209576" lon="13.374294830003194"><ele>34.0</ele><time>2026-04-26T14:19:24.998Z</time></trkpt><trkpt lat="43.57825602470672" lon="13.37445626962397"><ele>32.5</ele><time>2026-04-26T14:19:25.998Z</time></trkpt><trkpt lat="43.57825809263913" lon="13.374622086287571"><ele>31.0</ele><time>2026-04-26T14:19:26.998Z</time></trkpt><trkpt lat="43.57829356796348" lon="13.374787521305258"><ele>30.75</ele><time>2026-04-26T14:19:27.998Z</time></trkpt><trkpt lat="43.57834904729704" lon="13.374942433352388"><ele>30.5</ele><time>2026-04-26T14:19:28.998Z</time></trkpt><trkpt lat="43.578407226252445" lon="13.375108004060191"><ele>30.25</ele><time>2026-04-26T14:19:29.998Z</time></trkpt><trkpt lat="43.57846718230714" lon="13.375277162161074"><ele>30.0</ele><time>2026-04-26T14:19:30.998Z</time></trkpt><trkpt lat="43.57852762448883" lon="13.375448684168704"><ele>30.0</ele><time>2026-04-26T14:19:31.998Z</time></trkpt><trkpt lat="43.578582399936444" lon="13.375636606914671"><ele>30.0</ele><time>2026-04-26T14:19:32.998Z</time></trkpt><trkpt lat="43.57863345338344" lon="13.375831660158129"><ele>30.0</ele><time>2026-04-26T14:19:33.998Z</time></trkpt><trkpt lat="43.578665343049934" lon="13.376038940216619"><ele>30.0</ele><time>2026-04-26T14:19:34.998Z</time></trkpt><trkpt lat="43.57868150467987" lon="13.37625049313173"><ele>30.0</ele><time>2026-04-26T14:19:35.998Z</time></trkpt><trkpt lat="43.5786874369666" lon="13.3764613965865"><ele>30.0</ele><time>2026-04-26T14:19:36.998Z</time></trkpt><trkpt lat="43.57869742476413" lon="13.376672237951796"><ele>34.0</ele><time>2026-04-26T14:19:37.998Z</time></trkpt><trkpt lat="43.578711306941436" lon="13.376881063501502"><ele>38.0</ele><time>2026-04-26T14:19:38.998Z</time></trkpt><trkpt lat="43.57872407907965" lon="13.37709468724616"><ele>42.0</ele><time>2026-04-26T14:19:39.998Z</time></trkpt><trkpt lat="43.578734624833345" lon="13.377311805430603"><ele>44.0</ele><time>2026-04-26T14:19:40.998Z</time></trkpt><trkpt lat="43.5787476782739" lon="13.377528725120827"><ele>46.0</ele><time>2026-04-26T14:19:41.998Z</time></trkpt><trkpt lat="43.578766258829646" lon="13.37773535592076"><ele>48.0</ele><time>2026-04-26T14:19:42.998Z</time></trkpt><trkpt lat="43.5787925132172" lon="13.377925992116174"><ele>50.0</ele><time>2026-04-26T14:19:43.998Z</time></trkpt><trkpt lat="43.57883692930441" lon="13.378093574114319"><ele>50.5</ele><time>2026-04-26T14:19:44.998Z</time></trkpt><trkpt lat="43.57890586687804" lon="13.37823831972628"><ele>51.0</ele><time>2026-04-26T14:19:45.998Z</time></trkpt><trkpt lat="43.57899858090715" lon="13.378360941916071"><ele>51.5</ele><time>2026-04-26T14:19:46.998Z</time></trkpt><trkpt lat="43.57910470354929" lon="13.378475372902667"><ele>52.0</ele><time>2026-04-26T14:19:47.998Z</time></trkpt><trkpt lat="43.57921271708737" lon="13.378591502229218"><ele>52.0</ele><time>2026-04-26T14:19:49Z</time></trkpt><trkpt lat="43.57932582313134" lon="13.378713693304746"><ele>52.0</ele><time>2026-04-26T14:19:50Z</time></trkpt><trkpt lat="43.57943737994037" lon="13.378844538082852"><ele>52.0</ele><time>2026-04-26T14:19:51Z</time></trkpt><trkpt lat="43.57955835633327" lon="13.37897183763435"><ele>52.0</ele><time>2026-04-26T14:19:52Z</time></trkpt><trkpt lat="43.57968847887484" lon="13.37908638208612"><ele>55.0</ele><time>2026-04-26T14:19:53Z</time></trkpt><trkpt lat="43.57982940964402" lon="13.379190687191155"><ele>58.0</ele><time>2026-04-26T14:19:54Z</time></trkpt><trkpt lat="43.57997512736136" lon="13.37929782266075"><ele>61.0</ele><time>2026-04-26T14:19:55Z</time></trkpt><trkpt lat="43.5801170303692" lon="13.379404118722341"><ele>61.0</ele><time>2026-04-26T14:19:56Z</time></trkpt><trkpt lat="43.580267677461805" lon="13.379518617340542"><ele>61.0</ele><time>2026-04-26T14:19:57Z</time></trkpt><trkpt lat="43.58042657178025" lon="13.379641066927809"><ele>61.0</ele><time>2026-04-26T14:19:58Z</time></trkpt><trkpt lat="43.58058700878252" lon="13.37977375311734"><ele>65.0</ele><time>2026-04-26T14:19:59Z</time></trkpt><trkpt lat="43.580742397590534" lon="13.379916977315538"><ele>69.0</ele><time>2026-04-26T14:20:00Z</time></trkpt><trkpt lat="43.58087715591649" lon="13.380055167662666"><ele>73.0</ele><time>2026-04-26T14:20:01Z</time></trkpt><trkpt lat="43.5809894399432" lon="13.38017786864854"><ele>73.0</ele><time>2026-04-26T14:20:02Z</time></trkpt><trkpt lat="43.58107864157915" lon="13.380296520346114"><ele>73.0</ele><time>2026-04-26T14:20:03Z</time></trkpt><trkpt lat="43.58113137235779" lon="13.380424337276045"><ele>73.0</ele><time>2026-04-26T14:20:04Z</time></trkpt><trkpt lat="43.58109972638994" lon="13.380562500591568"><ele>73.0</ele><time>2026-04-26T14:20:05Z</time></trkpt><trkpt lat="43.58108677279761" lon="13.380694047250104"><ele>73.0</ele><time>2026-04-26T14:20:06Z</time></trkpt><trkpt lat="43.58100637707988" lon="13.380795309496026"><ele>75.25</ele><time>2026-04-26T14:20:07Z</time></trkpt><trkpt lat="43.580911692115016" lon="13.380870714680457"><ele>77.5</ele><time>2026-04-26T14:20:08Z</time></trkpt><trkpt lat="43.580803853783074" lon="13.380937604928295"><ele>79.75</ele><time>2026-04-26T14:20:09Z</time></trkpt><trkpt lat="43.5806881470045" lon="13.381013276291164"><ele>82.0</ele><time>2026-04-26T14:20:10Z</time></trkpt><trkpt lat="43.58056936556714" lon="13.381101068834079"><ele>82.0</ele><time>2026-04-26T14:20:11Z</time></trkpt><trkpt lat="43.58044772484897" lon="13.381184744114549"><ele>82.0</ele><time>2026-04-26T14:20:12Z</time></trkpt><trkpt lat="43.58033186659173" lon="13.3812632662796"><ele>82.0</ele><time>2026-04-26T14:20:13Z</time></trkpt><trkpt lat="43.580233568909115" lon="13.381336833787591"><ele>82.0</ele><time>2026-04-26T14:20:14Z</time></trkpt><trkpt lat="43.580150325260774" lon="13.381402869392474"><ele>83.16666666666666</ele><time>2026-04-26T14:20:15Z</time></trkpt><trkpt lat="43.58008330192279" lon="13.38146146419685"><ele>84.33333333333333</ele><time>2026-04-26T14:20:16Z</time></trkpt><trkpt lat="43.58003056547642" lon="13.381535624024119"><ele>85.5</ele><time>2026-04-26T14:20:17Z</time></trkpt><trkpt lat="43.58000015576329" lon="13.381635488279583"><ele>86.66666666666667</ele><time>2026-04-26T14:20:18Z</time></trkpt><trkpt lat="43.58000032405803" lon="13.381741754303913"><ele>87.83333333333334</ele><time>2026-04-26T14:20:19Z</time></trkpt><trkpt lat="43.58002394081142" lon="13.381848948006304"><ele>89.0</ele><time>2026-04-26T14:20:20Z</time></trkpt><trkpt lat="43.58007303613477" lon="13.381949107505143"><ele>89.0</ele><time>2026-04-26T14:20:21Z</time></trkpt><trkpt lat="43.58014289261685" lon="13.382045388333445"><ele>89.0</ele><time>2026-04-26T14:20:22Z</time></trkpt><trkpt lat="43.58021858102272" lon="13.382148384829136"><ele>89.0</ele><time>2026-04-26T14:20:22.999Z</time></trkpt><trkpt lat="43.58030079220867" lon="13.382264707540063"><ele>89.0</ele><time>2026-04-26T14:20:23.999Z</time></trkpt><trkpt lat="43.58038809615869" lon="13.38239090963735"><ele>89.0</ele><time>2026-04-26T14:20:24.999Z</time></trkpt><trkpt lat="43.58048447945258" lon="13.382517805531082"><ele>92.5</ele><time>2026-04-26T14:20:25.999Z</time></trkpt><trkpt lat="43.580582672726344" lon="13.382636916041285"><ele>96.0</ele><time>2026-04-26T14:20:26.999Z</time></trkpt><trkpt lat="43.580689370152015" lon="13.382744318310287"><ele>99.5</ele><time>2026-04-26T14:20:27.999Z</time></trkpt><trkpt lat="43.58080743633509" lon="13.382835745558785"><ele>103.0</ele><time>2026-04-26T14:20:28.999Z</time></trkpt><trkpt lat="43.58093044616249" lon="13.38291059878224"><ele>103.0</ele><time>2026-04-26T14:20:29.999Z</time></trkpt><trkpt lat="43.58103911800609" lon="13.382988155846373"><ele>103.0</ele><time>2026-04-26T14:20:30.999Z</time></trkpt><trkpt lat="43.58112170778883" lon="13.383085459890768"><ele>103.0</ele><time>2026-04-26T14:20:31.999Z</time></trkpt><trkpt lat="43.58118705916129" lon="13.383196349940809"><ele>103.0</ele><time>2026-04-26T14:20:32.999Z</time></trkpt><trkpt lat="43.58124227346296" lon="13.38332668828332"><ele>103.0</ele><time>2026-04-26T14:20:33.999Z</time></trkpt><trkpt lat="43.58129921633526" lon="13.383473703807255"><ele>103.5</ele><time>2026-04-26T14:20:34.999Z</time></trkpt><trkpt lat="43.58136466754044" lon="13.383629581655008"><ele>104.0</ele><time>2026-04-26T14:20:35.999Z</time></trkpt><trkpt lat="43.58143323548689" lon="13.383793992430899"><ele>104.5</ele><time>2026-04-26T14:20:36.999Z</time></trkpt><trkpt lat="43.581505100999244" lon="13.383964476273777"><ele>105.0</ele><time>2026-04-26T14:20:37.999Z</time></trkpt><trkpt lat="43.58157791010476" lon="13.384140572225078"><ele>106.5</ele><time>2026-04-26T14:20:38.999Z</time></trkpt><trkpt lat="43.58165219281133" lon="13.384319046316941"><ele>108.0</ele><time>2026-04-26T14:20:39.999Z</time></trkpt><trkpt lat="43.581727239836496" lon="13.38449517885658"><ele>109.5</ele><time>2026-04-26T14:20:40.999Z</time></trkpt><trkpt lat="43.581802020192725" lon="13.38467102278256"><ele>111.0</ele><time>2026-04-26T14:20:41.999Z</time></trkpt><trkpt lat="43.58188161449236" lon="13.384846015686598"><ele>111.0</ele><time>2026-04-26T14:20:42.999Z</time></trkpt><trkpt lat="43.581944135979974" lon="13.385029790299027"><ele>111.0</ele><time>2026-04-26T14:20:43.999Z</time></trkpt><trkpt lat="43.58202297769028" lon="13.38519423966599"><ele>111.0</ele><time>2026-04-26T14:20:44.999Z</time></trkpt><trkpt lat="43.582081032557426" lon="13.385347168119614"><ele>111.0</ele><time>2026-04-26T14:20:45.999Z</time></trkpt><trkpt lat="43.58212579846269" lon="13.38548609310298"><ele>112.6</ele><time>2026-04-26T14:20:46.999Z</time></trkpt><trkpt lat="43.58216727075632" lon="13.385614370397782"><ele>114.19999999999999</ele><time>2026-04-26T14:20:47.999Z</time></trkpt><trkpt lat="43.58221021821454" lon="13.385736602226867"><ele>115.80000000000001</ele><time>2026-04-26T14:20:48.999Z</time></trkpt><trkpt lat="43.58225326873422" lon="13.38585450395725"><ele>117.4</ele><time>2026-04-26T14:20:49.999Z</time></trkpt><trkpt lat="43.58229259711547" lon="13.385962500166487"><ele>119.0</ele><time>2026-04-26T14:20:50.999Z</time></trkpt><trkpt lat="43.582335446768546" lon="13.386066319655091"><ele>119.0</ele><time>2026-04-26T14:20:51.999Z</time></trkpt><trkpt lat="43.58239244983292" lon="13.386204810648415"><ele>119.0</ele><time>2026-04-26T14:20:53.999Z</time></trkpt><trkpt lat="43.58243321645904" lon="13.386302036857208"><ele>119.0</ele><time>2026-04-26T14:20:56.999Z</time></trkpt><trkpt lat="43.58242682460391" lon="13.386450178930737"><ele>119.0</ele><time>2026-04-26T14:20:59.999Z</time></trkpt><trkpt lat="43.58238593018084" lon="13.386518578514838"><ele>119.0</ele><time>2026-04-26T14:21:01.999Z</time></trkpt><trkpt lat="43.582378546324215" lon="13.386664691269228"><ele>119.49999999999999</ele><time>2026-04-26T14:21:04.999Z</time></trkpt><trkpt lat="43.582422022641026" lon="13.38677218674898"><ele>120.0</ele><time>2026-04-26T14:21:06.999Z</time></trkpt><trkpt lat="43.582463866674665" lon="13.386883072944466"><ele>120.5</ele><time>2026-04-26T14:21:08.999Z</time></trkpt><trkpt lat="43.58249817549804" lon="13.387015856516333"><ele>121.0</ele><time>2026-04-26T14:21:10.999Z</time></trkpt><trkpt lat="43.58252020558075" lon="13.387118280442682"><ele>121.49999999999999</ele><time>2026-04-26T14:21:12.999Z</time></trkpt><trkpt lat="43.582550441421716" lon="13.38720333042343"><ele>122.0</ele><time>2026-04-26T14:21:15.999Z</time></trkpt><trkpt lat="43.58245783790678" lon="13.387322639483472"><ele>120.6</ele><time>2026-04-26T14:21:16.998Z</time></trkpt><trkpt lat="43.58240664752476" lon="13.387409192393003"><ele>119.19999999999999</ele><time>2026-04-26T14:21:17.998Z</time></trkpt><trkpt lat="43.58234250745705" lon="13.387519523467056"><ele>117.8</ele><time>2026-04-26T14:21:18.998Z</time></trkpt><trkpt lat="43.58228175792643" lon="13.38764144442192"><ele>116.4</ele><time>2026-04-26T14:21:19.998Z</time></trkpt><trkpt lat="43.582212711562505" lon="13.387775368581751"><ele>115.0</ele><time>2026-04-26T14:21:20.998Z</time></trkpt><trkpt lat="43.582127406415566" lon="13.387905867735839"><ele>112.5</ele><time>2026-04-26T14:21:21.998Z</time></trkpt><trkpt lat="43.582019711494205" lon="13.38802593849455"><ele>110.0</ele><time>2026-04-26T14:21:22.998Z</time></trkpt><trkpt lat="43.5819033018717" lon="13.38812430519605"><ele>107.5</ele><time>2026-04-26T14:21:23.998Z</time></trkpt><trkpt lat="43.58177609393799" lon="13.388214901447567"><ele>105.0</ele><time>2026-04-26T14:21:24.998Z</time></trkpt><trkpt lat="43.58165359558778" lon="13.388298038809241"><ele>105.0</ele><time>2026-04-26T14:21:25.998Z</time></trkpt><trkpt lat="43.581544623639765" lon="13.388365675710256"><ele>105.0</ele><time>2026-04-26T14:21:26.998Z</time></trkpt><trkpt lat="43.58144560223378" lon="13.388429496918324"><ele>105.0</ele><time>2026-04-26T14:21:27.998Z</time></trkpt><trkpt lat="43.581350518617455" lon="13.388493936543"><ele>105.0</ele><time>2026-04-26T14:21:28.998Z</time></trkpt><trkpt lat="43.58125256494272" lon="13.38856033235165"><ele>105.0</ele><time>2026-04-26T14:21:29.998Z</time></trkpt><trkpt lat="43.581147781790555" lon="13.388615656583177"><ele>105.5</ele><time>2026-04-26T14:21:30.998Z</time></trkpt><trkpt lat="43.58104015322528" lon="13.388657810659799"><ele>106.0</ele><time>2026-04-26T14:21:31.998Z</time></trkpt><trkpt lat="43.58092936461605" lon="13.388701305783716"><ele>106.5</ele><time>2026-04-26T14:21:32.998Z</time></trkpt><trkpt lat="43.580814583232595" lon="13.388744869708349"><ele>107.0</ele><time>2026-04-26T14:21:33.998Z</time></trkpt><trkpt lat="43.580696964305176" lon="13.388796455910427"><ele>107.25</ele><time>2026-04-26T14:21:34.998Z</time></trkpt><trkpt lat="43.58058124916591" lon="13.388862250939738"><ele>107.5</ele><time>2026-04-26T14:21:35.998Z</time></trkpt><trkpt lat="43.580462464909814" lon="13.38893370583854"><ele>107.75</ele><time>2026-04-26T14:21:36.998Z</time></trkpt><trkpt lat="43.58034505805627" lon="13.389004189911613"><ele>108.0</ele><time>2026-04-26T14:21:37.998Z</time></trkpt><trkpt lat="43.580218266949" lon="13.389077838364498"><ele>109.5</ele><time>2026-04-26T14:21:38.998Z</time></trkpt><trkpt lat="43.58008953152423" lon="13.389146048523063"><ele>111.0</ele><time>2026-04-26T14:21:39.998Z</time></trkpt><trkpt lat="43.57995463056288" lon="13.389211655508602"><ele>112.5</ele><time>2026-04-26T14:21:40.998Z</time></trkpt><trkpt lat="43.579817345031884" lon="13.389275856730475"><ele>114.0</ele><time>2026-04-26T14:21:41.998Z</time></trkpt><trkpt lat="43.57967608229535" lon="13.389340637193582"><ele>114.0</ele><time>2026-04-26T14:21:42.998Z</time></trkpt><trkpt lat="43.57952846249207" lon="13.389410666872532"><ele>114.0</ele><time>2026-04-26T14:21:43.998Z</time></trkpt><trkpt lat="43.57938082973849" lon="13.389479095795602"><ele>114.0</ele><time>2026-04-26T14:21:44.998Z</time></trkpt><trkpt lat="43.57922816496275" lon="13.389545223244138"><ele>114.66666666666666</ele><time>2026-04-26T14:21:45.998Z</time></trkpt><trkpt lat="43.579075013075084" lon="13.389614447829212"><ele>115.33333333333333</ele><time>2026-04-26T14:21:46.998Z</time></trkpt><trkpt lat="43.57892041932118" lon="13.389686357626124"><ele>116.0</ele><time>2026-04-26T14:21:47.998Z</time></trkpt><trkpt lat="43.57876353535407" lon="13.389759587936494"><ele>116.33333333333333</ele><time>2026-04-26T14:21:48.998Z</time></trkpt><trkpt lat="43.57860613654786" lon="13.3898325146972"><ele>116.66666666666666</ele><time>2026-04-26T14:21:49.998Z</time></trkpt><trkpt lat="43.57844867332178" lon="13.389914592408253"><ele>117.0</ele><time>2026-04-26T14:21:50.998Z</time></trkpt><trkpt lat="43.57829277686797" lon="13.390008188777472"><ele>117.0</ele><time>2026-04-26T14:21:51.998Z</time></trkpt><trkpt lat="43.578146213298645" lon="13.390119646680558"><ele>117.0</ele><time>2026-04-26T14:21:52.998Z</time></trkpt><trkpt lat="43.57800237650925" lon="13.390239098521318"><ele>117.0</ele><time>2026-04-26T14:21:53.998Z</time></trkpt><trkpt lat="43.577860015531364" lon="13.390360322968824"><ele>118.0</ele><time>2026-04-26T14:21:55Z</time></trkpt><trkpt lat="43.577720689344616" lon="13.390479470626587"><ele>119.0</ele><time>2026-04-26T14:21:56Z</time></trkpt><trkpt lat="43.57758245594745" lon="13.390596840405065"><ele>120.0</ele><time>2026-04-26T14:21:57Z</time></trkpt><trkpt lat="43.577446725315" lon="13.39071253831598"><ele>120.0</ele><time>2026-04-26T14:21:58Z</time></trkpt><trkpt lat="43.57731382290625" lon="13.390828465677007"><ele>120.0</ele><time>2026-04-26T14:21:59Z</time></trkpt><trkpt lat="43.57718470359481" lon="13.39094545993597"><ele>120.0</ele><time>2026-04-26T14:22:00Z</time></trkpt><trkpt lat="43.5770546958885" lon="13.391063652536477"><ele>121.75</ele><time>2026-04-26T14:22:01Z</time></trkpt><trkpt lat="43.57692636547277" lon="13.391176260044665"><ele>123.5</ele><time>2026-04-26T14:22:02Z</time></trkpt><trkpt lat="43.57679936664028" lon="13.391281042959525"><ele>125.25</ele><time>2026-04-26T14:22:03Z</time></trkpt><trkpt lat="43.57667237836684" lon="13.391383150894272"><ele>127.0</ele><time>2026-04-26T14:22:04Z</time></trkpt><trkpt lat="43.5765445508455" lon="13.391480463969675"><ele>127.0</ele><time>2026-04-26T14:22:05Z</time></trkpt><trkpt lat="43.57641556400222" lon="13.391567838902542"><ele>127.0</ele><time>2026-04-26T14:22:06Z</time></trkpt><trkpt lat="43.57628530801284" lon="13.391639890294714"><ele>127.0</ele><time>2026-04-26T14:22:07Z</time></trkpt><trkpt lat="43.576154762024444" lon="13.39170229036118"><ele>127.0</ele><time>2026-04-26T14:22:08Z</time></trkpt><trkpt lat="43.57602286774036" lon="13.391760994531337"><ele>130.0</ele><time>2026-04-26T14:22:09Z</time></trkpt><trkpt lat="43.57588325631829" lon="13.39181831882722"><ele>133.0</ele><time>2026-04-26T14:22:10Z</time></trkpt><trkpt lat="43.57573629001503" lon="13.391877553676732"><ele>136.0</ele><time>2026-04-26T14:22:11Z</time></trkpt><trkpt lat="43.57558286381772" lon="13.391936930637009"><ele>136.0</ele><time>2026-04-26T14:22:12Z</time></trkpt><trkpt lat="43.575423479448865" lon="13.39200207506557"><ele>136.0</ele><time>2026-04-26T14:22:13Z</time></trkpt><trkpt lat="43.575259985639384" lon="13.392074082222639"><ele>136.0</ele><time>2026-04-26T14:22:14Z</time></trkpt><trkpt lat="43.575094218678444" lon="13.392153286395017"><ele>132.33333333333334</ele><time>2026-04-26T14:22:15Z</time></trkpt><trkpt lat="43.57492980722456" lon="13.392237136864187"><ele>128.66666666666666</ele><time>2026-04-26T14:22:16Z</time></trkpt><trkpt lat="43.57476639947957" lon="13.392325366184924"><ele>125.0</ele><time>2026-04-26T14:22:17Z</time></trkpt><trkpt lat="43.574606294840805" lon="13.392415854299106"><ele>126.33333333333333</ele><time>2026-04-26T14:22:18Z</time></trkpt><trkpt lat="43.57445210959712" lon="13.39250020843139"><ele>127.66666666666666</ele><time>2026-04-26T14:22:19Z</time></trkpt><trkpt lat="43.57430246941683" lon="13.392582147592817"><ele>129.0</ele><time>2026-04-26T14:22:20Z</time></trkpt><trkpt lat="43.574155709018946" lon="13.392656942921901"><ele>129.0</ele><time>2026-04-26T14:22:21Z</time></trkpt><trkpt lat="43.57400697891971" lon="13.3927160973399"><ele>129.0</ele><time>2026-04-26T14:22:22Z</time></trkpt><trkpt lat="43.57385346206386" lon="13.392764482040036"><ele>129.0</ele><time>2026-04-26T14:22:23Z</time></trkpt><trkpt lat="43.57369702577199" lon="13.392804116186667"><ele>129.66666666666666</ele><time>2026-04-26T14:22:24Z</time></trkpt><trkpt lat="43.57353947592134" lon="13.392844737915437"><ele>130.33333333333331</ele><time>2026-04-26T14:22:25Z</time></trkpt><trkpt lat="43.57338238774221" lon="13.39288296508969"><ele>131.0</ele><time>2026-04-26T14:22:26Z</time></trkpt><trkpt lat="43.573230999532534" lon="13.392909390190015"><ele>131.0</ele><time>2026-04-26T14:22:27Z</time></trkpt><trkpt lat="43.57308891666636" lon="13.392927053663723"><ele>131.0</ele><time>2026-04-26T14:22:27.999Z</time></trkpt><trkpt lat="43.57295116881273" lon="13.392940047964936"><ele>131.0</ele><time>2026-04-26T14:22:28.999Z</time></trkpt><trkpt lat="43.57281530018678" lon="13.392951488187405"><ele>131.0</ele><time>2026-04-26T14:22:29.999Z</time></trkpt><trkpt lat="43.5726790806296" lon="13.392963126356658"><ele>129.5</ele><time>2026-04-26T14:22:30.999Z</time></trkpt><trkpt lat="43.5725432276228" lon="13.39297805809811"><ele>128.0</ele><time>2026-04-26T14:22:31.999Z</time></trkpt><trkpt lat="43.57240718550254" lon="13.392996896887983"><ele>126.5</ele><time>2026-04-26T14:22:32.999Z</time></trkpt><trkpt lat="43.57226656813772" lon="13.3930147188728"><ele>125.0</ele><time>2026-04-26T14:22:33.999Z</time></trkpt><trkpt lat="43.572119759619476" lon="13.39302904035359"><ele>125.0</ele><time>2026-04-26T14:22:34.999Z</time></trkpt><trkpt lat="43.57196784512053" lon="13.393039226247927"><ele>125.0</ele><time>2026-04-26T14:22:35.999Z</time></trkpt><trkpt lat="43.571809358728665" lon="13.39304669071321"><ele>125.0</ele><time>2026-04-26T14:22:36.999Z</time></trkpt><trkpt lat="43.571655641889286" lon="13.393055083134234"><ele>125.0</ele><time>2026-04-26T14:22:37.999Z</time></trkpt><trkpt lat="43.57151772361514" lon="13.39306063992287"><ele>125.0</ele><time>2026-04-26T14:22:38.999Z</time></trkpt><trkpt lat="43.57138731747051" lon="13.39305912338002"><ele>125.0</ele><time>2026-04-26T14:22:39.999Z</time></trkpt><trkpt lat="43.571257065284286" lon="13.393045562770082"><ele>125.0</ele><time>2026-04-26T14:22:40.999Z</time></trkpt><trkpt lat="43.57113218947881" lon="13.393021661037489"><ele>125.4</ele><time>2026-04-26T14:22:41.999Z</time></trkpt><trkpt lat="43.571020414605385" lon="13.392994701300001"><ele>125.8</ele><time>2026-04-26T14:22:42.999Z</time></trkpt><trkpt lat="43.57091591297266" lon="13.392980431630528"><ele>126.19999999999999</ele><time>2026-04-26T14:22:43.999Z</time></trkpt><trkpt lat="43.57081002381648" lon="13.392989956960387"><ele>126.6</ele><time>2026-04-26T14:22:44.999Z</time></trkpt><trkpt lat="43.57070568986371" lon="13.39301794383823"><ele>127.0</ele><time>2026-04-26T14:22:45.999Z</time></trkpt><trkpt lat="43.57059545605529" lon="13.393060508989905"><ele>127.0</ele><time>2026-04-26T14:22:46.999Z</time></trkpt><trkpt lat="43.57048277201139" lon="13.39310749035298"><ele>127.0</ele><time>2026-04-26T14:22:47.999Z</time></trkpt><trkpt lat="43.570366620548405" lon="13.393155404942041"><ele>127.0</ele><time>2026-04-26T14:22:48.999Z</time></trkpt><trkpt lat="43.57024973317633" lon="13.3932036753162"><ele>127.0</ele><time>2026-04-26T14:22:49.999Z</time></trkpt><trkpt lat="43.57012997523548" lon="13.39325190355725"><ele>128.25</ele><time>2026-04-26T14:22:50.999Z</time></trkpt><trkpt lat="43.570008507629694" lon="13.39329923722854"><ele>129.5</ele><time>2026-04-26T14:22:51.999Z</time></trkpt><trkpt lat="43.56988359197337" lon="13.393346391611422"><ele>130.75</ele><time>2026-04-26T14:22:52.999Z</time></trkpt><trkpt lat="43.5697594517077" lon="13.393397231724208"><ele>132.0</ele><time>2026-04-26T14:22:53.999Z</time></trkpt><trkpt lat="43.56963707039531" lon="13.393451177225813"><ele>133.5</ele><time>2026-04-26T14:22:54.999Z</time></trkpt><trkpt lat="43.56951354388228" lon="13.393504470936458"><ele>135.0</ele><time>2026-04-26T14:22:55.999Z</time></trkpt><trkpt lat="43.56938564263046" lon="13.3935497053203"><ele>136.5</ele><time>2026-04-26T14:22:56.999Z</time></trkpt><trkpt lat="43.56926008228387" lon="13.393598891837176"><ele>138.0</ele><time>2026-04-26T14:22:57.999Z</time></trkpt><trkpt lat="43.56913778812991" lon="13.39364824190986"><ele>138.0</ele><time>2026-04-26T14:22:58.999Z</time></trkpt><trkpt lat="43.569015523715485" lon="13.393700265339275"><ele>138.0</ele><time>2026-04-26T14:22:59.999Z</time></trkpt><trkpt lat="43.56889614029548" lon="13.393749964495266"><ele>138.0</ele><time>2026-04-26T14:23:00.999Z</time></trkpt><trkpt lat="43.56878909267247" lon="13.393792163292602"><ele>138.0</ele><time>2026-04-26T14:23:01.999Z</time></trkpt><trkpt lat="43.568698738575485" lon="13.393827047413682"><ele>138.5</ele><time>2026-04-26T14:23:02.999Z</time></trkpt><trkpt lat="43.56863345772831" lon="13.393853167145606"><ele>139.0</ele><time>2026-04-26T14:23:03.999Z</time></trkpt><trkpt lat="43.56856779757621" lon="13.393877791889297"><ele>139.5</ele><time>2026-04-26T14:23:04.999Z</time></trkpt><trkpt lat="43.568500227084044" lon="13.393905186112704"><ele>140.0</ele><time>2026-04-26T14:23:05.999Z</time></trkpt><trkpt lat="43.56842393713863" lon="13.3939481330545"><ele>140.5</ele><time>2026-04-26T14:23:06.999Z</time></trkpt><trkpt lat="43.56833775912791" lon="13.39399961492111"><ele>141.0</ele><time>2026-04-26T14:23:07.999Z</time></trkpt><trkpt lat="43.56823845542252" lon="13.39406063251555"><ele>141.0</ele><time>2026-04-26T14:23:08.999Z</time></trkpt><trkpt lat="43.56812636500311" lon="13.39413886645289"><ele>141.0</ele><time>2026-04-26T14:23:09.999Z</time></trkpt><trkpt lat="43.568020977953566" lon="13.394234540656193"><ele>141.0</ele><time>2026-04-26T14:23:10.999Z</time></trkpt><trkpt lat="43.56791892616549" lon="13.39434832172968"><ele>141.0</ele><time>2026-04-26T14:23:11.999Z</time></trkpt><trkpt lat="43.56782674193173" lon="13.394480548074934"><ele>140.25</ele><time>2026-04-26T14:23:12.999Z</time></trkpt><trkpt lat="43.5677471116912" lon="13.394629410058254"><ele>139.5</ele><time>2026-04-26T14:23:13.999Z</time></trkpt><trkpt lat="43.567687020598306" lon="13.394786470650377"><ele>138.75</ele><time>2026-04-26T14:23:14.999Z</time></trkpt><trkpt lat="43.567657017487804" lon="13.394966560089191"><ele>138.0</ele><time>2026-04-26T14:23:15.999Z</time></trkpt><trkpt lat="43.567643999245114" lon="13.395153114920046"><ele>138.0</ele><time>2026-04-26T14:23:16.999Z</time></trkpt><trkpt lat="43.567636131344415" lon="13.395345016992465"><ele>138.0</ele><time>2026-04-26T14:23:17.999Z</time></trkpt><trkpt lat="43.5676218663115" lon="13.395550217699016"><ele>138.0</ele><time>2026-04-26T14:23:18.999Z</time></trkpt><trkpt lat="43.56760910999536" lon="13.395756837564608"><ele>138.0</ele><time>2026-04-26T14:23:19.999Z</time></trkpt><trkpt lat="43.5676000071282" lon="13.395967982394877"><ele>138.33333333333334</ele><time>2026-04-26T14:23:20.998Z</time></trkpt><trkpt lat="43.567584381066624" lon="13.396189893909352"><ele>138.66666666666669</ele><time>2026-04-26T14:23:21.998Z</time></trkpt><trkpt lat="43.56756247994276" lon="13.39642053448048"><ele>139.0</ele><time>2026-04-26T14:23:22.998Z</time></trkpt><trkpt lat="43.56753980336603" lon="13.396655512456991"><ele>139.0</ele><time>2026-04-26T14:23:23.998Z</time></trkpt><trkpt lat="43.56751649808367" lon="13.39689816855964"><ele>139.0</ele><time>2026-04-26T14:23:24.998Z</time></trkpt><trkpt lat="43.56749099487011" lon="13.397143323255579"><ele>139.0</ele><time>2026-04-26T14:23:25.998Z</time></trkpt><trkpt lat="43.567462664920726" lon="13.397389484457834"><ele>138.66666666666669</ele><time>2026-04-26T14:23:26.998Z</time></trkpt><trkpt lat="43.56742933613238" lon="13.397625489848679"><ele>138.33333333333334</ele><time>2026-04-26T14:23:27.998Z</time></trkpt><trkpt lat="43.56738423192779" lon="13.397835162367917"><ele>138.0</ele><time>2026-04-26T14:23:28.998Z</time></trkpt><trkpt lat="43.56732517836779" lon="13.398028255463446"><ele>138.5</ele><time>2026-04-26T14:23:29.998Z</time></trkpt><trkpt lat="43.56725290034499" lon="13.398215219945232"><ele>139.0</ele><time>2026-04-26T14:23:30.998Z</time></trkpt><trkpt lat="43.56717720424153" lon="13.398379015931239"><ele>139.5</ele><time>2026-04-26T14:23:31.998Z</time></trkpt><trkpt lat="43.56709530359563" lon="13.398520736501359"><ele>140.0</ele><time>2026-04-26T14:23:32.998Z</time></trkpt><trkpt lat="43.56700761619233" lon="13.398655749799538"><ele>140.0</ele><time>2026-04-26T14:23:33.998Z</time></trkpt><trkpt lat="43.56690998085467" lon="13.398788504080217"><ele>140.0</ele><time>2026-04-26T14:23:34.998Z</time></trkpt><trkpt lat="43.56680517806247" lon="13.398911055737551"><ele>140.0</ele><time>2026-04-26T14:23:35.998Z</time></trkpt><trkpt lat="43.56669284824887" lon="13.399030353879846"><ele>140.0</ele><time>2026-04-26T14:23:36.998Z</time></trkpt><trkpt lat="43.566569858505105" lon="13.399146528868577"><ele>142.33333333333331</ele><time>2026-04-26T14:23:37.998Z</time></trkpt><trkpt lat="43.56643578910837" lon="13.39925249087547"><ele>144.66666666666666</ele><time>2026-04-26T14:23:38.998Z</time></trkpt><trkpt lat="43.56629424382577" lon="13.399344972307546"><ele>147.0</ele><time>2026-04-26T14:23:39.998Z</time></trkpt><trkpt lat="43.56614516271211" lon="13.3994297804645"><ele>147.0</ele><time>2026-04-26T14:23:40.998Z</time></trkpt><trkpt lat="43.5659917605565" lon="13.399495837623174"><ele>147.0</ele><time>2026-04-26T14:23:41.998Z</time></trkpt><trkpt lat="43.56583651191553" lon="13.399549683534229"><ele>147.0</ele><time>2026-04-26T14:23:42.998Z</time></trkpt><trkpt lat="43.565686427351224" lon="13.399595012330499"><ele>147.0</ele><time>2026-04-26T14:23:43.998Z</time></trkpt><trkpt lat="43.56554902088932" lon="13.399639219627922"><ele>147.0</ele><time>2026-04-26T14:23:44.998Z</time></trkpt><trkpt lat="43.565427477505516" lon="13.399679258560678"><ele>147.0</ele><time>2026-04-26T14:23:45.998Z</time></trkpt><trkpt lat="43.56532007081871" lon="13.399711590956365"><ele>147.0</ele><time>2026-04-26T14:23:46.998Z</time></trkpt><trkpt lat="43.56522312410745" lon="13.399738908024448"><ele>150.2</ele><time>2026-04-26T14:23:47.998Z</time></trkpt><trkpt lat="43.56514095812772" lon="13.39975728558315"><ele>153.39999999999998</ele><time>2026-04-26T14:23:48.998Z</time></trkpt><trkpt lat="43.56503911695775" lon="13.399775216179062"><ele>156.60000000000002</ele><time>2026-04-26T14:23:50.998Z</time></trkpt><trkpt lat="43.5649409248543" lon="13.399776251296842"><ele>159.8</ele><time>2026-04-26T14:23:53.998Z</time></trkpt><trkpt lat="43.564875436445796" lon="13.399777901181615"><ele>163.0</ele><time>2026-04-26T14:23:55.998Z</time></trkpt><trkpt lat="43.56485873615162" lon="13.399941825122069"><ele>163.0</ele><time>2026-04-26T14:23:57.998Z</time></trkpt><trkpt lat="43.56487041623795" lon="13.400051431773917"><ele>163.0</ele><time>2026-04-26T14:23:59.998Z</time></trkpt><trkpt lat="43.56488543248016" lon="13.400149206521236"><ele>163.0</ele><time>2026-04-26T14:24:02Z</time></trkpt><trkpt lat="43.564893681701285" lon="13.400257513754944"><ele>163.0</ele><time>2026-04-26T14:24:04Z</time></trkpt><trkpt lat="43.56490818024508" lon="13.40039552348407"><ele>163.0</ele><time>2026-04-26T14:24:06Z</time></trkpt><trkpt lat="43.564920193822324" lon="13.400541605141818"><ele>163.0</ele><time>2026-04-26T14:24:08Z</time></trkpt><trkpt lat="43.564913659824185" lon="13.4006813617425"><ele>161.16666666666669</ele><time>2026-04-26T14:24:10Z</time></trkpt><trkpt lat="43.56489452135084" lon="13.400828454530748"><ele>159.33333333333334</ele><time>2026-04-26T14:24:12Z</time></trkpt><trkpt lat="43.56488665133792" lon="13.400990114166177"><ele>157.5</ele><time>2026-04-26T14:24:14Z</time></trkpt><trkpt lat="43.564879663551956" lon="13.401080288155661"><ele>155.66666666666666</ele><time>2026-04-26T14:24:15Z</time></trkpt><trkpt lat="43.56486977866932" lon="13.401178715943132"><ele>153.83333333333331</ele><time>2026-04-26T14:24:16Z</time></trkpt><trkpt lat="43.56486133781318" lon="13.401281291244395"><ele>152.0</ele><time>2026-04-26T14:24:17Z</time></trkpt><trkpt lat="43.56485225626004" lon="13.40139211995971"><ele>149.66666666666666</ele><time>2026-04-26T14:24:18Z</time></trkpt><trkpt lat="43.56484579698509" lon="13.40150482368657"><ele>147.33333333333331</ele><time>2026-04-26T14:24:19Z</time></trkpt><trkpt lat="43.5648411433344" lon="13.401616157515463"><ele>145.0</ele><time>2026-04-26T14:24:20Z</time></trkpt><trkpt lat="43.56483969292316" lon="13.40171996066967"><ele>142.66666666666666</ele><time>2026-04-26T14:24:21Z</time></trkpt><trkpt lat="43.564840814118256" lon="13.401813559632657"><ele>140.33333333333334</ele><time>2026-04-26T14:24:22Z</time></trkpt><trkpt lat="43.56484787085273" lon="13.40190094505073"><ele>138.0</ele><time>2026-04-26T14:24:23Z</time></trkpt><trkpt lat="43.56489018724397" lon="13.402073241287697"><ele>138.0</ele><time>2026-04-26T14:24:25Z</time></trkpt><trkpt lat="43.56492252971976" lon="13.402163729930324"><ele>138.0</ele><time>2026-04-26T14:24:26Z</time></trkpt><trkpt lat="43.56495573786276" lon="13.402244649593008"><ele>138.0</ele><time>2026-04-26T14:24:27Z</time></trkpt><trkpt lat="43.5649910498462" lon="13.402321653423025"><ele>138.0</ele><time>2026-04-26T14:24:28Z</time></trkpt><trkpt lat="43.56503003658526" lon="13.402478710395588"><ele>138.0</ele><time>2026-04-26T14:24:30Z</time></trkpt><trkpt lat="43.565003347360616" lon="13.402636499001567"><ele>138.0</ele><time>2026-04-26T14:24:32Z</time></trkpt><trkpt lat="43.56497231698873" lon="13.402719017376533"><ele>138.16666666666666</ele><time>2026-04-26T14:24:33Z</time></trkpt><trkpt lat="43.56493278732235" lon="13.402787532101993"><ele>138.33333333333334</ele><time>2026-04-26T14:24:33.999Z</time></trkpt><trkpt lat="43.564876119567984" lon="13.402850772740347"><ele>138.5</ele><time>2026-04-26T14:24:34.999Z</time></trkpt><trkpt lat="43.56481659310377" lon="13.402925506676185"><ele>138.66666666666669</ele><time>2026-04-26T14:24:35.999Z</time></trkpt><trkpt lat="43.56475288643183" lon="13.403004751457258"><ele>138.83333333333334</ele><time>2026-04-26T14:24:36.999Z</time></trkpt><trkpt lat="43.564691982381426" lon="13.40307905076729"><ele>139.0</ele><time>2026-04-26T14:24:37.999Z</time></trkpt><trkpt lat="43.564632298920806" lon="13.403147656097293"><ele>139.8</ele><time>2026-04-26T14:24:38.999Z</time></trkpt><trkpt lat="43.56457417280604" lon="13.403220983972604"><ele>140.60000000000002</ele><time>2026-04-26T14:24:39.999Z</time></trkpt><trkpt lat="43.56452415248588" lon="13.40329648733437"><ele>141.4</ele><time>2026-04-26T14:24:40.999Z</time></trkpt><trkpt lat="43.56448216196749" lon="13.40336737719973"><ele>142.20000000000002</ele><time>2026-04-26T14:24:41.999Z</time></trkpt><trkpt lat="43.564395044154374" lon="13.403477369648412"><ele>143.0</ele><time>2026-04-26T14:24:43.999Z</time></trkpt><trkpt lat="43.56428659108855" lon="13.403604953551593"><ele>141.83333333333331</ele><time>2026-04-26T14:24:45.999Z</time></trkpt><trkpt lat="43.56421707609942" lon="13.403676659920114"><ele>140.66666666666666</ele><time>2026-04-26T14:24:46.999Z</time></trkpt><trkpt lat="43.564153578605904" lon="13.403753453762368"><ele>139.5</ele><time>2026-04-26T14:24:47.999Z</time></trkpt><trkpt lat="43.56408786450198" lon="13.403828672087515"><ele>138.33333333333334</ele><time>2026-04-26T14:24:48.999Z</time></trkpt><trkpt lat="43.5640193035849" lon="13.403902135110656"><ele>137.16666666666669</ele><time>2026-04-26T14:24:49.999Z</time></trkpt><trkpt lat="43.56395327676569" lon="13.40398005468722"><ele>136.0</ele><time>2026-04-26T14:24:50.999Z</time></trkpt><trkpt lat="43.563883493610575" lon="13.404055651291138"><ele>136.0</ele><time>2026-04-26T14:24:51.999Z</time></trkpt><trkpt lat="43.56381314436324" lon="13.404122742073008"><ele>136.0</ele><time>2026-04-26T14:24:52.999Z</time></trkpt><trkpt lat="43.5637440479221" lon="13.404190859101506"><ele>136.0</ele><time>2026-04-26T14:24:53.999Z</time></trkpt><trkpt lat="43.56367501660102" lon="13.404249766937602"><ele>136.0</ele><time>2026-04-26T14:24:54.999Z</time></trkpt><trkpt lat="43.5636194305373" lon="13.404310586656651"><ele>136.0</ele><time>2026-04-26T14:24:55.999Z</time></trkpt><trkpt lat="43.563559187921186" lon="13.404370750170225"><ele>136.0</ele><time>2026-04-26T14:24:56.999Z</time></trkpt><trkpt lat="43.56349111987448" lon="13.404448581359851"><ele>134.8</ele><time>2026-04-26T14:24:57.999Z</time></trkpt><trkpt lat="43.56342910441074" lon="13.404518260793008"><ele>133.6</ele><time>2026-04-26T14:24:58.999Z</time></trkpt><trkpt lat="43.56330377769013" lon="13.404642628208105"><ele>132.4</ele><time>2026-04-26T14:25:00.999Z</time></trkpt><trkpt lat="43.56324798082258" lon="13.404723437357477"><ele>131.2</ele><time>2026-04-26T14:25:01.999Z</time></trkpt><trkpt lat="43.56317796570336" lon="13.40481295825097"><ele>130.0</ele><time>2026-04-26T14:25:02.999Z</time></trkpt><trkpt lat="43.563103593121276" lon="13.40491455366088"><ele>130.0</ele><time>2026-04-26T14:25:03.999Z</time></trkpt><trkpt lat="43.563034025129674" lon="13.405005514145957"><ele>130.0</ele><time>2026-04-26T14:25:04.999Z</time></trkpt><trkpt lat="43.562962461514395" lon="13.405082088258881"><ele>130.0</ele><time>2026-04-26T14:25:05.999Z</time></trkpt><trkpt lat="43.56289542928097" lon="13.405155801260896"><ele>130.0</ele><time>2026-04-26T14:25:06.999Z</time></trkpt><trkpt lat="43.56282933736117" lon="13.405221598817867"><ele>130.0</ele><time>2026-04-26T14:25:07.999Z</time></trkpt><trkpt lat="43.56276948540529" lon="13.405290441591427"><ele>130.0</ele><time>2026-04-26T14:25:08.999Z</time></trkpt><trkpt lat="43.562716724412255" lon="13.405364463708962"><ele>128.66666666666669</ele><time>2026-04-26T14:25:09.999Z</time></trkpt><trkpt lat="43.56265449661524" lon="13.405406390950985"><ele>127.33333333333334</ele><time>2026-04-26T14:25:10.999Z</time></trkpt><trkpt lat="43.5626006522063" lon="13.405469760720464"><ele>126.0</ele><time>2026-04-26T14:25:11.999Z</time></trkpt><trkpt lat="43.562563028734154" lon="13.405550033290618"><ele>124.66666666666666</ele><time>2026-04-26T14:25:12.999Z</time></trkpt><trkpt lat="43.562466554718064" lon="13.405660875960109"><ele>123.33333333333333</ele><time>2026-04-26T14:25:14.999Z</time></trkpt><trkpt lat="43.56240495770919" lon="13.405719294958056"><ele>122.0</ele><time>2026-04-26T14:25:15.999Z</time></trkpt><trkpt lat="43.56233630139479" lon="13.405772571793038"><ele>121.99999999999999</ele><time>2026-04-26T14:25:16.999Z</time></trkpt><trkpt lat="43.56226816663333" lon="13.405825452962143"><ele>122.0</ele><time>2026-04-26T14:25:17.999Z</time></trkpt><trkpt lat="43.5622106899536" lon="13.405872382569397"><ele>122.0</ele><time>2026-04-26T14:25:18.999Z</time></trkpt><trkpt lat="43.56215344826689" lon="13.405914032538579"><ele>122.0</ele><time>2026-04-26T14:25:19.999Z</time></trkpt><trkpt lat="43.56205282331983" lon="13.406004063870563"><ele>121.99999999999999</ele><time>2026-04-26T14:25:21.999Z</time></trkpt><trkpt lat="43.562003631678664" lon="13.406061798187372"><ele>122.0</ele><time>2026-04-26T14:25:22.999Z</time></trkpt><trkpt lat="43.56189794743706" lon="13.406151139537302"><ele>121.8</ele><time>2026-04-26T14:25:24.998Z</time></trkpt><trkpt lat="43.5618212907299" lon="13.406257284499429"><ele>121.6</ele><time>2026-04-26T14:25:26.998Z</time></trkpt><trkpt lat="43.56173486363962" lon="13.406357142157903"><ele>121.39999999999999</ele><time>2026-04-26T14:25:28.998Z</time></trkpt><trkpt lat="43.5616577392101" lon="13.40643639628413"><ele>121.19999999999999</ele><time>2026-04-26T14:25:30.998Z</time></trkpt><trkpt lat="43.56157381899555" lon="13.406530888111055"><ele>121.0</ele><time>2026-04-26T14:25:32.998Z</time></trkpt><trkpt lat="43.56148104943387" lon="13.406631780852521"><ele>121.0</ele><time>2026-04-26T14:25:34.998Z</time></trkpt><trkpt lat="43.561433932203016" lon="13.40668978205084"><ele>120.99999999999999</ele><time>2026-04-26T14:25:35.998Z</time></trkpt><trkpt lat="43.561386766049615" lon="13.406759648823325"><ele>121.0</ele><time>2026-04-26T14:25:36.998Z</time></trkpt><trkpt lat="43.561340477073294" lon="13.406837187693933"><ele>121.0</ele><time>2026-04-26T14:25:37.998Z</time></trkpt><trkpt lat="43.561296982568344" lon="13.406923489584445"><ele>120.99999999999999</ele><time>2026-04-26T14:25:38.998Z</time></trkpt><trkpt lat="43.561254379709666" lon="13.407007881520737"><ele>121.0</ele><time>2026-04-26T14:25:39.998Z</time></trkpt><trkpt lat="43.5612156749212" lon="13.407097480539214"><ele>121.0</ele><time>2026-04-26T14:25:40.998Z</time></trkpt><trkpt lat="43.56117151657876" lon="13.407183799011214"><ele>118.57142857142857</ele><time>2026-04-26T14:25:41.998Z</time></trkpt><trkpt lat="43.561120313734165" lon="13.407265763362663"><ele>116.14285714285714</ele><time>2026-04-26T14:25:42.998Z</time></trkpt><trkpt lat="43.561061058963" lon="13.407331558676265"><ele>113.71428571428571</ele><time>2026-04-26T14:25:43.998Z</time></trkpt><trkpt lat="43.56098657590643" lon="13.407373233952809"><ele>111.28571428571428</ele><time>2026-04-26T14:25:44.998Z</time></trkpt><trkpt lat="43.56091475773478" lon="13.407399125189933"><ele>108.85714285714286</ele><time>2026-04-26T14:25:45.998Z</time></trkpt><trkpt lat="43.56084879823921" lon="13.407427849230901"><ele>106.42857142857142</ele><time>2026-04-26T14:25:46.998Z</time></trkpt><trkpt lat="43.560783300747936" lon="13.407455513251245"><ele>104.0</ele><time>2026-04-26T14:25:47.998Z</time></trkpt><trkpt lat="43.5607151396503" lon="13.407486973263572"><ele>103.99999999999999</ele><time>2026-04-26T14:25:48.998Z</time></trkpt><trkpt lat="43.560645212563166" lon="13.407513899019413"><ele>104.0</ele><time>2026-04-26T14:25:49.998Z</time></trkpt><trkpt lat="43.56057917009889" lon="13.407546629192389"><ele>104.0</ele><time>2026-04-26T14:25:50.998Z</time></trkpt><trkpt lat="43.560495169578076" lon="13.407588596458279"><ele>104.0</ele><time>2026-04-26T14:25:51.998Z</time></trkpt><trkpt lat="43.56042035317303" lon="13.407631519651206"><ele>103.99999999999999</ele><time>2026-04-26T14:25:52.998Z</time></trkpt><trkpt lat="43.56034688493161" lon="13.407679531499994"><ele>104.0</ele><time>2026-04-26T14:25:53.998Z</time></trkpt><trkpt lat="43.56027569631163" lon="13.407726434212313"><ele>101.28571428571428</ele><time>2026-04-26T14:25:54.998Z</time></trkpt><trkpt lat="43.560206470945175" lon="13.407773448421516"><ele>98.57142857142858</ele><time>2026-04-26T14:25:55.998Z</time></trkpt><trkpt lat="43.56013093548202" lon="13.407815121799738"><ele>95.85714285714286</ele><time>2026-04-26T14:25:56.998Z</time></trkpt><trkpt lat="43.56006359826721" lon="13.407856182514536"><ele>93.14285714285714</ele><time>2026-04-26T14:25:57.998Z</time></trkpt><trkpt lat="43.55999748859385" lon="13.407892677304854"><ele>90.42857142857142</ele><time>2026-04-26T14:25:58.998Z</time></trkpt><trkpt lat="43.5599292876393" lon="13.407928405165336"><ele>87.71428571428572</ele><time>2026-04-26T14:25:59.998Z</time></trkpt><trkpt lat="43.55986662048644" lon="13.407978957963731"><ele>85.0</ele><time>2026-04-26T14:26:00.998Z</time></trkpt><trkpt lat="43.55980543170871" lon="13.408044754992876"><ele>84.83333333333333</ele><time>2026-04-26T14:26:01.998Z</time></trkpt><trkpt lat="43.559757333060915" lon="13.408123935494979"><ele>84.66666666666666</ele><time>2026-04-26T14:26:02.998Z</time></trkpt><trkpt lat="43.55970387557345" lon="13.40819011850286"><ele>84.5</ele><time>2026-04-26T14:26:03.998Z</time></trkpt><trkpt lat="43.55965403024337" lon="13.408251992578618"><ele>84.33333333333333</ele><time>2026-04-26T14:26:04.998Z</time></trkpt><trkpt lat="43.55957582309698" lon="13.408352742672951"><ele>84.16666666666667</ele><time>2026-04-26T14:26:07Z</time></trkpt><trkpt lat="43.55950700179374" lon="13.40837164127104"><ele>84.0</ele><time>2026-04-26T14:26:11Z</time></trkpt><trkpt lat="43.55944871574731" lon="13.408299366712923"><ele>82.83333333333333</ele><time>2026-04-26T14:26:13Z</time></trkpt><trkpt lat="43.559415700801544" lon="13.408214487749193"><ele>81.66666666666667</ele><time>2026-04-26T14:26:14Z</time></trkpt><trkpt lat="43.55937668489911" lon="13.408118134913476"><ele>80.5</ele><time>2026-04-26T14:26:15Z</time></trkpt><trkpt lat="43.55933244343265" lon="13.408018955702664"><ele>79.33333333333334</ele><time>2026-04-26T14:26:16Z</time></trkpt><trkpt lat="43.55927864559309" lon="13.407905194443469"><ele>78.16666666666667</ele><time>2026-04-26T14:26:17Z</time></trkpt><trkpt lat="43.55922025794282" lon="13.407774625487956"><ele>77.0</ele><time>2026-04-26T14:26:18Z</time></trkpt><trkpt lat="43.55915680305922" lon="13.407636498726053"><ele>77.0</ele><time>2026-04-26T14:26:19Z</time></trkpt><trkpt lat="43.55909302438285" lon="13.407497040813212"><ele>77.0</ele><time>2026-04-26T14:26:20Z</time></trkpt><trkpt lat="43.559023274149745" lon="13.407346567222321"><ele>77.0</ele><time>2026-04-26T14:26:21Z</time></trkpt><trkpt lat="43.55894829509344" lon="13.407193694815335"><ele>77.0</ele><time>2026-04-26T14:26:22Z</time></trkpt><trkpt lat="43.558874209483186" lon="13.407031312380134"><ele>76.75</ele><time>2026-04-26T14:26:23Z</time></trkpt><trkpt lat="43.558798482324754" lon="13.40686357221994"><ele>76.5</ele><time>2026-04-26T14:26:24Z</time></trkpt><trkpt lat="43.558719282385994" lon="13.406691614187766"><ele>76.25</ele><time>2026-04-26T14:26:25Z</time></trkpt><trkpt lat="43.558642937189965" lon="13.406527750706003"><ele>76.0</ele><time>2026-04-26T14:26:26Z</time></trkpt><trkpt lat="43.55857454663469" lon="13.40637571901667"><ele>76.8</ele><time>2026-04-26T14:26:27Z</time></trkpt><trkpt lat="43.558510755230635" lon="13.406236409400309"><ele>77.6</ele><time>2026-04-26T14:26:28Z</time></trkpt><trkpt lat="43.558453616384384" lon="13.40610698878634"><ele>78.4</ele><time>2026-04-26T14:26:29Z</time></trkpt><trkpt lat="43.558406270780914" lon="13.405985106679044"><ele>79.2</ele><time>2026-04-26T14:26:30Z</time></trkpt><trkpt lat="43.55836728228946" lon="13.405871859989121"><ele>80.0</ele><time>2026-04-26T14:26:31Z</time></trkpt><trkpt lat="43.55833789573904" lon="13.405769680096112"><ele>80.0</ele><time>2026-04-26T14:26:32Z</time></trkpt><trkpt lat="43.55830863654978" lon="13.405688873377992"><ele>80.0</ele><time>2026-04-26T14:26:33Z</time></trkpt><trkpt lat="43.55829334898781" lon="13.405588774021155"><ele>80.0</ele><time>2026-04-26T14:26:34.999Z</time></trkpt><trkpt lat="43.558182745667295" lon="13.405641309099948"><ele>80.0</ele><time>2026-04-26T14:26:35.999Z</time></trkpt><trkpt lat="43.558096955530466" lon="13.40571674911714"><ele>80.0</ele><time>2026-04-26T14:26:37.999Z</time></trkpt><trkpt lat="43.55802317888609" lon="13.405778633132584"><ele>80.0</ele><time>2026-04-26T14:26:39.999Z</time></trkpt><trkpt lat="43.55794080580695" lon="13.405851260195883"><ele>80.0</ele><time>2026-04-26T14:26:42.999Z</time></trkpt><trkpt lat="43.55787708610592" lon="13.405937698406191"><ele>80.0</ele><time>2026-04-26T14:26:44.999Z</time></trkpt><trkpt lat="43.557813106847256" lon="13.406043873363574"><ele>80.0</ele><time>2026-04-26T14:26:46.999Z</time></trkpt><trkpt lat="43.55776020768336" lon="13.406176783047224"><ele>80.0</ele><time>2026-04-26T14:26:48.999Z</time></trkpt><trkpt lat="43.557717886946335" lon="13.406317879445334"><ele>80.0</ele><time>2026-04-26T14:26:50.999Z</time></trkpt><trkpt lat="43.55767409387914" lon="13.406464645712788"><ele>80.25</ele><time>2026-04-26T14:26:52.999Z</time></trkpt><trkpt lat="43.557627382328604" lon="13.406616516176106"><ele>80.5</ele><time>2026-04-26T14:26:54.999Z</time></trkpt><trkpt lat="43.55755477838905" lon="13.40674244636735"><ele>80.75</ele><time>2026-04-26T14:26:56.999Z</time></trkpt><trkpt lat="43.55745972104353" lon="13.40681796900388"><ele>81.0</ele><time>2026-04-26T14:26:58.999Z</time></trkpt><trkpt lat="43.55736269318661" lon="13.406892798436498"><ele>81.0</ele><time>2026-04-26T14:27:00.999Z</time></trkpt><trkpt lat="43.55727391840645" lon="13.406982281993129"><ele>81.0</ele><time>2026-04-26T14:27:02.999Z</time></trkpt><trkpt lat="43.55717473925563" lon="13.407058054947877"><ele>81.0</ele><time>2026-04-26T14:27:04.999Z</time></trkpt><trkpt lat="43.55707219396272" lon="13.40712543386862"><ele>81.0</ele><time>2026-04-26T14:27:06.999Z</time></trkpt><trkpt lat="43.55697467471851" lon="13.407187765395888"><ele>81.0</ele><time>2026-04-26T14:27:08.999Z</time></trkpt><trkpt lat="43.55686840980863" lon="13.407257756538353"><ele>87.0</ele><time>2026-04-26T14:27:10.999Z</time></trkpt><trkpt lat="43.556767449081356" lon="13.407331239516706"><ele>93.0</ele><time>2026-04-26T14:27:12.999Z</time></trkpt><trkpt lat="43.55666777106156" lon="13.40741041881158"><ele>99.0</ele><time>2026-04-26T14:27:14.999Z</time></trkpt><trkpt lat="43.55657387175638" lon="13.407515814916211"><ele>105.0</ele><time>2026-04-26T14:27:16.999Z</time></trkpt><trkpt lat="43.55651129340815" lon="13.40764778041896"><ele>105.0</ele><time>2026-04-26T14:27:18.999Z</time></trkpt><trkpt lat="43.55646943186573" lon="13.407813448560576"><ele>105.0</ele><time>2026-04-26T14:27:20.999Z</time></trkpt><trkpt lat="43.55645270338324" lon="13.407903891404613"><ele>105.0</ele><time>2026-04-26T14:27:21.999Z</time></trkpt><trkpt lat="43.5564336420694" lon="13.40800028559022"><ele>105.0</ele><time>2026-04-26T14:27:22.999Z</time></trkpt><trkpt lat="43.556415656379144" lon="13.408088438111612"><ele>105.0</ele><time>2026-04-26T14:27:23.998Z</time></trkpt><trkpt lat="43.556390465669445" lon="13.40825497682498"><ele>106.2</ele><time>2026-04-26T14:27:25.998Z</time></trkpt><trkpt lat="43.556364342400315" lon="13.408422372017482"><ele>107.4</ele><time>2026-04-26T14:27:27.998Z</time></trkpt><trkpt lat="43.55635134213086" lon="13.408591078368003"><ele>108.6</ele><time>2026-04-26T14:27:29.998Z</time></trkpt><trkpt lat="43.556361549489374" lon="13.408686911593144"><ele>109.8</ele><time>2026-04-26T14:27:30.998Z</time></trkpt><trkpt lat="43.556379777630994" lon="13.408783665140877"><ele>111.0</ele><time>2026-04-26T14:27:31.998Z</time></trkpt><trkpt lat="43.55637998397367" lon="13.408886097596318"><ele>112.57142857142857</ele><time>2026-04-26T14:27:32.998Z</time></trkpt><trkpt lat="43.55639800513427" lon="13.408983328598723"><ele>114.14285714285714</ele><time>2026-04-26T14:27:33.998Z</time></trkpt><trkpt lat="43.55643297046019" lon="13.409076060511643"><ele>115.71428571428571</ele><time>2026-04-26T14:27:34.998Z</time></trkpt><trkpt lat="43.556451963586966" lon="13.409170902164124"><ele>117.28571428571428</ele><time>2026-04-26T14:27:35.998Z</time></trkpt><trkpt lat="43.55646998300472" lon="13.409262625391348"><ele>118.85714285714286</ele><time>2026-04-26T14:27:36.998Z</time></trkpt><trkpt lat="43.55648879491444" lon="13.409352650904099"><ele>120.42857142857142</ele><time>2026-04-26T14:27:37.998Z</time></trkpt><trkpt lat="43.55650894998195" lon="13.409444619447891"><ele>121.99999999999999</ele><time>2026-04-26T14:27:38.998Z</time></trkpt><trkpt lat="43.55652754898743" lon="13.409537780781601"><ele>121.99999999999999</ele><time>2026-04-26T14:27:39.998Z</time></trkpt><trkpt lat="43.5565597170471" lon="13.409629416100806"><ele>122.0</ele><time>2026-04-26T14:27:40.998Z</time></trkpt><trkpt lat="43.556582130775965" lon="13.409727171074309"><ele>122.0</ele><time>2026-04-26T14:27:41.998Z</time></trkpt><trkpt lat="43.556609771686816" lon="13.409824342296451"><ele>122.0</ele><time>2026-04-26T14:27:42.998Z</time></trkpt><trkpt lat="43.556632367638294" lon="13.409922883044665"><ele>121.99999999999999</ele><time>2026-04-26T14:27:43.998Z</time></trkpt><trkpt lat="43.55665593074751" lon="13.410025964170789"><ele>122.0</ele><time>2026-04-26T14:27:44.998Z</time></trkpt><trkpt lat="43.5566846221947" lon="13.410120771102148"><ele>123.99999999999999</ele><time>2026-04-26T14:27:45.998Z</time></trkpt><trkpt lat="43.55670344962945" lon="13.410209991983711"><ele>126.0</ele><time>2026-04-26T14:27:46.998Z</time></trkpt><trkpt lat="43.55671711313051" lon="13.41029665298725"><ele>128.0</ele><time>2026-04-26T14:27:47.998Z</time></trkpt><trkpt lat="43.55674167837273" lon="13.410464515829034"><ele>130.0</ele><time>2026-04-26T14:27:49.998Z</time></trkpt><trkpt lat="43.55675762937529" lon="13.410637031565631"><ele>132.0</ele><time>2026-04-26T14:27:51.998Z</time></trkpt><trkpt lat="43.55676811328299" lon="13.410726379301211"><ele>134.0</ele><time>2026-04-26T14:27:52.998Z</time></trkpt><trkpt lat="43.55678364108912" lon="13.41081793355277"><ele>135.5</ele><time>2026-04-26T14:27:53.998Z</time></trkpt><trkpt lat="43.55680779367736" lon="13.410901112066497"><ele>137.0</ele><time>2026-04-26T14:27:54.998Z</time></trkpt><trkpt lat="43.556829189697986" lon="13.410990952235197"><ele>138.5</ele><time>2026-04-26T14:27:55.998Z</time></trkpt><trkpt lat="43.55684347683741" lon="13.411086915812694"><ele>140.0</ele><time>2026-04-26T14:27:56.998Z</time></trkpt><trkpt lat="43.556859798220664" lon="13.411181794598635"><ele>141.5</ele><time>2026-04-26T14:27:57.998Z</time></trkpt><trkpt lat="43.55687560751697" lon="13.411267321635572"><ele>143.0</ele><time>2026-04-26T14:27:58.998Z</time></trkpt><trkpt lat="43.556908139351535" lon="13.411421475724426"><ele>144.8</ele><time>2026-04-26T14:28:00.998Z</time></trkpt><trkpt lat="43.556933038324686" lon="13.411589833593677"><ele>146.60000000000002</ele><time>2026-04-26T14:28:02.998Z</time></trkpt><trkpt lat="43.5569432408329" lon="13.411680843563103"><ele>148.39999999999998</ele><time>2026-04-26T14:28:03.998Z</time></trkpt><trkpt lat="43.55695853309032" lon="13.411855952855587"><ele>150.2</ele><time>2026-04-26T14:28:05.998Z</time></trkpt><trkpt lat="43.55696291734976" lon="13.411948569748393"><ele>152.0</ele><time>2026-04-26T14:28:06.998Z</time></trkpt><trkpt lat="43.55696532724695" lon="13.412039703146498"><ele>154.39999999999998</ele><time>2026-04-26T14:28:07.998Z</time></trkpt><trkpt lat="43.556968178237476" lon="13.412210216660682"><ele>156.79999999999998</ele><time>2026-04-26T14:28:09.998Z</time></trkpt><trkpt lat="43.556965823522155" lon="13.412388077434459"><ele>159.2</ele><time>2026-04-26T14:28:12Z</time></trkpt><trkpt lat="43.55695772899694" lon="13.412478161642268"><ele>161.6</ele><time>2026-04-26T14:28:13Z</time></trkpt><trkpt lat="43.55695656000534" lon="13.412569609420698"><ele>164.0</ele><time>2026-04-26T14:28:14Z</time></trkpt><trkpt lat="43.55695249070145" lon="13.412662887612058"><ele>164.0</ele><time>2026-04-26T14:28:15Z</time></trkpt><trkpt lat="43.55694772656327" lon="13.412757856938185"><ele>164.0</ele><time>2026-04-26T14:28:16Z</time></trkpt><trkpt lat="43.55694402161391" lon="13.412849508147856"><ele>164.0</ele><time>2026-04-26T14:28:17Z</time></trkpt><trkpt lat="43.55693759897529" lon="13.413015765421386"><ele>164.0</ele><time>2026-04-26T14:28:19Z</time></trkpt><trkpt lat="43.55692500067304" lon="13.413188252467362"><ele>164.0</ele><time>2026-04-26T14:28:21Z</time></trkpt><trkpt lat="43.55691758067686" lon="13.413282739934335"><ele>166.39999999999998</ele><time>2026-04-26T14:28:22Z</time></trkpt><trkpt lat="43.55690859324605" lon="13.413381598824053"><ele>168.8</ele><time>2026-04-26T14:28:23Z</time></trkpt><trkpt lat="43.556903074838026" lon="13.41353261248775"><ele>171.2</ele><time>2026-04-26T14:28:25Z</time></trkpt><trkpt lat="43.55687707364212" lon="13.41370870894422"><ele>173.60000000000002</ele><time>2026-04-26T14:28:27Z</time></trkpt><trkpt lat="43.55686183306015" lon="13.413817630561296"><ele>176.0</ele><time>2026-04-26T14:28:28Z</time></trkpt><trkpt lat="43.55684768630019" lon="13.413933224066648"><ele>177.42857142857144</ele><time>2026-04-26T14:28:29Z</time></trkpt><trkpt lat="43.55683153640191" lon="13.414046875067823"><ele>178.85714285714286</ele><time>2026-04-26T14:28:30Z</time></trkpt><trkpt lat="43.55681440197277" lon="13.414154472353074"><ele>180.28571428571428</ele><time>2026-04-26T14:28:31Z</time></trkpt><trkpt lat="43.55679758184141" lon="13.414255353081078"><ele>181.71428571428572</ele><time>2026-04-26T14:28:32Z</time></trkpt><trkpt lat="43.556780601574076" lon="13.414351258887027"><ele>183.14285714285714</ele><time>2026-04-26T14:28:33Z</time></trkpt><trkpt lat="43.55676192225701" lon="13.41444076967591"><ele>184.57142857142858</ele><time>2026-04-26T14:28:34Z</time></trkpt><trkpt lat="43.55674251064699" lon="13.41453397313636"><ele>186.0</ele><time>2026-04-26T14:28:34.999Z</time></trkpt><trkpt lat="43.55672301192758" lon="13.414632377061045"><ele>187.14285714285717</ele><time>2026-04-26T14:28:35.999Z</time></trkpt><trkpt lat="43.55670270505791" lon="13.414734242986672"><ele>188.28571428571428</ele><time>2026-04-26T14:28:36.999Z</time></trkpt><trkpt lat="43.55667791847748" lon="13.414839726015304"><ele>189.42857142857144</ele><time>2026-04-26T14:28:37.999Z</time></trkpt><trkpt lat="43.55665225261168" lon="13.4149408865792"><ele>190.57142857142858</ele><time>2026-04-26T14:28:38.999Z</time></trkpt><trkpt lat="43.55662757104965" lon="13.415035961482419"><ele>191.71428571428572</ele><time>2026-04-26T14:28:39.999Z</time></trkpt><trkpt lat="43.55660389122937" lon="13.415129936548567"><ele>192.85714285714286</ele><time>2026-04-26T14:28:40.999Z</time></trkpt><trkpt lat="43.55658354555786" lon="13.415221374147714"><ele>194.0</ele><time>2026-04-26T14:28:41.999Z</time></trkpt><trkpt lat="43.55655967955966" lon="13.415306382287786"><ele>194.0</ele><time>2026-04-26T14:28:42.999Z</time></trkpt><trkpt lat="43.55652701154868" lon="13.415384546401153"><ele>194.0</ele><time>2026-04-26T14:28:43.999Z</time></trkpt><trkpt lat="43.55647185928594" lon="13.415442214359674"><ele>194.0</ele><time>2026-04-26T14:28:44.999Z</time></trkpt><trkpt lat="43.55643666031238" lon="13.415519694213753"><ele>194.0</ele><time>2026-04-26T14:28:45.999Z</time></trkpt><trkpt lat="43.556375000787035" lon="13.415595605107045"><ele>194.0</ele><time>2026-04-26T14:28:46.999Z</time></trkpt><trkpt lat="43.556322583909306" lon="13.415680959109219"><ele>194.0</ele><time>2026-04-26T14:28:47.999Z</time></trkpt><trkpt lat="43.55627811644177" lon="13.41577611330465"><ele>194.0</ele><time>2026-04-26T14:28:48.999Z</time></trkpt><trkpt lat="43.556238720070894" lon="13.415869478317262"><ele>194.00000000000003</ele><time>2026-04-26T14:28:49.999Z</time></trkpt><trkpt lat="43.556211126732634" lon="13.41596485718087"><ele>194.0</ele><time>2026-04-26T14:28:50.999Z</time></trkpt><trkpt lat="43.556194696738046" lon="13.416065895279118"><ele>194.0</ele><time>2026-04-26T14:28:51.999Z</time></trkpt><trkpt lat="43.556185291168184" lon="13.41617757722063"><ele>194.0</ele><time>2026-04-26T14:28:52.999Z</time></trkpt><trkpt lat="43.55617620380374" lon="13.41628744734984"><ele>194.00000000000003</ele><time>2026-04-26T14:28:53.999Z</time></trkpt><trkpt lat="43.55616365924881" lon="13.416389707442018"><ele>194.0</ele><time>2026-04-26T14:28:54.999Z</time></trkpt><trkpt lat="43.55614907372521" lon="13.416490626785325"><ele>195.66666666666669</ele><time>2026-04-26T14:28:55.999Z</time></trkpt><trkpt lat="43.55613069516563" lon="13.416591242681745"><ele>197.33333333333334</ele><time>2026-04-26T14:28:56.999Z</time></trkpt><trkpt lat="43.55610954298871" lon="13.416691903734696"><ele>199.0</ele><time>2026-04-26T14:28:57.999Z</time></trkpt><trkpt lat="43.55607214150138" lon="13.416785760054308"><ele>200.66666666666669</ele><time>2026-04-26T14:28:58.999Z</time></trkpt><trkpt lat="43.55603994000526" lon="13.416881742435528"><ele>202.33333333333334</ele><time>2026-04-26T14:28:59.999Z</time></trkpt><trkpt lat="43.55600394946659" lon="13.416972483249568"><ele>204.0</ele><time>2026-04-26T14:29:00.999Z</time></trkpt><trkpt lat="43.55596378665981" lon="13.417060444702793"><ele>204.0</ele><time>2026-04-26T14:29:01.999Z</time></trkpt><trkpt lat="43.55592178339606" lon="13.417145303357431"><ele>204.0</ele><time>2026-04-26T14:29:02.999Z</time></trkpt><trkpt lat="43.55588645593857" lon="13.417237507250821"><ele>204.0</ele><time>2026-04-26T14:29:03.999Z</time></trkpt><trkpt lat="43.55584208626744" lon="13.417328186013236"><ele>204.0</ele><time>2026-04-26T14:29:04.999Z</time></trkpt><trkpt lat="43.55579602394834" lon="13.417412097428594"><ele>204.0</ele><time>2026-04-26T14:29:05.999Z</time></trkpt><trkpt lat="43.55575225330906" lon="13.417498118774667"><ele>204.0</ele><time>2026-04-26T14:29:06.999Z</time></trkpt><trkpt lat="43.55571051577489" lon="13.417579960280172"><ele>203.33333333333334</ele><time>2026-04-26T14:29:07.999Z</time></trkpt><trkpt lat="43.55566906218915" lon="13.41766409165944"><ele>202.66666666666669</ele><time>2026-04-26T14:29:08.999Z</time></trkpt><trkpt lat="43.55562343919506" lon="13.417756260443646"><ele>202.0</ele><time>2026-04-26T14:29:09.999Z</time></trkpt><trkpt lat="43.555580857624044" lon="13.417857746560863"><ele>201.33333333333334</ele><time>2026-04-26T14:29:10.999Z</time></trkpt><trkpt lat="43.55553943362088" lon="13.417962764261379"><ele>200.66666666666669</ele><time>2026-04-26T14:29:11.999Z</time></trkpt><trkpt lat="43.55550118949432" lon="13.41806921218501"><ele>200.0</ele><time>2026-04-26T14:29:12.999Z</time></trkpt><trkpt lat="43.555466030372244" lon="13.418177211306116"><ele>201.33333333333334</ele><time>2026-04-26T14:29:13.999Z</time></trkpt><trkpt lat="43.55543924556646" lon="13.418273090824211"><ele>202.66666666666669</ele><time>2026-04-26T14:29:14.999Z</time></trkpt><trkpt lat="43.555412968663205" lon="13.418374243764722"><ele>204.0</ele><time>2026-04-26T14:29:15.999Z</time></trkpt><trkpt lat="43.555384323880865" lon="13.41847871393181"><ele>205.33333333333331</ele><time>2026-04-26T14:29:16.999Z</time></trkpt><trkpt lat="43.555357974259316" lon="13.41858302272888"><ele>206.66666666666666</ele><time>2026-04-26T14:29:17.999Z</time></trkpt><trkpt lat="43.555330663031086" lon="13.418685151299323"><ele>208.0</ele><time>2026-04-26T14:29:18.999Z</time></trkpt><trkpt lat="43.555302679144916" lon="13.418792461936311"><ele>206.49999999999997</ele><time>2026-04-26T14:29:19.999Z</time></trkpt><trkpt lat="43.55527067049584" lon="13.418888674030297"><ele>205.0</ele><time>2026-04-26T14:29:20.999Z</time></trkpt><trkpt lat="43.55524026912796" lon="13.418985286044528"><ele>203.5</ele><time>2026-04-26T14:29:21.999Z</time></trkpt><trkpt lat="43.55520894687149" lon="13.419083347413999"><ele>202.0</ele><time>2026-04-26T14:29:22.999Z</time></trkpt><trkpt lat="43.555172547224075" lon="13.419177611842501"><ele>200.49999999999997</ele><time>2026-04-26T14:29:23.999Z</time></trkpt><trkpt lat="43.55513346389434" lon="13.41926602349381"><ele>199.0</ele><time>2026-04-26T14:29:24.998Z</time></trkpt><trkpt lat="43.55509303400421" lon="13.419356313968214"><ele>198.99999999999997</ele><time>2026-04-26T14:29:25.998Z</time></trkpt><trkpt lat="43.555047024566306" lon="13.419444046826092"><ele>199.0</ele><time>2026-04-26T14:29:26.998Z</time></trkpt><trkpt lat="43.55499567976357" lon="13.419529723263416"><ele>199.0</ele><time>2026-04-26T14:29:27.998Z</time></trkpt><trkpt lat="43.55494690289027" lon="13.41960841827073"><ele>199.0</ele><time>2026-04-26T14:29:28.998Z</time></trkpt><trkpt lat="43.55490297725399" lon="13.419682036676077"><ele>198.99999999999997</ele><time>2026-04-26T14:29:29.998Z</time></trkpt><trkpt lat="43.55486246522244" lon="13.41975198451082"><ele>199.0</ele><time>2026-04-26T14:29:30.998Z</time></trkpt><trkpt lat="43.55479081195835" lon="13.419878426172126"><ele>197.83333333333331</ele><time>2026-04-26T14:29:32.998Z</time></trkpt><trkpt lat="43.55473612291787" lon="13.419945005431689"><ele>196.66666666666666</ele><time>2026-04-26T14:29:34.998Z</time></trkpt><trkpt lat="43.55468476783777" lon="13.420062222062636"><ele>195.5</ele><time>2026-04-26T14:29:38.998Z</time></trkpt><trkpt lat="43.55470547139856" lon="13.420153514981987"><ele>194.33333333333331</ele><time>2026-04-26T14:29:39.998Z</time></trkpt><trkpt lat="43.55474208955684" lon="13.420256853093184"><ele>193.16666666666666</ele><time>2026-04-26T14:29:40.998Z</time></trkpt><trkpt lat="43.55478441634771" lon="13.420369044213233"><ele>192.0</ele><time>2026-04-26T14:29:41.998Z</time></trkpt><trkpt lat="43.55481317244359" lon="13.420476613169578"><ele>190.75</ele><time>2026-04-26T14:29:42.998Z</time></trkpt><trkpt lat="43.55484965191048" lon="13.420603433910786"><ele>189.5</ele><time>2026-04-26T14:29:43.998Z</time></trkpt><trkpt lat="43.55489130164198" lon="13.420753126949009"><ele>188.25</ele><time>2026-04-26T14:29:44.998Z</time></trkpt><trkpt lat="43.55493781914431" lon="13.42091337982548"><ele>187.0</ele><time>2026-04-26T14:29:45.998Z</time></trkpt><trkpt lat="43.554989931869734" lon="13.421079361005274"><ele>187.0</ele><time>2026-04-26T14:29:46.998Z</time></trkpt><trkpt lat="43.55503636404992" lon="13.421244898328032"><ele>187.0</ele><time>2026-04-26T14:29:47.998Z</time></trkpt><trkpt lat="43.55508403781716" lon="13.421415872129971"><ele>187.0</ele><time>2026-04-26T14:29:48.998Z</time></trkpt><trkpt lat="43.55513544136372" lon="13.421594902074968"><ele>187.0</ele><time>2026-04-26T14:29:49.998Z</time></trkpt><trkpt lat="43.55518983033505" lon="13.421779881181884"><ele>187.25</ele><time>2026-04-26T14:29:50.998Z</time></trkpt><trkpt lat="43.55524135592774" lon="13.421970627604171"><ele>187.5</ele><time>2026-04-26T14:29:51.998Z</time></trkpt><trkpt lat="43.555287847526564" lon="13.422167703964238"><ele>187.75</ele><time>2026-04-26T14:29:52.998Z</time></trkpt><trkpt lat="43.55532970310828" lon="13.422356908782877"><ele>188.0</ele><time>2026-04-26T14:29:53.998Z</time></trkpt><trkpt lat="43.555374670067586" lon="13.422525427044231"><ele>189.8</ele><time>2026-04-26T14:29:54.998Z</time></trkpt><trkpt lat="43.55542071086819" lon="13.422668720303234"><ele>191.60000000000002</ele><time>2026-04-26T14:29:55.998Z</time></trkpt><trkpt lat="43.55546682280282" lon="13.422795692983646"><ele>193.39999999999998</ele><time>2026-04-26T14:29:56.998Z</time></trkpt><trkpt lat="43.55551061738674" lon="13.42291317382744"><ele>195.2</ele><time>2026-04-26T14:29:57.998Z</time></trkpt><trkpt lat="43.55555340222434" lon="13.42304488672183"><ele>197.0</ele><time>2026-04-26T14:29:58.998Z</time></trkpt><trkpt lat="43.555592322210735" lon="13.42318683081558"><ele>197.6</ele><time>2026-04-26T14:29:59.998Z</time></trkpt><trkpt lat="43.55563158787941" lon="13.423324296371165"><ele>198.2</ele><time>2026-04-26T14:30:00.998Z</time></trkpt><trkpt lat="43.555663791883205" lon="13.423455168167227"><ele>198.8</ele><time>2026-04-26T14:30:01.998Z</time></trkpt><trkpt lat="43.55569011047416" lon="13.423578099384516"><ele>199.4</ele><time>2026-04-26T14:30:02.998Z</time></trkpt><trkpt lat="43.555708607974125" lon="13.423693229297303"><ele>200.0</ele><time>2026-04-26T14:30:03.998Z</time></trkpt><trkpt lat="43.55571538258315" lon="13.423811038300276"><ele>199.8</ele><time>2026-04-26T14:30:04.998Z</time></trkpt><trkpt lat="43.555715275567486" lon="13.423939517036104"><ele>199.6</ele><time>2026-04-26T14:30:05.998Z</time></trkpt><trkpt lat="43.5557143190082" lon="13.424074372345713"><ele>199.39999999999998</ele><time>2026-04-26T14:30:06.998Z</time></trkpt><trkpt lat="43.55571253137301" lon="13.424222591444993"><ele>199.2</ele><time>2026-04-26T14:30:07.998Z</time></trkpt><trkpt lat="43.5557163994486" lon="13.424378592268317"><ele>199.0</ele><time>2026-04-26T14:30:08.998Z</time></trkpt><trkpt lat="43.55572035031232" lon="13.424541401352991"><ele>198.5</ele><time>2026-04-26T14:30:09.998Z</time></trkpt><trkpt lat="43.555717245609976" lon="13.424706171021072"><ele>198.0</ele><time>2026-04-26T14:30:10.998Z</time></trkpt><trkpt lat="43.55570627283813" lon="13.42486992915236"><ele>197.5</ele><time>2026-04-26T14:30:11.998Z</time></trkpt><trkpt lat="43.55569197937925" lon="13.42503593121122"><ele>197.0</ele><time>2026-04-26T14:30:12.998Z</time></trkpt><trkpt lat="43.55566721166421" lon="13.425204736341422"><ele>197.0</ele><time>2026-04-26T14:30:13.998Z</time></trkpt><trkpt lat="43.555641277972384" lon="13.425377847195596"><ele>197.0</ele><time>2026-04-26T14:30:14.997Z</time></trkpt><trkpt lat="43.55562180637153" lon="13.425539272658119"><ele>197.0</ele><time>2026-04-26T14:30:15.997Z</time></trkpt><trkpt lat="43.55561469997471" lon="13.425694910181521"><ele>197.0</ele><time>2026-04-26T14:30:16.997Z</time></trkpt><trkpt lat="43.55561922112092" lon="13.425841445848802"><ele>197.8</ele><time>2026-04-26T14:30:18Z</time></trkpt><trkpt lat="43.55562940492398" lon="13.425972467038196"><ele>198.6</ele><time>2026-04-26T14:30:19Z</time></trkpt><trkpt lat="43.555641698628335" lon="13.426083248695091"><ele>199.4</ele><time>2026-04-26T14:30:20Z</time></trkpt><trkpt lat="43.555660296352244" lon="13.42620071167158"><ele>200.20000000000002</ele><time>2026-04-26T14:30:22Z</time></trkpt><trkpt lat="43.55563376243017" lon="13.426326249315604"><ele>201.0</ele><time>2026-04-26T14:30:25Z</time></trkpt><trkpt lat="43.55564411854032" lon="13.42647679735656"><ele>201.83333333333334</ele><time>2026-04-26T14:30:27Z</time></trkpt><trkpt lat="43.5556543609201" lon="13.426573381853887"><ele>202.66666666666669</ele><time>2026-04-26T14:30:28Z</time></trkpt><trkpt lat="43.55565822501893" lon="13.426673494723675"><ele>203.5</ele><time>2026-04-26T14:30:29Z</time></trkpt><trkpt lat="43.55566470916391" lon="13.426768904026217"><ele>204.33333333333334</ele><time>2026-04-26T14:30:30Z</time></trkpt><trkpt lat="43.555675462811536" lon="13.426860183127433"><ele>205.16666666666669</ele><time>2026-04-26T14:30:31Z</time></trkpt><trkpt lat="43.55569981420784" lon="13.427007922624982"><ele>206.0</ele><time>2026-04-26T14:30:33Z</time></trkpt><trkpt lat="43.5557390162824" lon="13.427142603611118"><ele>205.0</ele><time>2026-04-26T14:30:35Z</time></trkpt><trkpt lat="43.55578250796047" lon="13.427286372141381"><ele>204.0</ele><time>2026-04-26T14:30:37Z</time></trkpt><trkpt lat="43.555838308678744" lon="13.427423279324893"><ele>203.0</ele><time>2026-04-26T14:30:38.999Z</time></trkpt><trkpt lat="43.555888081839264" lon="13.427544120416337"><ele>202.0</ele><time>2026-04-26T14:30:40.999Z</time></trkpt><trkpt lat="43.555952367575244" lon="13.427667245520208"><ele>201.0</ele><time>2026-04-26T14:30:42.999Z</time></trkpt><trkpt lat="43.55602468561294" lon="13.427820721239872"><ele>201.0</ele><time>2026-04-26T14:30:44.999Z</time></trkpt><trkpt lat="43.55607304434809" lon="13.427901822152053"><ele>201.0</ele><time>2026-04-26T14:30:45.999Z</time></trkpt><trkpt lat="43.556122697899404" lon="13.427981221967231"><ele>201.0</ele><time>2026-04-26T14:30:46.999Z</time></trkpt><trkpt lat="43.556175140135416" lon="13.42806508111125"><ele>201.0</ele><time>2026-04-26T14:30:47.999Z</time></trkpt><trkpt lat="43.55622941309261" lon="13.428151867724615"><ele>201.0</ele><time>2026-04-26T14:30:48.999Z</time></trkpt><trkpt lat="43.556295244094684" lon="13.428222130168706"><ele>201.0</ele><time>2026-04-26T14:30:49.999Z</time></trkpt><trkpt lat="43.55633979441225" lon="13.428318299442592"><ele>201.5</ele><time>2026-04-26T14:30:50.999Z</time></trkpt><trkpt lat="43.55638720274522" lon="13.428406894686637"><ele>202.0</ele><time>2026-04-26T14:30:51.999Z</time></trkpt><trkpt lat="43.5564248575562" lon="13.428505868845283"><ele>202.5</ele><time>2026-04-26T14:30:52.999Z</time></trkpt><trkpt lat="43.556457691675575" lon="13.428603989700445"><ele>203.0</ele><time>2026-04-26T14:30:53.999Z</time></trkpt><trkpt lat="43.55647164804504" lon="13.428715800511391"><ele>203.5</ele><time>2026-04-26T14:30:54.999Z</time></trkpt><trkpt lat="43.55650815986989" lon="13.428823591124146"><ele>204.0</ele><time>2026-04-26T14:30:55.999Z</time></trkpt><trkpt lat="43.55652828873937" lon="13.428941453585942"><ele>204.16666666666666</ele><time>2026-04-26T14:30:56.999Z</time></trkpt><trkpt lat="43.556549647358466" lon="13.429064296238199"><ele>204.33333333333331</ele><time>2026-04-26T14:30:57.999Z</time></trkpt><trkpt lat="43.55656835162236" lon="13.429164674774707"><ele>204.5</ele><time>2026-04-26T14:30:58.999Z</time></trkpt><trkpt lat="43.55657923703902" lon="13.429254262363346"><ele>204.66666666666666</ele><time>2026-04-26T14:30:59.999Z</time></trkpt><trkpt lat="43.55659751515657" lon="13.429365220880898"><ele>204.83333333333331</ele><time>2026-04-26T14:31:01.999Z</time></trkpt><trkpt lat="43.556618851754095" lon="13.42951532687189"><ele>205.0</ele><time>2026-04-26T14:31:03.999Z</time></trkpt><trkpt lat="43.556633591688765" lon="13.429609914143228"><ele>205.83333333333331</ele><time>2026-04-26T14:31:04.999Z</time></trkpt><trkpt lat="43.5566463908283" lon="13.429705407281645"><ele>206.66666666666666</ele><time>2026-04-26T14:31:05.999Z</time></trkpt><trkpt lat="43.55666791348296" lon="13.429803872654546"><ele>207.5</ele><time>2026-04-26T14:31:06.999Z</time></trkpt><trkpt lat="43.55670017528115" lon="13.429899055845253"><ele>208.33333333333331</ele><time>2026-04-26T14:31:07.999Z</time></trkpt><trkpt lat="43.556742602024585" lon="13.429990687865219"><ele>209.16666666666666</ele><time>2026-04-26T14:31:08.999Z</time></trkpt><trkpt lat="43.55678664775844" lon="13.43007907939867"><ele>210.0</ele><time>2026-04-26T14:31:09.999Z</time></trkpt><trkpt lat="43.556817246994406" lon="13.430176439662358"><ele>210.0</ele><time>2026-04-26T14:31:10.999Z</time></trkpt><trkpt lat="43.55685788527403" lon="13.430260517316897"><ele>210.0</ele><time>2026-04-26T14:31:11.999Z</time></trkpt><trkpt lat="43.55689733805889" lon="13.430341649847108"><ele>210.0</ele><time>2026-04-26T14:31:12.999Z</time></trkpt><trkpt lat="43.55693731179609" lon="13.430420495085711"><ele>210.0</ele><time>2026-04-26T14:31:13.999Z</time></trkpt><trkpt lat="43.55702411775763" lon="13.430553785466811"><ele>210.0</ele><time>2026-04-26T14:31:15.999Z</time></trkpt><trkpt lat="43.55706592442717" lon="13.430621402282327"><ele>210.0</ele><time>2026-04-26T14:31:16.999Z</time></trkpt><trkpt lat="43.55711162693436" lon="13.430682704122217"><ele>214.8</ele><time>2026-04-26T14:31:17.999Z</time></trkpt><trkpt lat="43.557198818805446" lon="13.43079160439191"><ele>219.6</ele><time>2026-04-26T14:31:19.999Z</time></trkpt><trkpt lat="43.557284729697" lon="13.430893437039373"><ele>224.39999999999998</ele><time>2026-04-26T14:31:21.999Z</time></trkpt><trkpt lat="43.55730707506301" lon="13.43097709321799"><ele>229.2</ele><time>2026-04-26T14:31:22.999Z</time></trkpt><trkpt lat="43.55731142269868" lon="13.431076037726362"><ele>234.0</ele><time>2026-04-26T14:31:23.999Z</time></trkpt><trkpt lat="43.55731618160611" lon="13.43119549230424"><ele>234.33333333333334</ele><time>2026-04-26T14:31:24.999Z</time></trkpt><trkpt lat="43.557309374361594" lon="13.43131311913403"><ele>234.66666666666669</ele><time>2026-04-26T14:31:25.999Z</time></trkpt><trkpt lat="43.55731313065233" lon="13.431421971393158"><ele>235.0</ele><time>2026-04-26T14:31:26.998Z</time></trkpt><trkpt lat="43.55733201661952" lon="13.431535898275332"><ele>235.33333333333334</ele><time>2026-04-26T14:31:27.998Z</time></trkpt><trkpt lat="43.55736275202454" lon="13.431650330007942"><ele>235.66666666666669</ele><time>2026-04-26T14:31:28.998Z</time></trkpt><trkpt lat="43.55740534802885" lon="13.431754378251192"><ele>236.0</ele><time>2026-04-26T14:31:29.998Z</time></trkpt><trkpt lat="43.55745263373748" lon="13.431843812626207"><ele>236.00000000000003</ele><time>2026-04-26T14:31:30.998Z</time></trkpt><trkpt lat="43.55750203276539" lon="13.431943698073944"><ele>236.0</ele><time>2026-04-26T14:31:31.998Z</time></trkpt><trkpt lat="43.55752539821474" lon="13.432045786359774"><ele>236.0</ele><time>2026-04-26T14:31:32.998Z</time></trkpt><trkpt lat="43.5575638582543" lon="13.432140765946015"><ele>236.0</ele><time>2026-04-26T14:31:33.998Z</time></trkpt><trkpt lat="43.55761254992145" lon="13.432229177290802"><ele>236.00000000000003</ele><time>2026-04-26T14:31:34.998Z</time></trkpt><trkpt lat="43.55764299145261" lon="13.432329263428743"><ele>236.0</ele><time>2026-04-26T14:31:35.998Z</time></trkpt><trkpt lat="43.55767015556304" lon="13.432424916646449"><ele>235.16666666666669</ele><time>2026-04-26T14:31:36.998Z</time></trkpt><trkpt lat="43.55770089550571" lon="13.432518140081788"><ele>234.33333333333334</ele><time>2026-04-26T14:31:37.998Z</time></trkpt><trkpt lat="43.55771964807377" lon="13.432616064057754"><ele>233.5</ele><time>2026-04-26T14:31:38.998Z</time></trkpt><trkpt lat="43.55775242403128" lon="13.432712637869557"><ele>232.66666666666669</ele><time>2026-04-26T14:31:39.998Z</time></trkpt><trkpt lat="43.55780095698615" lon="13.432795245556798"><ele>231.83333333333334</ele><time>2026-04-26T14:31:40.998Z</time></trkpt><trkpt lat="43.55783697981188" lon="13.432885377909102"><ele>231.0</ele><time>2026-04-26T14:31:41.998Z</time></trkpt><trkpt lat="43.55787295603352" lon="13.432973358528841"><ele>233.5</ele><time>2026-04-26T14:31:42.998Z</time></trkpt><trkpt lat="43.557909699330445" lon="13.43306541225524"><ele>236.0</ele><time>2026-04-26T14:31:43.998Z</time></trkpt><trkpt lat="43.557947052715" lon="13.433153784324935"><ele>238.5</ele><time>2026-04-26T14:31:44.998Z</time></trkpt><trkpt lat="43.55799249696529" lon="13.433244174704308"><ele>241.0</ele><time>2026-04-26T14:31:45.998Z</time></trkpt><trkpt lat="43.5580400183151" lon="13.433349498586653"><ele>243.5</ele><time>2026-04-26T14:31:46.998Z</time></trkpt><trkpt lat="43.558083108136834" lon="13.433449902245739"><ele>246.0</ele><time>2026-04-26T14:31:47.998Z</time></trkpt><trkpt lat="43.558106544507524" lon="13.433565146511786"><ele>246.0</ele><time>2026-04-26T14:31:48.998Z</time></trkpt><trkpt lat="43.558154689667774" lon="13.433683973381914"><ele>246.00000000000003</ele><time>2026-04-26T14:31:49.998Z</time></trkpt><trkpt lat="43.55819880685068" lon="13.433818162613692"><ele>246.00000000000003</ele><time>2026-04-26T14:31:50.998Z</time></trkpt><trkpt lat="43.55824374234404" lon="13.433963339079003"><ele>246.0</ele><time>2026-04-26T14:31:51.998Z</time></trkpt><trkpt lat="43.558289653592965" lon="13.434102045374996"><ele>246.0</ele><time>2026-04-26T14:31:52.998Z</time></trkpt><trkpt lat="43.55832117717371" lon="13.43422106464549"><ele>245.60000000000002</ele><time>2026-04-26T14:31:53.998Z</time></trkpt><trkpt lat="43.558352286414056" lon="13.434337427522937"><ele>245.20000000000002</ele><time>2026-04-26T14:31:54.998Z</time></trkpt><trkpt lat="43.55841325984331" lon="13.434437947984998"><ele>244.79999999999998</ele><time>2026-04-26T14:31:55.998Z</time></trkpt><trkpt lat="43.558453029781596" lon="13.434554189401329"><ele>244.39999999999998</ele><time>2026-04-26T14:31:56.998Z</time></trkpt><trkpt lat="43.558515651517865" lon="13.434645897646355"><ele>244.0</ele><time>2026-04-26T14:31:57.998Z</time></trkpt><trkpt lat="43.55858805013791" lon="13.434734663593375"><ele>243.2</ele><time>2026-04-26T14:31:58.998Z</time></trkpt><trkpt lat="43.558672246475" lon="13.434810911692914"><ele>242.39999999999998</ele><time>2026-04-26T14:31:59.998Z</time></trkpt><trkpt lat="43.55874710646212" lon="13.43489862921502"><ele>241.6</ele><time>2026-04-26T14:32:00.998Z</time></trkpt><trkpt lat="43.558819206634176" lon="13.43498576627854"><ele>240.8</ele><time>2026-04-26T14:32:01.998Z</time></trkpt><trkpt lat="43.55889058733672" lon="13.435072242172168"><ele>240.0</ele><time>2026-04-26T14:32:02.998Z</time></trkpt><trkpt lat="43.55895817849531" lon="13.435157244601067"><ele>239.8</ele><time>2026-04-26T14:32:03.998Z</time></trkpt><trkpt lat="43.55903017900796" lon="13.435236865029442"><ele>239.6</ele><time>2026-04-26T14:32:04.998Z</time></trkpt><trkpt lat="43.559091022940606" lon="13.435329988810018"><ele>239.39999999999998</ele><time>2026-04-26T14:32:05.998Z</time></trkpt><trkpt lat="43.55915745668134" lon="13.435416121166593"><ele>239.2</ele><time>2026-04-26T14:32:06.998Z</time></trkpt><trkpt lat="43.559231630319545" lon="13.435495725002406"><ele>239.0</ele><time>2026-04-26T14:32:07.998Z</time></trkpt><trkpt lat="43.55931345906458" lon="13.435568604757867"><ele>239.0</ele><time>2026-04-26T14:32:08.998Z</time></trkpt><trkpt lat="43.559392127656736" lon="13.43564013897086"><ele>238.99999999999997</ele><time>2026-04-26T14:32:09.998Z</time></trkpt><trkpt lat="43.55946063963041" lon="13.435718482645104"><ele>238.99999999999997</ele><time>2026-04-26T14:32:10.998Z</time></trkpt><trkpt lat="43.55952014828246" lon="13.43578069865086"><ele>239.0</ele><time>2026-04-26T14:32:11.998Z</time></trkpt><trkpt lat="43.559634631494355" lon="13.435843126604588"><ele>239.0</ele><time>2026-04-26T14:32:13.998Z</time></trkpt><trkpt lat="43.55971296469744" lon="13.435877005366526"><ele>238.33333333333334</ele><time>2026-04-26T14:32:15.998Z</time></trkpt><trkpt lat="43.559766482704795" lon="13.435936493083117"><ele>237.66666666666669</ele><time>2026-04-26T14:32:17.997Z</time></trkpt><trkpt lat="43.55982473584426" lon="13.43609870009297"><ele>237.0</ele><time>2026-04-26T14:32:19.997Z</time></trkpt><trkpt lat="43.559840415985036" lon="13.436201425026322"><ele>236.33333333333331</ele><time>2026-04-26T14:32:20.997Z</time></trkpt><trkpt lat="43.55985528975851" lon="13.436314528818066"><ele>235.66666666666666</ele><time>2026-04-26T14:32:21.997Z</time></trkpt><trkpt lat="43.55986549404652" lon="13.43642777786399"><ele>235.0</ele><time>2026-04-26T14:32:22.997Z</time></trkpt><trkpt lat="43.55987252348011" lon="13.436533431915196"><ele>234.99999999999997</ele><time>2026-04-26T14:32:24Z</time></trkpt><trkpt lat="43.55987771988618" lon="13.436634035685579"><ele>235.0</ele><time>2026-04-26T14:32:25Z</time></trkpt><trkpt lat="43.559879136095866" lon="13.436734393878426"><ele>235.0</ele><time>2026-04-26T14:32:26Z</time></trkpt><trkpt lat="43.5598835622989" lon="13.436846784156886"><ele>235.0</ele><time>2026-04-26T14:32:27Z</time></trkpt><trkpt lat="43.559894238347944" lon="13.436972341062633"><ele>234.99999999999997</ele><time>2026-04-26T14:32:28Z</time></trkpt><trkpt lat="43.55990912735131" lon="13.437106066653875"><ele>235.0</ele><time>2026-04-26T14:32:29Z</time></trkpt><trkpt lat="43.55993323480763" lon="13.43724842757583"><ele>236.5</ele><time>2026-04-26T14:32:30Z</time></trkpt><trkpt lat="43.55997143519833" lon="13.437399165763027"><ele>238.0</ele><time>2026-04-26T14:32:31Z</time></trkpt><trkpt lat="43.56002055192128" lon="13.437551841030707"><ele>239.5</ele><time>2026-04-26T14:32:32Z</time></trkpt><trkpt lat="43.56007822559133" lon="13.437698036862875"><ele>241.0</ele><time>2026-04-26T14:32:33Z</time></trkpt><trkpt lat="43.56014626831507" lon="13.437843526626317"><ele>242.0</ele><time>2026-04-26T14:32:34Z</time></trkpt><trkpt lat="43.560214992204244" lon="13.437984309520582"><ele>243.0</ele><time>2026-04-26T14:32:35Z</time></trkpt><trkpt lat="43.56028264503412" lon="13.438129813365018"><ele>244.0</ele><time>2026-04-26T14:32:36Z</time></trkpt><trkpt lat="43.5603480374425" lon="13.438276526628576"><ele>245.0</ele><time>2026-04-26T14:32:37Z</time></trkpt><trkpt lat="43.5604099796562" lon="13.438427522417802"><ele>245.5</ele><time>2026-04-26T14:32:38Z</time></trkpt><trkpt lat="43.560469227021024" lon="13.438577237936824"><ele>246.0</ele><time>2026-04-26T14:32:39Z</time></trkpt><trkpt lat="43.560526729124895" lon="13.438732995073446"><ele>246.5</ele><time>2026-04-26T14:32:39.999Z</time></trkpt><trkpt lat="43.56058144412523" lon="13.438894104217852"><ele>247.0</ele><time>2026-04-26T14:32:40.999Z</time></trkpt><trkpt lat="43.56063025692801" lon="13.439063918303223"><ele>249.0</ele><time>2026-04-26T14:32:41.999Z</time></trkpt><trkpt lat="43.56065665152093" lon="13.43922799779659"><ele>251.0</ele><time>2026-04-26T14:32:42.999Z</time></trkpt><trkpt lat="43.56063588038136" lon="13.439391782435202"><ele>253.0</ele><time>2026-04-26T14:32:43.999Z</time></trkpt><trkpt lat="43.560602739860094" lon="13.43955089162934"><ele>255.0</ele><time>2026-04-26T14:32:44.999Z</time></trkpt><trkpt lat="43.56056938674697" lon="13.439713496320707"><ele>257.25</ele><time>2026-04-26T14:32:46Z</time></trkpt><trkpt lat="43.56053492841522" lon="13.439882254384116"><ele>259.5</ele><time>2026-04-26T14:32:47Z</time></trkpt><trkpt lat="43.56049887920451" lon="13.440050133971303"><ele>261.75</ele><time>2026-04-26T14:32:48Z</time></trkpt><trkpt lat="43.560455063703714" lon="13.440225833686045"><ele>264.0</ele><time>2026-04-26T14:32:49Z</time></trkpt><trkpt lat="43.56040369484566" lon="13.44040306678558"><ele>263.3333333333333</ele><time>2026-04-26T14:32:50Z</time></trkpt><trkpt lat="43.56034911803516" lon="13.440586538795797"><ele>262.66666666666663</ele><time>2026-04-26T14:32:51Z</time></trkpt><trkpt lat="43.56029396614505" lon="13.440781887715293"><ele>262.0</ele><time>2026-04-26T14:32:52Z</time></trkpt><trkpt lat="43.56023777532625" lon="13.440980862715154"><ele>262.0</ele><time>2026-04-26T14:32:53Z</time></trkpt><trkpt lat="43.560187831536396" lon="13.441189102356303"><ele>262.0</ele><time>2026-04-26T14:32:54Z</time></trkpt><trkpt lat="43.560146190687334" lon="13.441404856430669"><ele>262.0</ele><time>2026-04-26T14:32:55Z</time></trkpt><trkpt lat="43.56011220700213" lon="13.441616548407929"><ele>263.5</ele><time>2026-04-26T14:32:56Z</time></trkpt><trkpt lat="43.560086155873606" lon="13.441815724279616"><ele>265.0</ele><time>2026-04-26T14:32:57Z</time></trkpt><trkpt lat="43.56007542191492" lon="13.442000677897001"><ele>266.5</ele><time>2026-04-26T14:32:58Z</time></trkpt><trkpt lat="43.56007506604567" lon="13.4421852905769"><ele>268.0</ele><time>2026-04-26T14:32:59Z</time></trkpt><trkpt lat="43.560086594135335" lon="13.44237760145095"><ele>268.0</ele><time>2026-04-26T14:33:00Z</time></trkpt><trkpt lat="43.560103000906764" lon="13.442588530335847"><ele>268.0</ele><time>2026-04-26T14:33:01Z</time></trkpt><trkpt lat="43.56012525764603" lon="13.44281036186294"><ele>268.0</ele><time>2026-04-26T14:33:02Z</time></trkpt><trkpt lat="43.56015127432148" lon="13.443040483935693"><ele>266.0</ele><time>2026-04-26T14:33:03Z</time></trkpt><trkpt lat="43.56017668825321" lon="13.443274170682669"><ele>264.0</ele><time>2026-04-26T14:33:04Z</time></trkpt><trkpt lat="43.56020131610412" lon="13.44351518195713"><ele>262.0</ele><time>2026-04-26T14:33:05Z</time></trkpt><trkpt lat="43.56022434169778" lon="13.443748379826648"><ele>263.0</ele><time>2026-04-26T14:33:06Z</time></trkpt><trkpt lat="43.56024399394715" lon="13.443952291235851"><ele>264.0</ele><time>2026-04-26T14:33:07Z</time></trkpt><trkpt lat="43.560259408265786" lon="13.444134305649607"><ele>265.0</ele><time>2026-04-26T14:33:08Z</time></trkpt><trkpt lat="43.56027462726073" lon="13.444298679228398"><ele>266.0</ele><time>2026-04-26T14:33:09Z</time></trkpt><trkpt lat="43.56028291821159" lon="13.444450537134008"><ele>266.0</ele><time>2026-04-26T14:33:10Z</time></trkpt><trkpt lat="43.560282512170325" lon="13.444568906899548"><ele>266.0</ele><time>2026-04-26T14:33:11Z</time></trkpt><trkpt lat="43.56027363161746" lon="13.444659967734445"><ele>266.0</ele><time>2026-04-26T14:33:12Z</time></trkpt><trkpt lat="43.56027200085687" lon="13.444768680001804"><ele>266.0</ele><time>2026-04-26T14:33:15Z</time></trkpt><trkpt lat="43.56012255944816" lon="13.444877545175297"><ele>266.0</ele><time>2026-04-26T14:33:17Z</time></trkpt><trkpt lat="43.56005805675727" lon="13.444946843559704"><ele>266.0</ele><time>2026-04-26T14:33:18Z</time></trkpt><trkpt lat="43.559992559080705" lon="13.445037075973637"><ele>266.0</ele><time>2026-04-26T14:33:19Z</time></trkpt><trkpt lat="43.55992386358618" lon="13.445132018121678"><ele>266.0</ele><time>2026-04-26T14:33:20Z</time></trkpt><trkpt lat="43.559845117527004" lon="13.445240333763556"><ele>266.0</ele><time>2026-04-26T14:33:21Z</time></trkpt><trkpt lat="43.559754088128834" lon="13.445360300718784"><ele>266.0</ele><time>2026-04-26T14:33:22Z</time></trkpt><trkpt lat="43.559662220664215" lon="13.44548159732392"><ele>266.0</ele><time>2026-04-26T14:33:23Z</time></trkpt><trkpt lat="43.559570120132555" lon="13.445603217189877"><ele>266.0</ele><time>2026-04-26T14:33:24Z</time></trkpt><trkpt lat="43.55947646998539" lon="13.445712307746511"><ele>266.0</ele><time>2026-04-26T14:33:25Z</time></trkpt><trkpt lat="43.55937826098452" lon="13.445823641373451"><ele>266.0</ele><time>2026-04-26T14:33:26Z</time></trkpt><trkpt lat="43.559271504109255" lon="13.445930950019834"><ele>265.0</ele><time>2026-04-26T14:33:27Z</time></trkpt><trkpt lat="43.55914963542496" lon="13.446040839579416"><ele>264.0</ele><time>2026-04-26T14:33:28Z</time></trkpt><trkpt lat="43.559026259863536" lon="13.446153549889791"><ele>263.0</ele><time>2026-04-26T14:33:29Z</time></trkpt><trkpt lat="43.55889819495924" lon="13.446276051043585"><ele>262.0</ele><time>2026-04-26T14:33:29.999Z</time></trkpt><trkpt lat="43.55876499512761" lon="13.446399956637467"><ele>263.0</ele><time>2026-04-26T14:33:30.999Z</time></trkpt><trkpt lat="43.55863431573134" lon="13.446515740967683"><ele>264.0</ele><time>2026-04-26T14:33:31.999Z</time></trkpt><trkpt lat="43.55850575516525" lon="13.446630581766872"><ele>265.0</ele><time>2026-04-26T14:33:32.999Z</time></trkpt><trkpt lat="43.55837656520371" lon="13.446732972207737"><ele>265.0</ele><time>2026-04-26T14:33:33.999Z</time></trkpt><trkpt lat="43.558247275843904" lon="13.446823081485224"><ele>265.0</ele><time>2026-04-26T14:33:34.999Z</time></trkpt><trkpt lat="43.558124082000504" lon="13.446914324030454"><ele>265.0</ele><time>2026-04-26T14:33:35.999Z</time></trkpt><trkpt lat="43.557997027166095" lon="13.447012535882678"><ele>265.0</ele><time>2026-04-26T14:33:36.999Z</time></trkpt><trkpt lat="43.55786755640129" lon="13.447116586785983"><ele>263.0</ele><time>2026-04-26T14:33:37.999Z</time></trkpt><trkpt lat="43.55773139654979" lon="13.447219024639788"><ele>261.0</ele><time>2026-04-26T14:33:38.999Z</time></trkpt><trkpt lat="43.55759644127184" lon="13.447316845386089"><ele>259.0</ele><time>2026-04-26T14:33:39.999Z</time></trkpt><trkpt lat="43.55747227099978" lon="13.447443939965188"><ele>259.0</ele><time>2026-04-26T14:33:40.999Z</time></trkpt><trkpt lat="43.557355845916305" lon="13.447585154829946"><ele>259.0</ele><time>2026-04-26T14:33:41.999Z</time></trkpt><trkpt lat="43.5572396044215" lon="13.447718478901008"><ele>259.0</ele><time>2026-04-26T14:33:42.999Z</time></trkpt><trkpt lat="43.55711974144439" lon="13.447847515490418"><ele>258.0</ele><time>2026-04-26T14:33:43.999Z</time></trkpt><trkpt lat="43.55700199893558" lon="13.447977167002984"><ele>257.0</ele><time>2026-04-26T14:33:44.999Z</time></trkpt><trkpt lat="43.55688778084091" lon="13.448104969174963"><ele>256.0</ele><time>2026-04-26T14:33:45.999Z</time></trkpt><trkpt lat="43.556777807853315" lon="13.448236995559922"><ele>255.0</ele><time>2026-04-26T14:33:46.999Z</time></trkpt><trkpt lat="43.55668005093528" lon="13.448380203336976"><ele>255.0</ele><time>2026-04-26T14:33:47.999Z</time></trkpt><trkpt lat="43.55658965023552" lon="13.448532360533298"><ele>255.0</ele><time>2026-04-26T14:33:48.999Z</time></trkpt><trkpt lat="43.55650475554242" lon="13.448692023615717"><ele>255.0</ele><time>2026-04-26T14:33:49.999Z</time></trkpt><trkpt lat="43.55643307176493" lon="13.448875774746728"><ele>255.0</ele><time>2026-04-26T14:33:50.999Z</time></trkpt><trkpt lat="43.55636254884368" lon="13.449067360229202"><ele>251.33333333333331</ele><time>2026-04-26T14:33:51.999Z</time></trkpt><trkpt lat="43.556286351712906" lon="13.449252964601946"><ele>247.66666666666666</ele><time>2026-04-26T14:33:52.999Z</time></trkpt><trkpt lat="43.556205608605765" lon="13.449444537262291"><ele>244.0</ele><time>2026-04-26T14:33:53.999Z</time></trkpt><trkpt lat="43.556122363662645" lon="13.44964182466921"><ele>244.0</ele><time>2026-04-26T14:33:54.999Z</time></trkpt><trkpt lat="43.556040589632985" lon="13.449837513931415"><ele>244.0</ele><time>2026-04-26T14:33:55.999Z</time></trkpt><trkpt lat="43.555959196152976" lon="13.450024193882838"><ele>244.0</ele><time>2026-04-26T14:33:56.999Z</time></trkpt><trkpt lat="43.555877489359005" lon="13.45020190126534"><ele>244.0</ele><time>2026-04-26T14:33:57.999Z</time></trkpt><trkpt lat="43.55579791746604" lon="13.450377078234265"><ele>244.0</ele><time>2026-04-26T14:33:58.999Z</time></trkpt><trkpt lat="43.555722069474136" lon="13.450546334452124"><ele>244.0</ele><time>2026-04-26T14:33:59.999Z</time></trkpt><trkpt lat="43.55564601735824" lon="13.450712348366501"><ele>244.0</ele><time>2026-04-26T14:34:00.999Z</time></trkpt><trkpt lat="43.55556699707061" lon="13.450871670651335"><ele>241.0</ele><time>2026-04-26T14:34:01.999Z</time></trkpt><trkpt lat="43.55548799037335" lon="13.45102648053668"><ele>238.0</ele><time>2026-04-26T14:34:02.999Z</time></trkpt><trkpt lat="43.555410464428746" lon="13.451178574558313"><ele>235.0</ele><time>2026-04-26T14:34:03.999Z</time></trkpt><trkpt lat="43.55534536918772" lon="13.451332363840502"><ele>232.0</ele><time>2026-04-26T14:34:04.999Z</time></trkpt><trkpt lat="43.55529888034174" lon="13.451488767350444"><ele>232.39999999999998</ele><time>2026-04-26T14:34:05.999Z</time></trkpt><trkpt lat="43.5552742018112" lon="13.451641320729486"><ele>232.79999999999998</ele><time>2026-04-26T14:34:06.999Z</time></trkpt><trkpt lat="43.55527314044967" lon="13.451794034093231"><ele>233.2</ele><time>2026-04-26T14:34:07.999Z</time></trkpt><trkpt lat="43.55529449508255" lon="13.45192849072329"><ele>233.6</ele><time>2026-04-26T14:34:08.999Z</time></trkpt><trkpt lat="43.555329724179735" lon="13.452046637213646"><ele>234.0</ele><time>2026-04-26T14:34:09.999Z</time></trkpt><trkpt lat="43.555380103681394" lon="13.452151222866034"><ele>234.0</ele><time>2026-04-26T14:34:10.999Z</time></trkpt><trkpt lat="43.55543403840803" lon="13.452263734612053"><ele>233.99999999999997</ele><time>2026-04-26T14:34:11.999Z</time></trkpt><trkpt lat="43.55548888278409" lon="13.452381705020223"><ele>233.99999999999997</ele><time>2026-04-26T14:34:12.999Z</time></trkpt><trkpt lat="43.55554298847156" lon="13.452506103734551"><ele>234.0</ele><time>2026-04-26T14:34:13.999Z</time></trkpt><trkpt lat="43.55559237810271" lon="13.452635573587212"><ele>234.0</ele><time>2026-04-26T14:34:14.999Z</time></trkpt><trkpt lat="43.555637531749575" lon="13.452769533892114"><ele>234.0</ele><time>2026-04-26T14:34:15.999Z</time></trkpt><trkpt lat="43.55567061272005" lon="13.452906222465387"><ele>233.99999999999997</ele><time>2026-04-26T14:34:16.999Z</time></trkpt><trkpt lat="43.55568278392546" lon="13.45304905348968"><ele>233.99999999999997</ele><time>2026-04-26T14:34:17.999Z</time></trkpt><trkpt lat="43.55566789762562" lon="13.453197952699101"><ele>234.0</ele><time>2026-04-26T14:34:18.998Z</time></trkpt><trkpt lat="43.55562642614133" lon="13.453343154700804"><ele>234.0</ele><time>2026-04-26T14:34:19.998Z</time></trkpt><trkpt lat="43.555563733116706" lon="13.453474482178327"><ele>235.79999999999998</ele><time>2026-04-26T14:34:20.998Z</time></trkpt><trkpt lat="43.55548899729116" lon="13.453590503895667"><ele>237.59999999999997</ele><time>2026-04-26T14:34:21.998Z</time></trkpt><trkpt lat="43.55541188195242" lon="13.453697129052918"><ele>239.4</ele><time>2026-04-26T14:34:22.998Z</time></trkpt><trkpt lat="43.55535309637101" lon="13.45382562983592"><ele>241.2</ele><time>2026-04-26T14:34:23.998Z</time></trkpt><trkpt lat="43.55531146196596" lon="13.453960504439232"><ele>243.0</ele><time>2026-04-26T14:34:24.998Z</time></trkpt><trkpt lat="43.55528129179021" lon="13.454086873591367"><ele>243.0</ele><time>2026-04-26T14:34:25.998Z</time></trkpt><trkpt lat="43.55527483726926" lon="13.454215716209474"><ele>243.0</ele><time>2026-04-26T14:34:26.998Z</time></trkpt><trkpt lat="43.55527739082882" lon="13.454351153297438"><ele>243.0</ele><time>2026-04-26T14:34:27.998Z</time></trkpt><trkpt lat="43.55528244460623" lon="13.454498796631892"><ele>243.0</ele><time>2026-04-26T14:34:28.998Z</time></trkpt><trkpt lat="43.55529272955214" lon="13.454656453021062"><ele>243.0</ele><time>2026-04-26T14:34:30.001Z</time></trkpt><trkpt lat="43.555313616625924" lon="13.454817842714728"><ele>243.25</ele><time>2026-04-26T14:34:31.001Z</time></trkpt><trkpt lat="43.555328018072345" lon="13.454978213205468"><ele>243.5</ele><time>2026-04-26T14:34:32.001Z</time></trkpt><trkpt lat="43.55533012344276" lon="13.455142593976639"><ele>243.75</ele><time>2026-04-26T14:34:33.001Z</time></trkpt><trkpt lat="43.5553402868281" lon="13.455310344947902"><ele>244.0</ele><time>2026-04-26T14:34:34.001Z</time></trkpt><trkpt lat="43.555356380109075" lon="13.455476786408381"><ele>245.0</ele><time>2026-04-26T14:34:35.001Z</time></trkpt><trkpt lat="43.55537206500524" lon="13.455646055174698"><ele>246.0</ele><time>2026-04-26T14:34:36.001Z</time></trkpt><trkpt lat="43.55537754603802" lon="13.455814699122026"><ele>247.0</ele><time>2026-04-26T14:34:37.001Z</time></trkpt><trkpt lat="43.555366029176525" lon="13.455986045478896"><ele>248.0</ele><time>2026-04-26T14:34:38.001Z</time></trkpt><trkpt lat="43.55533899507863" lon="13.456155514011575"><ele>248.5</ele><time>2026-04-26T14:34:39.001Z</time></trkpt><trkpt lat="43.55529982265055" lon="13.456329630135766"><ele>249.0</ele><time>2026-04-26T14:34:40.001Z</time></trkpt><trkpt lat="43.55525811645868" lon="13.456493692340274"><ele>249.5</ele><time>2026-04-26T14:34:41.001Z</time></trkpt><trkpt lat="43.555218859633925" lon="13.456660813176672"><ele>250.0</ele><time>2026-04-26T14:34:42.001Z</time></trkpt><trkpt lat="43.55518372219104" lon="13.456830054690533"><ele>250.0</ele><time>2026-04-26T14:34:43.001Z</time></trkpt><trkpt lat="43.55514745874083" lon="13.457002559254798"><ele>250.0</ele><time>2026-04-26T14:34:44.001Z</time></trkpt><trkpt lat="43.55510918405543" lon="13.45717272961599"><ele>250.0</ele><time>2026-04-26T14:34:45Z</time></trkpt><trkpt lat="43.55506599091942" lon="13.457338306938148"><ele>250.0</ele><time>2026-04-26T14:34:46Z</time></trkpt><trkpt lat="43.555016677286076" lon="13.457505378481756"><ele>251.0</ele><time>2026-04-26T14:34:47Z</time></trkpt><trkpt lat="43.55495714581524" lon="13.457673531539738"><ele>252.0</ele><time>2026-04-26T14:34:48Z</time></trkpt><trkpt lat="43.554889759434644" lon="13.45783936290436"><ele>253.0</ele><time>2026-04-26T14:34:49Z</time></trkpt><trkpt lat="43.55481950594525" lon="13.458002989336014"><ele>254.0</ele><time>2026-04-26T14:34:50Z</time></trkpt><trkpt lat="43.554747542279785" lon="13.4581662210259"><ele>254.25</ele><time>2026-04-26T14:34:51Z</time></trkpt><trkpt lat="43.5546802798048" lon="13.458327504161016"><ele>254.5</ele><time>2026-04-26T14:34:52Z</time></trkpt><trkpt lat="43.554614655750484" lon="13.458485833258738"><ele>254.75</ele><time>2026-04-26T14:34:53Z</time></trkpt><trkpt lat="43.55454740366789" lon="13.458642456557152"><ele>255.0</ele><time>2026-04-26T14:34:54Z</time></trkpt><trkpt lat="43.55448406138928" lon="13.458794063189618"><ele>257.75</ele><time>2026-04-26T14:34:55Z</time></trkpt><trkpt lat="43.554424574561345" lon="13.458945894127186"><ele>260.5</ele><time>2026-04-26T14:34:56Z</time></trkpt><trkpt lat="43.554363421035625" lon="13.459097684126702"><ele>263.25</ele><time>2026-04-26T14:34:57Z</time></trkpt><trkpt lat="43.554299173021356" lon="13.459250259247382"><ele>266.0</ele><time>2026-04-26T14:34:58Z</time></trkpt><trkpt lat="43.55423094173798" lon="13.459398037960352"><ele>266.0</ele><time>2026-04-26T14:34:59Z</time></trkpt><trkpt lat="43.55414982736738" lon="13.459543509536417"><ele>266.0</ele><time>2026-04-26T14:35:00Z</time></trkpt><trkpt lat="43.55405239462084" lon="13.45967173029118"><ele>266.0</ele><time>2026-04-26T14:35:01Z</time></trkpt><trkpt lat="43.55394835789098" lon="13.45978867215012"><ele>266.0</ele><time>2026-04-26T14:35:02Z</time></trkpt><trkpt lat="43.55384061932544" lon="13.459909028536881"><ele>266.25</ele><time>2026-04-26T14:35:03Z</time></trkpt><trkpt lat="43.55372820600946" lon="13.460011393342915"><ele>266.5</ele><time>2026-04-26T14:35:04Z</time></trkpt><trkpt lat="43.553605729721866" lon="13.460115553647595"><ele>266.75</ele><time>2026-04-26T14:35:05Z</time></trkpt><trkpt lat="43.553482873701604" lon="13.460211538178308"><ele>267.0</ele><time>2026-04-26T14:35:06Z</time></trkpt><trkpt lat="43.553368830640146" lon="13.460284630952875"><ele>267.0</ele><time>2026-04-26T14:35:07Z</time></trkpt><trkpt lat="43.5532540108781" lon="13.460342523383078"><ele>267.0</ele><time>2026-04-26T14:35:08Z</time></trkpt><trkpt lat="43.55314403710076" lon="13.46039601288676"><ele>267.0</ele><time>2026-04-26T14:35:09Z</time></trkpt><trkpt lat="43.553046109457" lon="13.46044491775625"><ele>267.0</ele><time>2026-04-26T14:35:10Z</time></trkpt><trkpt lat="43.552962697593344" lon="13.460494521509057"><ele>267.0</ele><time>2026-04-26T14:35:11Z</time></trkpt><trkpt lat="43.55287631684858" lon="13.460535688276133"><ele>268.8333333333333</ele><time>2026-04-26T14:35:12Z</time></trkpt><trkpt lat="43.55279415461487" lon="13.46058113714498"><ele>270.6666666666667</ele><time>2026-04-26T14:35:13Z</time></trkpt><trkpt lat="43.55271918724146" lon="13.460617353775534"><ele>272.5</ele><time>2026-04-26T14:35:14Z</time></trkpt><trkpt lat="43.55266287503486" lon="13.460665184422087"><ele>274.33333333333337</ele><time>2026-04-26T14:35:15Z</time></trkpt><trkpt lat="43.55259165249601" lon="13.46075474846307"><ele>276.1666666666667</ele><time>2026-04-26T14:35:17Z</time></trkpt><trkpt lat="43.5525712620809" lon="13.460901204270106"><ele>278.0</ele><time>2026-04-26T14:35:19Z</time></trkpt><trkpt lat="43.55251602901664" lon="13.461027717358633"><ele>278.0</ele><time>2026-04-26T14:35:21Z</time></trkpt><trkpt lat="43.552400884162466" lon="13.461088845422818"><ele>278.0</ele><time>2026-04-26T14:35:23Z</time></trkpt><trkpt lat="43.55233504354741" lon="13.461120086965227"><ele>278.0</ele><time>2026-04-26T14:35:24Z</time></trkpt><trkpt lat="43.55227236120487" lon="13.461166796963285"><ele>278.0</ele><time>2026-04-26T14:35:25Z</time></trkpt><trkpt lat="43.55221605013367" lon="13.461224532203039"><ele>278.0</ele><time>2026-04-26T14:35:26Z</time></trkpt><trkpt lat="43.55217409240926" lon="13.46129497451222"><ele>278.0</ele><time>2026-04-26T14:35:27Z</time></trkpt><trkpt lat="43.552141190580514" lon="13.461369092819465"><ele>277.1666666666667</ele><time>2026-04-26T14:35:28Z</time></trkpt><trkpt lat="43.55210847739862" lon="13.461446745920789"><ele>276.33333333333337</ele><time>2026-04-26T14:35:29Z</time></trkpt><trkpt lat="43.55207803222971" lon="13.461524533857036"><ele>275.5</ele><time>2026-04-26T14:35:30Z</time></trkpt><trkpt lat="43.55202857266051" lon="13.461659039213522"><ele>274.6666666666667</ele><time>2026-04-26T14:35:31.999Z</time></trkpt><trkpt lat="43.5520165753175" lon="13.461765146269816"><ele>273.8333333333333</ele><time>2026-04-26T14:35:34.999Z</time></trkpt><trkpt lat="43.552007128321534" lon="13.461865574266321"><ele>273.0</ele><time>2026-04-26T14:35:37.999Z</time></trkpt><trkpt lat="43.551991945277" lon="13.461965558107327"><ele>273.0</ele><time>2026-04-26T14:35:41.999Z</time></trkpt><trkpt lat="43.55197197867225" lon="13.462062136225079"><ele>273.0</ele><time>2026-04-26T14:35:46.999Z</time></trkpt><trkpt lat="43.55198263151276" lon="13.462181204662466"><ele>273.0</ele><time>2026-04-26T14:35:49.999Z</time></trkpt><trkpt lat="43.55203208599428" lon="13.462315527628133"><ele>273.0</ele><time>2026-04-26T14:35:51.999Z</time></trkpt><trkpt lat="43.552067044030075" lon="13.462425812395088"><ele>273.0</ele><time>2026-04-26T14:35:53.999Z</time></trkpt><trkpt lat="43.552081450849705" lon="13.46251154024264"><ele>273.0</ele><time>2026-04-26T14:35:56.999Z</time></trkpt><trkpt lat="43.55208439367172" lon="13.462418749899681"><ele>273.0</ele><time>2026-04-26T14:36:31.998Z</time></trkpt><trkpt lat="43.55204205693705" lon="13.46230627486367"><ele>273.0</ele><time>2026-04-26T14:36:33.998Z</time></trkpt><trkpt lat="43.55200473627952" lon="13.462191960385098"><ele>273.0</ele><time>2026-04-26T14:36:36Z</time></trkpt><trkpt lat="43.5519928612588" lon="13.462102991331472"><ele>273.0</ele><time>2026-04-26T14:36:38Z</time></trkpt><trkpt lat="43.551996010507956" lon="13.46196467856213"><ele>273.0</ele><time>2026-04-26T14:36:41Z</time></trkpt><trkpt lat="43.55200741815462" lon="13.46183994811533"><ele>273.0</ele><time>2026-04-26T14:36:43Z</time></trkpt><trkpt lat="43.55203510428777" lon="13.461738751621603"><ele>273.8333333333333</ele><time>2026-04-26T14:36:45Z</time></trkpt><trkpt lat="43.55204082745146" lon="13.461651068743302"><ele>274.6666666666667</ele><time>2026-04-26T14:36:47Z</time></trkpt><trkpt lat="43.552072283182746" lon="13.461558591734171"><ele>275.5</ele><time>2026-04-26T14:36:49Z</time></trkpt><trkpt lat="43.55210471574926" lon="13.461469899602767"><ele>276.33333333333337</ele><time>2026-04-26T14:36:51Z</time></trkpt><trkpt lat="43.552138027677486" lon="13.4613836461774"><ele>277.1666666666667</ele><time>2026-04-26T14:36:53Z</time></trkpt><trkpt lat="43.55218134862079" lon="13.461303773113734"><ele>278.0</ele><time>2026-04-26T14:36:55Z</time></trkpt><trkpt lat="43.55225248710945" lon="13.46120034048661"><ele>278.0</ele><time>2026-04-26T14:36:58Z</time></trkpt><trkpt lat="43.552368992832385" lon="13.461325460743481"><ele>278.0</ele><time>2026-04-26T14:36:59Z</time></trkpt><trkpt lat="43.552431551491495" lon="13.461288598513033"><ele>278.0</ele><time>2026-04-26T14:37:00Z</time></trkpt><trkpt lat="43.55253382430121" lon="13.461226977868298"><ele>278.0</ele><time>2026-04-26T14:37:02Z</time></trkpt><trkpt lat="43.552632679378206" lon="13.461178669408286"><ele>278.0</ele><time>2026-04-26T14:37:04Z</time></trkpt><trkpt lat="43.55272166274474" lon="13.461139492853162"><ele>278.0</ele><time>2026-04-26T14:37:06Z</time></trkpt><trkpt lat="43.552792430028866" lon="13.461112750204363"><ele>278.0</ele><time>2026-04-26T14:37:08Z</time></trkpt><trkpt lat="43.55269766744654" lon="13.460695907189848"><ele>278.0</ele><time>2026-04-26T14:37:10Z</time></trkpt><trkpt lat="43.5526039990582" lon="13.46069199243605"><ele>278.0</ele><time>2026-04-26T14:37:12Z</time></trkpt><trkpt lat="43.552544335762946" lon="13.460731989486497"><ele>278.0</ele><time>2026-04-26T14:37:13Z</time></trkpt><trkpt lat="43.55247882354109" lon="13.460775646958744"><ele>278.0</ele><time>2026-04-26T14:37:14Z</time></trkpt><trkpt lat="43.55240662767281" lon="13.460818872129012"><ele>278.0</ele><time>2026-04-26T14:37:15Z</time></trkpt><trkpt lat="43.552324187261924" lon="13.460864950425261"><ele>278.0</ele><time>2026-04-26T14:37:16Z</time></trkpt><trkpt lat="43.55223481550055" lon="13.46090863400619"><ele>278.0</ele><time>2026-04-26T14:37:17Z</time></trkpt><trkpt lat="43.55214217787977" lon="13.460950660793221"><ele>278.0</ele><time>2026-04-26T14:37:18Z</time></trkpt><trkpt lat="43.552048377482706" lon="13.460981560607792"><ele>278.0</ele><time>2026-04-26T14:37:19Z</time></trkpt><trkpt lat="43.55195760895556" lon="13.461012322140114"><ele>278.0</ele><time>2026-04-26T14:37:20Z</time></trkpt><trkpt lat="43.55186838969066" lon="13.461034816188718"><ele>278.0</ele><time>2026-04-26T14:37:21Z</time></trkpt><trkpt lat="43.55178280305291" lon="13.461054775480118"><ele>278.0</ele><time>2026-04-26T14:37:22Z</time></trkpt><trkpt lat="43.55171211241445" lon="13.461115573912709"><ele>277.0</ele><time>2026-04-26T14:37:23Z</time></trkpt><trkpt lat="43.551656524910335" lon="13.46120094853647"><ele>276.0</ele><time>2026-04-26T14:37:24Z</time></trkpt><trkpt lat="43.55162092225442" lon="13.461302469560803"><ele>275.0</ele><time>2026-04-26T14:37:25Z</time></trkpt><trkpt lat="43.55160518784658" lon="13.46142504715223"><ele>274.0</ele><time>2026-04-26T14:37:26Z</time></trkpt><trkpt lat="43.5516025316698" lon="13.461570091086555"><ele>273.0</ele><time>2026-04-26T14:37:27Z</time></trkpt><trkpt lat="43.55159900304362" lon="13.461724035228006"><ele>273.0</ele><time>2026-04-26T14:37:28Z</time></trkpt><trkpt lat="43.55159064089595" lon="13.461878910875594"><ele>273.0</ele><time>2026-04-26T14:37:29Z</time></trkpt><trkpt lat="43.5515747915857" lon="13.462029092626269"><ele>273.0</ele><time>2026-04-26T14:37:30Z</time></trkpt><trkpt lat="43.551555332618015" lon="13.462173414535053"><ele>273.0</ele><time>2026-04-26T14:37:31Z</time></trkpt><trkpt lat="43.551540157251864" lon="13.462308754338768"><ele>273.0</ele><time>2026-04-26T14:37:32Z</time></trkpt><trkpt lat="43.55152963841367" lon="13.462439565935618"><ele>273.0</ele><time>2026-04-26T14:37:33Z</time></trkpt><trkpt lat="43.551520891601" lon="13.462565135932078"><ele>273.0</ele><time>2026-04-26T14:37:34Z</time></trkpt><trkpt lat="43.5515097609215" lon="13.462684890044658"><ele>273.0</ele><time>2026-04-26T14:37:34.999Z</time></trkpt><trkpt lat="43.55148684071691" lon="13.462795301565212"><ele>273.0</ele><time>2026-04-26T14:37:35.999Z</time></trkpt><trkpt lat="43.5514562415947" lon="13.462897341914074"><ele>273.0</ele><time>2026-04-26T14:37:36.999Z</time></trkpt><trkpt lat="43.55142171434279" lon="13.462994121856138"><ele>273.0</ele><time>2026-04-26T14:37:37.999Z</time></trkpt><trkpt lat="43.551379767989594" lon="13.463091390006943"><ele>272.0</ele><time>2026-04-26T14:37:38.999Z</time></trkpt><trkpt lat="43.55133274539681" lon="13.463199631190708"><ele>271.0</ele><time>2026-04-26T14:37:39.999Z</time></trkpt><trkpt lat="43.55128567217192" lon="13.463303727059863"><ele>270.0</ele><time>2026-04-26T14:37:40.999Z</time></trkpt><trkpt lat="43.55123935409783" lon="13.463409795212879"><ele>269.0</ele><time>2026-04-26T14:37:41.999Z</time></trkpt><trkpt lat="43.55119752588147" lon="13.463522309619647"><ele>268.0</ele><time>2026-04-26T14:37:42.999Z</time></trkpt><trkpt lat="43.551154053479685" lon="13.46364176266732"><ele>265.6</ele><time>2026-04-26T14:37:43.999Z</time></trkpt><trkpt lat="43.55110391519323" lon="13.463758169460625"><ele>263.20000000000005</ele><time>2026-04-26T14:37:44.999Z</time></trkpt><trkpt lat="43.55104563126404" lon="13.463876255350817"><ele>260.8</ele><time>2026-04-26T14:37:45.999Z</time></trkpt><trkpt lat="43.55097514402459" lon="13.463987489072704"><ele>258.40000000000003</ele><time>2026-04-26T14:37:46.999Z</time></trkpt><trkpt lat="43.55089309726618" lon="13.464088533467299"><ele>256.0</ele><time>2026-04-26T14:37:47.999Z</time></trkpt><trkpt lat="43.55080889363639" lon="13.464194013030086"><ele>256.0</ele><time>2026-04-26T14:37:48.999Z</time></trkpt><trkpt lat="43.55071530285029" lon="13.464311346772913"><ele>256.0</ele><time>2026-04-26T14:37:49.999Z</time></trkpt><trkpt lat="43.550617741046736" lon="13.464423800259112"><ele>256.0</ele><time>2026-04-26T14:37:50.999Z</time></trkpt><trkpt lat="43.55051817738902" lon="13.464539284494602"><ele>256.0</ele><time>2026-04-26T14:37:51.999Z</time></trkpt><trkpt lat="43.55041434129672" lon="13.464659539018516"><ele>254.5</ele><time>2026-04-26T14:37:52.999Z</time></trkpt><trkpt lat="43.55030531129383" lon="13.464782963348782"><ele>253.0</ele><time>2026-04-26T14:37:53.999Z</time></trkpt><trkpt lat="43.550199070291185" lon="13.464902275040199"><ele>251.5</ele><time>2026-04-26T14:37:54.999Z</time></trkpt><trkpt lat="43.550100496871366" lon="13.465016429735671"><ele>250.0</ele><time>2026-04-26T14:37:55.999Z</time></trkpt><trkpt lat="43.55000746550427" lon="13.465129557565072"><ele>250.0</ele><time>2026-04-26T14:37:56.999Z</time></trkpt><trkpt lat="43.54991957635645" lon="13.46523759357118"><ele>250.0</ele><time>2026-04-26T14:37:57.999Z</time></trkpt><trkpt lat="43.549829449161834" lon="13.465337762991023"><ele>250.0</ele><time>2026-04-26T14:37:58.999Z</time></trkpt><trkpt lat="43.54973160079434" lon="13.465408488145835"><ele>250.0</ele><time>2026-04-26T14:37:59.999Z</time></trkpt><trkpt lat="43.54962923624752" lon="13.46544801862684"><ele>250.0</ele><time>2026-04-26T14:38:00.999Z</time></trkpt><trkpt lat="43.54953175872088" lon="13.465471859252448"><ele>250.0</ele><time>2026-04-26T14:38:01.999Z</time></trkpt><trkpt lat="43.549448212950125" lon="13.465512412597011"><ele>250.0</ele><time>2026-04-26T14:38:02.999Z</time></trkpt><trkpt lat="43.54937052047779" lon="13.465572933699237"><ele>250.0</ele><time>2026-04-26T14:38:03.999Z</time></trkpt><trkpt lat="43.54929535654248" lon="13.465647241095484"><ele>250.0</ele><time>2026-04-26T14:38:04.999Z</time></trkpt><trkpt lat="43.549226792296636" lon="13.465732284270564"><ele>250.0</ele><time>2026-04-26T14:38:05.999Z</time></trkpt><trkpt lat="43.54916928888086" lon="13.465837541213705"><ele>250.0</ele><time>2026-04-26T14:38:06.999Z</time></trkpt><trkpt lat="43.549116845766356" lon="13.465954293156237"><ele>250.0</ele><time>2026-04-26T14:38:07.999Z</time></trkpt><trkpt lat="43.54907097238433" lon="13.466081030303375"><ele>250.0</ele><time>2026-04-26T14:38:08.999Z</time></trkpt><trkpt lat="43.54902876878466" lon="13.466200886025476"><ele>250.0</ele><time>2026-04-26T14:38:09.999Z</time></trkpt><trkpt lat="43.54897880193518" lon="13.466308605358272"><ele>248.0</ele><time>2026-04-26T14:38:10.999Z</time></trkpt><trkpt lat="43.54891993317113" lon="13.466404319426625"><ele>246.0</ele><time>2026-04-26T14:38:11.999Z</time></trkpt><trkpt lat="43.548844553739436" lon="13.466473235364045"><ele>244.0</ele><time>2026-04-26T14:38:12.999Z</time></trkpt><trkpt lat="43.54876159733606" lon="13.466520078889419"><ele>242.0</ele><time>2026-04-26T14:38:13.999Z</time></trkpt><trkpt lat="43.54867487519025" lon="13.46653469779502"><ele>240.0</ele><time>2026-04-26T14:38:14.999Z</time></trkpt><trkpt lat="43.54858323516663" lon="13.466550693704521"><ele>239.8</ele><time>2026-04-26T14:38:15.999Z</time></trkpt><trkpt lat="43.54848587082266" lon="13.466567681132323"><ele>239.6</ele><time>2026-04-26T14:38:16.999Z</time></trkpt><trkpt lat="43.548383669158916" lon="13.46658742624224"><ele>239.39999999999998</ele><time>2026-04-26T14:38:17.999Z</time></trkpt><trkpt lat="43.54827567211422" lon="13.466612822679735"><ele>239.2</ele><time>2026-04-26T14:38:18.999Z</time></trkpt><trkpt lat="43.54816046865405" lon="13.466637791139982"><ele>239.0</ele><time>2026-04-26T14:38:19.999Z</time></trkpt><trkpt lat="43.54804113578142" lon="13.466660787883884"><ele>239.0</ele><time>2026-04-26T14:38:20.999Z</time></trkpt><trkpt lat="43.547918168064584" lon="13.466686339688149"><ele>239.0</ele><time>2026-04-26T14:38:21.999Z</time></trkpt><trkpt lat="43.547791961325544" lon="13.466715242219266"><ele>239.0</ele><time>2026-04-26T14:38:22.999Z</time></trkpt><trkpt lat="43.547661403743895" lon="13.46674649407739"><ele>239.0</ele><time>2026-04-26T14:38:23.998Z</time></trkpt><trkpt lat="43.54752526372977" lon="13.466784146608065"><ele>238.75</ele><time>2026-04-26T14:38:24.998Z</time></trkpt><trkpt lat="43.54738794021807" lon="13.466829062637327"><ele>238.5</ele><time>2026-04-26T14:38:25.998Z</time></trkpt><trkpt lat="43.547253219663375" lon="13.46688161559735"><ele>238.25</ele><time>2026-04-26T14:38:26.998Z</time></trkpt><trkpt lat="43.54712277330131" lon="13.466943878108417"><ele>238.0</ele><time>2026-04-26T14:38:27.998Z</time></trkpt><trkpt lat="43.547010034640365" lon="13.46701817704795"><ele>238.66666666666666</ele><time>2026-04-26T14:38:28.998Z</time></trkpt><trkpt lat="43.546934575395696" lon="13.46709248471069"><ele>239.33333333333331</ele><time>2026-04-26T14:38:29.998Z</time></trkpt><trkpt lat="43.54688851503618" lon="13.467177771904058"><ele>240.0</ele><time>2026-04-26T14:38:30.998Z</time></trkpt><trkpt lat="43.54687795624654" lon="13.467291441803766"><ele>240.66666666666669</ele><time>2026-04-26T14:38:31.998Z</time></trkpt><trkpt lat="43.54690399793274" lon="13.46740396917871"><ele>241.33333333333334</ele><time>2026-04-26T14:38:32.998Z</time></trkpt><trkpt lat="43.546981062777306" lon="13.467492611188042"><ele>242.0</ele><time>2026-04-26T14:38:33.998Z</time></trkpt><trkpt lat="43.54709418930083" lon="13.467551247575694"><ele>238.0</ele><time>2026-04-26T14:38:34.998Z</time></trkpt><trkpt lat="43.54721533655226" lon="13.46762552284339"><ele>234.0</ele><time>2026-04-26T14:38:35.998Z</time></trkpt><trkpt lat="43.547324705503314" lon="13.467714695763455"><ele>230.0</ele><time>2026-04-26T14:38:36.998Z</time></trkpt><trkpt lat="43.54744525587242" lon="13.467813688376605"><ele>226.0</ele><time>2026-04-26T14:38:37.998Z</time></trkpt><trkpt lat="43.54757275978362" lon="13.467913767810114"><ele>225.25</ele><time>2026-04-26T14:38:38.998Z</time></trkpt><trkpt lat="43.54769145907075" lon="13.468003853950378"><ele>224.5</ele><time>2026-04-26T14:38:39.998Z</time></trkpt><trkpt lat="43.547804838689025" lon="13.468085030198049"><ele>223.75</ele><time>2026-04-26T14:38:41Z</time></trkpt><trkpt lat="43.547904539064426" lon="13.46815727348136"><ele>223.0</ele><time>2026-04-26T14:38:42Z</time></trkpt><trkpt lat="43.54798055811622" lon="13.468225241287856"><ele>222.99999999999997</ele><time>2026-04-26T14:38:43Z</time></trkpt><trkpt lat="43.54801694631712" lon="13.468305262714495"><ele>223.0</ele><time>2026-04-26T14:38:44Z</time></trkpt><trkpt lat="43.54796569458158" lon="13.468447363040005"><ele>223.0</ele><time>2026-04-26T14:38:46Z</time></trkpt><trkpt lat="43.54789380384315" lon="13.468469898075462"><ele>223.0</ele><time>2026-04-26T14:38:47Z</time></trkpt><trkpt lat="43.54780773209874" lon="13.468452931424814"><ele>222.99999999999997</ele><time>2026-04-26T14:38:48Z</time></trkpt><trkpt lat="43.547709432274466" lon="13.468434138676441"><ele>223.0</ele><time>2026-04-26T14:38:49Z</time></trkpt><trkpt lat="43.54759605738231" lon="13.468414974826057"><ele>221.25</ele><time>2026-04-26T14:38:50Z</time></trkpt><trkpt lat="43.54746736799485" lon="13.468393205133244"><ele>219.5</ele><time>2026-04-26T14:38:51Z</time></trkpt><trkpt lat="43.54734230432418" lon="13.46837628417885"><ele>217.75</ele><time>2026-04-26T14:38:52Z</time></trkpt><trkpt lat="43.547218139846834" lon="13.468330907448102"><ele>216.0</ele><time>2026-04-26T14:38:53Z</time></trkpt><trkpt lat="43.547089537943336" lon="13.468304804434927"><ele>214.75</ele><time>2026-04-26T14:38:54Z</time></trkpt><trkpt lat="43.54696366986552" lon="13.468296760985458"><ele>213.5</ele><time>2026-04-26T14:38:55Z</time></trkpt><trkpt lat="43.54684668253022" lon="13.468267471042136"><ele>212.25</ele><time>2026-04-26T14:38:56Z</time></trkpt><trkpt lat="43.54672980606002" lon="13.46824743054813"><ele>211.0</ele><time>2026-04-26T14:38:57Z</time></trkpt><trkpt lat="43.54661727817722" lon="13.468217265225453"><ele>211.0</ele><time>2026-04-26T14:38:58Z</time></trkpt><trkpt lat="43.54650499498521" lon="13.468235326827745"><ele>211.0</ele><time>2026-04-26T14:38:59Z</time></trkpt><trkpt lat="43.546401700685884" lon="13.468246387593476"><ele>211.0</ele><time>2026-04-26T14:39:00Z</time></trkpt><trkpt lat="43.54631040504326" lon="13.468272270945384"><ele>211.0</ele><time>2026-04-26T14:39:01Z</time></trkpt><trkpt lat="43.54620082368142" lon="13.468310512614654"><ele>211.0</ele><time>2026-04-26T14:39:02Z</time></trkpt><trkpt lat="43.54610964624068" lon="13.468373083676054"><ele>212.20000000000002</ele><time>2026-04-26T14:39:03Z</time></trkpt><trkpt lat="43.5460314679611" lon="13.468450095655363"><ele>213.4</ele><time>2026-04-26T14:39:04Z</time></trkpt><trkpt lat="43.545960404165086" lon="13.468535219263682"><ele>214.6</ele><time>2026-04-26T14:39:05Z</time></trkpt><trkpt lat="43.54588309487334" lon="13.46861338956446"><ele>215.8</ele><time>2026-04-26T14:39:06Z</time></trkpt><trkpt lat="43.545800657618194" lon="13.468700062108844"><ele>217.0</ele><time>2026-04-26T14:39:07Z</time></trkpt><trkpt lat="43.54571489612924" lon="13.468791712222414"><ele>214.2</ele><time>2026-04-26T14:39:08Z</time></trkpt><trkpt lat="43.545624436308415" lon="13.468890131051008"><ele>211.39999999999998</ele><time>2026-04-26T14:39:09Z</time></trkpt><trkpt lat="43.5455382311918" lon="13.468985557521757"><ele>208.60000000000002</ele><time>2026-04-26T14:39:10Z</time></trkpt><trkpt lat="43.545456348331236" lon="13.46907585509226"><ele>205.8</ele><time>2026-04-26T14:39:11Z</time></trkpt><trkpt lat="43.54537805587587" lon="13.469163124855681"><ele>203.0</ele><time>2026-04-26T14:39:12Z</time></trkpt><trkpt lat="43.54530285553228" lon="13.46924504688022"><ele>203.0</ele><time>2026-04-26T14:39:13Z</time></trkpt><trkpt lat="43.54522674574509" lon="13.469326142453047"><ele>203.0</ele><time>2026-04-26T14:39:14Z</time></trkpt><trkpt lat="43.54515192022585" lon="13.469404722182675"><ele>203.0</ele><time>2026-04-26T14:39:15Z</time></trkpt><trkpt lat="43.54507826702698" lon="13.469482432525934"><ele>203.0</ele><time>2026-04-26T14:39:16Z</time></trkpt><trkpt lat="43.54500717271799" lon="13.469555590103298"><ele>203.0</ele><time>2026-04-26T14:39:17Z</time></trkpt><trkpt lat="43.544940662620284" lon="13.469620705893593"><ele>201.50000000000003</ele><time>2026-04-26T14:39:18Z</time></trkpt><trkpt lat="43.5448812320869" lon="13.469686107230409"><ele>200.0</ele><time>2026-04-26T14:39:19Z</time></trkpt><trkpt lat="43.54482521180732" lon="13.469758898727166"><ele>198.5</ele><time>2026-04-26T14:39:20Z</time></trkpt><trkpt lat="43.54477275073316" lon="13.469829161986727"><ele>197.0</ele><time>2026-04-26T14:39:21Z</time></trkpt><trkpt lat="43.54472243512308" lon="13.469899470710082"><ele>195.50000000000003</ele><time>2026-04-26T14:39:22Z</time></trkpt><trkpt lat="43.54468005142928" lon="13.469970751254158"><ele>194.0</ele><time>2026-04-26T14:39:23Z</time></trkpt><trkpt lat="43.5446180755688" lon="13.47007987950434"><ele>194.0</ele><time>2026-04-26T14:39:25Z</time></trkpt><trkpt lat="43.54457034615711" lon="13.470147963801349"><ele>194.0</ele><time>2026-04-26T14:39:27Z</time></trkpt><trkpt lat="43.54452553982289" lon="13.470227497014806"><ele>194.0</ele><time>2026-04-26T14:39:30Z</time></trkpt><trkpt lat="43.54464359325881" lon="13.470323011910455"><ele>194.0</ele><time>2026-04-26T14:39:33Z</time></trkpt><trkpt lat="43.54474408419126" lon="13.470303092051536"><ele>194.0</ele><time>2026-04-26T14:39:34.999Z</time></trkpt><trkpt lat="43.54486459288048" lon="13.470257310075446"><ele>194.00000000000003</ele><time>2026-04-26T14:39:36.999Z</time></trkpt><trkpt lat="43.54492768185656" lon="13.47023559479474"><ele>194.0</ele><time>2026-04-26T14:39:37.999Z</time></trkpt><trkpt lat="43.544993558389976" lon="13.470218908751296"><ele>194.0</ele><time>2026-04-26T14:39:38.999Z</time></trkpt><trkpt lat="43.545056914303835" lon="13.470211124193959"><ele>194.0</ele><time>2026-04-26T14:39:39.999Z</time></trkpt><trkpt lat="43.545176469694916" lon="13.470193258550225"><ele>194.00000000000003</ele><time>2026-04-26T14:39:41.999Z</time></trkpt><trkpt lat="43.54529493661283" lon="13.470187426258365"><ele>194.0</ele><time>2026-04-26T14:39:43.999Z</time></trkpt><trkpt lat="43.54541365081774" lon="13.470184041890633"><ele>192.0</ele><time>2026-04-26T14:39:45.999Z</time></trkpt><trkpt lat="43.545536617521776" lon="13.470210818247917"><ele>190.0</ele><time>2026-04-26T14:39:47.999Z</time></trkpt><trkpt lat="43.54566180102524" lon="13.470251868392708"><ele>188.0</ele><time>2026-04-26T14:39:49.999Z</time></trkpt><trkpt lat="43.54572628706238" lon="13.470272255295765"><ele>186.0</ele><time>2026-04-26T14:39:50.999Z</time></trkpt><trkpt lat="43.54578814379727" lon="13.470298411177597"><ele>184.0</ele><time>2026-04-26T14:39:51.999Z</time></trkpt><trkpt lat="43.54585000273533" lon="13.470332399333694"><ele>184.0</ele><time>2026-04-26T14:39:52.999Z</time></trkpt><trkpt lat="43.54597033679919" lon="13.470377556711211"><ele>184.0</ele><time>2026-04-26T14:39:54.999Z</time></trkpt><trkpt lat="43.546091419535905" lon="13.470401245159849"><ele>184.0</ele><time>2026-04-26T14:39:56.999Z</time></trkpt><trkpt lat="43.54615507813715" lon="13.470405728147194"><ele>184.0</ele><time>2026-04-26T14:39:57.999Z</time></trkpt><trkpt lat="43.54622177815642" lon="13.470405538771292"><ele>184.0</ele><time>2026-04-26T14:39:58.999Z</time></trkpt><trkpt lat="43.5462883087956" lon="13.470402970022"><ele>184.0</ele><time>2026-04-26T14:39:59.999Z</time></trkpt><trkpt lat="43.54635982227137" lon="13.47039969836445"><ele>182.83333333333334</ele><time>2026-04-26T14:40:00.999Z</time></trkpt><trkpt lat="43.546424764981026" lon="13.470400048648969"><ele>181.66666666666669</ele><time>2026-04-26T14:40:01.999Z</time></trkpt><trkpt lat="43.54649077230388" lon="13.470402926956334"><ele>180.5</ele><time>2026-04-26T14:40:02.999Z</time></trkpt><trkpt lat="43.54661184487442" lon="13.470408016029445"><ele>179.33333333333334</ele><time>2026-04-26T14:40:04.999Z</time></trkpt><trkpt lat="43.5467341820029" lon="13.470416653690343"><ele>178.16666666666666</ele><time>2026-04-26T14:40:06.999Z</time></trkpt><trkpt lat="43.546799314480474" lon="13.47041048178697"><ele>177.0</ele><time>2026-04-26T14:40:07.999Z</time></trkpt><trkpt lat="43.54687301214123" lon="13.47039647980268"><ele>177.0</ele><time>2026-04-26T14:40:08.999Z</time></trkpt><trkpt lat="43.54694607328104" lon="13.470364014214047"><ele>177.0</ele><time>2026-04-26T14:40:09.999Z</time></trkpt><trkpt lat="43.54702620230799" lon="13.470353549340443"><ele>177.0</ele><time>2026-04-26T14:40:10.999Z</time></trkpt><trkpt lat="43.54710362462956" lon="13.470337142443055"><ele>177.0</ele><time>2026-04-26T14:40:11.999Z</time></trkpt><trkpt lat="43.54718364784586" lon="13.470325694529684"><ele>177.0</ele><time>2026-04-26T14:40:12.999Z</time></trkpt><trkpt lat="43.54725742685438" lon="13.470327682017599"><ele>177.0</ele><time>2026-04-26T14:40:13.999Z</time></trkpt><trkpt lat="43.54733531153878" lon="13.470325941902434"><ele>177.42857142857144</ele><time>2026-04-26T14:40:14.999Z</time></trkpt><trkpt lat="43.54740774146308" lon="13.47033256643709"><ele>177.85714285714283</ele><time>2026-04-26T14:40:15.999Z</time></trkpt><trkpt lat="43.54748001661753" lon="13.470342260373789"><ele>178.28571428571428</ele><time>2026-04-26T14:40:16.999Z</time></trkpt><trkpt lat="43.54755581026835" lon="13.470353584923673"><ele>178.71428571428572</ele><time>2026-04-26T14:40:17.999Z</time></trkpt><trkpt lat="43.54762270798785" lon="13.470376912805898"><ele>179.14285714285717</ele><time>2026-04-26T14:40:18.999Z</time></trkpt><trkpt lat="43.54769035960233" lon="13.470404487971896"><ele>179.57142857142856</ele><time>2026-04-26T14:40:19.999Z</time></trkpt><trkpt lat="43.547753325966525" lon="13.470425320889625"><ele>180.0</ele><time>2026-04-26T14:40:20.999Z</time></trkpt><trkpt lat="43.547822532496504" lon="13.470443114753188"><ele>179.7142857142857</ele><time>2026-04-26T14:40:21.999Z</time></trkpt><trkpt lat="43.5478901809491" lon="13.47047256544516"><ele>179.42857142857144</ele><time>2026-04-26T14:40:22.999Z</time></trkpt><trkpt lat="43.547957902328704" lon="13.470504821500395"><ele>179.14285714285714</ele><time>2026-04-26T14:40:23.998Z</time></trkpt><trkpt lat="43.54801508320429" lon="13.470564991202911"><ele>178.85714285714283</ele><time>2026-04-26T14:40:24.998Z</time></trkpt><trkpt lat="43.54808421597647" lon="13.470593172892478"><ele>178.57142857142856</ele><time>2026-04-26T14:40:25.998Z</time></trkpt><trkpt lat="43.548147054906416" lon="13.470644549139978"><ele>178.28571428571428</ele><time>2026-04-26T14:40:26.998Z</time></trkpt><trkpt lat="43.548204650113775" lon="13.470703155390424"><ele>178.0</ele><time>2026-04-26T14:40:27.998Z</time></trkpt><trkpt lat="43.54826404931619" lon="13.470761698306244"><ele>177.99999999999997</ele><time>2026-04-26T14:40:28.998Z</time></trkpt><trkpt lat="43.548321415587" lon="13.47081966714543"><ele>178.0</ele><time>2026-04-26T14:40:29.998Z</time></trkpt><trkpt lat="43.54837799564462" lon="13.470873532031389"><ele>178.0</ele><time>2026-04-26T14:40:30.998Z</time></trkpt><trkpt lat="43.548434510634465" lon="13.47092406046402"><ele>178.0</ele><time>2026-04-26T14:40:31.998Z</time></trkpt><trkpt lat="43.5484965479254" lon="13.470980271046715"><ele>178.0</ele><time>2026-04-26T14:40:32.998Z</time></trkpt><trkpt lat="43.548556044822156" lon="13.471038804309933"><ele>177.99999999999997</ele><time>2026-04-26T14:40:33.998Z</time></trkpt><trkpt lat="43.548615548403596" lon="13.471095724960552"><ele>178.0</ele><time>2026-04-26T14:40:34.998Z</time></trkpt><trkpt lat="43.54867611563482" lon="13.471141603828547"><ele>178.33333333333334</ele><time>2026-04-26T14:40:35.998Z</time></trkpt><trkpt lat="43.54873327240805" lon="13.47118510696321"><ele>178.66666666666669</ele><time>2026-04-26T14:40:36.998Z</time></trkpt><trkpt lat="43.548844483145785" lon="13.471276798193562"><ele>179.0</ele><time>2026-04-26T14:40:38.998Z</time></trkpt><trkpt lat="43.54890985727447" lon="13.471329617778638"><ele>179.33333333333334</ele><time>2026-04-26T14:40:39.998Z</time></trkpt><trkpt lat="43.54897285396969" lon="13.471375911850815"><ele>179.66666666666666</ele><time>2026-04-26T14:40:40.998Z</time></trkpt><trkpt lat="43.54903369487673" lon="13.471428764166019"><ele>180.0</ele><time>2026-04-26T14:40:41.998Z</time></trkpt><trkpt lat="43.54909099610285" lon="13.471467814493481"><ele>180.0</ele><time>2026-04-26T14:40:42.998Z</time></trkpt><trkpt lat="43.54913911404022" lon="13.471525645713083"><ele>180.0</ele><time>2026-04-26T14:40:43.998Z</time></trkpt><trkpt lat="43.54919999065818" lon="13.47156593692602"><ele>180.0</ele><time>2026-04-26T14:40:44.998Z</time></trkpt><trkpt lat="43.54931782151557" lon="13.471606863625306"><ele>180.0</ele><time>2026-04-26T14:40:47Z</time></trkpt><trkpt lat="43.549383268114624" lon="13.471671216065477"><ele>180.0</ele><time>2026-04-26T14:40:49Z</time></trkpt><trkpt lat="43.549419394345804" lon="13.471762761643658"><ele>180.0</ele><time>2026-04-26T14:40:51Z</time></trkpt><trkpt lat="43.549398078972935" lon="13.47186815497613"><ele>180.0</ele><time>2026-04-26T14:40:53Z</time></trkpt><trkpt lat="43.54935893778547" lon="13.471994050878495"><ele>180.0</ele><time>2026-04-26T14:40:55Z</time></trkpt><trkpt lat="43.549375852525635" lon="13.472131899667723"><ele>180.0</ele><time>2026-04-26T14:40:57Z</time></trkpt><trkpt lat="43.54945998828192" lon="13.472259473189604"><ele>180.0</ele><time>2026-04-26T14:40:59Z</time></trkpt><trkpt lat="43.54951036924706" lon="13.472317049991563"><ele>180.0</ele><time>2026-04-26T14:41:00Z</time></trkpt><trkpt lat="43.54959649285872" lon="13.472432465286841"><ele>178.4</ele><time>2026-04-26T14:41:02Z</time></trkpt><trkpt lat="43.5496323814868" lon="13.472567931352138"><ele>176.8</ele><time>2026-04-26T14:41:04Z</time></trkpt><trkpt lat="43.54959830211317" lon="13.47271792706611"><ele>175.2</ele><time>2026-04-26T14:41:06Z</time></trkpt><trkpt lat="43.549592426929294" lon="13.472828858484045"><ele>173.6</ele><time>2026-04-26T14:41:07Z</time></trkpt><trkpt lat="43.54956782889217" lon="13.472936732042697"><ele>172.0</ele><time>2026-04-26T14:41:08Z</time></trkpt><trkpt lat="43.54954466154231" lon="13.47305032564106"><ele>171.33333333333334</ele><time>2026-04-26T14:41:09Z</time></trkpt><trkpt lat="43.5495143996344" lon="13.473165466221584"><ele>170.66666666666669</ele><time>2026-04-26T14:41:10Z</time></trkpt><trkpt lat="43.5494887652358" lon="13.47327856454088"><ele>170.0</ele><time>2026-04-26T14:41:11Z</time></trkpt><trkpt lat="43.549467106958055" lon="13.473386344535434"><ele>169.33333333333334</ele><time>2026-04-26T14:41:12Z</time></trkpt><trkpt lat="43.549447432113354" lon="13.473498920876418"><ele>168.66666666666666</ele><time>2026-04-26T14:41:13Z</time></trkpt><trkpt lat="43.54942623312763" lon="13.47360347986284"><ele>168.0</ele><time>2026-04-26T14:41:14Z</time></trkpt><trkpt lat="43.54940587693356" lon="13.473705601762157"><ele>167.66666666666666</ele><time>2026-04-26T14:41:15Z</time></trkpt><trkpt lat="43.549385855567024" lon="13.473806895629277"><ele>167.33333333333334</ele><time>2026-04-26T14:41:16Z</time></trkpt><trkpt lat="43.549363073108026" lon="13.473906889107047"><ele>167.0</ele><time>2026-04-26T14:41:17Z</time></trkpt><trkpt lat="43.5493397574939" lon="13.474010695727486"><ele>166.66666666666669</ele><time>2026-04-26T14:41:18Z</time></trkpt><trkpt lat="43.54931933381888" lon="13.474121989682223"><ele>166.33333333333334</ele><time>2026-04-26T14:41:19Z</time></trkpt><trkpt lat="43.54928046092187" lon="13.474224381629734"><ele>166.0</ele><time>2026-04-26T14:41:20Z</time></trkpt><trkpt lat="43.54925940348581" lon="13.474325251796431"><ele>166.0</ele><time>2026-04-26T14:41:21Z</time></trkpt><trkpt lat="43.54924930938006" lon="13.47442738395248"><ele>166.0</ele><time>2026-04-26T14:41:22Z</time></trkpt><trkpt lat="43.54923013864805" lon="13.474525245727158"><ele>166.0</ele><time>2026-04-26T14:41:23Z</time></trkpt><trkpt lat="43.54921015840797" lon="13.47462259093437"><ele>166.0</ele><time>2026-04-26T14:41:24Z</time></trkpt><trkpt lat="43.549191873173115" lon="13.474720547887744"><ele>166.0</ele><time>2026-04-26T14:41:25Z</time></trkpt><trkpt lat="43.54916689452665" lon="13.474810550918384"><ele>166.0</ele><time>2026-04-26T14:41:26Z</time></trkpt><trkpt lat="43.54914514637403" lon="13.4748984085356"><ele>166.0</ele><time>2026-04-26T14:41:27Z</time></trkpt><trkpt lat="43.549126946592715" lon="13.474983834664009"><ele>165.85714285714286</ele><time>2026-04-26T14:41:28Z</time></trkpt><trkpt lat="43.54909848122732" lon="13.475065566477772"><ele>165.71428571428572</ele><time>2026-04-26T14:41:29Z</time></trkpt><trkpt lat="43.54905951160628" lon="13.47514797349319"><ele>165.57142857142858</ele><time>2026-04-26T14:41:30Z</time></trkpt><trkpt lat="43.5490130096215" lon="13.4752267596089"><ele>165.42857142857144</ele><time>2026-04-26T14:41:31Z</time></trkpt><trkpt lat="43.54896366621362" lon="13.475303555681801"><ele>165.28571428571428</ele><time>2026-04-26T14:41:32Z</time></trkpt><trkpt lat="43.548914657500895" lon="13.475381113327025"><ele>165.14285714285717</ele><time>2026-04-26T14:41:33Z</time></trkpt><trkpt lat="43.54886608723327" lon="13.475460480393517"><ele>165.0</ele><time>2026-04-26T14:41:34Z</time></trkpt><trkpt lat="43.54882203436522" lon="13.475538672771695"><ele>164.66666666666666</ele><time>2026-04-26T14:41:35Z</time></trkpt><trkpt lat="43.548779483426635" lon="13.475619347284391"><ele>164.33333333333334</ele><time>2026-04-26T14:41:36Z</time></trkpt><trkpt lat="43.548741061129476" lon="13.475702227166757"><ele>164.0</ele><time>2026-04-26T14:41:37Z</time></trkpt><trkpt lat="43.54871149999432" lon="13.475785486668205"><ele>163.66666666666669</ele><time>2026-04-26T14:41:37.999Z</time></trkpt><trkpt lat="43.5486895453619" lon="13.475873231025208"><ele>163.33333333333334</ele><time>2026-04-26T14:41:38.999Z</time></trkpt><trkpt lat="43.548661094419494" lon="13.47603748379034"><ele>163.0</ele><time>2026-04-26T14:41:40.999Z</time></trkpt><trkpt lat="43.54864218311298" lon="13.476190069133581"><ele>160.0</ele><time>2026-04-26T14:41:42.999Z</time></trkpt><trkpt lat="43.54861898677165" lon="13.476332156650459"><ele>157.0</ele><time>2026-04-26T14:41:44.999Z</time></trkpt><trkpt lat="43.54859151484076" lon="13.476472029684412"><ele>154.0</ele><time>2026-04-26T14:41:46.999Z</time></trkpt><trkpt lat="43.548554959279045" lon="13.476615536981551"><ele>151.0</ele><time>2026-04-26T14:41:48.999Z</time></trkpt><trkpt lat="43.548511608221645" lon="13.476761066144423"><ele>148.0</ele><time>2026-04-26T14:41:50.999Z</time></trkpt><trkpt lat="43.54845346456369" lon="13.476906274953077"><ele>148.0</ele><time>2026-04-26T14:41:52.999Z</time></trkpt><trkpt lat="43.5483840762299" lon="13.477047651324137"><ele>148.0</ele><time>2026-04-26T14:41:54.999Z</time></trkpt><trkpt lat="43.54831409338688" lon="13.47719107364226"><ele>148.0</ele><time>2026-04-26T14:41:56.999Z</time></trkpt><trkpt lat="43.548239788059895" lon="13.477324130142508"><ele>148.0</ele><time>2026-04-26T14:41:58.999Z</time></trkpt><trkpt lat="43.548159409669324" lon="13.477458057765258"><ele>146.14285714285714</ele><time>2026-04-26T14:42:00.999Z</time></trkpt><trkpt lat="43.548119553778086" lon="13.4775278656203"><ele>144.28571428571428</ele><time>2026-04-26T14:42:01.999Z</time></trkpt><trkpt lat="43.548079605586054" lon="13.477595191793498"><ele>142.42857142857142</ele><time>2026-04-26T14:42:02.999Z</time></trkpt><trkpt lat="43.54804221758739" lon="13.477667801803753"><ele>140.57142857142856</ele><time>2026-04-26T14:42:03.999Z</time></trkpt><trkpt lat="43.547988294773404" lon="13.477726369629947"><ele>138.7142857142857</ele><time>2026-04-26T14:42:04.999Z</time></trkpt><trkpt lat="43.547946391172076" lon="13.47779751899543"><ele>136.85714285714286</ele><time>2026-04-26T14:42:05.999Z</time></trkpt><trkpt lat="43.54790446023096" lon="13.477870556838711"><ele>135.0</ele><time>2026-04-26T14:42:06.999Z</time></trkpt><trkpt lat="43.5478635113154" lon="13.477943367082998"><ele>132.5</ele><time>2026-04-26T14:42:07.999Z</time></trkpt><trkpt lat="43.54782355906694" lon="13.47801541304181"><ele>130.0</ele><time>2026-04-26T14:42:08.999Z</time></trkpt><trkpt lat="43.547782988714836" lon="13.478088921271702"><ele>127.5</ele><time>2026-04-26T14:42:09.999Z</time></trkpt><trkpt lat="43.54775516037107" lon="13.478172801270789"><ele>125.0</ele><time>2026-04-26T14:42:10.999Z</time></trkpt><trkpt lat="43.547674147060725" lon="13.478303256675039"><ele>122.5</ele><time>2026-04-26T14:42:12.999Z</time></trkpt><trkpt lat="43.54763231731589" lon="13.478368438042695"><ele>120.0</ele><time>2026-04-26T14:42:13.999Z</time></trkpt><trkpt lat="43.547564880484394" lon="13.478488724042132"><ele>120.0</ele><time>2026-04-26T14:42:15.999Z</time></trkpt><trkpt lat="43.5475111783817" lon="13.478548072984433"><ele>120.0</ele><time>2026-04-26T14:42:18.999Z</time></trkpt><trkpt lat="43.54742565073005" lon="13.478491199693112"><ele>120.0</ele><time>2026-04-26T14:42:21.999Z</time></trkpt><trkpt lat="43.547340294319916" lon="13.478424661725962"><ele>120.0</ele><time>2026-04-26T14:42:23.999Z</time></trkpt><trkpt lat="43.54724806262535" lon="13.478345520727613"><ele>120.0</ele><time>2026-04-26T14:42:25.999Z</time></trkpt><trkpt lat="43.547193538440474" lon="13.478297478935527"><ele>120.0</ele><time>2026-04-26T14:42:26.999Z</time></trkpt><trkpt lat="43.547136067788315" lon="13.478246840892222"><ele>120.0</ele><time>2026-04-26T14:42:27.998Z</time></trkpt><trkpt lat="43.547074964930474" lon="13.478193002475589"><ele>120.0</ele><time>2026-04-26T14:42:28.998Z</time></trkpt><trkpt lat="43.5470137681431" lon="13.478139081336307"><ele>120.0</ele><time>2026-04-26T14:42:29.998Z</time></trkpt><trkpt lat="43.54695355228295" lon="13.478089277084168"><ele>120.0</ele><time>2026-04-26T14:42:30.998Z</time></trkpt><trkpt lat="43.5468974675485" lon="13.478043194339334"><ele>120.0</ele><time>2026-04-26T14:42:31.998Z</time></trkpt><trkpt lat="43.546799412028356" lon="13.47796262570418"><ele>120.0</ele><time>2026-04-26T14:42:33.998Z</time></trkpt><trkpt lat="43.54670456525468" lon="13.47788326218321"><ele>116.83333333333333</ele><time>2026-04-26T14:42:35.998Z</time></trkpt><trkpt lat="43.54661328716363" lon="13.47780233423754"><ele>113.66666666666666</ele><time>2026-04-26T14:42:37.998Z</time></trkpt><trkpt lat="43.54653843063317" lon="13.477737342989482"><ele>110.5</ele><time>2026-04-26T14:42:39.998Z</time></trkpt><trkpt lat="43.54645841901047" lon="13.47767928687875"><ele>107.33333333333333</ele><time>2026-04-26T14:42:42.998Z</time></trkpt><trkpt lat="43.54637558198493" lon="13.477635399105043"><ele>104.16666666666666</ele><time>2026-04-26T14:42:45.998Z</time></trkpt><trkpt lat="43.546305316980884" lon="13.477651053190014"><ele>101.0</ele><time>2026-04-26T14:42:47.998Z</time></trkpt><trkpt lat="43.54625106851865" lon="13.477734794614387"><ele>98.49999999999999</ele><time>2026-04-26T14:42:49.998Z</time></trkpt><trkpt lat="43.54618827869395" lon="13.47783051874474"><ele>96.0</ele><time>2026-04-26T14:42:53Z</time></trkpt><trkpt lat="43.546156283956456" lon="13.477905602603137"><ele>93.5</ele><time>2026-04-26T14:42:55Z</time></trkpt><trkpt lat="43.54612250317936" lon="13.477989185044471"><ele>91.0</ele><time>2026-04-26T14:42:57Z</time></trkpt><trkpt lat="43.54608864809479" lon="13.478062650094882"><ele>88.5</ele><time>2026-04-26T14:42:59Z</time></trkpt><trkpt lat="43.54604069285856" lon="13.478162253044847"><ele>86.0</ele><time>2026-04-26T14:43:02Z</time></trkpt><trkpt lat="43.54600748664592" lon="13.478262529486281"><ele>86.0</ele><time>2026-04-26T14:43:05Z</time></trkpt><trkpt lat="43.54596838590309" lon="13.478341350791604"><ele>86.0</ele><time>2026-04-26T14:43:08Z</time></trkpt><trkpt lat="43.54593568902345" lon="13.478429650159658"><ele>86.0</ele><time>2026-04-26T14:43:10Z</time></trkpt><trkpt lat="43.545908329379344" lon="13.478526571030487"><ele>86.0</ele><time>2026-04-26T14:43:12Z</time></trkpt><trkpt lat="43.545874167746526" lon="13.478622939051704"><ele>86.0</ele><time>2026-04-26T14:43:14Z</time></trkpt><trkpt lat="43.545838629078176" lon="13.478723337035857"><ele>86.0</ele><time>2026-04-26T14:43:16Z</time></trkpt><trkpt lat="43.54580308600984" lon="13.478815002848545"><ele>86.00000000000001</ele><time>2026-04-26T14:43:18Z</time></trkpt><trkpt lat="43.54577091620655" lon="13.47890780546268"><ele>86.0</ele><time>2026-04-26T14:43:21Z</time></trkpt><trkpt lat="43.545737324044374" lon="13.47898589419112"><ele>86.0</ele><time>2026-04-26T14:43:24Z</time></trkpt><trkpt lat="43.54571561370377" lon="13.479088539329073"><ele>86.0</ele><time>2026-04-26T14:43:27Z</time></trkpt><trkpt lat="43.545706160179236" lon="13.479187231039447"><ele>86.0</ele><time>2026-04-26T14:43:29Z</time></trkpt><trkpt lat="43.545697795374124" lon="13.479286437578594"><ele>86.00000000000001</ele><time>2026-04-26T14:43:31Z</time></trkpt><trkpt lat="43.545677954369495" lon="13.479385491177815"><ele>86.0</ele><time>2026-04-26T14:43:33Z</time></trkpt><trkpt lat="43.54566088686904" lon="13.47947057921625"><ele>86.0</ele><time>2026-04-26T14:43:35Z</time></trkpt><trkpt lat="43.545644428863056" lon="13.479595853883687"><ele>86.0</ele><time>2026-04-26T14:43:38Z</time></trkpt><trkpt lat="43.54562903044203" lon="13.479716882826182"><ele>86.0</ele><time>2026-04-26T14:43:40.999Z</time></trkpt><trkpt lat="43.54561268330775" lon="13.479818122166979"><ele>86.0</ele><time>2026-04-26T14:43:42.999Z</time></trkpt><trkpt lat="43.54559386635262" lon="13.479926161138303"><ele>86.0</ele><time>2026-04-26T14:43:44.999Z</time></trkpt><trkpt lat="43.545582767990616" lon="13.480050599403002"><ele>86.0</ele><time>2026-04-26T14:43:46.999Z</time></trkpt><trkpt lat="43.54557899485337" lon="13.480164511894966"><ele>85.19999999999999</ele><time>2026-04-26T14:43:48.999Z</time></trkpt><trkpt lat="43.54556720739366" lon="13.480274642293374"><ele>84.39999999999999</ele><time>2026-04-26T14:43:50.999Z</time></trkpt><trkpt lat="43.54556353473973" lon="13.480389706545113"><ele>83.6</ele><time>2026-04-26T14:43:52.999Z</time></trkpt><trkpt lat="43.545555254182375" lon="13.48053144688783"><ele>82.8</ele><time>2026-04-26T14:43:54.999Z</time></trkpt><trkpt lat="43.54554512381644" lon="13.480673153234052"><ele>82.0</ele><time>2026-04-26T14:43:56.999Z</time></trkpt><trkpt lat="43.54554070071741" lon="13.480813129946663"><ele>81.8</ele><time>2026-04-26T14:43:58.999Z</time></trkpt><trkpt lat="43.54553666099366" lon="13.480957659616141"><ele>81.6</ele><time>2026-04-26T14:44:00.999Z</time></trkpt><trkpt lat="43.54553240625704" lon="13.481113948012881"><ele>81.39999999999999</ele><time>2026-04-26T14:44:02.999Z</time></trkpt><trkpt lat="43.54553548758625" lon="13.48127044044343"><ele>81.19999999999999</ele><time>2026-04-26T14:44:04.999Z</time></trkpt><trkpt lat="43.54554431220986" lon="13.481423334742084"><ele>81.0</ele><time>2026-04-26T14:44:06.999Z</time></trkpt><trkpt lat="43.54554468280915" lon="13.481570667369105"><ele>79.6</ele><time>2026-04-26T14:44:08.999Z</time></trkpt><trkpt lat="43.54554559453299" lon="13.481706179585814"><ele>78.19999999999999</ele><time>2026-04-26T14:44:10.999Z</time></trkpt><trkpt lat="43.54554528180491" lon="13.481851800108592"><ele>76.80000000000001</ele><time>2026-04-26T14:44:12.999Z</time></trkpt><trkpt lat="43.545552364682365" lon="13.481997762393688"><ele>75.4</ele><time>2026-04-26T14:44:14.999Z</time></trkpt><trkpt lat="43.54555428319278" lon="13.482139541489857"><ele>74.0</ele><time>2026-04-26T14:44:16.999Z</time></trkpt><trkpt lat="43.54555206461589" lon="13.482266627905819"><ele>71.66666666666667</ele><time>2026-04-26T14:44:18.999Z</time></trkpt><trkpt lat="43.54554758688869" lon="13.482395644570895"><ele>69.33333333333334</ele><time>2026-04-26T14:44:20.999Z</time></trkpt><trkpt lat="43.54553110228336" lon="13.482507473274493"><ele>67.0</ele><time>2026-04-26T14:44:22.999Z</time></trkpt><trkpt lat="43.54550130774103" lon="13.482606444266297"><ele>64.66666666666667</ele><time>2026-04-26T14:44:24.999Z</time></trkpt><trkpt lat="43.54544063824255" lon="13.48266485659598"><ele>62.333333333333336</ele><time>2026-04-26T14:44:26.999Z</time></trkpt><trkpt lat="43.54535473944291" lon="13.482702736228571"><ele>60.0</ele><time>2026-04-26T14:44:28.998Z</time></trkpt><trkpt lat="43.54524328882281" lon="13.482738355731364"><ele>58.4</ele><time>2026-04-26T14:44:30.998Z</time></trkpt><trkpt lat="43.54513269875636" lon="13.482766809667865"><ele>56.8</ele><time>2026-04-26T14:44:32.998Z</time></trkpt><trkpt lat="43.54502416926432" lon="13.482801099540582"><ele>55.2</ele><time>2026-04-26T14:44:34.998Z</time></trkpt><trkpt lat="43.54491382183187" lon="13.48284047533003"><ele>53.6</ele><time>2026-04-26T14:44:36.998Z</time></trkpt><trkpt lat="43.54481164975305" lon="13.482890483888822"><ele>52.0</ele><time>2026-04-26T14:44:38.998Z</time></trkpt><trkpt lat="43.54471178075033" lon="13.48295143899738"><ele>51.8</ele><time>2026-04-26T14:44:40.998Z</time></trkpt><trkpt lat="43.54461420796724" lon="13.48302011230889"><ele>51.6</ele><time>2026-04-26T14:44:42.998Z</time></trkpt><trkpt lat="43.54452038907423" lon="13.483078415334788"><ele>51.4</ele><time>2026-04-26T14:44:44.998Z</time></trkpt><trkpt lat="43.544436601092364" lon="13.483141092329717"><ele>51.199999999999996</ele><time>2026-04-26T14:44:46.998Z</time></trkpt><trkpt lat="43.54442919102765" lon="13.483268035418007"><ele>51.0</ele><time>2026-04-26T14:44:48.998Z</time></trkpt><trkpt lat="43.54441221389709" lon="13.483408887391597"><ele>50.833333333333336</ele><time>2026-04-26T14:44:50.998Z</time></trkpt><trkpt lat="43.544440438170746" lon="13.48358039103284"><ele>50.66666666666667</ele><time>2026-04-26T14:44:52.998Z</time></trkpt><trkpt lat="43.54444896308651" lon="13.483674246426492"><ele>50.5</ele><time>2026-04-26T14:44:53.998Z</time></trkpt><trkpt lat="43.54445904496224" lon="13.483773325407453"><ele>50.333333333333336</ele><time>2026-04-26T14:44:54.998Z</time></trkpt><trkpt lat="43.54446943334191" lon="13.483872881402988"><ele>50.16666666666667</ele><time>2026-04-26T14:44:55.998Z</time></trkpt><trkpt lat="43.54448376166496" lon="13.483966051849903"><ele>50.0</ele><time>2026-04-26T14:44:57Z</time></trkpt><trkpt lat="43.544500455409846" lon="13.484054187951502"><ele>50.0</ele><time>2026-04-26T14:44:58Z</time></trkpt><trkpt lat="43.54452300940714" lon="13.484218893379948"><ele>50.0</ele><time>2026-04-26T14:45:00Z</time></trkpt><trkpt lat="43.54453339005229" lon="13.484384703331921"><ele>50.0</ele><time>2026-04-26T14:45:02Z</time></trkpt><trkpt lat="43.544544514652216" lon="13.484539515862368"><ele>50.0</ele><time>2026-04-26T14:45:04Z</time></trkpt><trkpt lat="43.5445545603822" lon="13.484672181479851"><ele>50.00000000000001</ele><time>2026-04-26T14:45:06Z</time></trkpt><trkpt lat="43.54457123667437" lon="13.484787892765778"><ele>50.0</ele><time>2026-04-26T14:45:08Z</time></trkpt><trkpt lat="43.54462414487481" lon="13.484899625185987"><ele>50.0</ele><time>2026-04-26T14:45:10Z</time></trkpt><trkpt lat="43.544681417332775" lon="13.485032978209192"><ele>50.0</ele><time>2026-04-26T14:45:12Z</time></trkpt><trkpt lat="43.54471912926266" lon="13.485105775620692"><ele>50.00000000000001</ele><time>2026-04-26T14:45:13Z</time></trkpt><trkpt lat="43.5447566676909" lon="13.485180497526015"><ele>50.0</ele><time>2026-04-26T14:45:14Z</time></trkpt><trkpt lat="43.544793471496895" lon="13.485257164916366"><ele>50.00000000000001</ele><time>2026-04-26T14:45:15Z</time></trkpt><trkpt lat="43.54481638119149" lon="13.485338915274035"><ele>50.0</ele><time>2026-04-26T14:45:16Z</time></trkpt><trkpt lat="43.544778714319875" lon="13.485489639473426"><ele>50.0</ele><time>2026-04-26T14:45:18Z</time></trkpt><trkpt lat="43.54470958285977" lon="13.485537762388828"><ele>50.0</ele><time>2026-04-26T14:45:19Z</time></trkpt><trkpt lat="43.54464025327395" lon="13.485582092883334"><ele>50.00000000000001</ele><time>2026-04-26T14:45:20Z</time></trkpt><trkpt lat="43.54457298844258" lon="13.485619613369096"><ele>50.0</ele><time>2026-04-26T14:45:21Z</time></trkpt><trkpt lat="43.54449583447472" lon="13.485667067340584"><ele>50.142857142857146</ele><time>2026-04-26T14:45:22Z</time></trkpt><trkpt lat="43.54442059556988" lon="13.485719179563807"><ele>50.285714285714285</ele><time>2026-04-26T14:45:23Z</time></trkpt><trkpt lat="43.54436057131159" lon="13.48578933320963"><ele>50.42857142857143</ele><time>2026-04-26T14:45:24Z</time></trkpt><trkpt lat="43.54431961712192" lon="13.485872379683068"><ele>50.57142857142857</ele><time>2026-04-26T14:45:25Z</time></trkpt><trkpt lat="43.54431393724639" lon="13.485968854145534"><ele>50.714285714285715</ele><time>2026-04-26T14:45:26Z</time></trkpt><trkpt lat="43.5443359165535" lon="13.486059496637035"><ele>50.85714285714286</ele><time>2026-04-26T14:45:27Z</time></trkpt><trkpt lat="43.544375643566376" lon="13.486144981222807"><ele>51.0</ele><time>2026-04-26T14:45:28Z</time></trkpt><trkpt lat="43.54440087219945" lon="13.486245322697544"><ele>51.333333333333336</ele><time>2026-04-26T14:45:29Z</time></trkpt><trkpt lat="43.5444333865325" lon="13.4863322674911"><ele>51.66666666666667</ele><time>2026-04-26T14:45:30Z</time></trkpt><trkpt lat="43.54448458031123" lon="13.486460854663042"><ele>52.0</ele><time>2026-04-26T14:45:32Z</time></trkpt><trkpt lat="43.544508922776565" lon="13.486565553001206"><ele>52.333333333333336</ele><time>2026-04-26T14:45:35Z</time></trkpt><trkpt lat="43.544447610330124" lon="13.486665389608657"><ele>52.66666666666667</ele><time>2026-04-26T14:45:37Z</time></trkpt><trkpt lat="43.54438082482239" lon="13.4867032651614"><ele>53.0</ele><time>2026-04-26T14:45:38Z</time></trkpt><trkpt lat="43.544309349023955" lon="13.48674609335932"><ele>53.00000000000001</ele><time>2026-04-26T14:45:38.999Z</time></trkpt><trkpt lat="43.54423950890208" lon="13.486797580294951"><ele>53.0</ele><time>2026-04-26T14:45:39.999Z</time></trkpt><trkpt lat="43.5441709225313" lon="13.48684992795807"><ele>53.0</ele><time>2026-04-26T14:45:40.999Z</time></trkpt><trkpt lat="43.54409492856718" lon="13.486908783285116"><ele>53.0</ele><time>2026-04-26T14:45:41.999Z</time></trkpt><trkpt lat="43.54401335909669" lon="13.486972535379852"><ele>53.00000000000001</ele><time>2026-04-26T14:45:42.999Z</time></trkpt><trkpt lat="43.54391761074582" lon="13.487016413327241"><ele>53.0</ele><time>2026-04-26T14:45:43.999Z</time></trkpt><trkpt lat="43.54382617203262" lon="13.487080664102248"><ele>53.599999999999994</ele><time>2026-04-26T14:45:44.999Z</time></trkpt><trkpt lat="43.543742165139626" lon="13.487162425670416"><ele>54.199999999999996</ele><time>2026-04-26T14:45:45.999Z</time></trkpt><trkpt lat="43.54364942675846" lon="13.487218740183156"><ele>54.8</ele><time>2026-04-26T14:45:46.999Z</time></trkpt><trkpt lat="43.54355866445688" lon="13.487283341169835"><ele>55.4</ele><time>2026-04-26T14:45:47.999Z</time></trkpt><trkpt lat="43.54346310195508" lon="13.487351133449105"><ele>56.0</ele><time>2026-04-26T14:45:48.999Z</time></trkpt><trkpt lat="43.54336685934026" lon="13.48741618985159"><ele>56.0</ele><time>2026-04-26T14:45:49.999Z</time></trkpt><trkpt lat="43.54327240519566" lon="13.4874838167692"><ele>55.99999999999999</ele><time>2026-04-26T14:45:50.999Z</time></trkpt><trkpt lat="43.54317766965088" lon="13.487553479137805"><ele>55.99999999999999</ele><time>2026-04-26T14:45:51.999Z</time></trkpt><trkpt lat="43.54308514202474" lon="13.487621943352497"><ele>56.0</ele><time>2026-04-26T14:45:52.999Z</time></trkpt><trkpt lat="43.54299162347595" lon="13.487691663007789"><ele>56.0</ele><time>2026-04-26T14:45:53.999Z</time></trkpt><trkpt lat="43.542896865472535" lon="13.487761590300062"><ele>55.599999999999994</ele><time>2026-04-26T14:45:54.999Z</time></trkpt><trkpt lat="43.54280078451834" lon="13.487830150630938"><ele>55.199999999999996</ele><time>2026-04-26T14:45:55.999Z</time></trkpt><trkpt lat="43.54270539600405" lon="13.487898223633717"><ele>54.800000000000004</ele><time>2026-04-26T14:45:56.999Z</time></trkpt><trkpt lat="43.542616585707044" lon="13.487964523044095"><ele>54.400000000000006</ele><time>2026-04-26T14:45:57.999Z</time></trkpt><trkpt lat="43.54253325710372" lon="13.48802998782825"><ele>54.0</ele><time>2026-04-26T14:45:58.999Z</time></trkpt><trkpt lat="43.542443564236876" lon="13.488071723755159"><ele>54.0</ele><time>2026-04-26T14:45:59.999Z</time></trkpt><trkpt lat="43.54236810908417" lon="13.488151071262616"><ele>54.00000000000001</ele><time>2026-04-26T14:46:00.999Z</time></trkpt><trkpt lat="43.54227545368737" lon="13.488210094193839"><ele>54.00000000000001</ele><time>2026-04-26T14:46:01.999Z</time></trkpt><trkpt lat="43.5421764190269" lon="13.488277318452445"><ele>54.0</ele><time>2026-04-26T14:46:02.999Z</time></trkpt><trkpt lat="43.542080480812785" lon="13.488347095580075"><ele>54.0</ele><time>2026-04-26T14:46:03.999Z</time></trkpt><trkpt lat="43.54198618940531" lon="13.488417796412561"><ele>53.0</ele><time>2026-04-26T14:46:04.999Z</time></trkpt><trkpt lat="43.541894123391465" lon="13.48848009723298"><ele>52.00000000000001</ele><time>2026-04-26T14:46:05.999Z</time></trkpt><trkpt lat="43.541803618082405" lon="13.488521557355819"><ele>51.0</ele><time>2026-04-26T14:46:06.999Z</time></trkpt><trkpt lat="43.541718395228656" lon="13.488580717542698"><ele>50.0</ele><time>2026-04-26T14:46:07.999Z</time></trkpt><trkpt lat="43.5416288290227" lon="13.488642892872889"><ele>49.0</ele><time>2026-04-26T14:46:08.999Z</time></trkpt><trkpt lat="43.541539257678664" lon="13.488719289922724"><ele>48.5</ele><time>2026-04-26T14:46:09.999Z</time></trkpt><trkpt lat="43.54144183806761" lon="13.488787809351308"><ele>48.0</ele><time>2026-04-26T14:46:10.999Z</time></trkpt><trkpt lat="43.541339652100035" lon="13.488854276163494"><ele>47.5</ele><time>2026-04-26T14:46:11.999Z</time></trkpt><trkpt lat="43.541238967650706" lon="13.4889223881503"><ele>47.0</ele><time>2026-04-26T14:46:12.999Z</time></trkpt><trkpt lat="43.541135636732626" lon="13.488996686027201"><ele>47.0</ele><time>2026-04-26T14:46:13.999Z</time></trkpt><trkpt lat="43.541025241836664" lon="13.48907428419782"><ele>47.0</ele><time>2026-04-26T14:46:14.999Z</time></trkpt><trkpt lat="43.54090683431465" lon="13.489163208455397"><ele>47.0</ele><time>2026-04-26T14:46:15.999Z</time></trkpt><trkpt lat="43.54078378510031" lon="13.489254900994545"><ele>47.0</ele><time>2026-04-26T14:46:16.999Z</time></trkpt><trkpt lat="43.54065959689252" lon="13.489352870625847"><ele>47.0</ele><time>2026-04-26T14:46:17.999Z</time></trkpt><trkpt lat="43.54053992055235" lon="13.48946550130379"><ele>47.0</ele><time>2026-04-26T14:46:18.999Z</time></trkpt><trkpt lat="43.54042744619615" lon="13.489592738226014"><ele>47.0</ele><time>2026-04-26T14:46:19.999Z</time></trkpt><trkpt lat="43.54031649666628" lon="13.489724758815337"><ele>47.0</ele><time>2026-04-26T14:46:20.999Z</time></trkpt><trkpt lat="43.54020008231331" lon="13.48986307803856"><ele>46.666666666666664</ele><time>2026-04-26T14:46:21.999Z</time></trkpt><trkpt lat="43.540083164541485" lon="13.489998370852744"><ele>46.333333333333336</ele><time>2026-04-26T14:46:22.999Z</time></trkpt><trkpt lat="43.539966280367025" lon="13.490131766828759"><ele>46.0</ele><time>2026-04-26T14:46:23.999Z</time></trkpt><trkpt lat="43.53985060982775" lon="13.490259284956698"><ele>46.0</ele><time>2026-04-26T14:46:24.999Z</time></trkpt><trkpt lat="43.53974878927784" lon="13.490390472609517"><ele>46.0</ele><time>2026-04-26T14:46:25.999Z</time></trkpt><trkpt lat="43.53966220008905" lon="13.490532472563055"><ele>46.0</ele><time>2026-04-26T14:46:26.999Z</time></trkpt><trkpt lat="43.53959322479238" lon="13.490676073389912"><ele>46.0</ele><time>2026-04-26T14:46:27.999Z</time></trkpt><trkpt lat="43.539547315372594" lon="13.490823885474224"><ele>45.75</ele><time>2026-04-26T14:46:28.999Z</time></trkpt><trkpt lat="43.539522650460015" lon="13.49097552580775"><ele>45.5</ele><time>2026-04-26T14:46:29.999Z</time></trkpt><trkpt lat="43.53951890744992" lon="13.49112990984197"><ele>45.25</ele><time>2026-04-26T14:46:30.998Z</time></trkpt><trkpt lat="43.53951995630865" lon="13.491283670567311"><ele>45.0</ele><time>2026-04-26T14:46:31.998Z</time></trkpt><trkpt lat="43.5395225998981" lon="13.491444099034304"><ele>45.0</ele><time>2026-04-26T14:46:32.998Z</time></trkpt><trkpt lat="43.53953029406896" lon="13.491616712013773"><ele>45.0</ele><time>2026-04-26T14:46:33.998Z</time></trkpt><trkpt lat="43.53953546560407" lon="13.491800897177258"><ele>45.0</ele><time>2026-04-26T14:46:34.998Z</time></trkpt><trkpt lat="43.539541793498515" lon="13.491981965602347"><ele>45.0</ele><time>2026-04-26T14:46:35.998Z</time></trkpt><trkpt lat="43.53954322061745" lon="13.492151337742062"><ele>45.0</ele><time>2026-04-26T14:46:36.998Z</time></trkpt><trkpt lat="43.539533310981035" lon="13.492294364562342"><ele>45.0</ele><time>2026-04-26T14:46:37.998Z</time></trkpt><trkpt lat="43.53949883316511" lon="13.492418991728977"><ele>45.0</ele><time>2026-04-26T14:46:38.998Z</time></trkpt><trkpt lat="43.539431359709674" lon="13.492508117117069"><ele>45.0</ele><time>2026-04-26T14:46:39.998Z</time></trkpt><trkpt lat="43.53937840565549" lon="13.492608417354422"><ele>45.0</ele><time>2026-04-26T14:46:40.998Z</time></trkpt><trkpt lat="43.539306426743224" lon="13.492672393729395"><ele>45.0</ele><time>2026-04-26T14:46:41.998Z</time></trkpt><trkpt lat="43.53922724152576" lon="13.492686779030493"><ele>45.0</ele><time>2026-04-26T14:46:42.998Z</time></trkpt><trkpt lat="43.53916025478327" lon="13.492611510202156"><ele>45.0</ele><time>2026-04-26T14:46:43.998Z</time></trkpt><trkpt lat="43.539090986224736" lon="13.492563180909139"><ele>45.0</ele><time>2026-04-26T14:46:44.998Z</time></trkpt><trkpt lat="43.53901988650579" lon="13.492507732671585"><ele>45.0</ele><time>2026-04-26T14:46:45.998Z</time></trkpt><trkpt lat="43.538942555933204" lon="13.492444223225602"><ele>45.0</ele><time>2026-04-26T14:46:46.998Z</time></trkpt><trkpt lat="43.53886018756888" lon="13.492377903246584"><ele>45.0</ele><time>2026-04-26T14:46:47.998Z</time></trkpt><trkpt lat="43.538775241902776" lon="13.492310631908806"><ele>45.0</ele><time>2026-04-26T14:46:48.998Z</time></trkpt><trkpt lat="43.5386908862246" lon="13.49224174876165"><ele>45.0</ele><time>2026-04-26T14:46:49.998Z</time></trkpt><trkpt lat="43.53860271004884" lon="13.492186037682684"><ele>45.0</ele><time>2026-04-26T14:46:50.998Z</time></trkpt><trkpt lat="43.53853669657061" lon="13.49210488346362"><ele>45.0</ele><time>2026-04-26T14:46:51.998Z</time></trkpt><trkpt lat="43.53847077879564" lon="13.492044273605444"><ele>45.0</ele><time>2026-04-26T14:46:52.998Z</time></trkpt><trkpt lat="43.538404635442156" lon="13.49200650191913"><ele>45.0</ele><time>2026-04-26T14:46:53.998Z</time></trkpt><trkpt lat="43.53835077447249" lon="13.491955180407464"><ele>45.0</ele><time>2026-04-26T14:46:54.998Z</time></trkpt><trkpt lat="43.538268046233526" lon="13.491877656626333"><ele>45.0</ele><time>2026-04-26T14:46:56.998Z</time></trkpt><trkpt lat="43.53816518768119" lon="13.491958856400817"><ele>45.0</ele><time>2026-04-26T14:46:58.998Z</time></trkpt><trkpt lat="43.53808664173613" lon="13.492099593017931"><ele>45.0</ele><time>2026-04-26T14:47:00.998Z</time></trkpt><trkpt lat="43.53804647683371" lon="13.492191831434639"><ele>45.0</ele><time>2026-04-26T14:47:01.998Z</time></trkpt><trkpt lat="43.53800485436975" lon="13.4922914463244"><ele>45.0</ele><time>2026-04-26T14:47:03Z</time></trkpt><trkpt lat="43.53796644462818" lon="13.492399380648783"><ele>45.0</ele><time>2026-04-26T14:47:04Z</time></trkpt><trkpt lat="43.53793390694773" lon="13.492513304868877"><ele>45.0</ele><time>2026-04-26T14:47:05Z</time></trkpt><trkpt lat="43.5378801195132" lon="13.492635593794718"><ele>45.0</ele><time>2026-04-26T14:47:06Z</time></trkpt><trkpt lat="43.53782750023664" lon="13.492767486766345"><ele>45.0</ele><time>2026-04-26T14:47:07Z</time></trkpt><trkpt lat="43.53776686306949" lon="13.492899503771755"><ele>45.0</ele><time>2026-04-26T14:47:08Z</time></trkpt><trkpt lat="43.5376978245089" lon="13.493022411992246"><ele>45.0</ele><time>2026-04-26T14:47:09Z</time></trkpt><trkpt lat="43.53762642049742" lon="13.493147585595649"><ele>45.0</ele><time>2026-04-26T14:47:10Z</time></trkpt><trkpt lat="43.537551713881555" lon="13.493278146239305"><ele>45.5</ele><time>2026-04-26T14:47:11Z</time></trkpt><trkpt lat="43.5374748791777" lon="13.493407402416414"><ele>46.0</ele><time>2026-04-26T14:47:12Z</time></trkpt><trkpt lat="43.537399586088256" lon="13.493541772888195"><ele>46.5</ele><time>2026-04-26T14:47:13Z</time></trkpt><trkpt lat="43.53732361848065" lon="13.49365355727374"><ele>47.0</ele><time>2026-04-26T14:47:14Z</time></trkpt><trkpt lat="43.53725303175258" lon="13.493758851628655"><ele>46.8</ele><time>2026-04-26T14:47:15Z</time></trkpt><trkpt lat="43.537187064504984" lon="13.493853281609068"><ele>46.6</ele><time>2026-04-26T14:47:16Z</time></trkpt><trkpt lat="43.53712151048713" lon="13.49394865552904"><ele>46.4</ele><time>2026-04-26T14:47:17Z</time></trkpt><trkpt lat="43.53705351370915" lon="13.49404651711322"><ele>46.199999999999996</ele><time>2026-04-26T14:47:18Z</time></trkpt><trkpt lat="43.536985774966446" lon="13.494150099784493"><ele>46.0</ele><time>2026-04-26T14:47:19Z</time></trkpt><trkpt lat="43.536909031136425" lon="13.49426191146752"><ele>46.0</ele><time>2026-04-26T14:47:20Z</time></trkpt><trkpt lat="43.53682477949493" lon="13.494377377893542"><ele>46.0</ele><time>2026-04-26T14:47:21Z</time></trkpt><trkpt lat="43.53673731401175" lon="13.494491983714017"><ele>46.0</ele><time>2026-04-26T14:47:22Z</time></trkpt><trkpt lat="43.53664415513363" lon="13.494607909245833"><ele>46.0</ele><time>2026-04-26T14:47:23Z</time></trkpt><trkpt lat="43.53654887437044" lon="13.494728034612406"><ele>45.25</ele><time>2026-04-26T14:47:24Z</time></trkpt><trkpt lat="43.536452348870064" lon="13.494853719444464"><ele>44.5</ele><time>2026-04-26T14:47:25Z</time></trkpt><trkpt lat="43.53634873281628" lon="13.494983441662841"><ele>43.75</ele><time>2026-04-26T14:47:26Z</time></trkpt><trkpt lat="43.53624410662237" lon="13.495111719987046"><ele>43.0</ele><time>2026-04-26T14:47:27Z</time></trkpt><trkpt lat="43.536139271737916" lon="13.495240669438585"><ele>43.0</ele><time>2026-04-26T14:47:28Z</time></trkpt><trkpt lat="43.53604189703605" lon="13.495364347992133"><ele>43.0</ele><time>2026-04-26T14:47:29Z</time></trkpt><trkpt lat="43.53594627245481" lon="13.495484409862305"><ele>43.0</ele><time>2026-04-26T14:47:30Z</time></trkpt><trkpt lat="43.53585350542464" lon="13.495601954791091"><ele>43.0</ele><time>2026-04-26T14:47:31Z</time></trkpt><trkpt lat="43.53576235558726" lon="13.495717010770583"><ele>43.0</ele><time>2026-04-26T14:47:32Z</time></trkpt><trkpt lat="43.535670555536015" lon="13.495832085310301"><ele>43.0</ele><time>2026-04-26T14:47:33Z</time></trkpt><trkpt lat="43.535581747925775" lon="13.49594100355739"><ele>43.0</ele><time>2026-04-26T14:47:34Z</time></trkpt><trkpt lat="43.53549605004335" lon="13.496048891706053"><ele>43.0</ele><time>2026-04-26T14:47:35Z</time></trkpt><trkpt lat="43.53541498980945" lon="13.496156707003507"><ele>42.75</ele><time>2026-04-26T14:47:36Z</time></trkpt><trkpt lat="43.53533860844275" lon="13.496275679891493"><ele>42.5</ele><time>2026-04-26T14:47:37Z</time></trkpt><trkpt lat="43.53526777488191" lon="13.496410462760181"><ele>42.25</ele><time>2026-04-26T14:47:38Z</time></trkpt><trkpt lat="43.535199435125755" lon="13.496559275960406"><ele>42.0</ele><time>2026-04-26T14:47:39Z</time></trkpt><trkpt lat="43.53513716792093" lon="13.496715765515567"><ele>42.0</ele><time>2026-04-26T14:47:40Z</time></trkpt><trkpt lat="43.53507957070381" lon="13.496872492457925"><ele>42.0</ele><time>2026-04-26T14:47:40.999Z</time></trkpt><trkpt lat="43.53502853922104" lon="13.49702535996843"><ele>42.0</ele><time>2026-04-26T14:47:41.999Z</time></trkpt><trkpt lat="43.53497854946232" lon="13.497177935562155"><ele>42.0</ele><time>2026-04-26T14:47:42.999Z</time></trkpt><trkpt lat="43.53492750335178" lon="13.497321743492947"><ele>42.0</ele><time>2026-04-26T14:47:43.999Z</time></trkpt><trkpt lat="43.53489281408334" lon="13.497477969707276"><ele>42.0</ele><time>2026-04-26T14:47:44.999Z</time></trkpt><trkpt lat="43.53486335206266" lon="13.497629018077001"><ele>42.0</ele><time>2026-04-26T14:47:45.999Z</time></trkpt><trkpt lat="43.534849621084064" lon="13.49778508272415"><ele>42.0</ele><time>2026-04-26T14:47:46.999Z</time></trkpt><trkpt lat="43.53485439352816" lon="13.497941411558037"><ele>42.333333333333336</ele><time>2026-04-26T14:47:47.999Z</time></trkpt><trkpt lat="43.53486542330205" lon="13.49809456776501"><ele>42.666666666666664</ele><time>2026-04-26T14:47:48.999Z</time></trkpt><trkpt lat="43.53487634533533" lon="13.498234904946145"><ele>43.0</ele><time>2026-04-26T14:47:49.999Z</time></trkpt><trkpt lat="43.534877397659024" lon="13.498359177572091"><ele>43.33333333333333</ele><time>2026-04-26T14:47:50.999Z</time></trkpt><trkpt lat="43.53486802149605" lon="13.498460153335653"><ele>43.666666666666664</ele><time>2026-04-26T14:47:51.999Z</time></trkpt><trkpt lat="43.53485544472039" lon="13.498549710206998"><ele>44.0</ele><time>2026-04-26T14:47:52.999Z</time></trkpt><trkpt lat="43.53484444554897" lon="13.498644641401828"><ele>43.800000000000004</ele><time>2026-04-26T14:47:53.999Z</time></trkpt><trkpt lat="43.53482648844382" lon="13.498764599143882"><ele>43.6</ele><time>2026-04-26T14:47:54.999Z</time></trkpt><trkpt lat="43.534805281564665" lon="13.498901234680098"><ele>43.4</ele><time>2026-04-26T14:47:55.999Z</time></trkpt><trkpt lat="43.53478095119631" lon="13.499052809053616"><ele>43.2</ele><time>2026-04-26T14:47:56.999Z</time></trkpt><trkpt lat="43.53475488122305" lon="13.499209777062235"><ele>43.0</ele><time>2026-04-26T14:47:57.999Z</time></trkpt><trkpt lat="43.53473039062552" lon="13.499375215499164"><ele>43.0</ele><time>2026-04-26T14:47:58.999Z</time></trkpt><trkpt lat="43.5347027450541" lon="13.499534371435239"><ele>43.0</ele><time>2026-04-26T14:47:59.999Z</time></trkpt><trkpt lat="43.53467709981463" lon="13.499676707175034"><ele>43.0</ele><time>2026-04-26T14:48:00.999Z</time></trkpt><trkpt lat="43.5346551069745" lon="13.49979741340515"><ele>43.0</ele><time>2026-04-26T14:48:01.999Z</time></trkpt><trkpt lat="43.53463149631691" lon="13.499910175501316"><ele>43.0</ele><time>2026-04-26T14:48:02.999Z</time></trkpt><trkpt lat="43.534607714819764" lon="13.500012662863464"><ele>43.333333333333336</ele><time>2026-04-26T14:48:03.999Z</time></trkpt><trkpt lat="43.534583668877644" lon="13.500106306296967"><ele>43.66666666666667</ele><time>2026-04-26T14:48:04.999Z</time></trkpt><trkpt lat="43.53455830312347" lon="13.500192363618911"><ele>44.0</ele><time>2026-04-26T14:48:05.999Z</time></trkpt><trkpt lat="43.53450125041033" lon="13.50032218074391"><ele>44.333333333333336</ele><time>2026-04-26T14:48:07.999Z</time></trkpt><trkpt lat="43.534432473420196" lon="13.500399248465797"><ele>44.666666666666664</ele><time>2026-04-26T14:48:09.999Z</time></trkpt><trkpt lat="43.53432697010161" lon="13.500394298515463"><ele>45.0</ele><time>2026-04-26T14:48:11.999Z</time></trkpt><trkpt lat="43.53427104079531" lon="13.500349874600087"><ele>44.0</ele><time>2026-04-26T14:48:12.999Z</time></trkpt><trkpt lat="43.53421370381787" lon="13.500273308868923"><ele>43.0</ele><time>2026-04-26T14:48:13.999Z</time></trkpt><trkpt lat="43.534149322718996" lon="13.500203356941666"><ele>42.0</ele><time>2026-04-26T14:48:14.999Z</time></trkpt><trkpt lat="43.53406842116438" lon="13.500166946313735"><ele>41.0</ele><time>2026-04-26T14:48:15.999Z</time></trkpt><trkpt lat="43.53397277048251" lon="13.500157649885603"><ele>40.0</ele><time>2026-04-26T14:48:16.999Z</time></trkpt><trkpt lat="43.53386648152277" lon="13.500149031891617"><ele>39.0</ele><time>2026-04-26T14:48:17.999Z</time></trkpt><trkpt lat="43.53375608128519" lon="13.500141397987697"><ele>38.8</ele><time>2026-04-26T14:48:18.999Z</time></trkpt><trkpt lat="43.5336483961205" lon="13.500138470580076"><ele>38.599999999999994</ele><time>2026-04-26T14:48:19.999Z</time></trkpt><trkpt lat="43.533543836888974" lon="13.50015168992067"><ele>38.4</ele><time>2026-04-26T14:48:20.999Z</time></trkpt><trkpt lat="43.53345377662138" lon="13.500202205336018"><ele>38.199999999999996</ele><time>2026-04-26T14:48:21.999Z</time></trkpt><trkpt lat="43.53337763173583" lon="13.500282591487306"><ele>38.0</ele><time>2026-04-26T14:48:22.999Z</time></trkpt><trkpt lat="43.53331732061821" lon="13.500383041111947"><ele>38.0</ele><time>2026-04-26T14:48:23.999Z</time></trkpt><trkpt lat="43.53327754778226" lon="13.50050309973419"><ele>38.0</ele><time>2026-04-26T14:48:24.999Z</time></trkpt><trkpt lat="43.533254839394075" lon="13.50063937325711"><ele>38.0</ele><time>2026-04-26T14:48:25.999Z</time></trkpt><trkpt lat="43.53324217781594" lon="13.500780119747542"><ele>38.0</ele><time>2026-04-26T14:48:26.999Z</time></trkpt><trkpt lat="43.53323191323551" lon="13.500914070022306"><ele>38.0</ele><time>2026-04-26T14:48:27.999Z</time></trkpt><trkpt lat="43.533220969735595" lon="13.501040981060221"><ele>38.0</ele><time>2026-04-26T14:48:28.999Z</time></trkpt><trkpt lat="43.5332155901918" lon="13.501152734599518"><ele>38.0</ele><time>2026-04-26T14:48:29.999Z</time></trkpt><trkpt lat="43.53323213191069" lon="13.50130514671132"><ele>38.0</ele><time>2026-04-26T14:48:31.999Z</time></trkpt><trkpt lat="43.53327144538549" lon="13.501380421816643"><ele>38.0</ele><time>2026-04-26T14:48:32.999Z</time></trkpt><trkpt lat="43.53332550101917" lon="13.501459148613336"><ele>38.0</ele><time>2026-04-26T14:48:33.999Z</time></trkpt><trkpt lat="43.53339615782291" lon="13.501538490489125"><ele>38.0</ele><time>2026-04-26T14:48:34.998Z</time></trkpt><trkpt lat="43.53347653147101" lon="13.501619796856598"><ele>37.8</ele><time>2026-04-26T14:48:35.998Z</time></trkpt><trkpt lat="43.533562806154556" lon="13.501707961337452"><ele>37.599999999999994</ele><time>2026-04-26T14:48:36.998Z</time></trkpt><trkpt lat="43.53365047402196" lon="13.501795213591524"><ele>37.400000000000006</ele><time>2026-04-26T14:48:37.998Z</time></trkpt><trkpt lat="43.53373301822968" lon="13.501882184775091"><ele>37.2</ele><time>2026-04-26T14:48:38.998Z</time></trkpt><trkpt lat="43.533813817164535" lon="13.501966920187074"><ele>37.0</ele><time>2026-04-26T14:48:39.998Z</time></trkpt><trkpt lat="43.5338872911711" lon="13.502047950300494"><ele>37.66666666666667</ele><time>2026-04-26T14:48:40.998Z</time></trkpt><trkpt lat="43.5339518585366" lon="13.502131855860787"><ele>38.333333333333336</ele><time>2026-04-26T14:48:41.998Z</time></trkpt><trkpt lat="43.534005934018914" lon="13.502223961040759"><ele>39.0</ele><time>2026-04-26T14:48:42.998Z</time></trkpt><trkpt lat="43.53404166914885" lon="13.502330868937463"><ele>39.666666666666664</ele><time>2026-04-26T14:48:43.998Z</time></trkpt><trkpt lat="43.53406096860849" lon="13.502444189449879"><ele>40.33333333333333</ele><time>2026-04-26T14:48:44.998Z</time></trkpt><trkpt lat="43.53406682230935" lon="13.502568896024247"><ele>41.0</ele><time>2026-04-26T14:48:45.998Z</time></trkpt><trkpt lat="43.53406449053724" lon="13.502704694099263"><ele>41.0</ele><time>2026-04-26T14:48:46.998Z</time></trkpt><trkpt lat="43.53406034892944" lon="13.50284620045737"><ele>41.0</ele><time>2026-04-26T14:48:47.998Z</time></trkpt><trkpt lat="43.534050590114674" lon="13.50299155244726"><ele>41.0</ele><time>2026-04-26T14:48:48.998Z</time></trkpt><trkpt lat="43.53403482623803" lon="13.50314315029051"><ele>41.0</ele><time>2026-04-26T14:48:49.998Z</time></trkpt><trkpt lat="43.5340176241549" lon="13.50329250046033"><ele>41.0</ele><time>2026-04-26T14:48:50.998Z</time></trkpt><trkpt lat="43.53399821568992" lon="13.503435628672324"><ele>41.8</ele><time>2026-04-26T14:48:51.998Z</time></trkpt><trkpt lat="43.53397781882482" lon="13.503575596925435"><ele>42.599999999999994</ele><time>2026-04-26T14:48:52.998Z</time></trkpt><trkpt lat="43.53395705125338" lon="13.503709904767966"><ele>43.4</ele><time>2026-04-26T14:48:53.998Z</time></trkpt><trkpt lat="43.533937003019275" lon="13.503837769093346"><ele>44.2</ele><time>2026-04-26T14:48:54.998Z</time></trkpt><trkpt lat="43.533918505168714" lon="13.50395502774411"><ele>45.0</ele><time>2026-04-26T14:48:55.998Z</time></trkpt><trkpt lat="43.53390323375935" lon="13.504062525936812"><ele>45.5</ele><time>2026-04-26T14:48:56.998Z</time></trkpt><trkpt lat="43.53388699993484" lon="13.50416173091898"><ele>46.0</ele><time>2026-04-26T14:48:57.998Z</time></trkpt><trkpt lat="43.53386730191697" lon="13.504263846753426"><ele>46.5</ele><time>2026-04-26T14:48:58.998Z</time></trkpt><trkpt lat="43.53384547270605" lon="13.504371253818924"><ele>47.0</ele><time>2026-04-26T14:48:59.998Z</time></trkpt><trkpt lat="43.533823762975075" lon="13.504475420026532"><ele>47.5</ele><time>2026-04-26T14:49:00.998Z</time></trkpt><trkpt lat="43.53379848950126" lon="13.504573934381867"><ele>48.0</ele><time>2026-04-26T14:49:01.998Z</time></trkpt><trkpt lat="43.533772139684416" lon="13.504671250862911"><ele>48.0</ele><time>2026-04-26T14:49:02.998Z</time></trkpt><trkpt lat="43.53374135405691" lon="13.504772387856878"><ele>48.0</ele><time>2026-04-26T14:49:03.998Z</time></trkpt><trkpt lat="43.5337044707304" lon="13.504860218551224"><ele>48.0</ele><time>2026-04-26T14:49:04.998Z</time></trkpt><trkpt lat="43.53365636813457" lon="13.504933534440346"><ele>48.0</ele><time>2026-04-26T14:49:05.998Z</time></trkpt><trkpt lat="43.533598650680155" lon="13.504993558140088"><ele>48.0</ele><time>2026-04-26T14:49:06.998Z</time></trkpt><trkpt lat="43.53353628555977" lon="13.505055027620621"><ele>48.0</ele><time>2026-04-26T14:49:07.998Z</time></trkpt><trkpt lat="43.5334842858224" lon="13.505132173333948"><ele>46.285714285714285</ele><time>2026-04-26T14:49:09Z</time></trkpt><trkpt lat="43.53344820104128" lon="13.50522661442928"><ele>44.57142857142857</ele><time>2026-04-26T14:49:10Z</time></trkpt><trkpt lat="43.53344127221292" lon="13.505338847717493"><ele>42.85714285714286</ele><time>2026-04-26T14:49:11Z</time></trkpt><trkpt lat="43.53346277492337" lon="13.505439654754687"><ele>41.14285714285714</ele><time>2026-04-26T14:49:12Z</time></trkpt><trkpt lat="43.5334971263804" lon="13.505515628728878"><ele>39.42857142857143</ele><time>2026-04-26T14:49:13Z</time></trkpt><trkpt lat="43.53352963576431" lon="13.505594467357428"><ele>37.714285714285715</ele><time>2026-04-26T14:49:14Z</time></trkpt><trkpt lat="43.533552681313836" lon="13.50569363810242"><ele>36.0</ele><time>2026-04-26T14:49:15Z</time></trkpt><trkpt lat="43.5335633112409" lon="13.505809123525612"><ele>35.8</ele><time>2026-04-26T14:49:16Z</time></trkpt><trkpt lat="43.53356011669952" lon="13.505934492463208"><ele>35.6</ele><time>2026-04-26T14:49:17Z</time></trkpt><trkpt lat="43.533561723018785" lon="13.506070292046804"><ele>35.4</ele><time>2026-04-26T14:49:18Z</time></trkpt><trkpt lat="43.533560572169215" lon="13.506216655204785"><ele>35.2</ele><time>2026-04-26T14:49:19Z</time></trkpt><trkpt lat="43.5335498401362" lon="13.506373435427843"><ele>35.0</ele><time>2026-04-26T14:49:20Z</time></trkpt><trkpt lat="43.53352885009919" lon="13.506539549784556"><ele>35.0</ele><time>2026-04-26T14:49:21Z</time></trkpt><trkpt lat="43.533506927831425" lon="13.50672011838247"><ele>35.0</ele><time>2026-04-26T14:49:22Z</time></trkpt><trkpt lat="43.533492951347256" lon="13.506917301850383"><ele>35.0</ele><time>2026-04-26T14:49:23Z</time></trkpt><trkpt lat="43.5334947264504" lon="13.507130780838532"><ele>35.0</ele><time>2026-04-26T14:49:24Z</time></trkpt><trkpt lat="43.53351131394436" lon="13.507346781974617"><ele>34.666666666666664</ele><time>2026-04-26T14:49:25Z</time></trkpt><trkpt lat="43.533548143569924" lon="13.507560266069332"><ele>34.333333333333336</ele><time>2026-04-26T14:49:26Z</time></trkpt><trkpt lat="43.53360248222553" lon="13.50777269098941"><ele>34.0</ele><time>2026-04-26T14:49:27Z</time></trkpt><trkpt lat="43.53367299613703" lon="13.507969114938444"><ele>35.333333333333336</ele><time>2026-04-26T14:49:28Z</time></trkpt><trkpt lat="43.53376389470591" lon="13.508156887335675"><ele>36.666666666666664</ele><time>2026-04-26T14:49:29Z</time></trkpt><trkpt lat="43.533859688178325" lon="13.508336459868627"><ele>38.0</ele><time>2026-04-26T14:49:30Z</time></trkpt><trkpt lat="43.53395524013532" lon="13.50852304890684"><ele>38.0</ele><time>2026-04-26T14:49:31Z</time></trkpt><trkpt lat="43.53404782837222" lon="13.508705583852443"><ele>38.0</ele><time>2026-04-26T14:49:32Z</time></trkpt><trkpt lat="43.53413598186334" lon="13.508877235769704"><ele>38.0</ele><time>2026-04-26T14:49:33Z</time></trkpt><trkpt lat="43.53422110250437" lon="13.50904372503943"><ele>37.0</ele><time>2026-04-26T14:49:34Z</time></trkpt><trkpt lat="43.534298912498315" lon="13.509205530370831"><ele>36.0</ele><time>2026-04-26T14:49:35Z</time></trkpt><trkpt lat="43.53437930573656" lon="13.509369092677048"><ele>35.0</ele><time>2026-04-26T14:49:36Z</time></trkpt><trkpt lat="43.53446795663568" lon="13.509539457942635"><ele>34.0</ele><time>2026-04-26T14:49:37Z</time></trkpt><trkpt lat="43.53455762082946" lon="13.509711217620405"><ele>32.66666666666667</ele><time>2026-04-26T14:49:38Z</time></trkpt><trkpt lat="43.53464433624697" lon="13.509888555344492"><ele>31.333333333333336</ele><time>2026-04-26T14:49:39Z</time></trkpt><trkpt lat="43.534729831097934" lon="13.510061996297583"><ele>30.0</ele><time>2026-04-26T14:49:40Z</time></trkpt><trkpt lat="43.53481576585224" lon="13.510236325139255"><ele>30.0</ele><time>2026-04-26T14:49:41Z</time></trkpt><trkpt lat="43.534900133244115" lon="13.510407345978846"><ele>30.0</ele><time>2026-04-26T14:49:41.999Z</time></trkpt><trkpt lat="43.53498365406039" lon="13.51057252715765"><ele>30.0</ele><time>2026-04-26T14:49:42.999Z</time></trkpt><trkpt lat="43.53506496007579" lon="13.51073835348053"><ele>30.0</ele><time>2026-04-26T14:49:43.999Z</time></trkpt><trkpt lat="43.53514362534779" lon="13.510901629439694"><ele>30.0</ele><time>2026-04-26T14:49:44.999Z</time></trkpt><trkpt lat="43.53521381445207" lon="13.511050035213128"><ele>30.0</ele><time>2026-04-26T14:49:45.999Z</time></trkpt><trkpt lat="43.53527020466895" lon="13.511166309060135"><ele>30.0</ele><time>2026-04-26T14:49:46.999Z</time></trkpt><trkpt lat="43.53531574021056" lon="13.511266059484614"><ele>30.0</ele><time>2026-04-26T14:49:48.999Z</time></trkpt><trkpt lat="43.535356856960576" lon="13.511348718996015"><ele>30.0</ele><time>2026-04-26T14:49:53.999Z</time></trkpt><trkpt lat="43.53540974986474" lon="13.511432192645861"><ele>30.0</ele><time>2026-04-26T14:49:57.999Z</time></trkpt><trkpt lat="43.53546164917581" lon="13.511526842974853"><ele>30.0</ele><time>2026-04-26T14:50:01.999Z</time></trkpt><trkpt lat="43.535501305850126" lon="13.511613911973477"><ele>30.0</ele><time>2026-04-26T14:50:04.999Z</time></trkpt><trkpt lat="43.53554662227201" lon="13.511684803771148"><ele>30.0</ele><time>2026-04-26T14:50:09.999Z</time></trkpt><trkpt lat="43.53558176296769" lon="13.511777004063724"><ele>30.0</ele><time>2026-04-26T14:50:15.999Z</time></trkpt><trkpt lat="43.53561423593506" lon="13.511855515385859"><ele>30.0</ele><time>2026-04-26T14:50:19.999Z</time></trkpt><trkpt lat="43.53561972694066" lon="13.511950493111197"><ele>30.0</ele><time>2026-04-26T14:50:22.999Z</time></trkpt><trkpt lat="43.53560995977174" lon="13.512060172833303"><ele>30.0</ele><time>2026-04-26T14:50:25.999Z</time></trkpt><trkpt lat="43.53557694761088" lon="13.512174322088656"><ele>30.0</ele><time>2026-04-26T14:50:27.999Z</time></trkpt><trkpt lat="43.53552175398918" lon="13.512236257171189"><ele>30.0</ele><time>2026-04-26T14:50:28.999Z</time></trkpt><trkpt lat="43.535463311804" lon="13.512290804758479"><ele>30.0</ele><time>2026-04-26T14:50:29.999Z</time></trkpt><trkpt lat="43.53539539354763" lon="13.512354689243638"><ele>30.0</ele><time>2026-04-26T14:50:30.999Z</time></trkpt><trkpt lat="43.535316578068056" lon="13.512431437164047"><ele>30.0</ele><time>2026-04-26T14:50:31.999Z</time></trkpt><trkpt lat="43.5352287950223" lon="13.512512991024272"><ele>29.5</ele><time>2026-04-26T14:50:32.999Z</time></trkpt><trkpt lat="43.535135169983654" lon="13.512599675252346"><ele>29.0</ele><time>2026-04-26T14:50:33.999Z</time></trkpt><trkpt lat="43.53504114620304" lon="13.512686801613196"><ele>28.5</ele><time>2026-04-26T14:50:34.999Z</time></trkpt><trkpt lat="43.53494123192954" lon="13.512783792768222"><ele>28.0</ele><time>2026-04-26T14:50:35.999Z</time></trkpt><trkpt lat="43.53483475485365" lon="13.51288495187663"><ele>28.5</ele><time>2026-04-26T14:50:36.999Z</time></trkpt><trkpt lat="43.53472086761168" lon="13.512986392062029"><ele>29.0</ele><time>2026-04-26T14:50:37.998Z</time></trkpt><trkpt lat="43.534601851574344" lon="13.513088324035065"><ele>29.5</ele><time>2026-04-26T14:50:38.998Z</time></trkpt><trkpt lat="43.53447901255648" lon="13.513200362623625"><ele>30.0</ele><time>2026-04-26T14:50:39.998Z</time></trkpt><trkpt lat="43.53435732036919" lon="13.513318738217691"><ele>30.333333333333336</ele><time>2026-04-26T14:50:40.998Z</time></trkpt><trkpt lat="43.534231723666785" lon="13.513439148837145"><ele>30.666666666666668</ele><time>2026-04-26T14:50:41.998Z</time></trkpt><trkpt lat="43.534102943282946" lon="13.513560096114567"><ele>31.0</ele><time>2026-04-26T14:50:42.998Z</time></trkpt><trkpt lat="43.533968226883914" lon="13.513688685305091"><ele>30.666666666666668</ele><time>2026-04-26T14:50:43.998Z</time></trkpt><trkpt lat="43.53383175483805" lon="13.513818071080816"><ele>30.333333333333336</ele><time>2026-04-26T14:50:44.998Z</time></trkpt><trkpt lat="43.53369434081818" lon="13.513949521276848"><ele>30.0</ele><time>2026-04-26T14:50:45.998Z</time></trkpt><trkpt lat="43.533558177961844" lon="13.514080821348296"><ele>30.666666666666664</ele><time>2026-04-26T14:50:46.998Z</time></trkpt><trkpt lat="43.533425888904894" lon="13.514194730953793"><ele>31.333333333333332</ele><time>2026-04-26T14:50:47.998Z</time></trkpt><trkpt lat="43.53331045959518" lon="13.514335825605668"><ele>32.0</ele><time>2026-04-26T14:50:48.998Z</time></trkpt><trkpt lat="43.53315895679922" lon="13.514458047145297"><ele>31.666666666666664</ele><time>2026-04-26T14:50:49.998Z</time></trkpt><trkpt lat="43.53302301063454" lon="13.51457779365515"><ele>31.333333333333336</ele><time>2026-04-26T14:50:50.998Z</time></trkpt><trkpt lat="43.53288522585088" lon="13.514700383824499"><ele>31.0</ele><time>2026-04-26T14:50:51.998Z</time></trkpt><trkpt lat="43.53274998163166" lon="13.514814861084304"><ele>31.0</ele><time>2026-04-26T14:50:52.998Z</time></trkpt><trkpt lat="43.53261326951422" lon="13.514924984894959"><ele>31.0</ele><time>2026-04-26T14:50:53.998Z</time></trkpt><trkpt lat="43.53248178714141" lon="13.515034697228046"><ele>31.0</ele><time>2026-04-26T14:50:54.998Z</time></trkpt><trkpt lat="43.53235575287495" lon="13.515148293727574"><ele>31.0</ele><time>2026-04-26T14:50:55.998Z</time></trkpt><trkpt lat="43.53223362456049" lon="13.515266118333798"><ele>31.0</ele><time>2026-04-26T14:50:56.998Z</time></trkpt><trkpt lat="43.532111125693206" lon="13.5153827307121"><ele>31.0</ele><time>2026-04-26T14:50:57.998Z</time></trkpt><trkpt lat="43.5319893069192" lon="13.51549633082989"><ele>31.0</ele><time>2026-04-26T14:50:58.998Z</time></trkpt><trkpt lat="43.5318653521367" lon="13.515613245462614"><ele>30.333333333333336</ele><time>2026-04-26T14:50:59.998Z</time></trkpt><trkpt lat="43.531740188263655" lon="13.515733066681223"><ele>29.666666666666664</ele><time>2026-04-26T14:51:00.998Z</time></trkpt><trkpt lat="43.531610870530336" lon="13.515852349737564"><ele>29.0</ele><time>2026-04-26T14:51:01.998Z</time></trkpt><trkpt lat="43.53147781599313" lon="13.515974642414475"><ele>29.0</ele><time>2026-04-26T14:51:02.998Z</time></trkpt><trkpt lat="43.531342570174374" lon="13.516098280250102"><ele>29.0</ele><time>2026-04-26T14:51:03.998Z</time></trkpt><trkpt lat="43.53120972326743" lon="13.51622409908883"><ele>29.0</ele><time>2026-04-26T14:51:04.998Z</time></trkpt><trkpt lat="43.53107296290068" lon="13.51635456337267"><ele>29.333333333333332</ele><time>2026-04-26T14:51:05.998Z</time></trkpt><trkpt lat="43.5309379455026" lon="13.516483960292648"><ele>29.666666666666664</ele><time>2026-04-26T14:51:06.998Z</time></trkpt><trkpt lat="43.53080453035328" lon="13.516608737782953"><ele>30.0</ele><time>2026-04-26T14:51:07.998Z</time></trkpt><trkpt lat="43.530680012794896" lon="13.516724415525278"><ele>30.0</ele><time>2026-04-26T14:51:08.998Z</time></trkpt><trkpt lat="43.53056525856342" lon="13.516828869933452"><ele>30.0</ele><time>2026-04-26T14:51:09.998Z</time></trkpt><trkpt lat="43.530469018930944" lon="13.51691302903017"><ele>30.0</ele><time>2026-04-26T14:51:10.998Z</time></trkpt><trkpt lat="43.53038192301701" lon="13.51699065175495"><ele>30.0</ele><time>2026-04-26T14:51:11.998Z</time></trkpt><trkpt lat="43.53031057221518" lon="13.517055342745968"><ele>30.0</ele><time>2026-04-26T14:51:12.998Z</time></trkpt><trkpt lat="43.53024329015347" lon="13.51710763787508"><ele>30.333333333333332</ele><time>2026-04-26T14:51:13.998Z</time></trkpt><trkpt lat="43.53017397509506" lon="13.517145616380724"><ele>30.666666666666664</ele><time>2026-04-26T14:51:15Z</time></trkpt><trkpt lat="43.5301026664695" lon="13.517164904145814"><ele>31.0</ele><time>2026-04-26T14:51:16Z</time></trkpt><trkpt lat="43.53002977322768" lon="13.517207255743902"><ele>31.333333333333332</ele><time>2026-04-26T14:51:17Z</time></trkpt><trkpt lat="43.529966725213114" lon="13.517275771822009"><ele>31.666666666666664</ele><time>2026-04-26T14:51:18Z</time></trkpt><trkpt lat="43.52993943462185" lon="13.517377215715548"><ele>32.0</ele><time>2026-04-26T14:51:19Z</time></trkpt><trkpt lat="43.529944500024655" lon="13.517483603922251"><ele>32.0</ele><time>2026-04-26T14:51:20Z</time></trkpt><trkpt lat="43.529983199165656" lon="13.517573698322831"><ele>32.0</ele><time>2026-04-26T14:51:21Z</time></trkpt><trkpt lat="43.53004888125339" lon="13.517639514316945"><ele>32.0</ele><time>2026-04-26T14:51:22Z</time></trkpt><trkpt lat="43.5301300517181" lon="13.517685868571936"><ele>32.0</ele><time>2026-04-26T14:51:23Z</time></trkpt><trkpt lat="43.530223738390326" lon="13.517725207473351"><ele>32.0</ele><time>2026-04-26T14:51:24Z</time></trkpt><trkpt lat="43.53032073722694" lon="13.517787662255797"><ele>31.25</ele><time>2026-04-26T14:51:25Z</time></trkpt><trkpt lat="43.530409962350774" lon="13.517885551277502"><ele>30.5</ele><time>2026-04-26T14:51:26Z</time></trkpt><trkpt lat="43.53048777993346" lon="13.517997563433358"><ele>29.75</ele><time>2026-04-26T14:51:27Z</time></trkpt><trkpt lat="43.53056626376669" lon="13.518117746884704"><ele>29.0</ele><time>2026-04-26T14:51:28Z</time></trkpt><trkpt lat="43.5306463978422" lon="13.518236907135318"><ele>29.0</ele><time>2026-04-26T14:51:29Z</time></trkpt><trkpt lat="43.53072547664731" lon="13.518358630563753"><ele>29.0</ele><time>2026-04-26T14:51:30Z</time></trkpt><trkpt lat="43.5308055562417" lon="13.51848391782327"><ele>29.0</ele><time>2026-04-26T14:51:31Z</time></trkpt><trkpt lat="43.530887632025184" lon="13.518610144132232"><ele>29.0</ele><time>2026-04-26T14:51:32Z</time></trkpt><trkpt lat="43.53096877731578" lon="13.518736008358369"><ele>28.799999999999997</ele><time>2026-04-26T14:51:33Z</time></trkpt><trkpt lat="43.531045328462376" lon="13.518856972179778"><ele>28.599999999999998</ele><time>2026-04-26T14:51:34Z</time></trkpt><trkpt lat="43.531114621414616" lon="13.518967847522651"><ele>28.4</ele><time>2026-04-26T14:51:35Z</time></trkpt><trkpt lat="43.531176884941694" lon="13.519070449251155"><ele>28.2</ele><time>2026-04-26T14:51:36Z</time></trkpt><trkpt lat="43.53122657190409" lon="13.519155765338622"><ele>28.0</ele><time>2026-04-26T14:51:37Z</time></trkpt><trkpt lat="43.53125936769131" lon="13.519241730872404"><ele>28.000000000000004</ele><time>2026-04-26T14:51:38Z</time></trkpt><trkpt lat="43.53127294285992" lon="13.519335637081895"><ele>28.0</ele><time>2026-04-26T14:51:39Z</time></trkpt><trkpt lat="43.53131320955767" lon="13.51940333154798"><ele>28.0</ele><time>2026-04-26T14:51:39.999Z</time></trkpt><trkpt lat="43.53124141049862" lon="13.519549981385287"><ele>28.0</ele><time>2026-04-26T14:51:40.999Z</time></trkpt><trkpt lat="43.53124174496837" lon="13.519656074297394"><ele>28.000000000000004</ele><time>2026-04-26T14:51:41.999Z</time></trkpt><trkpt lat="43.531281383354184" lon="13.519736066732833"><ele>28.0</ele><time>2026-04-26T14:51:42.999Z</time></trkpt><trkpt lat="43.531343563772985" lon="13.519780353339254"><ele>28.2</ele><time>2026-04-26T14:51:43.999Z</time></trkpt><trkpt lat="43.53141655013768" lon="13.519801648587377"><ele>28.4</ele><time>2026-04-26T14:51:44.999Z</time></trkpt><trkpt lat="43.53149189508948" lon="13.51982692740144"><ele>28.599999999999998</ele><time>2026-04-26T14:51:45.999Z</time></trkpt><trkpt lat="43.531561116156965" lon="13.519832734314498"><ele>28.799999999999997</ele><time>2026-04-26T14:51:46.999Z</time></trkpt><trkpt lat="43.5316097902765" lon="13.5200964380031"><ele>29.0</ele><time>2026-04-26T14:51:48.999Z</time></trkpt><trkpt lat="43.53164980731803" lon="13.5202040029706"><ele>29.0</ele><time>2026-04-26T14:51:49.999Z</time></trkpt><trkpt lat="43.531691304409726" lon="13.520374411647337"><ele>29.0</ele><time>2026-04-26T14:51:50.999Z</time></trkpt><trkpt lat="43.53173982815535" lon="13.520535059546171"><ele>29.0</ele><time>2026-04-26T14:51:51.999Z</time></trkpt><trkpt lat="43.531778744317734" lon="13.520700311634508"><ele>29.0</ele><time>2026-04-26T14:51:52.999Z</time></trkpt><trkpt lat="43.531805985308054" lon="13.520873632152542"><ele>28.75</ele><time>2026-04-26T14:51:53.999Z</time></trkpt><trkpt lat="43.53181761098633" lon="13.521056121706968"><ele>28.5</ele><time>2026-04-26T14:51:54.999Z</time></trkpt><trkpt lat="43.53181669145809" lon="13.521232572275235"><ele>28.25</ele><time>2026-04-26T14:51:55.999Z</time></trkpt><trkpt lat="43.53181442388288" lon="13.521385965763768"><ele>28.0</ele><time>2026-04-26T14:51:56.999Z</time></trkpt><trkpt lat="43.5318062741241" lon="13.521517312414556"><ele>27.799999999999997</ele><time>2026-04-26T14:51:57.999Z</time></trkpt><trkpt lat="43.53177780295463" lon="13.52163229239554"><ele>27.599999999999998</ele><time>2026-04-26T14:51:58.999Z</time></trkpt><trkpt lat="43.53173875947363" lon="13.52174395897052"><ele>27.400000000000002</ele><time>2026-04-26T14:51:59.999Z</time></trkpt><trkpt lat="43.5316972093834" lon="13.521860612971153"><ele>27.200000000000003</ele><time>2026-04-26T14:52:00.999Z</time></trkpt><trkpt lat="43.53165771032464" lon="13.52199835044703"><ele>27.0</ele><time>2026-04-26T14:52:01.999Z</time></trkpt><trkpt lat="43.53161473448919" lon="13.522155988362961"><ele>27.0</ele><time>2026-04-26T14:52:02.999Z</time></trkpt><trkpt lat="43.531571517355076" lon="13.522317780176783"><ele>27.0</ele><time>2026-04-26T14:52:03.999Z</time></trkpt><trkpt lat="43.53153072732062" lon="13.522480353123992"><ele>27.0</ele><time>2026-04-26T14:52:04.999Z</time></trkpt><trkpt lat="43.531489979771244" lon="13.522631994107408"><ele>27.0</ele><time>2026-04-26T14:52:05.999Z</time></trkpt><trkpt lat="43.53144650175606" lon="13.52277920699799"><ele>27.0</ele><time>2026-04-26T14:52:06.999Z</time></trkpt><trkpt lat="43.53140088129819" lon="13.522925931374276"><ele>27.000000000000004</ele><time>2026-04-26T14:52:07.999Z</time></trkpt><trkpt lat="43.53135548123269" lon="13.52307004356372"><ele>27.000000000000004</ele><time>2026-04-26T14:52:08.999Z</time></trkpt><trkpt lat="43.531316278188534" lon="13.523207133048162"><ele>27.0</ele><time>2026-04-26T14:52:09.999Z</time></trkpt><trkpt lat="43.53126519677291" lon="13.523317497949616"><ele>27.0</ele><time>2026-04-26T14:52:10.999Z</time></trkpt><trkpt lat="43.531232667018585" lon="13.523433282253466"><ele>26.833333333333332</ele><time>2026-04-26T14:52:11.999Z</time></trkpt><trkpt lat="43.53114423038963" lon="13.523472917489118"><ele>26.666666666666664</ele><time>2026-04-26T14:52:12.999Z</time></trkpt><trkpt lat="43.53108322171527" lon="13.523514325185243"><ele>26.5</ele><time>2026-04-26T14:52:13.999Z</time></trkpt><trkpt lat="43.53100544055225" lon="13.523630660736611"><ele>26.333333333333332</ele><time>2026-04-26T14:52:15.999Z</time></trkpt><trkpt lat="43.53099106447608" lon="13.523722203388484"><ele>26.166666666666664</ele><time>2026-04-26T14:52:16.999Z</time></trkpt><trkpt lat="43.53100851547026" lon="13.523814085527878"><ele>26.0</ele><time>2026-04-26T14:52:17.999Z</time></trkpt><trkpt lat="43.53105964485235" lon="13.523885183032148"><ele>25.999999999999996</ele><time>2026-04-26T14:52:18.999Z</time></trkpt><trkpt lat="43.53113116222655" lon="13.523922582506945"><ele>26.0</ele><time>2026-04-26T14:52:19.999Z</time></trkpt><trkpt lat="43.53120638560319" lon="13.523939794091465"><ele>26.0</ele><time>2026-04-26T14:52:20.999Z</time></trkpt><trkpt lat="43.53129155781941" lon="13.523922542849272"><ele>26.0</ele><time>2026-04-26T14:52:21.999Z</time></trkpt><trkpt lat="43.531379973683045" lon="13.52398359322517"><ele>25.999999999999996</ele><time>2026-04-26T14:52:22.999Z</time></trkpt><trkpt lat="43.531469731915806" lon="13.524034831632372"><ele>26.0</ele><time>2026-04-26T14:52:23.999Z</time></trkpt><trkpt lat="43.53156008751327" lon="13.524089983351283"><ele>25.8</ele><time>2026-04-26T14:52:24.999Z</time></trkpt><trkpt lat="43.53165118274654" lon="13.524143728554408"><ele>25.6</ele><time>2026-04-26T14:52:25.999Z</time></trkpt><trkpt lat="43.531735148337326" lon="13.524184386653166"><ele>25.4</ele><time>2026-04-26T14:52:26.999Z</time></trkpt><trkpt lat="43.53180770367605" lon="13.524218506767518"><ele>25.2</ele><time>2026-04-26T14:52:27.999Z</time></trkpt><trkpt lat="43.531869967003296" lon="13.524250557737318"><ele>25.0</ele><time>2026-04-26T14:52:28.999Z</time></trkpt><trkpt lat="43.5319903871806" lon="13.524300796387651"><ele>25.666666666666668</ele><time>2026-04-26T14:52:30.999Z</time></trkpt><trkpt lat="43.532090844439125" lon="13.524323603487579"><ele>26.333333333333336</ele><time>2026-04-26T14:52:32.999Z</time></trkpt><trkpt lat="43.53215116118798" lon="13.524360518625707"><ele>27.0</ele><time>2026-04-26T14:52:35.999Z</time></trkpt><trkpt lat="43.532218605139015" lon="13.524396048493626"><ele>27.666666666666664</ele><time>2026-04-26T14:52:37.999Z</time></trkpt><trkpt lat="43.532253748888735" lon="13.524541629292276"><ele>28.333333333333332</ele><time>2026-04-26T14:52:38.999Z</time></trkpt><trkpt lat="43.53225374888852" lon="13.524640841166976"><ele>29.0</ele><time>2026-04-26T14:52:39.999Z</time></trkpt><trkpt lat="43.53221989097414" lon="13.52474519166138"><ele>29.4</ele><time>2026-04-26T14:52:40.999Z</time></trkpt><trkpt lat="43.53219042295125" lon="13.524867201732985"><ele>29.799999999999997</ele><time>2026-04-26T14:52:41.998Z</time></trkpt><trkpt lat="43.53214572231497" lon="13.524987976539363"><ele>30.200000000000003</ele><time>2026-04-26T14:52:42.998Z</time></trkpt><trkpt lat="43.532085852423535" lon="13.525116735714768"><ele>30.6</ele><time>2026-04-26T14:52:43.998Z</time></trkpt><trkpt lat="43.53201819652361" lon="13.52525114145191"><ele>31.0</ele><time>2026-04-26T14:52:44.998Z</time></trkpt><trkpt lat="43.53194508392294" lon="13.525393156422396"><ele>30.75</ele><time>2026-04-26T14:52:45.998Z</time></trkpt><trkpt lat="43.5318726357792" lon="13.525544924778387"><ele>30.5</ele><time>2026-04-26T14:52:46.998Z</time></trkpt><trkpt lat="43.53179825036522" lon="13.525713865774454"><ele>30.25</ele><time>2026-04-26T14:52:47.998Z</time></trkpt><trkpt lat="43.53171603159378" lon="13.525903185464621"><ele>30.0</ele><time>2026-04-26T14:52:48.998Z</time></trkpt><trkpt lat="43.53162863099175" lon="13.526100849896105"><ele>30.666666666666664</ele><time>2026-04-26T14:52:49.998Z</time></trkpt><trkpt lat="43.53154118538887" lon="13.526306758293948"><ele>31.333333333333332</ele><time>2026-04-26T14:52:50.998Z</time></trkpt><trkpt lat="43.53146413396202" lon="13.52651239476854"><ele>32.0</ele><time>2026-04-26T14:52:51.998Z</time></trkpt><trkpt lat="43.531401256258434" lon="13.526712032715375"><ele>32.0</ele><time>2026-04-26T14:52:52.998Z</time></trkpt><trkpt lat="43.531360253774416" lon="13.526890637946137"><ele>32.0</ele><time>2026-04-26T14:52:53.998Z</time></trkpt><trkpt lat="43.53133662222334" lon="13.527037583253286"><ele>32.0</ele><time>2026-04-26T14:52:54.998Z</time></trkpt><trkpt lat="43.53132624371529" lon="13.527172624212374"><ele>32.0</ele><time>2026-04-26T14:52:55.998Z</time></trkpt><trkpt lat="43.53132016188006" lon="13.527304600630325"><ele>32.0</ele><time>2026-04-26T14:52:56.998Z</time></trkpt><trkpt lat="43.5313191686102" lon="13.527435542518852"><ele>31.666666666666664</ele><time>2026-04-26T14:52:57.998Z</time></trkpt><trkpt lat="43.531322688438614" lon="13.5275643363604"><ele>31.333333333333332</ele><time>2026-04-26T14:52:58.998Z</time></trkpt><trkpt lat="43.53131946016984" lon="13.527680534090537"><ele>31.0</ele><time>2026-04-26T14:52:59.998Z</time></trkpt><trkpt lat="43.53130350149082" lon="13.527781906112052"><ele>30.666666666666664</ele><time>2026-04-26T14:53:00.998Z</time></trkpt><trkpt lat="43.531269217334255" lon="13.527869683414064"><ele>30.333333333333332</ele><time>2026-04-26T14:53:01.998Z</time></trkpt><trkpt lat="43.53122945613724" lon="13.527947773322362"><ele>30.0</ele><time>2026-04-26T14:53:02.998Z</time></trkpt><trkpt lat="43.53120288567609" lon="13.528030910459837"><ele>30.0</ele><time>2026-04-26T14:53:03.998Z</time></trkpt><trkpt lat="43.531198568610414" lon="13.5281193137407"><ele>30.0</ele><time>2026-04-26T14:53:04.998Z</time></trkpt><trkpt lat="43.531238466442296" lon="13.528280207232125"><ele>30.0</ele><time>2026-04-26T14:53:06.998Z</time></trkpt><trkpt lat="43.5312939909169" lon="13.528342215791884"><ele>30.0</ele><time>2026-04-26T14:53:07.998Z</time></trkpt><trkpt lat="43.531364570511954" lon="13.528368033465831"><ele>30.0</ele><time>2026-04-26T14:53:08.998Z</time></trkpt><trkpt lat="43.53144109582014" lon="13.528350250579123"><ele>30.0</ele><time>2026-04-26T14:53:09.998Z</time></trkpt><trkpt lat="43.531504552463154" lon="13.528291430832978"><ele>30.0</ele><time>2026-04-26T14:53:10.998Z</time></trkpt><trkpt lat="43.53155492777001" lon="13.528199048399554"><ele>30.0</ele><time>2026-04-26T14:53:11.998Z</time></trkpt><trkpt lat="43.53160893517278" lon="13.528101637496563"><ele>30.0</ele><time>2026-04-26T14:53:12.998Z</time></trkpt><trkpt lat="43.5316806299123" lon="13.528011768669852"><ele>30.0</ele><time>2026-04-26T14:53:13.998Z</time></trkpt><trkpt lat="43.53177069654609" lon="13.52793962968132"><ele>30.0</ele><time>2026-04-26T14:53:14.998Z</time></trkpt><trkpt lat="43.53186086194276" lon="13.527853533149326"><ele>31.25</ele><time>2026-04-26T14:53:15.998Z</time></trkpt><trkpt lat="43.53196106130529" lon="13.527765715353553"><ele>32.5</ele><time>2026-04-26T14:53:16.998Z</time></trkpt><trkpt lat="43.53205385349948" lon="13.52766450336722"><ele>33.75</ele><time>2026-04-26T14:53:17.998Z</time></trkpt><trkpt lat="43.53216327983989" lon="13.527617177571384"><ele>35.0</ele><time>2026-04-26T14:53:18.998Z</time></trkpt><trkpt lat="43.53227962720996" lon="13.527592146830141"><ele>36.0</ele><time>2026-04-26T14:53:19.998Z</time></trkpt><trkpt lat="43.53240643948547" lon="13.527572908398282"><ele>37.0</ele><time>2026-04-26T14:53:21Z</time></trkpt><trkpt lat="43.53254930360139" lon="13.527556256565385"><ele>38.0</ele><time>2026-04-26T14:53:22Z</time></trkpt><trkpt lat="43.532711457388444" lon="13.527539438238634"><ele>39.0</ele><time>2026-04-26T14:53:23Z</time></trkpt><trkpt lat="43.53288367234364" lon="13.527522969687356"><ele>41.0</ele><time>2026-04-26T14:53:24Z</time></trkpt><trkpt lat="43.53306037540179" lon="13.5275057607609"><ele>43.0</ele><time>2026-04-26T14:53:25Z</time></trkpt><trkpt lat="43.533258185708824" lon="13.527486742512359"><ele>45.0</ele><time>2026-04-26T14:53:26Z</time></trkpt><trkpt lat="43.53347653417976" lon="13.527467255075996"><ele>45.0</ele><time>2026-04-26T14:53:27Z</time></trkpt><trkpt lat="43.53370462646296" lon="13.527446465928882"><ele>45.0</ele><time>2026-04-26T14:53:28Z</time></trkpt><trkpt lat="43.53390375409836" lon="13.52742672660261"><ele>45.0</ele><time>2026-04-26T14:53:29Z</time></trkpt><trkpt lat="43.534081350785094" lon="13.527406672592855"><ele>46.0</ele><time>2026-04-26T14:53:30Z</time></trkpt><trkpt lat="43.53423912735779" lon="13.527388432199436"><ele>47.0</ele><time>2026-04-26T14:53:31Z</time></trkpt><trkpt lat="43.53438417510186" lon="13.527380644740004"><ele>48.0</ele><time>2026-04-26T14:53:32Z</time></trkpt><trkpt lat="43.53451465887706" lon="13.527400812048342"><ele>49.0</ele><time>2026-04-26T14:53:33Z</time></trkpt><trkpt lat="43.53462480967375" lon="13.527448052975227"><ele>49.800000000000004</ele><time>2026-04-26T14:53:34Z</time></trkpt><trkpt lat="43.534727425279634" lon="13.527473811742077"><ele>50.6</ele><time>2026-04-26T14:53:35Z</time></trkpt><trkpt lat="43.53481541219895" lon="13.527451677366052"><ele>51.4</ele><time>2026-04-26T14:53:36Z</time></trkpt><trkpt lat="43.53488434267995" lon="13.527380369020587"><ele>52.2</ele><time>2026-04-26T14:53:37Z</time></trkpt><trkpt lat="43.53496079021461" lon="13.527313058774146"><ele>53.0</ele><time>2026-04-26T14:53:38Z</time></trkpt><trkpt lat="43.53505175013238" lon="13.527289494993008"><ele>53.0</ele><time>2026-04-26T14:53:39Z</time></trkpt><trkpt lat="43.535151108732535" lon="13.527284086511843"><ele>53.0</ele><time>2026-04-26T14:53:40Z</time></trkpt><trkpt lat="43.53525757704667" lon="13.52726869977389"><ele>53.0</ele><time>2026-04-26T14:53:41Z</time></trkpt><trkpt lat="43.5353745729931" lon="13.527270764505182"><ele>53.0</ele><time>2026-04-26T14:53:42Z</time></trkpt><trkpt lat="43.53550330527183" lon="13.527216508087973"><ele>55.0</ele><time>2026-04-26T14:53:43Z</time></trkpt><trkpt lat="43.53564915548284" lon="13.527179733147005"><ele>57.0</ele><time>2026-04-26T14:53:44Z</time></trkpt><trkpt lat="43.53579320845495" lon="13.527137245757736"><ele>59.0</ele><time>2026-04-26T14:53:44.999Z</time></trkpt><trkpt lat="43.53595339850746" lon="13.527088819622715"><ele>60.66666666666667</ele><time>2026-04-26T14:53:45.999Z</time></trkpt><trkpt lat="43.536118823003804" lon="13.527038222300828"><ele>62.33333333333333</ele><time>2026-04-26T14:53:46.999Z</time></trkpt><trkpt lat="43.53627556845172" lon="13.526981752111102"><ele>64.0</ele><time>2026-04-26T14:53:47.999Z</time></trkpt><trkpt lat="43.536425000915244" lon="13.526958133354443"><ele>66.5</ele><time>2026-04-26T14:53:48.999Z</time></trkpt><trkpt lat="43.536567720486275" lon="13.526905004543686"><ele>69.0</ele><time>2026-04-26T14:53:49.999Z</time></trkpt><trkpt lat="43.53671427273156" lon="13.526921421524342"><ele>71.5</ele><time>2026-04-26T14:53:50.999Z</time></trkpt><trkpt lat="43.53686275399613" lon="13.526945294698027"><ele>74.0</ele><time>2026-04-26T14:53:51.999Z</time></trkpt><trkpt lat="43.537018914382685" lon="13.526959956166738"><ele>74.33333333333334</ele><time>2026-04-26T14:53:52.999Z</time></trkpt><trkpt lat="43.537179411873154" lon="13.527006250370983"><ele>74.66666666666667</ele><time>2026-04-26T14:53:53.999Z</time></trkpt><trkpt lat="43.53734218310367" lon="13.527047798323384"><ele>75.0</ele><time>2026-04-26T14:53:54.999Z</time></trkpt><trkpt lat="43.53750080350845" lon="13.527087584137004"><ele>75.0</ele><time>2026-04-26T14:53:55.999Z</time></trkpt><trkpt lat="43.537648630317115" lon="13.527132787267103"><ele>75.0</ele><time>2026-04-26T14:53:56.999Z</time></trkpt><trkpt lat="43.537784670143644" lon="13.527164757724577"><ele>75.0</ele><time>2026-04-26T14:53:57.999Z</time></trkpt><trkpt lat="43.53791428351431" lon="13.527176144541421"><ele>75.0</ele><time>2026-04-26T14:53:58.999Z</time></trkpt><trkpt lat="43.53804339511489" lon="13.52716888523834"><ele>77.25</ele><time>2026-04-26T14:53:59.999Z</time></trkpt><trkpt lat="43.53817273310298" lon="13.527157195313892"><ele>79.5</ele><time>2026-04-26T14:54:00.999Z</time></trkpt><trkpt lat="43.538306470819265" lon="13.527142064387393"><ele>81.75</ele><time>2026-04-26T14:54:01.999Z</time></trkpt><trkpt lat="43.53843684824918" lon="13.527162702300233"><ele>84.0</ele><time>2026-04-26T14:54:02.999Z</time></trkpt><trkpt lat="43.538554839013834" lon="13.527187209783293"><ele>84.0</ele><time>2026-04-26T14:54:03.999Z</time></trkpt><trkpt lat="43.53866054072316" lon="13.527243568645734"><ele>84.0</ele><time>2026-04-26T14:54:04.999Z</time></trkpt><trkpt lat="43.538777973062636" lon="13.527297671053988"><ele>84.0</ele><time>2026-04-26T14:54:05.999Z</time></trkpt><trkpt lat="43.53889506610351" lon="13.527377001239012"><ele>84.0</ele><time>2026-04-26T14:54:06.999Z</time></trkpt><trkpt lat="43.53902380795829" lon="13.527452851764656"><ele>85.25</ele><time>2026-04-26T14:54:07.999Z</time></trkpt><trkpt lat="43.53915543863227" lon="13.52753549095439"><ele>86.5</ele><time>2026-04-26T14:54:08.999Z</time></trkpt><trkpt lat="43.539278161808255" lon="13.52763595021364"><ele>87.75</ele><time>2026-04-26T14:54:09.999Z</time></trkpt><trkpt lat="43.539388362543534" lon="13.527739237896975"><ele>89.0</ele><time>2026-04-26T14:54:10.999Z</time></trkpt><trkpt lat="43.53949803858993" lon="13.527831133237271"><ele>87.75</ele><time>2026-04-26T14:54:11.999Z</time></trkpt><trkpt lat="43.53960738404103" lon="13.527902136640787"><ele>86.5</ele><time>2026-04-26T14:54:12.999Z</time></trkpt><trkpt lat="43.53972719933481" lon="13.527955542101822"><ele>85.25</ele><time>2026-04-26T14:54:13.999Z</time></trkpt><trkpt lat="43.53985934295707" lon="13.528004044832995"><ele>84.0</ele><time>2026-04-26T14:54:14.999Z</time></trkpt><trkpt lat="43.53999926384661" lon="13.528052096475568"><ele>84.0</ele><time>2026-04-26T14:54:15.999Z</time></trkpt><trkpt lat="43.540144601049235" lon="13.5280923835457"><ele>84.0</ele><time>2026-04-26T14:54:16.999Z</time></trkpt><trkpt lat="43.54029453106487" lon="13.528125336769708"><ele>84.0</ele><time>2026-04-26T14:54:17.999Z</time></trkpt><trkpt lat="43.54044993147649" lon="13.528175352676868"><ele>85.66666666666667</ele><time>2026-04-26T14:54:18.999Z</time></trkpt><trkpt lat="43.54061429921009" lon="13.528204352160762"><ele>87.33333333333334</ele><time>2026-04-26T14:54:19.999Z</time></trkpt><trkpt lat="43.54078089639272" lon="13.528233198619137"><ele>89.0</ele><time>2026-04-26T14:54:20.999Z</time></trkpt><trkpt lat="43.54094814302562" lon="13.528263809392326"><ele>89.0</ele><time>2026-04-26T14:54:21.999Z</time></trkpt><trkpt lat="43.54111825664685" lon="13.528288082460428"><ele>89.0</ele><time>2026-04-26T14:54:22.999Z</time></trkpt><trkpt lat="43.541275735398024" lon="13.528343746197727"><ele>89.0</ele><time>2026-04-26T14:54:23.999Z</time></trkpt><trkpt lat="43.54140360425933" lon="13.528424943308396"><ele>90.2</ele><time>2026-04-26T14:54:24.999Z</time></trkpt><trkpt lat="43.5415237062479" lon="13.528470535499697"><ele>91.4</ele><time>2026-04-26T14:54:25.999Z</time></trkpt><trkpt lat="43.54163149371674" lon="13.528500748546056"><ele>92.6</ele><time>2026-04-26T14:54:26.999Z</time></trkpt><trkpt lat="43.54173523529489" lon="13.528520165079943"><ele>93.8</ele><time>2026-04-26T14:54:27.999Z</time></trkpt><trkpt lat="43.54183663630632" lon="13.528566740407909"><ele>95.0</ele><time>2026-04-26T14:54:28.999Z</time></trkpt><trkpt lat="43.54194064858256" lon="13.528604505434345"><ele>95.0</ele><time>2026-04-26T14:54:29.999Z</time></trkpt><trkpt lat="43.54204789716976" lon="13.52863856738868"><ele>95.0</ele><time>2026-04-26T14:54:30.999Z</time></trkpt><trkpt lat="43.54216126862259" lon="13.528661762861244"><ele>95.0</ele><time>2026-04-26T14:54:31.999Z</time></trkpt><trkpt lat="43.54228317231496" lon="13.528686662859785"><ele>95.0</ele><time>2026-04-26T14:54:32.999Z</time></trkpt><trkpt lat="43.5424068657736" lon="13.528691389630431"><ele>95.75</ele><time>2026-04-26T14:54:33.999Z</time></trkpt><trkpt lat="43.54253235739323" lon="13.52866734424527"><ele>96.5</ele><time>2026-04-26T14:54:34.999Z</time></trkpt><trkpt lat="43.54265746890166" lon="13.52866517878169"><ele>97.25</ele><time>2026-04-26T14:54:35.999Z</time></trkpt><trkpt lat="43.542779424552705" lon="13.528652127730945"><ele>98.0</ele><time>2026-04-26T14:54:36.999Z</time></trkpt><trkpt lat="43.5428956876441" lon="13.52864141316333"><ele>98.0</ele><time>2026-04-26T14:54:37.999Z</time></trkpt><trkpt lat="43.54301680048886" lon="13.528643916564565"><ele>98.0</ele><time>2026-04-26T14:54:38.999Z</time></trkpt><trkpt lat="43.54313219149963" lon="13.528650069862124"><ele>98.0</ele><time>2026-04-26T14:54:39.999Z</time></trkpt><trkpt lat="43.543241696979436" lon="13.52864672655381"><ele>98.0</ele><time>2026-04-26T14:54:40.999Z</time></trkpt><trkpt lat="43.5433433203971" lon="13.528632342567404"><ele>98.0</ele><time>2026-04-26T14:54:41.999Z</time></trkpt><trkpt lat="43.543444467249145" lon="13.528621377057929"><ele>98.0</ele><time>2026-04-26T14:54:42.999Z</time></trkpt><trkpt lat="43.54354635364228" lon="13.528626979530172"><ele>98.0</ele><time>2026-04-26T14:54:43.999Z</time></trkpt><trkpt lat="43.543655291124544" lon="13.52864720163484"><ele>98.0</ele><time>2026-04-26T14:54:44.999Z</time></trkpt><trkpt lat="43.54376274789699" lon="13.528702297230005"><ele>98.0</ele><time>2026-04-26T14:54:45.999Z</time></trkpt><trkpt lat="43.543879269084925" lon="13.528725696259173"><ele>98.0</ele><time>2026-04-26T14:54:46.999Z</time></trkpt><trkpt lat="43.54399386873962" lon="13.528765787971032"><ele>96.75</ele><time>2026-04-26T14:54:47.999Z</time></trkpt><trkpt lat="43.54411335734546" lon="13.528806058549694"><ele>95.5</ele><time>2026-04-26T14:54:48.998Z</time></trkpt><trkpt lat="43.54423722723513" lon="13.528838654699397"><ele>94.25</ele><time>2026-04-26T14:54:49.998Z</time></trkpt><trkpt lat="43.54436456062458" lon="13.528862259569008"><ele>93.0</ele><time>2026-04-26T14:54:50.998Z</time></trkpt><trkpt lat="43.5444943645334" lon="13.528874602035964"><ele>92.75</ele><time>2026-04-26T14:54:51.998Z</time></trkpt><trkpt lat="43.54462639754219" lon="13.528872072360338"><ele>92.5</ele><time>2026-04-26T14:54:52.998Z</time></trkpt><trkpt lat="43.544757944544365" lon="13.528863321608032"><ele>92.25</ele><time>2026-04-26T14:54:53.998Z</time></trkpt><trkpt lat="43.54487914842078" lon="13.528850795539606"><ele>92.0</ele><time>2026-04-26T14:54:54.998Z</time></trkpt><trkpt lat="43.54498959771379" lon="13.528842150573205"><ele>92.0</ele><time>2026-04-26T14:54:55.998Z</time></trkpt><trkpt lat="43.54509364644048" lon="13.528833698845634"><ele>92.0</ele><time>2026-04-26T14:54:56.998Z</time></trkpt><trkpt lat="43.54519861008084" lon="13.528824442588398"><ele>92.0</ele><time>2026-04-26T14:54:57.998Z</time></trkpt><trkpt lat="43.54530313424824" lon="13.528822291739875"><ele>92.0</ele><time>2026-04-26T14:54:58.998Z</time></trkpt><trkpt lat="43.54540768623488" lon="13.528786935505027"><ele>92.0</ele><time>2026-04-26T14:54:59.998Z</time></trkpt><trkpt lat="43.54550950203149" lon="13.52874618339612"><ele>92.6</ele><time>2026-04-26T14:55:00.998Z</time></trkpt><trkpt lat="43.5456028805113" lon="13.528695915787504"><ele>93.19999999999999</ele><time>2026-04-26T14:55:01.998Z</time></trkpt><trkpt lat="43.54569004838144" lon="13.528629769902961"><ele>93.8</ele><time>2026-04-26T14:55:02.998Z</time></trkpt><trkpt lat="43.54578101367494" lon="13.52856448859637"><ele>94.4</ele><time>2026-04-26T14:55:03.998Z</time></trkpt><trkpt lat="43.54587911274941" lon="13.528516728750617"><ele>95.0</ele><time>2026-04-26T14:55:04.998Z</time></trkpt><trkpt lat="43.54598188588835" lon="13.528469080657413"><ele>95.0</ele><time>2026-04-26T14:55:05.998Z</time></trkpt><trkpt lat="43.54609217410807" lon="13.528423051818638"><ele>95.0</ele><time>2026-04-26T14:55:06.998Z</time></trkpt><trkpt lat="43.54621211134755" lon="13.528388154546153"><ele>95.0</ele><time>2026-04-26T14:55:07.998Z</time></trkpt><trkpt lat="43.546338212636435" lon="13.52837617078658"><ele>95.0</ele><time>2026-04-26T14:55:08.998Z</time></trkpt><trkpt lat="43.5464714878276" lon="13.528412973845445"><ele>95.5</ele><time>2026-04-26T14:55:09.998Z</time></trkpt><trkpt lat="43.546615267976726" lon="13.528414296167487"><ele>96.0</ele><time>2026-04-26T14:55:10.998Z</time></trkpt><trkpt lat="43.54676145258849" lon="13.528441701492472"><ele>96.5</ele><time>2026-04-26T14:55:11.998Z</time></trkpt><trkpt lat="43.5469128373253" lon="13.528465888971235"><ele>97.0</ele><time>2026-04-26T14:55:12.998Z</time></trkpt><trkpt lat="43.54706668880755" lon="13.528491278946163"><ele>97.0</ele><time>2026-04-26T14:55:13.998Z</time></trkpt><trkpt lat="43.54722498757693" lon="13.52851979980924"><ele>97.0</ele><time>2026-04-26T14:55:14.998Z</time></trkpt><trkpt lat="43.547384692152995" lon="13.528549377184316"><ele>97.0</ele><time>2026-04-26T14:55:15.998Z</time></trkpt><trkpt lat="43.54754752627714" lon="13.528577273663016"><ele>97.0</ele><time>2026-04-26T14:55:16.998Z</time></trkpt><trkpt lat="43.5477085879708" lon="13.528605156655727"><ele>97.0</ele><time>2026-04-26T14:55:17.998Z</time></trkpt><trkpt lat="43.54786238469267" lon="13.528632575781188"><ele>97.0</ele><time>2026-04-26T14:55:18.998Z</time></trkpt><trkpt lat="43.54800499791135" lon="13.52867432631559"><ele>96.25</ele><time>2026-04-26T14:55:19.998Z</time></trkpt><trkpt lat="43.54813987858836" lon="13.528734887875205"><ele>95.5</ele><time>2026-04-26T14:55:20.998Z</time></trkpt><trkpt lat="43.5482679315659" lon="13.528816327845021"><ele>94.75</ele><time>2026-04-26T14:55:21.998Z</time></trkpt><trkpt lat="43.54839291416473" lon="13.528914365597837"><ele>94.0</ele><time>2026-04-26T14:55:22.998Z</time></trkpt><trkpt lat="43.548518292490066" lon="13.529011835872417"><ele>94.0</ele><time>2026-04-26T14:55:23.998Z</time></trkpt><trkpt lat="43.54864435366702" lon="13.529106765508734"><ele>94.0</ele><time>2026-04-26T14:55:24.998Z</time></trkpt><trkpt lat="43.54877082325027" lon="13.529206385278465"><ele>94.0</ele><time>2026-04-26T14:55:25.998Z</time></trkpt><trkpt lat="43.54890008870203" lon="13.529307842458852"><ele>94.0</ele><time>2026-04-26T14:55:27Z</time></trkpt><trkpt lat="43.54902813338257" lon="13.529409317686886"><ele>95.5</ele><time>2026-04-26T14:55:28Z</time></trkpt><trkpt lat="43.54915666318277" lon="13.529510108901354"><ele>97.0</ele><time>2026-04-26T14:55:29Z</time></trkpt><trkpt lat="43.54927652738094" lon="13.529605327862168"><ele>98.5</ele><time>2026-04-26T14:55:30Z</time></trkpt><trkpt lat="43.54938099145033" lon="13.529690325986047"><ele>100.0</ele><time>2026-04-26T14:55:31Z</time></trkpt><trkpt lat="43.54946823647173" lon="13.52976312473146"><ele>100.00000000000001</ele><time>2026-04-26T14:55:32Z</time></trkpt><trkpt lat="43.5495418922986" lon="13.529830258516006"><ele>100.0</ele><time>2026-04-26T14:55:34Z</time></trkpt><trkpt lat="43.54962316860782" lon="13.529910930178174"><ele>100.0</ele><time>2026-04-26T14:55:36Z</time></trkpt><trkpt lat="43.5496824125693" lon="13.529956213180403"><ele>100.0</ele><time>2026-04-26T14:55:37Z</time></trkpt><trkpt lat="43.54975533401054" lon="13.530009712511724"><ele>100.00000000000001</ele><time>2026-04-26T14:55:38Z</time></trkpt><trkpt lat="43.54983143494234" lon="13.53007050893383"><ele>100.0</ele><time>2026-04-26T14:55:39Z</time></trkpt><trkpt lat="43.54990781472512" lon="13.530131069595205"><ele>100.2</ele><time>2026-04-26T14:55:40Z</time></trkpt><trkpt lat="43.54998860300072" lon="13.530185573182482"><ele>100.4</ele><time>2026-04-26T14:55:41Z</time></trkpt><trkpt lat="43.55007148042409" lon="13.530241142147847"><ele>100.6</ele><time>2026-04-26T14:55:42Z</time></trkpt><trkpt lat="43.55015459463595" lon="13.53030847442405"><ele>100.8</ele><time>2026-04-26T14:55:43Z</time></trkpt><trkpt lat="43.550239936296656" lon="13.530379666601837"><ele>101.0</ele><time>2026-04-26T14:55:44Z</time></trkpt><trkpt lat="43.55032636173389" lon="13.530451809745253"><ele>99.49999999999999</ele><time>2026-04-26T14:55:45Z</time></trkpt><trkpt lat="43.55040840488198" lon="13.530520438468656"><ele>98.0</ele><time>2026-04-26T14:55:46Z</time></trkpt><trkpt lat="43.55048783401762" lon="13.530585546946707"><ele>96.5</ele><time>2026-04-26T14:55:47Z</time></trkpt><trkpt lat="43.55056375106012" lon="13.530652039102005"><ele>95.0</ele><time>2026-04-26T14:55:48Z</time></trkpt><trkpt lat="43.550627531975536" lon="13.53072440511206"><ele>93.5</ele><time>2026-04-26T14:55:49Z</time></trkpt><trkpt lat="43.550683249014824" lon="13.53080671458149"><ele>92.0</ele><time>2026-04-26T14:55:50Z</time></trkpt><trkpt lat="43.550730093888234" lon="13.530904127203533"><ele>92.0</ele><time>2026-04-26T14:55:51Z</time></trkpt><trkpt lat="43.550763606824646" lon="13.531029908628042"><ele>92.0</ele><time>2026-04-26T14:55:52Z</time></trkpt><trkpt lat="43.55078862687361" lon="13.531183000501064"><ele>92.0</ele><time>2026-04-26T14:55:53Z</time></trkpt><trkpt lat="43.55080500855619" lon="13.531343702363507"><ele>92.0</ele><time>2026-04-26T14:55:54Z</time></trkpt><trkpt lat="43.550827743829714" lon="13.531514080893462"><ele>90.5</ele><time>2026-04-26T14:55:55Z</time></trkpt><trkpt lat="43.550858020559495" lon="13.531692516445595"><ele>89.0</ele><time>2026-04-26T14:55:56Z</time></trkpt><trkpt lat="43.55089390646406" lon="13.531884700099964"><ele>87.5</ele><time>2026-04-26T14:55:56.999Z</time></trkpt><trkpt lat="43.550918904562565" lon="13.532091439293705"><ele>86.0</ele><time>2026-04-26T14:55:57.999Z</time></trkpt><trkpt lat="43.5509154725187" lon="13.532321423750538"><ele>83.66666666666667</ele><time>2026-04-26T14:55:58.999Z</time></trkpt><trkpt lat="43.55088789861702" lon="13.532548161613603"><ele>81.33333333333333</ele><time>2026-04-26T14:55:59.999Z</time></trkpt><trkpt lat="43.55083334317124" lon="13.532763530715892"><ele>79.0</ele><time>2026-04-26T14:56:00.999Z</time></trkpt><trkpt lat="43.550749755564645" lon="13.532970667982026"><ele>77.0</ele><time>2026-04-26T14:56:01.999Z</time></trkpt><trkpt lat="43.55065974580791" lon="13.533178245657304"><ele>75.0</ele><time>2026-04-26T14:56:02.999Z</time></trkpt><trkpt lat="43.55056530665315" lon="13.533398797322636"><ele>73.0</ele><time>2026-04-26T14:56:03.999Z</time></trkpt><trkpt lat="43.5504702309387" lon="13.533626202478432"><ele>70.33333333333333</ele><time>2026-04-26T14:56:04.999Z</time></trkpt><trkpt lat="43.55037161846783" lon="13.533857912592026"><ele>67.66666666666667</ele><time>2026-04-26T14:56:05.999Z</time></trkpt><trkpt lat="43.550271661623036" lon="13.534089936497214"><ele>65.0</ele><time>2026-04-26T14:56:06.999Z</time></trkpt><trkpt lat="43.550172986779685" lon="13.534319052049188"><ele>65.0</ele><time>2026-04-26T14:56:07.999Z</time></trkpt><trkpt lat="43.55007321501173" lon="13.534551922754064"><ele>65.0</ele><time>2026-04-26T14:56:08.999Z</time></trkpt><trkpt lat="43.54996971332173" lon="13.534791089686761"><ele>65.0</ele><time>2026-04-26T14:56:09.999Z</time></trkpt><trkpt lat="43.549865442786796" lon="13.535032150112905"><ele>63.0</ele><time>2026-04-26T14:56:10.999Z</time></trkpt><trkpt lat="43.5497634001785" lon="13.535271010065625"><ele>61.0</ele><time>2026-04-26T14:56:11.999Z</time></trkpt><trkpt lat="43.54965995780627" lon="13.535508899932774"><ele>59.0</ele><time>2026-04-26T14:56:12.999Z</time></trkpt><trkpt lat="43.549557878568734" lon="13.53574059685499"><ele>57.0</ele><time>2026-04-26T14:56:13.999Z</time></trkpt><trkpt lat="43.54944984535183" lon="13.535973358204773"><ele>55.0</ele><time>2026-04-26T14:56:14.999Z</time></trkpt><trkpt lat="43.5493441210342" lon="13.5362048488843"><ele>53.0</ele><time>2026-04-26T14:56:15.999Z</time></trkpt><trkpt lat="43.549245290611374" lon="13.5364360424081"><ele>52.333333333333336</ele><time>2026-04-26T14:56:16.999Z</time></trkpt><trkpt lat="43.5491501883878" lon="13.536660623180882"><ele>51.66666666666667</ele><time>2026-04-26T14:56:17.999Z</time></trkpt><trkpt lat="43.549058839852826" lon="13.53687415826581"><ele>51.0</ele><time>2026-04-26T14:56:18.999Z</time></trkpt><trkpt lat="43.548972647721" lon="13.53707960926998"><ele>50.66666666666667</ele><time>2026-04-26T14:56:19.999Z</time></trkpt><trkpt lat="43.548890734508085" lon="13.537280897195075"><ele>50.333333333333336</ele><time>2026-04-26T14:56:20.999Z</time></trkpt><trkpt lat="43.54881163828313" lon="13.537472127394695"><ele>50.0</ele><time>2026-04-26T14:56:21.999Z</time></trkpt><trkpt lat="43.548731778536386" lon="13.53764342889755"><ele>49.25</ele><time>2026-04-26T14:56:22.999Z</time></trkpt><trkpt lat="43.548642152137305" lon="13.537797006932701"><ele>48.5</ele><time>2026-04-26T14:56:23.999Z</time></trkpt><trkpt lat="43.54853692506094" lon="13.537928078465853"><ele>47.75</ele><time>2026-04-26T14:56:24.999Z</time></trkpt><trkpt lat="43.54842088977562" lon="13.538040589291317"><ele>47.0</ele><time>2026-04-26T14:56:25.999Z</time></trkpt><trkpt lat="43.54830158179948" lon="13.538128433674602"><ele>46.75</ele><time>2026-04-26T14:56:26.999Z</time></trkpt><trkpt lat="43.54818265048237" lon="13.538204664349648"><ele>46.5</ele><time>2026-04-26T14:56:27.999Z</time></trkpt><trkpt lat="43.54806760301641" lon="13.538283145285316"><ele>46.25</ele><time>2026-04-26T14:56:28.999Z</time></trkpt><trkpt lat="43.5479561207844" lon="13.538357934052256"><ele>46.0</ele><time>2026-04-26T14:56:29.999Z</time></trkpt><trkpt lat="43.54784206807395" lon="13.538432166154806"><ele>45.75</ele><time>2026-04-26T14:56:30.999Z</time></trkpt><trkpt lat="43.54772876943547" lon="13.538502152875955"><ele>45.5</ele><time>2026-04-26T14:56:31.999Z</time></trkpt><trkpt lat="43.54761052264027" lon="13.53856928558929"><ele>45.25</ele><time>2026-04-26T14:56:32.999Z</time></trkpt><trkpt lat="43.54748751153167" lon="13.538634586178622"><ele>45.0</ele><time>2026-04-26T14:56:33.999Z</time></trkpt><trkpt lat="43.54735424173995" lon="13.538706773668826"><ele>45.333333333333336</ele><time>2026-04-26T14:56:34.999Z</time></trkpt><trkpt lat="43.54721311416321" lon="13.538777580633223"><ele>45.66666666666667</ele><time>2026-04-26T14:56:35.999Z</time></trkpt><trkpt lat="43.54706336847013" lon="13.538841492637742"><ele>46.0</ele><time>2026-04-26T14:56:36.999Z</time></trkpt><trkpt lat="43.54690799858799" lon="13.538900164985105"><ele>45.333333333333336</ele><time>2026-04-26T14:56:37.999Z</time></trkpt><trkpt lat="43.546749581058656" lon="13.538976099931395"><ele>44.666666666666664</ele><time>2026-04-26T14:56:38.999Z</time></trkpt><trkpt lat="43.54658744414888" lon="13.53907212186277"><ele>44.0</ele><time>2026-04-26T14:56:39.999Z</time></trkpt><trkpt lat="43.546423172568375" lon="13.53917892725114"><ele>44.0</ele><time>2026-04-26T14:56:40.999Z</time></trkpt><trkpt lat="43.54626318467468" lon="13.539291151494504"><ele>44.0</ele><time>2026-04-26T14:56:41.999Z</time></trkpt><trkpt lat="43.54609947590309" lon="13.539406489525899"><ele>44.0</ele><time>2026-04-26T14:56:42.999Z</time></trkpt><trkpt lat="43.545933241890886" lon="13.539523633220695"><ele>43.0</ele><time>2026-04-26T14:56:43.999Z</time></trkpt><trkpt lat="43.54576283743006" lon="13.539647394747124"><ele>42.0</ele><time>2026-04-26T14:56:44.999Z</time></trkpt><trkpt lat="43.545592358294826" lon="13.539774930916826"><ele>41.0</ele><time>2026-04-26T14:56:45.999Z</time></trkpt><trkpt lat="43.54542137803233" lon="13.539904660549974"><ele>39.666666666666664</ele><time>2026-04-26T14:56:46.999Z</time></trkpt><trkpt lat="43.54524567503532" lon="13.540040591630365"><ele>38.333333333333336</ele><time>2026-04-26T14:56:47.999Z</time></trkpt><trkpt lat="43.5450662900731" lon="13.540177169564197"><ele>37.0</ele><time>2026-04-26T14:56:48.999Z</time></trkpt><trkpt lat="43.54488377929038" lon="13.54031289904321"><ele>37.66666666666667</ele><time>2026-04-26T14:56:49.999Z</time></trkpt><trkpt lat="43.54469778858979" lon="13.540446295761287"><ele>38.333333333333336</ele><time>2026-04-26T14:56:50.999Z</time></trkpt><trkpt lat="43.54451828502374" lon="13.540576975844562"><ele>39.0</ele><time>2026-04-26T14:56:51.999Z</time></trkpt><trkpt lat="43.54435373192424" lon="13.540697936693842"><ele>39.0</ele><time>2026-04-26T14:56:52.999Z</time></trkpt><trkpt lat="43.544213470342825" lon="13.540801871459625"><ele>39.0</ele><time>2026-04-26T14:56:53.999Z</time></trkpt><trkpt lat="43.54409603272057" lon="13.540894603366413"><ele>39.0</ele><time>2026-04-26T14:56:54.999Z</time></trkpt><trkpt lat="43.54400250681456" lon="13.540970565169594"><ele>39.0</ele><time>2026-04-26T14:56:55.999Z</time></trkpt><trkpt lat="43.54392862708989" lon="13.541028754510132"><ele>39.0</ele><time>2026-04-26T14:56:56.999Z</time></trkpt><trkpt lat="43.543848210645876" lon="13.541089546347488"><ele>39.0</ele><time>2026-04-26T14:56:58.998Z</time></trkpt><trkpt lat="43.54377378073619" lon="13.54116128178442"><ele>39.0</ele><time>2026-04-26T14:57:02.998Z</time></trkpt><trkpt lat="43.543662832791355" lon="13.541230820922602"><ele>39.0</ele><time>2026-04-26T14:57:04.998Z</time></trkpt><trkpt lat="43.54360221540241" lon="13.54128825721275"><ele>39.0</ele><time>2026-04-26T14:57:05.998Z</time></trkpt><trkpt lat="43.54353272486096" lon="13.541350219735675"><ele>39.166666666666664</ele><time>2026-04-26T14:57:06.998Z</time></trkpt><trkpt lat="43.54344753378821" lon="13.541417699222626"><ele>39.333333333333336</ele><time>2026-04-26T14:57:07.998Z</time></trkpt><trkpt lat="43.543371145265375" lon="13.541468866250463"><ele>39.5</ele><time>2026-04-26T14:57:08.998Z</time></trkpt><trkpt lat="43.54330173834048" lon="13.54151837343167"><ele>39.66666666666667</ele><time>2026-04-26T14:57:09.998Z</time></trkpt><trkpt lat="43.543228802981254" lon="13.541580398868975"><ele>39.833333333333336</ele><time>2026-04-26T14:57:10.998Z</time></trkpt><trkpt lat="43.5431670976357" lon="13.541651989135085"><ele>40.0</ele><time>2026-04-26T14:57:11.998Z</time></trkpt><trkpt lat="43.54317212921116" lon="13.541829341582309"><ele>40.0</ele><time>2026-04-26T14:57:14.998Z</time></trkpt><trkpt lat="43.54321401681754" lon="13.541905235031967"><ele>40.0</ele><time>2026-04-26T14:57:15.998Z</time></trkpt><trkpt lat="43.54325578408426" lon="13.542003149557951"><ele>40.0</ele><time>2026-04-26T14:57:16.998Z</time></trkpt><trkpt lat="43.54329457506597" lon="13.542113464424366"><ele>40.0</ele><time>2026-04-26T14:57:17.998Z</time></trkpt><trkpt lat="43.54334166345659" lon="13.54223827498453"><ele>40.0</ele><time>2026-04-26T14:57:18.998Z</time></trkpt><trkpt lat="43.54339533631231" lon="13.54237582043954"><ele>40.0</ele><time>2026-04-26T14:57:19.998Z</time></trkpt><trkpt lat="43.54345200758971" lon="13.542524918229546"><ele>40.0</ele><time>2026-04-26T14:57:20.998Z</time></trkpt><trkpt lat="43.54350731457103" lon="13.54268064871294"><ele>40.0</ele><time>2026-04-26T14:57:21.998Z</time></trkpt><trkpt lat="43.543565947717" lon="13.542851083506303"><ele>40.0</ele><time>2026-04-26T14:57:22.998Z</time></trkpt><trkpt lat="43.54362367373279" lon="13.5430181202238"><ele>40.0</ele><time>2026-04-26T14:57:23.998Z</time></trkpt><trkpt lat="43.54368027780222" lon="13.543176688090142"><ele>40.0</ele><time>2026-04-26T14:57:24.998Z</time></trkpt><trkpt lat="43.54372591353774" lon="13.543335093272232"><ele>40.0</ele><time>2026-04-26T14:57:25.998Z</time></trkpt><trkpt lat="43.54374386907289" lon="13.543502486791928"><ele>40.0</ele><time>2026-04-26T14:57:26.998Z</time></trkpt><trkpt lat="43.54374519193012" lon="13.543683235675662"><ele>39.75</ele><time>2026-04-26T14:57:27.998Z</time></trkpt><trkpt lat="43.54374576729817" lon="13.543874239904882"><ele>39.5</ele><time>2026-04-26T14:57:28.998Z</time></trkpt><trkpt lat="43.54374852335038" lon="13.544073302582717"><ele>39.25</ele><time>2026-04-26T14:57:29.998Z</time></trkpt><trkpt lat="43.54375126396685" lon="13.544278009416129"><ele>39.0</ele><time>2026-04-26T14:57:30.998Z</time></trkpt><trkpt lat="43.54375441789279" lon="13.544482629981664"><ele>39.0</ele><time>2026-04-26T14:57:31.998Z</time></trkpt><trkpt lat="43.543749493043926" lon="13.54467991461547"><ele>39.0</ele><time>2026-04-26T14:57:33Z</time></trkpt><trkpt lat="43.54373726783453" lon="13.544857243754697"><ele>39.0</ele><time>2026-04-26T14:57:34Z</time></trkpt><trkpt lat="43.543716682209755" lon="13.545017774880028"><ele>39.0</ele><time>2026-04-26T14:57:35Z</time></trkpt><trkpt lat="43.54370187576914" lon="13.545168596478101"><ele>39.6</ele><time>2026-04-26T14:57:36Z</time></trkpt><trkpt lat="43.543707012929495" lon="13.545301445520046"><ele>40.2</ele><time>2026-04-26T14:57:37Z</time></trkpt><trkpt lat="43.54373199662175" lon="13.545438051759325"><ele>40.800000000000004</ele><time>2026-04-26T14:57:38Z</time></trkpt><trkpt lat="43.543762987507016" lon="13.545588916823707"><ele>41.4</ele><time>2026-04-26T14:57:39Z</time></trkpt><trkpt lat="43.543793808758295" lon="13.54573387371545"><ele>42.0</ele><time>2026-04-26T14:57:40Z</time></trkpt><trkpt lat="43.54382351735035" lon="13.545846878942884"><ele>42.0</ele><time>2026-04-26T14:57:41Z</time></trkpt><trkpt lat="43.5438316843269" lon="13.545936387012647"><ele>42.0</ele><time>2026-04-26T14:57:43Z</time></trkpt><trkpt lat="43.543918348774284" lon="13.545885555954744"><ele>42.0</ele><time>2026-04-26T14:57:45Z</time></trkpt><trkpt lat="43.54405767190101" lon="13.545909177055735"><ele>42.0</ele><time>2026-04-26T14:57:47Z</time></trkpt><trkpt lat="43.54414631573075" lon="13.545942659210569"><ele>42.0</ele><time>2026-04-26T14:57:48Z</time></trkpt><trkpt lat="43.54423973255499" lon="13.545966726417939"><ele>42.0</ele><time>2026-04-26T14:57:49Z</time></trkpt><trkpt lat="43.54434354447663" lon="13.545995027438035"><ele>42.0</ele><time>2026-04-26T14:57:50Z</time></trkpt><trkpt lat="43.544453913125224" lon="13.546030414137734"><ele>42.0</ele><time>2026-04-26T14:57:51Z</time></trkpt><trkpt lat="43.54455722239567" lon="13.54606091022307"><ele>42.0</ele><time>2026-04-26T14:57:52Z</time></trkpt><trkpt lat="43.54465361844921" lon="13.546081500504608"><ele>42.0</ele><time>2026-04-26T14:57:53Z</time></trkpt><trkpt lat="43.54473338621969" lon="13.546126274231934"><ele>43.0</ele><time>2026-04-26T14:57:54Z</time></trkpt><trkpt lat="43.54480955952225" lon="13.546156599205272"><ele>44.0</ele><time>2026-04-26T14:57:55Z</time></trkpt><trkpt lat="43.54486758747622" lon="13.546210403377787"><ele>45.0</ele><time>2026-04-26T14:57:56Z</time></trkpt><trkpt lat="43.54491071709292" lon="13.546366662481766"><ele>46.0</ele><time>2026-04-26T14:57:58Z</time></trkpt><trkpt lat="43.54493874861013" lon="13.546478672860431"><ele>47.0</ele><time>2026-04-26T14:57:59Z</time></trkpt><trkpt lat="43.54498075495009" lon="13.546605208265186"><ele>48.75</ele><time>2026-04-26T14:58:00Z</time></trkpt><trkpt lat="43.545020621762404" lon="13.546749687132044"><ele>50.5</ele><time>2026-04-26T14:58:01Z</time></trkpt><trkpt lat="43.545060963894194" lon="13.546902937427305"><ele>52.25</ele><time>2026-04-26T14:58:02Z</time></trkpt><trkpt lat="43.54510109046555" lon="13.547069820421036"><ele>54.0</ele><time>2026-04-26T14:58:03Z</time></trkpt><trkpt lat="43.54514310524014" lon="13.547234472918573"><ele>55.25</ele><time>2026-04-26T14:58:04Z</time></trkpt><trkpt lat="43.545182443401615" lon="13.547403297270275"><ele>56.5</ele><time>2026-04-26T14:58:05Z</time></trkpt><trkpt lat="43.54522183731353" lon="13.547566264581368"><ele>57.75</ele><time>2026-04-26T14:58:06Z</time></trkpt><trkpt lat="43.54525833646015" lon="13.547725714673353"><ele>59.0</ele><time>2026-04-26T14:58:07Z</time></trkpt><trkpt lat="43.54529555219252" lon="13.547870129896758"><ele>60.2</ele><time>2026-04-26T14:58:08Z</time></trkpt><trkpt lat="43.545331313901734" lon="13.548013706627037"><ele>61.400000000000006</ele><time>2026-04-26T14:58:08.999Z</time></trkpt><trkpt lat="43.54534751560215" lon="13.548151130852725"><ele>62.6</ele><time>2026-04-26T14:58:09.999Z</time></trkpt><trkpt lat="43.5453524094651" lon="13.548292997754567"><ele>63.8</ele><time>2026-04-26T14:58:10.999Z</time></trkpt><trkpt lat="43.545346567861046" lon="13.54840517764546"><ele>65.0</ele><time>2026-04-26T14:58:11.999Z</time></trkpt><trkpt lat="43.54534703513041" lon="13.548501554518673"><ele>65.0</ele><time>2026-04-26T14:58:12.999Z</time></trkpt><trkpt lat="43.545365087124" lon="13.548585662452528"><ele>65.0</ele><time>2026-04-26T14:58:13.999Z</time></trkpt><trkpt lat="43.5454705762387" lon="13.548697559001043"><ele>65.0</ele><time>2026-04-26T14:58:15.999Z</time></trkpt><trkpt lat="43.54554501824763" lon="13.548760277068691"><ele>65.0</ele><time>2026-04-26T14:58:16.999Z</time></trkpt><trkpt lat="43.5456397195753" lon="13.548832069813153"><ele>65.0</ele><time>2026-04-26T14:58:17.999Z</time></trkpt><trkpt lat="43.54574291897404" lon="13.54893205605965"><ele>67.5</ele><time>2026-04-26T14:58:18.999Z</time></trkpt><trkpt lat="43.54585424056746" lon="13.54904707796296"><ele>70.0</ele><time>2026-04-26T14:58:19.999Z</time></trkpt><trkpt lat="43.54595789100446" lon="13.549155492872018"><ele>72.5</ele><time>2026-04-26T14:58:20.999Z</time></trkpt><trkpt lat="43.54605659585613" lon="13.549259918410154"><ele>75.0</ele><time>2026-04-26T14:58:21.999Z</time></trkpt><trkpt lat="43.54615530480463" lon="13.549368278768753"><ele>75.0</ele><time>2026-04-26T14:58:22.999Z</time></trkpt><trkpt lat="43.5462476929034" lon="13.549466849286917"><ele>75.0</ele><time>2026-04-26T14:58:23.999Z</time></trkpt><trkpt lat="43.5463340278737" lon="13.549557199102715"><ele>75.0</ele><time>2026-04-26T14:58:24.999Z</time></trkpt><trkpt lat="43.546413617657265" lon="13.549640948911593"><ele>75.0</ele><time>2026-04-26T14:58:25.999Z</time></trkpt><trkpt lat="43.54648515089211" lon="13.54971929562311"><ele>75.0</ele><time>2026-04-26T14:58:26.999Z</time></trkpt><trkpt lat="43.5465414258921" lon="13.549801569544325"><ele>75.0</ele><time>2026-04-26T14:58:27.999Z</time></trkpt><trkpt lat="43.54657001180304" lon="13.549896669429101"><ele>75.0</ele><time>2026-04-26T14:58:28.999Z</time></trkpt><trkpt lat="43.5465791779097" lon="13.550003790756227"><ele>75.0</ele><time>2026-04-26T14:58:29.999Z</time></trkpt><trkpt lat="43.54654825298442" lon="13.550113361080001"><ele>75.0</ele><time>2026-04-26T14:58:30.999Z</time></trkpt><trkpt lat="43.54654085380472" lon="13.550237349336218"><ele>75.0</ele><time>2026-04-26T14:58:31.999Z</time></trkpt><trkpt lat="43.54651496606025" lon="13.550368009168086"><ele>75.0</ele><time>2026-04-26T14:58:32.999Z</time></trkpt><trkpt lat="43.54649335979359" lon="13.550504866505982"><ele>75.75</ele><time>2026-04-26T14:58:33.999Z</time></trkpt><trkpt lat="43.54646577915943" lon="13.550653830134705"><ele>76.5</ele><time>2026-04-26T14:58:34.999Z</time></trkpt><trkpt lat="43.54643905367526" lon="13.550812390117109"><ele>77.25</ele><time>2026-04-26T14:58:35.999Z</time></trkpt><trkpt lat="43.54641260866111" lon="13.550979916376045"><ele>78.0</ele><time>2026-04-26T14:58:36.999Z</time></trkpt><trkpt lat="43.54638185796581" lon="13.551157085378618"><ele>79.25</ele><time>2026-04-26T14:58:37.999Z</time></trkpt><trkpt lat="43.54634784541253" lon="13.551333247100402"><ele>80.5</ele><time>2026-04-26T14:58:38.999Z</time></trkpt><trkpt lat="43.546316696554406" lon="13.551519638910275"><ele>81.75</ele><time>2026-04-26T14:58:39.999Z</time></trkpt><trkpt lat="43.54629014672625" lon="13.551718854218798"><ele>83.0</ele><time>2026-04-26T14:58:40.999Z</time></trkpt><trkpt lat="43.5462627827146" lon="13.551924851924767"><ele>85.33333333333334</ele><time>2026-04-26T14:58:41.999Z</time></trkpt><trkpt lat="43.54623110692343" lon="13.552130976483967"><ele>87.66666666666667</ele><time>2026-04-26T14:58:42.999Z</time></trkpt><trkpt lat="43.54619859511585" lon="13.552336934138369"><ele>90.0</ele><time>2026-04-26T14:58:43.999Z</time></trkpt><trkpt lat="43.54616410420137" lon="13.552538954004532"><ele>91.0</ele><time>2026-04-26T14:58:44.999Z</time></trkpt><trkpt lat="43.54613201528018" lon="13.552738123268162"><ele>92.0</ele><time>2026-04-26T14:58:45.999Z</time></trkpt><trkpt lat="43.54610047189758" lon="13.552932618170589"><ele>93.0</ele><time>2026-04-26T14:58:46.999Z</time></trkpt><trkpt lat="43.546070543215585" lon="13.553121662180212"><ele>94.0</ele><time>2026-04-26T14:58:47.999Z</time></trkpt><trkpt lat="43.54604099383823" lon="13.553306574977942"><ele>96.25</ele><time>2026-04-26T14:58:48.999Z</time></trkpt><trkpt lat="43.54601132664226" lon="13.553486148463389"><ele>98.5</ele><time>2026-04-26T14:58:49.999Z</time></trkpt><trkpt lat="43.54597906243605" lon="13.553666290955716"><ele>100.75</ele><time>2026-04-26T14:58:50.999Z</time></trkpt><trkpt lat="43.54594643980536" lon="13.553853336771436"><ele>103.0</ele><time>2026-04-26T14:58:51.999Z</time></trkpt><trkpt lat="43.54591600170187" lon="13.554014964637455"><ele>104.60000000000001</ele><time>2026-04-26T14:58:52.999Z</time></trkpt><trkpt lat="43.54588493717431" lon="13.5541403507627"><ele>106.2</ele><time>2026-04-26T14:58:53.999Z</time></trkpt><trkpt lat="43.54585276791821" lon="13.554257083087702"><ele>107.8</ele><time>2026-04-26T14:58:54.999Z</time></trkpt><trkpt lat="43.545819737822086" lon="13.554376093966761"><ele>109.4</ele><time>2026-04-26T14:58:55.999Z</time></trkpt><trkpt lat="43.545791053597064" lon="13.554493309246668"><ele>111.0</ele><time>2026-04-26T14:58:56.999Z</time></trkpt><trkpt lat="43.54575807541643" lon="13.554627099348545"><ele>112.0</ele><time>2026-04-26T14:58:57.999Z</time></trkpt><trkpt lat="43.54572345839971" lon="13.554777714184507"><ele>113.0</ele><time>2026-04-26T14:58:58.999Z</time></trkpt><trkpt lat="43.545685043986815" lon="13.55494035063023"><ele>114.0</ele><time>2026-04-26T14:58:59.999Z</time></trkpt><trkpt lat="43.54564479394475" lon="13.555112216868656"><ele>115.0</ele><time>2026-04-26T14:59:00.999Z</time></trkpt><trkpt lat="43.54559826121937" lon="13.55529018542736"><ele>114.0</ele><time>2026-04-26T14:59:01.999Z</time></trkpt><trkpt lat="43.545547099866184" lon="13.5554814581137"><ele>113.0</ele><time>2026-04-26T14:59:02.999Z</time></trkpt><trkpt lat="43.54549222744456" lon="13.555680871225412"><ele>112.0</ele><time>2026-04-26T14:59:03.999Z</time></trkpt><trkpt lat="43.54543342825081" lon="13.55588129535748"><ele>112.0</ele><time>2026-04-26T14:59:04.999Z</time></trkpt><trkpt lat="43.54537857410878" lon="13.556074977803195"><ele>112.0</ele><time>2026-04-26T14:59:05.999Z</time></trkpt><trkpt lat="43.545326201147525" lon="13.556268021607309"><ele>112.0</ele><time>2026-04-26T14:59:06.999Z</time></trkpt><trkpt lat="43.54528165529651" lon="13.556444666247787"><ele>112.0</ele><time>2026-04-26T14:59:07.999Z</time></trkpt><trkpt lat="43.54523620315879" lon="13.55660085921023"><ele>113.19999999999999</ele><time>2026-04-26T14:59:08.998Z</time></trkpt><trkpt lat="43.545194987372845" lon="13.556745755561053"><ele>114.39999999999999</ele><time>2026-04-26T14:59:09.998Z</time></trkpt><trkpt lat="43.545156640788086" lon="13.556871467939063"><ele>115.60000000000001</ele><time>2026-04-26T14:59:10.998Z</time></trkpt><trkpt lat="43.54512461258827" lon="13.556985828817641"><ele>116.80000000000001</ele><time>2026-04-26T14:59:11.998Z</time></trkpt><trkpt lat="43.54509713745658" lon="13.55709505277723"><ele>118.0</ele><time>2026-04-26T14:59:12.998Z</time></trkpt><trkpt lat="43.54506779799682" lon="13.557197737602046"><ele>118.42857142857142</ele><time>2026-04-26T14:59:13.998Z</time></trkpt><trkpt lat="43.545040835763594" lon="13.55729178527332"><ele>118.85714285714286</ele><time>2026-04-26T14:59:14.998Z</time></trkpt><trkpt lat="43.54502567159762" lon="13.5573911117079"><ele>119.28571428571428</ele><time>2026-04-26T14:59:15.998Z</time></trkpt><trkpt lat="43.54502399983804" lon="13.557489778538828"><ele>119.71428571428571</ele><time>2026-04-26T14:59:16.998Z</time></trkpt><trkpt lat="43.545023071283644" lon="13.557584332689116"><ele>120.14285714285714</ele><time>2026-04-26T14:59:17.998Z</time></trkpt><trkpt lat="43.5450214505225" lon="13.557685124972517"><ele>120.57142857142857</ele><time>2026-04-26T14:59:18.998Z</time></trkpt><trkpt lat="43.54502354500338" lon="13.557793228619458"><ele>121.0</ele><time>2026-04-26T14:59:19.998Z</time></trkpt><trkpt lat="43.545027773487405" lon="13.557898451494765"><ele>121.0</ele><time>2026-04-26T14:59:20.998Z</time></trkpt><trkpt lat="43.545024899372095" lon="13.558003472044698"><ele>120.99999999999999</ele><time>2026-04-26T14:59:21.998Z</time></trkpt><trkpt lat="43.54501428607862" lon="13.558100986166503"><ele>121.0</ele><time>2026-04-26T14:59:22.998Z</time></trkpt><trkpt lat="43.544994056802125" lon="13.558193437178847"><ele>121.0</ele><time>2026-04-26T14:59:23.998Z</time></trkpt><trkpt lat="43.54496853179762" lon="13.55828173752346"><ele>120.99999999999999</ele><time>2026-04-26T14:59:24.998Z</time></trkpt><trkpt lat="43.54493033104126" lon="13.558368782334286"><ele>121.0</ele><time>2026-04-26T14:59:25.998Z</time></trkpt><trkpt lat="43.544889770941055" lon="13.55846443479811"><ele>121.0</ele><time>2026-04-26T14:59:26.998Z</time></trkpt><trkpt lat="43.544850880607626" lon="13.558558150825702"><ele>121.00000000000001</ele><time>2026-04-26T14:59:27.998Z</time></trkpt><trkpt lat="43.54481103266478" lon="13.558651731093576"><ele>121.0</ele><time>2026-04-26T14:59:28.998Z</time></trkpt><trkpt lat="43.54476661576413" lon="13.55873392614818"><ele>121.0</ele><time>2026-04-26T14:59:29.998Z</time></trkpt><trkpt lat="43.54472472553837" lon="13.558807804889254"><ele>121.0</ele><time>2026-04-26T14:59:30.998Z</time></trkpt><trkpt lat="43.54468068110875" lon="13.558901441511438"><ele>121.00000000000001</ele><time>2026-04-26T14:59:31.998Z</time></trkpt><trkpt lat="43.54463990205803" lon="13.558992724378998"><ele>121.0</ele><time>2026-04-26T14:59:32.998Z</time></trkpt><trkpt lat="43.544601492010145" lon="13.559092425953542"><ele>120.66666666666667</ele><time>2026-04-26T14:59:33.998Z</time></trkpt><trkpt lat="43.54456072936377" lon="13.559184331246401"><ele>120.33333333333334</ele><time>2026-04-26T14:59:34.998Z</time></trkpt><trkpt lat="43.54451969728879" lon="13.559281402002613"><ele>120.0</ele><time>2026-04-26T14:59:35.998Z</time></trkpt><trkpt lat="43.54448394525917" lon="13.559374674000622"><ele>119.66666666666666</ele><time>2026-04-26T14:59:36.998Z</time></trkpt><trkpt lat="43.544447213425066" lon="13.55946804300452"><ele>119.33333333333333</ele><time>2026-04-26T14:59:38Z</time></trkpt><trkpt lat="43.544414205802624" lon="13.559557132354003"><ele>119.0</ele><time>2026-04-26T14:59:39Z</time></trkpt><trkpt lat="43.544378059710596" lon="13.559648136462707"><ele>122.16666666666666</ele><time>2026-04-26T14:59:40Z</time></trkpt><trkpt lat="43.54433919251866" lon="13.559728302577371"><ele>125.33333333333333</ele><time>2026-04-26T14:59:41Z</time></trkpt><trkpt lat="43.54428296099326" lon="13.559790122828854"><ele>128.5</ele><time>2026-04-26T14:59:42Z</time></trkpt><trkpt lat="43.54424326114746" lon="13.559877240100105"><ele>131.66666666666666</ele><time>2026-04-26T14:59:43Z</time></trkpt><trkpt lat="43.54418246786753" lon="13.55994052325075"><ele>134.83333333333334</ele><time>2026-04-26T14:59:44Z</time></trkpt><trkpt lat="43.54412447784981" lon="13.560013568940501"><ele>138.0</ele><time>2026-04-26T14:59:45Z</time></trkpt><trkpt lat="43.544063264956655" lon="13.560087720508374"><ele>138.0</ele><time>2026-04-26T14:59:46Z</time></trkpt><trkpt lat="43.544003565824035" lon="13.560159479030265"><ele>138.0</ele><time>2026-04-26T14:59:47Z</time></trkpt><trkpt lat="43.54394355294636" lon="13.560234392430129"><ele>138.0</ele><time>2026-04-26T14:59:48Z</time></trkpt><trkpt lat="43.543881910047595" lon="13.560309815295982"><ele>138.0</ele><time>2026-04-26T14:59:49Z</time></trkpt><trkpt lat="43.543819746237155" lon="13.560397364684773"><ele>138.0</ele><time>2026-04-26T14:59:50Z</time></trkpt><trkpt lat="43.543759413905114" lon="13.560495699555364"><ele>138.0</ele><time>2026-04-26T14:59:51Z</time></trkpt><trkpt lat="43.54370102762021" lon="13.560593131356992"><ele>139.83333333333334</ele><time>2026-04-26T14:59:52Z</time></trkpt><trkpt lat="43.54363718531058" lon="13.560688924982376"><ele>141.66666666666666</ele><time>2026-04-26T14:59:53Z</time></trkpt><trkpt lat="43.54358028101547" lon="13.560779277214488"><ele>143.5</ele><time>2026-04-26T14:59:54Z</time></trkpt><trkpt lat="43.54351953950833" lon="13.56086834036481"><ele>145.33333333333331</ele><time>2026-04-26T14:59:55Z</time></trkpt><trkpt lat="43.54346351360931" lon="13.5609500460739"><ele>147.16666666666666</ele><time>2026-04-26T14:59:56Z</time></trkpt><trkpt lat="43.54340178002188" lon="13.561024928738998"><ele>149.0</ele><time>2026-04-26T14:59:57Z</time></trkpt><trkpt lat="43.54334570604716" lon="13.561093646410786"><ele>149.0</ele><time>2026-04-26T14:59:58Z</time></trkpt><trkpt lat="43.54328830758284" lon="13.561161952425728"><ele>149.0</ele><time>2026-04-26T14:59:58.999Z</time></trkpt><trkpt lat="43.543222641536666" lon="13.561238828602812"><ele>149.0</ele><time>2026-04-26T14:59:59.999Z</time></trkpt><trkpt lat="43.54314769169316" lon="13.561316105231425"><ele>149.0</ele><time>2026-04-26T15:00:00.999Z</time></trkpt><trkpt lat="43.54306173798521" lon="13.561378137998767"><ele>149.0</ele><time>2026-04-26T15:00:01.999Z</time></trkpt><trkpt lat="43.542964268261784" lon="13.561426108110986"><ele>151.0</ele><time>2026-04-26T15:00:02.999Z</time></trkpt><trkpt lat="43.54285548652199" lon="13.561475563445653"><ele>153.0</ele><time>2026-04-26T15:00:03.999Z</time></trkpt><trkpt lat="43.542740457227005" lon="13.561516995939675"><ele>155.0</ele><time>2026-04-26T15:00:04.999Z</time></trkpt><trkpt lat="43.54262111381695" lon="13.561536066554273"><ele>157.0</ele><time>2026-04-26T15:00:05.999Z</time></trkpt><trkpt lat="43.54251084951646" lon="13.561538525317896"><ele>157.0</ele><time>2026-04-26T15:00:06.999Z</time></trkpt><trkpt lat="43.54241066768144" lon="13.561538501261488"><ele>157.0</ele><time>2026-04-26T15:00:07.999Z</time></trkpt><trkpt lat="43.54231556149888" lon="13.56155297001767"><ele>157.0</ele><time>2026-04-26T15:00:08.999Z</time></trkpt><trkpt lat="43.54222903890748" lon="13.561580974523382"><ele>157.0</ele><time>2026-04-26T15:00:09.999Z</time></trkpt><trkpt lat="43.542152099469675" lon="13.561629362464014"><ele>157.0</ele><time>2026-04-26T15:00:10.999Z</time></trkpt><trkpt lat="43.542071735731255" lon="13.561697031305009"><ele>156.6</ele><time>2026-04-26T15:00:11.999Z</time></trkpt><trkpt lat="43.541990470560265" lon="13.561775798099388"><ele>156.2</ele><time>2026-04-26T15:00:12.999Z</time></trkpt><trkpt lat="43.54190887568862" lon="13.561861338042833"><ele>155.8</ele><time>2026-04-26T15:00:13.999Z</time></trkpt><trkpt lat="43.541829338084845" lon="13.561946630027533"><ele>155.4</ele><time>2026-04-26T15:00:14.999Z</time></trkpt><trkpt lat="43.54175079675605" lon="13.562035443412352"><ele>155.0</ele><time>2026-04-26T15:00:15.999Z</time></trkpt><trkpt lat="43.54166653177377" lon="13.562111893391936"><ele>155.0</ele><time>2026-04-26T15:00:16.999Z</time></trkpt><trkpt lat="43.54157132595452" lon="13.562168555582666"><ele>155.0</ele><time>2026-04-26T15:00:17.999Z</time></trkpt><trkpt lat="43.54146782173515" lon="13.562214948433205"><ele>155.0</ele><time>2026-04-26T15:00:18.999Z</time></trkpt><trkpt lat="43.541360234552" lon="13.562258068981402"><ele>155.0</ele><time>2026-04-26T15:00:19.999Z</time></trkpt><trkpt lat="43.541250525992616" lon="13.562300710386584"><ele>155.0</ele><time>2026-04-26T15:00:20.999Z</time></trkpt><trkpt lat="43.541138720689375" lon="13.562346821108285"><ele>153.4</ele><time>2026-04-26T15:00:21.999Z</time></trkpt><trkpt lat="43.541029436004045" lon="13.562392201618962"><ele>151.8</ele><time>2026-04-26T15:00:22.999Z</time></trkpt><trkpt lat="43.540927753585215" lon="13.562431976420966"><ele>150.2</ele><time>2026-04-26T15:00:23.999Z</time></trkpt><trkpt lat="43.54083493194364" lon="13.562463672148432"><ele>148.6</ele><time>2026-04-26T15:00:24.999Z</time></trkpt><trkpt lat="43.54075328280192" lon="13.562481909428467"><ele>147.0</ele><time>2026-04-26T15:00:25.999Z</time></trkpt><trkpt lat="43.54068613532507" lon="13.562490819131876"><ele>147.0</ele><time>2026-04-26T15:00:26.999Z</time></trkpt><trkpt lat="43.54059827419532" lon="13.562507745723599"><ele>147.0</ele><time>2026-04-26T15:00:28.998Z</time></trkpt><trkpt lat="43.54053568312109" lon="13.562539871061349"><ele>147.0</ele><time>2026-04-26T15:00:41.998Z</time></trkpt><trkpt lat="43.540730263209355" lon="13.56271010840297"><ele>147.0</ele><time>2026-04-26T15:00:48.998Z</time></trkpt><trkpt lat="43.54081398194319" lon="13.562735053530396"><ele>147.0</ele><time>2026-04-26T15:00:49.998Z</time></trkpt><trkpt lat="43.54090368457752" lon="13.562776031334781"><ele>147.0</ele><time>2026-04-26T15:00:50.998Z</time></trkpt><trkpt lat="43.541005061343476" lon="13.562815610587412"><ele>147.0</ele><time>2026-04-26T15:00:51.998Z</time></trkpt><trkpt lat="43.54111439287033" lon="13.562848148925067"><ele>147.0</ele><time>2026-04-26T15:00:52.998Z</time></trkpt><trkpt lat="43.54122971520049" lon="13.562887801677531"><ele>147.0</ele><time>2026-04-26T15:00:53.998Z</time></trkpt><trkpt lat="43.54134885756737" lon="13.562931635303457"><ele>146.5</ele><time>2026-04-26T15:00:54.998Z</time></trkpt><trkpt lat="43.54147621431961" lon="13.56298496883516"><ele>146.0</ele><time>2026-04-26T15:00:55.998Z</time></trkpt><trkpt lat="43.541608585148175" lon="13.563039564848701"><ele>145.5</ele><time>2026-04-26T15:00:56.998Z</time></trkpt><trkpt lat="43.541739790449064" lon="13.563116370176445"><ele>145.0</ele><time>2026-04-26T15:00:57.998Z</time></trkpt><trkpt lat="43.541864124522355" lon="13.563219091923498"><ele>145.0</ele><time>2026-04-26T15:00:58.998Z</time></trkpt><trkpt lat="43.541989658464786" lon="13.56334243342701"><ele>145.0</ele><time>2026-04-26T15:00:59.998Z</time></trkpt><trkpt lat="43.542121966078795" lon="13.563466663234736"><ele>145.0</ele><time>2026-04-26T15:01:00.998Z</time></trkpt><trkpt lat="43.54226009488751" lon="13.563588992943918"><ele>143.66666666666669</ele><time>2026-04-26T15:01:01.998Z</time></trkpt><trkpt lat="43.54240389050692" lon="13.563718107000673"><ele>142.33333333333334</ele><time>2026-04-26T15:01:02.998Z</time></trkpt><trkpt lat="43.542554187455906" lon="13.563854156817301"><ele>141.0</ele><time>2026-04-26T15:01:03.998Z</time></trkpt><trkpt lat="43.54270605038603" lon="13.563995080909748"><ele>141.0</ele><time>2026-04-26T15:01:04.998Z</time></trkpt><trkpt lat="43.54285851952321" lon="13.564139112250142"><ele>141.0</ele><time>2026-04-26T15:01:05.998Z</time></trkpt><trkpt lat="43.54301160158295" lon="13.564284415412846"><ele>141.0</ele><time>2026-04-26T15:01:06.998Z</time></trkpt><trkpt lat="43.54316812540469" lon="13.564434818879212"><ele>144.0</ele><time>2026-04-26T15:01:07.998Z</time></trkpt><trkpt lat="43.54332068261709" lon="13.564580333836133"><ele>147.0</ele><time>2026-04-26T15:01:08.998Z</time></trkpt><trkpt lat="43.5434692204334" lon="13.564722077534118"><ele>150.0</ele><time>2026-04-26T15:01:09.998Z</time></trkpt><trkpt lat="43.5435851445417" lon="13.564842224407258"><ele>150.0</ele><time>2026-04-26T15:01:10.998Z</time></trkpt><trkpt lat="43.54369096204516" lon="13.564948092480833"><ele>150.0</ele><time>2026-04-26T15:01:11.998Z</time></trkpt><trkpt lat="43.54379404219346" lon="13.565048885883837"><ele>150.0</ele><time>2026-04-26T15:01:12.998Z</time></trkpt><trkpt lat="43.54389046852666" lon="13.565172113444836"><ele>150.0</ele><time>2026-04-26T15:01:13.998Z</time></trkpt><trkpt lat="43.543966429633045" lon="13.56531780772452"><ele>152.75</ele><time>2026-04-26T15:01:14.998Z</time></trkpt><trkpt lat="43.54401287118243" lon="13.565477997089722"><ele>155.5</ele><time>2026-04-26T15:01:15.998Z</time></trkpt><trkpt lat="43.5440425064559" lon="13.565664066686447"><ele>158.25</ele><time>2026-04-26T15:01:16.998Z</time></trkpt><trkpt lat="43.54406314461621" lon="13.56585677560673"><ele>161.0</ele><time>2026-04-26T15:01:17.998Z</time></trkpt><trkpt lat="43.54408772175374" lon="13.566055824783641"><ele>163.0</ele><time>2026-04-26T15:01:18.998Z</time></trkpt><trkpt lat="43.544118657202" lon="13.566259804046563"><ele>165.0</ele><time>2026-04-26T15:01:19.998Z</time></trkpt><trkpt lat="43.544152788017016" lon="13.566468960545512"><ele>167.0</ele><time>2026-04-26T15:01:20.998Z</time></trkpt><trkpt lat="43.54418825674972" lon="13.566681695693509"><ele>167.0</ele><time>2026-04-26T15:01:21.998Z</time></trkpt><trkpt lat="43.54422068767031" lon="13.56689911252642"><ele>167.0</ele><time>2026-04-26T15:01:22.998Z</time></trkpt><trkpt lat="43.544252475166005" lon="13.567116534157304"><ele>167.0</ele><time>2026-04-26T15:01:23.997Z</time></trkpt><trkpt lat="43.54429046368649" lon="13.56731839385224"><ele>169.0</ele><time>2026-04-26T15:01:24.997Z</time></trkpt><trkpt lat="43.544332606079735" lon="13.567510490847512"><ele>171.0</ele><time>2026-04-26T15:01:25.997Z</time></trkpt><trkpt lat="43.5443751680105" lon="13.567682254088217"><ele>173.0</ele><time>2026-04-26T15:01:26.997Z</time></trkpt><trkpt lat="43.544410773027714" lon="13.567838639796662"><ele>175.0</ele><time>2026-04-26T15:01:27.997Z</time></trkpt><trkpt lat="43.54445456919424" lon="13.567986877169252"><ele>176.25</ele><time>2026-04-26T15:01:28.997Z</time></trkpt><trkpt lat="43.544520615342044" lon="13.5681209705353"><ele>177.5</ele><time>2026-04-26T15:01:29.997Z</time></trkpt><trkpt lat="43.54462024194975" lon="13.568235175978918"><ele>178.75</ele><time>2026-04-26T15:01:30.997Z</time></trkpt><trkpt lat="43.54473768287365" lon="13.568342710422732"><ele>180.0</ele><time>2026-04-26T15:01:31.997Z</time></trkpt><trkpt lat="43.54486145556419" lon="13.568462562190392"><ele>180.0</ele><time>2026-04-26T15:01:32.997Z</time></trkpt><trkpt lat="43.54499195762868" lon="13.568597906577407"><ele>180.0</ele><time>2026-04-26T15:01:33.997Z</time></trkpt><trkpt lat="43.54511027910366" lon="13.568712474580504"><ele>180.0</ele><time>2026-04-26T15:01:34.997Z</time></trkpt><trkpt lat="43.5452101758976" lon="13.568823805034253"><ele>180.0</ele><time>2026-04-26T15:01:35.997Z</time></trkpt><trkpt lat="43.54529017871243" lon="13.568939147534804"><ele>180.2</ele><time>2026-04-26T15:01:36.997Z</time></trkpt><trkpt lat="43.54534746476243" lon="13.56905852231762"><ele>180.4</ele><time>2026-04-26T15:01:37.997Z</time></trkpt><trkpt lat="43.545380689953454" lon="13.569187761954396"><ele>180.60000000000002</ele><time>2026-04-26T15:01:38.997Z</time></trkpt><trkpt lat="43.545411531702236" lon="13.569338160844191"><ele>180.8</ele><time>2026-04-26T15:01:39.997Z</time></trkpt><trkpt lat="43.545449579245336" lon="13.569496518649165"><ele>181.0</ele><time>2026-04-26T15:01:40.997Z</time></trkpt><trkpt lat="43.5454936852671" lon="13.569659488506293"><ele>180.5</ele><time>2026-04-26T15:01:41.997Z</time></trkpt><trkpt lat="43.54552369210264" lon="13.569826666473459"><ele>180.0</ele><time>2026-04-26T15:01:42.997Z</time></trkpt><trkpt lat="43.54553039253816" lon="13.569999802815063"><ele>179.5</ele><time>2026-04-26T15:01:43.999Z</time></trkpt><trkpt lat="43.54552597447387" lon="13.57019487529256"><ele>179.0</ele><time>2026-04-26T15:01:44.999Z</time></trkpt><trkpt lat="43.54550891316314" lon="13.570413378010816"><ele>178.66666666666666</ele><time>2026-04-26T15:01:45.999Z</time></trkpt><trkpt lat="43.545475935063905" lon="13.570638113634976"><ele>178.33333333333334</ele><time>2026-04-26T15:01:46.999Z</time></trkpt><trkpt lat="43.54543085351348" lon="13.57086547172203"><ele>178.0</ele><time>2026-04-26T15:01:47.999Z</time></trkpt><trkpt lat="43.54539067222151" lon="13.57110767756256"><ele>179.66666666666669</ele><time>2026-04-26T15:01:48.999Z</time></trkpt><trkpt lat="43.54536385592796" lon="13.571373129286844"><ele>181.33333333333334</ele><time>2026-04-26T15:01:49.999Z</time></trkpt><trkpt lat="43.54535067497293" lon="13.571630285182014"><ele>183.0</ele><time>2026-04-26T15:01:51Z</time></trkpt><trkpt lat="43.545344707964325" lon="13.571862648277728"><ele>183.5</ele><time>2026-04-26T15:01:52Z</time></trkpt><trkpt lat="43.54534436147606" lon="13.572077499520653"><ele>184.0</ele><time>2026-04-26T15:01:53Z</time></trkpt><trkpt lat="43.545359130109915" lon="13.572278933970761"><ele>184.5</ele><time>2026-04-26T15:01:54Z</time></trkpt><trkpt lat="43.54538808555715" lon="13.572469361179946"><ele>185.0</ele><time>2026-04-26T15:01:55Z</time></trkpt><trkpt lat="43.545415770668775" lon="13.572635540456153"><ele>187.2</ele><time>2026-04-26T15:01:56Z</time></trkpt><trkpt lat="43.54543849235023" lon="13.572780548904447"><ele>189.4</ele><time>2026-04-26T15:01:57Z</time></trkpt><trkpt lat="43.54545680065096" lon="13.572915391847983"><ele>191.60000000000002</ele><time>2026-04-26T15:01:58Z</time></trkpt><trkpt lat="43.54548591123507" lon="13.57305258890943"><ele>193.8</ele><time>2026-04-26T15:01:59Z</time></trkpt><trkpt lat="43.54552931641728" lon="13.573189593563002"><ele>196.0</ele><time>2026-04-26T15:02:00Z</time></trkpt><trkpt lat="43.545586016464554" lon="13.57332778189972"><ele>197.75</ele><time>2026-04-26T15:02:01Z</time></trkpt><trkpt lat="43.545648369346964" lon="13.573471091709896"><ele>199.5</ele><time>2026-04-26T15:02:02Z</time></trkpt><trkpt lat="43.545713573668245" lon="13.573612088740301"><ele>201.25</ele><time>2026-04-26T15:02:03Z</time></trkpt><trkpt lat="43.545793570156185" lon="13.57372429393771"><ele>203.0</ele><time>2026-04-26T15:02:04Z</time></trkpt><trkpt lat="43.54589315932065" lon="13.573797186835131"><ele>205.0</ele><time>2026-04-26T15:02:05Z</time></trkpt><trkpt lat="43.54601617262505" lon="13.573829024124235"><ele>207.0</ele><time>2026-04-26T15:02:06Z</time></trkpt><trkpt lat="43.546160793444905" lon="13.573841126267505"><ele>209.0</ele><time>2026-04-26T15:02:07Z</time></trkpt><trkpt lat="43.54631890841454" lon="13.573855623325306"><ele>211.0</ele><time>2026-04-26T15:02:08Z</time></trkpt><trkpt lat="43.54648723935151" lon="13.57388282641375"><ele>215.0</ele><time>2026-04-26T15:02:09Z</time></trkpt><trkpt lat="43.546646601058804" lon="13.573914288489844"><ele>219.0</ele><time>2026-04-26T15:02:10Z</time></trkpt><trkpt lat="43.546788170885335" lon="13.573933786259191"><ele>223.0</ele><time>2026-04-26T15:02:11Z</time></trkpt><trkpt lat="43.546923913191705" lon="13.57394873075764"><ele>227.0</ele><time>2026-04-26T15:02:12Z</time></trkpt><trkpt lat="43.547042980843486" lon="13.573970332275175"><ele>228.50000000000003</ele><time>2026-04-26T15:02:13Z</time></trkpt><trkpt lat="43.547151162862676" lon="13.573996474528476"><ele>230.0</ele><time>2026-04-26T15:02:14Z</time></trkpt><trkpt lat="43.54724378226583" lon="13.57404983183885"><ele>231.5</ele><time>2026-04-26T15:02:15Z</time></trkpt><trkpt lat="43.54731676073179" lon="13.574114454196899"><ele>233.0</ele><time>2026-04-26T15:02:16Z</time></trkpt><trkpt lat="43.547350640898344" lon="13.574195744803426"><ele>234.50000000000003</ele><time>2026-04-26T15:02:17Z</time></trkpt><trkpt lat="43.54736801034564" lon="13.574284576970385"><ele>236.0</ele><time>2026-04-26T15:02:18Z</time></trkpt><trkpt lat="43.547344398651596" lon="13.574389122466341"><ele>236.00000000000003</ele><time>2026-04-26T15:02:18.999Z</time></trkpt><trkpt lat="43.54733025257731" lon="13.574495330071247"><ele>236.0</ele><time>2026-04-26T15:02:19.999Z</time></trkpt><trkpt lat="43.54735586321364" lon="13.574591143929474"><ele>236.0</ele><time>2026-04-26T15:02:20.999Z</time></trkpt><trkpt lat="43.54740411990802" lon="13.574666068403186"><ele>236.0</ele><time>2026-04-26T15:02:21.999Z</time></trkpt><trkpt lat="43.547473538325576" lon="13.574741283246084"><ele>236.00000000000003</ele><time>2026-04-26T15:02:22.999Z</time></trkpt><trkpt lat="43.547547190354706" lon="13.574820100863313"><ele>236.0</ele><time>2026-04-26T15:02:23.999Z</time></trkpt><trkpt lat="43.54763698897427" lon="13.574899691992231"><ele>236.25</ele><time>2026-04-26T15:02:24.999Z</time></trkpt><trkpt lat="43.547745226141785" lon="13.574969302547887"><ele>236.5</ele><time>2026-04-26T15:02:25.999Z</time></trkpt><trkpt lat="43.54787191044906" lon="13.575029333990694"><ele>236.75</ele><time>2026-04-26T15:02:26.999Z</time></trkpt><trkpt lat="43.548005701609846" lon="13.575092474416829"><ele>237.0</ele><time>2026-04-26T15:02:27.999Z</time></trkpt><trkpt lat="43.54814115861341" lon="13.575162125399748"><ele>237.0</ele><time>2026-04-26T15:02:28.999Z</time></trkpt><trkpt lat="43.54828594312665" lon="13.575237740948646"><ele>237.0</ele><time>2026-04-26T15:02:29.999Z</time></trkpt><trkpt lat="43.548438251747626" lon="13.575313355557633"><ele>237.0</ele><time>2026-04-26T15:02:30.999Z</time></trkpt><trkpt lat="43.548599077267326" lon="13.575385112365298"><ele>238.66666666666669</ele><time>2026-04-26T15:02:31.999Z</time></trkpt><trkpt lat="43.54876721103498" lon="13.575452875341192"><ele>240.33333333333334</ele><time>2026-04-26T15:02:32.999Z</time></trkpt><trkpt lat="43.54894669839609" lon="13.575516246207709"><ele>242.0</ele><time>2026-04-26T15:02:33.999Z</time></trkpt><trkpt lat="43.54912918405273" lon="13.575565822031907"><ele>242.0</ele><time>2026-04-26T15:02:34.999Z</time></trkpt><trkpt lat="43.54930996442092" lon="13.57559881796487"><ele>242.0</ele><time>2026-04-26T15:02:35.999Z</time></trkpt><trkpt lat="43.54947396627823" lon="13.5756198101451"><ele>242.0</ele><time>2026-04-26T15:02:36.999Z</time></trkpt><trkpt lat="43.54962491146363" lon="13.575643306304984"><ele>241.5</ele><time>2026-04-26T15:02:37.999Z</time></trkpt><trkpt lat="43.549756842629506" lon="13.575676441812154"><ele>241.0</ele><time>2026-04-26T15:02:38.999Z</time></trkpt><trkpt lat="43.54986623854437" lon="13.575723177709671"><ele>240.5</ele><time>2026-04-26T15:02:39.999Z</time></trkpt><trkpt lat="43.5499580022675" lon="13.575795815738077"><ele>240.0</ele><time>2026-04-26T15:02:40.999Z</time></trkpt><trkpt lat="43.550042670989654" lon="13.575899704409615"><ele>240.0</ele><time>2026-04-26T15:02:41.999Z</time></trkpt><trkpt lat="43.55012528683373" lon="13.576024569271098"><ele>240.0</ele><time>2026-04-26T15:02:42.999Z</time></trkpt><trkpt lat="43.55021399631029" lon="13.5761659085121"><ele>240.0</ele><time>2026-04-26T15:02:43.999Z</time></trkpt><trkpt lat="43.5502990139832" lon="13.576306110087058"><ele>240.0</ele><time>2026-04-26T15:02:44.999Z</time></trkpt><trkpt lat="43.550378650610604" lon="13.576430086712865"><ele>240.0</ele><time>2026-04-26T15:02:45.999Z</time></trkpt><trkpt lat="43.55045420597049" lon="13.576543629045904"><ele>240.0</ele><time>2026-04-26T15:02:46.999Z</time></trkpt><trkpt lat="43.550521929909806" lon="13.576647198056074"><ele>240.0</ele><time>2026-04-26T15:02:47.999Z</time></trkpt><trkpt lat="43.550579435302076" lon="13.576737129228558"><ele>240.0</ele><time>2026-04-26T15:02:48.999Z</time></trkpt><trkpt lat="43.55062556741601" lon="13.576807395534777"><ele>240.0</ele><time>2026-04-26T15:02:49.999Z</time></trkpt><trkpt lat="43.550696308110346" lon="13.576884491576125"><ele>240.0</ele><time>2026-04-26T15:02:53.999Z</time></trkpt><trkpt lat="43.55081277828522" lon="13.576822324431184"><ele>240.0</ele><time>2026-04-26T15:02:55.999Z</time></trkpt><trkpt lat="43.55088660751815" lon="13.576741405302133"><ele>240.0</ele><time>2026-04-26T15:02:56.999Z</time></trkpt><trkpt lat="43.55097206599287" lon="13.57665870701948"><ele>240.0</ele><time>2026-04-26T15:02:57.999Z</time></trkpt><trkpt lat="43.55108270391613" lon="13.57658084181856"><ele>240.0</ele><time>2026-04-26T15:02:58.999Z</time></trkpt><trkpt lat="43.551223422919335" lon="13.576539279368928"><ele>240.66666666666669</ele><time>2026-04-26T15:02:59.999Z</time></trkpt><trkpt lat="43.551370977963316" lon="13.576507632115849"><ele>241.33333333333334</ele><time>2026-04-26T15:03:00.999Z</time></trkpt><trkpt lat="43.55152856346057" lon="13.576486368668554"><ele>242.0</ele><time>2026-04-26T15:03:01.999Z</time></trkpt><trkpt lat="43.55169976862412" lon="13.576462712698921"><ele>242.0</ele><time>2026-04-26T15:03:02.999Z</time></trkpt><trkpt lat="43.55188009038311" lon="13.576437763090606"><ele>242.0</ele><time>2026-04-26T15:03:03.999Z</time></trkpt><trkpt lat="43.552069626556644" lon="13.576411789054683"><ele>242.0</ele><time>2026-04-26T15:03:04.999Z</time></trkpt><trkpt lat="43.55227197501548" lon="13.57638629665206"><ele>241.0</ele><time>2026-04-26T15:03:05.999Z</time></trkpt><trkpt lat="43.55247606690882" lon="13.576360112210166"><ele>240.0</ele><time>2026-04-26T15:03:06.999Z</time></trkpt><trkpt lat="43.55266761518552" lon="13.576335799255338"><ele>239.0</ele><time>2026-04-26T15:03:07.999Z</time></trkpt><trkpt lat="43.552849464553056" lon="13.576309125532642"><ele>234.66666666666669</ele><time>2026-04-26T15:03:08.999Z</time></trkpt><trkpt lat="43.553021395283444" lon="13.576277834160818"><ele>230.33333333333331</ele><time>2026-04-26T15:03:09.999Z</time></trkpt><trkpt lat="43.553190546758835" lon="13.576235435375173"><ele>226.0</ele><time>2026-04-26T15:03:10.999Z</time></trkpt><trkpt lat="43.5533520612314" lon="13.576164902905793"><ele>226.0</ele><time>2026-04-26T15:03:11.999Z</time></trkpt><trkpt lat="43.55351045600609" lon="13.57606784824427"><ele>226.0</ele><time>2026-04-26T15:03:12.999Z</time></trkpt><trkpt lat="43.55366568435727" lon="13.575949898424867"><ele>226.0</ele><time>2026-04-26T15:03:13.999Z</time></trkpt><trkpt lat="43.55381311894424" lon="13.575812398661629"><ele>226.0</ele><time>2026-04-26T15:03:14.999Z</time></trkpt><trkpt lat="43.553947553449824" lon="13.575649303645282"><ele>226.0</ele><time>2026-04-26T15:03:15.999Z</time></trkpt><trkpt lat="43.55407534136384" lon="13.575471272932075"><ele>226.0</ele><time>2026-04-26T15:03:16.999Z</time></trkpt><trkpt lat="43.554193579946094" lon="13.5752807432245"><ele>221.66666666666666</ele><time>2026-04-26T15:03:17.999Z</time></trkpt><trkpt lat="43.55428672233126" lon="13.575074681928857"><ele>217.33333333333331</ele><time>2026-04-26T15:03:18.999Z</time></trkpt><trkpt lat="43.55436638465372" lon="13.574865494610894"><ele>213.0</ele><time>2026-04-26T15:03:19.998Z</time></trkpt><trkpt lat="43.55444232770049" lon="13.574654968931462"><ele>217.0</ele><time>2026-04-26T15:03:20.998Z</time></trkpt><trkpt lat="43.55452024328273" lon="13.574449638037201"><ele>221.0</ele><time>2026-04-26T15:03:21.998Z</time></trkpt><trkpt lat="43.554605697202916" lon="13.574243158366711"><ele>225.0</ele><time>2026-04-26T15:03:22.998Z</time></trkpt><trkpt lat="43.55469888231074" lon="13.574030452371149"><ele>225.0</ele><time>2026-04-26T15:03:23.998Z</time></trkpt><trkpt lat="43.554803795105975" lon="13.573820391519277"><ele>225.0</ele><time>2026-04-26T15:03:24.998Z</time></trkpt><trkpt lat="43.554929770944376" lon="13.573632858995422"><ele>225.0</ele><time>2026-04-26T15:03:25.998Z</time></trkpt><trkpt lat="43.55507245813386" lon="13.573472459255003"><ele>223.66666666666669</ele><time>2026-04-26T15:03:26.998Z</time></trkpt><trkpt lat="43.55521798821727" lon="13.57333906240863"><ele>222.33333333333334</ele><time>2026-04-26T15:03:27.998Z</time></trkpt><trkpt lat="43.55536276346609" lon="13.573226979326783"><ele>221.0</ele><time>2026-04-26T15:03:28.998Z</time></trkpt><trkpt lat="43.5555056887476" lon="13.573148242153684"><ele>221.0</ele><time>2026-04-26T15:03:29.998Z</time></trkpt><trkpt lat="43.5556496989904" lon="13.573082006945942"><ele>221.0</ele><time>2026-04-26T15:03:30.998Z</time></trkpt><trkpt lat="43.55579255739696" lon="13.573015527508094"><ele>221.0</ele><time>2026-04-26T15:03:31.998Z</time></trkpt><trkpt lat="43.555933397807536" lon="13.572945955678613"><ele>221.0</ele><time>2026-04-26T15:03:32.998Z</time></trkpt><trkpt lat="43.55607117395769" lon="13.572866525147935"><ele>221.0</ele><time>2026-04-26T15:03:33.998Z</time></trkpt><trkpt lat="43.55620577957732" lon="13.572768411990689"><ele>221.0</ele><time>2026-04-26T15:03:34.998Z</time></trkpt><trkpt lat="43.55631912691584" lon="13.572627353293651"><ele>219.25</ele><time>2026-04-26T15:03:35.998Z</time></trkpt><trkpt lat="43.55640628153029" lon="13.572456868683235"><ele>217.5</ele><time>2026-04-26T15:03:36.998Z</time></trkpt><trkpt lat="43.556484524943954" lon="13.572280939102338"><ele>215.75</ele><time>2026-04-26T15:03:37.998Z</time></trkpt><trkpt lat="43.55655812981755" lon="13.572102777590482"><ele>214.0</ele><time>2026-04-26T15:03:38.998Z</time></trkpt><trkpt lat="43.556640129681384" lon="13.571933483048541"><ele>212.5</ele><time>2026-04-26T15:03:39.998Z</time></trkpt><trkpt lat="43.5567464310769" lon="13.571791342602584"><ele>211.0</ele><time>2026-04-26T15:03:40.998Z</time></trkpt><trkpt lat="43.556867200588435" lon="13.571695861482459"><ele>209.5</ele><time>2026-04-26T15:03:41.998Z</time></trkpt><trkpt lat="43.55699658208322" lon="13.571639738383078"><ele>208.0</ele><time>2026-04-26T15:03:42.998Z</time></trkpt><trkpt lat="43.557133860356934" lon="13.571617210065071"><ele>208.0</ele><time>2026-04-26T15:03:43.998Z</time></trkpt><trkpt lat="43.557278303940784" lon="13.571622365094582"><ele>208.0</ele><time>2026-04-26T15:03:44.998Z</time></trkpt><trkpt lat="43.55741737897094" lon="13.571669164671107"><ele>208.0</ele><time>2026-04-26T15:03:45.998Z</time></trkpt><trkpt lat="43.55754821991962" lon="13.571764560642318"><ele>208.0</ele><time>2026-04-26T15:03:46.998Z</time></trkpt><trkpt lat="43.557664023932446" lon="13.571892539448564"><ele>210.0</ele><time>2026-04-26T15:03:47.998Z</time></trkpt><trkpt lat="43.557758114593724" lon="13.572049835310207"><ele>212.0</ele><time>2026-04-26T15:03:48.998Z</time></trkpt><trkpt lat="43.55781859357445" lon="13.572232971822647"><ele>214.0</ele><time>2026-04-26T15:03:50Z</time></trkpt><trkpt lat="43.557855701990746" lon="13.572418866286377"><ele>216.0</ele><time>2026-04-26T15:03:51Z</time></trkpt><trkpt lat="43.55787882792901" lon="13.572601706083196"><ele>209.0</ele><time>2026-04-26T15:03:52Z</time></trkpt><trkpt lat="43.55790258408225" lon="13.572771594198478"><ele>202.0</ele><time>2026-04-26T15:03:53Z</time></trkpt><trkpt lat="43.5579217283459" lon="13.572932388979119"><ele>195.0</ele><time>2026-04-26T15:03:54Z</time></trkpt><trkpt lat="43.557939084314725" lon="13.573090514330854"><ele>188.0</ele><time>2026-04-26T15:03:55Z</time></trkpt><trkpt lat="43.557963048548025" lon="13.573333514912807"><ele>188.0</ele><time>2026-04-26T15:03:56Z</time></trkpt><trkpt lat="43.5579637636051" lon="13.573514490054139"><ele>188.0</ele><time>2026-04-26T15:03:57Z</time></trkpt><trkpt lat="43.55794814498531" lon="13.573703654726433"><ele>188.0</ele><time>2026-04-26T15:03:58Z</time></trkpt><trkpt lat="43.55792042081797" lon="13.573893281168626"><ele>188.0</ele><time>2026-04-26T15:03:59Z</time></trkpt><trkpt lat="43.5578844680328" lon="13.574081933643013"><ele>189.75</ele><time>2026-04-26T15:04:00Z</time></trkpt><trkpt lat="43.55783603271777" lon="13.574272530664658"><ele>191.5</ele><time>2026-04-26T15:04:01Z</time></trkpt><trkpt lat="43.55776026183571" lon="13.574447445282859"><ele>193.25</ele><time>2026-04-26T15:04:02Z</time></trkpt><trkpt lat="43.5577064598359" lon="13.574647010708599"><ele>195.0</ele><time>2026-04-26T15:04:03Z</time></trkpt><trkpt lat="43.55762941773849" lon="13.574832615551344"><ele>195.0</ele><time>2026-04-26T15:04:04Z</time></trkpt><trkpt lat="43.557552605701744" lon="13.575013349303903"><ele>195.0</ele><time>2026-04-26T15:04:05Z</time></trkpt><trkpt lat="43.55748884657162" lon="13.575197068988881"><ele>195.0</ele><time>2026-04-26T15:04:06Z</time></trkpt><trkpt lat="43.55742706054228" lon="13.575378792930916"><ele>195.0</ele><time>2026-04-26T15:04:07Z</time></trkpt><trkpt lat="43.557361075678905" lon="13.575559100369848"><ele>191.75</ele><time>2026-04-26T15:04:08Z</time></trkpt><trkpt lat="43.55729638175162" lon="13.575727569904016"><ele>188.5</ele><time>2026-04-26T15:04:09Z</time></trkpt><trkpt lat="43.557229770218385" lon="13.57589428907479"><ele>185.25</ele><time>2026-04-26T15:04:10Z</time></trkpt><trkpt lat="43.557161241829675" lon="13.576060320809525"><ele>182.0</ele><time>2026-04-26T15:04:11Z</time></trkpt><trkpt lat="43.55709726922843" lon="13.57622666050343"><ele>179.75</ele><time>2026-04-26T15:04:12Z</time></trkpt><trkpt lat="43.55704407779361" lon="13.57639975411193"><ele>177.5</ele><time>2026-04-26T15:04:13Z</time></trkpt><trkpt lat="43.557007355722746" lon="13.57658709767412"><ele>175.25</ele><time>2026-04-26T15:04:14Z</time></trkpt><trkpt lat="43.55697937730159" lon="13.576776811476938"><ele>173.0</ele><time>2026-04-26T15:04:15Z</time></trkpt><trkpt lat="43.55696496087943" lon="13.576968334341514"><ele>179.66666666666666</ele><time>2026-04-26T15:04:16Z</time></trkpt><trkpt lat="43.55695317136159" lon="13.577171016519113"><ele>186.33333333333331</ele><time>2026-04-26T15:04:17Z</time></trkpt><trkpt lat="43.55696354963283" lon="13.577388183744562"><ele>193.0</ele><time>2026-04-26T15:04:18Z</time></trkpt><trkpt lat="43.556978183203476" lon="13.577596242515137"><ele>193.0</ele><time>2026-04-26T15:04:19Z</time></trkpt><trkpt lat="43.557011797611416" lon="13.577801710986897"><ele>193.0</ele><time>2026-04-26T15:04:20Z</time></trkpt><trkpt lat="43.55706051143091" lon="13.578003696643567"><ele>193.0</ele><time>2026-04-26T15:04:21Z</time></trkpt><trkpt lat="43.55712530201317" lon="13.578207284479536"><ele>188.25</ele><time>2026-04-26T15:04:22Z</time></trkpt><trkpt lat="43.5571923497716" lon="13.578392428583102"><ele>183.5</ele><time>2026-04-26T15:04:23Z</time></trkpt><trkpt lat="43.55726325831561" lon="13.57855797704259"><ele>178.75</ele><time>2026-04-26T15:04:24Z</time></trkpt><trkpt lat="43.55733112024019" lon="13.578696413905488"><ele>174.0</ele><time>2026-04-26T15:04:25Z</time></trkpt><trkpt lat="43.557389679941025" lon="13.57880588979751"><ele>174.0</ele><time>2026-04-26T15:04:25.999Z</time></trkpt><trkpt lat="43.557424993326094" lon="13.578881448692693"><ele>174.0</ele><time>2026-04-26T15:04:26.999Z</time></trkpt><trkpt lat="43.55746473030625" lon="13.578981165847189"><ele>174.0</ele><time>2026-04-26T15:08:34.999Z</time></trkpt><trkpt lat="43.557535364106904" lon="13.579076835247097"><ele>174.0</ele><time>2026-04-26T15:08:36.999Z</time></trkpt><trkpt lat="43.55760268063292" lon="13.579191586505802"><ele>174.0</ele><time>2026-04-26T15:08:38.999Z</time></trkpt><trkpt lat="43.557561523184226" lon="13.579341532053837"><ele>174.0</ele><time>2026-04-26T15:08:39.999Z</time></trkpt><trkpt lat="43.55755994868746" lon="13.579439673402211"><ele>174.0</ele><time>2026-04-26T15:08:40.999Z</time></trkpt><trkpt lat="43.55758225959626" lon="13.579529027930663"><ele>174.0</ele><time>2026-04-26T15:08:41.999Z</time></trkpt><trkpt lat="43.557636798053345" lon="13.57959803318048"><ele>174.0</ele><time>2026-04-26T15:08:42.999Z</time></trkpt><trkpt lat="43.557712369634814" lon="13.579625982691745"><ele>174.0</ele><time>2026-04-26T15:08:43.999Z</time></trkpt><trkpt lat="43.55779737674545" lon="13.579627473911458"><ele>174.0</ele><time>2026-04-26T15:08:44.999Z</time></trkpt><trkpt lat="43.55787620946078" lon="13.57964286268895"><ele>173.66666666666666</ele><time>2026-04-26T15:08:45.999Z</time></trkpt><trkpt lat="43.557949005042936" lon="13.579686341936508"><ele>173.33333333333334</ele><time>2026-04-26T15:08:46.999Z</time></trkpt><trkpt lat="43.55801237173648" lon="13.579766437102133"><ele>173.0</ele><time>2026-04-26T15:08:47.999Z</time></trkpt><trkpt lat="43.55804356026428" lon="13.579874685638206"><ele>172.66666666666669</ele><time>2026-04-26T15:08:48.999Z</time></trkpt><trkpt lat="43.55805624918592" lon="13.579990504921764"><ele>172.33333333333334</ele><time>2026-04-26T15:08:49.999Z</time></trkpt><trkpt lat="43.55804498674382" lon="13.580103500944283"><ele>172.0</ele><time>2026-04-26T15:08:50.999Z</time></trkpt><trkpt lat="43.55799427532067" lon="13.580204706881249"><ele>172.0</ele><time>2026-04-26T15:08:51.999Z</time></trkpt><trkpt lat="43.55792949215463" lon="13.580300183974975"><ele>172.0</ele><time>2026-04-26T15:08:52.999Z</time></trkpt><trkpt lat="43.55785849781191" lon="13.580393336056032"><ele>172.0</ele><time>2026-04-26T15:08:53.999Z</time></trkpt><trkpt lat="43.55777613841069" lon="13.580467111343753"><ele>172.0</ele><time>2026-04-26T15:08:54.999Z</time></trkpt><trkpt lat="43.557697145809435" lon="13.580505049227456"><ele>172.0</ele><time>2026-04-26T15:08:55.999Z</time></trkpt><trkpt lat="43.55762526315045" lon="13.580504878109593"><ele>172.0</ele><time>2026-04-26T15:08:56.999Z</time></trkpt><trkpt lat="43.557567177251485" lon="13.580459246353143"><ele>173.83333333333334</ele><time>2026-04-26T15:08:57.999Z</time></trkpt><trkpt lat="43.55751376388394" lon="13.580378423929075"><ele>175.66666666666669</ele><time>2026-04-26T15:08:58.999Z</time></trkpt><trkpt lat="43.55746455991374" lon="13.580282606468346"><ele>177.5</ele><time>2026-04-26T15:08:59.999Z</time></trkpt><trkpt lat="43.55741833893395" lon="13.580194201041598"><ele>179.33333333333334</ele><time>2026-04-26T15:09:00.999Z</time></trkpt><trkpt lat="43.55735224083983" lon="13.580132588730377"><ele>181.16666666666666</ele><time>2026-04-26T15:09:01.999Z</time></trkpt><trkpt lat="43.55726528331408" lon="13.580112316795496"><ele>183.0</ele><time>2026-04-26T15:09:02.999Z</time></trkpt><trkpt lat="43.55717255768633" lon="13.580106492741931"><ele>183.0</ele><time>2026-04-26T15:09:03.999Z</time></trkpt><trkpt lat="43.55707041736287" lon="13.580105061692468"><ele>183.0</ele><time>2026-04-26T15:09:04.999Z</time></trkpt><trkpt lat="43.556957385474796" lon="13.580108256949922"><ele>183.0</ele><time>2026-04-26T15:09:05.999Z</time></trkpt><trkpt lat="43.55683895098154" lon="13.580108973384819"><ele>183.0</ele><time>2026-04-26T15:09:06.998Z</time></trkpt><trkpt lat="43.55672006329344" lon="13.580074103793818"><ele>184.4</ele><time>2026-04-26T15:09:07.998Z</time></trkpt><trkpt lat="43.55660750638944" lon="13.580051914068585"><ele>185.8</ele><time>2026-04-26T15:09:08.998Z</time></trkpt><trkpt lat="43.55653024108892" lon="13.579950764242007"><ele>187.2</ele><time>2026-04-26T15:09:09.998Z</time></trkpt><trkpt lat="43.55648955357614" lon="13.579829985887354"><ele>188.6</ele><time>2026-04-26T15:09:10.998Z</time></trkpt><trkpt lat="43.55648164552121" lon="13.579695822062973"><ele>190.0</ele><time>2026-04-26T15:09:11.998Z</time></trkpt><trkpt lat="43.55646380532738" lon="13.57956506681808"><ele>190.0</ele><time>2026-04-26T15:09:12.998Z</time></trkpt><trkpt lat="43.55641981875569" lon="13.57946771093269"><ele>190.0</ele><time>2026-04-26T15:09:13.998Z</time></trkpt><trkpt lat="43.556361789039336" lon="13.57943053146155"><ele>190.0</ele><time>2026-04-26T15:09:14.998Z</time></trkpt><trkpt lat="43.55624296442301" lon="13.579498599117152"><ele>190.0</ele><time>2026-04-26T15:09:16.998Z</time></trkpt><trkpt lat="43.55621475874575" lon="13.579613510702744"><ele>190.0</ele><time>2026-04-26T15:09:17.998Z</time></trkpt><trkpt lat="43.55619491200998" lon="13.579740844167766"><ele>193.2</ele><time>2026-04-26T15:09:18.998Z</time></trkpt><trkpt lat="43.55617285706169" lon="13.579864133631487"><ele>196.4</ele><time>2026-04-26T15:09:19.998Z</time></trkpt><trkpt lat="43.55614342906448" lon="13.579998602516744"><ele>199.60000000000002</ele><time>2026-04-26T15:09:20.998Z</time></trkpt><trkpt lat="43.55610896538628" lon="13.580137773304303"><ele>202.8</ele><time>2026-04-26T15:09:21.998Z</time></trkpt><trkpt lat="43.55606553635402" lon="13.580248169882221"><ele>206.0</ele><time>2026-04-26T15:09:22.998Z</time></trkpt><trkpt lat="43.55601369586814" lon="13.580313538428147"><ele>206.00000000000003</ele><time>2026-04-26T15:09:23.998Z</time></trkpt><trkpt lat="43.5559138429864" lon="13.580268506950317"><ele>206.0</ele><time>2026-04-26T15:09:25.998Z</time></trkpt><trkpt lat="43.555897475251" lon="13.580184563408237"><ele>206.0</ele><time>2026-04-26T15:09:26.998Z</time></trkpt><trkpt lat="43.55590634591473" lon="13.580071807419738"><ele>206.0</ele><time>2026-04-26T15:09:27.998Z</time></trkpt><trkpt lat="43.555912067266455" lon="13.579941190015203"><ele>206.00000000000003</ele><time>2026-04-26T15:09:28.998Z</time></trkpt><trkpt lat="43.55591645379017" lon="13.57981314774636"><ele>206.0</ele><time>2026-04-26T15:09:29.998Z</time></trkpt><trkpt lat="43.55592265994738" lon="13.579671615151488"><ele>206.0</ele><time>2026-04-26T15:09:30.998Z</time></trkpt><trkpt lat="43.55592871842649" lon="13.579522332672612"><ele>206.0</ele><time>2026-04-26T15:09:31.998Z</time></trkpt><trkpt lat="43.55593607128323" lon="13.579365990920895"><ele>206.0</ele><time>2026-04-26T15:09:32.998Z</time></trkpt><trkpt lat="43.55595172577078" lon="13.579226284119093"><ele>206.0</ele><time>2026-04-26T15:09:33.998Z</time></trkpt><trkpt lat="43.5559689629554" lon="13.579106155433633"><ele>206.0</ele><time>2026-04-26T15:09:34.998Z</time></trkpt><trkpt lat="43.55597099887494" lon="13.578997827417156"><ele>206.66666666666669</ele><time>2026-04-26T15:09:35.998Z</time></trkpt><trkpt lat="43.555936061284264" lon="13.578908966857282"><ele>207.33333333333334</ele><time>2026-04-26T15:09:36.998Z</time></trkpt><trkpt lat="43.55586706465845" lon="13.578864397556572"><ele>208.0</ele><time>2026-04-26T15:09:37.998Z</time></trkpt><trkpt lat="43.55578179297599" lon="13.578882569407599"><ele>208.66666666666669</ele><time>2026-04-26T15:09:38.998Z</time></trkpt><trkpt lat="43.555701447320736" lon="13.578957278330515"><ele>209.33333333333334</ele><time>2026-04-26T15:09:39.998Z</time></trkpt><trkpt lat="43.55562461729722" lon="13.579074588541312"><ele>210.0</ele><time>2026-04-26T15:09:40.998Z</time></trkpt><trkpt lat="43.55555722161051" lon="13.579230540340557"><ele>210.0</ele><time>2026-04-26T15:09:41.998Z</time></trkpt><trkpt lat="43.555494074773364" lon="13.579422295649488"><ele>210.0</ele><time>2026-04-26T15:09:42.998Z</time></trkpt><trkpt lat="43.555435617428415" lon="13.57962066812332"><ele>210.0</ele><time>2026-04-26T15:09:43.998Z</time></trkpt><trkpt lat="43.55536932906011" lon="13.579807236584191"><ele>217.0</ele><time>2026-04-26T15:09:44.998Z</time></trkpt><trkpt lat="43.555284381397634" lon="13.579985259431062"><ele>224.0</ele><time>2026-04-26T15:09:45.998Z</time></trkpt><trkpt lat="43.55518526159757" lon="13.58015205784218"><ele>231.0</ele><time>2026-04-26T15:09:46.998Z</time></trkpt><trkpt lat="43.55507515138011" lon="13.580314638054698"><ele>229.0</ele><time>2026-04-26T15:09:47.998Z</time></trkpt><trkpt lat="43.55495808454358" lon="13.580476279166586"><ele>227.0</ele><time>2026-04-26T15:09:48.998Z</time></trkpt><trkpt lat="43.55482710127684" lon="13.580626345210758"><ele>225.0</ele><time>2026-04-26T15:09:49.998Z</time></trkpt><trkpt lat="43.554690973132296" lon="13.580757524958237"><ele>225.0</ele><time>2026-04-26T15:09:50.998Z</time></trkpt><trkpt lat="43.5545645938698" lon="13.580855948727432"><ele>225.0</ele><time>2026-04-26T15:09:51.998Z</time></trkpt><trkpt lat="43.554448175410215" lon="13.580938632645605"><ele>225.0</ele><time>2026-04-26T15:09:52.998Z</time></trkpt><trkpt lat="43.55434869413541" lon="13.581018666779373"><ele>225.0</ele><time>2026-04-26T15:09:53.998Z</time></trkpt><trkpt lat="43.554271774911" lon="13.581112295593302"><ele>226.83333333333334</ele><time>2026-04-26T15:09:54.998Z</time></trkpt><trkpt lat="43.55421243421371" lon="13.581210901984399"><ele>228.66666666666669</ele><time>2026-04-26T15:09:55.998Z</time></trkpt><trkpt lat="43.554191840306686" lon="13.581316815720403"><ele>230.5</ele><time>2026-04-26T15:09:56.998Z</time></trkpt><trkpt lat="43.554199384855856" lon="13.581426067352089"><ele>232.33333333333334</ele><time>2026-04-26T15:09:57.997Z</time></trkpt><trkpt lat="43.5542286617024" lon="13.581542025001001"><ele>234.16666666666669</ele><time>2026-04-26T15:09:58.997Z</time></trkpt><trkpt lat="43.55428435466014" lon="13.581644404853662"><ele>236.0</ele><time>2026-04-26T15:09:59.997Z</time></trkpt><trkpt lat="43.554342053005605" lon="13.581717671093386"><ele>236.0</ele><time>2026-04-26T15:10:00.997Z</time></trkpt><trkpt lat="43.55438967300482" lon="13.581774980411126"><ele>236.00000000000003</ele><time>2026-04-26T15:10:01.997Z</time></trkpt><trkpt lat="43.554438618784076" lon="13.581937544657048"><ele>236.00000000000003</ele><time>2026-04-26T15:10:03.997Z</time></trkpt><trkpt lat="43.55443953271439" lon="13.582054886879293"><ele>236.0</ele><time>2026-04-26T15:10:04.997Z</time></trkpt><trkpt lat="43.554412104682335" lon="13.582174974197956"><ele>236.0</ele><time>2026-04-26T15:10:05.997Z</time></trkpt><trkpt lat="43.554349714565035" lon="13.582270232497928"><ele>236.60000000000002</ele><time>2026-04-26T15:10:06.997Z</time></trkpt><trkpt lat="43.55426708098573" lon="13.582360661664959"><ele>237.20000000000002</ele><time>2026-04-26T15:10:07.999Z</time></trkpt><trkpt lat="43.55416918974845" lon="13.582438291539349"><ele>237.79999999999998</ele><time>2026-04-26T15:10:08.999Z</time></trkpt><trkpt lat="43.55406556239317" lon="13.582501974595875"><ele>238.39999999999998</ele><time>2026-04-26T15:10:09.999Z</time></trkpt><trkpt lat="43.55397584038911" lon="13.582575080474598"><ele>239.0</ele><time>2026-04-26T15:10:10.999Z</time></trkpt><trkpt lat="43.55389728649258" lon="13.582654953837105"><ele>239.0</ele><time>2026-04-26T15:10:11.999Z</time></trkpt><trkpt lat="43.553796084931" lon="13.582730153013136"><ele>239.0</ele><time>2026-04-26T15:10:12.999Z</time></trkpt><trkpt lat="43.553668659018065" lon="13.58280723142161"><ele>239.0</ele><time>2026-04-26T15:10:13.999Z</time></trkpt><trkpt lat="43.553533415930595" lon="13.58289756828647"><ele>239.0</ele><time>2026-04-26T15:10:14.999Z</time></trkpt><trkpt lat="43.55338446284064" lon="13.583013260934335"><ele>240.0</ele><time>2026-04-26T15:10:15.999Z</time></trkpt><trkpt lat="43.553248623696916" lon="13.583125513473663"><ele>241.0</ele><time>2026-04-26T15:10:16.999Z</time></trkpt><trkpt lat="43.553133792587445" lon="13.583232197800772"><ele>242.0</ele><time>2026-04-26T15:10:17.999Z</time></trkpt><trkpt lat="43.55303965505198" lon="13.583332122701865"><ele>243.0</ele><time>2026-04-26T15:10:18.999Z</time></trkpt><trkpt lat="43.55296893663636" lon="13.583417519540387"><ele>243.0</ele><time>2026-04-26T15:10:19.999Z</time></trkpt><trkpt lat="43.55292247344322" lon="13.583479957987521"><ele>243.0</ele><time>2026-04-26T15:10:20.999Z</time></trkpt><trkpt lat="43.55286746037887" lon="13.583547966747162"><ele>243.0</ele><time>2026-04-26T15:10:23.999Z</time></trkpt><trkpt lat="43.55279791801983" lon="13.583513882958368"><ele>243.0</ele><time>2026-04-26T15:10:25.999Z</time></trkpt><trkpt lat="43.552808492346344" lon="13.58387159308669"><ele>240.25</ele><time>2026-04-26T15:10:26.999Z</time></trkpt><trkpt lat="43.55279436884224" lon="13.584031649875639"><ele>237.5</ele><time>2026-04-26T15:10:27.999Z</time></trkpt><trkpt lat="43.5527657682408" lon="13.58422163168134"><ele>234.75</ele><time>2026-04-26T15:10:28.999Z</time></trkpt><trkpt lat="43.55272121431122" lon="13.584455498402509"><ele>232.0</ele><time>2026-04-26T15:10:29.999Z</time></trkpt><trkpt lat="43.55266553340983" lon="13.5846968806775"><ele>232.0</ele><time>2026-04-26T15:10:30.999Z</time></trkpt><trkpt lat="43.55260070330132" lon="13.584934761807617"><ele>232.0</ele><time>2026-04-26T15:10:31.999Z</time></trkpt><trkpt lat="43.55253748295143" lon="13.585162001516288"><ele>232.0</ele><time>2026-04-26T15:10:32.999Z</time></trkpt><trkpt lat="43.552460701322566" lon="13.58536308932591"><ele>233.33333333333331</ele><time>2026-04-26T15:10:33.999Z</time></trkpt><trkpt lat="43.552355027519084" lon="13.585524839858898"><ele>234.66666666666669</ele><time>2026-04-26T15:10:34.999Z</time></trkpt><trkpt lat="43.552222961760755" lon="13.585660973910086"><ele>236.0</ele><time>2026-04-26T15:10:35.999Z</time></trkpt><trkpt lat="43.55207017601756" lon="13.585775528560092"><ele>232.66666666666669</ele><time>2026-04-26T15:10:36.999Z</time></trkpt><trkpt lat="43.551905207232636" lon="13.585876116133157"><ele>229.33333333333331</ele><time>2026-04-26T15:10:37.999Z</time></trkpt><trkpt lat="43.551732634684946" lon="13.585983634987867"><ele>226.0</ele><time>2026-04-26T15:10:38.999Z</time></trkpt><trkpt lat="43.551568392875595" lon="13.58609043587904"><ele>227.66666666666666</ele><time>2026-04-26T15:10:39.999Z</time></trkpt><trkpt lat="43.55141542281979" lon="13.586191670146617"><ele>229.33333333333331</ele><time>2026-04-26T15:10:40.999Z</time></trkpt><trkpt lat="43.55127254959536" lon="13.586287924744882"><ele>231.0</ele><time>2026-04-26T15:10:41.999Z</time></trkpt><trkpt lat="43.551141453008704" lon="13.586396367237219"><ele>231.0</ele><time>2026-04-26T15:10:42.999Z</time></trkpt><trkpt lat="43.5510216001985" lon="13.586536548008693"><ele>231.0</ele><time>2026-04-26T15:10:43.999Z</time></trkpt><trkpt lat="43.55091477622896" lon="13.58670791907233"><ele>231.0</ele><time>2026-04-26T15:10:44.999Z</time></trkpt><trkpt lat="43.55083602709724" lon="13.58687924875059"><ele>235.5</ele><time>2026-04-26T15:10:45.999Z</time></trkpt><trkpt lat="43.55077459099269" lon="13.587046235949789"><ele>240.0</ele><time>2026-04-26T15:10:46.999Z</time></trkpt><trkpt lat="43.55070039841931" lon="13.587181485467356"><ele>244.5</ele><time>2026-04-26T15:10:47.999Z</time></trkpt><trkpt lat="43.55060277320328" lon="13.587268767941968"><ele>249.0</ele><time>2026-04-26T15:10:48.999Z</time></trkpt><trkpt lat="43.55049221453216" lon="13.587298588472619"><ele>249.0</ele><time>2026-04-26T15:10:49.999Z</time></trkpt><trkpt lat="43.55038130841855" lon="13.587270954459765"><ele>249.0</ele><time>2026-04-26T15:10:50.999Z</time></trkpt><trkpt lat="43.55027928892836" lon="13.587187711309449"><ele>249.0</ele><time>2026-04-26T15:10:51.999Z</time></trkpt><trkpt lat="43.55018218220831" lon="13.58707331897495"><ele>249.0</ele><time>2026-04-26T15:10:52.999Z</time></trkpt><trkpt lat="43.55007892965849" lon="13.586963701810603"><ele>244.66666666666669</ele><time>2026-04-26T15:10:53.999Z</time></trkpt><trkpt lat="43.54995360127554" lon="13.586871760299136"><ele>240.33333333333334</ele><time>2026-04-26T15:10:54.999Z</time></trkpt><trkpt lat="43.5498065439971" lon="13.586808021181573"><ele>236.0</ele><time>2026-04-26T15:10:55.999Z</time></trkpt><trkpt lat="43.54964496035953" lon="13.586762207224753"><ele>236.66666666666669</ele><time>2026-04-26T15:10:56.999Z</time></trkpt><trkpt lat="43.549480395902506" lon="13.586727253994304"><ele>237.33333333333331</ele><time>2026-04-26T15:10:57.999Z</time></trkpt><trkpt lat="43.54933066656596" lon="13.586703173206581"><ele>238.0</ele><time>2026-04-26T15:10:58.999Z</time></trkpt><trkpt lat="43.54918838486229" lon="13.586704141629589"><ele>238.0</ele><time>2026-04-26T15:10:59.999Z</time></trkpt><trkpt lat="43.54905020740949" lon="13.586741091296512"><ele>238.0</ele><time>2026-04-26T15:11:00.999Z</time></trkpt><trkpt lat="43.548914928158155" lon="13.586812939778525"><ele>238.0</ele><time>2026-04-26T15:11:01.999Z</time></trkpt><trkpt lat="43.5487838138212" lon="13.586906206005368"><ele>238.0</ele><time>2026-04-26T15:11:02.998Z</time></trkpt><trkpt lat="43.54864017836863" lon="13.586971738950032"><ele>236.33333333333331</ele><time>2026-04-26T15:11:03.998Z</time></trkpt><trkpt lat="43.54848224833481" lon="13.586996937137412"><ele>234.66666666666669</ele><time>2026-04-26T15:11:04.998Z</time></trkpt><trkpt lat="43.54832019641301" lon="13.586979020775138"><ele>233.0</ele><time>2026-04-26T15:11:05.998Z</time></trkpt><trkpt lat="43.54816318865298" lon="13.586915291641729"><ele>233.0</ele><time>2026-04-26T15:11:06.998Z</time></trkpt><trkpt lat="43.54801809828611" lon="13.586835099128209"><ele>233.0</ele><time>2026-04-26T15:11:07.998Z</time></trkpt><trkpt lat="43.54787379446382" lon="13.586789322701199"><ele>233.0</ele><time>2026-04-26T15:11:08.998Z</time></trkpt><trkpt lat="43.547712909064515" lon="13.586789989269953"><ele>233.33333333333334</ele><time>2026-04-26T15:11:09.998Z</time></trkpt><trkpt lat="43.54755163714867" lon="13.58681558279246"><ele>233.66666666666669</ele><time>2026-04-26T15:11:10.998Z</time></trkpt><trkpt lat="43.54739524888759" lon="13.586870643815162"><ele>234.0</ele><time>2026-04-26T15:11:11.998Z</time></trkpt><trkpt lat="43.54725588615601" lon="13.586980852836101"><ele>236.66666666666669</ele><time>2026-04-26T15:11:12.998Z</time></trkpt><trkpt lat="43.547119856746505" lon="13.58711001994121"><ele>239.33333333333334</ele><time>2026-04-26T15:11:13.998Z</time></trkpt><trkpt lat="43.54696850911977" lon="13.58721304712264"><ele>242.0</ele><time>2026-04-26T15:11:14.998Z</time></trkpt><trkpt lat="43.546807185943884" lon="13.58730198993894"><ele>242.0</ele><time>2026-04-26T15:11:15.998Z</time></trkpt><trkpt lat="43.546650383926355" lon="13.58740572090231"><ele>242.0</ele><time>2026-04-26T15:11:16.998Z</time></trkpt><trkpt lat="43.54649446919533" lon="13.587523499185739"><ele>242.0</ele><time>2026-04-26T15:11:17.998Z</time></trkpt><trkpt lat="43.546338286596495" lon="13.587637726236144"><ele>244.0</ele><time>2026-04-26T15:11:18.998Z</time></trkpt><trkpt lat="43.54618458091349" lon="13.587730861965749"><ele>246.0</ele><time>2026-04-26T15:11:19.998Z</time></trkpt><trkpt lat="43.54603676311774" lon="13.587789952198957"><ele>248.0</ele><time>2026-04-26T15:11:20.998Z</time></trkpt><trkpt lat="43.54590194246611" lon="13.587854859469536"><ele>248.0</ele><time>2026-04-26T15:11:21.998Z</time></trkpt><trkpt lat="43.54578515517888" lon="13.587971410968168"><ele>248.0</ele><time>2026-04-26T15:11:22.998Z</time></trkpt><trkpt lat="43.54569039184475" lon="13.588137464250575"><ele>248.0</ele><time>2026-04-26T15:11:23.998Z</time></trkpt><trkpt lat="43.54558686347357" lon="13.588301399170108"><ele>248.0</ele><time>2026-04-26T15:11:24.998Z</time></trkpt><trkpt lat="43.54545609963998" lon="13.588404568645405"><ele>248.0</ele><time>2026-04-26T15:11:25.998Z</time></trkpt><trkpt lat="43.54531484465658" lon="13.588468618114215"><ele>248.0</ele><time>2026-04-26T15:11:26.998Z</time></trkpt><trkpt lat="43.54519469236515" lon="13.58855880744722"><ele>248.0</ele><time>2026-04-26T15:11:27.998Z</time></trkpt><trkpt lat="43.545120915747596" lon="13.588711515565883"><ele>244.66666666666669</ele><time>2026-04-26T15:11:28.998Z</time></trkpt><trkpt lat="43.545068609307435" lon="13.588908006487893"><ele>241.33333333333331</ele><time>2026-04-26T15:11:29.998Z</time></trkpt><trkpt lat="43.54501703394118" lon="13.589112027553945"><ele>238.0</ele><time>2026-04-26T15:11:30.998Z</time></trkpt><trkpt lat="43.544944621453425" lon="13.589312843379757"><ele>238.0</ele><time>2026-04-26T15:11:31.998Z</time></trkpt><trkpt lat="43.54484836304817" lon="13.58949036251152"><ele>238.0</ele><time>2026-04-26T15:11:32.998Z</time></trkpt><trkpt lat="43.54475535992667" lon="13.589642127541245"><ele>238.0</ele><time>2026-04-26T15:11:33.998Z</time></trkpt><trkpt lat="43.54466257743802" lon="13.589778048959996"><ele>238.0</ele><time>2026-04-26T15:11:34.999Z</time></trkpt><trkpt lat="43.54455567407199" lon="13.58987223733648"><ele>239.25</ele><time>2026-04-26T15:11:35.999Z</time></trkpt><trkpt lat="43.544430462130826" lon="13.58992324193436"><ele>240.5</ele><time>2026-04-26T15:11:36.999Z</time></trkpt><trkpt lat="43.54428256738668" lon="13.589917311775011"><ele>241.75</ele><time>2026-04-26T15:11:37.999Z</time></trkpt><trkpt lat="43.5441292247328" lon="13.58987313190511"><ele>243.0</ele><time>2026-04-26T15:11:38.999Z</time></trkpt><trkpt lat="43.54397154980736" lon="13.589818270156995"><ele>243.0</ele><time>2026-04-26T15:11:39.999Z</time></trkpt><trkpt lat="43.54380300389161" lon="13.589781029865001"><ele>243.0</ele><time>2026-04-26T15:11:40.999Z</time></trkpt><trkpt lat="43.543639341697514" lon="13.589766819734514"><ele>243.0</ele><time>2026-04-26T15:11:41.999Z</time></trkpt><trkpt lat="43.543485111661134" lon="13.589772236230333"><ele>242.0</ele><time>2026-04-26T15:11:42.999Z</time></trkpt><trkpt lat="43.543342662018425" lon="13.589813053634698"><ele>241.0</ele><time>2026-04-26T15:11:43.999Z</time></trkpt><trkpt lat="43.54321856866005" lon="13.58990736224815"><ele>240.0</ele><time>2026-04-26T15:11:44.999Z</time></trkpt><trkpt lat="43.5431246734785" lon="13.590034141426782"><ele>239.0</ele><time>2026-04-26T15:11:45.999Z</time></trkpt><trkpt lat="43.54304961541089" lon="13.590169840038184"><ele>239.0</ele><time>2026-04-26T15:11:46.999Z</time></trkpt><trkpt lat="43.54295981081977" lon="13.590269651720892"><ele>239.0</ele><time>2026-04-26T15:11:47.999Z</time></trkpt><trkpt lat="43.5428459456716" lon="13.590293574469333"><ele>239.0</ele><time>2026-04-26T15:11:48.999Z</time></trkpt><trkpt lat="43.54273469056072" lon="13.590235314879619"><ele>239.0</ele><time>2026-04-26T15:11:49.999Z</time></trkpt><trkpt lat="43.54264170502843" lon="13.590162331441832"><ele>236.6</ele><time>2026-04-26T15:11:50.999Z</time></trkpt><trkpt lat="43.542545772721795" lon="13.590112926791765"><ele>234.2</ele><time>2026-04-26T15:11:51.999Z</time></trkpt><trkpt lat="43.542442210805845" lon="13.59009535505668"><ele>231.79999999999998</ele><time>2026-04-26T15:11:52.999Z</time></trkpt><trkpt lat="43.54233937833681" lon="13.590119411218268"><ele>229.39999999999998</ele><time>2026-04-26T15:11:53.999Z</time></trkpt><trkpt lat="43.54224581981215" lon="13.59018004334175"><ele>227.0</ele><time>2026-04-26T15:11:54.999Z</time></trkpt><trkpt lat="43.542163884181726" lon="13.590268236912143"><ele>227.16666666666669</ele><time>2026-04-26T15:11:55.999Z</time></trkpt><trkpt lat="43.54209963577233" lon="13.590379250275381"><ele>227.33333333333334</ele><time>2026-04-26T15:11:56.999Z</time></trkpt><trkpt lat="43.542050734845894" lon="13.590496638295976"><ele>227.5</ele><time>2026-04-26T15:11:57.999Z</time></trkpt><trkpt lat="43.541994797577814" lon="13.59058491260618"><ele>227.66666666666669</ele><time>2026-04-26T15:11:58.999Z</time></trkpt><trkpt lat="43.541922020152114" lon="13.590630321800475"><ele>227.83333333333334</ele><time>2026-04-26T15:11:59.999Z</time></trkpt><trkpt lat="43.541840674679335" lon="13.590646041332251"><ele>228.0</ele><time>2026-04-26T15:12:00.999Z</time></trkpt><trkpt lat="43.54175583201175" lon="13.590662754457469"><ele>228.0</ele><time>2026-04-26T15:12:01.999Z</time></trkpt><trkpt lat="43.54166279925166" lon="13.59069388479827"><ele>228.0</ele><time>2026-04-26T15:12:02.999Z</time></trkpt><trkpt lat="43.54156461415664" lon="13.590725064846543"><ele>228.0</ele><time>2026-04-26T15:12:03.998Z</time></trkpt><trkpt lat="43.54146603581804" lon="13.590750121703593"><ele>228.0</ele><time>2026-04-26T15:12:04.998Z</time></trkpt><trkpt lat="43.54136746466908" lon="13.59078045096054"><ele>228.0</ele><time>2026-04-26T15:12:05.998Z</time></trkpt><trkpt lat="43.54126613561443" lon="13.590815258790997"><ele>228.2</ele><time>2026-04-26T15:12:06.998Z</time></trkpt><trkpt lat="43.541159202151555" lon="13.590848043989105"><ele>228.4</ele><time>2026-04-26T15:12:07.998Z</time></trkpt><trkpt lat="43.5410524527674" lon="13.590880906201342"><ele>228.59999999999997</ele><time>2026-04-26T15:12:08.998Z</time></trkpt><trkpt lat="43.540942886171614" lon="13.590915856420365"><ele>228.79999999999998</ele><time>2026-04-26T15:12:09.998Z</time></trkpt><trkpt lat="43.540834473615234" lon="13.590952504046301"><ele>229.0</ele><time>2026-04-26T15:12:10.998Z</time></trkpt><trkpt lat="43.540729319124495" lon="13.590982601558391"><ele>229.0</ele><time>2026-04-26T15:12:11.998Z</time></trkpt><trkpt lat="43.54063614972206" lon="13.591008311813601"><ele>228.99999999999997</ele><time>2026-04-26T15:12:12.998Z</time></trkpt><trkpt lat="43.54054896651504" lon="13.591004651902034"><ele>228.99999999999997</ele><time>2026-04-26T15:12:14Z</time></trkpt><trkpt lat="43.54046428949067" lon="13.590946463942192"><ele>229.0</ele><time>2026-04-26T15:12:15Z</time></trkpt><trkpt lat="43.54039298148164" lon="13.590842195010081"><ele>229.0</ele><time>2026-04-26T15:12:16Z</time></trkpt><trkpt lat="43.54033982154119" lon="13.590706149921514"><ele>228.75</ele><time>2026-04-26T15:12:17Z</time></trkpt><trkpt lat="43.540307445386574" lon="13.590554504379998"><ele>228.5</ele><time>2026-04-26T15:12:18Z</time></trkpt><trkpt lat="43.54030168292891" lon="13.590393319544699"><ele>228.25</ele><time>2026-04-26T15:12:19Z</time></trkpt><trkpt lat="43.54032561450468" lon="13.590230935342948"><ele>228.0</ele><time>2026-04-26T15:12:20Z</time></trkpt><trkpt lat="43.54034990392233" lon="13.590075486476508"><ele>228.0</ele><time>2026-04-26T15:12:21Z</time></trkpt><trkpt lat="43.54034641312475" lon="13.589933468183744"><ele>228.0</ele><time>2026-04-26T15:12:22Z</time></trkpt><trkpt lat="43.54031071977735" lon="13.589809529911248"><ele>228.0</ele><time>2026-04-26T15:12:23Z</time></trkpt><trkpt lat="43.54024131039765" lon="13.589720366553623"><ele>228.0</ele><time>2026-04-26T15:12:24Z</time></trkpt><trkpt lat="43.540143520871155" lon="13.589664549249258"><ele>228.0</ele><time>2026-04-26T15:12:25Z</time></trkpt><trkpt lat="43.540031831532325" lon="13.589644663486279"><ele>228.0</ele><time>2026-04-26T15:12:26Z</time></trkpt><trkpt lat="43.539915496103426" lon="13.589638112734708"><ele>228.0</ele><time>2026-04-26T15:12:27Z</time></trkpt><trkpt lat="43.53978805864309" lon="13.589635169815447"><ele>228.0</ele><time>2026-04-26T15:12:28Z</time></trkpt><trkpt lat="43.53965702276572" lon="13.589640597503031"><ele>228.0</ele><time>2026-04-26T15:12:29Z</time></trkpt><trkpt lat="43.539522954300566" lon="13.589655816519214"><ele>228.5</ele><time>2026-04-26T15:12:30Z</time></trkpt><trkpt lat="43.53938532404618" lon="13.589676223228022"><ele>229.0</ele><time>2026-04-26T15:12:31Z</time></trkpt><trkpt lat="43.53925101929252" lon="13.589698410360675"><ele>229.5</ele><time>2026-04-26T15:12:32Z</time></trkpt><trkpt lat="43.53912127756574" lon="13.589723694747551"><ele>230.0</ele><time>2026-04-26T15:12:33Z</time></trkpt><trkpt lat="43.53900030828587" lon="13.589748291284872"><ele>230.0</ele><time>2026-04-26T15:12:34Z</time></trkpt><trkpt lat="43.53888327202984" lon="13.589768788575897"><ele>230.0</ele><time>2026-04-26T15:12:35Z</time></trkpt><trkpt lat="43.538772866891264" lon="13.589780291790948"><ele>230.0</ele><time>2026-04-26T15:12:36Z</time></trkpt><trkpt lat="43.53866770569087" lon="13.589778387104115"><ele>230.0</ele><time>2026-04-26T15:12:37Z</time></trkpt><trkpt lat="43.53856963994718" lon="13.589772868474823"><ele>230.0</ele><time>2026-04-26T15:12:38Z</time></trkpt><trkpt lat="43.53848229548022" lon="13.58977172256267"><ele>230.50000000000003</ele><time>2026-04-26T15:12:39Z</time></trkpt><trkpt lat="43.538403353063316" lon="13.589762405149322"><ele>231.0</ele><time>2026-04-26T15:12:40Z</time></trkpt><trkpt lat="43.538337058436525" lon="13.589754386451144"><ele>231.5</ele><time>2026-04-26T15:12:41Z</time></trkpt><trkpt lat="43.53824783951819" lon="13.589731829372647"><ele>232.0</ele><time>2026-04-26T15:12:43Z</time></trkpt><trkpt lat="43.53824143100888" lon="13.589624384418233"><ele>232.50000000000003</ele><time>2026-04-26T15:12:46Z</time></trkpt><trkpt lat="43.5382134971015" lon="13.589535897805256"><ele>233.0</ele><time>2026-04-26T15:12:50Z</time></trkpt><trkpt lat="43.538190644025086" lon="13.589440819714063"><ele>232.00000000000003</ele><time>2026-04-26T15:13:06Z</time></trkpt><trkpt lat="43.53815825538953" lon="13.589287485390187"><ele>231.0</ele><time>2026-04-26T15:13:08Z</time></trkpt><trkpt lat="43.53813006702996" lon="13.589199914537366"><ele>230.0</ele><time>2026-04-26T15:13:09Z</time></trkpt><trkpt lat="43.53809515092077" lon="13.58910461336862"><ele>229.0</ele><time>2026-04-26T15:13:10Z</time></trkpt><trkpt lat="43.53805064047622" lon="13.58901915793632"><ele>228.00000000000003</ele><time>2026-04-26T15:13:11Z</time></trkpt><trkpt lat="43.53802190128086" lon="13.588922968348486"><ele>227.0</ele><time>2026-04-26T15:13:12Z</time></trkpt><trkpt lat="43.53798875574015" lon="13.588830777855655"><ele>227.00000000000003</ele><time>2026-04-26T15:13:13Z</time></trkpt><trkpt lat="43.53795343937777" lon="13.588748362363836"><ele>227.0</ele><time>2026-04-26T15:13:14Z</time></trkpt><trkpt lat="43.53793174423743" lon="13.588655032157689"><ele>227.0</ele><time>2026-04-26T15:13:15Z</time></trkpt><trkpt lat="43.537891357937625" lon="13.588576685254418"><ele>227.0</ele><time>2026-04-26T15:13:15.999Z</time></trkpt><trkpt lat="43.53782962763163" lon="13.588535660012983"><ele>227.00000000000003</ele><time>2026-04-26T15:13:16.999Z</time></trkpt><trkpt lat="43.537768268266625" lon="13.588435528475493"><ele>227.0</ele><time>2026-04-26T15:13:18.999Z</time></trkpt><trkpt lat="43.537719196576646" lon="13.588332768429193"><ele>229.00000000000003</ele><time>2026-04-26T15:13:20.999Z</time></trkpt><trkpt lat="43.537715973181356" lon="13.588197125722354"><ele>231.0</ele><time>2026-04-26T15:13:22.999Z</time></trkpt><trkpt lat="43.537766433360716" lon="13.588139661780785"><ele>233.0</ele><time>2026-04-26T15:13:23.999Z</time></trkpt><trkpt lat="43.537787292039155" lon="13.587972305225469"><ele>235.0</ele><time>2026-04-26T15:13:25.999Z</time></trkpt><trkpt lat="43.537788037414565" lon="13.5878769194605"><ele>237.00000000000003</ele><time>2026-04-26T15:13:26.999Z</time></trkpt><trkpt lat="43.53777493233996" lon="13.587780903233613"><ele>239.0</ele><time>2026-04-26T15:13:27.999Z</time></trkpt><trkpt lat="43.537751348056545" lon="13.587691199268138"><ele>241.00000000000003</ele><time>2026-04-26T15:13:28.999Z</time></trkpt><trkpt lat="43.53774616488649" lon="13.58760283102619"><ele>243.0</ele><time>2026-04-26T15:13:29.999Z</time></trkpt><trkpt lat="43.53763321248684" lon="13.587466319087188"><ele>245.0</ele><time>2026-04-26T15:13:31.999Z</time></trkpt><trkpt lat="43.53759495861153" lon="13.587390932924347"><ele>247.0</ele><time>2026-04-26T15:13:32.999Z</time></trkpt><trkpt lat="43.537561387759034" lon="13.587316598911052"><ele>249.00000000000003</ele><time>2026-04-26T15:13:33.999Z</time></trkpt><trkpt lat="43.537518565775066" lon="13.587249474665633"><ele>251.0</ele><time>2026-04-26T15:13:34.999Z</time></trkpt><trkpt lat="43.537469375911094" lon="13.58717450117446"><ele>251.00000000000003</ele><time>2026-04-26T15:13:35.999Z</time></trkpt><trkpt lat="43.537419705985535" lon="13.58709619461536"><ele>251.0</ele><time>2026-04-26T15:13:36.999Z</time></trkpt><trkpt lat="43.53737249003332" lon="13.587033203742442"><ele>251.0</ele><time>2026-04-26T15:13:37.999Z</time></trkpt><trkpt lat="43.53728011109062" lon="13.586917265701919"><ele>251.0</ele><time>2026-04-26T15:13:39.999Z</time></trkpt><trkpt lat="43.53721685025271" lon="13.586809069027149"><ele>251.00000000000003</ele><time>2026-04-26T15:13:41.999Z</time></trkpt><trkpt lat="43.537175126433674" lon="13.586739848656077"><ele>251.0</ele><time>2026-04-26T15:13:43.999Z</time></trkpt><trkpt lat="43.53712079033002" lon="13.586695460020724"><ele>252.00000000000003</ele><time>2026-04-26T15:14:13.999Z</time></trkpt><trkpt lat="43.537079218639484" lon="13.586605496019015"><ele>253.0</ele><time>2026-04-26T15:14:17.999Z</time></trkpt><trkpt lat="43.53701832296633" lon="13.586566633077924"><ele>254.0</ele><time>2026-04-26T15:15:32.999Z</time></trkpt><trkpt lat="43.53696286412932" lon="13.586505030628691"><ele>255.0</ele><time>2026-04-26T15:15:34.999Z</time></trkpt><trkpt lat="43.53692078005291" lon="13.58640275299856"><ele>256.0</ele><time>2026-04-26T15:15:36.999Z</time></trkpt><trkpt lat="43.53690211180552" lon="13.586301087868407"><ele>257.0</ele><time>2026-04-26T15:15:38.999Z</time></trkpt><trkpt lat="43.53689360295157" lon="13.586177327190338"><ele>253.8</ele><time>2026-04-26T15:15:41.999Z</time></trkpt><trkpt lat="43.53688692868472" lon="13.586082739352696"><ele>250.6</ele><time>2026-04-26T15:15:43.999Z</time></trkpt><trkpt lat="43.5368807867323" lon="13.585967609024486"><ele>247.40000000000003</ele><time>2026-04-26T15:15:45.999Z</time></trkpt><trkpt lat="43.53687040587701" lon="13.585815155811087"><ele>244.20000000000002</ele><time>2026-04-26T15:15:47.999Z</time></trkpt><trkpt lat="43.53687027525963" lon="13.585657422067582"><ele>241.0</ele><time>2026-04-26T15:15:49.999Z</time></trkpt><trkpt lat="43.53690072418193" lon="13.585497216154893"><ele>241.0</ele><time>2026-04-26T15:15:51.999Z</time></trkpt><trkpt lat="43.53691551366131" lon="13.585409220553904"><ele>241.00000000000003</ele><time>2026-04-26T15:15:52.999Z</time></trkpt><trkpt lat="43.536930342048294" lon="13.585320993537836"><ele>241.0</ele><time>2026-04-26T15:15:53.999Z</time></trkpt><trkpt lat="43.53694505743125" lon="13.585235863967622"><ele>241.0</ele><time>2026-04-26T15:15:54.999Z</time></trkpt><trkpt lat="43.536952303728185" lon="13.585141618042107"><ele>241.00000000000003</ele><time>2026-04-26T15:15:55.999Z</time></trkpt><trkpt lat="43.53699314987515" lon="13.585060445849123"><ele>241.0</ele><time>2026-04-26T15:15:56.999Z</time></trkpt><trkpt lat="43.53704224406997" lon="13.584980417549861"><ele>241.0</ele><time>2026-04-26T15:15:57.999Z</time></trkpt><trkpt lat="43.53710500840481" lon="13.584914396167209"><ele>237.4</ele><time>2026-04-26T15:15:58.999Z</time></trkpt><trkpt lat="43.53715649678967" lon="13.584836628073038"><ele>233.8</ele><time>2026-04-26T15:15:59.999Z</time></trkpt><trkpt lat="43.53720132355493" lon="13.58473892448891"><ele>230.20000000000002</ele><time>2026-04-26T15:16:00.999Z</time></trkpt><trkpt lat="43.537196391211495" lon="13.58459571568203"><ele>226.60000000000002</ele><time>2026-04-26T15:16:01.999Z</time></trkpt><trkpt lat="43.537224045636556" lon="13.584460628063812"><ele>223.0</ele><time>2026-04-26T15:16:02.999Z</time></trkpt><trkpt lat="43.53722581688853" lon="13.584315565508515"><ele>220.4</ele><time>2026-04-26T15:16:03.999Z</time></trkpt><trkpt lat="43.53722004578515" lon="13.58416601089988"><ele>217.8</ele><time>2026-04-26T15:16:04.999Z</time></trkpt><trkpt lat="43.537210537255795" lon="13.584012785643125"><ele>215.2</ele><time>2026-04-26T15:16:05.999Z</time></trkpt><trkpt lat="43.53720032005338" lon="13.583864000260403"><ele>212.6</ele><time>2026-04-26T15:16:06.999Z</time></trkpt><trkpt lat="43.537190630354054" lon="13.583722896547089"><ele>210.0</ele><time>2026-04-26T15:16:07.999Z</time></trkpt><trkpt lat="43.5371818877924" lon="13.583595585319118"><ele>208.2</ele><time>2026-04-26T15:16:08.999Z</time></trkpt><trkpt lat="43.53717466699033" lon="13.583490434279755"><ele>206.4</ele><time>2026-04-26T15:16:09.999Z</time></trkpt><trkpt lat="43.537146481020656" lon="13.583342565720953"><ele>204.60000000000002</ele><time>2026-04-26T15:16:11.999Z</time></trkpt><trkpt lat="43.53707064326332" lon="13.583248673240776"><ele>202.8</ele><time>2026-04-26T15:16:13.999Z</time></trkpt><trkpt lat="43.53694418030877" lon="13.583248672292305"><ele>201.0</ele><time>2026-04-26T15:16:15.999Z</time></trkpt><trkpt lat="43.53687882858126" lon="13.583287446786352"><ele>200.4</ele><time>2026-04-26T15:16:16.999Z</time></trkpt><trkpt lat="43.53681776183622" lon="13.583347011295999"><ele>199.8</ele><time>2026-04-26T15:16:17.999Z</time></trkpt><trkpt lat="43.536754722161454" lon="13.583431237162198"><ele>199.20000000000002</ele><time>2026-04-26T15:16:18.999Z</time></trkpt><trkpt lat="43.53669593473872" lon="13.583532051471046"><ele>198.60000000000002</ele><time>2026-04-26T15:16:19.999Z</time></trkpt><trkpt lat="43.53663610665799" lon="13.583638575556597"><ele>198.0</ele><time>2026-04-26T15:16:20.999Z</time></trkpt><trkpt lat="43.53656674244664" lon="13.583732562868299"><ele>197.8</ele><time>2026-04-26T15:16:21.999Z</time></trkpt><trkpt lat="43.53648890526754" lon="13.583808902036198"><ele>197.60000000000002</ele><time>2026-04-26T15:16:22.999Z</time></trkpt><trkpt lat="43.536406057834" lon="13.583866854620403"><ele>197.39999999999998</ele><time>2026-04-26T15:16:23.999Z</time></trkpt><trkpt lat="43.53632041400229" lon="13.583906333299678"><ele>197.2</ele><time>2026-04-26T15:16:25.001Z</time></trkpt><trkpt lat="43.536233232693924" lon="13.583934918844124"><ele>197.0</ele><time>2026-04-26T15:16:26.001Z</time></trkpt><trkpt lat="43.53614327062854" lon="13.58396385846747"><ele>197.00000000000003</ele><time>2026-04-26T15:16:27.001Z</time></trkpt><trkpt lat="43.53605094664261" lon="13.583996434495086"><ele>197.0</ele><time>2026-04-26T15:16:28.001Z</time></trkpt><trkpt lat="43.53596248698876" lon="13.584025198727632"><ele>197.0</ele><time>2026-04-26T15:16:29.001Z</time></trkpt><trkpt lat="43.535875294787495" lon="13.584044927516675"><ele>197.0</ele><time>2026-04-26T15:16:30.001Z</time></trkpt><trkpt lat="43.535794667824355" lon="13.584047673352204"><ele>197.00000000000003</ele><time>2026-04-26T15:16:31.001Z</time></trkpt><trkpt lat="43.535711619692485" lon="13.584038797919254"><ele>197.0</ele><time>2026-04-26T15:16:32.001Z</time></trkpt><trkpt lat="43.53562805069932" lon="13.58403381425116"><ele>197.00000000000003</ele><time>2026-04-26T15:16:33.001Z</time></trkpt><trkpt lat="43.535542581011626" lon="13.584030096208403"><ele>197.0</ele><time>2026-04-26T15:16:34.001Z</time></trkpt><trkpt lat="43.53545308670813" lon="13.584029090317582"><ele>197.0</ele><time>2026-04-26T15:16:35.001Z</time></trkpt><trkpt lat="43.535366222691565" lon="13.584028630624895"><ele>197.0</ele><time>2026-04-26T15:16:36.001Z</time></trkpt><trkpt lat="43.53527683664207" lon="13.584030419241644"><ele>197.00000000000003</ele><time>2026-04-26T15:16:37.001Z</time></trkpt><trkpt lat="43.53519512864261" lon="13.584033320632019"><ele>197.0</ele><time>2026-04-26T15:16:38.001Z</time></trkpt><trkpt lat="43.53512799701527" lon="13.584045955501173"><ele>194.00000000000003</ele><time>2026-04-26T15:16:39.001Z</time></trkpt><trkpt lat="43.53502562015079" lon="13.584072499638673"><ele>191.0</ele><time>2026-04-26T15:16:41.001Z</time></trkpt><trkpt lat="43.5349712489505" lon="13.583929772533189"><ele>188.0</ele><time>2026-04-26T15:16:43.001Z</time></trkpt><trkpt lat="43.534964604759196" lon="13.583842539674901"><ele>185.0</ele><time>2026-04-26T15:16:44.001Z</time></trkpt><trkpt lat="43.534943355614814" lon="13.583745414222522"><ele>182.0</ele><time>2026-04-26T15:16:45.001Z</time></trkpt><trkpt lat="43.53492204593066" lon="13.583648012142666"><ele>179.0</ele><time>2026-04-26T15:16:46Z</time></trkpt><trkpt lat="43.53489693280742" lon="13.583533225347356"><ele>177.79999999999998</ele><time>2026-04-26T15:16:47Z</time></trkpt><trkpt lat="43.53486953694039" lon="13.583408004557363"><ele>176.6</ele><time>2026-04-26T15:16:48Z</time></trkpt><trkpt lat="43.53483937206915" lon="13.583270127278757"><ele>175.4</ele><time>2026-04-26T15:16:49Z</time></trkpt><trkpt lat="43.53481002701058" lon="13.583135997174073"><ele>174.2</ele><time>2026-04-26T15:16:50Z</time></trkpt><trkpt lat="43.534772036766356" lon="13.583007421412152"><ele>173.0</ele><time>2026-04-26T15:16:51Z</time></trkpt><trkpt lat="43.534741486096586" lon="13.582883272004757"><ele>171.7142857142857</ele><time>2026-04-26T15:16:52Z</time></trkpt><trkpt lat="43.53472116521351" lon="13.582762005596964"><ele>170.42857142857144</ele><time>2026-04-26T15:16:53Z</time></trkpt><trkpt lat="43.5346943284403" lon="13.582653538213332"><ele>169.14285714285714</ele><time>2026-04-26T15:16:54Z</time></trkpt><trkpt lat="43.534672935864535" lon="13.582556981224357"><ele>167.85714285714283</ele><time>2026-04-26T15:16:55Z</time></trkpt><trkpt lat="43.53465150412422" lon="13.58247267673506"><ele>166.57142857142856</ele><time>2026-04-26T15:16:56Z</time></trkpt><trkpt lat="43.53461128178547" lon="13.582397523449721"><ele>165.28571428571428</ele><time>2026-04-26T15:16:57Z</time></trkpt><trkpt lat="43.53456138601969" lon="13.582329280995948"><ele>164.0</ele><time>2026-04-26T15:16:58Z</time></trkpt><trkpt lat="43.53449572598895" lon="13.582264465547059"><ele>162.79999999999998</ele><time>2026-04-26T15:16:59Z</time></trkpt><trkpt lat="43.534419183025655" lon="13.582188716488078"><ele>161.6</ele><time>2026-04-26T15:17:00Z</time></trkpt><trkpt lat="43.534346763812785" lon="13.582115180138112"><ele>160.4</ele><time>2026-04-26T15:17:01Z</time></trkpt><trkpt lat="43.53426760286074" lon="13.582036226418701"><ele>159.2</ele><time>2026-04-26T15:17:02Z</time></trkpt><trkpt lat="43.53419073516337" lon="13.581954903044462"><ele>158.0</ele><time>2026-04-26T15:17:03Z</time></trkpt><trkpt lat="43.53410816057213" lon="13.581875375472215"><ele>158.0</ele><time>2026-04-26T15:17:04Z</time></trkpt><trkpt lat="43.53402042973675" lon="13.581798185882741"><ele>158.0</ele><time>2026-04-26T15:17:05Z</time></trkpt><trkpt lat="43.53393038912128" lon="13.581729848890566"><ele>158.0</ele><time>2026-04-26T15:17:06Z</time></trkpt><trkpt lat="43.53383935931794" lon="13.581659142986553"><ele>158.0</ele><time>2026-04-26T15:17:07Z</time></trkpt><trkpt lat="43.53373551302844" lon="13.581649955532615"><ele>158.0</ele><time>2026-04-26T15:17:08Z</time></trkpt><trkpt lat="43.53363873072632" lon="13.581624328914142"><ele>158.0</ele><time>2026-04-26T15:17:09Z</time></trkpt><trkpt lat="43.533554735828936" lon="13.581599046044229"><ele>158.0</ele><time>2026-04-26T15:17:10Z</time></trkpt><trkpt lat="43.53346727742858" lon="13.581563101401517"><ele>158.0</ele><time>2026-04-26T15:17:11Z</time></trkpt><trkpt lat="43.53337924882017" lon="13.581515808856528"><ele>158.0</ele><time>2026-04-26T15:17:12Z</time></trkpt><trkpt lat="43.53329416672622" lon="13.581451687937042"><ele>158.0</ele><time>2026-04-26T15:17:13Z</time></trkpt><trkpt lat="43.53321020595771" lon="13.581384600308969"><ele>158.0</ele><time>2026-04-26T15:17:14Z</time></trkpt><trkpt lat="43.53312602055661" lon="13.581317840254309"><ele>158.0</ele><time>2026-04-26T15:17:15Z</time></trkpt><trkpt lat="43.53304176357487" lon="13.581260777463987"><ele>158.0</ele><time>2026-04-26T15:17:16Z</time></trkpt><trkpt lat="43.53296005189406" lon="13.581206426279584"><ele>158.0</ele><time>2026-04-26T15:17:17Z</time></trkpt><trkpt lat="43.53286939190722" lon="13.581155683993588"><ele>158.0</ele><time>2026-04-26T15:17:18Z</time></trkpt><trkpt lat="43.532783645601825" lon="13.581106351932865"><ele>157.0</ele><time>2026-04-26T15:17:19Z</time></trkpt><trkpt lat="43.53269737196452" lon="13.581052836189047"><ele>156.0</ele><time>2026-04-26T15:17:20Z</time></trkpt><trkpt lat="43.53261826737861" lon="13.580980424739142"><ele>155.0</ele><time>2026-04-26T15:17:21Z</time></trkpt><trkpt lat="43.5325394919957" lon="13.58092170967674"><ele>154.0</ele><time>2026-04-26T15:17:22Z</time></trkpt><trkpt lat="43.53245503952463" lon="13.580876022909687"><ele>153.0</ele><time>2026-04-26T15:17:23Z</time></trkpt><trkpt lat="43.53238273896501" lon="13.580819776415098"><ele>153.0</ele><time>2026-04-26T15:17:24Z</time></trkpt><trkpt lat="43.53232004215019" lon="13.580753156778552"><ele>153.0</ele><time>2026-04-26T15:17:25Z</time></trkpt><trkpt lat="43.5322687727552" lon="13.580681420162637"><ele>153.0</ele><time>2026-04-26T15:17:26Z</time></trkpt><trkpt lat="43.532217936026974" lon="13.580583919577496"><ele>153.0</ele><time>2026-04-26T15:17:27Z</time></trkpt><trkpt lat="43.53218055556242" lon="13.580465895731212"><ele>153.0</ele><time>2026-04-26T15:17:28Z</time></trkpt><trkpt lat="43.532126338622845" lon="13.58035322906987"><ele>153.0</ele><time>2026-04-26T15:17:29Z</time></trkpt><trkpt lat="43.53205641841173" lon="13.580247826761443"><ele>148.6</ele><time>2026-04-26T15:17:30Z</time></trkpt><trkpt lat="43.53200110115467" lon="13.580128376670714"><ele>144.20000000000002</ele><time>2026-04-26T15:17:31Z</time></trkpt><trkpt lat="43.53195579690586" lon="13.579996654180583"><ele>139.8</ele><time>2026-04-26T15:17:32Z</time></trkpt><trkpt lat="43.53188448754222" lon="13.579884071352806"><ele>135.4</ele><time>2026-04-26T15:17:33Z</time></trkpt><trkpt lat="43.5318263080948" lon="13.579757553876881"><ele>131.0</ele><time>2026-04-26T15:17:34Z</time></trkpt><trkpt lat="43.53176131786031" lon="13.579625542435325"><ele>130.2</ele><time>2026-04-26T15:17:35Z</time></trkpt><trkpt lat="43.53169703488745" lon="13.579497836304382"><ele>129.39999999999998</ele><time>2026-04-26T15:17:36Z</time></trkpt><trkpt lat="43.531636102885564" lon="13.57936287344637"><ele>128.6</ele><time>2026-04-26T15:17:37Z</time></trkpt><trkpt lat="43.531582254533824" lon="13.579231584321692"><ele>127.8</ele><time>2026-04-26T15:17:38Z</time></trkpt><trkpt lat="43.531534161468244" lon="13.579106842116639"><ele>127.0</ele><time>2026-04-26T15:17:39Z</time></trkpt><trkpt lat="43.531492349160594" lon="13.578982372929183"><ele>127.00000000000001</ele><time>2026-04-26T15:17:40Z</time></trkpt><trkpt lat="43.53147359703842" lon="13.57885597280272"><ele>127.0</ele><time>2026-04-26T15:17:41Z</time></trkpt><trkpt lat="43.53145057188643" lon="13.578741840333748"><ele>127.0</ele><time>2026-04-26T15:17:41.999Z</time></trkpt><trkpt lat="43.531436845617996" lon="13.578641642724147"><ele>127.0</ele><time>2026-04-26T15:17:42.999Z</time></trkpt><trkpt lat="43.53142027927865" lon="13.57854932492321"><ele>127.00000000000001</ele><time>2026-04-26T15:17:43.999Z</time></trkpt><trkpt lat="43.53142135231195" lon="13.578459093813684"><ele>127.0</ele><time>2026-04-26T15:17:44.999Z</time></trkpt><trkpt lat="43.53142371930512" lon="13.5783699982464"><ele>126.00000000000001</ele><time>2026-04-26T15:17:45.999Z</time></trkpt><trkpt lat="43.53142789367235" lon="13.578281626118768"><ele>125.0</ele><time>2026-04-26T15:17:46.999Z</time></trkpt><trkpt lat="43.53145051193857" lon="13.578182780747328"><ele>124.0</ele><time>2026-04-26T15:17:47.999Z</time></trkpt><trkpt lat="43.531453551790136" lon="13.57807014163623"><ele>123.0</ele><time>2026-04-26T15:17:48.999Z</time></trkpt><trkpt lat="43.5314542925897" lon="13.577948671280318"><ele>122.00000000000001</ele><time>2026-04-26T15:17:49.999Z</time></trkpt><trkpt lat="43.531454497133616" lon="13.577813759149569"><ele>121.0</ele><time>2026-04-26T15:17:50.999Z</time></trkpt><trkpt lat="43.53145417695488" lon="13.577668171254237"><ele>118.25</ele><time>2026-04-26T15:17:51.999Z</time></trkpt><trkpt lat="43.531453845920986" lon="13.577517647640358"><ele>115.5</ele><time>2026-04-26T15:17:52.999Z</time></trkpt><trkpt lat="43.53145394004702" lon="13.57736157854435"><ele>112.75</ele><time>2026-04-26T15:17:53.999Z</time></trkpt><trkpt lat="43.531454628386214" lon="13.577200921613471"><ele>110.0</ele><time>2026-04-26T15:17:54.999Z</time></trkpt><trkpt lat="43.531455322305156" lon="13.577038962390583"><ele>107.5</ele><time>2026-04-26T15:17:55.999Z</time></trkpt><trkpt lat="43.53145590219896" lon="13.576872757636893"><ele>105.0</ele><time>2026-04-26T15:17:56.999Z</time></trkpt><trkpt lat="43.531440216593445" lon="13.576703814983599"><ele>102.5</ele><time>2026-04-26T15:17:57.999Z</time></trkpt><trkpt lat="43.53144770903" lon="13.576529489392218"><ele>100.0</ele><time>2026-04-26T15:17:58.999Z</time></trkpt><trkpt lat="43.53146138598081" lon="13.576352494041448"><ele>98.5</ele><time>2026-04-26T15:17:59.999Z</time></trkpt><trkpt lat="43.53146569853737" lon="13.576176181628037"><ele>97.0</ele><time>2026-04-26T15:18:00.999Z</time></trkpt><trkpt lat="43.531469990042034" lon="13.576000729847886"><ele>95.5</ele><time>2026-04-26T15:18:01.999Z</time></trkpt><trkpt lat="43.53147138524202" lon="13.57582457183326"><ele>94.0</ele><time>2026-04-26T15:18:02.999Z</time></trkpt><trkpt lat="43.5314692405289" lon="13.575654893268583"><ele>94.0</ele><time>2026-04-26T15:18:03.999Z</time></trkpt><trkpt lat="43.531461375662175" lon="13.575491689890809"><ele>94.0</ele><time>2026-04-26T15:18:04.999Z</time></trkpt><trkpt lat="43.531422422589415" lon="13.575337572962765"><ele>94.0</ele><time>2026-04-26T15:18:05.999Z</time></trkpt><trkpt lat="43.53140085443459" lon="13.575176830347436"><ele>94.0</ele><time>2026-04-26T15:18:06.999Z</time></trkpt><trkpt lat="43.53136033784975" lon="13.575005474362545"><ele>92.33333333333333</ele><time>2026-04-26T15:18:07.999Z</time></trkpt><trkpt lat="43.53131798087015" lon="13.57482239621132"><ele>90.66666666666667</ele><time>2026-04-26T15:18:08.999Z</time></trkpt><trkpt lat="43.53127082964383" lon="13.574618596040752"><ele>89.0</ele><time>2026-04-26T15:18:09.999Z</time></trkpt><trkpt lat="43.531219905283905" lon="13.574408189133761"><ele>87.25</ele><time>2026-04-26T15:18:10.999Z</time></trkpt><trkpt lat="43.531170338045285" lon="13.574208693488655"><ele>85.5</ele><time>2026-04-26T15:18:11.999Z</time></trkpt><trkpt lat="43.53112475732167" lon="13.574025242514733"><ele>83.75</ele><time>2026-04-26T15:18:12.999Z</time></trkpt><trkpt lat="43.53108257659537" lon="13.573851305264936"><ele>82.0</ele><time>2026-04-26T15:18:13.999Z</time></trkpt><trkpt lat="43.53104611369734" lon="13.573700805921593"><ele>81.19999999999999</ele><time>2026-04-26T15:18:14.999Z</time></trkpt><trkpt lat="43.531023335003404" lon="13.57360678758904"><ele>80.39999999999999</ele><time>2026-04-26T15:18:15.999Z</time></trkpt><trkpt lat="43.53099810356557" lon="13.573502645773194"><ele>79.6</ele><time>2026-04-26T15:18:17.999Z</time></trkpt><trkpt lat="43.530974001496006" lon="13.573403165015144"><ele>78.8</ele><time>2026-04-26T15:18:21.999Z</time></trkpt><trkpt lat="43.530842695817576" lon="13.573452791596857"><ele>78.0</ele><time>2026-04-26T15:18:23.999Z</time></trkpt><trkpt lat="43.53074221167148" lon="13.573495599757763"><ele>78.0</ele><time>2026-04-26T15:18:25.999Z</time></trkpt><trkpt lat="43.53064415583373" lon="13.57350254203726"><ele>78.0</ele><time>2026-04-26T15:18:27.999Z</time></trkpt><trkpt lat="43.530537546765785" lon="13.573522469598734"><ele>78.0</ele><time>2026-04-26T15:18:30.001Z</time></trkpt><trkpt lat="43.530418656742995" lon="13.57354454325182"><ele>78.0</ele><time>2026-04-26T15:18:32.001Z</time></trkpt><trkpt lat="43.53030492681204" lon="13.573564221174673"><ele>78.0</ele><time>2026-04-26T15:18:34.001Z</time></trkpt><trkpt lat="43.53018632198538" lon="13.573583332455035"><ele>77.33333333333333</ele><time>2026-04-26T15:18:36.001Z</time></trkpt><trkpt lat="43.530123471019834" lon="13.57359476601958"><ele>76.66666666666667</ele><time>2026-04-26T15:18:37.001Z</time></trkpt><trkpt lat="43.53005749941822" lon="13.573601251115806"><ele>76.0</ele><time>2026-04-26T15:18:38.001Z</time></trkpt><trkpt lat="43.52999246639095" lon="13.573608056790858"><ele>75.33333333333334</ele><time>2026-04-26T15:18:39.001Z</time></trkpt><trkpt lat="43.52987908476432" lon="13.573647969765007"><ele>74.66666666666667</ele><time>2026-04-26T15:18:41.001Z</time></trkpt><trkpt lat="43.529778004137725" lon="13.573735667183698"><ele>74.0</ele><time>2026-04-26T15:18:43.001Z</time></trkpt><trkpt lat="43.529724503503175" lon="13.57379787071106"><ele>74.0</ele><time>2026-04-26T15:18:44.001Z</time></trkpt><trkpt lat="43.52966871206088" lon="13.573859721529255"><ele>74.0</ele><time>2026-04-26T15:18:45.001Z</time></trkpt><trkpt lat="43.529609990586344" lon="13.573921815526896"><ele>74.0</ele><time>2026-04-26T15:18:46.001Z</time></trkpt><trkpt lat="43.52955141203488" lon="13.573979096961788"><ele>74.0</ele><time>2026-04-26T15:18:47.001Z</time></trkpt><trkpt lat="43.52949455618244" lon="13.574035064981981"><ele>74.0</ele><time>2026-04-26T15:18:48.001Z</time></trkpt><trkpt lat="43.5294364216476" lon="13.574091681944585"><ele>74.0</ele><time>2026-04-26T15:18:49.001Z</time></trkpt><trkpt lat="43.52937878927174" lon="13.574149060943668"><ele>74.0</ele><time>2026-04-26T15:18:50Z</time></trkpt><trkpt lat="43.52932177636321" lon="13.574205635513675"><ele>73.60000000000001</ele><time>2026-04-26T15:18:51Z</time></trkpt><trkpt lat="43.529265043712044" lon="13.574261981993395"><ele>73.2</ele><time>2026-04-26T15:18:52Z</time></trkpt><trkpt lat="43.52921268357425" lon="13.57431630727453"><ele>72.80000000000001</ele><time>2026-04-26T15:18:53Z</time></trkpt><trkpt lat="43.52911963044579" lon="13.574400597841404"><ele>72.4</ele><time>2026-04-26T15:18:55Z</time></trkpt><trkpt lat="43.52901320587179" lon="13.574495385619473"><ele>72.0</ele><time>2026-04-26T15:18:57Z</time></trkpt><trkpt lat="43.52891135674598" lon="13.574602038238103"><ele>73.16666666666667</ele><time>2026-04-26T15:18:59Z</time></trkpt><trkpt lat="43.52880012592106" lon="13.574703621858443"><ele>74.33333333333333</ele><time>2026-04-26T15:19:01Z</time></trkpt><trkpt lat="43.52874066743515" lon="13.574758079306788"><ele>75.5</ele><time>2026-04-26T15:19:02Z</time></trkpt><trkpt lat="43.52868198272829" lon="13.57481488934085"><ele>76.66666666666666</ele><time>2026-04-26T15:19:03Z</time></trkpt><trkpt lat="43.52862635322124" lon="13.574870501348018"><ele>77.83333333333333</ele><time>2026-04-26T15:19:04Z</time></trkpt><trkpt lat="43.52857884874286" lon="13.574931789013009"><ele>79.0</ele><time>2026-04-26T15:19:05Z</time></trkpt><trkpt lat="43.52853477439702" lon="13.574997985731164"><ele>79.4</ele><time>2026-04-26T15:19:06Z</time></trkpt><trkpt lat="43.52846563984743" lon="13.575121052479789"><ele>79.80000000000001</ele><time>2026-04-26T15:19:08Z</time></trkpt><trkpt lat="43.52843434996685" lon="13.575202426382786"><ele>80.19999999999999</ele><time>2026-04-26T15:19:09Z</time></trkpt><trkpt lat="43.528404084031486" lon="13.575280485405628"><ele>80.6</ele><time>2026-04-26T15:19:10Z</time></trkpt><trkpt lat="43.528352505745985" lon="13.575433452505191"><ele>81.0</ele><time>2026-04-26T15:19:12Z</time></trkpt><trkpt lat="43.52831062194794" lon="13.575580205418056"><ele>81.6</ele><time>2026-04-26T15:19:14Z</time></trkpt><trkpt lat="43.52826069326673" lon="13.575719240909805"><ele>82.19999999999999</ele><time>2026-04-26T15:19:16Z</time></trkpt><trkpt lat="43.52821288424874" lon="13.575839405648217"><ele>82.80000000000001</ele><time>2026-04-26T15:19:18Z</time></trkpt><trkpt lat="43.528159260096324" lon="13.575976988479134"><ele>83.4</ele><time>2026-04-26T15:19:20Z</time></trkpt><trkpt lat="43.528109153869984" lon="13.576116454458454"><ele>84.0</ele><time>2026-04-26T15:19:22Z</time></trkpt><trkpt lat="43.52805757106635" lon="13.576268768752708"><ele>84.33333333333333</ele><time>2026-04-26T15:19:24Z</time></trkpt><trkpt lat="43.52802667745261" lon="13.57640335680637"><ele>84.66666666666667</ele><time>2026-04-26T15:19:26Z</time></trkpt><trkpt lat="43.528022757969254" lon="13.576496762364341"><ele>85.0</ele><time>2026-04-26T15:19:28Z</time></trkpt><trkpt lat="43.52800338941375" lon="13.576587131744333"><ele>85.33333333333334</ele><time>2026-04-26T15:19:30Z</time></trkpt><trkpt lat="43.527966148140905" lon="13.576702605620419"><ele>85.66666666666667</ele><time>2026-04-26T15:19:32Z</time></trkpt><trkpt lat="43.52792783469254" lon="13.57682736454056"><ele>86.0</ele><time>2026-04-26T15:19:34Z</time></trkpt><trkpt lat="43.52788821708624" lon="13.576964643452586"><ele>84.2</ele><time>2026-04-26T15:19:36Z</time></trkpt><trkpt lat="43.52786009516039" lon="13.577095293078242"><ele>82.39999999999999</ele><time>2026-04-26T15:19:38Z</time></trkpt><trkpt lat="43.5278237057417" lon="13.577215428179898"><ele>80.6</ele><time>2026-04-26T15:19:40Z</time></trkpt><trkpt lat="43.52778595600174" lon="13.577351331817516"><ele>78.8</ele><time>2026-04-26T15:19:42Z</time></trkpt><trkpt lat="43.5277700739045" lon="13.577480051184395"><ele>77.0</ele><time>2026-04-26T15:19:44Z</time></trkpt><trkpt lat="43.527740676427065" lon="13.577616766154428"><ele>77.0</ele><time>2026-04-26T15:19:45.999Z</time></trkpt><trkpt lat="43.52768982955302" lon="13.577745403471193"><ele>77.0</ele><time>2026-04-26T15:19:47.999Z</time></trkpt><trkpt lat="43.52762370088678" lon="13.577877852407623"><ele>77.0</ele><time>2026-04-26T15:19:49.999Z</time></trkpt><trkpt lat="43.527564787934146" lon="13.577992091516194"><ele>77.0</ele><time>2026-04-26T15:19:51.999Z</time></trkpt><trkpt lat="43.52747104402642" lon="13.578053187810973"><ele>77.0</ele><time>2026-04-26T15:19:53.999Z</time></trkpt><trkpt lat="43.52738179843191" lon="13.57800574919537"><ele>77.0</ele><time>2026-04-26T15:19:55.999Z</time></trkpt><trkpt lat="43.52727754626474" lon="13.577923042407926"><ele>77.0</ele><time>2026-04-26T15:19:57.999Z</time></trkpt><trkpt lat="43.52716495094136" lon="13.577859179930636"><ele>77.0</ele><time>2026-04-26T15:19:59.999Z</time></trkpt><trkpt lat="43.52709635836859" lon="13.577818767503706"><ele>77.0</ele><time>2026-04-26T15:20:00.999Z</time></trkpt><trkpt lat="43.52702968976504" lon="13.577789895412312"><ele>77.0</ele><time>2026-04-26T15:20:01.999Z</time></trkpt><trkpt lat="43.52696093320749" lon="13.577766268895395"><ele>77.5</ele><time>2026-04-26T15:20:02.999Z</time></trkpt><trkpt lat="43.52689793054233" lon="13.577735120566777"><ele>78.0</ele><time>2026-04-26T15:20:03.999Z</time></trkpt><trkpt lat="43.526830904395254" lon="13.57771297969284"><ele>78.5</ele><time>2026-04-26T15:20:04.999Z</time></trkpt><trkpt lat="43.52676817028459" lon="13.577694104318608"><ele>79.0</ele><time>2026-04-26T15:20:05.999Z</time></trkpt><trkpt lat="43.52666149194927" lon="13.577664579613613"><ele>79.5</ele><time>2026-04-26T15:20:07.999Z</time></trkpt><trkpt lat="43.526570748047874" lon="13.577628773316317"><ele>80.0</ele><time>2026-04-26T15:20:09.999Z</time></trkpt><trkpt lat="43.526494019259516" lon="13.577618856944145"><ele>80.0</ele><time>2026-04-26T15:20:11.999Z</time></trkpt><trkpt lat="43.52642233931393" lon="13.577563977402857"><ele>80.0</ele><time>2026-04-26T15:20:15.999Z</time></trkpt><trkpt lat="43.526357594124384" lon="13.577492025208588"><ele>80.0</ele><time>2026-04-26T15:20:17.999Z</time></trkpt><trkpt lat="43.52627077384202" lon="13.577500900628594"><ele>80.0</ele><time>2026-04-26T15:20:19.999Z</time></trkpt><trkpt lat="43.526142236637234" lon="13.577524814387429"><ele>80.0</ele><time>2026-04-26T15:20:21.999Z</time></trkpt><trkpt lat="43.52606788126385" lon="13.577557533415376"><ele>79.4</ele><time>2026-04-26T15:20:22.999Z</time></trkpt><trkpt lat="43.52599751776241" lon="13.577577072234451"><ele>78.8</ele><time>2026-04-26T15:20:23.999Z</time></trkpt><trkpt lat="43.52588199640982" lon="13.577594470627004"><ele>78.2</ele><time>2026-04-26T15:20:25.999Z</time></trkpt><trkpt lat="43.52576516424707" lon="13.577606244167258"><ele>77.6</ele><time>2026-04-26T15:20:27.999Z</time></trkpt><trkpt lat="43.525649830912926" lon="13.577628055096616"><ele>77.0</ele><time>2026-04-26T15:20:29.999Z</time></trkpt><trkpt lat="43.52558534631416" lon="13.57763123699867"><ele>77.0</ele><time>2026-04-26T15:20:30.999Z</time></trkpt><trkpt lat="43.52548194146848" lon="13.577670317424776"><ele>77.0</ele><time>2026-04-26T15:20:32.999Z</time></trkpt><trkpt lat="43.52535289917742" lon="13.577729957254734"><ele>77.0</ele><time>2026-04-26T15:20:34.999Z</time></trkpt><trkpt lat="43.525287418586394" lon="13.577756006898131"><ele>77.0</ele><time>2026-04-26T15:20:36.001Z</time></trkpt><trkpt lat="43.52522588425553" lon="13.577776126020282"><ele>77.0</ele><time>2026-04-26T15:20:37.001Z</time></trkpt><trkpt lat="43.52512684451347" lon="13.57781443258279"><ele>76.6</ele><time>2026-04-26T15:20:39.001Z</time></trkpt><trkpt lat="43.52502953368098" lon="13.577845224719258"><ele>76.2</ele><time>2026-04-26T15:20:41Z</time></trkpt><trkpt lat="43.52491442057309" lon="13.577867926445968"><ele>75.8</ele><time>2026-04-26T15:20:43Z</time></trkpt><trkpt lat="43.52480621713373" lon="13.577892792623663"><ele>75.4</ele><time>2026-04-26T15:20:45Z</time></trkpt><trkpt lat="43.52470715354358" lon="13.577907779212"><ele>75.0</ele><time>2026-04-26T15:20:47Z</time></trkpt><trkpt lat="43.52461700626974" lon="13.577911827677482"><ele>73.6</ele><time>2026-04-26T15:20:49Z</time></trkpt><trkpt lat="43.52452455561126" lon="13.577919342032812"><ele>72.2</ele><time>2026-04-26T15:20:51Z</time></trkpt><trkpt lat="43.52441955589649" lon="13.577924240540195"><ele>70.8</ele><time>2026-04-26T15:20:53Z</time></trkpt><trkpt lat="43.52430125011244" lon="13.577933143427973"><ele>69.4</ele><time>2026-04-26T15:20:55Z</time></trkpt><trkpt lat="43.52419480039122" lon="13.577916960072294"><ele>68.0</ele><time>2026-04-26T15:20:57Z</time></trkpt><trkpt lat="43.52410076314893" lon="13.577947588322994"><ele>68.0</ele><time>2026-04-26T15:20:59Z</time></trkpt><trkpt lat="43.523990874446945" lon="13.577962142366578"><ele>68.0</ele><time>2026-04-26T15:21:01Z</time></trkpt><trkpt lat="43.5238791942994" lon="13.577981016818079"><ele>68.0</ele><time>2026-04-26T15:21:03Z</time></trkpt><trkpt lat="43.52376037506843" lon="13.57799809607717"><ele>68.0</ele><time>2026-04-26T15:21:05Z</time></trkpt><trkpt lat="43.52366408099755" lon="13.57802514319607"><ele>68.0</ele><time>2026-04-26T15:21:07Z</time></trkpt><trkpt lat="43.52357407478109" lon="13.578058337173397"><ele>68.0</ele><time>2026-04-26T15:21:09Z</time></trkpt><trkpt lat="43.52348418700107" lon="13.578094986286958"><ele>68.0</ele><time>2026-04-26T15:21:11Z</time></trkpt><trkpt lat="43.52339184878033" lon="13.578105793864536"><ele>68.0</ele><time>2026-04-26T15:21:13Z</time></trkpt><trkpt lat="43.52328411278535" lon="13.578080303338293"><ele>68.0</ele><time>2026-04-26T15:21:15Z</time></trkpt><trkpt lat="43.52318374664544" lon="13.57800110137359"><ele>68.0</ele><time>2026-04-26T15:21:17Z</time></trkpt><trkpt lat="43.523068223144584" lon="13.577981344888853"><ele>68.0</ele><time>2026-04-26T15:21:19Z</time></trkpt><trkpt lat="43.522949851090814" lon="13.577960016475568"><ele>68.0</ele><time>2026-04-26T15:21:21Z</time></trkpt><trkpt lat="43.522817511865334" lon="13.577984283168664"><ele>68.0</ele><time>2026-04-26T15:21:23Z</time></trkpt><trkpt lat="43.52275321627283" lon="13.57799125688618"><ele>68.0</ele><time>2026-04-26T15:21:24Z</time></trkpt><trkpt lat="43.522646390810614" lon="13.57802785156804"><ele>68.0</ele><time>2026-04-26T15:21:26Z</time></trkpt><trkpt lat="43.522560066240636" lon="13.5781381735292"><ele>68.57142857142857</ele><time>2026-04-26T15:21:28Z</time></trkpt><trkpt lat="43.522515477549895" lon="13.578205641696599"><ele>69.14285714285714</ele><time>2026-04-26T15:21:29Z</time></trkpt><trkpt lat="43.52247347947731" lon="13.57827578128598"><ele>69.71428571428572</ele><time>2026-04-26T15:21:30Z</time></trkpt><trkpt lat="43.5224328295655" lon="13.578353486955999"><ele>70.28571428571428</ele><time>2026-04-26T15:21:31Z</time></trkpt><trkpt lat="43.52239098220748" lon="13.57843777751849"><ele>70.85714285714286</ele><time>2026-04-26T15:21:32Z</time></trkpt><trkpt lat="43.522347022177016" lon="13.578524656409915"><ele>71.42857142857143</ele><time>2026-04-26T15:21:33Z</time></trkpt><trkpt lat="43.522298087232144" lon="13.578609973669845"><ele>72.0</ele><time>2026-04-26T15:21:34Z</time></trkpt><trkpt lat="43.52225088696187" lon="13.578695623828647"><ele>72.42857142857143</ele><time>2026-04-26T15:21:35Z</time></trkpt><trkpt lat="43.522206521959376" lon="13.578779371455266"><ele>72.85714285714286</ele><time>2026-04-26T15:21:36Z</time></trkpt><trkpt lat="43.522166665819654" lon="13.578865283188081"><ele>73.28571428571428</ele><time>2026-04-26T15:21:37Z</time></trkpt><trkpt lat="43.522126244625134" lon="13.57895105839031"><ele>73.71428571428572</ele><time>2026-04-26T15:21:38Z</time></trkpt><trkpt lat="43.52208611862453" lon="13.57903415307954"><ele>74.14285714285714</ele><time>2026-04-26T15:21:39Z</time></trkpt><trkpt lat="43.522046636836365" lon="13.579113415070845"><ele>74.57142857142857</ele><time>2026-04-26T15:21:39.999Z</time></trkpt><trkpt lat="43.52200499008971" lon="13.579184523912108"><ele>75.0</ele><time>2026-04-26T15:21:40.999Z</time></trkpt><trkpt lat="43.52196575779476" lon="13.579257434956032"><ele>74.33333333333333</ele><time>2026-04-26T15:21:41.999Z</time></trkpt><trkpt lat="43.52193012630403" lon="13.579332821762613"><ele>73.66666666666667</ele><time>2026-04-26T15:21:42.999Z</time></trkpt><trkpt lat="43.52189097863729" lon="13.579411903687753"><ele>73.0</ele><time>2026-04-26T15:21:43.999Z</time></trkpt><trkpt lat="43.521849772816104" lon="13.57949443925752"><ele>72.33333333333334</ele><time>2026-04-26T15:21:44.999Z</time></trkpt><trkpt lat="43.52180917026922" lon="13.579574444065425"><ele>71.66666666666667</ele><time>2026-04-26T15:21:45.999Z</time></trkpt><trkpt lat="43.52177045014128" lon="13.579655901835569"><ele>71.0</ele><time>2026-04-26T15:21:46.999Z</time></trkpt><trkpt lat="43.521699347131374" lon="13.579787116902974"><ele>71.0</ele><time>2026-04-26T15:21:48.999Z</time></trkpt><trkpt lat="43.521620979008496" lon="13.579906023360467"><ele>71.0</ele><time>2026-04-26T15:21:50.999Z</time></trkpt><trkpt lat="43.52156263013066" lon="13.579954298932169"><ele>71.0</ele><time>2026-04-26T15:21:51.999Z</time></trkpt><trkpt lat="43.5214965150884" lon="13.579984302528517"><ele>71.0</ele><time>2026-04-26T15:21:52.999Z</time></trkpt><trkpt lat="43.52143494914179" lon="13.580005903422812"><ele>71.0</ele><time>2026-04-26T15:21:53.999Z</time></trkpt><trkpt lat="43.521327678591966" lon="13.580069402229359"><ele>71.0</ele><time>2026-04-26T15:21:55.999Z</time></trkpt><trkpt lat="43.52127081100665" lon="13.58011779921386"><ele>71.0</ele><time>2026-04-26T15:21:56.999Z</time></trkpt><trkpt lat="43.52121877127498" lon="13.58017278401522"><ele>71.0</ele><time>2026-04-26T15:21:57.999Z</time></trkpt><trkpt lat="43.52112362791077" lon="13.580259183566946"><ele>71.0</ele><time>2026-04-26T15:21:59.999Z</time></trkpt><trkpt lat="43.52107844374433" lon="13.580324025790222"><ele>71.0</ele><time>2026-04-26T15:22:00.999Z</time></trkpt><trkpt lat="43.52104435263216" lon="13.58039743349715"><ele>71.0</ele><time>2026-04-26T15:22:01.999Z</time></trkpt><trkpt lat="43.52100714143059" lon="13.580469162793333"><ele>71.0</ele><time>2026-04-26T15:22:02.999Z</time></trkpt><trkpt lat="43.52094966414242" lon="13.580597670576333"><ele>72.39999999999999</ele><time>2026-04-26T15:22:04.999Z</time></trkpt><trkpt lat="43.52087866990508" lon="13.580740184148382"><ele>73.8</ele><time>2026-04-26T15:22:06.999Z</time></trkpt><trkpt lat="43.52081068198621" lon="13.580879179205068"><ele>75.19999999999999</ele><time>2026-04-26T15:22:08.999Z</time></trkpt><trkpt lat="43.520774830934506" lon="13.580950557217674"><ele>76.6</ele><time>2026-04-26T15:22:09.999Z</time></trkpt><trkpt lat="43.520699203838575" lon="13.58108444936288"><ele>78.0</ele><time>2026-04-26T15:22:11.999Z</time></trkpt><trkpt lat="43.5206265939893" lon="13.581205212982889"><ele>77.6</ele><time>2026-04-26T15:22:13.999Z</time></trkpt><trkpt lat="43.520556512180946" lon="13.58134003353205"><ele>77.19999999999999</ele><time>2026-04-26T15:22:15.999Z</time></trkpt><trkpt lat="43.52052134134703" lon="13.581413721542752"><ele>76.8</ele><time>2026-04-26T15:22:16.999Z</time></trkpt><trkpt lat="43.52045650065694" lon="13.581555841780299"><ele>76.39999999999999</ele><time>2026-04-26T15:22:18.999Z</time></trkpt><trkpt lat="43.520386207191954" lon="13.581664611223516"><ele>76.0</ele><time>2026-04-26T15:22:20.999Z</time></trkpt><trkpt lat="43.520336966326" lon="13.581767166330833"><ele>76.0</ele><time>2026-04-26T15:22:22.999Z</time></trkpt><trkpt lat="43.520295764585754" lon="13.581914515470318"><ele>76.0</ele><time>2026-04-26T15:22:24.999Z</time></trkpt><trkpt lat="43.52024648807814" lon="13.58207367902117"><ele>76.0</ele><time>2026-04-26T15:22:26.999Z</time></trkpt><trkpt lat="43.52022487983118" lon="13.582160254672061"><ele>76.0</ele><time>2026-04-26T15:22:27.999Z</time></trkpt><trkpt lat="43.52019798695958" lon="13.582248224774016"><ele>76.0</ele><time>2026-04-26T15:22:28.999Z</time></trkpt><trkpt lat="43.520171039212265" lon="13.582334641592668"><ele>76.0</ele><time>2026-04-26T15:22:29.999Z</time></trkpt><trkpt lat="43.52014570314916" lon="13.582417695880723"><ele>76.83333333333333</ele><time>2026-04-26T15:22:30.999Z</time></trkpt><trkpt lat="43.52010506234821" lon="13.58259662011513"><ele>77.66666666666666</ele><time>2026-04-26T15:22:32.999Z</time></trkpt><trkpt lat="43.52008040937197" lon="13.58269539859152"><ele>78.5</ele><time>2026-04-26T15:22:33.999Z</time></trkpt><trkpt lat="43.52005208532856" lon="13.582778357982868"><ele>79.33333333333333</ele><time>2026-04-26T15:22:34.999Z</time></trkpt><trkpt lat="43.5200323132228" lon="13.582869058200481"><ele>80.16666666666667</ele><time>2026-04-26T15:22:35.999Z</time></trkpt><trkpt lat="43.52001161590461" lon="13.582953592041742"><ele>81.0</ele><time>2026-04-26T15:22:36.999Z</time></trkpt><trkpt lat="43.5199924223384" lon="13.583038491055175"><ele>81.5</ele><time>2026-04-26T15:22:37.998Z</time></trkpt><trkpt lat="43.51998034616899" lon="13.583124316236452"><ele>82.0</ele><time>2026-04-26T15:22:38.998Z</time></trkpt><trkpt lat="43.51996669571321" lon="13.58321245149557"><ele>82.5</ele><time>2026-04-26T15:22:39.998Z</time></trkpt><trkpt lat="43.51995193801801" lon="13.583299495253945"><ele>83.0</ele><time>2026-04-26T15:22:40.998Z</time></trkpt><trkpt lat="43.51992484382647" lon="13.583470586369987"><ele>83.5</ele><time>2026-04-26T15:22:43Z</time></trkpt><trkpt lat="43.5199118075169" lon="13.583561042251482"><ele>84.0</ele><time>2026-04-26T15:22:44Z</time></trkpt><trkpt lat="43.51989308009685" lon="13.583652963177503"><ele>84.33333333333333</ele><time>2026-04-26T15:22:45Z</time></trkpt><trkpt lat="43.519866175318874" lon="13.583756061705602"><ele>84.66666666666667</ele><time>2026-04-26T15:22:46Z</time></trkpt><trkpt lat="43.519827828250996" lon="13.583858269746662"><ele>85.0</ele><time>2026-04-26T15:22:47Z</time></trkpt><trkpt lat="43.51978811189643" lon="13.583949156483472"><ele>85.33333333333334</ele><time>2026-04-26T15:22:48Z</time></trkpt><trkpt lat="43.519752894348436" lon="13.584033989072195"><ele>85.66666666666667</ele><time>2026-04-26T15:22:49Z</time></trkpt><trkpt lat="43.519716677156474" lon="13.584106838173843"><ele>86.0</ele><time>2026-04-26T15:22:50Z</time></trkpt><trkpt lat="43.51965375874437" lon="13.584250727067126"><ele>86.0</ele><time>2026-04-26T15:22:52Z</time></trkpt><trkpt lat="43.51961714121353" lon="13.584325893517034"><ele>86.0</ele><time>2026-04-26T15:22:53Z</time></trkpt><trkpt lat="43.51958241569404" lon="13.584496948440632"><ele>86.0</ele><time>2026-04-26T15:22:55Z</time></trkpt><trkpt lat="43.5195673251735" lon="13.584597508529026"><ele>86.0</ele><time>2026-04-26T15:22:56Z</time></trkpt><trkpt lat="43.519548392926446" lon="13.584690379917012"><ele>86.0</ele><time>2026-04-26T15:22:57Z</time></trkpt><trkpt lat="43.51952048603674" lon="13.58477676867456"><ele>86.0</ele><time>2026-04-26T15:22:58Z</time></trkpt><trkpt lat="43.51947330935695" lon="13.584851987457554"><ele>83.33333333333334</ele><time>2026-04-26T15:22:59Z</time></trkpt><trkpt lat="43.519409945516784" lon="13.58490824896099"><ele>80.66666666666667</ele><time>2026-04-26T15:23:00Z</time></trkpt><trkpt lat="43.51934101115817" lon="13.584949194666567"><ele>78.0</ele><time>2026-04-26T15:23:01Z</time></trkpt><trkpt lat="43.519267632118385" lon="13.584991593035804"><ele>75.33333333333333</ele><time>2026-04-26T15:23:02Z</time></trkpt><trkpt lat="43.519196755639776" lon="13.585044003043844"><ele>72.66666666666666</ele><time>2026-04-26T15:23:03Z</time></trkpt><trkpt lat="43.5191319521071" lon="13.585096192008722"><ele>70.0</ele><time>2026-04-26T15:23:04Z</time></trkpt><trkpt lat="43.51907610872361" lon="13.585141959250192"><ele>70.0</ele><time>2026-04-26T15:23:05Z</time></trkpt><trkpt lat="43.51901297040935" lon="13.585197620953448"><ele>70.0</ele><time>2026-04-26T15:23:06Z</time></trkpt><trkpt lat="43.51895089378378" lon="13.58525228512288"><ele>70.0</ele><time>2026-04-26T15:23:07Z</time></trkpt><trkpt lat="43.51890425378963" lon="13.58532238717941"><ele>70.0</ele><time>2026-04-26T15:23:08Z</time></trkpt><trkpt lat="43.51887429964667" lon="13.585408244347956"><ele>70.0</ele><time>2026-04-26T15:23:09Z</time></trkpt><trkpt lat="43.518845867318795" lon="13.585497606080775"><ele>70.0</ele><time>2026-04-26T15:23:10Z</time></trkpt><trkpt lat="43.51881464660332" lon="13.585579685259836"><ele>70.0</ele><time>2026-04-26T15:23:11Z</time></trkpt><trkpt lat="43.51877310278405" lon="13.58566885724024"><ele>68.83333333333333</ele><time>2026-04-26T15:23:12Z</time></trkpt><trkpt lat="43.51872339471216" lon="13.585730427187915"><ele>67.66666666666666</ele><time>2026-04-26T15:23:13Z</time></trkpt><trkpt lat="43.51860610137604" lon="13.585751819970053"><ele>66.5</ele><time>2026-04-26T15:23:15Z</time></trkpt><trkpt lat="43.518540040554306" lon="13.585761550750071"><ele>65.33333333333333</ele><time>2026-04-26T15:23:16Z</time></trkpt><trkpt lat="43.518472052202696" lon="13.585789646396956"><ele>64.16666666666667</ele><time>2026-04-26T15:23:17Z</time></trkpt><trkpt lat="43.51840482529748" lon="13.585832555543478"><ele>63.0</ele><time>2026-04-26T15:23:18Z</time></trkpt><trkpt lat="43.51834861270321" lon="13.585882205077093"><ele>63.0</ele><time>2026-04-26T15:23:19Z</time></trkpt><trkpt lat="43.51829768771544" lon="13.585937278406803"><ele>63.0</ele><time>2026-04-26T15:23:20Z</time></trkpt><trkpt lat="43.51819651079094" lon="13.586040443823272"><ele>63.0</ele><time>2026-04-26T15:23:22Z</time></trkpt><trkpt lat="43.51813891971941" lon="13.586098851601191"><ele>63.0</ele><time>2026-04-26T15:23:23Z</time></trkpt><trkpt lat="43.518079610506454" lon="13.586160740081688"><ele>63.0</ele><time>2026-04-26T15:23:24Z</time></trkpt><trkpt lat="43.51801852309372" lon="13.586229437385418"><ele>63.0</ele><time>2026-04-26T15:23:25Z</time></trkpt><trkpt lat="43.51795570892116" lon="13.58628996456136"><ele>63.57142857142857</ele><time>2026-04-26T15:23:26Z</time></trkpt><trkpt lat="43.517905167126656" lon="13.58635798177618"><ele>64.14285714285714</ele><time>2026-04-26T15:23:27Z</time></trkpt><trkpt lat="43.51785764862667" lon="13.586426147335734"><ele>64.71428571428572</ele><time>2026-04-26T15:23:28Z</time></trkpt><trkpt lat="43.517814137690266" lon="13.586498953682334"><ele>65.28571428571428</ele><time>2026-04-26T15:23:29Z</time></trkpt><trkpt lat="43.51777360047531" lon="13.586577192258513"><ele>65.85714285714286</ele><time>2026-04-26T15:23:30Z</time></trkpt><trkpt lat="43.517733329949216" lon="13.58665951493943"><ele>66.42857142857143</ele><time>2026-04-26T15:23:31Z</time></trkpt><trkpt lat="43.51768467404371" lon="13.586735800067702"><ele>67.0</ele><time>2026-04-26T15:23:32Z</time></trkpt><trkpt lat="43.5176302907413" lon="13.586812029337798"><ele>67.33333333333333</ele><time>2026-04-26T15:23:33Z</time></trkpt><trkpt lat="43.517573079122606" lon="13.586888187558683"><ele>67.66666666666666</ele><time>2026-04-26T15:23:34Z</time></trkpt><trkpt lat="43.517513601060244" lon="13.586966048429806"><ele>68.0</ele><time>2026-04-26T15:23:35Z</time></trkpt><trkpt lat="43.51745269944843" lon="13.587048619976295"><ele>68.33333333333333</ele><time>2026-04-26T15:23:36Z</time></trkpt><trkpt lat="43.517390185470596" lon="13.587128705438467"><ele>68.66666666666667</ele><time>2026-04-26T15:23:37Z</time></trkpt><trkpt lat="43.51733649299975" lon="13.587205193561868"><ele>69.0</ele><time>2026-04-26T15:23:37.999Z</time></trkpt><trkpt lat="43.51728274369629" lon="13.58727372592797"><ele>70.33333333333333</ele><time>2026-04-26T15:23:38.999Z</time></trkpt><trkpt lat="43.51723334052424" lon="13.587345026985467"><ele>71.66666666666667</ele><time>2026-04-26T15:23:39.999Z</time></trkpt><trkpt lat="43.51718885629116" lon="13.587422996505062"><ele>73.0</ele><time>2026-04-26T15:23:40.999Z</time></trkpt><trkpt lat="43.51715532845824" lon="13.587511720542272"><ele>74.33333333333334</ele><time>2026-04-26T15:23:41.999Z</time></trkpt><trkpt lat="43.517133410363655" lon="13.587611259488272"><ele>75.66666666666667</ele><time>2026-04-26T15:23:42.999Z</time></trkpt><trkpt lat="43.51711016005193" lon="13.58771666051414"><ele>77.0</ele><time>2026-04-26T15:23:43.999Z</time></trkpt><trkpt lat="43.51707939937711" lon="13.587820856194865"><ele>78.66666666666667</ele><time>2026-04-26T15:23:44.999Z</time></trkpt><trkpt lat="43.517048325450425" lon="13.587925981167986"><ele>80.33333333333334</ele><time>2026-04-26T15:23:45.999Z</time></trkpt><trkpt lat="43.517015828503986" lon="13.588029360351605"><ele>82.0</ele><time>2026-04-26T15:23:46.999Z</time></trkpt><trkpt lat="43.51698183810999" lon="13.588131099020977"><ele>83.66666666666667</ele><time>2026-04-26T15:23:47.999Z</time></trkpt><trkpt lat="43.51694810219157" lon="13.588228701687537"><ele>85.33333333333333</ele><time>2026-04-26T15:23:48.999Z</time></trkpt><trkpt lat="43.51691229966987" lon="13.588325430122577"><ele>87.0</ele><time>2026-04-26T15:23:49.999Z</time></trkpt><trkpt lat="43.51687702772354" lon="13.588422664479669"><ele>87.0</ele><time>2026-04-26T15:23:50.999Z</time></trkpt><trkpt lat="43.51683799019345" lon="13.588514641423567"><ele>87.0</ele><time>2026-04-26T15:23:51.999Z</time></trkpt><trkpt lat="43.51680542017982" lon="13.588606731930438"><ele>87.0</ele><time>2026-04-26T15:23:52.999Z</time></trkpt><trkpt lat="43.516774521113156" lon="13.588699203570865"><ele>87.0</ele><time>2026-04-26T15:23:53.999Z</time></trkpt><trkpt lat="43.51674051590994" lon="13.588786387253858"><ele>87.0</ele><time>2026-04-26T15:23:54.999Z</time></trkpt><trkpt lat="43.516709956671434" lon="13.588864817391611"><ele>87.0</ele><time>2026-04-26T15:23:55.999Z</time></trkpt><trkpt lat="43.516689848799764" lon="13.588947548046468"><ele>87.0</ele><time>2026-04-26T15:23:56.999Z</time></trkpt><trkpt lat="43.51668325787389" lon="13.58903590856557"><ele>88.19999999999999</ele><time>2026-04-26T15:23:57.999Z</time></trkpt><trkpt lat="43.516681984304334" lon="13.589137900090437"><ele>89.4</ele><time>2026-04-26T15:23:58.999Z</time></trkpt><trkpt lat="43.51667365226119" lon="13.589255932946223"><ele>90.6</ele><time>2026-04-26T15:23:59.999Z</time></trkpt><trkpt lat="43.516662747479614" lon="13.589392540398237"><ele>91.80000000000001</ele><time>2026-04-26T15:24:00.999Z</time></trkpt><trkpt lat="43.516650961841506" lon="13.58953419040945"><ele>93.0</ele><time>2026-04-26T15:24:01.999Z</time></trkpt><trkpt lat="43.51663112921473" lon="13.589693035667501"><ele>94.5</ele><time>2026-04-26T15:24:02.999Z</time></trkpt><trkpt lat="43.51659927968179" lon="13.589863546690422"><ele>96.0</ele><time>2026-04-26T15:24:03.999Z</time></trkpt><trkpt lat="43.5165637459125" lon="13.590045826698953"><ele>97.5</ele><time>2026-04-26T15:24:04.999Z</time></trkpt><trkpt lat="43.51653229382207" lon="13.59023314373197"><ele>99.0</ele><time>2026-04-26T15:24:05.999Z</time></trkpt><trkpt lat="43.516509488170904" lon="13.590410236771557"><ele>100.5</ele><time>2026-04-26T15:24:06.999Z</time></trkpt><trkpt lat="43.516495855827905" lon="13.590587922756306"><ele>102.0</ele><time>2026-04-26T15:24:07.999Z</time></trkpt><trkpt lat="43.51647761732525" lon="13.590774290252986"><ele>103.5</ele><time>2026-04-26T15:24:08.999Z</time></trkpt><trkpt lat="43.51646235849967" lon="13.59095425917668"><ele>105.0</ele><time>2026-04-26T15:24:09.999Z</time></trkpt><trkpt lat="43.5164472206806" lon="13.591105172056125"><ele>105.8</ele><time>2026-04-26T15:24:10.999Z</time></trkpt><trkpt lat="43.51643774160711" lon="13.591238948913375"><ele>106.6</ele><time>2026-04-26T15:24:11.999Z</time></trkpt><trkpt lat="43.51643894617053" lon="13.591374858119254"><ele>107.4</ele><time>2026-04-26T15:24:12.999Z</time></trkpt><trkpt lat="43.51644962002083" lon="13.59150409553518"><ele>108.2</ele><time>2026-04-26T15:24:13.999Z</time></trkpt><trkpt lat="43.51646822629561" lon="13.591618123799481"><ele>109.0</ele><time>2026-04-26T15:24:14.999Z</time></trkpt><trkpt lat="43.516496239992144" lon="13.59172789484025"><ele>109.0</ele><time>2026-04-26T15:24:15.999Z</time></trkpt><trkpt lat="43.51653515983395" lon="13.591843871586022"><ele>109.0</ele><time>2026-04-26T15:24:16.999Z</time></trkpt><trkpt lat="43.51658216015079" lon="13.591962709373162"><ele>109.0</ele><time>2026-04-26T15:24:17.999Z</time></trkpt><trkpt lat="43.516637710933274" lon="13.592092604147284"><ele>109.0</ele><time>2026-04-26T15:24:18.999Z</time></trkpt><trkpt lat="43.516704532298725" lon="13.592223462371415"><ele>109.0</ele><time>2026-04-26T15:24:19.999Z</time></trkpt><trkpt lat="43.51677512028271" lon="13.592353871658956"><ele>109.0</ele><time>2026-04-26T15:24:20.999Z</time></trkpt><trkpt lat="43.516847779092714" lon="13.592498056036856"><ele>109.0</ele><time>2026-04-26T15:24:21.999Z</time></trkpt><trkpt lat="43.51691711372405" lon="13.592652811710373"><ele>109.0</ele><time>2026-04-26T15:24:22.999Z</time></trkpt><trkpt lat="43.51697983301215" lon="13.592797284233923"><ele>109.0</ele><time>2026-04-26T15:24:23.999Z</time></trkpt><trkpt lat="43.51703588781607" lon="13.592924141077228"><ele>110.2</ele><time>2026-04-26T15:24:24.999Z</time></trkpt><trkpt lat="43.517082233313744" lon="13.593040303403424"><ele>111.4</ele><time>2026-04-26T15:24:25.999Z</time></trkpt><trkpt lat="43.51712092316646" lon="13.593150273752382"><ele>112.6</ele><time>2026-04-26T15:24:26.999Z</time></trkpt><trkpt lat="43.517152769880845" lon="13.593270729441933"><ele>113.8</ele><time>2026-04-26T15:24:27.999Z</time></trkpt><trkpt lat="43.51717757956555" lon="13.593403030448608"><ele>115.0</ele><time>2026-04-26T15:24:28.999Z</time></trkpt><trkpt lat="43.517201230241476" lon="13.59354271206206"><ele>115.5</ele><time>2026-04-26T15:24:29.999Z</time></trkpt><trkpt lat="43.51723243647844" lon="13.593685927653745"><ele>116.0</ele><time>2026-04-26T15:24:30.999Z</time></trkpt><trkpt lat="43.517266591008855" lon="13.593837887471288"><ele>116.5</ele><time>2026-04-26T15:24:31.999Z</time></trkpt><trkpt lat="43.51729939437203" lon="13.593995802261551"><ele>117.0</ele><time>2026-04-26T15:24:32.999Z</time></trkpt><trkpt lat="43.51733519761261" lon="13.59415884301121"><ele>117.0</ele><time>2026-04-26T15:24:33.999Z</time></trkpt><trkpt lat="43.51736641568933" lon="13.594311556556422"><ele>116.99999999999999</ele><time>2026-04-26T15:24:34.999Z</time></trkpt><trkpt lat="43.51738927767291" lon="13.594444274421496"><ele>116.99999999999999</ele><time>2026-04-26T15:24:35.998Z</time></trkpt><trkpt lat="43.51740367370487" lon="13.594547755320404"><ele>117.0</ele><time>2026-04-26T15:24:36.998Z</time></trkpt><trkpt lat="43.517391068380526" lon="13.594668103193111"><ele>117.0</ele><time>2026-04-26T15:24:38.998Z</time></trkpt><trkpt lat="43.5173448998447" lon="13.594748662294691"><ele>118.19999999999999</ele><time>2026-04-26T15:24:40.998Z</time></trkpt><trkpt lat="43.517280041242145" lon="13.594825844627598"><ele>119.39999999999999</ele><time>2026-04-26T15:24:42.998Z</time></trkpt><trkpt lat="43.51718845146746" lon="13.594910187502048"><ele>120.60000000000001</ele><time>2026-04-26T15:24:44.998Z</time></trkpt><trkpt lat="43.51712141156005" lon="13.5949718290991"><ele>121.80000000000001</ele><time>2026-04-26T15:24:45.998Z</time></trkpt><trkpt lat="43.517054740373304" lon="13.595045231698903"><ele>123.0</ele><time>2026-04-26T15:24:46.998Z</time></trkpt><trkpt lat="43.51698503083874" lon="13.595135512847634"><ele>121.0</ele><time>2026-04-26T15:24:48Z</time></trkpt><trkpt lat="43.516913509890976" lon="13.595236897099078"><ele>119.00000000000001</ele><time>2026-04-26T15:24:49Z</time></trkpt><trkpt lat="43.51684777797462" lon="13.5953411052528"><ele>117.00000000000001</ele><time>2026-04-26T15:24:50Z</time></trkpt><trkpt lat="43.51678580285136" lon="13.595447154673618"><ele>115.0</ele><time>2026-04-26T15:24:51Z</time></trkpt><trkpt lat="43.51672348640584" lon="13.595551552749962"><ele>113.0</ele><time>2026-04-26T15:24:52Z</time></trkpt><trkpt lat="43.516652808424745" lon="13.595652436217113"><ele>113.0</ele><time>2026-04-26T15:24:53Z</time></trkpt><trkpt lat="43.51657271014746" lon="13.595748781340824"><ele>113.00000000000001</ele><time>2026-04-26T15:24:54Z</time></trkpt><trkpt lat="43.51648697083312" lon="13.595841873668626"><ele>113.00000000000001</ele><time>2026-04-26T15:24:55Z</time></trkpt><trkpt lat="43.516396763131866" lon="13.595929005901652"><ele>113.0</ele><time>2026-04-26T15:24:56Z</time></trkpt><trkpt lat="43.51630133913523" lon="13.59601991526318"><ele>113.0</ele><time>2026-04-26T15:24:57Z</time></trkpt><trkpt lat="43.516205739357865" lon="13.596110155818248"><ele>112.5</ele><time>2026-04-26T15:24:58Z</time></trkpt><trkpt lat="43.516111881061626" lon="13.596203490302775"><ele>112.0</ele><time>2026-04-26T15:24:59Z</time></trkpt><trkpt lat="43.51601819383598" lon="13.596306069663747"><ele>111.5</ele><time>2026-04-26T15:25:00Z</time></trkpt><trkpt lat="43.51592571130539" lon="13.596411062986972"><ele>111.0</ele><time>2026-04-26T15:25:01Z</time></trkpt><trkpt lat="43.51583459988724" lon="13.596520209281252"><ele>111.0</ele><time>2026-04-26T15:25:02Z</time></trkpt><trkpt lat="43.51574254864089" lon="13.59662853233636"><ele>111.0</ele><time>2026-04-26T15:25:03Z</time></trkpt><trkpt lat="43.515654664051965" lon="13.596736794678872"><ele>111.0</ele><time>2026-04-26T15:25:04Z</time></trkpt><trkpt lat="43.5155632420932" lon="13.596850647766448"><ele>111.0</ele><time>2026-04-26T15:25:05Z</time></trkpt><trkpt lat="43.515466001430916" lon="13.596972266255666"><ele>110.25</ele><time>2026-04-26T15:25:06Z</time></trkpt><trkpt lat="43.515366451488816" lon="13.597088384222326"><ele>109.5</ele><time>2026-04-26T15:25:07Z</time></trkpt><trkpt lat="43.51526768025256" lon="13.597201369480281"><ele>108.75</ele><time>2026-04-26T15:25:08Z</time></trkpt><trkpt lat="43.515169102087015" lon="13.597313375432758"><ele>108.0</ele><time>2026-04-26T15:25:09Z</time></trkpt><trkpt lat="43.51507412506632" lon="13.597422509229457"><ele>108.0</ele><time>2026-04-26T15:25:10Z</time></trkpt><trkpt lat="43.51498307360029" lon="13.597534736073333"><ele>108.0</ele><time>2026-04-26T15:25:11Z</time></trkpt><trkpt lat="43.51489640115629" lon="13.59764761861095"><ele>108.0</ele><time>2026-04-26T15:25:12Z</time></trkpt><trkpt lat="43.51481078425368" lon="13.597745475959957"><ele>108.0</ele><time>2026-04-26T15:25:13Z</time></trkpt><trkpt lat="43.51473151454463" lon="13.597829338037903"><ele>108.0</ele><time>2026-04-26T15:25:14Z</time></trkpt><trkpt lat="43.51464929971918" lon="13.597881955225294"><ele>108.0</ele><time>2026-04-26T15:25:15Z</time></trkpt><trkpt lat="43.51456669256266" lon="13.597891516874284"><ele>108.0</ele><time>2026-04-26T15:25:16Z</time></trkpt><trkpt lat="43.51449117223873" lon="13.59785168353823"><ele>108.0</ele><time>2026-04-26T15:25:17Z</time></trkpt><trkpt lat="43.51443721797803" lon="13.597754896228098"><ele>108.0</ele><time>2026-04-26T15:25:18Z</time></trkpt><trkpt lat="43.51435886120036" lon="13.597704359962174"><ele>108.0</ele><time>2026-04-26T15:25:19Z</time></trkpt><trkpt lat="43.51428378588831" lon="13.5976388004312"><ele>107.83333333333333</ele><time>2026-04-26T15:25:20Z</time></trkpt><trkpt lat="43.51421119733051" lon="13.597579202110701"><ele>107.66666666666666</ele><time>2026-04-26T15:25:21Z</time></trkpt><trkpt lat="43.51413918776222" lon="13.597522512349313"><ele>107.5</ele><time>2026-04-26T15:25:22Z</time></trkpt><trkpt lat="43.51407203407382" lon="13.59747146986902"><ele>107.33333333333333</ele><time>2026-04-26T15:25:23Z</time></trkpt><trkpt lat="43.51400660932759" lon="13.597427348987528"><ele>107.16666666666666</ele><time>2026-04-26T15:25:24Z</time></trkpt><trkpt lat="43.51394171388117" lon="13.5973842839568"><ele>107.0</ele><time>2026-04-26T15:25:25Z</time></trkpt><trkpt lat="43.513875403252776" lon="13.597343439476193"><ele>106.99999999999999</ele><time>2026-04-26T15:25:26Z</time></trkpt><trkpt lat="43.51380237250325" lon="13.597310764863074"><ele>107.0</ele><time>2026-04-26T15:25:27Z</time></trkpt><trkpt lat="43.51372519062235" lon="13.597284890954047"><ele>107.0</ele><time>2026-04-26T15:25:28Z</time></trkpt><trkpt lat="43.513639717495074" lon="13.597265101456278"><ele>107.0</ele><time>2026-04-26T15:25:29Z</time></trkpt><trkpt lat="43.513546892587264" lon="13.597251540373476"><ele>106.99999999999999</ele><time>2026-04-26T15:25:30Z</time></trkpt><trkpt lat="43.513451970093925" lon="13.597245214638276"><ele>107.0</ele><time>2026-04-26T15:25:31Z</time></trkpt><trkpt lat="43.513354337456775" lon="13.597244272929075"><ele>106.0</ele><time>2026-04-26T15:25:32Z</time></trkpt><trkpt lat="43.513253773495144" lon="13.597244358757257"><ele>104.99999999999999</ele><time>2026-04-26T15:25:33Z</time></trkpt><trkpt lat="43.51315153929342" lon="13.597240046925657"><ele>104.0</ele><time>2026-04-26T15:25:34Z</time></trkpt><trkpt lat="43.513047821367095" lon="13.597229453025346"><ele>103.0</ele><time>2026-04-26T15:25:35Z</time></trkpt><trkpt lat="43.51294087752908" lon="13.597212859195958"><ele>102.0</ele><time>2026-04-26T15:25:36Z</time></trkpt><trkpt lat="43.51283488894947" lon="13.597180209315257"><ele>101.39999999999999</ele><time>2026-04-26T15:25:37Z</time></trkpt><trkpt lat="43.51273446434567" lon="13.597114353860018"><ele>100.8</ele><time>2026-04-26T15:25:38Z</time></trkpt><trkpt lat="43.512633303483064" lon="13.597051259953874"><ele>100.2</ele><time>2026-04-26T15:25:38.999Z</time></trkpt><trkpt lat="43.512534345130426" lon="13.59699393591946"><ele>99.6</ele><time>2026-04-26T15:25:39.999Z</time></trkpt><trkpt lat="43.51243773848659" lon="13.596916218517581"><ele>99.0</ele><time>2026-04-26T15:25:40.999Z</time></trkpt><trkpt lat="43.51234027803898" lon="13.596833523495029"><ele>98.25</ele><time>2026-04-26T15:25:41.999Z</time></trkpt><trkpt lat="43.512237626895505" lon="13.596755383577776"><ele>97.5</ele><time>2026-04-26T15:25:42.999Z</time></trkpt><trkpt lat="43.5121327122334" lon="13.596673065070707"><ele>96.75</ele><time>2026-04-26T15:25:43.999Z</time></trkpt><trkpt lat="43.512027644012235" lon="13.596587895332506"><ele>96.0</ele><time>2026-04-26T15:25:44.999Z</time></trkpt><trkpt lat="43.5119207180424" lon="13.596502146750241"><ele>95.25</ele><time>2026-04-26T15:25:45.999Z</time></trkpt><trkpt lat="43.51181285425561" lon="13.596419590263608"><ele>94.5</ele><time>2026-04-26T15:25:46.999Z</time></trkpt><trkpt lat="43.51170260048768" lon="13.596337540927365"><ele>93.75</ele><time>2026-04-26T15:25:47.999Z</time></trkpt><trkpt lat="43.51159024929105" lon="13.596253486503782"><ele>93.0</ele><time>2026-04-26T15:25:48.999Z</time></trkpt><trkpt lat="43.51147651939644" lon="13.596163842494832"><ele>92.25</ele><time>2026-04-26T15:25:49.999Z</time></trkpt><trkpt lat="43.51136263365888" lon="13.596070370168869"><ele>91.5</ele><time>2026-04-26T15:25:50.999Z</time></trkpt><trkpt lat="43.5112486805934" lon="13.595983546951077"><ele>90.75</ele><time>2026-04-26T15:25:51.999Z</time></trkpt><trkpt lat="43.511136884675" lon="13.595897493989307"><ele>90.0</ele><time>2026-04-26T15:25:52.999Z</time></trkpt><trkpt lat="43.51103872175197" lon="13.595792427740328"><ele>90.0</ele><time>2026-04-26T15:25:53.999Z</time></trkpt><trkpt lat="43.5109306113323" lon="13.595732077771496"><ele>90.0</ele><time>2026-04-26T15:25:54.999Z</time></trkpt><trkpt lat="43.510828454341066" lon="13.595665560851169"><ele>90.0</ele><time>2026-04-26T15:25:55.999Z</time></trkpt><trkpt lat="43.51072245646428" lon="13.595624728550922"><ele>90.0</ele><time>2026-04-26T15:25:56.999Z</time></trkpt><trkpt lat="43.510617064298536" lon="13.595606050340303"><ele>90.0</ele><time>2026-04-26T15:25:57.999Z</time></trkpt><trkpt lat="43.51051526269833" lon="13.595593070138422"><ele>90.0</ele><time>2026-04-26T15:25:58.999Z</time></trkpt><trkpt lat="43.510417956285984" lon="13.595584028242492"><ele>90.0</ele><time>2026-04-26T15:25:59.999Z</time></trkpt><trkpt lat="43.51032550898825" lon="13.595580146208203"><ele>90.0</ele><time>2026-04-26T15:26:00.999Z</time></trkpt><trkpt lat="43.510239569142975" lon="13.595586810116698"><ele>90.0</ele><time>2026-04-26T15:26:01.999Z</time></trkpt><trkpt lat="43.51015275547619" lon="13.595606748171017"><ele>90.0</ele><time>2026-04-26T15:26:02.999Z</time></trkpt><trkpt lat="43.51007435541357" lon="13.59562565282418"><ele>90.0</ele><time>2026-04-26T15:26:03.999Z</time></trkpt><trkpt lat="43.50999656089972" lon="13.59563950242446"><ele>89.16666666666667</ele><time>2026-04-26T15:26:04.999Z</time></trkpt><trkpt lat="43.50992157307589" lon="13.595642190003522"><ele>88.33333333333333</ele><time>2026-04-26T15:26:05.999Z</time></trkpt><trkpt lat="43.50984967017683" lon="13.595608486822664"><ele>87.5</ele><time>2026-04-26T15:26:06.999Z</time></trkpt><trkpt lat="43.50977784387441" lon="13.595590630539176"><ele>86.66666666666666</ele><time>2026-04-26T15:26:07.999Z</time></trkpt><trkpt lat="43.50969807767631" lon="13.59556501047329"><ele>85.83333333333333</ele><time>2026-04-26T15:26:08.999Z</time></trkpt><trkpt lat="43.50960160587957" lon="13.595530713060688"><ele>85.0</ele><time>2026-04-26T15:26:09.999Z</time></trkpt><trkpt lat="43.50949655451125" lon="13.59549472328237"><ele>83.6</ele><time>2026-04-26T15:26:10.999Z</time></trkpt><trkpt lat="43.50938157727878" lon="13.595475256417764"><ele>82.2</ele><time>2026-04-26T15:26:11.999Z</time></trkpt><trkpt lat="43.50926847775251" lon="13.595436043326796"><ele>80.8</ele><time>2026-04-26T15:26:12.999Z</time></trkpt><trkpt lat="43.509160517748" lon="13.595401045264916"><ele>79.4</ele><time>2026-04-26T15:26:13.999Z</time></trkpt><trkpt lat="43.50906750747993" lon="13.595372778898273"><ele>78.0</ele><time>2026-04-26T15:26:14.999Z</time></trkpt><trkpt lat="43.508988095320454" lon="13.595345798065736"><ele>78.16666666666667</ele><time>2026-04-26T15:26:15.999Z</time></trkpt><trkpt lat="43.50891040137368" lon="13.595316256361942"><ele>78.33333333333333</ele><time>2026-04-26T15:26:16.999Z</time></trkpt><trkpt lat="43.508834497238105" lon="13.595288244806403"><ele>78.5</ele><time>2026-04-26T15:26:17.999Z</time></trkpt><trkpt lat="43.50875317529073" lon="13.59526019259586"><ele>78.66666666666666</ele><time>2026-04-26T15:26:18.999Z</time></trkpt><trkpt lat="43.50867454759893" lon="13.595232945621957"><ele>78.83333333333333</ele><time>2026-04-26T15:26:19.999Z</time></trkpt><trkpt lat="43.508603245332566" lon="13.595204192859057"><ele>79.0</ele><time>2026-04-26T15:26:20.999Z</time></trkpt><trkpt lat="43.508525283043085" lon="13.59517886425826"><ele>78.66666666666666</ele><time>2026-04-26T15:26:21.999Z</time></trkpt><trkpt lat="43.50844723620035" lon="13.595152678192319"><ele>78.33333333333333</ele><time>2026-04-26T15:26:22.999Z</time></trkpt><trkpt lat="43.508376562664054" lon="13.595128413107508"><ele>78.0</ele><time>2026-04-26T15:26:23.999Z</time></trkpt><trkpt lat="43.508312481683376" lon="13.595106548815302"><ele>77.66666666666667</ele><time>2026-04-26T15:26:24.999Z</time></trkpt><trkpt lat="43.50824981161242" lon="13.595087060553853"><ele>77.33333333333334</ele><time>2026-04-26T15:26:25.999Z</time></trkpt><trkpt lat="43.508133727065584" lon="13.595051548135206"><ele>77.0</ele><time>2026-04-26T15:26:27.999Z</time></trkpt><trkpt lat="43.50807029489005" lon="13.595030045059985"><ele>77.0</ele><time>2026-04-26T15:26:28.999Z</time></trkpt><trkpt lat="43.50800488767449" lon="13.595002154498419"><ele>77.0</ele><time>2026-04-26T15:26:29.999Z</time></trkpt><trkpt lat="43.507940590517606" lon="13.594974318890584"><ele>77.0</ele><time>2026-04-26T15:26:30.999Z</time></trkpt><trkpt lat="43.50787939965857" lon="13.594950555747916"><ele>77.0</ele><time>2026-04-26T15:26:31.999Z</time></trkpt><trkpt lat="43.50779551353209" lon="13.594923050642079"><ele>77.0</ele><time>2026-04-26T15:26:33.999Z</time></trkpt><trkpt lat="43.50773054578235" lon="13.594859672095156"><ele>77.0</ele><time>2026-04-26T15:27:08Z</time></trkpt><trkpt lat="43.50770593043774" lon="13.59473333627349"><ele>77.0</ele><time>2026-04-26T15:27:10Z</time></trkpt><trkpt lat="43.50770798792387" lon="13.59464082633352"><ele>77.0</ele><time>2026-04-26T15:27:11Z</time></trkpt><trkpt lat="43.50771094890577" lon="13.594549731514366"><ele>77.0</ele><time>2026-04-26T15:27:12Z</time></trkpt><trkpt lat="43.5077352191422" lon="13.594465755152237"><ele>77.0</ele><time>2026-04-26T15:27:13Z</time></trkpt><trkpt lat="43.50774522366962" lon="13.594371301602926"><ele>77.0</ele><time>2026-04-26T15:27:14Z</time></trkpt><trkpt lat="43.507756240918084" lon="13.59426728671944"><ele>77.0</ele><time>2026-04-26T15:27:15Z</time></trkpt><trkpt lat="43.507764818898195" lon="13.59415658132183"><ele>77.0</ele><time>2026-04-26T15:27:16Z</time></trkpt><trkpt lat="43.50777372028786" lon="13.594054121614908"><ele>77.2</ele><time>2026-04-26T15:27:17Z</time></trkpt><trkpt lat="43.50779683343327" lon="13.593924170518456"><ele>77.4</ele><time>2026-04-26T15:27:19Z</time></trkpt><trkpt lat="43.50781416024935" lon="13.59382950375068"><ele>77.6</ele><time>2026-04-26T15:27:22Z</time></trkpt><trkpt lat="43.50766081173877" lon="13.593758464954428"><ele>77.8</ele><time>2026-04-26T15:27:24Z</time></trkpt><trkpt lat="43.507552366162" lon="13.5937514906594"><ele>78.0</ele><time>2026-04-26T15:27:26Z</time></trkpt><trkpt lat="43.50744327163168" lon="13.593735762566055"><ele>78.0</ele><time>2026-04-26T15:27:28Z</time></trkpt><trkpt lat="43.507362544407464" lon="13.59371833389853"><ele>78.0</ele><time>2026-04-26T15:27:30Z</time></trkpt><trkpt lat="43.507295380760816" lon="13.593707734330371"><ele>78.0</ele><time>2026-04-26T15:27:35Z</time></trkpt><trkpt lat="43.50722533241499" lon="13.593718558452252"><ele>78.0</ele><time>2026-04-26T15:29:07Z</time></trkpt><trkpt lat="43.50709551719408" lon="13.593712333231858"><ele>78.0</ele><time>2026-04-26T15:29:09Z</time></trkpt><trkpt lat="43.507030271692216" lon="13.59370015609861"><ele>78.0</ele><time>2026-04-26T15:29:10Z</time></trkpt><trkpt lat="43.50696312729624" lon="13.593687073966105"><ele>78.0</ele><time>2026-04-26T15:29:11Z</time></trkpt><trkpt lat="43.5068972505938" lon="13.59367457625685"><ele>78.0</ele><time>2026-04-26T15:29:12Z</time></trkpt><trkpt lat="43.50678740091343" lon="13.59365850095133"><ele>78.0</ele><time>2026-04-26T15:29:14Z</time></trkpt><trkpt lat="43.50674987953817" lon="13.593856537998226"><ele>78.0</ele><time>2026-04-26T15:29:16Z</time></trkpt><trkpt lat="43.50667853100902" lon="13.59398426444128"><ele>78.0</ele><time>2026-04-26T15:29:18Z</time></trkpt><trkpt lat="43.50662671092826" lon="13.59411027474391"><ele>78.8</ele><time>2026-04-26T15:29:20Z</time></trkpt><trkpt lat="43.50659640150463" lon="13.594197449729215"><ele>79.6</ele><time>2026-04-26T15:29:22Z</time></trkpt><trkpt lat="43.506575028820095" lon="13.594292911244874"><ele>80.39999999999999</ele><time>2026-04-26T15:29:26Z</time></trkpt><trkpt lat="43.506544304762045" lon="13.594369661234397"><ele>81.19999999999999</ele><time>2026-04-26T15:29:29Z</time></trkpt><trkpt lat="43.50635437162516" lon="13.594298341491992"><ele>82.0</ele><time>2026-04-26T15:29:32Z</time></trkpt><trkpt lat="43.50628620339723" lon="13.594251973734627"><ele>83.16666666666666</ele><time>2026-04-26T15:29:33Z</time></trkpt><trkpt lat="43.506215407881" lon="13.59421180942205"><ele>84.33333333333333</ele><time>2026-04-26T15:29:34Z</time></trkpt><trkpt lat="43.50613978059001" lon="13.594172741892372"><ele>85.5</ele><time>2026-04-26T15:29:35Z</time></trkpt><trkpt lat="43.50605597995818" lon="13.59413570120519"><ele>86.66666666666667</ele><time>2026-04-26T15:29:36Z</time></trkpt><trkpt lat="43.50596972094394" lon="13.594096530819684"><ele>87.83333333333334</ele><time>2026-04-26T15:29:37Z</time></trkpt><trkpt lat="43.505882123774846" lon="13.594055465497703"><ele>89.0</ele><time>2026-04-26T15:29:38Z</time></trkpt><trkpt lat="43.50580094106219" lon="13.594011321713952"><ele>89.0</ele><time>2026-04-26T15:29:39Z</time></trkpt><trkpt lat="43.50572235535346" lon="13.593960631083538"><ele>89.0</ele><time>2026-04-26T15:29:40Z</time></trkpt><trkpt lat="43.50564920231575" lon="13.593906304633121"><ele>89.0</ele><time>2026-04-26T15:29:41Z</time></trkpt><trkpt lat="43.50558171269174" lon="13.593852863067982"><ele>89.0</ele><time>2026-04-26T15:29:42Z</time></trkpt><trkpt lat="43.50552120338566" lon="13.593796634634401"><ele>89.0</ele><time>2026-04-26T15:29:43Z</time></trkpt><trkpt lat="43.50546656817" lon="13.593724079571695"><ele>89.0</ele><time>2026-04-26T15:29:44Z</time></trkpt><trkpt lat="43.505402774966136" lon="13.593672106486204"><ele>88.33333333333334</ele><time>2026-04-26T15:29:44.999Z</time></trkpt><trkpt lat="43.50533281479902" lon="13.593627542496145"><ele>87.66666666666667</ele><time>2026-04-26T15:29:45.999Z</time></trkpt><trkpt lat="43.50526096216102" lon="13.593578756813086"><ele>87.0</ele><time>2026-04-26T15:29:46.999Z</time></trkpt><trkpt lat="43.5051850084339" lon="13.59352346074348"><ele>86.33333333333333</ele><time>2026-04-26T15:29:47.999Z</time></trkpt><trkpt lat="43.5051169876761" lon="13.593437288903573"><ele>85.66666666666666</ele><time>2026-04-26T15:29:48.999Z</time></trkpt><trkpt lat="43.50503001137827" lon="13.593361319783254"><ele>85.0</ele><time>2026-04-26T15:29:49.999Z</time></trkpt><trkpt lat="43.5049345908181" lon="13.593278046175667"><ele>85.0</ele><time>2026-04-26T15:29:50.999Z</time></trkpt><trkpt lat="43.50484220354543" lon="13.593199362521327"><ele>85.0</ele><time>2026-04-26T15:29:51.999Z</time></trkpt><trkpt lat="43.504743820070374" lon="13.593138318875939"><ele>85.0</ele><time>2026-04-26T15:29:52.999Z</time></trkpt><trkpt lat="43.504659465836895" lon="13.593049281940651"><ele>85.0</ele><time>2026-04-26T15:29:53.999Z</time></trkpt><trkpt lat="43.504575523970814" lon="13.592961822114674"><ele>85.0</ele><time>2026-04-26T15:29:54.999Z</time></trkpt><trkpt lat="43.50450042432027" lon="13.592862310613416"><ele>83.2</ele><time>2026-04-26T15:29:55.999Z</time></trkpt><trkpt lat="43.50442960782671" lon="13.592750949843577"><ele>81.4</ele><time>2026-04-26T15:29:56.999Z</time></trkpt><trkpt lat="43.5043786671759" lon="13.592615755128383"><ele>79.6</ele><time>2026-04-26T15:29:57.999Z</time></trkpt><trkpt lat="43.504310883570525" lon="13.592521051106802"><ele>77.8</ele><time>2026-04-26T15:29:58.999Z</time></trkpt><trkpt lat="43.50425438674329" lon="13.592435582980485"><ele>76.0</ele><time>2026-04-26T15:29:59.999Z</time></trkpt><trkpt lat="43.504207166235915" lon="13.592358449356448"><ele>76.0</ele><time>2026-04-26T15:30:00.999Z</time></trkpt><trkpt lat="43.504139168035394" lon="13.592313026330082"><ele>76.0</ele><time>2026-04-26T15:30:01.999Z</time></trkpt><trkpt lat="43.50405588590554" lon="13.592326383976957"><ele>76.0</ele><time>2026-04-26T15:30:02.999Z</time></trkpt><trkpt lat="43.5039699762215" lon="13.592358834653385"><ele>76.0</ele><time>2026-04-26T15:30:03.999Z</time></trkpt><trkpt lat="43.50387246567421" lon="13.592406408754167"><ele>76.0</ele><time>2026-04-26T15:30:04.999Z</time></trkpt><trkpt lat="43.50375947721153" lon="13.592462258903627"><ele>74.0</ele><time>2026-04-26T15:30:05.999Z</time></trkpt><trkpt lat="43.503637303126006" lon="13.59251886196953"><ele>72.0</ele><time>2026-04-26T15:30:06.999Z</time></trkpt><trkpt lat="43.50350003759477" lon="13.592554101850935"><ele>70.0</ele><time>2026-04-26T15:30:07.999Z</time></trkpt><trkpt lat="43.503355976562595" lon="13.592632241792556"><ele>68.0</ele><time>2026-04-26T15:30:08.999Z</time></trkpt><trkpt lat="43.50319731054417" lon="13.592679794837224"><ele>68.0</ele><time>2026-04-26T15:30:09.999Z</time></trkpt><trkpt lat="43.50303236982919" lon="13.59273556198165"><ele>68.0</ele><time>2026-04-26T15:30:10.999Z</time></trkpt><trkpt lat="43.50286845536657" lon="13.592799259631429"><ele>68.0</ele><time>2026-04-26T15:30:11.999Z</time></trkpt><trkpt lat="43.50269683970283" lon="13.592867210829155"><ele>67.0</ele><time>2026-04-26T15:30:12.999Z</time></trkpt><trkpt lat="43.50252149506803" lon="13.592932682267522"><ele>66.0</ele><time>2026-04-26T15:30:13.999Z</time></trkpt><trkpt lat="43.50234771136466" lon="13.59300043721576"><ele>65.0</ele><time>2026-04-26T15:30:14.999Z</time></trkpt><trkpt lat="43.5021811222157" lon="13.593069073487536"><ele>63.333333333333336</ele><time>2026-04-26T15:30:15.999Z</time></trkpt><trkpt lat="43.50202125319287" lon="13.593140515130019"><ele>61.66666666666667</ele><time>2026-04-26T15:30:16.999Z</time></trkpt><trkpt lat="43.50186470986269" lon="13.593210517484557"><ele>60.0</ele><time>2026-04-26T15:30:17.999Z</time></trkpt><trkpt lat="43.50170402424561" lon="13.593271034777159"><ele>60.0</ele><time>2026-04-26T15:30:18.999Z</time></trkpt><trkpt lat="43.50154228646298" lon="13.59332863228087"><ele>60.0</ele><time>2026-04-26T15:30:19.999Z</time></trkpt><trkpt lat="43.50138398751777" lon="13.593392114329397"><ele>60.0</ele><time>2026-04-26T15:30:20.999Z</time></trkpt><trkpt lat="43.50123194552706" lon="13.593457900984262"><ele>58.66666666666667</ele><time>2026-04-26T15:30:21.999Z</time></trkpt><trkpt lat="43.501088021555404" lon="13.593524869945783"><ele>57.333333333333336</ele><time>2026-04-26T15:30:22.999Z</time></trkpt><trkpt lat="43.50094456034189" lon="13.593593513698771"><ele>56.0</ele><time>2026-04-26T15:30:23.999Z</time></trkpt><trkpt lat="43.50079346174172" lon="13.59366312020943"><ele>56.0</ele><time>2026-04-26T15:30:24.999Z</time></trkpt><trkpt lat="43.50064759182082" lon="13.59373702030922"><ele>56.0</ele><time>2026-04-26T15:30:25.999Z</time></trkpt><trkpt lat="43.500510286811625" lon="13.593812986009498"><ele>56.0</ele><time>2026-04-26T15:30:26.999Z</time></trkpt><trkpt lat="43.50037884350708" lon="13.593887021126001"><ele>56.0</ele><time>2026-04-26T15:30:27.999Z</time></trkpt><trkpt lat="43.5002587092082" lon="13.5939600364591"><ele>56.0</ele><time>2026-04-26T15:30:28.999Z</time></trkpt><trkpt lat="43.50014686964813" lon="13.594042508151277"><ele>56.0</ele><time>2026-04-26T15:30:29.999Z</time></trkpt><trkpt lat="43.500044625416464" lon="13.594138387002692"><ele>56.0</ele><time>2026-04-26T15:30:30.999Z</time></trkpt><trkpt lat="43.49993737303486" lon="13.594232981317319"><ele>56.0</ele><time>2026-04-26T15:30:31.999Z</time></trkpt><trkpt lat="43.499823068158626" lon="13.594302534347213"><ele>56.0</ele><time>2026-04-26T15:30:32.999Z</time></trkpt><trkpt lat="43.499709982533105" lon="13.594363140612574"><ele>56.0</ele><time>2026-04-26T15:30:33.999Z</time></trkpt><trkpt lat="43.499605680628015" lon="13.594424259944441"><ele>56.0</ele><time>2026-04-26T15:30:34.999Z</time></trkpt><trkpt lat="43.499508897953916" lon="13.594493874817253"><ele>56.0</ele><time>2026-04-26T15:30:35.999Z</time></trkpt><trkpt lat="43.4994135340151" lon="13.594564374895608"><ele>56.75</ele><time>2026-04-26T15:30:36.999Z</time></trkpt><trkpt lat="43.49932093625808" lon="13.594625609709936"><ele>57.5</ele><time>2026-04-26T15:30:37.999Z</time></trkpt><trkpt lat="43.499221666069616" lon="13.594704597903068"><ele>58.25</ele><time>2026-04-26T15:30:38.999Z</time></trkpt><trkpt lat="43.49911852150549" lon="13.594803288856339"><ele>59.0</ele><time>2026-04-26T15:30:39.999Z</time></trkpt><trkpt lat="43.4990113186998" lon="13.594918191742005"><ele>59.0</ele><time>2026-04-26T15:30:40.999Z</time></trkpt><trkpt lat="43.498901574448" lon="13.595041253565746"><ele>59.0</ele><time>2026-04-26T15:30:41.998Z</time></trkpt><trkpt lat="43.49879046931759" lon="13.595174452780759"><ele>59.0</ele><time>2026-04-26T15:30:42.998Z</time></trkpt><trkpt lat="43.498680014134415" lon="13.595306849475618"><ele>59.0</ele><time>2026-04-26T15:30:43.998Z</time></trkpt><trkpt lat="43.49857311192485" lon="13.595432634759613"><ele>57.5</ele><time>2026-04-26T15:30:44.998Z</time></trkpt><trkpt lat="43.49846743701488" lon="13.595555728644065"><ele>56.0</ele><time>2026-04-26T15:30:45.998Z</time></trkpt><trkpt lat="43.49836501184851" lon="13.595679226701192"><ele>54.5</ele><time>2026-04-26T15:30:46.998Z</time></trkpt><trkpt lat="43.498255159910215" lon="13.59580413976652"><ele>53.0</ele><time>2026-04-26T15:30:47.998Z</time></trkpt><trkpt lat="43.49814841580078" lon="13.595926931957072"><ele>53.0</ele><time>2026-04-26T15:30:48.998Z</time></trkpt><trkpt lat="43.49804576846857" lon="13.596045458354125"><ele>53.0</ele><time>2026-04-26T15:30:49.998Z</time></trkpt><trkpt lat="43.49795172643005" lon="13.596158216220028"><ele>53.0</ele><time>2026-04-26T15:30:50.998Z</time></trkpt><trkpt lat="43.49786250888235" lon="13.596267775475402"><ele>53.0</ele><time>2026-04-26T15:30:51.998Z</time></trkpt><trkpt lat="43.497778994369156" lon="13.596381484044013"><ele>52.5</ele><time>2026-04-26T15:30:52.998Z</time></trkpt><trkpt lat="43.49769433040222" lon="13.596491588633908"><ele>52.0</ele><time>2026-04-26T15:30:53.998Z</time></trkpt><trkpt lat="43.497600843994476" lon="13.596597275332426"><ele>51.5</ele><time>2026-04-26T15:30:54.998Z</time></trkpt><trkpt lat="43.49750256580813" lon="13.596700880596794"><ele>51.0</ele><time>2026-04-26T15:30:55.998Z</time></trkpt><trkpt lat="43.497401581544516" lon="13.596797800540063"><ele>51.0</ele><time>2026-04-26T15:30:56.998Z</time></trkpt><trkpt lat="43.49729904325403" lon="13.596880080557808"><ele>51.0</ele><time>2026-04-26T15:30:57.998Z</time></trkpt><trkpt lat="43.4971947019178" lon="13.596961333352352"><ele>51.0</ele><time>2026-04-26T15:30:58.998Z</time></trkpt><trkpt lat="43.49708740212277" lon="13.597059136840915"><ele>51.0</ele><time>2026-04-26T15:30:59.998Z</time></trkpt><trkpt lat="43.4969772236593" lon="13.597163008046959"><ele>52.25</ele><time>2026-04-26T15:31:00.998Z</time></trkpt><trkpt lat="43.496864842671805" lon="13.597265180298539"><ele>53.5</ele><time>2026-04-26T15:31:01.998Z</time></trkpt><trkpt lat="43.49675526035622" lon="13.597356833460994"><ele>54.75</ele><time>2026-04-26T15:31:02.998Z</time></trkpt><trkpt lat="43.496661823388685" lon="13.59743808174221"><ele>56.0</ele><time>2026-04-26T15:31:03.998Z</time></trkpt><trkpt lat="43.49657144830902" lon="13.597521516953163"><ele>56.0</ele><time>2026-04-26T15:31:05Z</time></trkpt><trkpt lat="43.4964755567756" lon="13.597607774567086"><ele>56.0</ele><time>2026-04-26T15:31:06Z</time></trkpt><trkpt lat="43.496370795300884" lon="13.597688732918218"><ele>56.0</ele><time>2026-04-26T15:31:07Z</time></trkpt><trkpt lat="43.49625914702269" lon="13.597771044407828"><ele>56.0</ele><time>2026-04-26T15:31:08Z</time></trkpt><trkpt lat="43.49614602762471" lon="13.597854035997631"><ele>56.25</ele><time>2026-04-26T15:31:09Z</time></trkpt><trkpt lat="43.49602989595125" lon="13.597938928982277"><ele>56.5</ele><time>2026-04-26T15:31:10Z</time></trkpt><trkpt lat="43.495915230098035" lon="13.598023562887278"><ele>56.75</ele><time>2026-04-26T15:31:11Z</time></trkpt><trkpt lat="43.495801530733935" lon="13.598110728463174"><ele>57.0</ele><time>2026-04-26T15:31:12Z</time></trkpt><trkpt lat="43.49569163965452" lon="13.598187172880046"><ele>57.0</ele><time>2026-04-26T15:31:13Z</time></trkpt><trkpt lat="43.49558734690989" lon="13.598253424179962"><ele>57.0</ele><time>2026-04-26T15:31:14Z</time></trkpt><trkpt lat="43.49548323986954" lon="13.598329030547635"><ele>57.0</ele><time>2026-04-26T15:31:15Z</time></trkpt><trkpt lat="43.4953763466157" lon="13.598416041349662"><ele>57.0</ele><time>2026-04-26T15:31:16Z</time></trkpt><trkpt lat="43.495268526705246" lon="13.598511451088413"><ele>56.8</ele><time>2026-04-26T15:31:17Z</time></trkpt><trkpt lat="43.49516407399103" lon="13.598609387030864"><ele>56.6</ele><time>2026-04-26T15:31:18Z</time></trkpt><trkpt lat="43.49507215205884" lon="13.598703758274901"><ele>56.39999999999999</ele><time>2026-04-26T15:31:19Z</time></trkpt><trkpt lat="43.49498791390032" lon="13.598792390186096"><ele>56.199999999999996</ele><time>2026-04-26T15:31:20Z</time></trkpt><trkpt lat="43.49490888978975" lon="13.598878003701843"><ele>56.0</ele><time>2026-04-26T15:31:21Z</time></trkpt><trkpt lat="43.49483421580994" lon="13.598963189275256"><ele>57.199999999999996</ele><time>2026-04-26T15:31:22Z</time></trkpt><trkpt lat="43.49476427094236" lon="13.599052111792082"><ele>58.39999999999999</ele><time>2026-04-26T15:31:23Z</time></trkpt><trkpt lat="43.49469520866015" lon="13.599130356747004"><ele>59.6</ele><time>2026-04-26T15:31:24Z</time></trkpt><trkpt lat="43.49463113922287" lon="13.599226293449455"><ele>60.8</ele><time>2026-04-26T15:31:25Z</time></trkpt><trkpt lat="43.494586865552655" lon="13.599344907917594"><ele>62.0</ele><time>2026-04-26T15:31:26Z</time></trkpt><trkpt lat="43.49455482993188" lon="13.599463129095351"><ele>63.6</ele><time>2026-04-26T15:31:27Z</time></trkpt><trkpt lat="43.49451758266281" lon="13.599592289091147"><ele>65.2</ele><time>2026-04-26T15:31:28Z</time></trkpt><trkpt lat="43.49446873883143" lon="13.599720445575233"><ele>66.8</ele><time>2026-04-26T15:31:29Z</time></trkpt><trkpt lat="43.494410929684804" lon="13.599834686454567"><ele>68.4</ele><time>2026-04-26T15:31:30Z</time></trkpt><trkpt lat="43.49434332421886" lon="13.599930196741333"><ele>70.0</ele><time>2026-04-26T15:31:31Z</time></trkpt><trkpt lat="43.49426787538803" lon="13.600005154286718"><ele>70.0</ele><time>2026-04-26T15:31:32Z</time></trkpt><trkpt lat="43.494189686654636" lon="13.600077466405786"><ele>70.0</ele><time>2026-04-26T15:31:33Z</time></trkpt><trkpt lat="43.49411149915385" lon="13.600151336967667"><ele>70.0</ele><time>2026-04-26T15:31:34Z</time></trkpt><trkpt lat="43.494031240447235" lon="13.600215777361948"><ele>70.0</ele><time>2026-04-26T15:31:35Z</time></trkpt><trkpt lat="43.49395750983388" lon="13.600271812907971"><ele>70.0</ele><time>2026-04-26T15:31:36Z</time></trkpt><trkpt lat="43.49389842912266" lon="13.600308468699213"><ele>70.0</ele><time>2026-04-26T15:31:37Z</time></trkpt><trkpt lat="43.493837642789686" lon="13.600348805264105"><ele>69.71428571428571</ele><time>2026-04-26T15:31:39Z</time></trkpt><trkpt lat="43.493780102915004" lon="13.600402522058394"><ele>69.42857142857143</ele><time>2026-04-26T15:31:42Z</time></trkpt><trkpt lat="43.493781131602425" lon="13.600526939201513"><ele>69.14285714285714</ele><time>2026-04-26T15:31:43Z</time></trkpt><trkpt lat="43.49377954817483" lon="13.60063686852478"><ele>68.85714285714286</ele><time>2026-04-26T15:31:43.999Z</time></trkpt><trkpt lat="43.49377606093547" lon="13.60073549731421"><ele>68.57142857142857</ele><time>2026-04-26T15:31:44.999Z</time></trkpt><trkpt lat="43.49376206116395" lon="13.600829359062601"><ele>68.28571428571428</ele><time>2026-04-26T15:31:45.999Z</time></trkpt><trkpt lat="43.493739701303774" lon="13.600917344430647"><ele>68.0</ele><time>2026-04-26T15:31:46.999Z</time></trkpt><trkpt lat="43.49366072457362" lon="13.601055084165427"><ele>68.0</ele><time>2026-04-26T15:31:48.999Z</time></trkpt><trkpt lat="43.49359484000694" lon="13.601125027077712"><ele>68.0</ele><time>2026-04-26T15:31:49.999Z</time></trkpt><trkpt lat="43.493503580978384" lon="13.601197824565192"><ele>68.0</ele><time>2026-04-26T15:31:50.999Z</time></trkpt><trkpt lat="43.493410015011655" lon="13.60126485876701"><ele>68.0</ele><time>2026-04-26T15:31:51.999Z</time></trkpt><trkpt lat="43.49329723274715" lon="13.601335373122392"><ele>68.0</ele><time>2026-04-26T15:31:52.999Z</time></trkpt><trkpt lat="43.49317657878066" lon="13.60142380796916"><ele>67.66666666666667</ele><time>2026-04-26T15:31:53.999Z</time></trkpt><trkpt lat="43.49305124381151" lon="13.601520095386388"><ele>67.33333333333333</ele><time>2026-04-26T15:31:54.999Z</time></trkpt><trkpt lat="43.492915084765535" lon="13.601623576623767"><ele>67.0</ele><time>2026-04-26T15:31:55.999Z</time></trkpt><trkpt lat="43.49277967102616" lon="13.601716711929015"><ele>64.0</ele><time>2026-04-26T15:31:56.999Z</time></trkpt><trkpt lat="43.49264202893501" lon="13.601817020312955"><ele>61.0</ele><time>2026-04-26T15:31:57.999Z</time></trkpt><trkpt lat="43.49249852739066" lon="13.601925343787608"><ele>58.0</ele><time>2026-04-26T15:31:58.999Z</time></trkpt><trkpt lat="43.492350538804025" lon="13.602035988558882"><ele>57.33333333333333</ele><time>2026-04-26T15:31:59.999Z</time></trkpt><trkpt lat="43.49219786810287" lon="13.6021446916446"><ele>56.66666666666667</ele><time>2026-04-26T15:32:00.999Z</time></trkpt><trkpt lat="43.49204143811962" lon="13.6022548243119"><ele>56.0</ele><time>2026-04-26T15:32:01.999Z</time></trkpt><trkpt lat="43.49188453243067" lon="13.602366027642834"><ele>54.0</ele><time>2026-04-26T15:32:02.999Z</time></trkpt><trkpt lat="43.49172540323307" lon="13.602479037746228"><ele>52.0</ele><time>2026-04-26T15:32:03.999Z</time></trkpt><trkpt lat="43.4915658095114" lon="13.602593042080345"><ele>50.0</ele><time>2026-04-26T15:32:04.999Z</time></trkpt><trkpt lat="43.491410725165586" lon="13.602704730999507"><ele>50.0</ele><time>2026-04-26T15:32:05.999Z</time></trkpt><trkpt lat="43.49126005672567" lon="13.60281465236644"><ele>50.0</ele><time>2026-04-26T15:32:06.999Z</time></trkpt><trkpt lat="43.49111312832384" lon="13.602922899430158"><ele>50.0</ele><time>2026-04-26T15:32:07.999Z</time></trkpt><trkpt lat="43.49096843202748" lon="13.603029151547233"><ele>48.0</ele><time>2026-04-26T15:32:08.999Z</time></trkpt><trkpt lat="43.4908213223065" lon="13.603136520163531"><ele>46.0</ele><time>2026-04-26T15:32:09.999Z</time></trkpt><trkpt lat="43.49067274861489" lon="13.603240174908368"><ele>44.0</ele><time>2026-04-26T15:32:10.999Z</time></trkpt><trkpt lat="43.49052248045998" lon="13.603339806719486"><ele>42.33333333333333</ele><time>2026-04-26T15:32:11.999Z</time></trkpt><trkpt lat="43.49037466472124" lon="13.603450061967672"><ele>40.666666666666664</ele><time>2026-04-26T15:32:12.999Z</time></trkpt><trkpt lat="43.49022581724668" lon="13.603560025148074"><ele>39.0</ele><time>2026-04-26T15:32:13.999Z</time></trkpt><trkpt lat="43.49007543358276" lon="13.60367261227452"><ele>39.0</ele><time>2026-04-26T15:32:14.999Z</time></trkpt><trkpt lat="43.489927813408734" lon="13.60377762712063"><ele>39.0</ele><time>2026-04-26T15:32:15.999Z</time></trkpt><trkpt lat="43.48977972160821" lon="13.603883610018073"><ele>39.0</ele><time>2026-04-26T15:32:16.999Z</time></trkpt><trkpt lat="43.48963454793626" lon="13.603988709130448"><ele>37.333333333333336</ele><time>2026-04-26T15:32:17.999Z</time></trkpt><trkpt lat="43.489488674062564" lon="13.604090816319763"><ele>35.66666666666667</ele><time>2026-04-26T15:32:18.999Z</time></trkpt><trkpt lat="43.48935215659954" lon="13.604188285967135"><ele>34.0</ele><time>2026-04-26T15:32:19.999Z</time></trkpt><trkpt lat="43.489217390520935" lon="13.604286276263261"><ele>34.0</ele><time>2026-04-26T15:32:20.999Z</time></trkpt><trkpt lat="43.48908340833193" lon="13.604387342118308"><ele>34.0</ele><time>2026-04-26T15:32:21.999Z</time></trkpt><trkpt lat="43.4889433322173" lon="13.604492435890947"><ele>34.0</ele><time>2026-04-26T15:32:22.999Z</time></trkpt><trkpt lat="43.48880261457381" lon="13.60459283391878"><ele>33.0</ele><time>2026-04-26T15:32:23.999Z</time></trkpt><trkpt lat="43.48865726648661" lon="13.604698244010384"><ele>32.0</ele><time>2026-04-26T15:32:24.999Z</time></trkpt><trkpt lat="43.4885126810712" lon="13.604802588253904"><ele>31.0</ele><time>2026-04-26T15:32:25.999Z</time></trkpt><trkpt lat="43.488366699971024" lon="13.604908963608462"><ele>31.0</ele><time>2026-04-26T15:32:26.999Z</time></trkpt><trkpt lat="43.48821933169385" lon="13.60501527591242"><ele>31.0</ele><time>2026-04-26T15:32:27.999Z</time></trkpt><trkpt lat="43.48807102188536" lon="13.605119274326139"><ele>31.0</ele><time>2026-04-26T15:32:28.999Z</time></trkpt><trkpt lat="43.4879245635078" lon="13.60522198521682"><ele>30.0</ele><time>2026-04-26T15:32:29.999Z</time></trkpt><trkpt lat="43.4877831000894" lon="13.60532431967884"><ele>29.0</ele><time>2026-04-26T15:32:30.999Z</time></trkpt><trkpt lat="43.48764442156398" lon="13.605429104588296"><ele>28.0</ele><time>2026-04-26T15:32:31.999Z</time></trkpt><trkpt lat="43.48751419009511" lon="13.605532918469578"><ele>28.0</ele><time>2026-04-26T15:32:32.999Z</time></trkpt><trkpt lat="43.48738318472584" lon="13.605607512008312"><ele>28.0</ele><time>2026-04-26T15:32:33.999Z</time></trkpt><trkpt lat="43.48727051502104" lon="13.605712481121472"><ele>28.0</ele><time>2026-04-26T15:32:34.999Z</time></trkpt><trkpt lat="43.48714473221444" lon="13.60579035928013"><ele>28.0</ele><time>2026-04-26T15:32:35.999Z</time></trkpt><trkpt lat="43.48701568613414" lon="13.605876650962102"><ele>26.0</ele><time>2026-04-26T15:32:36.999Z</time></trkpt><trkpt lat="43.486885437608315" lon="13.60597121338336"><ele>24.0</ele><time>2026-04-26T15:32:37.999Z</time></trkpt><trkpt lat="43.48675694890197" lon="13.606066824944477"><ele>22.0</ele><time>2026-04-26T15:32:38.999Z</time></trkpt><trkpt lat="43.486626859233176" lon="13.606161898468802"><ele>20.0</ele><time>2026-04-26T15:32:39.999Z</time></trkpt><trkpt lat="43.48649933294706" lon="13.606252053473742"><ele>20.0</ele><time>2026-04-26T15:32:40.999Z</time></trkpt><trkpt lat="43.48637111902506" lon="13.606341860229776"><ele>20.0</ele><time>2026-04-26T15:32:41.998Z</time></trkpt><trkpt lat="43.48625259836382" lon="13.60642625852463"><ele>20.0</ele><time>2026-04-26T15:32:42.998Z</time></trkpt><trkpt lat="43.48614313960897" lon="13.606505202280074"><ele>20.0</ele><time>2026-04-26T15:32:43.998Z</time></trkpt><trkpt lat="43.4860514719086" lon="13.606573626105058"><ele>19.5</ele><time>2026-04-26T15:32:44.998Z</time></trkpt><trkpt lat="43.48597201381016" lon="13.606636439002594"><ele>19.0</ele><time>2026-04-26T15:32:45.998Z</time></trkpt><trkpt lat="43.48590680005732" lon="13.606686461126056"><ele>18.5</ele><time>2026-04-26T15:32:46.998Z</time></trkpt><trkpt lat="43.485798498091256" lon="13.606694435817818"><ele>18.0</ele><time>2026-04-26T15:32:48.998Z</time></trkpt><trkpt lat="43.48578033281178" lon="13.606603019881609"><ele>17.5</ele><time>2026-04-26T15:32:49.998Z</time></trkpt><trkpt lat="43.485719040413166" lon="13.60654323836017"><ele>17.0</ele><time>2026-04-26T15:32:50.998Z</time></trkpt><trkpt lat="43.48566629178696" lon="13.606446123686771"><ele>17.0</ele><time>2026-04-26T15:32:51.998Z</time></trkpt><trkpt lat="43.48560103526375" lon="13.606361934783992"><ele>17.0</ele><time>2026-04-26T15:32:52.998Z</time></trkpt><trkpt lat="43.48553448485317" lon="13.606312622788542"><ele>17.0</ele><time>2026-04-26T15:32:53.998Z</time></trkpt><trkpt lat="43.48547694854656" lon="13.606265509246091"><ele>17.0</ele><time>2026-04-26T15:32:54.998Z</time></trkpt><trkpt lat="43.48536737101488" lon="13.606449019501287"><ele>17.0</ele><time>2026-04-26T15:32:56.998Z</time></trkpt><trkpt lat="43.48533486873474" lon="13.606532712652015"><ele>17.166666666666668</ele><time>2026-04-26T15:32:57.998Z</time></trkpt><trkpt lat="43.48529534640996" lon="13.606619283336656"><ele>17.333333333333336</ele><time>2026-04-26T15:32:58.998Z</time></trkpt><trkpt lat="43.48525093834686" lon="13.60670932881689"><ele>17.5</ele><time>2026-04-26T15:32:59.998Z</time></trkpt><trkpt lat="43.485197305174296" lon="13.60678844057912"><ele>17.666666666666668</ele><time>2026-04-26T15:33:00.998Z</time></trkpt><trkpt lat="43.48515486243933" lon="13.606857943289327"><ele>17.833333333333332</ele><time>2026-04-26T15:33:01.998Z</time></trkpt><trkpt lat="43.485100099283315" lon="13.606932389140113"><ele>18.0</ele><time>2026-04-26T15:33:03.998Z</time></trkpt><trkpt lat="43.48503963226068" lon="13.607014062692127"><ele>18.0</ele><time>2026-04-26T15:33:13Z</time></trkpt><trkpt lat="43.48491075948543" lon="13.606918053117578"><ele>18.0</ele><time>2026-04-26T15:33:14Z</time></trkpt><trkpt lat="43.48482153610789" lon="13.606874959428815"><ele>18.0</ele><time>2026-04-26T15:33:15Z</time></trkpt><trkpt lat="43.48471377075119" lon="13.60681465431153"><ele>18.0</ele><time>2026-04-26T15:33:16Z</time></trkpt><trkpt lat="43.48458921632071" lon="13.606747428116131"><ele>17.0</ele><time>2026-04-26T15:33:17Z</time></trkpt><trkpt lat="43.484461284100846" lon="13.606679159333655"><ele>16.0</ele><time>2026-04-26T15:33:18Z</time></trkpt><trkpt lat="43.48432019110259" lon="13.606602242023161"><ele>15.0</ele><time>2026-04-26T15:33:19Z</time></trkpt><trkpt lat="43.48416950323182" lon="13.60651426772111"><ele>15.0</ele><time>2026-04-26T15:33:20Z</time></trkpt><trkpt lat="43.484018681660146" lon="13.60643209178417"><ele>15.0</ele><time>2026-04-26T15:33:21Z</time></trkpt><trkpt lat="43.48387137083534" lon="13.606360859281788"><ele>15.0</ele><time>2026-04-26T15:33:22Z</time></trkpt><trkpt lat="43.483728508454746" lon="13.606283205042711"><ele>14.0</ele><time>2026-04-26T15:33:23Z</time></trkpt><trkpt lat="43.48359312627124" lon="13.60617582251169"><ele>13.0</ele><time>2026-04-26T15:33:24Z</time></trkpt><trkpt lat="43.483462883870246" lon="13.606031090368614"><ele>12.0</ele><time>2026-04-26T15:33:25Z</time></trkpt><trkpt lat="43.48334212531819" lon="13.605859650214304"><ele>12.0</ele><time>2026-04-26T15:33:26Z</time></trkpt><trkpt lat="43.48322796892494" lon="13.60566585688845"><ele>12.0</ele><time>2026-04-26T15:33:27Z</time></trkpt><trkpt lat="43.48312813326945" lon="13.605462171853441"><ele>12.0</ele><time>2026-04-26T15:33:28Z</time></trkpt><trkpt lat="43.483031124743384" lon="13.605246757879591"><ele>10.666666666666666</ele><time>2026-04-26T15:33:29Z</time></trkpt><trkpt lat="43.482928456083435" lon="13.605026106048376"><ele>9.333333333333332</ele><time>2026-04-26T15:33:30Z</time></trkpt><trkpt lat="43.48281861871603" lon="13.604804458909587"><ele>8.0</ele><time>2026-04-26T15:33:31Z</time></trkpt><trkpt lat="43.482701626381655" lon="13.604585736745396"><ele>8.0</ele><time>2026-04-26T15:33:32Z</time></trkpt><trkpt lat="43.48258283365412" lon="13.6043824058248"><ele>8.0</ele><time>2026-04-26T15:33:33Z</time></trkpt><trkpt lat="43.48246308519182" lon="13.604184628614398"><ele>8.0</ele><time>2026-04-26T15:33:34Z</time></trkpt><trkpt lat="43.482349156991425" lon="13.603993100960942"><ele>8.0</ele><time>2026-04-26T15:33:35Z</time></trkpt><trkpt lat="43.48223914703021" lon="13.603806513585937"><ele>8.0</ele><time>2026-04-26T15:33:36Z</time></trkpt><trkpt lat="43.4821319271354" lon="13.603625441623047"><ele>8.0</ele><time>2026-04-26T15:33:37Z</time></trkpt><trkpt lat="43.48202681036138" lon="13.603450054009288"><ele>8.0</ele><time>2026-04-26T15:33:38Z</time></trkpt><trkpt lat="43.481921815428784" lon="13.603280872090014"><ele>8.0</ele><time>2026-04-26T15:33:39Z</time></trkpt><trkpt lat="43.48181483835394" lon="13.603111191016334"><ele>8.0</ele><time>2026-04-26T15:33:40Z</time></trkpt><trkpt lat="43.48170798926763" lon="13.602942126814384"><ele>8.333333333333332</ele><time>2026-04-26T15:33:41Z</time></trkpt><trkpt lat="43.48160171653683" lon="13.602769049377583"><ele>8.666666666666666</ele><time>2026-04-26T15:33:42Z</time></trkpt><trkpt lat="43.481494939693" lon="13.602591703213275"><ele>9.0</ele><time>2026-04-26T15:33:43Z</time></trkpt><trkpt lat="43.48138727708634" lon="13.602411045459613"><ele>9.0</ele><time>2026-04-26T15:33:44Z</time></trkpt><trkpt lat="43.481276788592346" lon="13.6022331689812"><ele>9.0</ele><time>2026-04-26T15:33:45Z</time></trkpt><trkpt lat="43.48116445567106" lon="13.602052816599976"><ele>9.0</ele><time>2026-04-26T15:33:46Z</time></trkpt><trkpt lat="43.481056863732015" lon="13.60187163928912"><ele>8.333333333333334</ele><time>2026-04-26T15:33:47Z</time></trkpt><trkpt lat="43.48095162150887" lon="13.6016941173076"><ele>7.666666666666667</ele><time>2026-04-26T15:33:48Z</time></trkpt><trkpt lat="43.480848133901084" lon="13.6015241436528"><ele>7.0</ele><time>2026-04-26T15:33:49Z</time></trkpt><trkpt lat="43.48074747403693" lon="13.601360682170132"><ele>7.0</ele><time>2026-04-26T15:33:50Z</time></trkpt><trkpt lat="43.480649642053066" lon="13.60120125083459"><ele>7.0</ele><time>2026-04-26T15:33:51Z</time></trkpt><trkpt lat="43.480550147386346" lon="13.601038452388517"><ele>7.0</ele><time>2026-04-26T15:33:52Z</time></trkpt><trkpt lat="43.48045089088165" lon="13.60087189936614"><ele>7.0</ele><time>2026-04-26T15:33:53Z</time></trkpt><trkpt lat="43.480351261474965" lon="13.600704239215732"><ele>7.0</ele><time>2026-04-26T15:33:54Z</time></trkpt><trkpt lat="43.48025157429556" lon="13.600539812045433"><ele>7.0</ele><time>2026-04-26T15:33:55Z</time></trkpt><trkpt lat="43.4801505734427" lon="13.600379208767714"><ele>6.666666666666667</ele><time>2026-04-26T15:33:56Z</time></trkpt><trkpt lat="43.480052036180965" lon="13.600221265065425"><ele>6.333333333333334</ele><time>2026-04-26T15:33:57Z</time></trkpt><trkpt lat="43.479956458687475" lon="13.600062893674828"><ele>6.0</ele><time>2026-04-26T15:33:58Z</time></trkpt><trkpt lat="43.479860495765855" lon="13.59990468508598"><ele>6.0</ele><time>2026-04-26T15:33:59Z</time></trkpt><trkpt lat="43.4797649636377" lon="13.599743755550584"><ele>6.0</ele><time>2026-04-26T15:34:00Z</time></trkpt><trkpt lat="43.47966860475323" lon="13.599575555975568"><ele>6.0</ele><time>2026-04-26T15:34:00.999Z</time></trkpt><trkpt lat="43.47957037806497" lon="13.599403541740655"><ele>6.666666666666666</ele><time>2026-04-26T15:34:01.999Z</time></trkpt><trkpt lat="43.47946610074626" lon="13.599235577746462"><ele>7.333333333333333</ele><time>2026-04-26T15:34:02.999Z</time></trkpt><trkpt lat="43.47935850733214" lon="13.59906524593806"><ele>8.0</ele><time>2026-04-26T15:34:03.999Z</time></trkpt><trkpt lat="43.479252882316096" lon="13.598895059498318"><ele>8.0</ele><time>2026-04-26T15:34:04.999Z</time></trkpt><trkpt lat="43.47915987641475" lon="13.598705612271308"><ele>8.0</ele><time>2026-04-26T15:34:05.999Z</time></trkpt><trkpt lat="43.479057001354754" lon="13.59853416750392"><ele>8.0</ele><time>2026-04-26T15:34:06.999Z</time></trkpt><trkpt lat="43.47895039524045" lon="13.59838447951757"><ele>7.75</ele><time>2026-04-26T15:34:07.999Z</time></trkpt><trkpt lat="43.478858102049884" lon="13.598227306467598"><ele>7.5</ele><time>2026-04-26T15:34:08.999Z</time></trkpt><trkpt lat="43.478767355705685" lon="13.598078093233411"><ele>7.25</ele><time>2026-04-26T15:34:09.999Z</time></trkpt><trkpt lat="43.478678428832914" lon="13.597930683432393"><ele>7.0</ele><time>2026-04-26T15:34:10.999Z</time></trkpt><trkpt lat="43.478586904528804" lon="13.597776751435564"><ele>7.75</ele><time>2026-04-26T15:34:11.999Z</time></trkpt><trkpt lat="43.47849678250661" lon="13.597625862820522"><ele>8.5</ele><time>2026-04-26T15:34:12.999Z</time></trkpt><trkpt lat="43.478401783402795" lon="13.597472485124205"><ele>9.25</ele><time>2026-04-26T15:34:13.999Z</time></trkpt><trkpt lat="43.47830235358588" lon="13.597307268030331"><ele>10.0</ele><time>2026-04-26T15:34:14.999Z</time></trkpt><trkpt lat="43.47819943350689" lon="13.597137994024635"><ele>9.333333333333334</ele><time>2026-04-26T15:34:15.999Z</time></trkpt><trkpt lat="43.47809525875647" lon="13.596964521131971"><ele>8.666666666666666</ele><time>2026-04-26T15:34:16.999Z</time></trkpt><trkpt lat="43.47799046544865" lon="13.59678507487975"><ele>8.0</ele><time>2026-04-26T15:34:17.999Z</time></trkpt><trkpt lat="43.47788260698633" lon="13.596603909704292"><ele>8.0</ele><time>2026-04-26T15:34:18.999Z</time></trkpt><trkpt lat="43.47776980443329" lon="13.596418578371742"><ele>8.0</ele><time>2026-04-26T15:34:19.999Z</time></trkpt><trkpt lat="43.47765212482899" lon="13.59622137433015"><ele>8.0</ele><time>2026-04-26T15:34:20.999Z</time></trkpt><trkpt lat="43.47753236080122" lon="13.5960262600294"><ele>8.0</ele><time>2026-04-26T15:34:21.999Z</time></trkpt><trkpt lat="43.47741843922604" lon="13.595831303267989"><ele>8.0</ele><time>2026-04-26T15:34:22.999Z</time></trkpt><trkpt lat="43.47730267208135" lon="13.595646411330717"><ele>8.0</ele><time>2026-04-26T15:34:23.999Z</time></trkpt><trkpt lat="43.47719763852323" lon="13.595465674305004"><ele>8.0</ele><time>2026-04-26T15:34:24.999Z</time></trkpt><trkpt lat="43.47709451590234" lon="13.595289520821803"><ele>8.0</ele><time>2026-04-26T15:34:25.999Z</time></trkpt><trkpt lat="43.47699132071218" lon="13.595120937198061"><ele>8.0</ele><time>2026-04-26T15:34:26.999Z</time></trkpt><trkpt lat="43.47689394953128" lon="13.594955926054354"><ele>8.0</ele><time>2026-04-26T15:34:27.999Z</time></trkpt><trkpt lat="43.476818386941346" lon="13.594773451340044"><ele>8.0</ele><time>2026-04-26T15:34:28.999Z</time></trkpt><trkpt lat="43.476738558805906" lon="13.594598834530876"><ele>8.0</ele><time>2026-04-26T15:34:29.999Z</time></trkpt><trkpt lat="43.47666684577461" lon="13.59441624633254"><ele>7.666666666666666</ele><time>2026-04-26T15:34:30.999Z</time></trkpt><trkpt lat="43.476601023228305" lon="13.594229993867744"><ele>7.333333333333334</ele><time>2026-04-26T15:34:31.999Z</time></trkpt><trkpt lat="43.47654285848514" lon="13.594035746191157"><ele>7.0</ele><time>2026-04-26T15:34:32.999Z</time></trkpt><trkpt lat="43.47649100460503" lon="13.593834753699715"><ele>6.666666666666667</ele><time>2026-04-26T15:34:33.999Z</time></trkpt><trkpt lat="43.47643829951312" lon="13.593629898203826"><ele>6.333333333333334</ele><time>2026-04-26T15:34:34.999Z</time></trkpt><trkpt lat="43.47637342500793" lon="13.593431414472278"><ele>6.0</ele><time>2026-04-26T15:34:35.999Z</time></trkpt><trkpt lat="43.476320882072216" lon="13.593222900389552"><ele>6.666666666666666</ele><time>2026-04-26T15:34:36.999Z</time></trkpt><trkpt lat="43.476266795703694" lon="13.593013129958775"><ele>7.333333333333333</ele><time>2026-04-26T15:34:37.999Z</time></trkpt><trkpt lat="43.47622995971725" lon="13.592793867514558"><ele>8.0</ele><time>2026-04-26T15:34:38.999Z</time></trkpt><trkpt lat="43.47617910567964" lon="13.59258841071118"><ele>8.333333333333332</ele><time>2026-04-26T15:34:39.999Z</time></trkpt><trkpt lat="43.47612978002581" lon="13.592386214874441"><ele>8.666666666666666</ele><time>2026-04-26T15:34:40.999Z</time></trkpt><trkpt lat="43.476082990561125" lon="13.59218747854662"><ele>9.0</ele><time>2026-04-26T15:34:41.999Z</time></trkpt><trkpt lat="43.476046571975985" lon="13.591983580452437"><ele>9.333333333333334</ele><time>2026-04-26T15:34:42.999Z</time></trkpt><trkpt lat="43.476015345705605" lon="13.591774311995795"><ele>9.666666666666668</ele><time>2026-04-26T15:34:43.999Z</time></trkpt><trkpt lat="43.47599152228927" lon="13.591563407449788"><ele>10.0</ele><time>2026-04-26T15:34:44.999Z</time></trkpt><trkpt lat="43.47597760787467" lon="13.591356254853457"><ele>10.666666666666668</ele><time>2026-04-26T15:34:45.999Z</time></trkpt><trkpt lat="43.475963376444014" lon="13.591142765776553"><ele>11.333333333333334</ele><time>2026-04-26T15:34:46.999Z</time></trkpt><trkpt lat="43.4759640646548" lon="13.590922302833325"><ele>12.0</ele><time>2026-04-26T15:34:47.999Z</time></trkpt><trkpt lat="43.47597312361417" lon="13.590694054869267"><ele>12.0</ele><time>2026-04-26T15:34:48.999Z</time></trkpt><trkpt lat="43.47601700950955" lon="13.590466286683684"><ele>12.0</ele><time>2026-04-26T15:34:49.999Z</time></trkpt><trkpt lat="43.47605100657519" lon="13.590231060908781"><ele>12.0</ele><time>2026-04-26T15:34:50.999Z</time></trkpt><trkpt lat="43.4760785231966" lon="13.589992625118011"><ele>11.666666666666666</ele><time>2026-04-26T15:34:51.999Z</time></trkpt><trkpt lat="43.476152209666154" lon="13.589766846370397"><ele>11.333333333333332</ele><time>2026-04-26T15:34:52.999Z</time></trkpt><trkpt lat="43.47622227888015" lon="13.589538204933582"><ele>11.0</ele><time>2026-04-26T15:34:53.999Z</time></trkpt><trkpt lat="43.476298622112836" lon="13.589308800519005"><ele>11.0</ele><time>2026-04-26T15:34:54.999Z</time></trkpt><trkpt lat="43.476361320946395" lon="13.589078064537278"><ele>11.0</ele><time>2026-04-26T15:34:55.998Z</time></trkpt><trkpt lat="43.47643955988102" lon="13.588854178200778"><ele>11.0</ele><time>2026-04-26T15:34:56.998Z</time></trkpt><trkpt lat="43.47651955725949" lon="13.588620317460048"><ele>11.0</ele><time>2026-04-26T15:34:57.998Z</time></trkpt><trkpt lat="43.476614552220354" lon="13.5883898722278"><ele>11.0</ele><time>2026-04-26T15:34:58.998Z</time></trkpt><trkpt lat="43.476699049829605" lon="13.588145591624244"><ele>11.0</ele><time>2026-04-26T15:34:59.998Z</time></trkpt><trkpt lat="43.47678203137087" lon="13.587900652397389"><ele>12.0</ele><time>2026-04-26T15:35:00.998Z</time></trkpt><trkpt lat="43.476848328902655" lon="13.587640851123394"><ele>13.0</ele><time>2026-04-26T15:35:01.998Z</time></trkpt><trkpt lat="43.476922611533034" lon="13.587396477028113"><ele>14.0</ele><time>2026-04-26T15:35:02.998Z</time></trkpt><trkpt lat="43.47698070343379" lon="13.587155968074336"><ele>14.666666666666668</ele><time>2026-04-26T15:35:03.998Z</time></trkpt><trkpt lat="43.47701997912294" lon="13.586916814989008"><ele>15.333333333333332</ele><time>2026-04-26T15:35:04.998Z</time></trkpt><trkpt lat="43.47704859864339" lon="13.586681145757181"><ele>16.0</ele><time>2026-04-26T15:35:05.998Z</time></trkpt><trkpt lat="43.477070755873775" lon="13.586450801850276"><ele>16.0</ele><time>2026-04-26T15:35:06.998Z</time></trkpt><trkpt lat="43.477079820118334" lon="13.586225982511062"><ele>16.0</ele><time>2026-04-26T15:35:07.998Z</time></trkpt><trkpt lat="43.477075656059505" lon="13.586004240783165"><ele>16.0</ele><time>2026-04-26T15:35:08.998Z</time></trkpt><trkpt lat="43.4770833634675" lon="13.58578450246959"><ele>16.333333333333332</ele><time>2026-04-26T15:35:09.998Z</time></trkpt><trkpt lat="43.47706518432116" lon="13.585567224618103"><ele>16.666666666666668</ele><time>2026-04-26T15:35:10.998Z</time></trkpt><trkpt lat="43.47702325050581" lon="13.585358578670057"><ele>17.0</ele><time>2026-04-26T15:35:11.998Z</time></trkpt><trkpt lat="43.47699096460211" lon="13.585156022276454"><ele>17.25</ele><time>2026-04-26T15:35:12.998Z</time></trkpt><trkpt lat="43.47695109523054" lon="13.58495835818012"><ele>17.5</ele><time>2026-04-26T15:35:13.998Z</time></trkpt><trkpt lat="43.476920016855026" lon="13.584767854709094"><ele>17.75</ele><time>2026-04-26T15:35:14.998Z</time></trkpt><trkpt lat="43.47687789038113" lon="13.58460081812042"><ele>18.0</ele><time>2026-04-26T15:35:15.998Z</time></trkpt><trkpt lat="43.47683767926773" lon="13.584449776558284"><ele>18.2</ele><time>2026-04-26T15:35:17Z</time></trkpt><trkpt lat="43.47680020469584" lon="13.584310833266612"><ele>18.4</ele><time>2026-04-26T15:35:18Z</time></trkpt><trkpt lat="43.476766569124074" lon="13.584183735272152"><ele>18.599999999999998</ele><time>2026-04-26T15:35:19Z</time></trkpt><trkpt lat="43.47673548725322" lon="13.58406485047557"><ele>18.8</ele><time>2026-04-26T15:35:20Z</time></trkpt><trkpt lat="43.47668020465699" lon="13.583959046549866"><ele>19.0</ele><time>2026-04-26T15:35:21Z</time></trkpt><trkpt lat="43.47665032897047" lon="13.58384797309067"><ele>19.0</ele><time>2026-04-26T15:35:22Z</time></trkpt><trkpt lat="43.47662019667439" lon="13.58372929911003"><ele>19.0</ele><time>2026-04-26T15:35:23Z</time></trkpt><trkpt lat="43.47658925969442" lon="13.583607291871246"><ele>19.0</ele><time>2026-04-26T15:35:24Z</time></trkpt><trkpt lat="43.47655602062456" lon="13.583478955177696"><ele>19.0</ele><time>2026-04-26T15:35:25Z</time></trkpt><trkpt lat="43.476519184745385" lon="13.583344256175515"><ele>19.0</ele><time>2026-04-26T15:35:26Z</time></trkpt><trkpt lat="43.4764806542105" lon="13.583210827113632"><ele>19.2</ele><time>2026-04-26T15:35:27Z</time></trkpt><trkpt lat="43.476444996100774" lon="13.583084145219377"><ele>19.4</ele><time>2026-04-26T15:35:28Z</time></trkpt><trkpt lat="43.47642567459786" lon="13.582952588609707"><ele>19.6</ele><time>2026-04-26T15:35:29Z</time></trkpt><trkpt lat="43.476394064785175" lon="13.582827091504095"><ele>19.8</ele><time>2026-04-26T15:35:30Z</time></trkpt><trkpt lat="43.47636482961766" lon="13.58271102213043"><ele>20.0</ele><time>2026-04-26T15:35:31Z</time></trkpt><trkpt lat="43.47634014049798" lon="13.582613001842441"><ele>20.5</ele><time>2026-04-26T15:35:32Z</time></trkpt><trkpt lat="43.4763194166312" lon="13.582528046662475"><ele>21.0</ele><time>2026-04-26T15:35:33Z</time></trkpt><trkpt lat="43.47628841165124" lon="13.582406270335014"><ele>21.5</ele><time>2026-04-26T15:35:35Z</time></trkpt><trkpt lat="43.47618187328658" lon="13.58242484881263"><ele>22.0</ele><time>2026-04-26T15:35:36Z</time></trkpt><trkpt lat="43.47609792793957" lon="13.582381203383429"><ele>22.5</ele><time>2026-04-26T15:35:41Z</time></trkpt><trkpt lat="43.47602661651809" lon="13.582345478449287"><ele>23.0</ele><time>2026-04-26T15:35:54Z</time></trkpt><trkpt lat="43.475942347235545" lon="13.582276060285018"><ele>23.25</ele><time>2026-04-26T15:35:56Z</time></trkpt><trkpt lat="43.47584523943368" lon="13.582371925085463"><ele>23.5</ele><time>2026-04-26T15:35:57Z</time></trkpt><trkpt lat="43.47575080905937" lon="13.582435569702124"><ele>23.75</ele><time>2026-04-26T15:35:58Z</time></trkpt><trkpt lat="43.475633287294" lon="13.582520099960869"><ele>24.0</ele><time>2026-04-26T15:35:59Z</time></trkpt><trkpt lat="43.47550434687966" lon="13.582594645021087"><ele>24.25</ele><time>2026-04-26T15:36:00Z</time></trkpt><trkpt lat="43.47536655057507" lon="13.582656518463619"><ele>24.5</ele><time>2026-04-26T15:36:01Z</time></trkpt><trkpt lat="43.47522236563762" lon="13.582728746297652"><ele>24.75</ele><time>2026-04-26T15:36:02Z</time></trkpt><trkpt lat="43.47508634653579" lon="13.582806068105764"><ele>25.0</ele><time>2026-04-26T15:36:03Z</time></trkpt><trkpt lat="43.474954298088235" lon="13.582886426369678"><ele>25.0</ele><time>2026-04-26T15:36:04Z</time></trkpt><trkpt lat="43.47481310772196" lon="13.582967727304155"><ele>25.0</ele><time>2026-04-26T15:36:05Z</time></trkpt><trkpt lat="43.4746677901918" lon="13.583047899692122"><ele>25.0</ele><time>2026-04-26T15:36:06Z</time></trkpt><trkpt lat="43.474525238062" lon="13.583126395810108"><ele>24.333333333333336</ele><time>2026-04-26T15:36:06.999Z</time></trkpt><trkpt lat="43.474382596927065" lon="13.583207483645717"><ele>23.666666666666668</ele><time>2026-04-26T15:36:07.999Z</time></trkpt><trkpt lat="43.474237187256286" lon="13.583288704098232"><ele>23.0</ele><time>2026-04-26T15:36:08.999Z</time></trkpt><trkpt lat="43.474088028603845" lon="13.583370180049716"><ele>23.0</ele><time>2026-04-26T15:36:09.999Z</time></trkpt><trkpt lat="43.47393931442388" lon="13.583454760229932"><ele>23.0</ele><time>2026-04-26T15:36:10.999Z</time></trkpt><trkpt lat="43.47378945841646" lon="13.58354325839424"><ele>23.0</ele><time>2026-04-26T15:36:11.999Z</time></trkpt><trkpt lat="43.4736435426887" lon="13.58363938700829"><ele>23.666666666666668</ele><time>2026-04-26T15:36:12.999Z</time></trkpt><trkpt lat="43.47350216469503" lon="13.583760680406868"><ele>24.333333333333336</ele><time>2026-04-26T15:36:13.999Z</time></trkpt><trkpt lat="43.4733725212314" lon="13.583900015460916"><ele>25.0</ele><time>2026-04-26T15:36:14.999Z</time></trkpt><trkpt lat="43.473249736316404" lon="13.584038447964716"><ele>25.0</ele><time>2026-04-26T15:36:15.999Z</time></trkpt><trkpt lat="43.473126974746776" lon="13.58417392165905"><ele>25.0</ele><time>2026-04-26T15:36:16.999Z</time></trkpt><trkpt lat="43.47300552787156" lon="13.584310046226854"><ele>25.0</ele><time>2026-04-26T15:36:17.999Z</time></trkpt><trkpt lat="43.47288192087909" lon="13.584443161218875"><ele>24.0</ele><time>2026-04-26T15:36:18.999Z</time></trkpt><trkpt lat="43.47275596495574" lon="13.584573755084655"><ele>23.0</ele><time>2026-04-26T15:36:19.999Z</time></trkpt><trkpt lat="43.47262766082843" lon="13.584708951649906"><ele>22.0</ele><time>2026-04-26T15:36:20.999Z</time></trkpt><trkpt lat="43.47250046576686" lon="13.58484611078938"><ele>22.0</ele><time>2026-04-26T15:36:21.999Z</time></trkpt><trkpt lat="43.47237252503552" lon="13.584985645414266"><ele>22.0</ele><time>2026-04-26T15:36:22.999Z</time></trkpt><trkpt lat="43.47224023650364" lon="13.585128930158646"><ele>22.0</ele><time>2026-04-26T15:36:23.999Z</time></trkpt><trkpt lat="43.47210560659777" lon="13.58527152017327"><ele>22.0</ele><time>2026-04-26T15:36:24.999Z</time></trkpt><trkpt lat="43.47197255897777" lon="13.585410392739025"><ele>22.0</ele><time>2026-04-26T15:36:25.999Z</time></trkpt><trkpt lat="43.47184383664317" lon="13.585552639478049"><ele>22.0</ele><time>2026-04-26T15:36:26.999Z</time></trkpt><trkpt lat="43.47171596764945" lon="13.585695308473241"><ele>22.0</ele><time>2026-04-26T15:36:27.999Z</time></trkpt><trkpt lat="43.47158611397816" lon="13.585840897031934"><ele>22.0</ele><time>2026-04-26T15:36:28.999Z</time></trkpt><trkpt lat="43.471449967739645" lon="13.585992787845186"><ele>22.0</ele><time>2026-04-26T15:36:29.999Z</time></trkpt><trkpt lat="43.471318152223986" lon="13.586138404287684"><ele>21.0</ele><time>2026-04-26T15:36:30.999Z</time></trkpt><trkpt lat="43.47118415368746" lon="13.58628157806462"><ele>20.0</ele><time>2026-04-26T15:36:31.999Z</time></trkpt><trkpt lat="43.47104747966813" lon="13.586414700510975"><ele>19.0</ele><time>2026-04-26T15:36:32.999Z</time></trkpt><trkpt lat="43.47091735635773" lon="13.586546864962308"><ele>19.0</ele><time>2026-04-26T15:36:33.999Z</time></trkpt><trkpt lat="43.470793222721426" lon="13.586697263834028"><ele>19.0</ele><time>2026-04-26T15:36:34.999Z</time></trkpt><trkpt lat="43.470681375800396" lon="13.586868948267949"><ele>19.0</ele><time>2026-04-26T15:36:35.999Z</time></trkpt><trkpt lat="43.47059472357634" lon="13.587062380672847"><ele>19.666666666666664</ele><time>2026-04-26T15:36:36.999Z</time></trkpt><trkpt lat="43.47053573615288" lon="13.587286054741924"><ele>20.333333333333332</ele><time>2026-04-26T15:36:37.999Z</time></trkpt><trkpt lat="43.47050215265818" lon="13.587522604076945"><ele>21.0</ele><time>2026-04-26T15:36:38.999Z</time></trkpt><trkpt lat="43.47047922042085" lon="13.587761680651457"><ele>21.0</ele><time>2026-04-26T15:36:39.999Z</time></trkpt><trkpt lat="43.47045006026397" lon="13.587990504837542"><ele>21.0</ele><time>2026-04-26T15:36:40.999Z</time></trkpt><trkpt lat="43.470420134302266" lon="13.588213122764063"><ele>21.0</ele><time>2026-04-26T15:36:41.999Z</time></trkpt><trkpt lat="43.470390637664835" lon="13.588445849208844"><ele>19.0</ele><time>2026-04-26T15:36:42.999Z</time></trkpt><trkpt lat="43.470360860402025" lon="13.58867321187831"><ele>17.0</ele><time>2026-04-26T15:36:43.999Z</time></trkpt><trkpt lat="43.47033135282082" lon="13.588892996666825"><ele>15.0</ele><time>2026-04-26T15:36:44.999Z</time></trkpt><trkpt lat="43.47030522406928" lon="13.589109133771439"><ele>14.333333333333332</ele><time>2026-04-26T15:36:45.999Z</time></trkpt><trkpt lat="43.470277436176005" lon="13.589322673243025"><ele>13.666666666666666</ele><time>2026-04-26T15:36:46.999Z</time></trkpt><trkpt lat="43.47024696156783" lon="13.589533597760182"><ele>13.0</ele><time>2026-04-26T15:36:47.999Z</time></trkpt><trkpt lat="43.470218933815694" lon="13.589743048061111"><ele>12.666666666666666</ele><time>2026-04-26T15:36:48.999Z</time></trkpt><trkpt lat="43.470192822396896" lon="13.58995484726478"><ele>12.333333333333332</ele><time>2026-04-26T15:36:49.999Z</time></trkpt><trkpt lat="43.47016727910409" lon="13.590166369280993"><ele>12.0</ele><time>2026-04-26T15:36:50.999Z</time></trkpt><trkpt lat="43.47014266672461" lon="13.590380536770994"><ele>11.666666666666666</ele><time>2026-04-26T15:36:51.999Z</time></trkpt><trkpt lat="43.47011624965906" lon="13.590593942169734"><ele>11.333333333333332</ele><time>2026-04-26T15:36:52.999Z</time></trkpt><trkpt lat="43.470087778832735" lon="13.590805876365726"><ele>11.0</ele><time>2026-04-26T15:36:53.999Z</time></trkpt><trkpt lat="43.47005721297448" lon="13.5910227998111"><ele>11.0</ele><time>2026-04-26T15:36:54.999Z</time></trkpt><trkpt lat="43.47002749548818" lon="13.591249952711925"><ele>11.0</ele><time>2026-04-26T15:36:55.999Z</time></trkpt><trkpt lat="43.470000119665606" lon="13.591477058868994"><ele>11.0</ele><time>2026-04-26T15:36:56.999Z</time></trkpt><trkpt lat="43.46997695444319" lon="13.591703244106952"><ele>11.0</ele><time>2026-04-26T15:36:57.998Z</time></trkpt><trkpt lat="43.46996007940518" lon="13.591935512666474"><ele>11.0</ele><time>2026-04-26T15:36:58.998Z</time></trkpt><trkpt lat="43.46994354867798" lon="13.592171552391115"><ele>11.0</ele><time>2026-04-26T15:36:59.998Z</time></trkpt><trkpt lat="43.46993251137435" lon="13.592410516034255"><ele>11.0</ele><time>2026-04-26T15:37:00.998Z</time></trkpt><trkpt lat="43.46993051198859" lon="13.592650858319967"><ele>11.0</ele><time>2026-04-26T15:37:01.998Z</time></trkpt><trkpt lat="43.469932659162446" lon="13.592892995125924"><ele>11.0</ele><time>2026-04-26T15:37:02.998Z</time></trkpt><trkpt lat="43.46993851172103" lon="13.593135554840156"><ele>11.0</ele><time>2026-04-26T15:37:03.998Z</time></trkpt><trkpt lat="43.469949618288815" lon="13.593377671073238"><ele>11.0</ele><time>2026-04-26T15:37:04.998Z</time></trkpt><trkpt lat="43.469966714799476" lon="13.593618916329659"><ele>11.0</ele><time>2026-04-26T15:37:05.998Z</time></trkpt><trkpt lat="43.469986592858504" lon="13.593862767336176"><ele>11.0</ele><time>2026-04-26T15:37:06.998Z</time></trkpt><trkpt lat="43.47000318981919" lon="13.594102220432054"><ele>11.0</ele><time>2026-04-26T15:37:07.998Z</time></trkpt><trkpt lat="43.47002010914633" lon="13.594342043564021"><ele>11.0</ele><time>2026-04-26T15:37:08.998Z</time></trkpt><trkpt lat="43.47003321671275" lon="13.594581522192414"><ele>10.666666666666666</ele><time>2026-04-26T15:37:09.998Z</time></trkpt><trkpt lat="43.47004953734934" lon="13.594816394727669"><ele>10.333333333333334</ele><time>2026-04-26T15:37:10.998Z</time></trkpt><trkpt lat="43.47006590033601" lon="13.595046164966199"><ele>10.0</ele><time>2026-04-26T15:37:11.998Z</time></trkpt><trkpt lat="43.47008111450572" lon="13.595267373857487"><ele>10.25</ele><time>2026-04-26T15:37:12.998Z</time></trkpt><trkpt lat="43.47009249093598" lon="13.595477502326636"><ele>10.5</ele><time>2026-04-26T15:37:13.998Z</time></trkpt><trkpt lat="43.470105348923546" lon="13.595679180995191"><ele>10.75</ele><time>2026-04-26T15:37:14.998Z</time></trkpt><trkpt lat="43.47012283908312" lon="13.595878784083991"><ele>11.0</ele><time>2026-04-26T15:37:15.998Z</time></trkpt><trkpt lat="43.47014076769617" lon="13.596084072216867"><ele>10.666666666666666</ele><time>2026-04-26T15:37:16.998Z</time></trkpt><trkpt lat="43.470155734574796" lon="13.596294169986493"><ele>10.333333333333334</ele><time>2026-04-26T15:37:17.998Z</time></trkpt><trkpt lat="43.4701695403878" lon="13.596514027499865"><ele>10.0</ele><time>2026-04-26T15:37:18.998Z</time></trkpt><trkpt lat="43.470184211055056" lon="13.596737218095521"><ele>10.0</ele><time>2026-04-26T15:37:19.998Z</time></trkpt><trkpt lat="43.47020108659983" lon="13.596964198142233"><ele>10.0</ele><time>2026-04-26T15:37:20.998Z</time></trkpt><trkpt lat="43.47021853748378" lon="13.597194510457157"><ele>10.0</ele><time>2026-04-26T15:37:21.998Z</time></trkpt><trkpt lat="43.4702340259208" lon="13.597420244630715"><ele>10.666666666666668</ele><time>2026-04-26T15:37:23Z</time></trkpt><trkpt lat="43.47025004465959" lon="13.597636647140018"><ele>11.333333333333334</ele><time>2026-04-26T15:37:24Z</time></trkpt><trkpt lat="43.470261200153786" lon="13.597845946020637"><ele>12.0</ele><time>2026-04-26T15:37:25Z</time></trkpt><trkpt lat="43.47025986857432" lon="13.598050421617888"><ele>12.25</ele><time>2026-04-26T15:37:26Z</time></trkpt><trkpt lat="43.470236847543944" lon="13.598250954742532"><ele>12.5</ele><time>2026-04-26T15:37:27Z</time></trkpt><trkpt lat="43.470196731128496" lon="13.59844371513174"><ele>12.75</ele><time>2026-04-26T15:37:28Z</time></trkpt><trkpt lat="43.4701431775734" lon="13.5986262175672"><ele>13.0</ele><time>2026-04-26T15:37:29Z</time></trkpt><trkpt lat="43.47007001982718" lon="13.598799240948344"><ele>11.666666666666666</ele><time>2026-04-26T15:37:30Z</time></trkpt><trkpt lat="43.46998021820576" lon="13.598959887590972"><ele>10.333333333333332</ele><time>2026-04-26T15:37:31Z</time></trkpt><trkpt lat="43.469882371422706" lon="13.599119676546518"><ele>9.0</ele><time>2026-04-26T15:37:32Z</time></trkpt><trkpt lat="43.46977153652483" lon="13.599263113452505"><ele>9.0</ele><time>2026-04-26T15:37:33Z</time></trkpt><trkpt lat="43.46964425471241" lon="13.599382332971787"><ele>9.0</ele><time>2026-04-26T15:37:34Z</time></trkpt><trkpt lat="43.46950888390789" lon="13.599485551369318"><ele>9.0</ele><time>2026-04-26T15:37:35Z</time></trkpt><trkpt lat="43.469377219708804" lon="13.599582707545322"><ele>9.0</ele><time>2026-04-26T15:37:36Z</time></trkpt><trkpt lat="43.46925798191807" lon="13.599672489464572"><ele>9.0</ele><time>2026-04-26T15:37:37Z</time></trkpt><trkpt lat="43.469147171601556" lon="13.599761405922196"><ele>9.0</ele><time>2026-04-26T15:37:38Z</time></trkpt><trkpt lat="43.46903981468796" lon="13.599849147396002"><ele>9.0</ele><time>2026-04-26T15:37:39Z</time></trkpt><trkpt lat="43.46893257009172" lon="13.599935571317486"><ele>9.0</ele><time>2026-04-26T15:37:40Z</time></trkpt><trkpt lat="43.46882326568461" lon="13.600021370977352"><ele>9.0</ele><time>2026-04-26T15:37:41Z</time></trkpt><trkpt lat="43.468705100206414" lon="13.600114466556096"><ele>9.0</ele><time>2026-04-26T15:37:42Z</time></trkpt><trkpt lat="43.46858140390741" lon="13.600212461592777"><ele>9.0</ele><time>2026-04-26T15:37:43Z</time></trkpt><trkpt lat="43.468452457352704" lon="13.600317077121357"><ele>9.0</ele><time>2026-04-26T15:37:44Z</time></trkpt><trkpt lat="43.46831709129845" lon="13.600422982250041"><ele>9.0</ele><time>2026-04-26T15:37:45Z</time></trkpt><trkpt lat="43.468185779995395" lon="13.600523667190664"><ele>9.0</ele><time>2026-04-26T15:37:46Z</time></trkpt><trkpt lat="43.46806654742601" lon="13.60061886674204"><ele>9.0</ele><time>2026-04-26T15:37:47Z</time></trkpt><trkpt lat="43.467951748512036" lon="13.600714464451539"><ele>8.75</ele><time>2026-04-26T15:37:48Z</time></trkpt><trkpt lat="43.46783239938953" lon="13.60080769198387"><ele>8.5</ele><time>2026-04-26T15:37:49Z</time></trkpt><trkpt lat="43.46771087341445" lon="13.6009011339797"><ele>8.25</ele><time>2026-04-26T15:37:50Z</time></trkpt><trkpt lat="43.46758937438479" lon="13.600995026361668"><ele>8.0</ele><time>2026-04-26T15:37:51Z</time></trkpt><trkpt lat="43.467465770798896" lon="13.601090743187191"><ele>7.75</ele><time>2026-04-26T15:37:52Z</time></trkpt><trkpt lat="43.46734310638411" lon="13.601187079859722"><ele>7.5</ele><time>2026-04-26T15:37:53Z</time></trkpt><trkpt lat="43.467220024095305" lon="13.601284940624723"><ele>7.25</ele><time>2026-04-26T15:37:54Z</time></trkpt><trkpt lat="43.46709736622144" lon="13.601384502512776"><ele>7.0</ele><time>2026-04-26T15:37:55Z</time></trkpt><trkpt lat="43.46697147856214" lon="13.601485938027976"><ele>8.0</ele><time>2026-04-26T15:37:56Z</time></trkpt><trkpt lat="43.46684197292701" lon="13.601587691977398"><ele>9.0</ele><time>2026-04-26T15:37:57Z</time></trkpt><trkpt lat="43.466709541846896" lon="13.601691278175334"><ele>10.0</ele><time>2026-04-26T15:37:58Z</time></trkpt><trkpt lat="43.466572743089245" lon="13.601794681817154"><ele>10.0</ele><time>2026-04-26T15:37:59Z</time></trkpt><trkpt lat="43.46643654072311" lon="13.601897100977936"><ele>10.0</ele><time>2026-04-26T15:38:00Z</time></trkpt><trkpt lat="43.46630135243673" lon="13.602000412523761"><ele>10.0</ele><time>2026-04-26T15:38:01Z</time></trkpt><trkpt lat="43.46616763711721" lon="13.602101246223729"><ele>9.666666666666668</ele><time>2026-04-26T15:38:02Z</time></trkpt><trkpt lat="43.46603545780544" lon="13.602199838399187"><ele>9.333333333333334</ele><time>2026-04-26T15:38:03Z</time></trkpt><trkpt lat="43.465904947778604" lon="13.60229997753473"><ele>9.0</ele><time>2026-04-26T15:38:04Z</time></trkpt><trkpt lat="43.465774355060866" lon="13.60240200083413"><ele>9.0</ele><time>2026-04-26T15:38:05Z</time></trkpt><trkpt lat="43.46564433261626" lon="13.602502093000735"><ele>9.0</ele><time>2026-04-26T15:38:06Z</time></trkpt><trkpt lat="43.465512622987134" lon="13.602603673486625"><ele>9.0</ele><time>2026-04-26T15:38:07Z</time></trkpt><trkpt lat="43.46538235518509" lon="13.602705635087828"><ele>9.333333333333334</ele><time>2026-04-26T15:38:08Z</time></trkpt><trkpt lat="43.465251870021056" lon="13.602810974965323"><ele>9.666666666666668</ele><time>2026-04-26T15:38:09Z</time></trkpt><trkpt lat="43.46512293169308" lon="13.60291859490172"><ele>10.0</ele><time>2026-04-26T15:38:09.999Z</time></trkpt><trkpt lat="43.464992908782214" lon="13.603024934491312"><ele>10.0</ele><time>2026-04-26T15:38:10.999Z</time></trkpt><trkpt lat="43.46485961526714" lon="13.603130226570675"><ele>10.0</ele><time>2026-04-26T15:38:11.999Z</time></trkpt><trkpt lat="43.46472220343052" lon="13.603235153916767"><ele>10.0</ele><time>2026-04-26T15:38:12.999Z</time></trkpt><trkpt lat="43.46458467211561" lon="13.603341264238603"><ele>9.666666666666668</ele><time>2026-04-26T15:38:13.999Z</time></trkpt><trkpt lat="43.464443267989125" lon="13.60345464176257"><ele>9.333333333333334</ele><time>2026-04-26T15:38:14.999Z</time></trkpt><trkpt lat="43.46429702358016" lon="13.6035769009605"><ele>9.0</ele><time>2026-04-26T15:38:15.999Z</time></trkpt><trkpt lat="43.46414647705122" lon="13.603703011903708"><ele>9.0</ele><time>2026-04-26T15:38:16.999Z</time></trkpt><trkpt lat="43.463990234547765" lon="13.603832340553087"><ele>9.0</ele><time>2026-04-26T15:38:17.999Z</time></trkpt><trkpt lat="43.46383204319809" lon="13.603964832278315"><ele>9.0</ele><time>2026-04-26T15:38:18.999Z</time></trkpt><trkpt lat="43.463668524950116" lon="13.604096633109863"><ele>9.0</ele><time>2026-04-26T15:38:19.999Z</time></trkpt><trkpt lat="43.46349773256509" lon="13.604225794985611"><ele>9.0</ele><time>2026-04-26T15:38:20.999Z</time></trkpt><trkpt lat="43.463321961737236" lon="13.604350939145462"><ele>9.0</ele><time>2026-04-26T15:38:21.999Z</time></trkpt><trkpt lat="43.46314518317564" lon="13.604472930983862"><ele>8.666666666666666</ele><time>2026-04-26T15:38:22.999Z</time></trkpt><trkpt lat="43.46296456591056" lon="13.604593040138166"><ele>8.333333333333332</ele><time>2026-04-26T15:38:23.999Z</time></trkpt><trkpt lat="43.46277881434114" lon="13.604710887294212"><ele>8.0</ele><time>2026-04-26T15:38:24.999Z</time></trkpt><trkpt lat="43.4625907848769" lon="13.60482210300965"><ele>8.0</ele><time>2026-04-26T15:38:25.999Z</time></trkpt><trkpt lat="43.46239905418172" lon="13.60493174978594"><ele>8.0</ele><time>2026-04-26T15:38:26.999Z</time></trkpt><trkpt lat="43.46220717137268" lon="13.605037607037566"><ele>8.0</ele><time>2026-04-26T15:38:27.999Z</time></trkpt><trkpt lat="43.462012685722485" lon="13.605141344779156"><ele>8.0</ele><time>2026-04-26T15:38:28.999Z</time></trkpt><trkpt lat="43.46181461258191" lon="13.605244975603632"><ele>8.0</ele><time>2026-04-26T15:38:29.999Z</time></trkpt><trkpt lat="43.4616178522875" lon="13.605349033291493"><ele>8.0</ele><time>2026-04-26T15:38:30.999Z</time></trkpt><trkpt lat="43.46141826904326" lon="13.605456588925016"><ele>8.666666666666666</ele><time>2026-04-26T15:38:31.999Z</time></trkpt><trkpt lat="43.46121830115826" lon="13.605563434102873"><ele>9.333333333333334</ele><time>2026-04-26T15:38:32.999Z</time></trkpt><trkpt lat="43.46101637318286" lon="13.605668055671437"><ele>10.0</ele><time>2026-04-26T15:38:33.999Z</time></trkpt><trkpt lat="43.46081319608354" lon="13.605771521580865"><ele>10.0</ele><time>2026-04-26T15:38:34.999Z</time></trkpt><trkpt lat="43.46061031043679" lon="13.605875377680805"><ele>10.0</ele><time>2026-04-26T15:38:35.999Z</time></trkpt><trkpt lat="43.46040653135881" lon="13.605981097066232"><ele>10.0</ele><time>2026-04-26T15:38:36.999Z</time></trkpt><trkpt lat="43.46020493618366" lon="13.606087512798421"><ele>9.666666666666668</ele><time>2026-04-26T15:38:37.999Z</time></trkpt><trkpt lat="43.45999997657525" lon="13.606196676783686"><ele>9.333333333333334</ele><time>2026-04-26T15:38:38.999Z</time></trkpt><trkpt lat="43.45979393997762" lon="13.606305936537296"><ele>9.0</ele><time>2026-04-26T15:38:39.999Z</time></trkpt><trkpt lat="43.45958871760966" lon="13.606411867114774"><ele>9.0</ele><time>2026-04-26T15:38:40.999Z</time></trkpt><trkpt lat="43.45938217020079" lon="13.60651826351107"><ele>9.0</ele><time>2026-04-26T15:38:41.999Z</time></trkpt><trkpt lat="43.459177180465886" lon="13.606625429984119"><ele>9.0</ele><time>2026-04-26T15:38:42.999Z</time></trkpt><trkpt lat="43.45897109372954" lon="13.606735153254366"><ele>8.333333333333334</ele><time>2026-04-26T15:38:43.999Z</time></trkpt><trkpt lat="43.45876434859282" lon="13.606845107068441"><ele>7.666666666666667</ele><time>2026-04-26T15:38:44.999Z</time></trkpt><trkpt lat="43.45856077528488" lon="13.60695292747951"><ele>7.0</ele><time>2026-04-26T15:38:45.999Z</time></trkpt><trkpt lat="43.45836089501634" lon="13.6070566176506"><ele>7.0</ele><time>2026-04-26T15:38:46.999Z</time></trkpt><trkpt lat="43.458165561247014" lon="13.60715572513455"><ele>7.0</ele><time>2026-04-26T15:38:47.999Z</time></trkpt><trkpt lat="43.457974122182925" lon="13.6072525523242"><ele>7.0</ele><time>2026-04-26T15:38:48.999Z</time></trkpt><trkpt lat="43.457790193537974" lon="13.607347078701384"><ele>7.0</ele><time>2026-04-26T15:38:49.999Z</time></trkpt><trkpt lat="43.45760619109857" lon="13.607441412461228"><ele>7.0</ele><time>2026-04-26T15:38:50.999Z</time></trkpt><trkpt lat="43.4574235058712" lon="13.607535000988278"><ele>7.0</ele><time>2026-04-26T15:38:51.999Z</time></trkpt><trkpt lat="43.45723911410977" lon="13.607628437422795"><ele>7.0</ele><time>2026-04-26T15:38:52.999Z</time></trkpt><trkpt lat="43.457053996246685" lon="13.607724550226127"><ele>7.0</ele><time>2026-04-26T15:38:53.999Z</time></trkpt><trkpt lat="43.45686846201645" lon="13.607822033936417"><ele>7.0</ele><time>2026-04-26T15:38:54.999Z</time></trkpt><trkpt lat="43.456681230566865" lon="13.607920422208153"><ele>7.666666666666667</ele><time>2026-04-26T15:38:55.999Z</time></trkpt><trkpt lat="43.45649214462772" lon="13.608020747412763"><ele>8.333333333333334</ele><time>2026-04-26T15:38:56.999Z</time></trkpt><trkpt lat="43.4562994487732" lon="13.608119727832232"><ele>9.0</ele><time>2026-04-26T15:38:57.999Z</time></trkpt><trkpt lat="43.456105777194196" lon="13.608220571252291"><ele>9.0</ele><time>2026-04-26T15:38:58.998Z</time></trkpt><trkpt lat="43.45591171889937" lon="13.608321815710807"><ele>9.0</ele><time>2026-04-26T15:38:59.998Z</time></trkpt><trkpt lat="43.45571377779505" lon="13.608421962470482"><ele>9.0</ele><time>2026-04-26T15:39:00.998Z</time></trkpt><trkpt lat="43.455515122798545" lon="13.608521635592629"><ele>9.333333333333334</ele><time>2026-04-26T15:39:01.998Z</time></trkpt><trkpt lat="43.4553259345281" lon="13.608618048048875"><ele>9.666666666666668</ele><time>2026-04-26T15:39:02.998Z</time></trkpt><trkpt lat="43.45514177904977" lon="13.608713923393413"><ele>10.0</ele><time>2026-04-26T15:39:03.998Z</time></trkpt><trkpt lat="43.454962818208216" lon="13.608806919497354"><ele>10.0</ele><time>2026-04-26T15:39:04.998Z</time></trkpt><trkpt lat="43.45478462060493" lon="13.608899059008994"><ele>10.0</ele><time>2026-04-26T15:39:05.998Z</time></trkpt><trkpt lat="43.45460613663547" lon="13.608992268907413"><ele>10.0</ele><time>2026-04-26T15:39:06.998Z</time></trkpt><trkpt lat="43.45442573634677" lon="13.609085617743402"><ele>9.666666666666668</ele><time>2026-04-26T15:39:07.998Z</time></trkpt><trkpt lat="43.454247314699096" lon="13.60917915089125"><ele>9.333333333333334</ele><time>2026-04-26T15:39:08.998Z</time></trkpt><trkpt lat="43.45406937241299" lon="13.609270341091495"><ele>9.0</ele><time>2026-04-26T15:39:09.998Z</time></trkpt><trkpt lat="43.45389399590112" lon="13.609361861109088"><ele>9.333333333333334</ele><time>2026-04-26T15:39:10.998Z</time></trkpt><trkpt lat="43.45372125554834" lon="13.60945446941442"><ele>9.666666666666668</ele><time>2026-04-26T15:39:11.998Z</time></trkpt><trkpt lat="43.453550258455806" lon="13.609545557484381"><ele>10.0</ele><time>2026-04-26T15:39:12.998Z</time></trkpt><trkpt lat="43.45338060511102" lon="13.609635480517413"><ele>10.0</ele><time>2026-04-26T15:39:13.998Z</time></trkpt><trkpt lat="43.45321006427979" lon="13.609725606547318"><ele>10.0</ele><time>2026-04-26T15:39:14.998Z</time></trkpt><trkpt lat="43.453040834837026" lon="13.609815135031383"><ele>10.0</ele><time>2026-04-26T15:39:15.998Z</time></trkpt><trkpt lat="43.45287452776729" lon="13.609903318756222"><ele>10.0</ele><time>2026-04-26T15:39:16.998Z</time></trkpt><trkpt lat="43.4527123556871" lon="13.609988140500903"><ele>10.0</ele><time>2026-04-26T15:39:17.998Z</time></trkpt><trkpt lat="43.45255086005512" lon="13.61007339496665"><ele>10.0</ele><time>2026-04-26T15:39:18.998Z</time></trkpt><trkpt lat="43.45239061221657" lon="13.610158421916108"><ele>10.0</ele><time>2026-04-26T15:39:19.998Z</time></trkpt><trkpt lat="43.452234779675614" lon="13.610238914601123"><ele>10.0</ele><time>2026-04-26T15:39:20.998Z</time></trkpt><trkpt lat="43.452081692792135" lon="13.610315811464465"><ele>10.0</ele><time>2026-04-26T15:39:21.998Z</time></trkpt><trkpt lat="43.451930410931546" lon="13.610393338044"><ele>9.333333333333334</ele><time>2026-04-26T15:39:22.998Z</time></trkpt><trkpt lat="43.45178054687083" lon="13.610471782516207"><ele>8.666666666666666</ele><time>2026-04-26T15:39:23.998Z</time></trkpt><trkpt lat="43.451631302687154" lon="13.610550457985683"><ele>8.0</ele><time>2026-04-26T15:39:24.998Z</time></trkpt><trkpt lat="43.451482577345026" lon="13.610626722634466"><ele>8.0</ele><time>2026-04-26T15:39:25.998Z</time></trkpt><trkpt lat="43.45133339819118" lon="13.610703568381627"><ele>8.0</ele><time>2026-04-26T15:39:26.998Z</time></trkpt><trkpt lat="43.45118271318339" lon="13.610778714367273"><ele>8.0</ele><time>2026-04-26T15:39:27.998Z</time></trkpt><trkpt lat="43.45103207631785" lon="13.6108548956177"><ele>8.666666666666666</ele><time>2026-04-26T15:39:29Z</time></trkpt><trkpt lat="43.450879609038175" lon="13.610935817625148"><ele>9.333333333333334</ele><time>2026-04-26T15:39:30Z</time></trkpt><trkpt lat="43.45072620988645" lon="13.611021308303433"><ele>10.0</ele><time>2026-04-26T15:39:31Z</time></trkpt><trkpt lat="43.45056922443271" lon="13.611106969348882"><ele>10.0</ele><time>2026-04-26T15:39:32Z</time></trkpt><trkpt lat="43.450409492516656" lon="13.611190584772395"><ele>10.0</ele><time>2026-04-26T15:39:33Z</time></trkpt><trkpt lat="43.450245298413925" lon="13.611275552970575"><ele>10.0</ele><time>2026-04-26T15:39:34Z</time></trkpt><trkpt lat="43.45007958131123" lon="13.611361842658486"><ele>10.0</ele><time>2026-04-26T15:39:35Z</time></trkpt><trkpt lat="43.4499120787219" lon="13.611448902139045"><ele>10.0</ele><time>2026-04-26T15:39:36Z</time></trkpt><trkpt lat="43.44974223073889" lon="13.611534792781484"><ele>10.0</ele><time>2026-04-26T15:39:37Z</time></trkpt><trkpt lat="43.44957286757335" lon="13.61162163918583"><ele>10.333333333333334</ele><time>2026-04-26T15:39:38Z</time></trkpt><trkpt lat="43.44939952367328" lon="13.61171407242046"><ele>10.666666666666666</ele><time>2026-04-26T15:39:39Z</time></trkpt><trkpt lat="43.44922420480109" lon="13.611804581372226"><ele>11.0</ele><time>2026-04-26T15:39:40Z</time></trkpt><trkpt lat="43.44904574952814" lon="13.611893138719859"><ele>11.0</ele><time>2026-04-26T15:39:41Z</time></trkpt><trkpt lat="43.44887164825912" lon="13.611983123441334"><ele>11.0</ele><time>2026-04-26T15:39:42Z</time></trkpt><trkpt lat="43.44870108575239" lon="13.612078321364635"><ele>11.0</ele><time>2026-04-26T15:39:43Z</time></trkpt><trkpt lat="43.448535275270395" lon="13.612174936061882"><ele>11.0</ele><time>2026-04-26T15:39:44Z</time></trkpt><trkpt lat="43.44837112244072" lon="13.612277771911257"><ele>11.0</ele><time>2026-04-26T15:39:45Z</time></trkpt><trkpt lat="43.44821030807908" lon="13.61238959467233"><ele>11.0</ele><time>2026-04-26T15:39:46Z</time></trkpt><trkpt lat="43.448052747227216" lon="13.61251120766923"><ele>11.333333333333332</ele><time>2026-04-26T15:39:47Z</time></trkpt><trkpt lat="43.4478999005279" lon="13.612641406806938"><ele>11.666666666666666</ele><time>2026-04-26T15:39:48Z</time></trkpt><trkpt lat="43.447752670876014" lon="13.612780156215962"><ele>12.0</ele><time>2026-04-26T15:39:49Z</time></trkpt><trkpt lat="43.44761173599078" lon="13.612922143456363"><ele>12.333333333333332</ele><time>2026-04-26T15:39:50Z</time></trkpt><trkpt lat="43.44747272229073" lon="13.613067705206968"><ele>12.666666666666666</ele><time>2026-04-26T15:39:51Z</time></trkpt><trkpt lat="43.44733556585395" lon="13.613218822175545"><ele>13.0</ele><time>2026-04-26T15:39:52Z</time></trkpt><trkpt lat="43.447209143713515" lon="13.613378042433103"><ele>13.0</ele><time>2026-04-26T15:39:53Z</time></trkpt><trkpt lat="43.447091599576865" lon="13.613542474025236"><ele>13.0</ele><time>2026-04-26T15:39:54Z</time></trkpt><trkpt lat="43.446976057440565" lon="13.613709851959827"><ele>13.0</ele><time>2026-04-26T15:39:55Z</time></trkpt><trkpt lat="43.44686473532543" lon="13.613876852925168"><ele>13.333333333333332</ele><time>2026-04-26T15:39:56Z</time></trkpt><trkpt lat="43.446755941971546" lon="13.614052221009016"><ele>13.666666666666668</ele><time>2026-04-26T15:39:57Z</time></trkpt><trkpt lat="43.4466513654819" lon="13.614234018055747"><ele>14.0</ele><time>2026-04-26T15:39:58Z</time></trkpt><trkpt lat="43.44655115657247" lon="13.614422577395779"><ele>13.333333333333334</ele><time>2026-04-26T15:39:59Z</time></trkpt><trkpt lat="43.446456585046676" lon="13.61461692605359"><ele>12.666666666666668</ele><time>2026-04-26T15:40:00Z</time></trkpt><trkpt lat="43.44636547480608" lon="13.614819495738342"><ele>12.0</ele><time>2026-04-26T15:40:01Z</time></trkpt><trkpt lat="43.446279069284735" lon="13.61502626605134"><ele>12.0</ele><time>2026-04-26T15:40:02Z</time></trkpt><trkpt lat="43.44619475727946" lon="13.615239572316309"><ele>12.0</ele><time>2026-04-26T15:40:03Z</time></trkpt><trkpt lat="43.446118325933504" lon="13.615460396506853"><ele>12.0</ele><time>2026-04-26T15:40:04Z</time></trkpt><trkpt lat="43.44604807944012" lon="13.615684642660986"><ele>12.333333333333332</ele><time>2026-04-26T15:40:05Z</time></trkpt><trkpt lat="43.44598417708631" lon="13.615910353446102"><ele>12.666666666666666</ele><time>2026-04-26T15:40:06Z</time></trkpt><trkpt lat="43.44592670667687" lon="13.616141247022698"><ele>13.0</ele><time>2026-04-26T15:40:07Z</time></trkpt><trkpt lat="43.44587423936766" lon="13.61637458891392"><ele>13.0</ele><time>2026-04-26T15:40:07.999Z</time></trkpt><trkpt lat="43.44582554954928" lon="13.616598021450361"><ele>13.0</ele><time>2026-04-26T15:40:08.999Z</time></trkpt><trkpt lat="43.445779490038504" lon="13.616812915384907"><ele>13.0</ele><time>2026-04-26T15:40:09.999Z</time></trkpt><trkpt lat="43.4457353802649" lon="13.61701725692853"><ele>13.0</ele><time>2026-04-26T15:40:10.999Z</time></trkpt><trkpt lat="43.44569068265209" lon="13.617219270640005"><ele>13.0</ele><time>2026-04-26T15:40:11.999Z</time></trkpt><trkpt lat="43.44564299735767" lon="13.617432877434469"><ele>13.0</ele><time>2026-04-26T15:40:12.999Z</time></trkpt><trkpt lat="43.44559705195377" lon="13.617652563979297"><ele>13.0</ele><time>2026-04-26T15:40:13.999Z</time></trkpt><trkpt lat="43.44554956953674" lon="13.617876057573316"><ele>13.0</ele><time>2026-04-26T15:40:14.999Z</time></trkpt><trkpt lat="43.44550088561224" lon="13.618100856035534"><ele>13.0</ele><time>2026-04-26T15:40:15.999Z</time></trkpt><trkpt lat="43.44545174970302" lon="13.618330990232659"><ele>12.666666666666666</ele><time>2026-04-26T15:40:16.999Z</time></trkpt><trkpt lat="43.445400904404885" lon="13.618569163440794"><ele>12.333333333333332</ele><time>2026-04-26T15:40:17.999Z</time></trkpt><trkpt lat="43.44535091497403" lon="13.618808808135594"><ele>12.0</ele><time>2026-04-26T15:40:18.999Z</time></trkpt><trkpt lat="43.445303549319824" lon="13.619053534431302"><ele>12.0</ele><time>2026-04-26T15:40:19.999Z</time></trkpt><trkpt lat="43.44525619643187" lon="13.619299571181603"><ele>12.0</ele><time>2026-04-26T15:40:20.999Z</time></trkpt><trkpt lat="43.445209627953" lon="13.619535489760198"><ele>12.0</ele><time>2026-04-26T15:40:21.999Z</time></trkpt><trkpt lat="43.44516564020223" lon="13.619750918597985"><ele>11.75</ele><time>2026-04-26T15:40:22.999Z</time></trkpt><trkpt lat="43.445124061032246" lon="13.619950140816886"><ele>11.5</ele><time>2026-04-26T15:40:23.999Z</time></trkpt><trkpt lat="43.445085367407316" lon="13.620139508798427"><ele>11.25</ele><time>2026-04-26T15:40:24.999Z</time></trkpt><trkpt lat="43.445046295785744" lon="13.620326043428195"><ele>11.0</ele><time>2026-04-26T15:40:25.999Z</time></trkpt><trkpt lat="43.445006749084605" lon="13.620521366167642"><ele>11.666666666666666</ele><time>2026-04-26T15:40:26.999Z</time></trkpt><trkpt lat="43.44496461400198" lon="13.620724369877468"><ele>12.333333333333332</ele><time>2026-04-26T15:40:27.999Z</time></trkpt><trkpt lat="43.444919711052165" lon="13.620935518439635"><ele>13.0</ele><time>2026-04-26T15:40:28.999Z</time></trkpt><trkpt lat="43.4448749015627" lon="13.62114679122056"><ele>12.75</ele><time>2026-04-26T15:40:29.999Z</time></trkpt><trkpt lat="43.44482896982352" lon="13.621357820408987"><ele>12.5</ele><time>2026-04-26T15:40:30.999Z</time></trkpt><trkpt lat="43.444788864769286" lon="13.621554709027539"><ele>12.25</ele><time>2026-04-26T15:40:31.999Z</time></trkpt><trkpt lat="43.444751778953574" lon="13.621736752766315"><ele>12.0</ele><time>2026-04-26T15:40:32.999Z</time></trkpt><trkpt lat="43.44471560666089" lon="13.6219073174856"><ele>11.75</ele><time>2026-04-26T15:40:33.999Z</time></trkpt><trkpt lat="43.4446825460671" lon="13.62207601353449"><ele>11.5</ele><time>2026-04-26T15:40:34.999Z</time></trkpt><trkpt lat="43.44464984014655" lon="13.6222442433591"><ele>11.25</ele><time>2026-04-26T15:40:35.999Z</time></trkpt><trkpt lat="43.44461337434443" lon="13.622418337386284"><ele>11.0</ele><time>2026-04-26T15:40:36.999Z</time></trkpt><trkpt lat="43.44457316728593" lon="13.62259572527016"><ele>11.0</ele><time>2026-04-26T15:40:37.999Z</time></trkpt><trkpt lat="43.444532474117345" lon="13.622776649833353"><ele>11.0</ele><time>2026-04-26T15:40:38.999Z</time></trkpt><trkpt lat="43.44449497647961" lon="13.622968006115096"><ele>11.0</ele><time>2026-04-26T15:40:39.999Z</time></trkpt><trkpt lat="43.44445903928994" lon="13.623165962159039"><ele>11.0</ele><time>2026-04-26T15:40:40.999Z</time></trkpt><trkpt lat="43.44442607835315" lon="13.623363186915252"><ele>11.25</ele><time>2026-04-26T15:40:41.999Z</time></trkpt><trkpt lat="43.44439416011075" lon="13.62355974688602"><ele>11.5</ele><time>2026-04-26T15:40:42.999Z</time></trkpt><trkpt lat="43.444366028826195" lon="13.623758414634656"><ele>11.75</ele><time>2026-04-26T15:40:43.999Z</time></trkpt><trkpt lat="43.444339561906475" lon="13.623962003451583"><ele>12.0</ele><time>2026-04-26T15:40:44.999Z</time></trkpt><trkpt lat="43.444317046876996" lon="13.624172646212827"><ele>12.0</ele><time>2026-04-26T15:40:45.999Z</time></trkpt><trkpt lat="43.44430135340681" lon="13.624393452036394"><ele>12.0</ele><time>2026-04-26T15:40:46.999Z</time></trkpt><trkpt lat="43.44428700699675" lon="13.624612227123233"><ele>12.0</ele><time>2026-04-26T15:40:47.999Z</time></trkpt><trkpt lat="43.44427386329829" lon="13.624836236002949"><ele>11.666666666666666</ele><time>2026-04-26T15:40:48.999Z</time></trkpt><trkpt lat="43.44426394703771" lon="13.625054273641858"><ele>11.333333333333332</ele><time>2026-04-26T15:40:49.999Z</time></trkpt><trkpt lat="43.44426033105002" lon="13.625268069495162"><ele>11.0</ele><time>2026-04-26T15:40:50.999Z</time></trkpt><trkpt lat="43.4442601957703" lon="13.625482436720079"><ele>11.666666666666666</ele><time>2026-04-26T15:40:51.999Z</time></trkpt><trkpt lat="43.44426354894758" lon="13.625696300171263"><ele>12.333333333333332</ele><time>2026-04-26T15:40:52.999Z</time></trkpt><trkpt lat="43.444269229696516" lon="13.62590812861547"><ele>13.0</ele><time>2026-04-26T15:40:53.998Z</time></trkpt><trkpt lat="43.444279032175565" lon="13.626120389241747"><ele>13.0</ele><time>2026-04-26T15:40:54.998Z</time></trkpt><trkpt lat="43.44429379871402" lon="13.626336750546109"><ele>13.0</ele><time>2026-04-26T15:40:55.998Z</time></trkpt><trkpt lat="43.44431214584737" lon="13.626549340873826"><ele>13.0</ele><time>2026-04-26T15:40:56.998Z</time></trkpt><trkpt lat="43.44433257991777" lon="13.626760694193568"><ele>13.0</ele><time>2026-04-26T15:40:57.998Z</time></trkpt><trkpt lat="43.444356088333265" lon="13.62697039861373"><ele>13.0</ele><time>2026-04-26T15:40:58.998Z</time></trkpt><trkpt lat="43.44438271492525" lon="13.627177062984368"><ele>13.0</ele><time>2026-04-26T15:40:59.998Z</time></trkpt><trkpt lat="43.44440972829805" lon="13.62738111364301"><ele>12.666666666666666</ele><time>2026-04-26T15:41:00.998Z</time></trkpt><trkpt lat="43.44444210374385" lon="13.627584558959972"><ele>12.333333333333332</ele><time>2026-04-26T15:41:01.998Z</time></trkpt><trkpt lat="43.44448005296749" lon="13.62778864154704"><ele>12.0</ele><time>2026-04-26T15:41:02.998Z</time></trkpt><trkpt lat="43.4445209238847" lon="13.627996682399253"><ele>12.0</ele><time>2026-04-26T15:41:03.998Z</time></trkpt><trkpt lat="43.44456463835751" lon="13.628207771519351"><ele>12.0</ele><time>2026-04-26T15:41:04.998Z</time></trkpt><trkpt lat="43.44460823521358" lon="13.62842378885293"><ele>12.0</ele><time>2026-04-26T15:41:05.998Z</time></trkpt><trkpt lat="43.44465040220914" lon="13.628640683834128"><ele>10.0</ele><time>2026-04-26T15:41:06.998Z</time></trkpt><trkpt lat="43.44468890030562" lon="13.628855426223973"><ele>8.0</ele><time>2026-04-26T15:41:07.998Z</time></trkpt><trkpt lat="43.44472669554408" lon="13.629067849504395"><ele>6.0</ele><time>2026-04-26T15:41:08.998Z</time></trkpt><trkpt lat="43.444764876013394" lon="13.62927787886559"><ele>7.0</ele><time>2026-04-26T15:41:09.998Z</time></trkpt><trkpt lat="43.44480057577912" lon="13.629481173270776"><ele>8.0</ele><time>2026-04-26T15:41:10.998Z</time></trkpt><trkpt lat="43.44483167357558" lon="13.62967700690009"><ele>9.0</ele><time>2026-04-26T15:41:11.998Z</time></trkpt><trkpt lat="43.444856717553314" lon="13.629869353813428"><ele>10.0</ele><time>2026-04-26T15:41:12.998Z</time></trkpt><trkpt lat="43.44487397260775" lon="13.630059799292226"><ele>10.0</ele><time>2026-04-26T15:41:13.998Z</time></trkpt><trkpt lat="43.44488801595759" lon="13.63025238902518"><ele>10.0</ele><time>2026-04-26T15:41:14.998Z</time></trkpt><trkpt lat="43.44489738942023" lon="13.630446398816241"><ele>10.0</ele><time>2026-04-26T15:41:15.998Z</time></trkpt><trkpt lat="43.44490441998856" lon="13.630640198605365"><ele>10.0</ele><time>2026-04-26T15:41:16.998Z</time></trkpt><trkpt lat="43.44490494650002" lon="13.63083645091677"><ele>9.75</ele><time>2026-04-26T15:41:17.998Z</time></trkpt><trkpt lat="43.444901023451756" lon="13.63103349962701"><ele>9.5</ele><time>2026-04-26T15:41:18.998Z</time></trkpt><trkpt lat="43.44488457408443" lon="13.631238333314725"><ele>9.25</ele><time>2026-04-26T15:41:19.998Z</time></trkpt><trkpt lat="43.44486173666294" lon="13.631442243385191"><ele>9.0</ele><time>2026-04-26T15:41:20.998Z</time></trkpt><trkpt lat="43.44483237108763" lon="13.631638378152537"><ele>8.5</ele><time>2026-04-26T15:41:21.998Z</time></trkpt><trkpt lat="43.44479465073657" lon="13.631833575726754"><ele>8.0</ele><time>2026-04-26T15:41:22.998Z</time></trkpt><trkpt lat="43.44475327978045" lon="13.632024104896926"><ele>7.5</ele><time>2026-04-26T15:41:23.998Z</time></trkpt><trkpt lat="43.44470894906177" lon="13.632213138041912"><ele>7.0</ele><time>2026-04-26T15:41:24.998Z</time></trkpt><trkpt lat="43.44466008912719" lon="13.632402858991291"><ele>7.0</ele><time>2026-04-26T15:41:25.998Z</time></trkpt><trkpt lat="43.44460517659012" lon="13.632597146020832"><ele>7.0</ele><time>2026-04-26T15:41:26.998Z</time></trkpt><trkpt lat="43.44454298811353" lon="13.632792004442846"><ele>7.0</ele><time>2026-04-26T15:41:27.998Z</time></trkpt><trkpt lat="43.444472467277265" lon="13.632984693610064"><ele>7.333333333333334</ele><time>2026-04-26T15:41:28.998Z</time></trkpt><trkpt lat="43.44439290809912" lon="13.633169562431517"><ele>7.666666666666666</ele><time>2026-04-26T15:41:29.998Z</time></trkpt><trkpt lat="43.444305771423075" lon="13.633351075797218"><ele>8.0</ele><time>2026-04-26T15:41:30.998Z</time></trkpt><trkpt lat="43.44421593403302" lon="13.633526096795539"><ele>8.666666666666666</ele><time>2026-04-26T15:41:31.998Z</time></trkpt><trkpt lat="43.44412286583544" lon="13.633690743538999"><ele>9.333333333333334</ele><time>2026-04-26T15:41:32.998Z</time></trkpt><trkpt lat="43.44402546763664" lon="13.633845962377737"><ele>10.0</ele><time>2026-04-26T15:41:33.998Z</time></trkpt><trkpt lat="43.443923858632104" lon="13.63399725466854"><ele>10.0</ele><time>2026-04-26T15:41:35Z</time></trkpt><trkpt lat="43.443821566334194" lon="13.634142792716354"><ele>10.0</ele><time>2026-04-26T15:41:36Z</time></trkpt><trkpt lat="43.4437180851832" lon="13.634280613704444"><ele>10.0</ele><time>2026-04-26T15:41:37Z</time></trkpt><trkpt lat="43.443610882559696" lon="13.634406527097703"><ele>10.0</ele><time>2026-04-26T15:41:38Z</time></trkpt><trkpt lat="43.443497046324715" lon="13.634526112122463"><ele>12.25</ele><time>2026-04-26T15:41:39Z</time></trkpt><trkpt lat="43.443380556569075" lon="13.634639384430159"><ele>14.5</ele><time>2026-04-26T15:41:40Z</time></trkpt><trkpt lat="43.44326514030618" lon="13.634752246704831"><ele>16.75</ele><time>2026-04-26T15:41:41Z</time></trkpt><trkpt lat="43.44314944380334" lon="13.634868895906111"><ele>19.0</ele><time>2026-04-26T15:41:42Z</time></trkpt><trkpt lat="43.44303375031572" lon="13.634987828527988"><ele>19.75</ele><time>2026-04-26T15:41:43Z</time></trkpt><trkpt lat="43.44291754674414" lon="13.635106483653132"><ele>20.5</ele><time>2026-04-26T15:41:44Z</time></trkpt><trkpt lat="43.442798778360945" lon="13.635223380887034"><ele>21.25</ele><time>2026-04-26T15:41:45Z</time></trkpt><trkpt lat="43.44267695612082" lon="13.6353426169977"><ele>22.0</ele><time>2026-04-26T15:41:46Z</time></trkpt><trkpt lat="43.44255635495902" lon="13.635463284183365"><ele>23.333333333333332</ele><time>2026-04-26T15:41:47Z</time></trkpt><trkpt lat="43.44243755380272" lon="13.6355823647903"><ele>24.666666666666664</ele><time>2026-04-26T15:41:48Z</time></trkpt><trkpt lat="43.44231042631028" lon="13.635702460109927"><ele>26.0</ele><time>2026-04-26T15:41:49Z</time></trkpt><trkpt lat="43.442184771289945" lon="13.635820599895402"><ele>25.0</ele><time>2026-04-26T15:41:50Z</time></trkpt><trkpt lat="43.44205530341169" lon="13.635943408223953"><ele>24.0</ele><time>2026-04-26T15:41:51Z</time></trkpt><trkpt lat="43.441923289252" lon="13.63607134540245"><ele>23.0</ele><time>2026-04-26T15:41:52Z</time></trkpt><trkpt lat="43.44178723889209" lon="13.636203420866899"><ele>23.0</ele><time>2026-04-26T15:41:53Z</time></trkpt><trkpt lat="43.44164926203473" lon="13.636338157802664"><ele>23.0</ele><time>2026-04-26T15:41:54Z</time></trkpt><trkpt lat="43.44151156291483" lon="13.636473758862232"><ele>23.0</ele><time>2026-04-26T15:41:55Z</time></trkpt><trkpt lat="43.441374858420836" lon="13.636608112289455"><ele>22.333333333333336</ele><time>2026-04-26T15:41:56Z</time></trkpt><trkpt lat="43.441236923377666" lon="13.636744022106306"><ele>21.666666666666668</ele><time>2026-04-26T15:41:57Z</time></trkpt><trkpt lat="43.44110136854792" lon="13.636876768611415"><ele>21.0</ele><time>2026-04-26T15:41:58Z</time></trkpt><trkpt lat="43.44096625501382" lon="13.63700927807897"><ele>21.0</ele><time>2026-04-26T15:41:59Z</time></trkpt><trkpt lat="43.440833045031695" lon="13.63714047186031"><ele>21.0</ele><time>2026-04-26T15:42:00Z</time></trkpt><trkpt lat="43.44070211112573" lon="13.63726767910556"><ele>21.0</ele><time>2026-04-26T15:42:01Z</time></trkpt><trkpt lat="43.4405708727986" lon="13.637394317593643"><ele>18.333333333333332</ele><time>2026-04-26T15:42:02Z</time></trkpt><trkpt lat="43.44044128041197" lon="13.637518653461683"><ele>15.666666666666666</ele><time>2026-04-26T15:42:03Z</time></trkpt><trkpt lat="43.4403149054537" lon="13.637641018839044"><ele>13.0</ele><time>2026-04-26T15:42:04Z</time></trkpt><trkpt lat="43.440189461531105" lon="13.637765244103091"><ele>13.75</ele><time>2026-04-26T15:42:05Z</time></trkpt><trkpt lat="43.44006898005908" lon="13.637889250103544"><ele>14.5</ele><time>2026-04-26T15:42:06Z</time></trkpt><trkpt lat="43.43995521091976" lon="13.638010171551887"><ele>15.25</ele><time>2026-04-26T15:42:07Z</time></trkpt><trkpt lat="43.43985201608386" lon="13.638123508669452"><ele>16.0</ele><time>2026-04-26T15:42:08Z</time></trkpt><trkpt lat="43.43976371122793" lon="13.638230795158092"><ele>16.0</ele><time>2026-04-26T15:42:09Z</time></trkpt><trkpt lat="43.43968655819108" lon="13.638333756306652"><ele>16.0</ele><time>2026-04-26T15:42:09.999Z</time></trkpt><trkpt lat="43.43961453697448" lon="13.638429716589417"><ele>16.0</ele><time>2026-04-26T15:42:10.999Z</time></trkpt><trkpt lat="43.439548762406794" lon="13.638518949562533"><ele>16.0</ele><time>2026-04-26T15:42:11.999Z</time></trkpt><trkpt lat="43.43948983431337" lon="13.63860229361237"><ele>16.0</ele><time>2026-04-26T15:42:12.999Z</time></trkpt><trkpt lat="43.43944269206703" lon="13.638676876598797"><ele>15.200000000000001</ele><time>2026-04-26T15:42:13.999Z</time></trkpt><trkpt lat="43.43940234113961" lon="13.63874353967391"><ele>14.400000000000002</ele><time>2026-04-26T15:42:14.999Z</time></trkpt><trkpt lat="43.43933033953146" lon="13.638861223129249"><ele>13.6</ele><time>2026-04-26T15:42:16.999Z</time></trkpt><trkpt lat="43.43925825803024" lon="13.638978438702738"><ele>12.8</ele><time>2026-04-26T15:42:18.999Z</time></trkpt><trkpt lat="43.43917631437816" lon="13.639111734120599"><ele>12.0</ele><time>2026-04-26T15:42:20.999Z</time></trkpt><trkpt lat="43.43913163397481" lon="13.639189062688667"><ele>12.0</ele><time>2026-04-26T15:42:21.999Z</time></trkpt><trkpt lat="43.439087219085714" lon="13.639265117974027"><ele>12.0</ele><time>2026-04-26T15:42:22.999Z</time></trkpt><trkpt lat="43.43904236189011" lon="13.639342160782935"><ele>12.0</ele><time>2026-04-26T15:42:23.999Z</time></trkpt><trkpt lat="43.439001180596755" lon="13.639414512460863"><ele>12.0</ele><time>2026-04-26T15:42:24.999Z</time></trkpt><trkpt lat="43.4389360364364" lon="13.639527255791565"><ele>12.0</ele><time>2026-04-26T15:42:26.999Z</time></trkpt><trkpt lat="43.438878279177324" lon="13.639626380666488"><ele>12.0</ele><time>2026-04-26T15:42:28.999Z</time></trkpt><trkpt lat="43.43880969084783" lon="13.639760586713175"><ele>12.333333333333334</ele><time>2026-04-26T15:42:30.999Z</time></trkpt><trkpt lat="43.43876921212631" lon="13.639842775544128"><ele>12.666666666666668</ele><time>2026-04-26T15:42:31.999Z</time></trkpt><trkpt lat="43.43872045670557" lon="13.63992904517968"><ele>13.0</ele><time>2026-04-26T15:42:32.999Z</time></trkpt><trkpt lat="43.43866878796681" lon="13.640019263917598"><ele>13.333333333333334</ele><time>2026-04-26T15:42:33.999Z</time></trkpt><trkpt lat="43.43861046225971" lon="13.64011806205122"><ele>13.666666666666668</ele><time>2026-04-26T15:42:34.999Z</time></trkpt><trkpt lat="43.438551722989075" lon="13.640217240816552"><ele>14.0</ele><time>2026-04-26T15:42:35.999Z</time></trkpt><trkpt lat="43.438493547516934" lon="13.640304994504321"><ele>14.000000000000002</ele><time>2026-04-26T15:42:36.999Z</time></trkpt><trkpt lat="43.43844315903854" lon="13.64039063736168"><ele>14.0</ele><time>2026-04-26T15:42:37.999Z</time></trkpt><trkpt lat="43.438396721111495" lon="13.640477710067966"><ele>14.0</ele><time>2026-04-26T15:42:38.999Z</time></trkpt><trkpt lat="43.43834740631559" lon="13.640568489145199"><ele>14.0</ele><time>2026-04-26T15:42:39.999Z</time></trkpt><trkpt lat="43.438290141501554" lon="13.640669704727975"><ele>14.000000000000002</ele><time>2026-04-26T15:42:40.999Z</time></trkpt><trkpt lat="43.4382288994608" lon="13.640775168151496"><ele>14.0</ele><time>2026-04-26T15:42:41.999Z</time></trkpt><trkpt lat="43.438165275894384" lon="13.640881264183262"><ele>14.0</ele><time>2026-04-26T15:42:42.999Z</time></trkpt><trkpt lat="43.43810080369812" lon="13.6409939338772"><ele>13.999999999999998</ele><time>2026-04-26T15:42:43.999Z</time></trkpt><trkpt lat="43.438033141118474" lon="13.641112250588895"><ele>13.999999999999998</ele><time>2026-04-26T15:42:44.999Z</time></trkpt><trkpt lat="43.43796305667011" lon="13.641234983089824"><ele>14.0</ele><time>2026-04-26T15:42:45.999Z</time></trkpt><trkpt lat="43.43789162026642" lon="13.641357433309494"><ele>14.0</ele><time>2026-04-26T15:42:46.999Z</time></trkpt><trkpt lat="43.437818866940056" lon="13.64148472286745"><ele>13.5</ele><time>2026-04-26T15:42:47.999Z</time></trkpt><trkpt lat="43.437745157486894" lon="13.64161134658791"><ele>13.0</ele><time>2026-04-26T15:42:48.999Z</time></trkpt><trkpt lat="43.43767140010465" lon="13.641735621550527"><ele>12.5</ele><time>2026-04-26T15:42:49.999Z</time></trkpt><trkpt lat="43.43759898637544" lon="13.641856136350306"><ele>12.0</ele><time>2026-04-26T15:42:50.999Z</time></trkpt><trkpt lat="43.43753065948896" lon="13.641972259024147"><ele>12.0</ele><time>2026-04-26T15:42:51.999Z</time></trkpt><trkpt lat="43.43746390916799" lon="13.642088391554072"><ele>12.0</ele><time>2026-04-26T15:42:52.999Z</time></trkpt><trkpt lat="43.437401509157795" lon="13.64219744060129"><ele>12.0</ele><time>2026-04-26T15:42:53.999Z</time></trkpt><trkpt lat="43.437347108766126" lon="13.642293567146691"><ele>12.0</ele><time>2026-04-26T15:42:54.998Z</time></trkpt><trkpt lat="43.437294360012224" lon="13.642387121986857"><ele>12.0</ele><time>2026-04-26T15:42:55.998Z</time></trkpt><trkpt lat="43.43723557197677" lon="13.642488706420123"><ele>12.0</ele><time>2026-04-26T15:42:56.998Z</time></trkpt><trkpt lat="43.43717138787757" lon="13.642594383655021"><ele>12.0</ele><time>2026-04-26T15:42:57.998Z</time></trkpt><trkpt lat="43.43710336920733" lon="13.642708111167721"><ele>12.0</ele><time>2026-04-26T15:42:58.998Z</time></trkpt><trkpt lat="43.43703141741704" lon="13.642831816088819"><ele>12.0</ele><time>2026-04-26T15:42:59.998Z</time></trkpt><trkpt lat="43.43695696350296" lon="13.64295869753058"><ele>12.0</ele><time>2026-04-26T15:43:00.998Z</time></trkpt><trkpt lat="43.43688148278799" lon="13.643090732298043"><ele>11.25</ele><time>2026-04-26T15:43:01.998Z</time></trkpt><trkpt lat="43.43680890030911" lon="13.643221991810766"><ele>10.5</ele><time>2026-04-26T15:43:02.998Z</time></trkpt><trkpt lat="43.436740116638404" lon="13.643349802231205"><ele>9.75</ele><time>2026-04-26T15:43:03.998Z</time></trkpt><trkpt lat="43.43667437311694" lon="13.643484340706099"><ele>9.0</ele><time>2026-04-26T15:43:04.998Z</time></trkpt><trkpt lat="43.43660935789648" lon="13.643617120656051"><ele>9.0</ele><time>2026-04-26T15:43:05.998Z</time></trkpt><trkpt lat="43.43654713987875" lon="13.643737754836373"><ele>9.0</ele><time>2026-04-26T15:43:06.998Z</time></trkpt><trkpt lat="43.43649539162789" lon="13.64384357707417"><ele>9.0</ele><time>2026-04-26T15:43:07.998Z</time></trkpt><trkpt lat="43.43644842245625" lon="13.643945423543029"><ele>9.0</ele><time>2026-04-26T15:43:08.998Z</time></trkpt><trkpt lat="43.43640355651003" lon="13.644048953210856"><ele>9.0</ele><time>2026-04-26T15:43:09.998Z</time></trkpt><trkpt lat="43.436364104930355" lon="13.644146759477177"><ele>9.000000000000002</ele><time>2026-04-26T15:43:10.998Z</time></trkpt><trkpt lat="43.436321766714485" lon="13.6442356155359"><ele>9.0</ele><time>2026-04-26T15:43:11.998Z</time></trkpt><trkpt lat="43.43628074210375" lon="13.644314402527995"><ele>9.0</ele><time>2026-04-26T15:43:12.998Z</time></trkpt><trkpt lat="43.43624633981769" lon="13.644389309153809"><ele>9.0</ele><time>2026-04-26T15:43:13.998Z</time></trkpt><trkpt lat="43.43621284189777" lon="13.644477435596237"><ele>9.0</ele><time>2026-04-26T15:43:14.998Z</time></trkpt><trkpt lat="43.43617699653136" lon="13.64457857962656"><ele>9.000000000000002</ele><time>2026-04-26T15:43:15.998Z</time></trkpt><trkpt lat="43.43613658032022" lon="13.644675382985305"><ele>9.0</ele><time>2026-04-26T15:43:16.998Z</time></trkpt><trkpt lat="43.43609608095697" lon="13.644762321049415"><ele>8.833333333333334</ele><time>2026-04-26T15:43:17.998Z</time></trkpt><trkpt lat="43.43605725339465" lon="13.64485499685018"><ele>8.666666666666666</ele><time>2026-04-26T15:43:18.998Z</time></trkpt><trkpt lat="43.436021134626515" lon="13.644946318567786"><ele>8.5</ele><time>2026-04-26T15:43:19.998Z</time></trkpt><trkpt lat="43.43598143708424" lon="13.645038109103837"><ele>8.333333333333332</ele><time>2026-04-26T15:43:20.998Z</time></trkpt><trkpt lat="43.43594278723394" lon="13.645117010888187"><ele>8.166666666666666</ele><time>2026-04-26T15:43:21.998Z</time></trkpt><trkpt lat="43.43590186389853" lon="13.645186875394076"><ele>8.0</ele><time>2026-04-26T15:43:22.998Z</time></trkpt><trkpt lat="43.43581009563163" lon="13.645292751030919"><ele>8.166666666666666</ele><time>2026-04-26T15:43:24.998Z</time></trkpt><trkpt lat="43.435754631563476" lon="13.645338661257266"><ele>8.333333333333332</ele><time>2026-04-26T15:43:25.998Z</time></trkpt><trkpt lat="43.435697498555285" lon="13.645386795356261"><ele>8.5</ele><time>2026-04-26T15:43:26.998Z</time></trkpt><trkpt lat="43.435655617709735" lon="13.64545167117652"><ele>8.666666666666666</ele><time>2026-04-26T15:43:27.998Z</time></trkpt><trkpt lat="43.43563868199532" lon="13.645605752740368"><ele>8.833333333333334</ele><time>2026-04-26T15:43:29.998Z</time></trkpt><trkpt lat="43.43564064936686" lon="13.645700594220267"><ele>9.0</ele><time>2026-04-26T15:43:30.998Z</time></trkpt><trkpt lat="43.43562833225711" lon="13.645807046480018"><ele>9.0</ele><time>2026-04-26T15:43:31.998Z</time></trkpt><trkpt lat="43.435603611135754" lon="13.64591451191545"><ele>9.0</ele><time>2026-04-26T15:43:32.998Z</time></trkpt><trkpt lat="43.435563898505805" lon="13.646025997494805"><ele>9.0</ele><time>2026-04-26T15:43:33.998Z</time></trkpt><trkpt lat="43.43551753481692" lon="13.646144201924512"><ele>9.0</ele><time>2026-04-26T15:43:34.998Z</time></trkpt><trkpt lat="43.43547173264948" lon="13.646266299836393"><ele>9.0</ele><time>2026-04-26T15:43:35.998Z</time></trkpt><trkpt lat="43.43542897632236" lon="13.6464031802119"><ele>8.6</ele><time>2026-04-26T15:43:36.998Z</time></trkpt><trkpt lat="43.435387431763054" lon="13.646542372674114"><ele>8.2</ele><time>2026-04-26T15:43:37.998Z</time></trkpt><trkpt lat="43.435347693233574" lon="13.646675621069841"><ele>7.799999999999999</ele><time>2026-04-26T15:43:38.998Z</time></trkpt><trkpt lat="43.43531032555876" lon="13.64680001185202"><ele>7.3999999999999995</ele><time>2026-04-26T15:43:40Z</time></trkpt><trkpt lat="43.4352794609233" lon="13.646919883713112"><ele>7.0</ele><time>2026-04-26T15:43:41Z</time></trkpt><trkpt lat="43.435255916645275" lon="13.647038246753365"><ele>7.0</ele><time>2026-04-26T15:43:42Z</time></trkpt><trkpt lat="43.43523727066448" lon="13.647161993652052"><ele>6.999999999999999</ele><time>2026-04-26T15:43:43Z</time></trkpt><trkpt lat="43.43521426660474" lon="13.647298238736202"><ele>6.999999999999999</ele><time>2026-04-26T15:43:44Z</time></trkpt><trkpt lat="43.43518526452772" lon="13.647439708491653"><ele>7.0</ele><time>2026-04-26T15:43:45Z</time></trkpt><trkpt lat="43.435154902893935" lon="13.64758130108075"><ele>7.0</ele><time>2026-04-26T15:43:46Z</time></trkpt><trkpt lat="43.435121122520265" lon="13.647730201164242"><ele>7.0</ele><time>2026-04-26T15:43:47Z</time></trkpt><trkpt lat="43.435089505227715" lon="13.6478797609159"><ele>7.0</ele><time>2026-04-26T15:43:48Z</time></trkpt><trkpt lat="43.43505765079928" lon="13.648027814219482"><ele>7.0</ele><time>2026-04-26T15:43:49Z</time></trkpt><trkpt lat="43.43502679902735" lon="13.648181073155289"><ele>7.0</ele><time>2026-04-26T15:43:50Z</time></trkpt><trkpt lat="43.43499662432338" lon="13.648334589157544"><ele>7.0</ele><time>2026-04-26T15:43:51Z</time></trkpt><trkpt lat="43.43496774753033" lon="13.648485728338626"><ele>7.0</ele><time>2026-04-26T15:43:52Z</time></trkpt><trkpt lat="43.434939235986306" lon="13.648640150159128"><ele>7.0</ele><time>2026-04-26T15:43:53Z</time></trkpt><trkpt lat="43.43491210325134" lon="13.648796115712367"><ele>7.0</ele><time>2026-04-26T15:43:54Z</time></trkpt><trkpt lat="43.43488750313233" lon="13.648953831773644"><ele>6.75</ele><time>2026-04-26T15:43:55Z</time></trkpt><trkpt lat="43.43486552021753" lon="13.649115686590411"><ele>6.5</ele><time>2026-04-26T15:43:56Z</time></trkpt><trkpt lat="43.43484699710672" lon="13.64928274518791"><ele>6.25</ele><time>2026-04-26T15:43:57Z</time></trkpt><trkpt lat="43.43483567000815" lon="13.649445285406388"><ele>6.0</ele><time>2026-04-26T15:43:58Z</time></trkpt><trkpt lat="43.43483384118191" lon="13.649606511264139"><ele>5.8</ele><time>2026-04-26T15:43:59Z</time></trkpt><trkpt lat="43.434839513146315" lon="13.649762300097438"><ele>5.6</ele><time>2026-04-26T15:44:00Z</time></trkpt><trkpt lat="43.434848642160965" lon="13.649912963120693"><ele>5.4</ele><time>2026-04-26T15:44:01Z</time></trkpt><trkpt lat="43.4348629575078" lon="13.650047876063889"><ele>5.2</ele><time>2026-04-26T15:44:02Z</time></trkpt><trkpt lat="43.434876214471934" lon="13.650160060853905"><ele>5.0</ele><time>2026-04-26T15:44:03Z</time></trkpt><trkpt lat="43.4348867091067" lon="13.65025761554185"><ele>5.166666666666667</ele><time>2026-04-26T15:44:04Z</time></trkpt><trkpt lat="43.43490070529627" lon="13.650344968423065"><ele>5.333333333333334</ele><time>2026-04-26T15:44:05Z</time></trkpt><trkpt lat="43.43490752242529" lon="13.650437808090487"><ele>5.5</ele><time>2026-04-26T15:44:06Z</time></trkpt><trkpt lat="43.434917399985615" lon="13.650529163650182"><ele>5.666666666666667</ele><time>2026-04-26T15:44:07Z</time></trkpt><trkpt lat="43.43493159025345" lon="13.650641978519843"><ele>5.833333333333333</ele><time>2026-04-26T15:44:07.999Z</time></trkpt><trkpt lat="43.434955220503" lon="13.650830878024761"><ele>6.0</ele><time>2026-04-26T15:44:08.999Z</time></trkpt><trkpt lat="43.43497540476948" lon="13.65096094042904"><ele>6.0</ele><time>2026-04-26T15:44:09.999Z</time></trkpt><trkpt lat="43.43499736671425" lon="13.651090179582015"><ele>6.0</ele><time>2026-04-26T15:44:10.999Z</time></trkpt><trkpt lat="43.435020440179436" lon="13.651215545817315"><ele>6.0</ele><time>2026-04-26T15:44:11.999Z</time></trkpt><trkpt lat="43.43504544255834" lon="13.651346587558994"><ele>6.0</ele><time>2026-04-26T15:44:12.999Z</time></trkpt><trkpt lat="43.43507071847743" lon="13.651479274181863"><ele>6.0</ele><time>2026-04-26T15:44:13.999Z</time></trkpt><trkpt lat="43.435098279083455" lon="13.651611399064913"><ele>5.666666666666667</ele><time>2026-04-26T15:44:14.999Z</time></trkpt><trkpt lat="43.43512716740041" lon="13.65173798108558"><ele>5.333333333333333</ele><time>2026-04-26T15:44:15.999Z</time></trkpt><trkpt lat="43.435156545796936" lon="13.651859952802646"><ele>5.0</ele><time>2026-04-26T15:44:16.999Z</time></trkpt><trkpt lat="43.43518313088365" lon="13.651971572252911"><ele>4.666666666666666</ele><time>2026-04-26T15:44:17.999Z</time></trkpt><trkpt lat="43.43520922992529" lon="13.652075600872118"><ele>4.333333333333333</ele><time>2026-04-26T15:44:18.999Z</time></trkpt><trkpt lat="43.435233674012366" lon="13.652169716063586"><ele>4.0</ele><time>2026-04-26T15:44:19.999Z</time></trkpt><trkpt lat="43.43525605950838" lon="13.652253315714079"><ele>3.4000000000000004</ele><time>2026-04-26T15:44:20.999Z</time></trkpt><trkpt lat="43.435297764649874" lon="13.652420262401424"><ele>2.8000000000000003</ele><time>2026-04-26T15:44:22.999Z</time></trkpt><trkpt lat="43.43531699799646" lon="13.65250357594962"><ele>2.2</ele><time>2026-04-26T15:44:23.999Z</time></trkpt><trkpt lat="43.43534875982045" lon="13.652650939426204"><ele>1.6</ele><time>2026-04-26T15:44:25.999Z</time></trkpt><trkpt lat="43.435361509257575" lon="13.652756418195127"><ele>1.0</ele><time>2026-04-26T15:44:28.999Z</time></trkpt><trkpt lat="43.43533147642691" lon="13.6529089166895"><ele>1.0</ele><time>2026-04-26T15:44:30.999Z</time></trkpt><trkpt lat="43.435306266838126" lon="13.65298904433119"><ele>0.9999999999999999</ele><time>2026-04-26T15:44:31.999Z</time></trkpt><trkpt lat="43.4352995108921" lon="13.653075292315798"><ele>1.0</ele><time>2026-04-26T15:44:32.999Z</time></trkpt><trkpt lat="43.43531915251403" lon="13.65316318924348"><ele>1.0</ele><time>2026-04-26T15:44:33.999Z</time></trkpt><trkpt lat="43.43536795678047" lon="13.653235422664975"><ele>0.9999999999999999</ele><time>2026-04-26T15:44:34.999Z</time></trkpt><trkpt lat="43.43542668910119" lon="13.653311224089883"><ele>1.0</ele><time>2026-04-26T15:44:35.999Z</time></trkpt><trkpt lat="43.43547856691304" lon="13.653401392276754"><ele>1.0</ele><time>2026-04-26T15:44:36.999Z</time></trkpt><trkpt lat="43.43551374868878" lon="13.653518162659392"><ele>1.0</ele><time>2026-04-26T15:44:37.999Z</time></trkpt><trkpt lat="43.43552550264522" lon="13.65364893833581"><ele>1.0</ele><time>2026-04-26T15:44:38.999Z</time></trkpt><trkpt lat="43.43553410485336" lon="13.65378866210798"><ele>1.0</ele><time>2026-04-26T15:44:39.999Z</time></trkpt><trkpt lat="43.43554088406379" lon="13.653938590628234"><ele>1.0</ele><time>2026-04-26T15:44:40.999Z</time></trkpt><trkpt lat="43.43554293753403" lon="13.65408510265778"><ele>1.0</ele><time>2026-04-26T15:44:41.999Z</time></trkpt><trkpt lat="43.43554117105732" lon="13.65423388036724"><ele>1.0</ele><time>2026-04-26T15:44:42.999Z</time></trkpt><trkpt lat="43.43553898503828" lon="13.654385122090344"><ele>1.0</ele><time>2026-04-26T15:44:43.999Z</time></trkpt><trkpt lat="43.43553727596173" lon="13.654544964312946"><ele>1.0</ele><time>2026-04-26T15:44:44.999Z</time></trkpt><trkpt lat="43.435532446277946" lon="13.654712221836478"><ele>1.0</ele><time>2026-04-26T15:44:45.999Z</time></trkpt><trkpt lat="43.435530732735714" lon="13.654877122166122"><ele>1.0</ele><time>2026-04-26T15:44:46.999Z</time></trkpt><trkpt lat="43.43552917724932" lon="13.65503609961154"><ele>1.0</ele><time>2026-04-26T15:44:47.999Z</time></trkpt><trkpt lat="43.43552748894343" lon="13.655146664729047"><ele>1.0</ele><time>2026-04-26T15:44:48.999Z</time></trkpt><trkpt lat="43.435523658268174" lon="13.655269409049676"><ele>1.0</ele><time>2026-04-26T15:44:49.999Z</time></trkpt><trkpt lat="43.43552085515616" lon="13.655387500273152"><ele>1.0</ele><time>2026-04-26T15:44:50.999Z</time></trkpt><trkpt lat="43.4355199231215" lon="13.655499427713595"><ele>1.4</ele><time>2026-04-26T15:44:51.999Z</time></trkpt><trkpt lat="43.43552116669182" lon="13.655613484364386"><ele>1.8</ele><time>2026-04-26T15:44:52.998Z</time></trkpt><trkpt lat="43.43552067691667" lon="13.655708951791462"><ele>2.1999999999999997</ele><time>2026-04-26T15:44:53.998Z</time></trkpt><trkpt lat="43.435509573748746" lon="13.65595238784336"><ele>2.6</ele><time>2026-04-26T15:44:54.998Z</time></trkpt><trkpt lat="43.435503012492035" lon="13.65608916337297"><ele>3.0</ele><time>2026-04-26T15:44:55.998Z</time></trkpt><trkpt lat="43.43549957873173" lon="13.656226670974949"><ele>3.0</ele><time>2026-04-26T15:44:56.998Z</time></trkpt><trkpt lat="43.43550062505784" lon="13.656346098423935"><ele>3.0</ele><time>2026-04-26T15:44:57.998Z</time></trkpt><trkpt lat="43.43549920276589" lon="13.656446800513663"><ele>3.0</ele><time>2026-04-26T15:44:58.998Z</time></trkpt><trkpt lat="43.43549094572717" lon="13.656596656968132"><ele>3.0</ele><time>2026-04-26T15:45:00.998Z</time></trkpt><trkpt lat="43.43548644875125" lon="13.656724663458974"><ele>3.0</ele><time>2026-04-26T15:45:02.998Z</time></trkpt><trkpt lat="43.435474069271244" lon="13.656840190157418"><ele>3.0</ele><time>2026-04-26T15:45:04.998Z</time></trkpt><trkpt lat="43.43546483021952" lon="13.656946362469657"><ele>2.8</ele><time>2026-04-26T15:45:06.998Z</time></trkpt><trkpt lat="43.435428845211355" lon="13.657062558090916"><ele>2.5999999999999996</ele><time>2026-04-26T15:45:09.998Z</time></trkpt><trkpt lat="43.43538073665592" lon="13.657158329181371"><ele>2.4000000000000004</ele><time>2026-04-26T15:45:12.998Z</time></trkpt><trkpt lat="43.435297024549406" lon="13.657217342306541"><ele>2.2</ele><time>2026-04-26T15:45:14.998Z</time></trkpt><trkpt lat="43.435238929109275" lon="13.657300061457708"><ele>2.0</ele><time>2026-04-26T15:45:16.998Z</time></trkpt><trkpt lat="43.43520765530564" lon="13.657456620522506"><ele>1.9999999999999998</ele><time>2026-04-26T15:45:18.998Z</time></trkpt><trkpt lat="43.43521711020821" lon="13.657552379698897"><ele>2.0</ele><time>2026-04-26T15:45:19.998Z</time></trkpt><trkpt lat="43.43523287476926" lon="13.657656928648631"><ele>2.0</ele><time>2026-04-26T15:45:20.998Z</time></trkpt><trkpt lat="43.43523683943713" lon="13.657770742190904"><ele>2.0</ele><time>2026-04-26T15:45:21.998Z</time></trkpt><trkpt lat="43.43524238964782" lon="13.657877754799443"><ele>1.9999999999999998</ele><time>2026-04-26T15:45:22.998Z</time></trkpt><trkpt lat="43.43519035210811" lon="13.657990296950706"><ele>2.0</ele><time>2026-04-26T15:45:23.998Z</time></trkpt><trkpt lat="43.43514605208031" lon="13.658105845698984"><ele>2.4000000000000004</ele><time>2026-04-26T15:45:24.998Z</time></trkpt><trkpt lat="43.43508925974253" lon="13.658214506230413"><ele>2.8000000000000003</ele><time>2026-04-26T15:45:25.998Z</time></trkpt><trkpt lat="43.435024648667664" lon="13.658316094221108"><ele>3.2</ele><time>2026-04-26T15:45:26.998Z</time></trkpt><trkpt lat="43.43495333068806" lon="13.658413676459107"><ele>3.6</ele><time>2026-04-26T15:45:27.998Z</time></trkpt><trkpt lat="43.43487571943534" lon="13.658509451081652"><ele>4.0</ele><time>2026-04-26T15:45:28.998Z</time></trkpt><trkpt lat="43.434788730828764" lon="13.658605812640154"><ele>4.0</ele><time>2026-04-26T15:45:29.998Z</time></trkpt><trkpt lat="43.43468994103525" lon="13.658696288442961"><ele>4.0</ele><time>2026-04-26T15:45:30.998Z</time></trkpt><trkpt lat="43.43458718530604" lon="13.658787037209091"><ele>4.0</ele><time>2026-04-26T15:45:31.998Z</time></trkpt><trkpt lat="43.43447546427434" lon="13.65886092731457"><ele>4.0</ele><time>2026-04-26T15:45:32.998Z</time></trkpt><trkpt lat="43.434364472968916" lon="13.658922313449539"><ele>4.0</ele><time>2026-04-26T15:45:33.998Z</time></trkpt><trkpt lat="43.434250831005784" lon="13.658986666786584"><ele>4.0</ele><time>2026-04-26T15:45:34.998Z</time></trkpt><trkpt lat="43.43413985290955" lon="13.65905209029375"><ele>4.0</ele><time>2026-04-26T15:45:35.998Z</time></trkpt><trkpt lat="43.43402376115252" lon="13.659106704428694"><ele>4.0</ele><time>2026-04-26T15:45:36.998Z</time></trkpt><trkpt lat="43.433908609841666" lon="13.659171062855895"><ele>4.5</ele><time>2026-04-26T15:45:37.997Z</time></trkpt><trkpt lat="43.43378539767695" lon="13.659241069598398"><ele>5.0</ele><time>2026-04-26T15:45:38.997Z</time></trkpt><trkpt lat="43.433665325558316" lon="13.659304975381135"><ele>5.5</ele><time>2026-04-26T15:45:39.997Z</time></trkpt><trkpt lat="43.433543388417625" lon="13.659367255594335"><ele>6.0</ele><time>2026-04-26T15:45:40.997Z</time></trkpt><trkpt lat="43.43342005150203" lon="13.659428061439474"><ele>5.25</ele><time>2026-04-26T15:45:41.997Z</time></trkpt><trkpt lat="43.433299851018134" lon="13.659486397890428"><ele>4.5</ele><time>2026-04-26T15:45:42.997Z</time></trkpt><trkpt lat="43.43317851946272" lon="13.65954618709861"><ele>3.75</ele><time>2026-04-26T15:45:43.997Z</time></trkpt><trkpt lat="43.433068216511494" lon="13.659602294000672"><ele>3.0</ele><time>2026-04-26T15:45:45Z</time></trkpt><trkpt lat="43.43295814235492" lon="13.659658783395113"><ele>2.75</ele><time>2026-04-26T15:45:46Z</time></trkpt><trkpt lat="43.43284894676759" lon="13.659715603833787"><ele>2.5</ele><time>2026-04-26T15:45:47Z</time></trkpt><trkpt lat="43.43274178842528" lon="13.659772118754042"><ele>2.25</ele><time>2026-04-26T15:45:48Z</time></trkpt><trkpt lat="43.43263252181279" lon="13.659832646617913"><ele>2.0</ele><time>2026-04-26T15:45:49Z</time></trkpt><trkpt lat="43.432522938160794" lon="13.659889834494152"><ele>2.0</ele><time>2026-04-26T15:45:50Z</time></trkpt><trkpt lat="43.432413820081365" lon="13.659949688611475"><ele>2.0</ele><time>2026-04-26T15:45:51Z</time></trkpt><trkpt lat="43.43230271690209" lon="13.660008749740129"><ele>2.0</ele><time>2026-04-26T15:45:52Z</time></trkpt><trkpt lat="43.43218460557291" lon="13.660068015052227"><ele>2.0</ele><time>2026-04-26T15:45:53Z</time></trkpt><trkpt lat="43.43206317050499" lon="13.660127821353626"><ele>2.5</ele><time>2026-04-26T15:45:54Z</time></trkpt><trkpt lat="43.431945226345924" lon="13.660188342032836"><ele>3.0</ele><time>2026-04-26T15:45:55Z</time></trkpt><trkpt lat="43.43182492721775" lon="13.660250169343767"><ele>3.5</ele><time>2026-04-26T15:45:56Z</time></trkpt><trkpt lat="43.43169836736658" lon="13.660317286887187"><ele>4.0</ele><time>2026-04-26T15:45:57Z</time></trkpt><trkpt lat="43.4315631584219" lon="13.66038588517597"><ele>4.0</ele><time>2026-04-26T15:45:58Z</time></trkpt><trkpt lat="43.4314304805464" lon="13.660455690979115"><ele>4.0</ele><time>2026-04-26T15:45:59Z</time></trkpt><trkpt lat="43.4312917423735" lon="13.660529961324384"><ele>4.0</ele><time>2026-04-26T15:46:00Z</time></trkpt><trkpt lat="43.43115302620674" lon="13.660602263907828"><ele>4.0</ele><time>2026-04-26T15:46:01Z</time></trkpt><trkpt lat="43.43101224126427" lon="13.660678338914243"><ele>4.25</ele><time>2026-04-26T15:46:02Z</time></trkpt><trkpt lat="43.430871732904144" lon="13.6607491828308"><ele>4.5</ele><time>2026-04-26T15:46:03Z</time></trkpt><trkpt lat="43.430747637026485" lon="13.66082866446449"><ele>4.75</ele><time>2026-04-26T15:46:04Z</time></trkpt><trkpt lat="43.430622798568294" lon="13.66088301179647"><ele>5.0</ele><time>2026-04-26T15:46:05Z</time></trkpt><trkpt lat="43.43049451517727" lon="13.66095082875552"><ele>5.5</ele><time>2026-04-26T15:46:05.999Z</time></trkpt><trkpt lat="43.43036460597423" lon="13.66101892077721"><ele>6.0</ele><time>2026-04-26T15:46:06.999Z</time></trkpt><trkpt lat="43.4302329753735" lon="13.661083910593911"><ele>6.5</ele><time>2026-04-26T15:46:07.999Z</time></trkpt><trkpt lat="43.430101225065755" lon="13.661148500667657"><ele>7.0</ele><time>2026-04-26T15:46:08.999Z</time></trkpt><trkpt lat="43.42996838929107" lon="13.661212503315276"><ele>7.0</ele><time>2026-04-26T15:46:09.999Z</time></trkpt><trkpt lat="43.429834899426105" lon="13.661281692189995"><ele>7.0</ele><time>2026-04-26T15:46:10.999Z</time></trkpt><trkpt lat="43.42970634427807" lon="13.661352368443957"><ele>7.0</ele><time>2026-04-26T15:46:11.999Z</time></trkpt><trkpt lat="43.42957944955296" lon="13.661416412568103"><ele>7.0</ele><time>2026-04-26T15:46:12.999Z</time></trkpt><trkpt lat="43.429450008345846" lon="13.661484737701468"><ele>6.75</ele><time>2026-04-26T15:46:13.999Z</time></trkpt><trkpt lat="43.429319693330235" lon="13.661548898661492"><ele>6.5</ele><time>2026-04-26T15:46:14.999Z</time></trkpt><trkpt lat="43.42918760617469" lon="13.661619732543985"><ele>6.25</ele><time>2026-04-26T15:46:15.999Z</time></trkpt><trkpt lat="43.42905844310763" lon="13.66168950539926"><ele>6.0</ele><time>2026-04-26T15:46:16.999Z</time></trkpt><trkpt lat="43.42892794314036" lon="13.661757644725522"><ele>6.0</ele><time>2026-04-26T15:46:17.999Z</time></trkpt><trkpt lat="43.42880477781151" lon="13.661823448211809"><ele>6.0</ele><time>2026-04-26T15:46:18.999Z</time></trkpt><trkpt lat="43.42868896257451" lon="13.661882921035609"><ele>6.0</ele><time>2026-04-26T15:46:19.999Z</time></trkpt><trkpt lat="43.42857934405774" lon="13.661936966511874"><ele>6.0</ele><time>2026-04-26T15:46:20.999Z</time></trkpt><trkpt lat="43.42847843156214" lon="13.661990235994837"><ele>5.833333333333333</ele><time>2026-04-26T15:46:21.999Z</time></trkpt><trkpt lat="43.42838835905339" lon="13.662036138662"><ele>5.666666666666667</ele><time>2026-04-26T15:46:22.999Z</time></trkpt><trkpt lat="43.42831489573773" lon="13.662072947916593"><ele>5.5</ele><time>2026-04-26T15:46:23.999Z</time></trkpt><trkpt lat="43.42825617246006" lon="13.662106020848888"><ele>5.333333333333334</ele><time>2026-04-26T15:46:24.999Z</time></trkpt><trkpt lat="43.428175877012904" lon="13.662149639546612"><ele>5.166666666666667</ele><time>2026-04-26T15:46:26.999Z</time></trkpt><trkpt lat="43.42811398749877" lon="13.662181136361298"><ele>5.0</ele><time>2026-04-26T15:46:30.999Z</time></trkpt><trkpt lat="43.42805128164385" lon="13.662230507297568"><ele>5.166666666666667</ele><time>2026-04-26T15:47:02.998Z</time></trkpt><trkpt lat="43.427966898687906" lon="13.66227652547394"><ele>5.333333333333334</ele><time>2026-04-26T15:47:05.998Z</time></trkpt><trkpt lat="43.42790493970196" lon="13.662307910304627"><ele>5.5</ele><time>2026-04-26T15:47:07.998Z</time></trkpt><trkpt lat="43.427840098774055" lon="13.662335879570978"><ele>5.666666666666667</ele><time>2026-04-26T15:47:09.998Z</time></trkpt><trkpt lat="43.42776112141265" lon="13.662368900454744"><ele>5.833333333333333</ele><time>2026-04-26T15:47:11.998Z</time></trkpt><trkpt lat="43.427651612133864" lon="13.662422721893982"><ele>6.0</ele><time>2026-04-26T15:47:13.998Z</time></trkpt><trkpt lat="43.42759024373291" lon="13.662454137833695"><ele>6.0</ele><time>2026-04-26T15:47:14.998Z</time></trkpt><trkpt lat="43.42752484024" lon="13.66248820770448"><ele>6.0</ele><time>2026-04-26T15:47:15.998Z</time></trkpt><trkpt lat="43.42744406956199" lon="13.6625305440215"><ele>6.0</ele><time>2026-04-26T15:47:16.998Z</time></trkpt><trkpt lat="43.427357071783234" lon="13.662576237453617"><ele>6.0</ele><time>2026-04-26T15:47:17.998Z</time></trkpt><trkpt lat="43.427266681423184" lon="13.6626187412524"><ele>6.0</ele><time>2026-04-26T15:47:18.998Z</time></trkpt><trkpt lat="43.42717267636536" lon="13.662664694111024"><ele>6.0</ele><time>2026-04-26T15:47:19.998Z</time></trkpt><trkpt lat="43.42708001918952" lon="13.662710765318486"><ele>5.8</ele><time>2026-04-26T15:47:20.998Z</time></trkpt><trkpt lat="43.426986074533566" lon="13.66275599002811"><ele>5.6</ele><time>2026-04-26T15:47:21.998Z</time></trkpt><trkpt lat="43.42689235097463" lon="13.66280504106113"><ele>5.4</ele><time>2026-04-26T15:47:22.998Z</time></trkpt><trkpt lat="43.42679751196945" lon="13.662858095896876"><ele>5.2</ele><time>2026-04-26T15:47:23.998Z</time></trkpt><trkpt lat="43.426705444290455" lon="13.662912107593403"><ele>5.0</ele><time>2026-04-26T15:47:24.998Z</time></trkpt><trkpt lat="43.426611360991956" lon="13.66295663663772"><ele>5.4</ele><time>2026-04-26T15:47:25.998Z</time></trkpt><trkpt lat="43.426521391721586" lon="13.662997360256075"><ele>5.8</ele><time>2026-04-26T15:47:26.998Z</time></trkpt><trkpt lat="43.426436774814945" lon="13.663037286995165"><ele>6.199999999999999</ele><time>2026-04-26T15:47:27.998Z</time></trkpt><trkpt lat="43.42636845645029" lon="13.663077298904"><ele>6.6</ele><time>2026-04-26T15:47:28.998Z</time></trkpt><trkpt lat="43.426294255280666" lon="13.663102008408824"><ele>7.0</ele><time>2026-04-26T15:47:29.998Z</time></trkpt><trkpt lat="43.426176904622146" lon="13.663087006280549"><ele>7.000000000000001</ele><time>2026-04-26T15:47:31.998Z</time></trkpt><trkpt lat="43.42609466309315" lon="13.662983862004024"><ele>7.0</ele><time>2026-04-26T15:47:33.998Z</time></trkpt><trkpt lat="43.42602106353484" lon="13.66295264633297"><ele>7.0</ele><time>2026-04-26T15:47:35.998Z</time></trkpt><trkpt lat="43.425976720556484" lon="13.663033730462876"><ele>7.0</ele><time>2026-04-26T15:47:37.997Z</time></trkpt><trkpt lat="43.426004866260726" lon="13.663128816091717"><ele>7.000000000000001</ele><time>2026-04-26T15:47:40.997Z</time></trkpt><trkpt lat="43.42606516075101" lon="13.663195096114592"><ele>7.0</ele><time>2026-04-26T15:49:06.998Z</time></trkpt><trkpt lat="43.426226790714146" lon="13.663202505290096"><ele>7.0</ele><time>2026-04-26T15:49:08.998Z</time></trkpt><trkpt lat="43.42632783473596" lon="13.663179510345323"><ele>6.999999999999999</ele><time>2026-04-26T15:49:09.998Z</time></trkpt><trkpt lat="43.42643170554378" lon="13.663126848066417"><ele>6.999999999999999</ele><time>2026-04-26T15:49:10.998Z</time></trkpt><trkpt lat="43.42652586257718" lon="13.663078285064756"><ele>7.0</ele><time>2026-04-26T15:49:11.998Z</time></trkpt><trkpt lat="43.426613074391184" lon="13.663035418124396"><ele>7.0</ele><time>2026-04-26T15:49:12.998Z</time></trkpt><trkpt lat="43.42669568342979" lon="13.662992497863383"><ele>7.000000000000001</ele><time>2026-04-26T15:49:13.998Z</time></trkpt><trkpt lat="43.426762004686296" lon="13.662957322609712"><ele>7.0</ele><time>2026-04-26T15:49:14.998Z</time></trkpt><trkpt lat="43.42684217421931" lon="13.662932021468679"><ele>7.0</ele><time>2026-04-26T15:49:16.998Z</time></trkpt><trkpt lat="43.42692926540995" lon="13.66288478674379"><ele>7.0</ele><time>2026-04-26T15:49:19.998Z</time></trkpt><trkpt lat="43.427008922860146" lon="13.662843352880953"><ele>7.000000000000001</ele><time>2026-04-26T15:49:22.998Z</time></trkpt><trkpt lat="43.42710189428698" lon="13.662781755351247"><ele>7.0</ele><time>2026-04-26T15:49:25.998Z</time></trkpt><trkpt lat="43.42718834708826" lon="13.662739204172441"><ele>6.857142857142857</ele><time>2026-04-26T15:49:27.998Z</time></trkpt><trkpt lat="43.427263641718156" lon="13.662705361496432"><ele>6.714285714285714</ele><time>2026-04-26T15:49:29.998Z</time></trkpt><trkpt lat="43.42732360657579" lon="13.662677539881162"><ele>6.571428571428571</ele><time>2026-04-26T15:49:31.998Z</time></trkpt><trkpt lat="43.427398522699384" lon="13.66265898766131"><ele>6.428571428571429</ele><time>2026-04-26T15:49:35.998Z</time></trkpt><trkpt lat="43.42747509356439" lon="13.662615544749194"><ele>6.285714285714286</ele><time>2026-04-26T15:49:39.997Z</time></trkpt><trkpt lat="43.427546428652356" lon="13.662573468118563"><ele>6.142857142857142</ele><time>2026-04-26T15:49:48.997Z</time></trkpt><trkpt lat="43.427609521115016" lon="13.662544921058227"><ele>6.0</ele><time>2026-04-26T15:49:50.997Z</time></trkpt><trkpt lat="43.427681612769405" lon="13.662511187458433"><ele>6.0</ele><time>2026-04-26T15:49:53.997Z</time></trkpt><trkpt lat="43.42774885460538" lon="13.662499722766212"><ele>6.0</ele><time>2026-04-26T15:50:04Z</time></trkpt></trkseg></trk></gpx>